<?xml version='1.0' encoding='UTF-8'?><gpx version="1.1" creator="JPX - https://github.com/jenetics/jpx" xmlns="http://www.topografix.com/GPX/1/1"><trk><trkseg><trkpt lat="44.9501058" lon="8.0267289"><ele>243.99999999999997</ele><time>2026-04-25T13:25:51.109Z</time></trkpt><trkpt lat="44.9501896" lon="8.02665"><ele>244.0</ele><time>2026-04-25T13:27:08.108Z</time></trkpt><trkpt lat="44.9502192" lon="8.026559"><ele>244.0</ele><time>2026-04-25T13:27:09.108Z</time></trkpt><trkpt lat="44.9502598" lon="8.0264506"><ele>244.0</ele><time>2026-04-25T13:27:10.108Z</time></trkpt><trkpt lat="44.9502992" lon="8.0263504"><ele>243.99999999999997</ele><time>2026-04-25T13:27:11.108Z</time></trkpt><trkpt lat="44.9503406" lon="8.0262433"><ele>244.0</ele><time>2026-04-25T13:27:12.108Z</time></trkpt><trkpt lat="44.9503763" lon="8.0261302"><ele>242.49999999999997</ele><time>2026-04-25T13:27:13.108Z</time></trkpt><trkpt lat="44.9504008" lon="8.0260283"><ele>241.0</ele><time>2026-04-25T13:27:14.108Z</time></trkpt><trkpt lat="44.9504121" lon="8.0259305"><ele>239.5</ele><time>2026-04-25T13:27:15.108Z</time></trkpt><trkpt lat="44.9504108" lon="8.0258263"><ele>238.0</ele><time>2026-04-25T13:27:16.108Z</time></trkpt><trkpt lat="44.9504015" lon="8.0257137"><ele>236.49999999999997</ele><time>2026-04-25T13:27:17.108Z</time></trkpt><trkpt lat="44.9503875" lon="8.0256015"><ele>235.0</ele><time>2026-04-25T13:27:18.108Z</time></trkpt><trkpt lat="44.9503796" lon="8.0254868"><ele>234.16666666666666</ele><time>2026-04-25T13:27:19.108Z</time></trkpt><trkpt lat="44.9503704" lon="8.0253745"><ele>233.33333333333331</ele><time>2026-04-25T13:27:20.108Z</time></trkpt><trkpt lat="44.9503563" lon="8.025267"><ele>232.5</ele><time>2026-04-25T13:27:21.108Z</time></trkpt><trkpt lat="44.9503442" lon="8.0251561"><ele>231.66666666666669</ele><time>2026-04-25T13:27:22.108Z</time></trkpt><trkpt lat="44.9503387" lon="8.0250362"><ele>230.83333333333334</ele><time>2026-04-25T13:27:23.108Z</time></trkpt><trkpt lat="44.9503296" lon="8.0249189"><ele>230.0</ele><time>2026-04-25T13:27:24.108Z</time></trkpt><trkpt lat="44.950321" lon="8.0247994"><ele>229.16666666666669</ele><time>2026-04-25T13:27:25.108Z</time></trkpt><trkpt lat="44.9503162" lon="8.0246772"><ele>228.33333333333334</ele><time>2026-04-25T13:27:26.108Z</time></trkpt><trkpt lat="44.950307" lon="8.0245594"><ele>227.5</ele><time>2026-04-25T13:27:27.108Z</time></trkpt><trkpt lat="44.950298" lon="8.0244366"><ele>226.66666666666669</ele><time>2026-04-25T13:27:28.108Z</time></trkpt><trkpt lat="44.9502903" lon="8.0243103"><ele>225.83333333333334</ele><time>2026-04-25T13:27:29.108Z</time></trkpt><trkpt lat="44.9503005" lon="8.0242056"><ele>225.0</ele><time>2026-04-25T13:27:30.108Z</time></trkpt><trkpt lat="44.9503043" lon="8.0241077"><ele>225.0</ele><time>2026-04-25T13:27:31.108Z</time></trkpt><trkpt lat="44.9502703" lon="8.0239769"><ele>225.0</ele><time>2026-04-25T13:27:33.108Z</time></trkpt><trkpt lat="44.9501902" lon="8.0240026"><ele>225.0</ele><time>2026-04-25T13:27:36.108Z</time></trkpt><trkpt lat="44.9501385" lon="8.0241665"><ele>225.0</ele><time>2026-04-25T13:27:38.108Z</time></trkpt><trkpt lat="44.9500973" lon="8.0242624"><ele>225.0</ele><time>2026-04-25T13:27:39.108Z</time></trkpt><trkpt lat="44.9500481" lon="8.0243439"><ele>222.16666666666666</ele><time>2026-04-25T13:27:40.108Z</time></trkpt><trkpt lat="44.9499938" lon="8.0243983"><ele>219.33333333333331</ele><time>2026-04-25T13:27:41.108Z</time></trkpt><trkpt lat="44.9499319" lon="8.0244265"><ele>216.5</ele><time>2026-04-25T13:27:42.108Z</time></trkpt><trkpt lat="44.9498651" lon="8.024427"><ele>213.66666666666666</ele><time>2026-04-25T13:27:43.108Z</time></trkpt><trkpt lat="44.9497623" lon="8.0243434"><ele>210.83333333333331</ele><time>2026-04-25T13:27:45.108Z</time></trkpt><trkpt lat="44.9497133" lon="8.0241766"><ele>208.0</ele><time>2026-04-25T13:27:47.108Z</time></trkpt><trkpt lat="44.9497438" lon="8.0240083"><ele>206.83333333333331</ele><time>2026-04-25T13:27:49.108Z</time></trkpt><trkpt lat="44.9497848" lon="8.0239318"><ele>205.66666666666666</ele><time>2026-04-25T13:27:50.108Z</time></trkpt><trkpt lat="44.9498264" lon="8.0238556"><ele>204.5</ele><time>2026-04-25T13:27:51.108Z</time></trkpt><trkpt lat="44.9498698" lon="8.0237723"><ele>203.33333333333331</ele><time>2026-04-25T13:27:52.108Z</time></trkpt><trkpt lat="44.9499056" lon="8.023691"><ele>202.16666666666666</ele><time>2026-04-25T13:27:53.108Z</time></trkpt><trkpt lat="44.9499549" lon="8.0235162"><ele>201.0</ele><time>2026-04-25T13:27:55.108Z</time></trkpt><trkpt lat="44.9499736" lon="8.0234153"><ele>200.33333333333334</ele><time>2026-04-25T13:27:56.108Z</time></trkpt><trkpt lat="44.9499809" lon="8.0233128"><ele>199.66666666666669</ele><time>2026-04-25T13:27:57.108Z</time></trkpt><trkpt lat="44.9499882" lon="8.0231955"><ele>199.0</ele><time>2026-04-25T13:27:58.108Z</time></trkpt><trkpt lat="44.9499976" lon="8.0230717"><ele>198.33333333333334</ele><time>2026-04-25T13:27:59.108Z</time></trkpt><trkpt lat="44.9500047" lon="8.0229494"><ele>197.66666666666669</ele><time>2026-04-25T13:28:00.108Z</time></trkpt><trkpt lat="44.950016" lon="8.0228257"><ele>197.0</ele><time>2026-04-25T13:28:01.108Z</time></trkpt><trkpt lat="44.9500234" lon="8.0226934"><ele>197.0</ele><time>2026-04-25T13:28:02.108Z</time></trkpt><trkpt lat="44.95003" lon="8.022553"><ele>197.0</ele><time>2026-04-25T13:28:03.108Z</time></trkpt><trkpt lat="44.9500359" lon="8.0223897"><ele>197.0</ele><time>2026-04-25T13:28:04.108Z</time></trkpt><trkpt lat="44.9500391" lon="8.022229"><ele>197.0</ele><time>2026-04-25T13:28:05.108Z</time></trkpt><trkpt lat="44.9500375" lon="8.0220675"><ele>197.0</ele><time>2026-04-25T13:28:06.108Z</time></trkpt><trkpt lat="44.9500269" lon="8.0219146"><ele>195.8</ele><time>2026-04-25T13:28:07.108Z</time></trkpt><trkpt lat="44.9500154" lon="8.0217585"><ele>194.6</ele><time>2026-04-25T13:28:08.108Z</time></trkpt><trkpt lat="44.9500033" lon="8.0215944"><ele>193.4</ele><time>2026-04-25T13:28:09.108Z</time></trkpt><trkpt lat="44.9499962" lon="8.0214409"><ele>192.20000000000002</ele><time>2026-04-25T13:28:10.108Z</time></trkpt><trkpt lat="44.9499898" lon="8.0212956"><ele>191.0</ele><time>2026-04-25T13:28:11.108Z</time></trkpt><trkpt lat="44.9499863" lon="8.0211544"><ele>189.20000000000002</ele><time>2026-04-25T13:28:12.108Z</time></trkpt><trkpt lat="44.9499802" lon="8.0210121"><ele>187.4</ele><time>2026-04-25T13:28:13.108Z</time></trkpt><trkpt lat="44.9499775" lon="8.0208779"><ele>185.6</ele><time>2026-04-25T13:28:14.108Z</time></trkpt><trkpt lat="44.9499699" lon="8.0207437"><ele>183.8</ele><time>2026-04-25T13:28:15.108Z</time></trkpt><trkpt lat="44.9499675" lon="8.0206085"><ele>182.0</ele><time>2026-04-25T13:28:16.108Z</time></trkpt><trkpt lat="44.9499589" lon="8.0204731"><ele>181.33333333333331</ele><time>2026-04-25T13:28:17.108Z</time></trkpt><trkpt lat="44.949956" lon="8.0203515"><ele>180.66666666666666</ele><time>2026-04-25T13:28:18.108Z</time></trkpt><trkpt lat="44.9499531" lon="8.0202483"><ele>180.0</ele><time>2026-04-25T13:28:19.108Z</time></trkpt><trkpt lat="44.9499564" lon="8.0201028"><ele>179.33333333333334</ele><time>2026-04-25T13:28:21.108Z</time></trkpt><trkpt lat="44.9499419" lon="8.0199903"><ele>178.66666666666669</ele><time>2026-04-25T13:28:25.108Z</time></trkpt><trkpt lat="44.9498558" lon="8.0199237"><ele>178.0</ele><time>2026-04-25T13:28:27.108Z</time></trkpt><trkpt lat="44.9497823" lon="8.0199236"><ele>177.2</ele><time>2026-04-25T13:28:28.108Z</time></trkpt><trkpt lat="44.9496935" lon="8.019923"><ele>176.4</ele><time>2026-04-25T13:28:29.108Z</time></trkpt><trkpt lat="44.9495917" lon="8.0199166"><ele>175.6</ele><time>2026-04-25T13:28:30.108Z</time></trkpt><trkpt lat="44.9494862" lon="8.0199088"><ele>174.79999999999998</ele><time>2026-04-25T13:28:31.108Z</time></trkpt><trkpt lat="44.9493757" lon="8.0199066"><ele>174.0</ele><time>2026-04-25T13:28:32.108Z</time></trkpt><trkpt lat="44.9492502" lon="8.019902"><ele>173.5</ele><time>2026-04-25T13:28:33.108Z</time></trkpt><trkpt lat="44.949125" lon="8.0198909"><ele>173.0</ele><time>2026-04-25T13:28:34.108Z</time></trkpt><trkpt lat="44.9489878" lon="8.0198774"><ele>172.5</ele><time>2026-04-25T13:28:35.108Z</time></trkpt><trkpt lat="44.9488522" lon="8.0198668"><ele>172.0</ele><time>2026-04-25T13:28:36.108Z</time></trkpt><trkpt lat="44.9487121" lon="8.01986"><ele>172.0</ele><time>2026-04-25T13:28:37.108Z</time></trkpt><trkpt lat="44.94857" lon="8.0198477"><ele>172.0</ele><time>2026-04-25T13:28:38.108Z</time></trkpt><trkpt lat="44.9484237" lon="8.0198368"><ele>172.0</ele><time>2026-04-25T13:28:39.108Z</time></trkpt><trkpt lat="44.9482798" lon="8.0198252"><ele>172.0</ele><time>2026-04-25T13:28:40.108Z</time></trkpt><trkpt lat="44.9481378" lon="8.0198135"><ele>171.75</ele><time>2026-04-25T13:28:41.108Z</time></trkpt><trkpt lat="44.9479906" lon="8.0198061"><ele>171.5</ele><time>2026-04-25T13:28:42.108Z</time></trkpt><trkpt lat="44.9478497" lon="8.0197971"><ele>171.25</ele><time>2026-04-25T13:28:43.108Z</time></trkpt><trkpt lat="44.9477039" lon="8.01979"><ele>171.0</ele><time>2026-04-25T13:28:44.108Z</time></trkpt><trkpt lat="44.9475588" lon="8.0197771"><ele>170.5</ele><time>2026-04-25T13:28:45.108Z</time></trkpt><trkpt lat="44.9474137" lon="8.0197658"><ele>170.0</ele><time>2026-04-25T13:28:46.108Z</time></trkpt><trkpt lat="44.9472671" lon="8.019757"><ele>169.5</ele><time>2026-04-25T13:28:47.108Z</time></trkpt><trkpt lat="44.9471227" lon="8.01975"><ele>169.0</ele><time>2026-04-25T13:28:48.108Z</time></trkpt><trkpt lat="44.9469661" lon="8.0197522"><ele>169.0</ele><time>2026-04-25T13:28:49.108Z</time></trkpt><trkpt lat="44.9468117" lon="8.0197648"><ele>169.0</ele><time>2026-04-25T13:28:50.108Z</time></trkpt><trkpt lat="44.9466506" lon="8.0197821"><ele>169.0</ele><time>2026-04-25T13:28:51.108Z</time></trkpt><trkpt lat="44.9464798" lon="8.0198018"><ele>169.0</ele><time>2026-04-25T13:28:52.108Z</time></trkpt><trkpt lat="44.9463177" lon="8.0198203"><ele>169.0</ele><time>2026-04-25T13:28:53.108Z</time></trkpt><trkpt lat="44.9461517" lon="8.019845"><ele>169.0</ele><time>2026-04-25T13:28:54.108Z</time></trkpt><trkpt lat="44.9459807" lon="8.0198727"><ele>169.0</ele><time>2026-04-25T13:28:55.108Z</time></trkpt><trkpt lat="44.9458162" lon="8.0198982"><ele>169.0</ele><time>2026-04-25T13:28:56.108Z</time></trkpt><trkpt lat="44.9456526" lon="8.0199247"><ele>169.0</ele><time>2026-04-25T13:28:57.108Z</time></trkpt><trkpt lat="44.9454835" lon="8.0199457"><ele>169.0</ele><time>2026-04-25T13:28:58.108Z</time></trkpt><trkpt lat="44.9453134" lon="8.0199625"><ele>169.0</ele><time>2026-04-25T13:28:59.108Z</time></trkpt><trkpt lat="44.9451389" lon="8.0199806"><ele>169.0</ele><time>2026-04-25T13:29:00.108Z</time></trkpt><trkpt lat="44.9449654" lon="8.0200017"><ele>170.66666666666669</ele><time>2026-04-25T13:29:01.108Z</time></trkpt><trkpt lat="44.9447946" lon="8.0200205"><ele>172.33333333333334</ele><time>2026-04-25T13:29:02.108Z</time></trkpt><trkpt lat="44.9446231" lon="8.0200403"><ele>174.0</ele><time>2026-04-25T13:29:03.108Z</time></trkpt><trkpt lat="44.9444501" lon="8.0200651"><ele>174.0</ele><time>2026-04-25T13:29:04.108Z</time></trkpt><trkpt lat="44.9442766" lon="8.0200874"><ele>174.0</ele><time>2026-04-25T13:29:05.108Z</time></trkpt><trkpt lat="44.9441016" lon="8.020119"><ele>174.0</ele><time>2026-04-25T13:29:06.108Z</time></trkpt><trkpt lat="44.9439279" lon="8.0201667"><ele>175.33333333333334</ele><time>2026-04-25T13:29:07.108Z</time></trkpt><trkpt lat="44.943747" lon="8.0202398"><ele>176.66666666666669</ele><time>2026-04-25T13:29:08.108Z</time></trkpt><trkpt lat="44.9435612" lon="8.0203246"><ele>178.0</ele><time>2026-04-25T13:29:09.108Z</time></trkpt><trkpt lat="44.9433818" lon="8.0204117"><ele>176.0</ele><time>2026-04-25T13:29:10.108Z</time></trkpt><trkpt lat="44.9432021" lon="8.0204991"><ele>174.0</ele><time>2026-04-25T13:29:11.108Z</time></trkpt><trkpt lat="44.9430207" lon="8.0205859"><ele>172.0</ele><time>2026-04-25T13:29:12.108Z</time></trkpt><trkpt lat="44.9428419" lon="8.0206781"><ele>172.0</ele><time>2026-04-25T13:29:13.108Z</time></trkpt><trkpt lat="44.9426603" lon="8.0207701"><ele>172.0</ele><time>2026-04-25T13:29:14.108Z</time></trkpt><trkpt lat="44.9424767" lon="8.0208621"><ele>172.0</ele><time>2026-04-25T13:29:15.108Z</time></trkpt><trkpt lat="44.942284" lon="8.0209571"><ele>171.33333333333334</ele><time>2026-04-25T13:29:16.108Z</time></trkpt><trkpt lat="44.9420974" lon="8.0210565"><ele>170.66666666666666</ele><time>2026-04-25T13:29:17.108Z</time></trkpt><trkpt lat="44.941905" lon="8.0211565"><ele>170.0</ele><time>2026-04-25T13:29:18.108Z</time></trkpt><trkpt lat="44.9417089" lon="8.0212495"><ele>170.0</ele><time>2026-04-25T13:29:19.108Z</time></trkpt><trkpt lat="44.9415163" lon="8.0213485"><ele>170.0</ele><time>2026-04-25T13:29:20.108Z</time></trkpt><trkpt lat="44.9413148" lon="8.0214469"><ele>170.0</ele><time>2026-04-25T13:29:21.108Z</time></trkpt><trkpt lat="44.9411232" lon="8.0215437"><ele>170.0</ele><time>2026-04-25T13:29:22.108Z</time></trkpt><trkpt lat="44.9409318" lon="8.0216417"><ele>170.0</ele><time>2026-04-25T13:29:23.108Z</time></trkpt><trkpt lat="44.9407445" lon="8.0217357"><ele>170.0</ele><time>2026-04-25T13:29:24.108Z</time></trkpt><trkpt lat="44.9405522" lon="8.0218305"><ele>170.33333333333331</ele><time>2026-04-25T13:29:25.108Z</time></trkpt><trkpt lat="44.9403662" lon="8.021924"><ele>170.66666666666666</ele><time>2026-04-25T13:29:26.108Z</time></trkpt><trkpt lat="44.9401842" lon="8.0220264"><ele>171.0</ele><time>2026-04-25T13:29:27.108Z</time></trkpt><trkpt lat="44.9399997" lon="8.0221239"><ele>169.66666666666666</ele><time>2026-04-25T13:29:28.108Z</time></trkpt><trkpt lat="44.9398149" lon="8.0222193"><ele>168.33333333333331</ele><time>2026-04-25T13:29:29.108Z</time></trkpt><trkpt lat="44.9396227" lon="8.0223136"><ele>167.0</ele><time>2026-04-25T13:29:30.108Z</time></trkpt><trkpt lat="44.9394307" lon="8.0223952"><ele>167.0</ele><time>2026-04-25T13:29:31.108Z</time></trkpt><trkpt lat="44.9392374" lon="8.0224804"><ele>167.0</ele><time>2026-04-25T13:29:32.108Z</time></trkpt><trkpt lat="44.9390426" lon="8.0225724"><ele>167.0</ele><time>2026-04-25T13:29:33.108Z</time></trkpt><trkpt lat="44.93885" lon="8.0226637"><ele>167.33333333333331</ele><time>2026-04-25T13:29:34.108Z</time></trkpt><trkpt lat="44.9386534" lon="8.0227635"><ele>167.66666666666666</ele><time>2026-04-25T13:29:35.108Z</time></trkpt><trkpt lat="44.9384521" lon="8.022868"><ele>168.0</ele><time>2026-04-25T13:29:36.108Z</time></trkpt><trkpt lat="44.9382546" lon="8.0229687"><ele>168.0</ele><time>2026-04-25T13:29:37.108Z</time></trkpt><trkpt lat="44.9380566" lon="8.0230687"><ele>168.0</ele><time>2026-04-25T13:29:38.108Z</time></trkpt><trkpt lat="44.9378555" lon="8.0231673"><ele>168.0</ele><time>2026-04-25T13:29:39.108Z</time></trkpt><trkpt lat="44.9376511" lon="8.0232708"><ele>167.33333333333334</ele><time>2026-04-25T13:29:40.108Z</time></trkpt><trkpt lat="44.9374514" lon="8.0233707"><ele>166.66666666666669</ele><time>2026-04-25T13:29:41.108Z</time></trkpt><trkpt lat="44.9372455" lon="8.0234694"><ele>166.0</ele><time>2026-04-25T13:29:42.108Z</time></trkpt><trkpt lat="44.9370341" lon="8.0235728"><ele>166.0</ele><time>2026-04-25T13:29:43.108Z</time></trkpt><trkpt lat="44.936818" lon="8.0236801"><ele>166.0</ele><time>2026-04-25T13:29:44.108Z</time></trkpt><trkpt lat="44.9366038" lon="8.0237842"><ele>166.66666666666669</ele><time>2026-04-25T13:29:45.108Z</time></trkpt><trkpt lat="44.9363943" lon="8.023892"><ele>167.33333333333334</ele><time>2026-04-25T13:29:46.108Z</time></trkpt><trkpt lat="44.9361857" lon="8.0239989"><ele>168.0</ele><time>2026-04-25T13:29:47.108Z</time></trkpt><trkpt lat="44.9359748" lon="8.0241083"><ele>168.0</ele><time>2026-04-25T13:29:48.108Z</time></trkpt><trkpt lat="44.9357695" lon="8.0242108"><ele>168.0</ele><time>2026-04-25T13:29:49.108Z</time></trkpt><trkpt lat="44.935559" lon="8.0243219"><ele>168.0</ele><time>2026-04-25T13:29:50.108Z</time></trkpt><trkpt lat="44.9353564" lon="8.0244548"><ele>168.0</ele><time>2026-04-25T13:29:51.108Z</time></trkpt><trkpt lat="44.935164" lon="8.0245958"><ele>168.0</ele><time>2026-04-25T13:29:52.108Z</time></trkpt><trkpt lat="44.9349697" lon="8.0247395"><ele>168.0</ele><time>2026-04-25T13:29:53.108Z</time></trkpt><trkpt lat="44.934772" lon="8.0248786"><ele>169.5</ele><time>2026-04-25T13:29:54.108Z</time></trkpt><trkpt lat="44.9345691" lon="8.0250188"><ele>171.0</ele><time>2026-04-25T13:29:55.108Z</time></trkpt><trkpt lat="44.9343656" lon="8.0251632"><ele>171.0</ele><time>2026-04-25T13:29:56.108Z</time></trkpt><trkpt lat="44.9341609" lon="8.0253011"><ele>171.0</ele><time>2026-04-25T13:29:57.108Z</time></trkpt><trkpt lat="44.933959" lon="8.0254448"><ele>171.0</ele><time>2026-04-25T13:29:58.108Z</time></trkpt><trkpt lat="44.9337573" lon="8.0255868"><ele>171.0</ele><time>2026-04-25T13:29:59.108Z</time></trkpt><trkpt lat="44.9335586" lon="8.0257256"><ele>171.0</ele><time>2026-04-25T13:30:00.108Z</time></trkpt><trkpt lat="44.9333547" lon="8.0258597"><ele>170.0</ele><time>2026-04-25T13:30:01.108Z</time></trkpt><trkpt lat="44.9331556" lon="8.0259945"><ele>169.0</ele><time>2026-04-25T13:30:02.108Z</time></trkpt><trkpt lat="44.9329572" lon="8.0261294"><ele>168.0</ele><time>2026-04-25T13:30:03.108Z</time></trkpt><trkpt lat="44.932763" lon="8.0262686"><ele>168.0</ele><time>2026-04-25T13:30:04.108Z</time></trkpt><trkpt lat="44.9325781" lon="8.0264113"><ele>168.0</ele><time>2026-04-25T13:30:05.108Z</time></trkpt><trkpt lat="44.9323818" lon="8.0265489"><ele>168.0</ele><time>2026-04-25T13:30:06.108Z</time></trkpt><trkpt lat="44.9321894" lon="8.0266872"><ele>167.66666666666666</ele><time>2026-04-25T13:30:07.108Z</time></trkpt><trkpt lat="44.9320005" lon="8.0268212"><ele>167.33333333333331</ele><time>2026-04-25T13:30:08.108Z</time></trkpt><trkpt lat="44.9318078" lon="8.0269617"><ele>167.0</ele><time>2026-04-25T13:30:09.108Z</time></trkpt><trkpt lat="44.9316074" lon="8.0271005"><ele>166.33333333333331</ele><time>2026-04-25T13:30:10.108Z</time></trkpt><trkpt lat="44.9314102" lon="8.0272375"><ele>165.66666666666666</ele><time>2026-04-25T13:30:11.108Z</time></trkpt><trkpt lat="44.9312092" lon="8.0273756"><ele>165.0</ele><time>2026-04-25T13:30:12.108Z</time></trkpt><trkpt lat="44.9310103" lon="8.0275182"><ele>164.33333333333334</ele><time>2026-04-25T13:30:13.108Z</time></trkpt><trkpt lat="44.9308145" lon="8.0276602"><ele>163.66666666666669</ele><time>2026-04-25T13:30:14.108Z</time></trkpt><trkpt lat="44.9306179" lon="8.0278104"><ele>163.0</ele><time>2026-04-25T13:30:15.108Z</time></trkpt><trkpt lat="44.9304205" lon="8.0279548"><ele>163.0</ele><time>2026-04-25T13:30:16.108Z</time></trkpt><trkpt lat="44.9302241" lon="8.0281116"><ele>163.0</ele><time>2026-04-25T13:30:17.108Z</time></trkpt><trkpt lat="44.9300467" lon="8.0282915"><ele>163.0</ele><time>2026-04-25T13:30:18.108Z</time></trkpt><trkpt lat="44.9298753" lon="8.0284849"><ele>162.0</ele><time>2026-04-25T13:30:19.108Z</time></trkpt><trkpt lat="44.9297051" lon="8.0286908"><ele>161.0</ele><time>2026-04-25T13:30:20.108Z</time></trkpt><trkpt lat="44.9295331" lon="8.028893"><ele>160.0</ele><time>2026-04-25T13:30:21.108Z</time></trkpt><trkpt lat="44.9293637" lon="8.0290927"><ele>159.33333333333334</ele><time>2026-04-25T13:30:22.108Z</time></trkpt><trkpt lat="44.9291953" lon="8.0292898"><ele>158.66666666666666</ele><time>2026-04-25T13:30:23.108Z</time></trkpt><trkpt lat="44.9290253" lon="8.0294914"><ele>158.0</ele><time>2026-04-25T13:30:24.108Z</time></trkpt><trkpt lat="44.9288584" lon="8.0296965"><ele>158.0</ele><time>2026-04-25T13:30:25.108Z</time></trkpt><trkpt lat="44.9286949" lon="8.0298994"><ele>158.0</ele><time>2026-04-25T13:30:26.108Z</time></trkpt><trkpt lat="44.9285255" lon="8.0300993"><ele>158.0</ele><time>2026-04-25T13:30:27.108Z</time></trkpt><trkpt lat="44.9283594" lon="8.0302985"><ele>158.66666666666666</ele><time>2026-04-25T13:30:28.108Z</time></trkpt><trkpt lat="44.9281882" lon="8.0304865"><ele>159.33333333333334</ele><time>2026-04-25T13:30:29.108Z</time></trkpt><trkpt lat="44.9280061" lon="8.0306622"><ele>160.0</ele><time>2026-04-25T13:30:30.108Z</time></trkpt><trkpt lat="44.9278238" lon="8.030841"><ele>160.33333333333334</ele><time>2026-04-25T13:30:31.108Z</time></trkpt><trkpt lat="44.9276402" lon="8.0310203"><ele>160.66666666666666</ele><time>2026-04-25T13:30:32.108Z</time></trkpt><trkpt lat="44.9274599" lon="8.0312009"><ele>161.0</ele><time>2026-04-25T13:30:33.108Z</time></trkpt><trkpt lat="44.9272743" lon="8.0313824"><ele>161.0</ele><time>2026-04-25T13:30:34.108Z</time></trkpt><trkpt lat="44.9270891" lon="8.0315654"><ele>161.0</ele><time>2026-04-25T13:30:35.108Z</time></trkpt><trkpt lat="44.9269058" lon="8.0317594"><ele>161.66666666666666</ele><time>2026-04-25T13:30:36.108Z</time></trkpt><trkpt lat="44.9267312" lon="8.0319385"><ele>162.33333333333334</ele><time>2026-04-25T13:30:37.108Z</time></trkpt><trkpt lat="44.9265445" lon="8.0321012"><ele>163.0</ele><time>2026-04-25T13:30:38.108Z</time></trkpt><trkpt lat="44.9263498" lon="8.032236"><ele>163.0</ele><time>2026-04-25T13:30:39.108Z</time></trkpt><trkpt lat="44.9261554" lon="8.0323501"><ele>163.0</ele><time>2026-04-25T13:30:40.108Z</time></trkpt><trkpt lat="44.925942" lon="8.0324609"><ele>163.0</ele><time>2026-04-25T13:30:41.108Z</time></trkpt><trkpt lat="44.9257505" lon="8.0325639"><ele>165.5</ele><time>2026-04-25T13:30:42.108Z</time></trkpt><trkpt lat="44.9255148" lon="8.0326661"><ele>168.0</ele><time>2026-04-25T13:30:43.108Z</time></trkpt><trkpt lat="44.9252965" lon="8.0327679"><ele>168.0</ele><time>2026-04-25T13:30:44.108Z</time></trkpt><trkpt lat="44.9250842" lon="8.0328707"><ele>168.0</ele><time>2026-04-25T13:30:45.108Z</time></trkpt><trkpt lat="44.9248754" lon="8.0329795"><ele>168.0</ele><time>2026-04-25T13:30:46.108Z</time></trkpt><trkpt lat="44.9246687" lon="8.0330807"><ele>166.33333333333334</ele><time>2026-04-25T13:30:47.108Z</time></trkpt><trkpt lat="44.9244568" lon="8.0331844"><ele>164.66666666666669</ele><time>2026-04-25T13:30:48.108Z</time></trkpt><trkpt lat="44.9242595" lon="8.033289"><ele>163.0</ele><time>2026-04-25T13:30:49.108Z</time></trkpt><trkpt lat="44.9240644" lon="8.0333925"><ele>162.66666666666669</ele><time>2026-04-25T13:30:50.108Z</time></trkpt><trkpt lat="44.9238755" lon="8.0335105"><ele>162.33333333333334</ele><time>2026-04-25T13:30:51.108Z</time></trkpt><trkpt lat="44.923701" lon="8.0336577"><ele>162.0</ele><time>2026-04-25T13:30:52.108Z</time></trkpt><trkpt lat="44.9235334" lon="8.0338391"><ele>161.33333333333334</ele><time>2026-04-25T13:30:53.108Z</time></trkpt><trkpt lat="44.9233713" lon="8.0340418"><ele>160.66666666666669</ele><time>2026-04-25T13:30:54.108Z</time></trkpt><trkpt lat="44.9232163" lon="8.0342512"><ele>160.0</ele><time>2026-04-25T13:30:55.108Z</time></trkpt><trkpt lat="44.9230585" lon="8.0344677"><ele>160.0</ele><time>2026-04-25T13:30:56.108Z</time></trkpt><trkpt lat="44.9228973" lon="8.0346819"><ele>160.0</ele><time>2026-04-25T13:30:57.108Z</time></trkpt><trkpt lat="44.9227278" lon="8.0348884"><ele>160.0</ele><time>2026-04-25T13:30:58.108Z</time></trkpt><trkpt lat="44.9225679" lon="8.0350933"><ele>161.33333333333334</ele><time>2026-04-25T13:30:59.108Z</time></trkpt><trkpt lat="44.9224107" lon="8.0353028"><ele>162.66666666666666</ele><time>2026-04-25T13:31:00.108Z</time></trkpt><trkpt lat="44.9222521" lon="8.0355095"><ele>164.0</ele><time>2026-04-25T13:31:01.108Z</time></trkpt><trkpt lat="44.9220864" lon="8.0357223"><ele>164.66666666666666</ele><time>2026-04-25T13:31:02.108Z</time></trkpt><trkpt lat="44.9219256" lon="8.035934"><ele>165.33333333333334</ele><time>2026-04-25T13:31:03.108Z</time></trkpt><trkpt lat="44.9217715" lon="8.0361366"><ele>166.0</ele><time>2026-04-25T13:31:04.108Z</time></trkpt><trkpt lat="44.9216203" lon="8.0363359"><ele>164.33333333333334</ele><time>2026-04-25T13:31:05.108Z</time></trkpt><trkpt lat="44.9214748" lon="8.0365295"><ele>162.66666666666666</ele><time>2026-04-25T13:31:06.108Z</time></trkpt><trkpt lat="44.9213388" lon="8.0367041"><ele>161.0</ele><time>2026-04-25T13:31:07.108Z</time></trkpt><trkpt lat="44.9211848" lon="8.0368397"><ele>161.0</ele><time>2026-04-25T13:31:08.108Z</time></trkpt><trkpt lat="44.9210288" lon="8.0369319"><ele>161.0</ele><time>2026-04-25T13:31:09.108Z</time></trkpt><trkpt lat="44.9208456" lon="8.0369673"><ele>161.0</ele><time>2026-04-25T13:31:10.108Z</time></trkpt><trkpt lat="44.9206644" lon="8.0369562"><ele>159.66666666666666</ele><time>2026-04-25T13:31:11.108Z</time></trkpt><trkpt lat="44.9204827" lon="8.0369179"><ele>158.33333333333334</ele><time>2026-04-25T13:31:12.108Z</time></trkpt><trkpt lat="44.9202873" lon="8.0368659"><ele>157.0</ele><time>2026-04-25T13:31:13.108Z</time></trkpt><trkpt lat="44.9200873" lon="8.0368253"><ele>156.33333333333334</ele><time>2026-04-25T13:31:14.108Z</time></trkpt><trkpt lat="44.9198886" lon="8.0367746"><ele>155.66666666666666</ele><time>2026-04-25T13:31:15.108Z</time></trkpt><trkpt lat="44.919693" lon="8.0367273"><ele>155.0</ele><time>2026-04-25T13:31:16.108Z</time></trkpt><trkpt lat="44.9194994" lon="8.0366797"><ele>155.0</ele><time>2026-04-25T13:31:17.108Z</time></trkpt><trkpt lat="44.9193046" lon="8.0366245"><ele>155.0</ele><time>2026-04-25T13:31:18.108Z</time></trkpt><trkpt lat="44.9191069" lon="8.0365667"><ele>155.0</ele><time>2026-04-25T13:31:19.108Z</time></trkpt><trkpt lat="44.9189044" lon="8.0365154"><ele>155.33333333333331</ele><time>2026-04-25T13:31:20.108Z</time></trkpt><trkpt lat="44.9187023" lon="8.0364637"><ele>155.66666666666666</ele><time>2026-04-25T13:31:21.108Z</time></trkpt><trkpt lat="44.918502" lon="8.0364084"><ele>156.0</ele><time>2026-04-25T13:31:22.108Z</time></trkpt><trkpt lat="44.9183046" lon="8.0363422"><ele>156.0</ele><time>2026-04-25T13:31:23.108Z</time></trkpt><trkpt lat="44.9181095" lon="8.0362804"><ele>156.0</ele><time>2026-04-25T13:31:24.108Z</time></trkpt><trkpt lat="44.9179132" lon="8.0362202"><ele>156.0</ele><time>2026-04-25T13:31:25.108Z</time></trkpt><trkpt lat="44.9177227" lon="8.0361623"><ele>157.0</ele><time>2026-04-25T13:31:26.108Z</time></trkpt><trkpt lat="44.9175343" lon="8.0361027"><ele>158.0</ele><time>2026-04-25T13:31:27.108Z</time></trkpt><trkpt lat="44.9173487" lon="8.036038"><ele>159.0</ele><time>2026-04-25T13:31:28.108Z</time></trkpt><trkpt lat="44.9171594" lon="8.0359772"><ele>159.0</ele><time>2026-04-25T13:31:29.108Z</time></trkpt><trkpt lat="44.9169698" lon="8.0359186"><ele>159.0</ele><time>2026-04-25T13:31:30.108Z</time></trkpt><trkpt lat="44.9167878" lon="8.0358689"><ele>159.0</ele><time>2026-04-25T13:31:31.108Z</time></trkpt><trkpt lat="44.9166139" lon="8.0358093"><ele>158.33333333333334</ele><time>2026-04-25T13:31:32.108Z</time></trkpt><trkpt lat="44.916444" lon="8.0357405"><ele>157.66666666666669</ele><time>2026-04-25T13:31:33.108Z</time></trkpt><trkpt lat="44.916276" lon="8.0356596"><ele>157.0</ele><time>2026-04-25T13:31:34.108Z</time></trkpt><trkpt lat="44.9161169" lon="8.0355572"><ele>157.0</ele><time>2026-04-25T13:31:35.108Z</time></trkpt><trkpt lat="44.9159755" lon="8.0354403"><ele>157.0</ele><time>2026-04-25T13:31:36.108Z</time></trkpt><trkpt lat="44.9158473" lon="8.0353134"><ele>157.0</ele><time>2026-04-25T13:31:37.108Z</time></trkpt><trkpt lat="44.9157405" lon="8.0352066"><ele>158.0</ele><time>2026-04-25T13:31:38.109Z</time></trkpt><trkpt lat="44.9156499" lon="8.0351021"><ele>159.0</ele><time>2026-04-25T13:31:39.108Z</time></trkpt><trkpt lat="44.9155767" lon="8.034992"><ele>160.0</ele><time>2026-04-25T13:31:40.108Z</time></trkpt><trkpt lat="44.9155338" lon="8.0348495"><ele>161.0</ele><time>2026-04-25T13:31:41.108Z</time></trkpt><trkpt lat="44.9155196" lon="8.0346792"><ele>161.0</ele><time>2026-04-25T13:31:42.108Z</time></trkpt><trkpt lat="44.9155576" lon="8.0344938"><ele>161.0</ele><time>2026-04-25T13:31:43.108Z</time></trkpt><trkpt lat="44.9156356" lon="8.0343099"><ele>161.0</ele><time>2026-04-25T13:31:44.108Z</time></trkpt><trkpt lat="44.9157226" lon="8.0341157"><ele>161.33333333333331</ele><time>2026-04-25T13:31:45.108Z</time></trkpt><trkpt lat="44.9158074" lon="8.0339241"><ele>161.66666666666666</ele><time>2026-04-25T13:31:46.108Z</time></trkpt><trkpt lat="44.9158953" lon="8.0337404"><ele>162.0</ele><time>2026-04-25T13:31:47.108Z</time></trkpt><trkpt lat="44.9159865" lon="8.0335868"><ele>162.0</ele><time>2026-04-25T13:31:48.108Z</time></trkpt><trkpt lat="44.9160874" lon="8.0334705"><ele>162.0</ele><time>2026-04-25T13:31:49.108Z</time></trkpt><trkpt lat="44.9162023" lon="8.033393"><ele>162.0</ele><time>2026-04-25T13:31:50.108Z</time></trkpt><trkpt lat="44.9163218" lon="8.0333272"><ele>162.0</ele><time>2026-04-25T13:31:51.108Z</time></trkpt><trkpt lat="44.9164314" lon="8.0332499"><ele>162.2</ele><time>2026-04-25T13:31:52.108Z</time></trkpt><trkpt lat="44.9165156" lon="8.0331503"><ele>162.39999999999998</ele><time>2026-04-25T13:31:53.108Z</time></trkpt><trkpt lat="44.9165766" lon="8.0330321"><ele>162.60000000000002</ele><time>2026-04-25T13:31:54.108Z</time></trkpt><trkpt lat="44.9165985" lon="8.0328945"><ele>162.8</ele><time>2026-04-25T13:31:55.108Z</time></trkpt><trkpt lat="44.9165793" lon="8.032759"><ele>163.0</ele><time>2026-04-25T13:31:56.108Z</time></trkpt><trkpt lat="44.9165234" lon="8.0326326"><ele>163.0</ele><time>2026-04-25T13:31:57.108Z</time></trkpt><trkpt lat="44.9164485" lon="8.0325239"><ele>163.0</ele><time>2026-04-25T13:31:58.108Z</time></trkpt><trkpt lat="44.9163879" lon="8.032405"><ele>163.0</ele><time>2026-04-25T13:31:59.108Z</time></trkpt><trkpt lat="44.9163519" lon="8.0322822"><ele>163.0</ele><time>2026-04-25T13:32:00.108Z</time></trkpt><trkpt lat="44.9163233" lon="8.0321682"><ele>163.0</ele><time>2026-04-25T13:32:01.108Z</time></trkpt><trkpt lat="44.9162726" lon="8.0320803"><ele>163.4</ele><time>2026-04-25T13:32:02.108Z</time></trkpt><trkpt lat="44.9161932" lon="8.0320249"><ele>163.8</ele><time>2026-04-25T13:32:03.108Z</time></trkpt><trkpt lat="44.9161063" lon="8.0320232"><ele>164.2</ele><time>2026-04-25T13:32:04.108Z</time></trkpt><trkpt lat="44.9160315" lon="8.0320743"><ele>164.6</ele><time>2026-04-25T13:32:05.108Z</time></trkpt><trkpt lat="44.9159682" lon="8.0321847"><ele>165.0</ele><time>2026-04-25T13:32:06.108Z</time></trkpt><trkpt lat="44.9159386" lon="8.0323445"><ele>164.75</ele><time>2026-04-25T13:32:07.108Z</time></trkpt><trkpt lat="44.9159284" lon="8.0325201"><ele>164.5</ele><time>2026-04-25T13:32:08.108Z</time></trkpt><trkpt lat="44.9159018" lon="8.0326896"><ele>164.25</ele><time>2026-04-25T13:32:09.108Z</time></trkpt><trkpt lat="44.9158586" lon="8.0328371"><ele>164.0</ele><time>2026-04-25T13:32:10.108Z</time></trkpt><trkpt lat="44.9158019" lon="8.0329646"><ele>164.0</ele><time>2026-04-25T13:32:11.108Z</time></trkpt><trkpt lat="44.915736" lon="8.0330903"><ele>164.0</ele><time>2026-04-25T13:32:12.108Z</time></trkpt><trkpt lat="44.9156675" lon="8.0332192"><ele>164.0</ele><time>2026-04-25T13:32:13.108Z</time></trkpt><trkpt lat="44.9156023" lon="8.0333556"><ele>164.0</ele><time>2026-04-25T13:32:14.108Z</time></trkpt><trkpt lat="44.9155353" lon="8.0334945"><ele>163.75</ele><time>2026-04-25T13:32:15.108Z</time></trkpt><trkpt lat="44.915471" lon="8.0336352"><ele>163.5</ele><time>2026-04-25T13:32:16.108Z</time></trkpt><trkpt lat="44.9153991" lon="8.0337796"><ele>163.25</ele><time>2026-04-25T13:32:17.108Z</time></trkpt><trkpt lat="44.9153301" lon="8.0339205"><ele>163.0</ele><time>2026-04-25T13:32:18.108Z</time></trkpt><trkpt lat="44.9152602" lon="8.0340634"><ele>163.0</ele><time>2026-04-25T13:32:19.108Z</time></trkpt><trkpt lat="44.9151944" lon="8.034207"><ele>163.0</ele><time>2026-04-25T13:32:20.108Z</time></trkpt><trkpt lat="44.9151224" lon="8.0343486"><ele>163.0</ele><time>2026-04-25T13:32:21.108Z</time></trkpt><trkpt lat="44.9150503" lon="8.034493"><ele>163.0</ele><time>2026-04-25T13:32:22.108Z</time></trkpt><trkpt lat="44.9149803" lon="8.0346365"><ele>163.0</ele><time>2026-04-25T13:32:23.108Z</time></trkpt><trkpt lat="44.9149071" lon="8.0347785"><ele>163.0</ele><time>2026-04-25T13:32:24.108Z</time></trkpt><trkpt lat="44.9148382" lon="8.0349156"><ele>163.0</ele><time>2026-04-25T13:32:25.108Z</time></trkpt><trkpt lat="44.914771" lon="8.0350519"><ele>163.0</ele><time>2026-04-25T13:32:26.108Z</time></trkpt><trkpt lat="44.9146974" lon="8.0351762"><ele>162.8</ele><time>2026-04-25T13:32:27.108Z</time></trkpt><trkpt lat="44.9146289" lon="8.0352814"><ele>162.60000000000002</ele><time>2026-04-25T13:32:28.108Z</time></trkpt><trkpt lat="44.9145576" lon="8.035371"><ele>162.39999999999998</ele><time>2026-04-25T13:32:29.108Z</time></trkpt><trkpt lat="44.9144777" lon="8.0354187"><ele>162.2</ele><time>2026-04-25T13:32:30.108Z</time></trkpt><trkpt lat="44.91439" lon="8.0354342"><ele>162.0</ele><time>2026-04-25T13:32:31.108Z</time></trkpt><trkpt lat="44.9143102" lon="8.0354213"><ele>162.2</ele><time>2026-04-25T13:32:32.108Z</time></trkpt><trkpt lat="44.9142292" lon="8.0354016"><ele>162.39999999999998</ele><time>2026-04-25T13:32:33.108Z</time></trkpt><trkpt lat="44.9141379" lon="8.0354377"><ele>162.60000000000002</ele><time>2026-04-25T13:32:34.108Z</time></trkpt><trkpt lat="44.9140665" lon="8.0355429"><ele>162.8</ele><time>2026-04-25T13:32:35.108Z</time></trkpt><trkpt lat="44.9140111" lon="8.0356917"><ele>163.0</ele><time>2026-04-25T13:32:36.108Z</time></trkpt><trkpt lat="44.9139834" lon="8.0358525"><ele>163.0</ele><time>2026-04-25T13:32:37.108Z</time></trkpt><trkpt lat="44.9139627" lon="8.0360022"><ele>163.0</ele><time>2026-04-25T13:32:38.108Z</time></trkpt><trkpt lat="44.913917" lon="8.0361201"><ele>163.0</ele><time>2026-04-25T13:32:39.108Z</time></trkpt><trkpt lat="44.9138496" lon="8.0362038"><ele>163.0</ele><time>2026-04-25T13:32:40.108Z</time></trkpt><trkpt lat="44.9137539" lon="8.0362427"><ele>163.0</ele><time>2026-04-25T13:32:41.108Z</time></trkpt><trkpt lat="44.9136546" lon="8.0362159"><ele>163.0</ele><time>2026-04-25T13:32:42.108Z</time></trkpt><trkpt lat="44.9135573" lon="8.0361399"><ele>163.0</ele><time>2026-04-25T13:32:43.108Z</time></trkpt><trkpt lat="44.9134711" lon="8.0360367"><ele>163.0</ele><time>2026-04-25T13:32:44.108Z</time></trkpt><trkpt lat="44.9133927" lon="8.0359268"><ele>163.0</ele><time>2026-04-25T13:32:45.108Z</time></trkpt><trkpt lat="44.91333" lon="8.035805"><ele>163.0</ele><time>2026-04-25T13:32:46.108Z</time></trkpt><trkpt lat="44.91328" lon="8.0356833"><ele>164.83333333333334</ele><time>2026-04-25T13:32:47.108Z</time></trkpt><trkpt lat="44.9132467" lon="8.0355633"><ele>166.66666666666669</ele><time>2026-04-25T13:32:48.108Z</time></trkpt><trkpt lat="44.91322" lon="8.03545"><ele>168.5</ele><time>2026-04-25T13:32:49.108Z</time></trkpt><trkpt lat="44.9131967" lon="8.035345"><ele>170.33333333333334</ele><time>2026-04-25T13:32:50.108Z</time></trkpt><trkpt lat="44.9131433" lon="8.0352683"><ele>172.16666666666666</ele><time>2026-04-25T13:32:51.108Z</time></trkpt><trkpt lat="44.9130783" lon="8.0352133"><ele>174.0</ele><time>2026-04-25T13:32:52.108Z</time></trkpt><trkpt lat="44.9130033" lon="8.0351733"><ele>174.0</ele><time>2026-04-25T13:32:53.108Z</time></trkpt><trkpt lat="44.91291" lon="8.0351517"><ele>174.0</ele><time>2026-04-25T13:32:54.108Z</time></trkpt><trkpt lat="44.912815" lon="8.0351167"><ele>174.0</ele><time>2026-04-25T13:32:55.108Z</time></trkpt><trkpt lat="44.9127183" lon="8.0350733"><ele>174.0</ele><time>2026-04-25T13:32:56.108Z</time></trkpt><trkpt lat="44.91262" lon="8.03503"><ele>174.0</ele><time>2026-04-25T13:32:57.108Z</time></trkpt><trkpt lat="44.9125067" lon="8.0349783"><ele>173.2</ele><time>2026-04-25T13:32:58.108Z</time></trkpt><trkpt lat="44.9124067" lon="8.0349283"><ele>172.39999999999998</ele><time>2026-04-25T13:32:59.108Z</time></trkpt><trkpt lat="44.9123283" lon="8.0348333"><ele>171.6</ele><time>2026-04-25T13:33:00.108Z</time></trkpt><trkpt lat="44.912265" lon="8.0347083"><ele>170.8</ele><time>2026-04-25T13:33:01.108Z</time></trkpt><trkpt lat="44.9122033" lon="8.0345883"><ele>170.0</ele><time>2026-04-25T13:33:02.108Z</time></trkpt><trkpt lat="44.9121433" lon="8.0344417"><ele>170.0</ele><time>2026-04-25T13:33:03.108Z</time></trkpt><trkpt lat="44.912055" lon="8.0343183"><ele>170.0</ele><time>2026-04-25T13:33:04.108Z</time></trkpt><trkpt lat="44.911975" lon="8.034165"><ele>170.0</ele><time>2026-04-25T13:33:05.108Z</time></trkpt><trkpt lat="44.9118733" lon="8.0340167"><ele>170.0</ele><time>2026-04-25T13:33:06.108Z</time></trkpt><trkpt lat="44.9117817" lon="8.0338567"><ele>168.66666666666666</ele><time>2026-04-25T13:33:07.108Z</time></trkpt><trkpt lat="44.911675" lon="8.0336817"><ele>167.33333333333334</ele><time>2026-04-25T13:33:08.108Z</time></trkpt><trkpt lat="44.911575" lon="8.033505"><ele>166.0</ele><time>2026-04-25T13:33:09.108Z</time></trkpt><trkpt lat="44.9114783" lon="8.0333383"><ele>166.5</ele><time>2026-04-25T13:33:10.108Z</time></trkpt><trkpt lat="44.9113783" lon="8.033175"><ele>167.0</ele><time>2026-04-25T13:33:11.108Z</time></trkpt><trkpt lat="44.9112917" lon="8.033005"><ele>167.5</ele><time>2026-04-25T13:33:12.108Z</time></trkpt><trkpt lat="44.9112" lon="8.0328567"><ele>168.0</ele><time>2026-04-25T13:33:13.108Z</time></trkpt><trkpt lat="44.91112" lon="8.0327083"><ele>168.0</ele><time>2026-04-25T13:33:14.108Z</time></trkpt><trkpt lat="44.9110367" lon="8.0325683"><ele>168.0</ele><time>2026-04-25T13:33:15.108Z</time></trkpt><trkpt lat="44.9109567" lon="8.0324367"><ele>168.0</ele><time>2026-04-25T13:33:16.108Z</time></trkpt><trkpt lat="44.9108867" lon="8.0322983"><ele>168.0</ele><time>2026-04-25T13:33:17.108Z</time></trkpt><trkpt lat="44.91082" lon="8.0321783"><ele>167.8</ele><time>2026-04-25T13:33:18.108Z</time></trkpt><trkpt lat="44.910765" lon="8.032065"><ele>167.60000000000002</ele><time>2026-04-25T13:33:19.108Z</time></trkpt><trkpt lat="44.9106917" lon="8.03196"><ele>167.39999999999998</ele><time>2026-04-25T13:33:20.108Z</time></trkpt><trkpt lat="44.910615" lon="8.0318383"><ele>167.2</ele><time>2026-04-25T13:33:21.108Z</time></trkpt><trkpt lat="44.9105367" lon="8.0317067"><ele>167.0</ele><time>2026-04-25T13:33:22.108Z</time></trkpt><trkpt lat="44.910445" lon="8.0315733"><ele>167.0</ele><time>2026-04-25T13:33:23.108Z</time></trkpt><trkpt lat="44.9103533" lon="8.03142"><ele>167.0</ele><time>2026-04-25T13:33:24.108Z</time></trkpt><trkpt lat="44.9102533" lon="8.0312617"><ele>167.0</ele><time>2026-04-25T13:33:25.108Z</time></trkpt><trkpt lat="44.9101533" lon="8.0310983"><ele>167.0</ele><time>2026-04-25T13:33:26.108Z</time></trkpt><trkpt lat="44.9100517" lon="8.0309167"><ele>167.66666666666666</ele><time>2026-04-25T13:33:27.108Z</time></trkpt><trkpt lat="44.9099417" lon="8.030735"><ele>168.33333333333334</ele><time>2026-04-25T13:33:28.108Z</time></trkpt><trkpt lat="44.90983" lon="8.0305533"><ele>169.0</ele><time>2026-04-25T13:33:29.108Z</time></trkpt><trkpt lat="44.9097217" lon="8.0303733"><ele>169.0</ele><time>2026-04-25T13:33:30.108Z</time></trkpt><trkpt lat="44.9096117" lon="8.03018"><ele>169.0</ele><time>2026-04-25T13:33:31.108Z</time></trkpt><trkpt lat="44.9094867" lon="8.0299817"><ele>169.0</ele><time>2026-04-25T13:33:32.108Z</time></trkpt><trkpt lat="44.9093617" lon="8.0297833"><ele>168.0</ele><time>2026-04-25T13:33:33.108Z</time></trkpt><trkpt lat="44.90924" lon="8.0295717"><ele>167.0</ele><time>2026-04-25T13:33:34.108Z</time></trkpt><trkpt lat="44.9091133" lon="8.0293483"><ele>166.0</ele><time>2026-04-25T13:33:35.108Z</time></trkpt><trkpt lat="44.9089867" lon="8.0291317"><ele>166.0</ele><time>2026-04-25T13:33:36.108Z</time></trkpt><trkpt lat="44.9088533" lon="8.0289117"><ele>166.0</ele><time>2026-04-25T13:33:37.108Z</time></trkpt><trkpt lat="44.9087267" lon="8.028685"><ele>166.0</ele><time>2026-04-25T13:33:38.108Z</time></trkpt><trkpt lat="44.90859" lon="8.028465"><ele>166.66666666666669</ele><time>2026-04-25T13:33:39.108Z</time></trkpt><trkpt lat="44.9084467" lon="8.0282467"><ele>167.33333333333334</ele><time>2026-04-25T13:33:40.108Z</time></trkpt><trkpt lat="44.9083183" lon="8.0280183"><ele>168.0</ele><time>2026-04-25T13:33:41.108Z</time></trkpt><trkpt lat="44.9081783" lon="8.0277767"><ele>168.0</ele><time>2026-04-25T13:33:42.108Z</time></trkpt><trkpt lat="44.9080467" lon="8.0275417"><ele>168.0</ele><time>2026-04-25T13:33:43.108Z</time></trkpt><trkpt lat="44.9078983" lon="8.027315"><ele>168.0</ele><time>2026-04-25T13:33:44.108Z</time></trkpt><trkpt lat="44.9077533" lon="8.027085"><ele>168.66666666666666</ele><time>2026-04-25T13:33:45.108Z</time></trkpt><trkpt lat="44.9076217" lon="8.026865"><ele>169.33333333333331</ele><time>2026-04-25T13:33:46.108Z</time></trkpt><trkpt lat="44.9074967" lon="8.026635"><ele>170.0</ele><time>2026-04-25T13:33:47.108Z</time></trkpt><trkpt lat="44.9073583" lon="8.026425"><ele>170.33333333333331</ele><time>2026-04-25T13:33:48.108Z</time></trkpt><trkpt lat="44.90723" lon="8.0262067"><ele>170.66666666666666</ele><time>2026-04-25T13:33:49.108Z</time></trkpt><trkpt lat="44.9071" lon="8.0259867"><ele>171.0</ele><time>2026-04-25T13:33:50.108Z</time></trkpt><trkpt lat="44.9069733" lon="8.0257683"><ele>171.33333333333334</ele><time>2026-04-25T13:33:51.108Z</time></trkpt><trkpt lat="44.9068417" lon="8.025555"><ele>171.66666666666669</ele><time>2026-04-25T13:33:52.108Z</time></trkpt><trkpt lat="44.9067133" lon="8.0253417"><ele>172.0</ele><time>2026-04-25T13:33:53.108Z</time></trkpt><trkpt lat="44.9065867" lon="8.0251217"><ele>173.66666666666669</ele><time>2026-04-25T13:33:54.108Z</time></trkpt><trkpt lat="44.9064517" lon="8.0249"><ele>175.33333333333334</ele><time>2026-04-25T13:33:55.108Z</time></trkpt><trkpt lat="44.906315" lon="8.0246733"><ele>177.0</ele><time>2026-04-25T13:33:56.108Z</time></trkpt><trkpt lat="44.9061883" lon="8.0244583"><ele>177.0</ele><time>2026-04-25T13:33:57.108Z</time></trkpt><trkpt lat="44.9060633" lon="8.0242317"><ele>177.0</ele><time>2026-04-25T13:33:58.108Z</time></trkpt><trkpt lat="44.9059233" lon="8.02402"><ele>177.0</ele><time>2026-04-25T13:33:59.108Z</time></trkpt><trkpt lat="44.90579" lon="8.0238067"><ele>176.33333333333334</ele><time>2026-04-25T13:34:00.108Z</time></trkpt><trkpt lat="44.905665" lon="8.0235833"><ele>175.66666666666669</ele><time>2026-04-25T13:34:01.108Z</time></trkpt><trkpt lat="44.9055317" lon="8.0233783"><ele>175.0</ele><time>2026-04-25T13:34:02.108Z</time></trkpt><trkpt lat="44.905405" lon="8.0231583"><ele>176.66666666666669</ele><time>2026-04-25T13:34:03.108Z</time></trkpt><trkpt lat="44.9052917" lon="8.0229333"><ele>178.33333333333334</ele><time>2026-04-25T13:34:04.108Z</time></trkpt><trkpt lat="44.9051567" lon="8.0227217"><ele>180.0</ele><time>2026-04-25T13:34:05.108Z</time></trkpt><trkpt lat="44.9050183" lon="8.02252"><ele>176.33333333333334</ele><time>2026-04-25T13:34:06.108Z</time></trkpt><trkpt lat="44.9048783" lon="8.0223117"><ele>172.66666666666669</ele><time>2026-04-25T13:34:07.108Z</time></trkpt><trkpt lat="44.9047217" lon="8.0221183"><ele>169.0</ele><time>2026-04-25T13:34:08.108Z</time></trkpt><trkpt lat="44.90457" lon="8.021935"><ele>169.0</ele><time>2026-04-25T13:34:09.108Z</time></trkpt><trkpt lat="44.9044183" lon="8.021755"><ele>169.0</ele><time>2026-04-25T13:34:10.108Z</time></trkpt><trkpt lat="44.9042617" lon="8.02158"><ele>169.0</ele><time>2026-04-25T13:34:11.108Z</time></trkpt><trkpt lat="44.9041067" lon="8.0214133"><ele>170.0</ele><time>2026-04-25T13:34:12.108Z</time></trkpt><trkpt lat="44.9039567" lon="8.0212483"><ele>171.0</ele><time>2026-04-25T13:34:13.108Z</time></trkpt><trkpt lat="44.9038117" lon="8.0210783"><ele>172.0</ele><time>2026-04-25T13:34:14.108Z</time></trkpt><trkpt lat="44.903665" lon="8.0209083"><ele>173.66666666666669</ele><time>2026-04-25T13:34:15.108Z</time></trkpt><trkpt lat="44.90351" lon="8.0207367"><ele>175.33333333333334</ele><time>2026-04-25T13:34:16.108Z</time></trkpt><trkpt lat="44.90336" lon="8.020555"><ele>177.0</ele><time>2026-04-25T13:34:17.108Z</time></trkpt><trkpt lat="44.9032133" lon="8.0203667"><ele>177.0</ele><time>2026-04-25T13:34:18.108Z</time></trkpt><trkpt lat="44.9030617" lon="8.0201817"><ele>177.0</ele><time>2026-04-25T13:34:19.108Z</time></trkpt><trkpt lat="44.9029167" lon="8.0199717"><ele>177.0</ele><time>2026-04-25T13:34:20.108Z</time></trkpt><trkpt lat="44.9027617" lon="8.019755"><ele>176.66666666666666</ele><time>2026-04-25T13:34:21.108Z</time></trkpt><trkpt lat="44.9026067" lon="8.0195417"><ele>176.33333333333331</ele><time>2026-04-25T13:34:22.108Z</time></trkpt><trkpt lat="44.9024533" lon="8.019325"><ele>176.0</ele><time>2026-04-25T13:34:23.108Z</time></trkpt><trkpt lat="44.90229" lon="8.019105"><ele>177.0</ele><time>2026-04-25T13:34:24.108Z</time></trkpt><trkpt lat="44.9021317" lon="8.018885"><ele>178.0</ele><time>2026-04-25T13:34:25.108Z</time></trkpt><trkpt lat="44.9019683" lon="8.0186567"><ele>178.0</ele><time>2026-04-25T13:34:26.108Z</time></trkpt><trkpt lat="44.9018033" lon="8.0184433"><ele>178.0</ele><time>2026-04-25T13:34:27.108Z</time></trkpt><trkpt lat="44.9016567" lon="8.01821"><ele>178.0</ele><time>2026-04-25T13:34:28.108Z</time></trkpt><trkpt lat="44.9014867" lon="8.0179883"><ele>178.0</ele><time>2026-04-25T13:34:29.108Z</time></trkpt><trkpt lat="44.901335" lon="8.0177683"><ele>178.0</ele><time>2026-04-25T13:34:30.108Z</time></trkpt><trkpt lat="44.9011667" lon="8.0175517"><ele>178.0</ele><time>2026-04-25T13:34:31.108Z</time></trkpt><trkpt lat="44.901" lon="8.0173383"><ele>178.66666666666669</ele><time>2026-04-25T13:34:32.108Z</time></trkpt><trkpt lat="44.9008433" lon="8.0171183"><ele>179.33333333333334</ele><time>2026-04-25T13:34:33.108Z</time></trkpt><trkpt lat="44.9006817" lon="8.0168983"><ele>180.0</ele><time>2026-04-25T13:34:34.108Z</time></trkpt><trkpt lat="44.9005233" lon="8.016675"><ele>180.0</ele><time>2026-04-25T13:34:35.108Z</time></trkpt><trkpt lat="44.9003717" lon="8.01645"><ele>180.0</ele><time>2026-04-25T13:34:36.108Z</time></trkpt><trkpt lat="44.9002083" lon="8.01623"><ele>180.0</ele><time>2026-04-25T13:34:37.108Z</time></trkpt><trkpt lat="44.9000483" lon="8.016005"><ele>179.5</ele><time>2026-04-25T13:34:38.108Z</time></trkpt><trkpt lat="44.8998867" lon="8.0157833"><ele>179.0</ele><time>2026-04-25T13:34:39.108Z</time></trkpt><trkpt lat="44.8997233" lon="8.0155633"><ele>179.0</ele><time>2026-04-25T13:34:40.108Z</time></trkpt><trkpt lat="44.8995683" lon="8.0153283"><ele>179.0</ele><time>2026-04-25T13:34:41.108Z</time></trkpt><trkpt lat="44.899405" lon="8.0150967"><ele>179.0</ele><time>2026-04-25T13:34:42.108Z</time></trkpt><trkpt lat="44.8992417" lon="8.0148733"><ele>179.0</ele><time>2026-04-25T13:34:43.108Z</time></trkpt><trkpt lat="44.899085" lon="8.0146483"><ele>179.0</ele><time>2026-04-25T13:34:44.108Z</time></trkpt><trkpt lat="44.8989217" lon="8.014425"><ele>179.0</ele><time>2026-04-25T13:34:45.108Z</time></trkpt><trkpt lat="44.8987633" lon="8.0141983"><ele>179.5</ele><time>2026-04-25T13:34:46.108Z</time></trkpt><trkpt lat="44.898595" lon="8.0139667"><ele>180.0</ele><time>2026-04-25T13:34:47.108Z</time></trkpt><trkpt lat="44.898435" lon="8.0137367"><ele>180.0</ele><time>2026-04-25T13:34:48.108Z</time></trkpt><trkpt lat="44.8982683" lon="8.01351"><ele>180.0</ele><time>2026-04-25T13:34:49.108Z</time></trkpt><trkpt lat="44.8981067" lon="8.013275"><ele>180.0</ele><time>2026-04-25T13:34:50.108Z</time></trkpt><trkpt lat="44.8979433" lon="8.0130417"><ele>180.0</ele><time>2026-04-25T13:34:51.108Z</time></trkpt><trkpt lat="44.8977883" lon="8.0128"><ele>180.0</ele><time>2026-04-25T13:34:52.108Z</time></trkpt><trkpt lat="44.8976183" lon="8.012575"><ele>180.0</ele><time>2026-04-25T13:34:53.108Z</time></trkpt><trkpt lat="44.8974567" lon="8.0123467"><ele>180.0</ele><time>2026-04-25T13:34:54.108Z</time></trkpt><trkpt lat="44.8972983" lon="8.012135"><ele>180.0</ele><time>2026-04-25T13:34:55.108Z</time></trkpt><trkpt lat="44.897145" lon="8.0119233"><ele>180.0</ele><time>2026-04-25T13:34:56.108Z</time></trkpt><trkpt lat="44.8969967" lon="8.0117117"><ele>179.33333333333334</ele><time>2026-04-25T13:34:57.108Z</time></trkpt><trkpt lat="44.89685" lon="8.0114933"><ele>178.66666666666669</ele><time>2026-04-25T13:34:58.108Z</time></trkpt><trkpt lat="44.896695" lon="8.011285"><ele>178.0</ele><time>2026-04-25T13:34:59.108Z</time></trkpt><trkpt lat="44.89654" lon="8.011065"><ele>178.0</ele><time>2026-04-25T13:35:00.108Z</time></trkpt><trkpt lat="44.89638" lon="8.0108667"><ele>178.0</ele><time>2026-04-25T13:35:01.108Z</time></trkpt><trkpt lat="44.8962167" lon="8.0106683"><ele>178.0</ele><time>2026-04-25T13:35:02.108Z</time></trkpt><trkpt lat="44.8960417" lon="8.0104933"><ele>179.0</ele><time>2026-04-25T13:35:03.108Z</time></trkpt><trkpt lat="44.8958617" lon="8.0103217"><ele>180.0</ele><time>2026-04-25T13:35:04.108Z</time></trkpt><trkpt lat="44.89568" lon="8.0101567"><ele>181.0</ele><time>2026-04-25T13:35:05.108Z</time></trkpt><trkpt lat="44.895485" lon="8.009995"><ele>183.33333333333334</ele><time>2026-04-25T13:35:06.108Z</time></trkpt><trkpt lat="44.895295" lon="8.0098417"><ele>185.66666666666666</ele><time>2026-04-25T13:35:07.108Z</time></trkpt><trkpt lat="44.8951067" lon="8.009685"><ele>188.0</ele><time>2026-04-25T13:35:08.108Z</time></trkpt><trkpt lat="44.8949183" lon="8.009525"><ele>188.33333333333331</ele><time>2026-04-25T13:35:09.108Z</time></trkpt><trkpt lat="44.8947383" lon="8.00936"><ele>188.66666666666666</ele><time>2026-04-25T13:35:10.108Z</time></trkpt><trkpt lat="44.8945467" lon="8.009205"><ele>189.0</ele><time>2026-04-25T13:35:11.108Z</time></trkpt><trkpt lat="44.894365" lon="8.0090467"><ele>189.66666666666666</ele><time>2026-04-25T13:35:12.108Z</time></trkpt><trkpt lat="44.89418" lon="8.0089017"><ele>190.33333333333331</ele><time>2026-04-25T13:35:13.108Z</time></trkpt><trkpt lat="44.8940033" lon="8.00875"><ele>191.0</ele><time>2026-04-25T13:35:14.108Z</time></trkpt><trkpt lat="44.8938183" lon="8.0085933"><ele>191.0</ele><time>2026-04-25T13:35:15.108Z</time></trkpt><trkpt lat="44.8936433" lon="8.008435"><ele>191.0</ele><time>2026-04-25T13:35:16.108Z</time></trkpt><trkpt lat="44.8934667" lon="8.0082933"><ele>191.0</ele><time>2026-04-25T13:35:17.108Z</time></trkpt><trkpt lat="44.8932983" lon="8.0081483"><ele>191.0</ele><time>2026-04-25T13:35:18.108Z</time></trkpt><trkpt lat="44.89313" lon="8.0080183"><ele>191.0</ele><time>2026-04-25T13:35:19.108Z</time></trkpt><trkpt lat="44.8929667" lon="8.0078817"><ele>191.0</ele><time>2026-04-25T13:35:20.108Z</time></trkpt><trkpt lat="44.8928067" lon="8.0077467"><ele>191.0</ele><time>2026-04-25T13:35:21.108Z</time></trkpt><trkpt lat="44.89265" lon="8.0076133"><ele>191.0</ele><time>2026-04-25T13:35:22.107Z</time></trkpt><trkpt lat="44.89249" lon="8.00748"><ele>191.0</ele><time>2026-04-25T13:35:23.107Z</time></trkpt><trkpt lat="44.89232" lon="8.0073533"><ele>190.0</ele><time>2026-04-25T13:35:24.107Z</time></trkpt><trkpt lat="44.8921467" lon="8.0072233"><ele>189.0</ele><time>2026-04-25T13:35:25.107Z</time></trkpt><trkpt lat="44.8919717" lon="8.0070933"><ele>188.0</ele><time>2026-04-25T13:35:26.107Z</time></trkpt><trkpt lat="44.8918033" lon="8.0069717"><ele>188.0</ele><time>2026-04-25T13:35:27.107Z</time></trkpt><trkpt lat="44.891625" lon="8.00684"><ele>188.0</ele><time>2026-04-25T13:35:28.107Z</time></trkpt><trkpt lat="44.89146" lon="8.0067"><ele>188.0</ele><time>2026-04-25T13:35:29.107Z</time></trkpt><trkpt lat="44.8912867" lon="8.0065683"><ele>188.0</ele><time>2026-04-25T13:35:30.107Z</time></trkpt><trkpt lat="44.89112" lon="8.0064317"><ele>188.0</ele><time>2026-04-25T13:35:31.107Z</time></trkpt><trkpt lat="44.8909467" lon="8.0063067"><ele>188.0</ele><time>2026-04-25T13:35:32.107Z</time></trkpt><trkpt lat="44.890785" lon="8.0061783"><ele>189.66666666666666</ele><time>2026-04-25T13:35:33.107Z</time></trkpt><trkpt lat="44.8906117" lon="8.0060517"><ele>191.33333333333331</ele><time>2026-04-25T13:35:34.107Z</time></trkpt><trkpt lat="44.890445" lon="8.0059217"><ele>193.0</ele><time>2026-04-25T13:35:35.107Z</time></trkpt><trkpt lat="44.8902767" lon="8.0057917"><ele>194.33333333333331</ele><time>2026-04-25T13:35:36.107Z</time></trkpt><trkpt lat="44.8901017" lon="8.00567"><ele>195.66666666666669</ele><time>2026-04-25T13:35:37.107Z</time></trkpt><trkpt lat="44.8899333" lon="8.00554"><ele>197.0</ele><time>2026-04-25T13:35:38.107Z</time></trkpt><trkpt lat="44.8897717" lon="8.0054167"><ele>197.0</ele><time>2026-04-25T13:35:39.107Z</time></trkpt><trkpt lat="44.889595" lon="8.005295"><ele>197.0</ele><time>2026-04-25T13:35:40.107Z</time></trkpt><trkpt lat="44.8894183" lon="8.00519"><ele>197.0</ele><time>2026-04-25T13:35:41.107Z</time></trkpt><trkpt lat="44.8892417" lon="8.0051"><ele>197.5</ele><time>2026-04-25T13:35:42.107Z</time></trkpt><trkpt lat="44.8890617" lon="8.0050217"><ele>198.0</ele><time>2026-04-25T13:35:43.107Z</time></trkpt><trkpt lat="44.8872267" lon="8.0051967"><ele>198.0</ele><time>2026-04-25T13:35:52.107Z</time></trkpt><trkpt lat="44.88702" lon="8.0052533"><ele>198.0</ele><time>2026-04-25T13:35:53.107Z</time></trkpt><trkpt lat="44.8868117" lon="8.0053083"><ele>198.0</ele><time>2026-04-25T13:35:54.107Z</time></trkpt><trkpt lat="44.88659" lon="8.0053617"><ele>198.66666666666669</ele><time>2026-04-25T13:35:55.107Z</time></trkpt><trkpt lat="44.8863783" lon="8.0054117"><ele>199.33333333333334</ele><time>2026-04-25T13:35:56.107Z</time></trkpt><trkpt lat="44.8861617" lon="8.0054617"><ele>200.0</ele><time>2026-04-25T13:35:57.107Z</time></trkpt><trkpt lat="44.885945" lon="8.005515"><ele>200.66666666666669</ele><time>2026-04-25T13:35:58.107Z</time></trkpt><trkpt lat="44.8857283" lon="8.0055767"><ele>201.33333333333331</ele><time>2026-04-25T13:35:59.107Z</time></trkpt><trkpt lat="44.8855133" lon="8.0056317"><ele>202.0</ele><time>2026-04-25T13:36:00.107Z</time></trkpt><trkpt lat="44.8853017" lon="8.0056883"><ele>203.0</ele><time>2026-04-25T13:36:01.107Z</time></trkpt><trkpt lat="44.8850883" lon="8.0057417"><ele>204.0</ele><time>2026-04-25T13:36:02.107Z</time></trkpt><trkpt lat="44.8848683" lon="8.0057983"><ele>205.0</ele><time>2026-04-25T13:36:03.107Z</time></trkpt><trkpt lat="44.88465" lon="8.0058533"><ele>203.66666666666666</ele><time>2026-04-25T13:36:04.107Z</time></trkpt><trkpt lat="44.8844333" lon="8.0059083"><ele>202.33333333333331</ele><time>2026-04-25T13:36:05.107Z</time></trkpt><trkpt lat="44.8842133" lon="8.0059633"><ele>201.0</ele><time>2026-04-25T13:36:06.107Z</time></trkpt><trkpt lat="44.884" lon="8.0060217"><ele>201.0</ele><time>2026-04-25T13:36:07.107Z</time></trkpt><trkpt lat="44.8837883" lon="8.0060783"><ele>201.0</ele><time>2026-04-25T13:36:08.107Z</time></trkpt><trkpt lat="44.883575" lon="8.006135"><ele>201.0</ele><time>2026-04-25T13:36:09.107Z</time></trkpt><trkpt lat="44.88336" lon="8.00619"><ele>201.33333333333331</ele><time>2026-04-25T13:36:10.107Z</time></trkpt><trkpt lat="44.883145" lon="8.00624"><ele>201.66666666666666</ele><time>2026-04-25T13:36:11.107Z</time></trkpt><trkpt lat="44.8829267" lon="8.0062933"><ele>202.0</ele><time>2026-04-25T13:36:12.107Z</time></trkpt><trkpt lat="44.882715" lon="8.006345"><ele>206.66666666666666</ele><time>2026-04-25T13:36:13.107Z</time></trkpt><trkpt lat="44.88251" lon="8.006395"><ele>211.33333333333331</ele><time>2026-04-25T13:36:14.107Z</time></trkpt><trkpt lat="44.8822983" lon="8.006445"><ele>216.0</ele><time>2026-04-25T13:36:15.107Z</time></trkpt><trkpt lat="44.8820817" lon="8.006505"><ele>216.0</ele><time>2026-04-25T13:36:16.107Z</time></trkpt><trkpt lat="44.8818667" lon="8.0065667"><ele>216.0</ele><time>2026-04-25T13:36:17.107Z</time></trkpt><trkpt lat="44.88165" lon="8.0066233"><ele>216.0</ele><time>2026-04-25T13:36:18.107Z</time></trkpt><trkpt lat="44.8814117" lon="8.0066567"><ele>211.66666666666669</ele><time>2026-04-25T13:36:19.107Z</time></trkpt><trkpt lat="44.8811917" lon="8.0067167"><ele>207.33333333333334</ele><time>2026-04-25T13:36:20.107Z</time></trkpt><trkpt lat="44.880985" lon="8.006775"><ele>203.0</ele><time>2026-04-25T13:36:21.107Z</time></trkpt><trkpt lat="44.8807783" lon="8.0068217"><ele>202.66666666666669</ele><time>2026-04-25T13:36:22.107Z</time></trkpt><trkpt lat="44.88057" lon="8.00688"><ele>202.33333333333331</ele><time>2026-04-25T13:36:23.107Z</time></trkpt><trkpt lat="44.8803733" lon="8.00695"><ele>202.0</ele><time>2026-04-25T13:36:24.107Z</time></trkpt><trkpt lat="44.8801817" lon="8.0070333"><ele>203.66666666666666</ele><time>2026-04-25T13:36:25.107Z</time></trkpt><trkpt lat="44.8799917" lon="8.0071517"><ele>205.33333333333331</ele><time>2026-04-25T13:36:26.107Z</time></trkpt><trkpt lat="44.8798183" lon="8.007295"><ele>207.0</ele><time>2026-04-25T13:36:27.107Z</time></trkpt><trkpt lat="44.87966" lon="8.0074567"><ele>207.0</ele><time>2026-04-25T13:36:28.107Z</time></trkpt><trkpt lat="44.8795133" lon="8.0076483"><ele>207.0</ele><time>2026-04-25T13:36:29.107Z</time></trkpt><trkpt lat="44.8793767" lon="8.0078467"><ele>207.0</ele><time>2026-04-25T13:36:30.107Z</time></trkpt><trkpt lat="44.8792633" lon="8.0080683"><ele>207.0</ele><time>2026-04-25T13:36:31.107Z</time></trkpt><trkpt lat="44.879155" lon="8.0083"><ele>207.0</ele><time>2026-04-25T13:36:32.107Z</time></trkpt><trkpt lat="44.8790417" lon="8.0085167"><ele>207.0</ele><time>2026-04-25T13:36:33.107Z</time></trkpt><trkpt lat="44.8789167" lon="8.008715"><ele>205.66666666666669</ele><time>2026-04-25T13:36:34.107Z</time></trkpt><trkpt lat="44.87878" lon="8.0088867"><ele>204.33333333333334</ele><time>2026-04-25T13:36:35.107Z</time></trkpt><trkpt lat="44.8786383" lon="8.00903"><ele>203.0</ele><time>2026-04-25T13:36:36.107Z</time></trkpt><trkpt lat="44.8784833" lon="8.0091317"><ele>204.0</ele><time>2026-04-25T13:36:37.107Z</time></trkpt><trkpt lat="44.8783167" lon="8.00922"><ele>205.0</ele><time>2026-04-25T13:36:38.107Z</time></trkpt><trkpt lat="44.8781367" lon="8.0092883"><ele>206.0</ele><time>2026-04-25T13:36:39.107Z</time></trkpt><trkpt lat="44.877955" lon="8.0093083"><ele>206.0</ele><time>2026-04-25T13:36:40.107Z</time></trkpt><trkpt lat="44.8777717" lon="8.0092817"><ele>206.0</ele><time>2026-04-25T13:36:41.107Z</time></trkpt><trkpt lat="44.8776083" lon="8.0092333"><ele>206.0</ele><time>2026-04-25T13:36:42.107Z</time></trkpt><trkpt lat="44.8774483" lon="8.0091667"><ele>209.0</ele><time>2026-04-25T13:36:43.107Z</time></trkpt><trkpt lat="44.8772967" lon="8.00908"><ele>212.0</ele><time>2026-04-25T13:36:44.107Z</time></trkpt><trkpt lat="44.8771633" lon="8.0089633"><ele>215.0</ele><time>2026-04-25T13:36:45.107Z</time></trkpt><trkpt lat="44.877025" lon="8.0088467"><ele>215.0</ele><time>2026-04-25T13:36:46.107Z</time></trkpt><trkpt lat="44.8768917" lon="8.0087167"><ele>215.0</ele><time>2026-04-25T13:36:47.107Z</time></trkpt><trkpt lat="44.8767667" lon="8.0085933"><ele>215.0</ele><time>2026-04-25T13:36:48.107Z</time></trkpt><trkpt lat="44.8766317" lon="8.00848"><ele>214.6</ele><time>2026-04-25T13:36:49.107Z</time></trkpt><trkpt lat="44.8765283" lon="8.0083817"><ele>214.2</ele><time>2026-04-25T13:36:50.107Z</time></trkpt><trkpt lat="44.8764333" lon="8.0083083"><ele>213.8</ele><time>2026-04-25T13:36:51.107Z</time></trkpt><trkpt lat="44.876355" lon="8.0082433"><ele>213.4</ele><time>2026-04-25T13:36:52.107Z</time></trkpt><trkpt lat="44.876285" lon="8.008215"><ele>213.0</ele><time>2026-04-25T13:36:53.107Z</time></trkpt><trkpt lat="44.876215" lon="8.0082233"><ele>213.0</ele><time>2026-04-25T13:36:55.107Z</time></trkpt><trkpt lat="44.87619" lon="8.0083167"><ele>213.0</ele><time>2026-04-25T13:36:57.107Z</time></trkpt><trkpt lat="44.8761817" lon="8.0085033"><ele>213.0</ele><time>2026-04-25T13:36:59.107Z</time></trkpt><trkpt lat="44.876195" lon="8.008615"><ele>213.0</ele><time>2026-04-25T13:37:00.107Z</time></trkpt><trkpt lat="44.876205" lon="8.0087317"><ele>213.0</ele><time>2026-04-25T13:37:01.107Z</time></trkpt><trkpt lat="44.876205" lon="8.0088433"><ele>213.0</ele><time>2026-04-25T13:37:02.107Z</time></trkpt><trkpt lat="44.8761917" lon="8.0089467"><ele>213.0</ele><time>2026-04-25T13:37:03.107Z</time></trkpt><trkpt lat="44.87617" lon="8.0090367"><ele>213.0</ele><time>2026-04-25T13:37:04.107Z</time></trkpt><trkpt lat="44.876165" lon="8.0091767"><ele>213.0</ele><time>2026-04-25T13:37:06.107Z</time></trkpt><trkpt lat="44.8762" lon="8.0092867"><ele>213.0</ele><time>2026-04-25T13:37:08.107Z</time></trkpt><trkpt lat="44.8761483" lon="8.0093517"><ele>213.0</ele><time>2026-04-25T13:37:12.107Z</time></trkpt><trkpt lat="44.8761367" lon="8.0092483"><ele>213.0</ele><time>2026-04-25T13:40:21.107Z</time></trkpt><trkpt lat="44.8761517" lon="8.0091417"><ele>213.0</ele><time>2026-04-25T13:40:23.107Z</time></trkpt><trkpt lat="44.8761783" lon="8.00904"><ele>213.0</ele><time>2026-04-25T13:40:25.107Z</time></trkpt><trkpt lat="44.8762333" lon="8.0089133"><ele>213.0</ele><time>2026-04-25T13:40:41.107Z</time></trkpt><trkpt lat="44.8762433" lon="8.0087933"><ele>213.0</ele><time>2026-04-25T13:40:42.107Z</time></trkpt><trkpt lat="44.8762367" lon="8.0086583"><ele>213.0</ele><time>2026-04-25T13:40:43.107Z</time></trkpt><trkpt lat="44.8762217" lon="8.0085033"><ele>213.0</ele><time>2026-04-25T13:40:44.107Z</time></trkpt><trkpt lat="44.8761983" lon="8.00835"><ele>213.0</ele><time>2026-04-25T13:40:45.107Z</time></trkpt><trkpt lat="44.8761717" lon="8.0081967"><ele>213.0</ele><time>2026-04-25T13:40:46.107Z</time></trkpt><trkpt lat="44.876145" lon="8.008045"><ele>213.0</ele><time>2026-04-25T13:40:47.107Z</time></trkpt><trkpt lat="44.8761083" lon="8.0078867"><ele>214.0</ele><time>2026-04-25T13:40:48.107Z</time></trkpt><trkpt lat="44.8760717" lon="8.00773"><ele>215.0</ele><time>2026-04-25T13:40:49.107Z</time></trkpt><trkpt lat="44.8760283" lon="8.0075717"><ele>216.0</ele><time>2026-04-25T13:40:50.107Z</time></trkpt><trkpt lat="44.875985" lon="8.0074133"><ele>217.0</ele><time>2026-04-25T13:40:51.107Z</time></trkpt><trkpt lat="44.87594" lon="8.0072683"><ele>216.5</ele><time>2026-04-25T13:40:52.107Z</time></trkpt><trkpt lat="44.875885" lon="8.00712"><ele>216.0</ele><time>2026-04-25T13:40:53.107Z</time></trkpt><trkpt lat="44.8758217" lon="8.0069783"><ele>215.5</ele><time>2026-04-25T13:40:54.107Z</time></trkpt><trkpt lat="44.8757567" lon="8.00682"><ele>215.0</ele><time>2026-04-25T13:40:55.107Z</time></trkpt><trkpt lat="44.8756883" lon="8.0066717"><ele>219.5</ele><time>2026-04-25T13:40:56.107Z</time></trkpt><trkpt lat="44.8756083" lon="8.006515"><ele>224.0</ele><time>2026-04-25T13:40:57.107Z</time></trkpt><trkpt lat="44.8755283" lon="8.0063617"><ele>228.5</ele><time>2026-04-25T13:40:58.107Z</time></trkpt><trkpt lat="44.8754567" lon="8.0061917"><ele>233.0</ele><time>2026-04-25T13:40:59.107Z</time></trkpt><trkpt lat="44.8753833" lon="8.0060267"><ele>233.0</ele><time>2026-04-25T13:41:00.107Z</time></trkpt><trkpt lat="44.8753083" lon="8.0058667"><ele>233.0</ele><time>2026-04-25T13:41:01.107Z</time></trkpt><trkpt lat="44.875235" lon="8.0057"><ele>233.0</ele><time>2026-04-25T13:41:02.107Z</time></trkpt><trkpt lat="44.8751517" lon="8.005535"><ele>233.0</ele><time>2026-04-25T13:41:03.107Z</time></trkpt><trkpt lat="44.8750633" lon="8.005375"><ele>232.33333333333334</ele><time>2026-04-25T13:41:04.107Z</time></trkpt><trkpt lat="44.8749683" lon="8.0052283"><ele>231.66666666666669</ele><time>2026-04-25T13:41:05.107Z</time></trkpt><trkpt lat="44.8748567" lon="8.0050667"><ele>231.0</ele><time>2026-04-25T13:41:06.107Z</time></trkpt><trkpt lat="44.8747367" lon="8.0049133"><ele>231.0</ele><time>2026-04-25T13:41:07.107Z</time></trkpt><trkpt lat="44.8745983" lon="8.0047517"><ele>231.0</ele><time>2026-04-25T13:41:08.107Z</time></trkpt><trkpt lat="44.8744467" lon="8.004595"><ele>231.0</ele><time>2026-04-25T13:41:09.107Z</time></trkpt><trkpt lat="44.874275" lon="8.0044567"><ele>232.33333333333331</ele><time>2026-04-25T13:41:10.107Z</time></trkpt><trkpt lat="44.874115" lon="8.0043133"><ele>233.66666666666666</ele><time>2026-04-25T13:41:11.107Z</time></trkpt><trkpt lat="44.8739533" lon="8.0041783"><ele>235.0</ele><time>2026-04-25T13:41:12.107Z</time></trkpt><trkpt lat="44.87379" lon="8.0040517"><ele>235.0</ele><time>2026-04-25T13:41:13.107Z</time></trkpt><trkpt lat="44.8736367" lon="8.0039233"><ele>235.0</ele><time>2026-04-25T13:41:14.107Z</time></trkpt><trkpt lat="44.8734833" lon="8.0037917"><ele>235.0</ele><time>2026-04-25T13:41:15.107Z</time></trkpt><trkpt lat="44.8733383" lon="8.003645"><ele>235.66666666666666</ele><time>2026-04-25T13:41:16.107Z</time></trkpt><trkpt lat="44.8732083" lon="8.0034867"><ele>236.33333333333331</ele><time>2026-04-25T13:41:17.107Z</time></trkpt><trkpt lat="44.8730833" lon="8.003295"><ele>237.0</ele><time>2026-04-25T13:41:18.107Z</time></trkpt><trkpt lat="44.872975" lon="8.0030917"><ele>243.33333333333331</ele><time>2026-04-25T13:41:19.107Z</time></trkpt><trkpt lat="44.872875" lon="8.00288"><ele>249.66666666666666</ele><time>2026-04-25T13:41:20.107Z</time></trkpt><trkpt lat="44.8727933" lon="8.002675"><ele>256.0</ele><time>2026-04-25T13:41:21.107Z</time></trkpt><trkpt lat="44.8727383" lon="8.0024417"><ele>258.66666666666663</ele><time>2026-04-25T13:41:22.107Z</time></trkpt><trkpt lat="44.872695" lon="8.002195"><ele>261.3333333333333</ele><time>2026-04-25T13:41:23.107Z</time></trkpt><trkpt lat="44.8726633" lon="8.0019467"><ele>264.0</ele><time>2026-04-25T13:41:24.107Z</time></trkpt><trkpt lat="44.872645" lon="8.0016967"><ele>261.6666666666667</ele><time>2026-04-25T13:41:25.107Z</time></trkpt><trkpt lat="44.8726533" lon="8.00143"><ele>259.33333333333337</ele><time>2026-04-25T13:41:26.107Z</time></trkpt><trkpt lat="44.8726967" lon="8.0011583"><ele>257.0</ele><time>2026-04-25T13:41:27.107Z</time></trkpt><trkpt lat="44.8727233" lon="8.00089"><ele>254.33333333333334</ele><time>2026-04-25T13:41:28.107Z</time></trkpt><trkpt lat="44.87278" lon="8.00064"><ele>251.66666666666669</ele><time>2026-04-25T13:41:29.107Z</time></trkpt><trkpt lat="44.8728417" lon="8.0003867"><ele>249.0</ele><time>2026-04-25T13:41:30.107Z</time></trkpt><trkpt lat="44.8729" lon="8.0001383"><ele>249.0</ele><time>2026-04-25T13:41:31.107Z</time></trkpt><trkpt lat="44.872965" lon="7.9998883"><ele>249.0</ele><time>2026-04-25T13:41:32.107Z</time></trkpt><trkpt lat="44.873035" lon="7.9996383"><ele>249.0</ele><time>2026-04-25T13:41:33.107Z</time></trkpt><trkpt lat="44.873095" lon="7.9993933"><ele>246.0</ele><time>2026-04-25T13:41:34.107Z</time></trkpt><trkpt lat="44.873155" lon="7.99916"><ele>243.0</ele><time>2026-04-25T13:41:35.107Z</time></trkpt><trkpt lat="44.8732283" lon="7.9989417"><ele>240.0</ele><time>2026-04-25T13:41:36.107Z</time></trkpt><trkpt lat="44.8733" lon="7.9987333"><ele>240.0</ele><time>2026-04-25T13:41:37.107Z</time></trkpt><trkpt lat="44.8733833" lon="7.998525"><ele>240.0</ele><time>2026-04-25T13:41:38.107Z</time></trkpt><trkpt lat="44.8734617" lon="7.9983283"><ele>240.0</ele><time>2026-04-25T13:41:39.107Z</time></trkpt><trkpt lat="44.8735567" lon="7.99814"><ele>238.0</ele><time>2026-04-25T13:41:40.107Z</time></trkpt><trkpt lat="44.8736683" lon="7.99796"><ele>236.0</ele><time>2026-04-25T13:41:41.107Z</time></trkpt><trkpt lat="44.87379" lon="7.9978017"><ele>234.0</ele><time>2026-04-25T13:41:42.107Z</time></trkpt><trkpt lat="44.8739133" lon="7.99765"><ele>234.0</ele><time>2026-04-25T13:41:43.107Z</time></trkpt><trkpt lat="44.8740383" lon="7.9975067"><ele>234.0</ele><time>2026-04-25T13:41:44.107Z</time></trkpt><trkpt lat="44.8741733" lon="7.9973733"><ele>234.0</ele><time>2026-04-25T13:41:45.107Z</time></trkpt><trkpt lat="44.8743133" lon="7.9972517"><ele>230.33333333333331</ele><time>2026-04-25T13:41:46.108Z</time></trkpt><trkpt lat="44.8744517" lon="7.9971383"><ele>226.66666666666666</ele><time>2026-04-25T13:41:47.107Z</time></trkpt><trkpt lat="44.8745917" lon="7.9970333"><ele>223.0</ele><time>2026-04-25T13:41:48.107Z</time></trkpt><trkpt lat="44.8747217" lon="7.9969367"><ele>223.0</ele><time>2026-04-25T13:41:49.107Z</time></trkpt><trkpt lat="44.8748483" lon="7.9968383"><ele>223.0</ele><time>2026-04-25T13:41:50.107Z</time></trkpt><trkpt lat="44.8749683" lon="7.9967533"><ele>223.0</ele><time>2026-04-25T13:41:51.107Z</time></trkpt><trkpt lat="44.8750883" lon="7.9966633"><ele>223.0</ele><time>2026-04-25T13:41:52.107Z</time></trkpt><trkpt lat="44.875205" lon="7.9965767"><ele>223.25</ele><time>2026-04-25T13:41:53.107Z</time></trkpt><trkpt lat="44.87532" lon="7.996495"><ele>223.5</ele><time>2026-04-25T13:41:54.107Z</time></trkpt><trkpt lat="44.8754317" lon="7.9964067"><ele>223.75</ele><time>2026-04-25T13:41:55.107Z</time></trkpt><trkpt lat="44.875545" lon="7.9963183"><ele>224.0</ele><time>2026-04-25T13:41:56.107Z</time></trkpt><trkpt lat="44.8756667" lon="7.9962317"><ele>224.0</ele><time>2026-04-25T13:41:57.107Z</time></trkpt><trkpt lat="44.8757867" lon="7.99614"><ele>224.0</ele><time>2026-04-25T13:41:58.107Z</time></trkpt><trkpt lat="44.875915" lon="7.9960533"><ele>224.0</ele><time>2026-04-25T13:41:59.107Z</time></trkpt><trkpt lat="44.8760433" lon="7.9959583"><ele>224.0</ele><time>2026-04-25T13:42:00.107Z</time></trkpt><trkpt lat="44.87617" lon="7.9958683"><ele>223.0</ele><time>2026-04-25T13:42:01.107Z</time></trkpt><trkpt lat="44.876295" lon="7.9957733"><ele>222.0</ele><time>2026-04-25T13:42:02.107Z</time></trkpt><trkpt lat="44.876425" lon="7.9956833"><ele>221.0</ele><time>2026-04-25T13:42:03.107Z</time></trkpt><trkpt lat="44.876555" lon="7.9955867"><ele>220.0</ele><time>2026-04-25T13:42:04.107Z</time></trkpt><trkpt lat="44.8766833" lon="7.995505"><ele>220.5</ele><time>2026-04-25T13:42:05.107Z</time></trkpt><trkpt lat="44.8768067" lon="7.9954133"><ele>221.0</ele><time>2026-04-25T13:42:06.107Z</time></trkpt><trkpt lat="44.8769283" lon="7.9953117"><ele>221.5</ele><time>2026-04-25T13:42:07.107Z</time></trkpt><trkpt lat="44.8770467" lon="7.99522"><ele>222.0</ele><time>2026-04-25T13:42:08.107Z</time></trkpt><trkpt lat="44.8771717" lon="7.99513"><ele>222.0</ele><time>2026-04-25T13:42:09.107Z</time></trkpt><trkpt lat="44.8772983" lon="7.9950483"><ele>222.0</ele><time>2026-04-25T13:42:10.107Z</time></trkpt><trkpt lat="44.8774167" lon="7.99496"><ele>222.0</ele><time>2026-04-25T13:42:11.107Z</time></trkpt><trkpt lat="44.877535" lon="7.9948733"><ele>222.0</ele><time>2026-04-25T13:42:12.107Z</time></trkpt><trkpt lat="44.8776483" lon="7.9947933"><ele>221.33333333333334</ele><time>2026-04-25T13:42:13.107Z</time></trkpt><trkpt lat="44.8777533" lon="7.994725"><ele>220.66666666666669</ele><time>2026-04-25T13:42:14.107Z</time></trkpt><trkpt lat="44.877845" lon="7.9946633"><ele>220.0</ele><time>2026-04-25T13:42:15.107Z</time></trkpt><trkpt lat="44.8779267" lon="7.994605"><ele>219.33333333333334</ele><time>2026-04-25T13:42:16.107Z</time></trkpt><trkpt lat="44.87799" lon="7.9945583"><ele>218.66666666666669</ele><time>2026-04-25T13:42:17.107Z</time></trkpt><trkpt lat="44.8780383" lon="7.9945"><ele>218.0</ele><time>2026-04-25T13:42:18.107Z</time></trkpt><trkpt lat="44.87808" lon="7.9943583"><ele>218.0</ele><time>2026-04-25T13:42:20.107Z</time></trkpt><trkpt lat="44.87807" lon="7.99427"><ele>218.0</ele><time>2026-04-25T13:42:21.107Z</time></trkpt><trkpt lat="44.878025" lon="7.9941767"><ele>218.0</ele><time>2026-04-25T13:42:22.107Z</time></trkpt><trkpt lat="44.8779633" lon="7.99406"><ele>218.0</ele><time>2026-04-25T13:42:23.107Z</time></trkpt><trkpt lat="44.8778967" lon="7.9939417"><ele>218.0</ele><time>2026-04-25T13:42:24.107Z</time></trkpt><trkpt lat="44.8778317" lon="7.993825"><ele>217.75</ele><time>2026-04-25T13:42:25.107Z</time></trkpt><trkpt lat="44.8777617" lon="7.9936967"><ele>217.5</ele><time>2026-04-25T13:42:26.107Z</time></trkpt><trkpt lat="44.87769" lon="7.9935667"><ele>217.25</ele><time>2026-04-25T13:42:27.107Z</time></trkpt><trkpt lat="44.8776183" lon="7.9934367"><ele>217.0</ele><time>2026-04-25T13:42:28.107Z</time></trkpt><trkpt lat="44.8775517" lon="7.9933"><ele>216.8</ele><time>2026-04-25T13:42:29.107Z</time></trkpt><trkpt lat="44.8774883" lon="7.9931717"><ele>216.6</ele><time>2026-04-25T13:42:30.107Z</time></trkpt><trkpt lat="44.8774383" lon="7.99306"><ele>216.40000000000003</ele><time>2026-04-25T13:42:31.107Z</time></trkpt><trkpt lat="44.8773983" lon="7.9929433"><ele>216.20000000000002</ele><time>2026-04-25T13:42:32.107Z</time></trkpt><trkpt lat="44.8773733" lon="7.9928383"><ele>216.0</ele><time>2026-04-25T13:42:33.107Z</time></trkpt><trkpt lat="44.8773717" lon="7.9927217"><ele>216.0</ele><time>2026-04-25T13:42:34.107Z</time></trkpt><trkpt lat="44.8773883" lon="7.9926017"><ele>216.00000000000003</ele><time>2026-04-25T13:42:35.107Z</time></trkpt><trkpt lat="44.8774233" lon="7.99247"><ele>216.00000000000003</ele><time>2026-04-25T13:42:36.107Z</time></trkpt><trkpt lat="44.8774617" lon="7.99234"><ele>216.0</ele><time>2026-04-25T13:42:37.107Z</time></trkpt><trkpt lat="44.8774983" lon="7.99221"><ele>216.0</ele><time>2026-04-25T13:42:38.107Z</time></trkpt><trkpt lat="44.877535" lon="7.99208"><ele>215.83333333333334</ele><time>2026-04-25T13:42:39.107Z</time></trkpt><trkpt lat="44.8775733" lon="7.99197"><ele>215.66666666666669</ele><time>2026-04-25T13:42:40.107Z</time></trkpt><trkpt lat="44.87763" lon="7.9918917"><ele>215.5</ele><time>2026-04-25T13:42:41.107Z</time></trkpt><trkpt lat="44.8776917" lon="7.99184"><ele>215.33333333333334</ele><time>2026-04-25T13:42:42.107Z</time></trkpt><trkpt lat="44.8777633" lon="7.9918"><ele>215.16666666666669</ele><time>2026-04-25T13:42:43.107Z</time></trkpt><trkpt lat="44.87784" lon="7.991745"><ele>215.0</ele><time>2026-04-25T13:42:44.107Z</time></trkpt><trkpt lat="44.8779333" lon="7.9916867"><ele>215.2</ele><time>2026-04-25T13:42:45.107Z</time></trkpt><trkpt lat="44.878025" lon="7.99162"><ele>215.4</ele><time>2026-04-25T13:42:46.107Z</time></trkpt><trkpt lat="44.8780983" lon="7.99154"><ele>215.60000000000002</ele><time>2026-04-25T13:42:47.107Z</time></trkpt><trkpt lat="44.8781633" lon="7.991425"><ele>215.8</ele><time>2026-04-25T13:42:48.107Z</time></trkpt><trkpt lat="44.8782233" lon="7.9912983"><ele>216.0</ele><time>2026-04-25T13:42:49.107Z</time></trkpt><trkpt lat="44.87828" lon="7.991165"><ele>216.0</ele><time>2026-04-25T13:42:50.107Z</time></trkpt><trkpt lat="44.8783117" lon="7.991015"><ele>216.00000000000003</ele><time>2026-04-25T13:42:51.107Z</time></trkpt><trkpt lat="44.8783217" lon="7.9908617"><ele>216.00000000000003</ele><time>2026-04-25T13:42:52.107Z</time></trkpt><trkpt lat="44.8783217" lon="7.990715"><ele>216.0</ele><time>2026-04-25T13:42:53.107Z</time></trkpt><trkpt lat="44.8783283" lon="7.9905683"><ele>216.0</ele><time>2026-04-25T13:42:54.107Z</time></trkpt><trkpt lat="44.878355" lon="7.9904267"><ele>217.20000000000002</ele><time>2026-04-25T13:42:55.107Z</time></trkpt><trkpt lat="44.8783967" lon="7.9903033"><ele>218.40000000000003</ele><time>2026-04-25T13:42:56.107Z</time></trkpt><trkpt lat="44.87843" lon="7.9901683"><ele>219.6</ele><time>2026-04-25T13:42:57.107Z</time></trkpt><trkpt lat="44.8784367" lon="7.9900383"><ele>220.8</ele><time>2026-04-25T13:42:58.107Z</time></trkpt><trkpt lat="44.8784067" lon="7.989915"><ele>222.0</ele><time>2026-04-25T13:42:59.107Z</time></trkpt><trkpt lat="44.878345" lon="7.9898117"><ele>224.75</ele><time>2026-04-25T13:43:00.107Z</time></trkpt><trkpt lat="44.8782667" lon="7.9897067"><ele>227.5</ele><time>2026-04-25T13:43:01.107Z</time></trkpt><trkpt lat="44.8781767" lon="7.9896"><ele>230.25</ele><time>2026-04-25T13:43:02.107Z</time></trkpt><trkpt lat="44.8780833" lon="7.9895"><ele>233.0</ele><time>2026-04-25T13:43:03.107Z</time></trkpt><trkpt lat="44.877995" lon="7.989385"><ele>233.0</ele><time>2026-04-25T13:43:04.107Z</time></trkpt><trkpt lat="44.8779017" lon="7.989275"><ele>233.0</ele><time>2026-04-25T13:43:05.107Z</time></trkpt><trkpt lat="44.8778067" lon="7.989175"><ele>233.0</ele><time>2026-04-25T13:43:06.107Z</time></trkpt><trkpt lat="44.877715" lon="7.9890667"><ele>233.0</ele><time>2026-04-25T13:43:07.107Z</time></trkpt><trkpt lat="44.87763" lon="7.9889483"><ele>236.0</ele><time>2026-04-25T13:43:08.107Z</time></trkpt><trkpt lat="44.8775717" lon="7.9888183"><ele>239.0</ele><time>2026-04-25T13:43:09.107Z</time></trkpt><trkpt lat="44.8775217" lon="7.9886733"><ele>242.0</ele><time>2026-04-25T13:43:10.107Z</time></trkpt><trkpt lat="44.8774717" lon="7.9885233"><ele>245.0</ele><time>2026-04-25T13:43:11.107Z</time></trkpt><trkpt lat="44.87741" lon="7.9883833"><ele>247.75</ele><time>2026-04-25T13:43:12.106Z</time></trkpt><trkpt lat="44.87734" lon="7.98825"><ele>250.5</ele><time>2026-04-25T13:43:13.106Z</time></trkpt><trkpt lat="44.8772583" lon="7.988125"><ele>253.25</ele><time>2026-04-25T13:43:14.106Z</time></trkpt><trkpt lat="44.8771683" lon="7.98801"><ele>256.0</ele><time>2026-04-25T13:43:15.106Z</time></trkpt><trkpt lat="44.8770617" lon="7.9879183"><ele>256.0</ele><time>2026-04-25T13:43:16.106Z</time></trkpt><trkpt lat="44.8769483" lon="7.9878133"><ele>256.0</ele><time>2026-04-25T13:43:17.106Z</time></trkpt><trkpt lat="44.8768333" lon="7.987705"><ele>256.0</ele><time>2026-04-25T13:43:18.106Z</time></trkpt><trkpt lat="44.8767233" lon="7.9876"><ele>256.0</ele><time>2026-04-25T13:43:19.106Z</time></trkpt><trkpt lat="44.8766183" lon="7.987495"><ele>258.75</ele><time>2026-04-25T13:43:20.106Z</time></trkpt><trkpt lat="44.876505" lon="7.9874033"><ele>261.5</ele><time>2026-04-25T13:43:21.106Z</time></trkpt><trkpt lat="44.8763783" lon="7.9873217"><ele>264.25</ele><time>2026-04-25T13:43:22.106Z</time></trkpt><trkpt lat="44.8762467" lon="7.9872483"><ele>267.0</ele><time>2026-04-25T13:43:23.106Z</time></trkpt><trkpt lat="44.8761017" lon="7.9871783"><ele>267.0</ele><time>2026-04-25T13:43:24.106Z</time></trkpt><trkpt lat="44.8759567" lon="7.987115"><ele>267.0</ele><time>2026-04-25T13:43:25.106Z</time></trkpt><trkpt lat="44.8758133" lon="7.987055"><ele>267.0</ele><time>2026-04-25T13:43:26.106Z</time></trkpt><trkpt lat="44.87567" lon="7.9870017"><ele>269.25</ele><time>2026-04-25T13:43:27.106Z</time></trkpt><trkpt lat="44.8755367" lon="7.986945"><ele>271.5</ele><time>2026-04-25T13:43:28.106Z</time></trkpt><trkpt lat="44.8754017" lon="7.9868733"><ele>273.75</ele><time>2026-04-25T13:43:29.106Z</time></trkpt><trkpt lat="44.8752733" lon="7.9867933"><ele>276.0</ele><time>2026-04-25T13:43:30.106Z</time></trkpt><trkpt lat="44.8751633" lon="7.98669"><ele>276.75</ele><time>2026-04-25T13:43:31.106Z</time></trkpt><trkpt lat="44.8750717" lon="7.9865717"><ele>277.5</ele><time>2026-04-25T13:43:32.106Z</time></trkpt><trkpt lat="44.875005" lon="7.9864217"><ele>278.25</ele><time>2026-04-25T13:43:33.106Z</time></trkpt><trkpt lat="44.8749483" lon="7.9862517"><ele>279.0</ele><time>2026-04-25T13:43:34.106Z</time></trkpt><trkpt lat="44.8748983" lon="7.98606"><ele>279.0</ele><time>2026-04-25T13:43:35.106Z</time></trkpt><trkpt lat="44.8748567" lon="7.98588"><ele>279.0</ele><time>2026-04-25T13:43:36.106Z</time></trkpt><trkpt lat="44.8748133" lon="7.9856817"><ele>279.0</ele><time>2026-04-25T13:43:37.106Z</time></trkpt><trkpt lat="44.874765" lon="7.9854983"><ele>279.0</ele><time>2026-04-25T13:43:38.106Z</time></trkpt><trkpt lat="44.874705" lon="7.9853383"><ele>280.25</ele><time>2026-04-25T13:43:39.106Z</time></trkpt><trkpt lat="44.8746417" lon="7.98519"><ele>281.5</ele><time>2026-04-25T13:43:40.106Z</time></trkpt><trkpt lat="44.8745917" lon="7.9850283"><ele>282.75</ele><time>2026-04-25T13:43:41.106Z</time></trkpt><trkpt lat="44.874575" lon="7.9848517"><ele>284.0</ele><time>2026-04-25T13:43:42.106Z</time></trkpt><trkpt lat="44.8745633" lon="7.9846783"><ele>284.25</ele><time>2026-04-25T13:43:43.106Z</time></trkpt><trkpt lat="44.8745467" lon="7.9845217"><ele>284.5</ele><time>2026-04-25T13:43:44.106Z</time></trkpt><trkpt lat="44.8745167" lon="7.984375"><ele>284.75</ele><time>2026-04-25T13:43:45.106Z</time></trkpt><trkpt lat="44.8744683" lon="7.984225"><ele>285.0</ele><time>2026-04-25T13:43:46.106Z</time></trkpt><trkpt lat="44.8744017" lon="7.984095"><ele>286.5</ele><time>2026-04-25T13:43:47.106Z</time></trkpt><trkpt lat="44.8743083" lon="7.9839817"><ele>288.0</ele><time>2026-04-25T13:43:48.106Z</time></trkpt><trkpt lat="44.874205" lon="7.9838833"><ele>289.5</ele><time>2026-04-25T13:43:49.106Z</time></trkpt><trkpt lat="44.8740917" lon="7.9837983"><ele>291.0</ele><time>2026-04-25T13:43:50.106Z</time></trkpt><trkpt lat="44.8739767" lon="7.9836983"><ele>293.0</ele><time>2026-04-25T13:43:51.106Z</time></trkpt><trkpt lat="44.8738633" lon="7.9836083"><ele>295.0</ele><time>2026-04-25T13:43:52.106Z</time></trkpt><trkpt lat="44.873735" lon="7.9835433"><ele>297.0</ele><time>2026-04-25T13:43:53.106Z</time></trkpt><trkpt lat="44.8736083" lon="7.9834883"><ele>299.0</ele><time>2026-04-25T13:43:54.106Z</time></trkpt><trkpt lat="44.87348" lon="7.9834533"><ele>299.0</ele><time>2026-04-25T13:43:55.106Z</time></trkpt><trkpt lat="44.8733517" lon="7.9834217"><ele>299.0</ele><time>2026-04-25T13:43:56.106Z</time></trkpt><trkpt lat="44.8732283" lon="7.9833817"><ele>299.0</ele><time>2026-04-25T13:43:57.106Z</time></trkpt><trkpt lat="44.873115" lon="7.9833167"><ele>299.0</ele><time>2026-04-25T13:43:58.106Z</time></trkpt><trkpt lat="44.8730083" lon="7.983225"><ele>299.25</ele><time>2026-04-25T13:43:59.106Z</time></trkpt><trkpt lat="44.8729067" lon="7.983105"><ele>299.5</ele><time>2026-04-25T13:44:00.106Z</time></trkpt><trkpt lat="44.8728033" lon="7.982965"><ele>299.75</ele><time>2026-04-25T13:44:01.106Z</time></trkpt><trkpt lat="44.8727067" lon="7.982825"><ele>300.0</ele><time>2026-04-25T13:44:02.106Z</time></trkpt><trkpt lat="44.8726183" lon="7.9826683"><ele>298.6666666666667</ele><time>2026-04-25T13:44:03.106Z</time></trkpt><trkpt lat="44.8725183" lon="7.982515"><ele>297.33333333333337</ele><time>2026-04-25T13:44:04.106Z</time></trkpt><trkpt lat="44.8724033" lon="7.9823817"><ele>296.0</ele><time>2026-04-25T13:44:05.106Z</time></trkpt><trkpt lat="44.87227" lon="7.9822583"><ele>296.0</ele><time>2026-04-25T13:44:06.106Z</time></trkpt><trkpt lat="44.8721183" lon="7.9821783"><ele>296.0</ele><time>2026-04-25T13:44:07.106Z</time></trkpt><trkpt lat="44.8719767" lon="7.9820917"><ele>296.0</ele><time>2026-04-25T13:44:08.106Z</time></trkpt><trkpt lat="44.8718483" lon="7.9820067"><ele>294.0</ele><time>2026-04-25T13:44:09.106Z</time></trkpt><trkpt lat="44.8717267" lon="7.9819033"><ele>292.0</ele><time>2026-04-25T13:44:10.106Z</time></trkpt><trkpt lat="44.87163" lon="7.9817717"><ele>290.0</ele><time>2026-04-25T13:44:11.106Z</time></trkpt><trkpt lat="44.8715617" lon="7.981615"><ele>288.0</ele><time>2026-04-25T13:44:12.106Z</time></trkpt><trkpt lat="44.87151" lon="7.9814567"><ele>288.0</ele><time>2026-04-25T13:44:13.106Z</time></trkpt><trkpt lat="44.8714683" lon="7.981285"><ele>288.0</ele><time>2026-04-25T13:44:14.106Z</time></trkpt><trkpt lat="44.87141" lon="7.9811"><ele>288.0</ele><time>2026-04-25T13:44:15.106Z</time></trkpt><trkpt lat="44.8713267" lon="7.9809367"><ele>288.0</ele><time>2026-04-25T13:44:16.106Z</time></trkpt><trkpt lat="44.87123" lon="7.9807667"><ele>286.3333333333333</ele><time>2026-04-25T13:44:17.106Z</time></trkpt><trkpt lat="44.8711317" lon="7.980595"><ele>284.66666666666663</ele><time>2026-04-25T13:44:18.106Z</time></trkpt><trkpt lat="44.8710367" lon="7.9804067"><ele>283.0</ele><time>2026-04-25T13:44:19.106Z</time></trkpt><trkpt lat="44.8709433" lon="7.9802167"><ele>284.66666666666663</ele><time>2026-04-25T13:44:20.106Z</time></trkpt><trkpt lat="44.8708417" lon="7.9800367"><ele>286.3333333333333</ele><time>2026-04-25T13:44:21.106Z</time></trkpt><trkpt lat="44.8707433" lon="7.979855"><ele>288.0</ele><time>2026-04-25T13:44:22.106Z</time></trkpt><trkpt lat="44.8706383" lon="7.9796867"><ele>289.3333333333333</ele><time>2026-04-25T13:44:23.106Z</time></trkpt><trkpt lat="44.8705333" lon="7.9795283"><ele>290.66666666666663</ele><time>2026-04-25T13:44:24.106Z</time></trkpt><trkpt lat="44.8704317" lon="7.97937"><ele>292.0</ele><time>2026-04-25T13:44:25.106Z</time></trkpt><trkpt lat="44.8703417" lon="7.9792083"><ele>291.75</ele><time>2026-04-25T13:44:26.106Z</time></trkpt><trkpt lat="44.870265" lon="7.9790383"><ele>291.5</ele><time>2026-04-25T13:44:27.106Z</time></trkpt><trkpt lat="44.870205" lon="7.978875"><ele>291.25</ele><time>2026-04-25T13:44:28.106Z</time></trkpt><trkpt lat="44.87015" lon="7.9787117"><ele>291.0</ele><time>2026-04-25T13:44:29.106Z</time></trkpt><trkpt lat="44.8700983" lon="7.9785483"><ele>292.0</ele><time>2026-04-25T13:44:30.106Z</time></trkpt><trkpt lat="44.870045" lon="7.9783817"><ele>293.0</ele><time>2026-04-25T13:44:31.106Z</time></trkpt><trkpt lat="44.869995" lon="7.97818"><ele>294.0</ele><time>2026-04-25T13:44:32.106Z</time></trkpt><trkpt lat="44.8699283" lon="7.97799"><ele>295.0</ele><time>2026-04-25T13:44:33.106Z</time></trkpt><trkpt lat="44.86986" lon="7.977775"><ele>295.66666666666663</ele><time>2026-04-25T13:44:34.106Z</time></trkpt><trkpt lat="44.8698" lon="7.9775583"><ele>296.3333333333333</ele><time>2026-04-25T13:44:35.106Z</time></trkpt><trkpt lat="44.86975" lon="7.9773283"><ele>297.0</ele><time>2026-04-25T13:44:36.106Z</time></trkpt><trkpt lat="44.8696983" lon="7.9771183"><ele>297.0</ele><time>2026-04-25T13:44:37.106Z</time></trkpt><trkpt lat="44.869655" lon="7.9769083"><ele>297.0</ele><time>2026-04-25T13:44:38.107Z</time></trkpt><trkpt lat="44.8696067" lon="7.9767233"><ele>297.0</ele><time>2026-04-25T13:44:39.106Z</time></trkpt><trkpt lat="44.8695517" lon="7.9765667"><ele>297.0</ele><time>2026-04-25T13:44:40.106Z</time></trkpt><trkpt lat="44.869505" lon="7.97642"><ele>298.75</ele><time>2026-04-25T13:44:41.106Z</time></trkpt><trkpt lat="44.8694733" lon="7.9762733"><ele>300.5</ele><time>2026-04-25T13:44:42.106Z</time></trkpt><trkpt lat="44.8694617" lon="7.976115"><ele>302.25</ele><time>2026-04-25T13:44:43.106Z</time></trkpt><trkpt lat="44.869475" lon="7.975945"><ele>304.0</ele><time>2026-04-25T13:44:44.106Z</time></trkpt><trkpt lat="44.8694917" lon="7.9757717"><ele>304.0</ele><time>2026-04-25T13:44:45.106Z</time></trkpt><trkpt lat="44.8695167" lon="7.975585"><ele>304.0</ele><time>2026-04-25T13:44:46.106Z</time></trkpt><trkpt lat="44.8695517" lon="7.9753883"><ele>304.0</ele><time>2026-04-25T13:44:47.106Z</time></trkpt><trkpt lat="44.8695867" lon="7.9751917"><ele>304.0</ele><time>2026-04-25T13:44:48.106Z</time></trkpt><trkpt lat="44.8696133" lon="7.9749767"><ele>300.3333333333333</ele><time>2026-04-25T13:44:49.106Z</time></trkpt><trkpt lat="44.8696483" lon="7.9747633"><ele>296.6666666666667</ele><time>2026-04-25T13:44:50.106Z</time></trkpt><trkpt lat="44.8696917" lon="7.97455"><ele>293.0</ele><time>2026-04-25T13:44:51.106Z</time></trkpt><trkpt lat="44.86973" lon="7.9743267"><ele>292.33333333333337</ele><time>2026-04-25T13:44:52.106Z</time></trkpt><trkpt lat="44.8697717" lon="7.9741083"><ele>291.6666666666667</ele><time>2026-04-25T13:44:53.106Z</time></trkpt><trkpt lat="44.8698033" lon="7.9738867"><ele>291.0</ele><time>2026-04-25T13:44:54.106Z</time></trkpt><trkpt lat="44.86983" lon="7.9736633"><ele>291.0</ele><time>2026-04-25T13:44:55.106Z</time></trkpt><trkpt lat="44.8698367" lon="7.9734433"><ele>291.0</ele><time>2026-04-25T13:44:56.106Z</time></trkpt><trkpt lat="44.8698183" lon="7.9732217"><ele>291.0</ele><time>2026-04-25T13:44:57.106Z</time></trkpt><trkpt lat="44.8697733" lon="7.9730083"><ele>290.6666666666667</ele><time>2026-04-25T13:44:58.106Z</time></trkpt><trkpt lat="44.8697" lon="7.9728167"><ele>290.33333333333337</ele><time>2026-04-25T13:44:59.106Z</time></trkpt><trkpt lat="44.869615" lon="7.9726417"><ele>290.0</ele><time>2026-04-25T13:45:00.106Z</time></trkpt><trkpt lat="44.8695117" lon="7.9724917"><ele>291.0</ele><time>2026-04-25T13:45:01.107Z</time></trkpt><trkpt lat="44.8694067" lon="7.9723317"><ele>292.0</ele><time>2026-04-25T13:45:02.106Z</time></trkpt><trkpt lat="44.8693083" lon="7.9721733"><ele>293.0</ele><time>2026-04-25T13:45:03.106Z</time></trkpt><trkpt lat="44.86924" lon="7.9719917"><ele>293.0</ele><time>2026-04-25T13:45:04.106Z</time></trkpt><trkpt lat="44.86918" lon="7.9718167"><ele>293.0</ele><time>2026-04-25T13:45:05.106Z</time></trkpt><trkpt lat="44.8691267" lon="7.9716417"><ele>293.0</ele><time>2026-04-25T13:45:06.106Z</time></trkpt><trkpt lat="44.8690783" lon="7.9714617"><ele>293.0</ele><time>2026-04-25T13:45:07.106Z</time></trkpt><trkpt lat="44.8690417" lon="7.9712717"><ele>297.0</ele><time>2026-04-25T13:45:08.106Z</time></trkpt><trkpt lat="44.869025" lon="7.9710733"><ele>301.0</ele><time>2026-04-25T13:45:09.106Z</time></trkpt><trkpt lat="44.869025" lon="7.9708783"><ele>305.0</ele><time>2026-04-25T13:45:10.106Z</time></trkpt><trkpt lat="44.8690317" lon="7.9706983"><ele>309.0</ele><time>2026-04-25T13:45:11.106Z</time></trkpt><trkpt lat="44.8690317" lon="7.97053"><ele>310.75</ele><time>2026-04-25T13:45:12.106Z</time></trkpt><trkpt lat="44.8690133" lon="7.970375"><ele>312.5</ele><time>2026-04-25T13:45:13.106Z</time></trkpt><trkpt lat="44.868985" lon="7.9702267"><ele>314.25</ele><time>2026-04-25T13:45:14.106Z</time></trkpt><trkpt lat="44.86896" lon="7.9700667"><ele>316.0</ele><time>2026-04-25T13:45:15.106Z</time></trkpt><trkpt lat="44.8689233" lon="7.9698967"><ele>316.0</ele><time>2026-04-25T13:45:16.106Z</time></trkpt><trkpt lat="44.8688733" lon="7.9697267"><ele>316.0</ele><time>2026-04-25T13:45:17.106Z</time></trkpt><trkpt lat="44.8688133" lon="7.969545"><ele>316.0</ele><time>2026-04-25T13:45:18.106Z</time></trkpt><trkpt lat="44.868755" lon="7.969355"><ele>316.0</ele><time>2026-04-25T13:45:19.106Z</time></trkpt><trkpt lat="44.8687133" lon="7.9691533"><ele>316.3333333333333</ele><time>2026-04-25T13:45:20.106Z</time></trkpt><trkpt lat="44.8686767" lon="7.96894"><ele>316.6666666666667</ele><time>2026-04-25T13:45:21.106Z</time></trkpt><trkpt lat="44.8686433" lon="7.9687233"><ele>317.0</ele><time>2026-04-25T13:45:22.106Z</time></trkpt><trkpt lat="44.8686167" lon="7.9685133"><ele>317.25</ele><time>2026-04-25T13:45:23.106Z</time></trkpt><trkpt lat="44.8685883" lon="7.9683117"><ele>317.5</ele><time>2026-04-25T13:45:24.106Z</time></trkpt><trkpt lat="44.868565" lon="7.9681167"><ele>317.75</ele><time>2026-04-25T13:45:25.106Z</time></trkpt><trkpt lat="44.8685567" lon="7.96792"><ele>318.0</ele><time>2026-04-25T13:45:26.106Z</time></trkpt><trkpt lat="44.8685583" lon="7.9677267"><ele>318.0</ele><time>2026-04-25T13:45:27.106Z</time></trkpt><trkpt lat="44.868575" lon="7.967535"><ele>318.0</ele><time>2026-04-25T13:45:28.106Z</time></trkpt><trkpt lat="44.8686167" lon="7.9673333"><ele>318.0</ele><time>2026-04-25T13:45:29.106Z</time></trkpt><trkpt lat="44.868645" lon="7.96714"><ele>318.0</ele><time>2026-04-25T13:45:30.106Z</time></trkpt><trkpt lat="44.868685" lon="7.9669417"><ele>317.25</ele><time>2026-04-25T13:45:31.106Z</time></trkpt><trkpt lat="44.8687283" lon="7.9667433"><ele>316.5</ele><time>2026-04-25T13:45:32.106Z</time></trkpt><trkpt lat="44.8687633" lon="7.9665517"><ele>315.75</ele><time>2026-04-25T13:45:33.106Z</time></trkpt><trkpt lat="44.8687733" lon="7.9663683"><ele>315.0</ele><time>2026-04-25T13:45:34.106Z</time></trkpt><trkpt lat="44.8687483" lon="7.9661833"><ele>315.0</ele><time>2026-04-25T13:45:35.106Z</time></trkpt><trkpt lat="44.868695" lon="7.96601"><ele>315.0</ele><time>2026-04-25T13:45:36.106Z</time></trkpt><trkpt lat="44.8686333" lon="7.96584"><ele>315.0</ele><time>2026-04-25T13:45:37.106Z</time></trkpt><trkpt lat="44.868575" lon="7.9656767"><ele>315.0</ele><time>2026-04-25T13:45:38.106Z</time></trkpt><trkpt lat="44.8685133" lon="7.965515"><ele>315.75</ele><time>2026-04-25T13:45:39.106Z</time></trkpt><trkpt lat="44.868465" lon="7.9653433"><ele>316.5</ele><time>2026-04-25T13:45:40.106Z</time></trkpt><trkpt lat="44.868435" lon="7.9651617"><ele>317.25</ele><time>2026-04-25T13:45:41.106Z</time></trkpt><trkpt lat="44.8684167" lon="7.9649533"><ele>318.0</ele><time>2026-04-25T13:45:42.106Z</time></trkpt><trkpt lat="44.86841" lon="7.964735"><ele>319.0</ele><time>2026-04-25T13:45:43.106Z</time></trkpt><trkpt lat="44.8684" lon="7.9645383"><ele>320.0</ele><time>2026-04-25T13:45:44.106Z</time></trkpt><trkpt lat="44.8683867" lon="7.9643633"><ele>321.0</ele><time>2026-04-25T13:45:45.106Z</time></trkpt><trkpt lat="44.8683733" lon="7.9642183"><ele>322.0</ele><time>2026-04-25T13:45:46.106Z</time></trkpt><trkpt lat="44.8683767" lon="7.9641283"><ele>323.0</ele><time>2026-04-25T13:45:47.106Z</time></trkpt><trkpt lat="44.868355" lon="7.9640283"><ele>323.0</ele><time>2026-04-25T13:45:50.106Z</time></trkpt><trkpt lat="44.8682933" lon="7.9639417"><ele>323.0</ele><time>2026-04-25T13:45:52.106Z</time></trkpt><trkpt lat="44.8682367" lon="7.9638967"><ele>323.0</ele><time>2026-04-25T13:45:53.106Z</time></trkpt><trkpt lat="44.8681633" lon="7.9638583"><ele>323.0</ele><time>2026-04-25T13:45:54.106Z</time></trkpt><trkpt lat="44.8680783" lon="7.9638233"><ele>323.0</ele><time>2026-04-25T13:45:55.106Z</time></trkpt><trkpt lat="44.8679917" lon="7.9637967"><ele>323.0</ele><time>2026-04-25T13:45:56.106Z</time></trkpt><trkpt lat="44.8678967" lon="7.9637817"><ele>323.0</ele><time>2026-04-25T13:45:57.106Z</time></trkpt><trkpt lat="44.8677967" lon="7.963785"><ele>323.0</ele><time>2026-04-25T13:45:58.106Z</time></trkpt><trkpt lat="44.8676967" lon="7.9638217"><ele>323.0</ele><time>2026-04-25T13:45:59.106Z</time></trkpt><trkpt lat="44.8675833" lon="7.963875"><ele>323.0</ele><time>2026-04-25T13:46:00.106Z</time></trkpt><trkpt lat="44.8674583" lon="7.96393"><ele>322.5</ele><time>2026-04-25T13:46:01.106Z</time></trkpt><trkpt lat="44.8673267" lon="7.9639867"><ele>322.0</ele><time>2026-04-25T13:46:02.106Z</time></trkpt><trkpt lat="44.86719" lon="7.9640367"><ele>321.5</ele><time>2026-04-25T13:46:03.106Z</time></trkpt><trkpt lat="44.8670467" lon="7.964095"><ele>321.0</ele><time>2026-04-25T13:46:04.106Z</time></trkpt><trkpt lat="44.8669017" lon="7.96415"><ele>316.3333333333333</ele><time>2026-04-25T13:46:05.106Z</time></trkpt><trkpt lat="44.8667533" lon="7.9642017"><ele>311.66666666666663</ele><time>2026-04-25T13:46:06.106Z</time></trkpt><trkpt lat="44.8666017" lon="7.9642617"><ele>307.0</ele><time>2026-04-25T13:46:07.106Z</time></trkpt><trkpt lat="44.86645" lon="7.9643067"><ele>307.0</ele><time>2026-04-25T13:46:08.106Z</time></trkpt><trkpt lat="44.8663033" lon="7.9643383"><ele>307.0</ele><time>2026-04-25T13:46:09.106Z</time></trkpt><trkpt lat="44.8661533" lon="7.9643733"><ele>307.0</ele><time>2026-04-25T13:46:10.106Z</time></trkpt><trkpt lat="44.8660017" lon="7.9644417"><ele>307.0</ele><time>2026-04-25T13:46:11.106Z</time></trkpt><trkpt lat="44.865855" lon="7.964535"><ele>307.0</ele><time>2026-04-25T13:46:12.106Z</time></trkpt><trkpt lat="44.8657033" lon="7.9646383"><ele>307.0</ele><time>2026-04-25T13:46:13.106Z</time></trkpt><trkpt lat="44.86554" lon="7.96472"><ele>307.0</ele><time>2026-04-25T13:46:14.106Z</time></trkpt><trkpt lat="44.8653633" lon="7.9647733"><ele>307.0</ele><time>2026-04-25T13:46:15.106Z</time></trkpt><trkpt lat="44.865195" lon="7.9648067"><ele>307.0</ele><time>2026-04-25T13:46:16.106Z</time></trkpt><trkpt lat="44.86502" lon="7.9648233"><ele>309.3333333333333</ele><time>2026-04-25T13:46:17.106Z</time></trkpt><trkpt lat="44.8648483" lon="7.964845"><ele>311.6666666666667</ele><time>2026-04-25T13:46:18.106Z</time></trkpt><trkpt lat="44.8646733" lon="7.9648733"><ele>314.0</ele><time>2026-04-25T13:46:19.106Z</time></trkpt><trkpt lat="44.864505" lon="7.964875"><ele>314.0</ele><time>2026-04-25T13:46:20.106Z</time></trkpt><trkpt lat="44.86436" lon="7.964825"><ele>314.0</ele><time>2026-04-25T13:46:21.106Z</time></trkpt><trkpt lat="44.864235" lon="7.9647183"><ele>314.0</ele><time>2026-04-25T13:46:22.106Z</time></trkpt><trkpt lat="44.8641067" lon="7.964595"><ele>313.75</ele><time>2026-04-25T13:46:23.106Z</time></trkpt><trkpt lat="44.86399" lon="7.9644633"><ele>313.5</ele><time>2026-04-25T13:46:24.106Z</time></trkpt><trkpt lat="44.863895" lon="7.9643167"><ele>313.25</ele><time>2026-04-25T13:46:25.106Z</time></trkpt><trkpt lat="44.8638267" lon="7.9641517"><ele>313.0</ele><time>2026-04-25T13:46:26.106Z</time></trkpt><trkpt lat="44.863765" lon="7.96396"><ele>315.3333333333333</ele><time>2026-04-25T13:46:27.106Z</time></trkpt><trkpt lat="44.8637167" lon="7.9637367"><ele>317.6666666666667</ele><time>2026-04-25T13:46:28.106Z</time></trkpt><trkpt lat="44.8636683" lon="7.9635167"><ele>320.0</ele><time>2026-04-25T13:46:29.106Z</time></trkpt><trkpt lat="44.8636183" lon="7.9633017"><ele>320.0</ele><time>2026-04-25T13:46:30.106Z</time></trkpt><trkpt lat="44.8635733" lon="7.9630883"><ele>320.0</ele><time>2026-04-25T13:46:31.106Z</time></trkpt><trkpt lat="44.8635267" lon="7.9628867"><ele>320.0</ele><time>2026-04-25T13:46:32.106Z</time></trkpt><trkpt lat="44.86348" lon="7.9626817"><ele>320.0</ele><time>2026-04-25T13:46:33.106Z</time></trkpt><trkpt lat="44.8634133" lon="7.9624983"><ele>320.0</ele><time>2026-04-25T13:46:34.106Z</time></trkpt><trkpt lat="44.8633233" lon="7.96234"><ele>320.0</ele><time>2026-04-25T13:46:35.106Z</time></trkpt><trkpt lat="44.863205" lon="7.9622267"><ele>320.0</ele><time>2026-04-25T13:46:36.106Z</time></trkpt><trkpt lat="44.8630633" lon="7.9621433"><ele>320.0</ele><time>2026-04-25T13:46:37.106Z</time></trkpt><trkpt lat="44.86291" lon="7.9620833"><ele>320.0</ele><time>2026-04-25T13:46:38.106Z</time></trkpt><trkpt lat="44.8627517" lon="7.9620317"><ele>320.0</ele><time>2026-04-25T13:46:39.106Z</time></trkpt><trkpt lat="44.86259" lon="7.9619883"><ele>318.0</ele><time>2026-04-25T13:46:40.106Z</time></trkpt><trkpt lat="44.862425" lon="7.961945"><ele>316.0</ele><time>2026-04-25T13:46:41.106Z</time></trkpt><trkpt lat="44.862265" lon="7.9618983"><ele>314.0</ele><time>2026-04-25T13:46:42.106Z</time></trkpt><trkpt lat="44.86211" lon="7.9618467"><ele>314.0</ele><time>2026-04-25T13:46:43.106Z</time></trkpt><trkpt lat="44.86196" lon="7.961805"><ele>314.0</ele><time>2026-04-25T13:46:44.106Z</time></trkpt><trkpt lat="44.8618133" lon="7.9617517"><ele>314.0</ele><time>2026-04-25T13:46:45.106Z</time></trkpt><trkpt lat="44.8616717" lon="7.9616933"><ele>316.25</ele><time>2026-04-25T13:46:46.106Z</time></trkpt><trkpt lat="44.86153" lon="7.9616583"><ele>318.5</ele><time>2026-04-25T13:46:47.106Z</time></trkpt><trkpt lat="44.861385" lon="7.9616333"><ele>320.75</ele><time>2026-04-25T13:46:48.106Z</time></trkpt><trkpt lat="44.8612317" lon="7.96165"><ele>323.0</ele><time>2026-04-25T13:46:49.106Z</time></trkpt><trkpt lat="44.8610817" lon="7.9616967"><ele>320.6666666666667</ele><time>2026-04-25T13:46:50.106Z</time></trkpt><trkpt lat="44.860935" lon="7.9617533"><ele>318.3333333333333</ele><time>2026-04-25T13:46:51.106Z</time></trkpt><trkpt lat="44.8607883" lon="7.96182"><ele>316.0</ele><time>2026-04-25T13:46:52.106Z</time></trkpt><trkpt lat="44.8606317" lon="7.961845"><ele>316.0</ele><time>2026-04-25T13:46:53.106Z</time></trkpt><trkpt lat="44.8604733" lon="7.96187"><ele>316.0</ele><time>2026-04-25T13:46:54.106Z</time></trkpt><trkpt lat="44.8603167" lon="7.9618867"><ele>316.0</ele><time>2026-04-25T13:46:55.106Z</time></trkpt><trkpt lat="44.8601683" lon="7.9618883"><ele>317.66666666666663</ele><time>2026-04-25T13:46:56.106Z</time></trkpt><trkpt lat="44.8600183" lon="7.9618967"><ele>319.3333333333333</ele><time>2026-04-25T13:46:57.106Z</time></trkpt><trkpt lat="44.859855" lon="7.961905"><ele>321.0</ele><time>2026-04-25T13:46:58.106Z</time></trkpt><trkpt lat="44.8597067" lon="7.96192"><ele>321.0</ele><time>2026-04-25T13:46:59.106Z</time></trkpt><trkpt lat="44.85955" lon="7.961915"><ele>321.0</ele><time>2026-04-25T13:47:00.106Z</time></trkpt><trkpt lat="44.859395" lon="7.9619083"><ele>321.0</ele><time>2026-04-25T13:47:01.106Z</time></trkpt><trkpt lat="44.8592367" lon="7.9619183"><ele>319.75</ele><time>2026-04-25T13:47:02.106Z</time></trkpt><trkpt lat="44.8590867" lon="7.961925"><ele>318.5</ele><time>2026-04-25T13:47:03.106Z</time></trkpt><trkpt lat="44.8589533" lon="7.96191"><ele>317.25</ele><time>2026-04-25T13:47:04.106Z</time></trkpt><trkpt lat="44.8588333" lon="7.961875"><ele>316.0</ele><time>2026-04-25T13:47:05.106Z</time></trkpt><trkpt lat="44.8587283" lon="7.9618"><ele>318.75</ele><time>2026-04-25T13:47:06.106Z</time></trkpt><trkpt lat="44.8586433" lon="7.961695"><ele>321.5</ele><time>2026-04-25T13:47:07.106Z</time></trkpt><trkpt lat="44.8585833" lon="7.9615417"><ele>324.25</ele><time>2026-04-25T13:47:08.106Z</time></trkpt><trkpt lat="44.8585583" lon="7.9613533"><ele>327.0</ele><time>2026-04-25T13:47:09.106Z</time></trkpt><trkpt lat="44.8585583" lon="7.9611367"><ele>327.0</ele><time>2026-04-25T13:47:10.106Z</time></trkpt><trkpt lat="44.8585667" lon="7.960915"><ele>327.0</ele><time>2026-04-25T13:47:11.106Z</time></trkpt><trkpt lat="44.85856" lon="7.9607067"><ele>327.0</ele><time>2026-04-25T13:47:12.106Z</time></trkpt><trkpt lat="44.8585367" lon="7.96051"><ele>327.0</ele><time>2026-04-25T13:47:13.106Z</time></trkpt><trkpt lat="44.8584833" lon="7.9603433"><ele>325.5</ele><time>2026-04-25T13:47:14.106Z</time></trkpt><trkpt lat="44.8584083" lon="7.9602067"><ele>324.0</ele><time>2026-04-25T13:47:15.106Z</time></trkpt><trkpt lat="44.8582967" lon="7.9601017"><ele>322.5</ele><time>2026-04-25T13:47:16.106Z</time></trkpt><trkpt lat="44.85816" lon="7.9600217"><ele>321.0</ele><time>2026-04-25T13:47:17.106Z</time></trkpt><trkpt lat="44.85801" lon="7.9599517"><ele>321.0</ele><time>2026-04-25T13:47:18.106Z</time></trkpt><trkpt lat="44.8578533" lon="7.9598867"><ele>321.0</ele><time>2026-04-25T13:47:19.106Z</time></trkpt><trkpt lat="44.8576917" lon="7.959825"><ele>321.0</ele><time>2026-04-25T13:47:20.106Z</time></trkpt><trkpt lat="44.85752" lon="7.95978"><ele>321.0</ele><time>2026-04-25T13:47:21.106Z</time></trkpt><trkpt lat="44.8573367" lon="7.9597533"><ele>321.0</ele><time>2026-04-25T13:47:22.106Z</time></trkpt><trkpt lat="44.8571567" lon="7.95973"><ele>321.0</ele><time>2026-04-25T13:47:23.106Z</time></trkpt><trkpt lat="44.8569783" lon="7.9597117"><ele>321.0</ele><time>2026-04-25T13:47:24.106Z</time></trkpt><trkpt lat="44.8568033" lon="7.959675"><ele>321.0</ele><time>2026-04-25T13:47:25.106Z</time></trkpt><trkpt lat="44.8566417" lon="7.959615"><ele>321.0</ele><time>2026-04-25T13:47:26.106Z</time></trkpt><trkpt lat="44.8564983" lon="7.9595217"><ele>320.6666666666667</ele><time>2026-04-25T13:47:27.106Z</time></trkpt><trkpt lat="44.8563733" lon="7.9593833"><ele>320.33333333333337</ele><time>2026-04-25T13:47:28.106Z</time></trkpt><trkpt lat="44.856255" lon="7.9592283"><ele>320.0</ele><time>2026-04-25T13:47:29.106Z</time></trkpt><trkpt lat="44.856135" lon="7.9590667"><ele>320.6666666666667</ele><time>2026-04-25T13:47:30.106Z</time></trkpt><trkpt lat="44.8560083" lon="7.9589067"><ele>321.3333333333333</ele><time>2026-04-25T13:47:31.106Z</time></trkpt><trkpt lat="44.8558867" lon="7.9587417"><ele>322.0</ele><time>2026-04-25T13:47:32.106Z</time></trkpt><trkpt lat="44.85576" lon="7.9585767"><ele>322.66666666666663</ele><time>2026-04-25T13:47:33.106Z</time></trkpt><trkpt lat="44.8556283" lon="7.9584"><ele>323.3333333333333</ele><time>2026-04-25T13:47:34.106Z</time></trkpt><trkpt lat="44.855505" lon="7.9582233"><ele>324.0</ele><time>2026-04-25T13:47:35.106Z</time></trkpt><trkpt lat="44.8553967" lon="7.95805"><ele>325.0</ele><time>2026-04-25T13:47:36.106Z</time></trkpt><trkpt lat="44.8553083" lon="7.957875"><ele>326.0</ele><time>2026-04-25T13:47:37.106Z</time></trkpt><trkpt lat="44.8552283" lon="7.95772"><ele>327.0</ele><time>2026-04-25T13:47:38.106Z</time></trkpt><trkpt lat="44.8551383" lon="7.9575867"><ele>328.0</ele><time>2026-04-25T13:47:39.106Z</time></trkpt><trkpt lat="44.8550433" lon="7.9574767"><ele>329.25</ele><time>2026-04-25T13:47:40.106Z</time></trkpt><trkpt lat="44.854935" lon="7.957375"><ele>330.5</ele><time>2026-04-25T13:47:41.106Z</time></trkpt><trkpt lat="44.8548067" lon="7.9572667"><ele>331.75</ele><time>2026-04-25T13:47:42.106Z</time></trkpt><trkpt lat="44.8546817" lon="7.9571617"><ele>333.0</ele><time>2026-04-25T13:47:43.106Z</time></trkpt><trkpt lat="44.8545533" lon="7.9570517"><ele>333.0</ele><time>2026-04-25T13:47:44.106Z</time></trkpt><trkpt lat="44.85442" lon="7.9569367"><ele>333.0</ele><time>2026-04-25T13:47:45.106Z</time></trkpt><trkpt lat="44.8542883" lon="7.95682"><ele>333.0</ele><time>2026-04-25T13:47:46.106Z</time></trkpt><trkpt lat="44.854145" lon="7.9566967"><ele>334.6666666666667</ele><time>2026-04-25T13:47:47.106Z</time></trkpt><trkpt lat="44.8540033" lon="7.9565583"><ele>336.33333333333337</ele><time>2026-04-25T13:47:48.106Z</time></trkpt><trkpt lat="44.85386" lon="7.9564267"><ele>338.0</ele><time>2026-04-25T13:47:49.106Z</time></trkpt><trkpt lat="44.853715" lon="7.95629"><ele>338.0</ele><time>2026-04-25T13:47:50.106Z</time></trkpt><trkpt lat="44.8535683" lon="7.9561567"><ele>338.0</ele><time>2026-04-25T13:47:51.106Z</time></trkpt><trkpt lat="44.8534267" lon="7.9560217"><ele>338.0</ele><time>2026-04-25T13:47:52.106Z</time></trkpt><trkpt lat="44.853285" lon="7.9558917"><ele>337.6666666666667</ele><time>2026-04-25T13:47:53.106Z</time></trkpt><trkpt lat="44.853145" lon="7.9557667"><ele>337.3333333333333</ele><time>2026-04-25T13:47:54.106Z</time></trkpt><trkpt lat="44.853" lon="7.9556417"><ele>337.0</ele><time>2026-04-25T13:47:55.106Z</time></trkpt><trkpt lat="44.8528417" lon="7.95551"><ele>337.0</ele><time>2026-04-25T13:47:56.106Z</time></trkpt><trkpt lat="44.852685" lon="7.9554"><ele>337.0</ele><time>2026-04-25T13:47:57.106Z</time></trkpt><trkpt lat="44.8525183" lon="7.9552983"><ele>337.0</ele><time>2026-04-25T13:47:58.106Z</time></trkpt><trkpt lat="44.85235" lon="7.9551917"><ele>336.66666666666663</ele><time>2026-04-25T13:47:59.106Z</time></trkpt><trkpt lat="44.8521767" lon="7.9550917"><ele>336.3333333333333</ele><time>2026-04-25T13:48:00.106Z</time></trkpt><trkpt lat="44.8520067" lon="7.9549917"><ele>336.0</ele><time>2026-04-25T13:48:01.106Z</time></trkpt><trkpt lat="44.8518583" lon="7.9548933"><ele>336.6666666666667</ele><time>2026-04-25T13:48:02.106Z</time></trkpt><trkpt lat="44.8517117" lon="7.9548017"><ele>337.33333333333337</ele><time>2026-04-25T13:48:03.106Z</time></trkpt><trkpt lat="44.8515667" lon="7.95471"><ele>338.0</ele><time>2026-04-25T13:48:04.106Z</time></trkpt><trkpt lat="44.8514183" lon="7.9546167"><ele>338.0</ele><time>2026-04-25T13:48:05.106Z</time></trkpt><trkpt lat="44.851275" lon="7.9545217"><ele>338.0</ele><time>2026-04-25T13:48:06.106Z</time></trkpt><trkpt lat="44.851135" lon="7.9544333"><ele>338.0</ele><time>2026-04-25T13:48:07.106Z</time></trkpt><trkpt lat="44.850995" lon="7.954355"><ele>338.33333333333337</ele><time>2026-04-25T13:48:08.106Z</time></trkpt><trkpt lat="44.8508567" lon="7.9542733"><ele>338.6666666666667</ele><time>2026-04-25T13:48:09.106Z</time></trkpt><trkpt lat="44.8507183" lon="7.9541917"><ele>339.0</ele><time>2026-04-25T13:48:10.106Z</time></trkpt><trkpt lat="44.850575" lon="7.954105"><ele>339.0</ele><time>2026-04-25T13:48:11.106Z</time></trkpt><trkpt lat="44.8504317" lon="7.9540217"><ele>339.0</ele><time>2026-04-25T13:48:12.107Z</time></trkpt><trkpt lat="44.85029" lon="7.9539367"><ele>339.0</ele><time>2026-04-25T13:48:13.106Z</time></trkpt><trkpt lat="44.8501433" lon="7.9538583"><ele>338.6666666666667</ele><time>2026-04-25T13:48:14.106Z</time></trkpt><trkpt lat="44.8499933" lon="7.9537983"><ele>338.33333333333337</ele><time>2026-04-25T13:48:15.106Z</time></trkpt><trkpt lat="44.8498367" lon="7.9537633"><ele>338.0</ele><time>2026-04-25T13:48:16.106Z</time></trkpt><trkpt lat="44.8496717" lon="7.953785"><ele>338.0</ele><time>2026-04-25T13:48:17.106Z</time></trkpt><trkpt lat="44.84949" lon="7.9538367"><ele>338.0</ele><time>2026-04-25T13:48:18.106Z</time></trkpt><trkpt lat="44.8493" lon="7.9539417"><ele>338.0</ele><time>2026-04-25T13:48:19.106Z</time></trkpt><trkpt lat="44.8491" lon="7.95404"><ele>338.33333333333337</ele><time>2026-04-25T13:48:20.106Z</time></trkpt><trkpt lat="44.84889" lon="7.9541183"><ele>338.6666666666667</ele><time>2026-04-25T13:48:21.106Z</time></trkpt><trkpt lat="44.8486867" lon="7.9541883"><ele>339.0</ele><time>2026-04-25T13:48:22.106Z</time></trkpt><trkpt lat="44.8484933" lon="7.9542467"><ele>339.3333333333333</ele><time>2026-04-25T13:48:23.106Z</time></trkpt><trkpt lat="44.84831" lon="7.9542983"><ele>339.66666666666663</ele><time>2026-04-25T13:48:24.106Z</time></trkpt><trkpt lat="44.848125" lon="7.9543333"><ele>340.0</ele><time>2026-04-25T13:48:25.106Z</time></trkpt><trkpt lat="44.8479483" lon="7.9543633"><ele>340.0</ele><time>2026-04-25T13:48:26.106Z</time></trkpt><trkpt lat="44.847775" lon="7.9543883"><ele>340.0</ele><time>2026-04-25T13:48:27.106Z</time></trkpt><trkpt lat="44.8476033" lon="7.9544067"><ele>340.0</ele><time>2026-04-25T13:48:28.106Z</time></trkpt><trkpt lat="44.8474333" lon="7.9544133"><ele>343.0</ele><time>2026-04-25T13:48:29.106Z</time></trkpt><trkpt lat="44.84727" lon="7.954415"><ele>346.0</ele><time>2026-04-25T13:48:30.106Z</time></trkpt><trkpt lat="44.8471067" lon="7.9544217"><ele>349.0</ele><time>2026-04-25T13:48:31.106Z</time></trkpt><trkpt lat="44.8469383" lon="7.9544267"><ele>349.3333333333333</ele><time>2026-04-25T13:48:32.106Z</time></trkpt><trkpt lat="44.8467733" lon="7.9544367"><ele>349.6666666666667</ele><time>2026-04-25T13:48:33.106Z</time></trkpt><trkpt lat="44.8466117" lon="7.9544517"><ele>350.0</ele><time>2026-04-25T13:48:34.106Z</time></trkpt><trkpt lat="44.846445" lon="7.9544733"><ele>350.0</ele><time>2026-04-25T13:48:35.106Z</time></trkpt><trkpt lat="44.846275" lon="7.9544883"><ele>350.0</ele><time>2026-04-25T13:48:36.106Z</time></trkpt><trkpt lat="44.8461117" lon="7.9545067"><ele>350.0</ele><time>2026-04-25T13:48:37.106Z</time></trkpt><trkpt lat="44.845935" lon="7.95453"><ele>348.0</ele><time>2026-04-25T13:48:38.106Z</time></trkpt><trkpt lat="44.8457533" lon="7.9545683"><ele>346.0</ele><time>2026-04-25T13:48:39.106Z</time></trkpt><trkpt lat="44.845565" lon="7.9546117"><ele>344.0</ele><time>2026-04-25T13:48:40.106Z</time></trkpt><trkpt lat="44.8453717" lon="7.9546633"><ele>344.0</ele><time>2026-04-25T13:48:41.106Z</time></trkpt><trkpt lat="44.8451733" lon="7.954725"><ele>344.0</ele><time>2026-04-25T13:48:42.106Z</time></trkpt><trkpt lat="44.8449767" lon="7.9548"><ele>344.0</ele><time>2026-04-25T13:48:43.106Z</time></trkpt><trkpt lat="44.84478" lon="7.95489"><ele>344.0</ele><time>2026-04-25T13:48:44.106Z</time></trkpt><trkpt lat="44.8445783" lon="7.9549683"><ele>344.0</ele><time>2026-04-25T13:48:45.106Z</time></trkpt><trkpt lat="44.844385" lon="7.9550467"><ele>344.0</ele><time>2026-04-25T13:48:46.106Z</time></trkpt><trkpt lat="44.8441883" lon="7.9551317"><ele>346.0</ele><time>2026-04-25T13:48:47.106Z</time></trkpt><trkpt lat="44.8439983" lon="7.9552267"><ele>348.0</ele><time>2026-04-25T13:48:48.106Z</time></trkpt><trkpt lat="44.8438033" lon="7.9553267"><ele>350.0</ele><time>2026-04-25T13:48:49.106Z</time></trkpt><trkpt lat="44.8436083" lon="7.9554267"><ele>350.0</ele><time>2026-04-25T13:48:50.106Z</time></trkpt><trkpt lat="44.84341" lon="7.9555283"><ele>350.0</ele><time>2026-04-25T13:48:51.106Z</time></trkpt><trkpt lat="44.8432167" lon="7.95563"><ele>350.0</ele><time>2026-04-25T13:48:52.106Z</time></trkpt><trkpt lat="44.8430183" lon="7.9557317"><ele>350.0</ele><time>2026-04-25T13:48:53.106Z</time></trkpt><trkpt lat="44.8428233" lon="7.955845"><ele>350.0</ele><time>2026-04-25T13:48:54.106Z</time></trkpt><trkpt lat="44.84263" lon="7.9559533"><ele>350.0</ele><time>2026-04-25T13:48:55.106Z</time></trkpt><trkpt lat="44.842425" lon="7.9560533"><ele>348.33333333333337</ele><time>2026-04-25T13:48:56.106Z</time></trkpt><trkpt lat="44.8422267" lon="7.9561417"><ele>346.6666666666667</ele><time>2026-04-25T13:48:57.106Z</time></trkpt><trkpt lat="44.842025" lon="7.95624"><ele>345.0</ele><time>2026-04-25T13:48:58.106Z</time></trkpt><trkpt lat="44.8418333" lon="7.956335"><ele>346.6666666666667</ele><time>2026-04-25T13:48:59.106Z</time></trkpt><trkpt lat="44.84164" lon="7.9564283"><ele>348.33333333333337</ele><time>2026-04-25T13:49:00.106Z</time></trkpt><trkpt lat="44.84146" lon="7.95651"><ele>350.0</ele><time>2026-04-25T13:49:01.106Z</time></trkpt><trkpt lat="44.8412767" lon="7.9565833"><ele>350.0</ele><time>2026-04-25T13:49:02.106Z</time></trkpt><trkpt lat="44.841085" lon="7.956615"><ele>350.0</ele><time>2026-04-25T13:49:03.106Z</time></trkpt><trkpt lat="44.8409067" lon="7.9566217"><ele>350.0</ele><time>2026-04-25T13:49:04.106Z</time></trkpt><trkpt lat="44.8407233" lon="7.9566233"><ele>351.0</ele><time>2026-04-25T13:49:05.106Z</time></trkpt><trkpt lat="44.8405417" lon="7.956625"><ele>352.0</ele><time>2026-04-25T13:49:06.106Z</time></trkpt><trkpt lat="44.84036" lon="7.95663"><ele>353.0</ele><time>2026-04-25T13:49:07.106Z</time></trkpt><trkpt lat="44.8401967" lon="7.9565933"><ele>353.6666666666667</ele><time>2026-04-25T13:49:08.106Z</time></trkpt><trkpt lat="44.84003" lon="7.956525"><ele>354.3333333333333</ele><time>2026-04-25T13:49:09.106Z</time></trkpt><trkpt lat="44.8398733" lon="7.95642"><ele>355.0</ele><time>2026-04-25T13:49:10.106Z</time></trkpt><trkpt lat="44.83972" lon="7.9563067"><ele>355.0</ele><time>2026-04-25T13:49:11.106Z</time></trkpt><trkpt lat="44.8395617" lon="7.956215"><ele>355.0</ele><time>2026-04-25T13:49:12.106Z</time></trkpt><trkpt lat="44.8393983" lon="7.9561533"><ele>355.0</ele><time>2026-04-25T13:49:13.106Z</time></trkpt><trkpt lat="44.8392367" lon="7.9561567"><ele>354.0</ele><time>2026-04-25T13:49:14.106Z</time></trkpt><trkpt lat="44.8390833" lon="7.9562167"><ele>353.0</ele><time>2026-04-25T13:49:15.106Z</time></trkpt><trkpt lat="44.8389333" lon="7.95632"><ele>352.0</ele><time>2026-04-25T13:49:16.106Z</time></trkpt><trkpt lat="44.8387867" lon="7.956415"><ele>352.0</ele><time>2026-04-25T13:49:17.106Z</time></trkpt><trkpt lat="44.8386417" lon="7.9564917"><ele>352.0</ele><time>2026-04-25T13:49:18.106Z</time></trkpt><trkpt lat="44.8384933" lon="7.956525"><ele>352.0</ele><time>2026-04-25T13:49:19.106Z</time></trkpt><trkpt lat="44.8383433" lon="7.956515"><ele>353.6</ele><time>2026-04-25T13:49:20.106Z</time></trkpt><trkpt lat="44.8381983" lon="7.9564617"><ele>355.20000000000005</ele><time>2026-04-25T13:49:21.106Z</time></trkpt><trkpt lat="44.83808" lon="7.9564017"><ele>356.8</ele><time>2026-04-25T13:49:22.106Z</time></trkpt><trkpt lat="44.8379883" lon="7.9563533"><ele>358.4</ele><time>2026-04-25T13:49:23.106Z</time></trkpt><trkpt lat="44.8379267" lon="7.9563233"><ele>360.0</ele><time>2026-04-25T13:49:24.106Z</time></trkpt><trkpt lat="44.837825" lon="7.956265"><ele>360.0</ele><time>2026-04-25T13:49:26.106Z</time></trkpt><trkpt lat="44.8377533" lon="7.95625"><ele>360.0</ele><time>2026-04-25T13:49:27.106Z</time></trkpt><trkpt lat="44.837665" lon="7.9562317"><ele>360.0</ele><time>2026-04-25T13:49:28.106Z</time></trkpt><trkpt lat="44.8375617" lon="7.9562183"><ele>360.0</ele><time>2026-04-25T13:49:29.106Z</time></trkpt><trkpt lat="44.8374433" lon="7.956225"><ele>360.0</ele><time>2026-04-25T13:49:30.106Z</time></trkpt><trkpt lat="44.8373183" lon="7.9562283"><ele>360.5</ele><time>2026-04-25T13:49:31.106Z</time></trkpt><trkpt lat="44.8371917" lon="7.9562233"><ele>361.0</ele><time>2026-04-25T13:49:32.106Z</time></trkpt><trkpt lat="44.837055" lon="7.956225"><ele>361.5</ele><time>2026-04-25T13:49:33.106Z</time></trkpt><trkpt lat="44.8369233" lon="7.956225"><ele>362.0</ele><time>2026-04-25T13:49:34.106Z</time></trkpt><trkpt lat="44.8368033" lon="7.956225"><ele>361.8</ele><time>2026-04-25T13:49:35.106Z</time></trkpt><trkpt lat="44.8366933" lon="7.95619"><ele>361.6</ele><time>2026-04-25T13:49:36.106Z</time></trkpt><trkpt lat="44.8366083" lon="7.9560967"><ele>361.40000000000003</ele><time>2026-04-25T13:49:37.107Z</time></trkpt><trkpt lat="44.8365617" lon="7.9559683"><ele>361.20000000000005</ele><time>2026-04-25T13:49:38.106Z</time></trkpt><trkpt lat="44.8365433" lon="7.955805"><ele>361.0</ele><time>2026-04-25T13:49:39.106Z</time></trkpt><trkpt lat="44.8365583" lon="7.9556233"><ele>361.0</ele><time>2026-04-25T13:49:40.106Z</time></trkpt><trkpt lat="44.83658" lon="7.9554217"><ele>361.0</ele><time>2026-04-25T13:49:41.106Z</time></trkpt><trkpt lat="44.8366017" lon="7.9552133"><ele>361.0</ele><time>2026-04-25T13:49:42.106Z</time></trkpt><trkpt lat="44.836615" lon="7.955"><ele>361.0</ele><time>2026-04-25T13:49:43.106Z</time></trkpt><trkpt lat="44.836625" lon="7.9547883"><ele>361.3333333333333</ele><time>2026-04-25T13:49:44.106Z</time></trkpt><trkpt lat="44.8366433" lon="7.95458"><ele>361.6666666666667</ele><time>2026-04-25T13:49:45.106Z</time></trkpt><trkpt lat="44.8366567" lon="7.9543617"><ele>362.0</ele><time>2026-04-25T13:49:46.106Z</time></trkpt><trkpt lat="44.8366567" lon="7.954145"><ele>361.33333333333337</ele><time>2026-04-25T13:49:47.106Z</time></trkpt><trkpt lat="44.8366383" lon="7.95393"><ele>360.6666666666667</ele><time>2026-04-25T13:49:48.106Z</time></trkpt><trkpt lat="44.83659" lon="7.953715"><ele>360.0</ele><time>2026-04-25T13:49:49.106Z</time></trkpt><trkpt lat="44.8365267" lon="7.95352"><ele>359.0</ele><time>2026-04-25T13:49:50.106Z</time></trkpt><trkpt lat="44.8364533" lon="7.953335"><ele>358.0</ele><time>2026-04-25T13:49:51.106Z</time></trkpt><trkpt lat="44.8363817" lon="7.9531533"><ele>357.0</ele><time>2026-04-25T13:49:52.106Z</time></trkpt><trkpt lat="44.83631" lon="7.9529683"><ele>356.0</ele><time>2026-04-25T13:49:53.106Z</time></trkpt><trkpt lat="44.83624" lon="7.952785"><ele>356.0</ele><time>2026-04-25T13:49:54.106Z</time></trkpt><trkpt lat="44.836165" lon="7.9525817"><ele>356.0</ele><time>2026-04-25T13:49:55.106Z</time></trkpt><trkpt lat="44.8360867" lon="7.952385"><ele>356.0</ele><time>2026-04-25T13:49:56.106Z</time></trkpt><trkpt lat="44.8360083" lon="7.9521883"><ele>357.6666666666667</ele><time>2026-04-25T13:49:57.106Z</time></trkpt><trkpt lat="44.8359283" lon="7.9519917"><ele>359.3333333333333</ele><time>2026-04-25T13:49:58.106Z</time></trkpt><trkpt lat="44.8358383" lon="7.9517883"><ele>361.0</ele><time>2026-04-25T13:49:59.106Z</time></trkpt><trkpt lat="44.8357467" lon="7.9515817"><ele>361.66666666666663</ele><time>2026-04-25T13:50:00.106Z</time></trkpt><trkpt lat="44.835655" lon="7.951375"><ele>362.3333333333333</ele><time>2026-04-25T13:50:01.106Z</time></trkpt><trkpt lat="44.8355667" lon="7.9511683"><ele>363.0</ele><time>2026-04-25T13:50:02.106Z</time></trkpt><trkpt lat="44.835475" lon="7.9509483"><ele>361.0</ele><time>2026-04-25T13:50:03.106Z</time></trkpt><trkpt lat="44.8353883" lon="7.9507283"><ele>359.0</ele><time>2026-04-25T13:50:04.106Z</time></trkpt><trkpt lat="44.8352983" lon="7.950505"><ele>357.0</ele><time>2026-04-25T13:50:05.106Z</time></trkpt><trkpt lat="44.835205" lon="7.950285"><ele>357.3333333333333</ele><time>2026-04-25T13:50:06.106Z</time></trkpt><trkpt lat="44.8351117" lon="7.9500767"><ele>357.66666666666663</ele><time>2026-04-25T13:50:07.106Z</time></trkpt><trkpt lat="44.8350033" lon="7.949875"><ele>358.0</ele><time>2026-04-25T13:50:08.106Z</time></trkpt><trkpt lat="44.8348883" lon="7.9496717"><ele>358.66666666666663</ele><time>2026-04-25T13:50:09.106Z</time></trkpt><trkpt lat="44.8347617" lon="7.9494667"><ele>359.3333333333333</ele><time>2026-04-25T13:50:10.106Z</time></trkpt><trkpt lat="44.834635" lon="7.9492783"><ele>360.0</ele><time>2026-04-25T13:50:11.105Z</time></trkpt><trkpt lat="44.83451" lon="7.949085"><ele>359.0</ele><time>2026-04-25T13:50:12.105Z</time></trkpt><trkpt lat="44.8343917" lon="7.94889"><ele>358.0</ele><time>2026-04-25T13:50:13.105Z</time></trkpt><trkpt lat="44.8342717" lon="7.948695"><ele>357.0</ele><time>2026-04-25T13:50:14.105Z</time></trkpt><trkpt lat="44.8341517" lon="7.9484983"><ele>354.6666666666667</ele><time>2026-04-25T13:50:15.105Z</time></trkpt><trkpt lat="44.8340317" lon="7.9483117"><ele>352.33333333333337</ele><time>2026-04-25T13:50:16.105Z</time></trkpt><trkpt lat="44.8339183" lon="7.9481283"><ele>350.0</ele><time>2026-04-25T13:50:17.105Z</time></trkpt><trkpt lat="44.8338083" lon="7.947955"><ele>350.0</ele><time>2026-04-25T13:50:18.105Z</time></trkpt><trkpt lat="44.8337" lon="7.947795"><ele>350.0</ele><time>2026-04-25T13:50:19.105Z</time></trkpt><trkpt lat="44.833595" lon="7.9476317"><ele>350.0</ele><time>2026-04-25T13:50:20.105Z</time></trkpt><trkpt lat="44.833485" lon="7.947505"><ele>350.75</ele><time>2026-04-25T13:50:21.105Z</time></trkpt><trkpt lat="44.8333617" lon="7.947415"><ele>351.5</ele><time>2026-04-25T13:50:22.105Z</time></trkpt><trkpt lat="44.8332167" lon="7.9473667"><ele>352.25</ele><time>2026-04-25T13:50:23.105Z</time></trkpt><trkpt lat="44.833065" lon="7.9473467"><ele>353.0</ele><time>2026-04-25T13:50:24.105Z</time></trkpt><trkpt lat="44.8329083" lon="7.9473433"><ele>353.0</ele><time>2026-04-25T13:50:25.105Z</time></trkpt><trkpt lat="44.8327533" lon="7.947355"><ele>353.0</ele><time>2026-04-25T13:50:26.105Z</time></trkpt><trkpt lat="44.832595" lon="7.94738"><ele>353.0</ele><time>2026-04-25T13:50:27.105Z</time></trkpt><trkpt lat="44.8324433" lon="7.9473967"><ele>353.6666666666667</ele><time>2026-04-25T13:50:28.105Z</time></trkpt><trkpt lat="44.8322883" lon="7.9474"><ele>354.3333333333333</ele><time>2026-04-25T13:50:29.105Z</time></trkpt><trkpt lat="44.8321367" lon="7.9474033"><ele>355.0</ele><time>2026-04-25T13:50:30.105Z</time></trkpt><trkpt lat="44.8319833" lon="7.9474167"><ele>355.0</ele><time>2026-04-25T13:50:31.105Z</time></trkpt><trkpt lat="44.8318283" lon="7.9474383"><ele>355.0</ele><time>2026-04-25T13:50:32.106Z</time></trkpt><trkpt lat="44.83168" lon="7.9474683"><ele>355.0</ele><time>2026-04-25T13:50:33.105Z</time></trkpt><trkpt lat="44.83152" lon="7.9474983"><ele>354.0</ele><time>2026-04-25T13:50:34.105Z</time></trkpt><trkpt lat="44.8313617" lon="7.947525"><ele>353.0</ele><time>2026-04-25T13:50:35.105Z</time></trkpt><trkpt lat="44.8312033" lon="7.9475533"><ele>352.0</ele><time>2026-04-25T13:50:36.105Z</time></trkpt><trkpt lat="44.8310417" lon="7.947585"><ele>348.66666666666663</ele><time>2026-04-25T13:50:37.105Z</time></trkpt><trkpt lat="44.8308783" lon="7.94762"><ele>345.3333333333333</ele><time>2026-04-25T13:50:38.105Z</time></trkpt><trkpt lat="44.8307183" lon="7.9476417"><ele>342.0</ele><time>2026-04-25T13:50:39.105Z</time></trkpt><trkpt lat="44.830555" lon="7.9476433"><ele>342.0</ele><time>2026-04-25T13:50:40.105Z</time></trkpt><trkpt lat="44.8303917" lon="7.9476133"><ele>342.0</ele><time>2026-04-25T13:50:41.105Z</time></trkpt><trkpt lat="44.8302267" lon="7.9475633"><ele>342.0</ele><time>2026-04-25T13:50:42.105Z</time></trkpt><trkpt lat="44.83006" lon="7.94751"><ele>342.6666666666667</ele><time>2026-04-25T13:50:43.105Z</time></trkpt><trkpt lat="44.829885" lon="7.947455"><ele>343.33333333333337</ele><time>2026-04-25T13:50:44.105Z</time></trkpt><trkpt lat="44.829715" lon="7.9474"><ele>344.0</ele><time>2026-04-25T13:50:45.105Z</time></trkpt><trkpt lat="44.8295333" lon="7.9473517"><ele>344.0</ele><time>2026-04-25T13:50:46.105Z</time></trkpt><trkpt lat="44.8293417" lon="7.9473233"><ele>344.0</ele><time>2026-04-25T13:50:47.105Z</time></trkpt><trkpt lat="44.82915" lon="7.9473283"><ele>344.0</ele><time>2026-04-25T13:50:48.105Z</time></trkpt><trkpt lat="44.8289617" lon="7.9473417"><ele>341.33333333333337</ele><time>2026-04-25T13:50:49.105Z</time></trkpt><trkpt lat="44.8287733" lon="7.9473583"><ele>338.6666666666667</ele><time>2026-04-25T13:50:50.105Z</time></trkpt><trkpt lat="44.8285917" lon="7.9473783"><ele>336.0</ele><time>2026-04-25T13:50:51.105Z</time></trkpt><trkpt lat="44.8284083" lon="7.9474"><ele>333.3333333333333</ele><time>2026-04-25T13:50:52.105Z</time></trkpt><trkpt lat="44.82823" lon="7.947415"><ele>330.66666666666663</ele><time>2026-04-25T13:50:53.105Z</time></trkpt><trkpt lat="44.82807" lon="7.9474033"><ele>328.0</ele><time>2026-04-25T13:50:54.105Z</time></trkpt><trkpt lat="44.827915" lon="7.9473633"><ele>328.0</ele><time>2026-04-25T13:50:55.105Z</time></trkpt><trkpt lat="44.8277817" lon="7.9472717"><ele>328.0</ele><time>2026-04-25T13:50:56.105Z</time></trkpt><trkpt lat="44.8276817" lon="7.9471183"><ele>328.0</ele><time>2026-04-25T13:50:57.105Z</time></trkpt><trkpt lat="44.8276117" lon="7.9469283"><ele>328.0</ele><time>2026-04-25T13:50:58.105Z</time></trkpt><trkpt lat="44.8275667" lon="7.9467283"><ele>326.25</ele><time>2026-04-25T13:50:59.105Z</time></trkpt><trkpt lat="44.827525" lon="7.94652"><ele>324.5</ele><time>2026-04-25T13:51:00.105Z</time></trkpt><trkpt lat="44.8274733" lon="7.9463267"><ele>322.75</ele><time>2026-04-25T13:51:01.105Z</time></trkpt><trkpt lat="44.82741" lon="7.94615"><ele>321.0</ele><time>2026-04-25T13:51:02.105Z</time></trkpt><trkpt lat="44.8273267" lon="7.9459967"><ele>320.0</ele><time>2026-04-25T13:51:03.105Z</time></trkpt><trkpt lat="44.82724" lon="7.94587"><ele>319.0</ele><time>2026-04-25T13:51:04.105Z</time></trkpt><trkpt lat="44.8271417" lon="7.945775"><ele>318.0</ele><time>2026-04-25T13:51:05.105Z</time></trkpt><trkpt lat="44.827045" lon="7.9456883"><ele>317.0</ele><time>2026-04-25T13:51:06.105Z</time></trkpt><trkpt lat="44.8269583" lon="7.945605"><ele>317.0</ele><time>2026-04-25T13:51:07.105Z</time></trkpt><trkpt lat="44.82688" lon="7.94553"><ele>317.0</ele><time>2026-04-25T13:51:08.105Z</time></trkpt><trkpt lat="44.8268117" lon="7.9454717"><ele>317.0</ele><time>2026-04-25T13:51:09.105Z</time></trkpt><trkpt lat="44.82676" lon="7.945415"><ele>317.0</ele><time>2026-04-25T13:51:10.105Z</time></trkpt><trkpt lat="44.8266883" lon="7.9453183"><ele>317.0</ele><time>2026-04-25T13:51:12.105Z</time></trkpt><trkpt lat="44.82661" lon="7.9451917"><ele>315.4</ele><time>2026-04-25T13:51:14.105Z</time></trkpt><trkpt lat="44.8265633" lon="7.9451017"><ele>313.79999999999995</ele><time>2026-04-25T13:51:15.105Z</time></trkpt><trkpt lat="44.8265083" lon="7.9450033"><ele>312.2</ele><time>2026-04-25T13:51:16.105Z</time></trkpt><trkpt lat="44.8264433" lon="7.944885"><ele>310.59999999999997</ele><time>2026-04-25T13:51:17.105Z</time></trkpt><trkpt lat="44.82637" lon="7.9447667"><ele>309.0</ele><time>2026-04-25T13:51:18.105Z</time></trkpt><trkpt lat="44.8262817" lon="7.94463"><ele>308.0</ele><time>2026-04-25T13:51:19.105Z</time></trkpt><trkpt lat="44.8261817" lon="7.9444783"><ele>307.0</ele><time>2026-04-25T13:51:20.105Z</time></trkpt><trkpt lat="44.8260733" lon="7.944325"><ele>306.0</ele><time>2026-04-25T13:51:21.105Z</time></trkpt><trkpt lat="44.8259567" lon="7.9441783"><ele>304.0</ele><time>2026-04-25T13:51:22.105Z</time></trkpt><trkpt lat="44.82582" lon="7.9440483"><ele>302.0</ele><time>2026-04-25T13:51:23.105Z</time></trkpt><trkpt lat="44.8256717" lon="7.9439517"><ele>300.0</ele><time>2026-04-25T13:51:24.105Z</time></trkpt><trkpt lat="44.82551" lon="7.94389"><ele>300.0</ele><time>2026-04-25T13:51:25.105Z</time></trkpt><trkpt lat="44.82534" lon="7.9438517"><ele>300.0</ele><time>2026-04-25T13:51:26.105Z</time></trkpt><trkpt lat="44.8251717" lon="7.9438083"><ele>300.0</ele><time>2026-04-25T13:51:27.105Z</time></trkpt><trkpt lat="44.8250117" lon="7.9437783"><ele>299.5</ele><time>2026-04-25T13:51:28.105Z</time></trkpt><trkpt lat="44.8248617" lon="7.9437433"><ele>299.0</ele><time>2026-04-25T13:51:29.105Z</time></trkpt><trkpt lat="44.8247283" lon="7.9437033"><ele>298.5</ele><time>2026-04-25T13:51:30.105Z</time></trkpt><trkpt lat="44.8246033" lon="7.9436617"><ele>298.0</ele><time>2026-04-25T13:51:31.105Z</time></trkpt><trkpt lat="44.8244833" lon="7.943605"><ele>298.0</ele><time>2026-04-25T13:51:32.105Z</time></trkpt><trkpt lat="44.8243733" lon="7.9435317"><ele>298.0</ele><time>2026-04-25T13:51:33.105Z</time></trkpt><trkpt lat="44.8242733" lon="7.9434567"><ele>298.0</ele><time>2026-04-25T13:51:34.105Z</time></trkpt><trkpt lat="44.8241867" lon="7.9433783"><ele>298.0</ele><time>2026-04-25T13:51:35.105Z</time></trkpt><trkpt lat="44.82411" lon="7.9433017"><ele>298.0</ele><time>2026-04-25T13:51:36.105Z</time></trkpt><trkpt lat="44.8240383" lon="7.9432333"><ele>297.8333333333333</ele><time>2026-04-25T13:51:37.105Z</time></trkpt><trkpt lat="44.82397" lon="7.9431967"><ele>297.66666666666663</ele><time>2026-04-25T13:51:38.105Z</time></trkpt><trkpt lat="44.8239" lon="7.94321"><ele>297.5</ele><time>2026-04-25T13:51:39.105Z</time></trkpt><trkpt lat="44.8238433" lon="7.943265"><ele>297.3333333333333</ele><time>2026-04-25T13:51:40.105Z</time></trkpt><trkpt lat="44.8238017" lon="7.9433667"><ele>297.1666666666667</ele><time>2026-04-25T13:51:41.105Z</time></trkpt><trkpt lat="44.8237717" lon="7.9435133"><ele>297.0</ele><time>2026-04-25T13:51:42.105Z</time></trkpt><trkpt lat="44.82375" lon="7.9436767"><ele>297.0</ele><time>2026-04-25T13:51:43.105Z</time></trkpt><trkpt lat="44.8237083" lon="7.94383"><ele>297.0</ele><time>2026-04-25T13:51:44.105Z</time></trkpt><trkpt lat="44.823655" lon="7.9439783"><ele>297.0</ele><time>2026-04-25T13:51:45.105Z</time></trkpt><trkpt lat="44.8235883" lon="7.9441233"><ele>297.0</ele><time>2026-04-25T13:51:46.105Z</time></trkpt><trkpt lat="44.8235083" lon="7.9442783"><ele>296.5</ele><time>2026-04-25T13:51:47.105Z</time></trkpt><trkpt lat="44.8234217" lon="7.9444367"><ele>296.0</ele><time>2026-04-25T13:51:48.105Z</time></trkpt><trkpt lat="44.8233317" lon="7.944605"><ele>295.5</ele><time>2026-04-25T13:51:49.105Z</time></trkpt><trkpt lat="44.8232433" lon="7.944775"><ele>295.0</ele><time>2026-04-25T13:51:50.105Z</time></trkpt><trkpt lat="44.8231533" lon="7.9449417"><ele>295.66666666666663</ele><time>2026-04-25T13:51:51.105Z</time></trkpt><trkpt lat="44.82306" lon="7.9451167"><ele>296.3333333333333</ele><time>2026-04-25T13:51:52.105Z</time></trkpt><trkpt lat="44.8229733" lon="7.9452867"><ele>297.0</ele><time>2026-04-25T13:51:53.105Z</time></trkpt><trkpt lat="44.8228783" lon="7.9454733"><ele>297.0</ele><time>2026-04-25T13:51:54.105Z</time></trkpt><trkpt lat="44.82278" lon="7.9456583"><ele>297.0</ele><time>2026-04-25T13:51:55.105Z</time></trkpt><trkpt lat="44.8226783" lon="7.945845"><ele>297.0</ele><time>2026-04-25T13:51:56.105Z</time></trkpt><trkpt lat="44.8225767" lon="7.9460267"><ele>296.6666666666667</ele><time>2026-04-25T13:51:57.105Z</time></trkpt><trkpt lat="44.8224683" lon="7.9462167"><ele>296.33333333333337</ele><time>2026-04-25T13:51:58.105Z</time></trkpt><trkpt lat="44.8223567" lon="7.9463967"><ele>296.0</ele><time>2026-04-25T13:51:59.105Z</time></trkpt><trkpt lat="44.8222467" lon="7.9465433"><ele>296.0</ele><time>2026-04-25T13:52:00.105Z</time></trkpt><trkpt lat="44.8221317" lon="7.9466867"><ele>296.0</ele><time>2026-04-25T13:52:01.105Z</time></trkpt><trkpt lat="44.8220183" lon="7.9468233"><ele>296.0</ele><time>2026-04-25T13:52:02.105Z</time></trkpt><trkpt lat="44.8219083" lon="7.9469567"><ele>296.0</ele><time>2026-04-25T13:52:03.105Z</time></trkpt><trkpt lat="44.8218" lon="7.94708"><ele>295.8</ele><time>2026-04-25T13:52:04.105Z</time></trkpt><trkpt lat="44.821705" lon="7.9471983"><ele>295.6</ele><time>2026-04-25T13:52:05.105Z</time></trkpt><trkpt lat="44.8216167" lon="7.94729"><ele>295.4</ele><time>2026-04-25T13:52:06.105Z</time></trkpt><trkpt lat="44.82153" lon="7.9473667"><ele>295.2</ele><time>2026-04-25T13:52:07.105Z</time></trkpt><trkpt lat="44.821435" lon="7.947405"><ele>295.0</ele><time>2026-04-25T13:52:08.105Z</time></trkpt><trkpt lat="44.8213383" lon="7.9474283"><ele>295.0</ele><time>2026-04-25T13:52:09.105Z</time></trkpt><trkpt lat="44.8212533" lon="7.9474717"><ele>295.0</ele><time>2026-04-25T13:52:10.105Z</time></trkpt><trkpt lat="44.821175" lon="7.9475467"><ele>295.0</ele><time>2026-04-25T13:52:11.105Z</time></trkpt><trkpt lat="44.821095" lon="7.9476533"><ele>295.0</ele><time>2026-04-25T13:52:12.105Z</time></trkpt><trkpt lat="44.8210033" lon="7.94776"><ele>295.0</ele><time>2026-04-25T13:52:13.105Z</time></trkpt><trkpt lat="44.8208983" lon="7.9478483"><ele>296.0</ele><time>2026-04-25T13:52:14.105Z</time></trkpt><trkpt lat="44.8207733" lon="7.9479217"><ele>297.0</ele><time>2026-04-25T13:52:15.105Z</time></trkpt><trkpt lat="44.8206333" lon="7.9479833"><ele>298.0</ele><time>2026-04-25T13:52:16.105Z</time></trkpt><trkpt lat="44.8204883" lon="7.9480367"><ele>299.0</ele><time>2026-04-25T13:52:17.105Z</time></trkpt><trkpt lat="44.8203383" lon="7.9480917"><ele>299.0</ele><time>2026-04-25T13:52:18.105Z</time></trkpt><trkpt lat="44.8201867" lon="7.9481383"><ele>299.0</ele><time>2026-04-25T13:52:19.105Z</time></trkpt><trkpt lat="44.820035" lon="7.9481767"><ele>299.0</ele><time>2026-04-25T13:52:20.105Z</time></trkpt><trkpt lat="44.8198833" lon="7.948205"><ele>297.6666666666667</ele><time>2026-04-25T13:52:21.105Z</time></trkpt><trkpt lat="44.8197283" lon="7.948225"><ele>296.3333333333333</ele><time>2026-04-25T13:52:22.105Z</time></trkpt><trkpt lat="44.81957" lon="7.9482333"><ele>295.0</ele><time>2026-04-25T13:52:23.105Z</time></trkpt><trkpt lat="44.819405" lon="7.9482333"><ele>295.66666666666663</ele><time>2026-04-25T13:52:24.105Z</time></trkpt><trkpt lat="44.8192333" lon="7.948235"><ele>296.3333333333333</ele><time>2026-04-25T13:52:25.105Z</time></trkpt><trkpt lat="44.8190633" lon="7.948215"><ele>297.0</ele><time>2026-04-25T13:52:26.105Z</time></trkpt><trkpt lat="44.8189" lon="7.9481717"><ele>297.0</ele><time>2026-04-25T13:52:27.105Z</time></trkpt><trkpt lat="44.81874" lon="7.948135"><ele>297.0</ele><time>2026-04-25T13:52:28.105Z</time></trkpt><trkpt lat="44.81858" lon="7.9480883"><ele>297.0</ele><time>2026-04-25T13:52:29.105Z</time></trkpt><trkpt lat="44.8184217" lon="7.9480317"><ele>297.0</ele><time>2026-04-25T13:52:30.105Z</time></trkpt><trkpt lat="44.81826" lon="7.9479783"><ele>297.0</ele><time>2026-04-25T13:52:31.105Z</time></trkpt><trkpt lat="44.8181033" lon="7.947915"><ele>297.0</ele><time>2026-04-25T13:52:32.105Z</time></trkpt><trkpt lat="44.8179583" lon="7.9478433"><ele>297.0</ele><time>2026-04-25T13:52:33.105Z</time></trkpt><trkpt lat="44.8178267" lon="7.94777"><ele>297.0</ele><time>2026-04-25T13:52:34.105Z</time></trkpt><trkpt lat="44.8176933" lon="7.9476833"><ele>297.0</ele><time>2026-04-25T13:52:35.105Z</time></trkpt><trkpt lat="44.8175633" lon="7.947615"><ele>297.0</ele><time>2026-04-25T13:52:36.105Z</time></trkpt><trkpt lat="44.81744" lon="7.947545"><ele>297.5</ele><time>2026-04-25T13:52:37.105Z</time></trkpt><trkpt lat="44.8173233" lon="7.9474783"><ele>298.0</ele><time>2026-04-25T13:52:38.105Z</time></trkpt><trkpt lat="44.8171967" lon="7.947395"><ele>298.5</ele><time>2026-04-25T13:52:39.105Z</time></trkpt><trkpt lat="44.8170933" lon="7.947285"><ele>299.0</ele><time>2026-04-25T13:52:40.105Z</time></trkpt><trkpt lat="44.8169967" lon="7.94716"><ele>299.0</ele><time>2026-04-25T13:52:41.105Z</time></trkpt><trkpt lat="44.8169217" lon="7.9470233"><ele>299.0</ele><time>2026-04-25T13:52:42.105Z</time></trkpt><trkpt lat="44.816875" lon="7.9468383"><ele>299.0</ele><time>2026-04-25T13:52:43.105Z</time></trkpt><trkpt lat="44.8168433" lon="7.9466417"><ele>299.0</ele><time>2026-04-25T13:52:44.105Z</time></trkpt><trkpt lat="44.8168167" lon="7.946455"><ele>299.0</ele><time>2026-04-25T13:52:45.105Z</time></trkpt><trkpt lat="44.8167717" lon="7.9462917"><ele>299.0</ele><time>2026-04-25T13:52:46.105Z</time></trkpt><trkpt lat="44.8167067" lon="7.9461683"><ele>299.0</ele><time>2026-04-25T13:52:47.105Z</time></trkpt><trkpt lat="44.8165983" lon="7.9460783"><ele>299.0</ele><time>2026-04-25T13:52:48.105Z</time></trkpt><trkpt lat="44.81647" lon="7.9460483"><ele>299.0</ele><time>2026-04-25T13:52:49.105Z</time></trkpt><trkpt lat="44.8163333" lon="7.946075"><ele>299.0</ele><time>2026-04-25T13:52:50.105Z</time></trkpt><trkpt lat="44.8161967" lon="7.9461183"><ele>299.0</ele><time>2026-04-25T13:52:51.105Z</time></trkpt><trkpt lat="44.81605" lon="7.9461617"><ele>299.0</ele><time>2026-04-25T13:52:52.105Z</time></trkpt><trkpt lat="44.8158967" lon="7.946185"><ele>299.0</ele><time>2026-04-25T13:52:53.105Z</time></trkpt><trkpt lat="44.8157417" lon="7.9462017"><ele>299.0</ele><time>2026-04-25T13:52:54.105Z</time></trkpt><trkpt lat="44.81559" lon="7.9462033"><ele>299.0</ele><time>2026-04-25T13:52:55.105Z</time></trkpt><trkpt lat="44.815435" lon="7.94619"><ele>299.0</ele><time>2026-04-25T13:52:56.105Z</time></trkpt><trkpt lat="44.8152717" lon="7.94617"><ele>299.0</ele><time>2026-04-25T13:52:57.105Z</time></trkpt><trkpt lat="44.81512" lon="7.9461417"><ele>299.0</ele><time>2026-04-25T13:52:58.105Z</time></trkpt><trkpt lat="44.8149867" lon="7.9461233"><ele>300.0</ele><time>2026-04-25T13:52:59.105Z</time></trkpt><trkpt lat="44.814855" lon="7.9461117"><ele>301.0</ele><time>2026-04-25T13:53:00.105Z</time></trkpt><trkpt lat="44.81473" lon="7.946105"><ele>302.0</ele><time>2026-04-25T13:53:01.105Z</time></trkpt><trkpt lat="44.8146233" lon="7.94614"><ele>303.0</ele><time>2026-04-25T13:53:02.105Z</time></trkpt><trkpt lat="44.81453" lon="7.9462067"><ele>303.0</ele><time>2026-04-25T13:53:03.105Z</time></trkpt><trkpt lat="44.8144433" lon="7.9463133"><ele>303.0</ele><time>2026-04-25T13:53:04.105Z</time></trkpt><trkpt lat="44.8143733" lon="7.9464433"><ele>303.0</ele><time>2026-04-25T13:53:05.105Z</time></trkpt><trkpt lat="44.8143283" lon="7.9466117"><ele>303.0</ele><time>2026-04-25T13:53:06.105Z</time></trkpt><trkpt lat="44.8143167" lon="7.9467967"><ele>302.5</ele><time>2026-04-25T13:53:07.105Z</time></trkpt><trkpt lat="44.8143467" lon="7.94697"><ele>302.0</ele><time>2026-04-25T13:53:08.105Z</time></trkpt><trkpt lat="44.8144017" lon="7.94715"><ele>301.5</ele><time>2026-04-25T13:53:09.105Z</time></trkpt><trkpt lat="44.814485" lon="7.9473267"><ele>301.0</ele><time>2026-04-25T13:53:10.105Z</time></trkpt><trkpt lat="44.8145717" lon="7.9475017"><ele>301.0</ele><time>2026-04-25T13:53:11.105Z</time></trkpt><trkpt lat="44.81465" lon="7.947665"><ele>301.0</ele><time>2026-04-25T13:53:12.105Z</time></trkpt><trkpt lat="44.8147083" lon="7.947825"><ele>301.0</ele><time>2026-04-25T13:53:13.105Z</time></trkpt><trkpt lat="44.814745" lon="7.9479817"><ele>301.0</ele><time>2026-04-25T13:53:14.105Z</time></trkpt><trkpt lat="44.8147583" lon="7.9481383"><ele>301.0</ele><time>2026-04-25T13:53:15.105Z</time></trkpt><trkpt lat="44.81474" lon="7.9482783"><ele>301.0</ele><time>2026-04-25T13:53:16.105Z</time></trkpt><trkpt lat="44.8146983" lon="7.94841"><ele>301.0</ele><time>2026-04-25T13:53:17.105Z</time></trkpt><trkpt lat="44.81462" lon="7.9485233"><ele>301.0</ele><time>2026-04-25T13:53:18.105Z</time></trkpt><trkpt lat="44.8145217" lon="7.9486083"><ele>301.0</ele><time>2026-04-25T13:53:19.105Z</time></trkpt><trkpt lat="44.81441" lon="7.9486933"><ele>301.25</ele><time>2026-04-25T13:53:20.105Z</time></trkpt><trkpt lat="44.81429" lon="7.9487767"><ele>301.5</ele><time>2026-04-25T13:53:21.105Z</time></trkpt><trkpt lat="44.8141733" lon="7.948875"><ele>301.75</ele><time>2026-04-25T13:53:22.105Z</time></trkpt><trkpt lat="44.8140517" lon="7.948975"><ele>302.0</ele><time>2026-04-25T13:53:23.105Z</time></trkpt><trkpt lat="44.8139283" lon="7.94908"><ele>302.0</ele><time>2026-04-25T13:53:24.105Z</time></trkpt><trkpt lat="44.8138033" lon="7.9491967"><ele>302.0</ele><time>2026-04-25T13:53:25.105Z</time></trkpt><trkpt lat="44.813675" lon="7.9492967"><ele>302.0</ele><time>2026-04-25T13:53:26.105Z</time></trkpt><trkpt lat="44.8135417" lon="7.949395"><ele>302.0</ele><time>2026-04-25T13:53:27.105Z</time></trkpt><trkpt lat="44.813415" lon="7.949495"><ele>303.0</ele><time>2026-04-25T13:53:28.105Z</time></trkpt><trkpt lat="44.81329" lon="7.9495917"><ele>304.0</ele><time>2026-04-25T13:53:29.105Z</time></trkpt><trkpt lat="44.813175" lon="7.9496933"><ele>305.0</ele><time>2026-04-25T13:53:30.105Z</time></trkpt><trkpt lat="44.8130617" lon="7.9497917"><ele>306.0</ele><time>2026-04-25T13:53:31.105Z</time></trkpt><trkpt lat="44.8129467" lon="7.9498917"><ele>306.0</ele><time>2026-04-25T13:53:32.105Z</time></trkpt><trkpt lat="44.8128367" lon="7.9499867"><ele>306.0</ele><time>2026-04-25T13:53:33.105Z</time></trkpt><trkpt lat="44.8127383" lon="7.9500783"><ele>306.0</ele><time>2026-04-25T13:53:34.105Z</time></trkpt><trkpt lat="44.8126467" lon="7.95017"><ele>306.0</ele><time>2026-04-25T13:53:35.105Z</time></trkpt><trkpt lat="44.8125533" lon="7.9502383"><ele>306.1666666666667</ele><time>2026-04-25T13:53:36.105Z</time></trkpt><trkpt lat="44.8124667" lon="7.9502683"><ele>306.3333333333333</ele><time>2026-04-25T13:53:37.105Z</time></trkpt><trkpt lat="44.8123833" lon="7.95026"><ele>306.5</ele><time>2026-04-25T13:53:38.105Z</time></trkpt><trkpt lat="44.812305" lon="7.9502217"><ele>306.66666666666663</ele><time>2026-04-25T13:53:39.105Z</time></trkpt><trkpt lat="44.8122283" lon="7.9501667"><ele>306.8333333333333</ele><time>2026-04-25T13:53:40.105Z</time></trkpt><trkpt lat="44.8121683" lon="7.9500833"><ele>307.0</ele><time>2026-04-25T13:53:41.105Z</time></trkpt><trkpt lat="44.8121117" lon="7.94997"><ele>307.0</ele><time>2026-04-25T13:53:42.105Z</time></trkpt><trkpt lat="44.8120517" lon="7.94983"><ele>307.0</ele><time>2026-04-25T13:53:43.105Z</time></trkpt><trkpt lat="44.8119917" lon="7.9496717"><ele>307.0</ele><time>2026-04-25T13:53:44.105Z</time></trkpt><trkpt lat="44.8119283" lon="7.9495133"><ele>307.0</ele><time>2026-04-25T13:53:45.105Z</time></trkpt><trkpt lat="44.811865" lon="7.9493483"><ele>308.25</ele><time>2026-04-25T13:53:46.105Z</time></trkpt><trkpt lat="44.8118" lon="7.94919"><ele>309.5</ele><time>2026-04-25T13:53:47.105Z</time></trkpt><trkpt lat="44.8117333" lon="7.9490233"><ele>310.75</ele><time>2026-04-25T13:53:48.105Z</time></trkpt><trkpt lat="44.81167" lon="7.9488517"><ele>312.0</ele><time>2026-04-25T13:53:49.105Z</time></trkpt><trkpt lat="44.8116" lon="7.9486883"><ele>312.0</ele><time>2026-04-25T13:53:50.105Z</time></trkpt><trkpt lat="44.8115317" lon="7.9485217"><ele>312.0</ele><time>2026-04-25T13:53:51.105Z</time></trkpt><trkpt lat="44.811455" lon="7.948365"><ele>312.0</ele><time>2026-04-25T13:53:52.105Z</time></trkpt><trkpt lat="44.81137" lon="7.9482167"><ele>312.0</ele><time>2026-04-25T13:53:53.105Z</time></trkpt><trkpt lat="44.811255" lon="7.94809"><ele>311.3333333333333</ele><time>2026-04-25T13:53:54.105Z</time></trkpt><trkpt lat="44.8111217" lon="7.9479667"><ele>310.66666666666663</ele><time>2026-04-25T13:53:55.105Z</time></trkpt><trkpt lat="44.8109817" lon="7.9478483"><ele>310.0</ele><time>2026-04-25T13:53:56.105Z</time></trkpt><trkpt lat="44.8108483" lon="7.9477217"><ele>309.66666666666663</ele><time>2026-04-25T13:53:57.105Z</time></trkpt><trkpt lat="44.8107083" lon="7.9476"><ele>309.3333333333333</ele><time>2026-04-25T13:53:58.105Z</time></trkpt><trkpt lat="44.8105517" lon="7.947485"><ele>309.0</ele><time>2026-04-25T13:53:59.105Z</time></trkpt><trkpt lat="44.8103983" lon="7.9473633"><ele>309.0</ele><time>2026-04-25T13:54:00.105Z</time></trkpt><trkpt lat="44.8102517" lon="7.94723"><ele>309.0</ele><time>2026-04-25T13:54:01.105Z</time></trkpt><trkpt lat="44.810105" lon="7.947095"><ele>309.0</ele><time>2026-04-25T13:54:02.105Z</time></trkpt><trkpt lat="44.809965" lon="7.9469417"><ele>309.3333333333333</ele><time>2026-04-25T13:54:03.105Z</time></trkpt><trkpt lat="44.8098167" lon="7.9467817"><ele>309.66666666666663</ele><time>2026-04-25T13:54:04.105Z</time></trkpt><trkpt lat="44.8096583" lon="7.946615"><ele>310.0</ele><time>2026-04-25T13:54:05.105Z</time></trkpt><trkpt lat="44.8095117" lon="7.94643"><ele>310.0</ele><time>2026-04-25T13:54:06.105Z</time></trkpt><trkpt lat="44.8093717" lon="7.946235"><ele>310.0</ele><time>2026-04-25T13:54:07.105Z</time></trkpt><trkpt lat="44.8092283" lon="7.9460317"><ele>310.0</ele><time>2026-04-25T13:54:08.105Z</time></trkpt><trkpt lat="44.8090767" lon="7.9458333"><ele>310.0</ele><time>2026-04-25T13:54:09.105Z</time></trkpt><trkpt lat="44.8089283" lon="7.9456317"><ele>310.0</ele><time>2026-04-25T13:54:10.105Z</time></trkpt><trkpt lat="44.8087733" lon="7.9454167"><ele>310.0</ele><time>2026-04-25T13:54:11.105Z</time></trkpt><trkpt lat="44.80862" lon="7.9452067"><ele>311.3333333333333</ele><time>2026-04-25T13:54:12.105Z</time></trkpt><trkpt lat="44.8084717" lon="7.9449883"><ele>312.6666666666667</ele><time>2026-04-25T13:54:13.105Z</time></trkpt><trkpt lat="44.8083417" lon="7.9447583"><ele>314.0</ele><time>2026-04-25T13:54:14.105Z</time></trkpt><trkpt lat="44.8082117" lon="7.9445267"><ele>314.0</ele><time>2026-04-25T13:54:15.105Z</time></trkpt><trkpt lat="44.8080867" lon="7.944275"><ele>314.0</ele><time>2026-04-25T13:54:16.105Z</time></trkpt><trkpt lat="44.8079633" lon="7.9440267"><ele>314.0</ele><time>2026-04-25T13:54:17.105Z</time></trkpt><trkpt lat="44.807845" lon="7.9437833"><ele>313.33333333333337</ele><time>2026-04-25T13:54:18.105Z</time></trkpt><trkpt lat="44.8077083" lon="7.9435483"><ele>312.6666666666667</ele><time>2026-04-25T13:54:19.105Z</time></trkpt><trkpt lat="44.8075683" lon="7.9433267"><ele>312.0</ele><time>2026-04-25T13:54:20.105Z</time></trkpt><trkpt lat="44.8074133" lon="7.9431083"><ele>312.6666666666667</ele><time>2026-04-25T13:54:21.104Z</time></trkpt><trkpt lat="44.8072567" lon="7.9429033"><ele>313.33333333333337</ele><time>2026-04-25T13:54:22.105Z</time></trkpt><trkpt lat="44.8070983" lon="7.9426917"><ele>314.0</ele><time>2026-04-25T13:54:23.105Z</time></trkpt><trkpt lat="44.8069433" lon="7.9424783"><ele>315.6666666666667</ele><time>2026-04-25T13:54:24.105Z</time></trkpt><trkpt lat="44.8067883" lon="7.9422667"><ele>317.3333333333333</ele><time>2026-04-25T13:54:25.105Z</time></trkpt><trkpt lat="44.806635" lon="7.9420583"><ele>319.0</ele><time>2026-04-25T13:54:26.105Z</time></trkpt><trkpt lat="44.80648" lon="7.9418517"><ele>317.66666666666663</ele><time>2026-04-25T13:54:27.105Z</time></trkpt><trkpt lat="44.806315" lon="7.94165"><ele>316.3333333333333</ele><time>2026-04-25T13:54:28.105Z</time></trkpt><trkpt lat="44.806175" lon="7.941435"><ele>315.0</ele><time>2026-04-25T13:54:29.105Z</time></trkpt><trkpt lat="44.8060617" lon="7.9412017"><ele>315.3333333333333</ele><time>2026-04-25T13:54:30.105Z</time></trkpt><trkpt lat="44.8059767" lon="7.94094"><ele>315.66666666666663</ele><time>2026-04-25T13:54:31.105Z</time></trkpt><trkpt lat="44.80591" lon="7.9406633"><ele>316.0</ele><time>2026-04-25T13:54:32.105Z</time></trkpt><trkpt lat="44.8058667" lon="7.9403767"><ele>316.0</ele><time>2026-04-25T13:54:33.105Z</time></trkpt><trkpt lat="44.8058583" lon="7.9400883"><ele>316.0</ele><time>2026-04-25T13:54:34.105Z</time></trkpt><trkpt lat="44.805885" lon="7.9398"><ele>316.0</ele><time>2026-04-25T13:54:35.105Z</time></trkpt><trkpt lat="44.8059417" lon="7.939505"><ele>316.3333333333333</ele><time>2026-04-25T13:54:36.105Z</time></trkpt><trkpt lat="44.806" lon="7.939215"><ele>316.6666666666667</ele><time>2026-04-25T13:54:37.105Z</time></trkpt><trkpt lat="44.8060583" lon="7.9389283"><ele>317.0</ele><time>2026-04-25T13:54:38.105Z</time></trkpt><trkpt lat="44.806115" lon="7.9386367"><ele>317.6666666666667</ele><time>2026-04-25T13:54:39.105Z</time></trkpt><trkpt lat="44.80617" lon="7.9383417"><ele>318.3333333333333</ele><time>2026-04-25T13:54:40.105Z</time></trkpt><trkpt lat="44.8062267" lon="7.9380517"><ele>319.0</ele><time>2026-04-25T13:54:41.105Z</time></trkpt><trkpt lat="44.8062767" lon="7.9377583"><ele>320.66666666666663</ele><time>2026-04-25T13:54:42.105Z</time></trkpt><trkpt lat="44.8063333" lon="7.9374733"><ele>322.3333333333333</ele><time>2026-04-25T13:54:43.105Z</time></trkpt><trkpt lat="44.8063783" lon="7.9371983"><ele>324.0</ele><time>2026-04-25T13:54:44.105Z</time></trkpt><trkpt lat="44.8064217" lon="7.9369217"><ele>325.6666666666667</ele><time>2026-04-25T13:54:45.105Z</time></trkpt><trkpt lat="44.806465" lon="7.9366733"><ele>327.33333333333337</ele><time>2026-04-25T13:54:46.105Z</time></trkpt><trkpt lat="44.8065083" lon="7.9364383"><ele>329.0</ele><time>2026-04-25T13:54:47.105Z</time></trkpt><trkpt lat="44.8065783" lon="7.9362333"><ele>329.0</ele><time>2026-04-25T13:54:48.105Z</time></trkpt><trkpt lat="44.8066617" lon="7.93605"><ele>329.0</ele><time>2026-04-25T13:54:49.105Z</time></trkpt><trkpt lat="44.80674" lon="7.9358867"><ele>329.0</ele><time>2026-04-25T13:54:50.105Z</time></trkpt><trkpt lat="44.8067883" lon="7.93572"><ele>329.0</ele><time>2026-04-25T13:54:51.105Z</time></trkpt><trkpt lat="44.8067917" lon="7.93555"><ele>329.0</ele><time>2026-04-25T13:54:52.105Z</time></trkpt><trkpt lat="44.8067617" lon="7.9353733"><ele>329.0</ele><time>2026-04-25T13:54:53.105Z</time></trkpt><trkpt lat="44.8067067" lon="7.9351967"><ele>329.0</ele><time>2026-04-25T13:54:54.105Z</time></trkpt><trkpt lat="44.8066433" lon="7.935015"><ele>329.0</ele><time>2026-04-25T13:54:55.105Z</time></trkpt><trkpt lat="44.8065767" lon="7.9348433"><ele>330.33333333333337</ele><time>2026-04-25T13:54:56.105Z</time></trkpt><trkpt lat="44.8064917" lon="7.934675"><ele>331.6666666666667</ele><time>2026-04-25T13:54:57.105Z</time></trkpt><trkpt lat="44.8063933" lon="7.9345117"><ele>333.0</ele><time>2026-04-25T13:54:58.105Z</time></trkpt><trkpt lat="44.806275" lon="7.9343583"><ele>334.0</ele><time>2026-04-25T13:54:59.105Z</time></trkpt><trkpt lat="44.8061467" lon="7.9341983"><ele>335.0</ele><time>2026-04-25T13:55:00.105Z</time></trkpt><trkpt lat="44.80603" lon="7.93404"><ele>336.0</ele><time>2026-04-25T13:55:01.105Z</time></trkpt><trkpt lat="44.805945" lon="7.93386"><ele>339.6666666666667</ele><time>2026-04-25T13:55:02.105Z</time></trkpt><trkpt lat="44.8059" lon="7.933655"><ele>343.33333333333337</ele><time>2026-04-25T13:55:03.105Z</time></trkpt><trkpt lat="44.8058717" lon="7.93343"><ele>347.0</ele><time>2026-04-25T13:55:04.105Z</time></trkpt><trkpt lat="44.8058683" lon="7.9331967"><ele>347.0</ele><time>2026-04-25T13:55:05.105Z</time></trkpt><trkpt lat="44.805905" lon="7.932965"><ele>347.0</ele><time>2026-04-25T13:55:06.105Z</time></trkpt><trkpt lat="44.8059567" lon="7.9327483"><ele>347.0</ele><time>2026-04-25T13:55:07.105Z</time></trkpt><trkpt lat="44.8060433" lon="7.932565"><ele>346.0</ele><time>2026-04-25T13:55:08.105Z</time></trkpt><trkpt lat="44.8061433" lon="7.9323917"><ele>345.0</ele><time>2026-04-25T13:55:09.106Z</time></trkpt><trkpt lat="44.80622" lon="7.9322167"><ele>344.0</ele><time>2026-04-25T13:55:10.105Z</time></trkpt><trkpt lat="44.8062633" lon="7.9320517"><ele>343.0</ele><time>2026-04-25T13:55:11.105Z</time></trkpt><trkpt lat="44.80625" lon="7.9319233"><ele>343.0</ele><time>2026-04-25T13:55:12.105Z</time></trkpt><trkpt lat="44.8062067" lon="7.9318033"><ele>343.0</ele><time>2026-04-25T13:55:13.105Z</time></trkpt><trkpt lat="44.80612" lon="7.9317033"><ele>343.0</ele><time>2026-04-25T13:55:14.105Z</time></trkpt><trkpt lat="44.8060017" lon="7.9316517"><ele>343.0</ele><time>2026-04-25T13:55:15.105Z</time></trkpt><trkpt lat="44.8058617" lon="7.9316333"><ele>345.5</ele><time>2026-04-25T13:55:16.105Z</time></trkpt><trkpt lat="44.805725" lon="7.931625"><ele>348.0</ele><time>2026-04-25T13:55:17.105Z</time></trkpt><trkpt lat="44.8056" lon="7.9316233"><ele>350.5</ele><time>2026-04-25T13:55:18.105Z</time></trkpt><trkpt lat="44.8054767" lon="7.931615"><ele>353.0</ele><time>2026-04-25T13:55:19.105Z</time></trkpt><trkpt lat="44.8053567" lon="7.93158"><ele>353.0</ele><time>2026-04-25T13:55:20.105Z</time></trkpt><trkpt lat="44.8052483" lon="7.9315117"><ele>353.0</ele><time>2026-04-25T13:55:21.105Z</time></trkpt><trkpt lat="44.80514" lon="7.9314167"><ele>353.0</ele><time>2026-04-25T13:55:22.105Z</time></trkpt><trkpt lat="44.8050467" lon="7.9312967"><ele>353.0</ele><time>2026-04-25T13:55:23.105Z</time></trkpt><trkpt lat="44.8049683" lon="7.9311533"><ele>353.25</ele><time>2026-04-25T13:55:24.105Z</time></trkpt><trkpt lat="44.8049017" lon="7.9309867"><ele>353.5</ele><time>2026-04-25T13:55:25.105Z</time></trkpt><trkpt lat="44.8048467" lon="7.9308017"><ele>353.75</ele><time>2026-04-25T13:55:26.105Z</time></trkpt><trkpt lat="44.8047967" lon="7.9306117"><ele>354.0</ele><time>2026-04-25T13:55:27.105Z</time></trkpt><trkpt lat="44.8047467" lon="7.9304233"><ele>353.5</ele><time>2026-04-25T13:55:28.105Z</time></trkpt><trkpt lat="44.8046833" lon="7.930245"><ele>353.0</ele><time>2026-04-25T13:55:29.105Z</time></trkpt><trkpt lat="44.80461" lon="7.9300617"><ele>352.5</ele><time>2026-04-25T13:55:30.105Z</time></trkpt><trkpt lat="44.8045383" lon="7.929865"><ele>352.0</ele><time>2026-04-25T13:55:31.105Z</time></trkpt><trkpt lat="44.8044733" lon="7.9296817"><ele>352.0</ele><time>2026-04-25T13:55:32.105Z</time></trkpt><trkpt lat="44.8044" lon="7.9294967"><ele>352.0</ele><time>2026-04-25T13:55:33.105Z</time></trkpt><trkpt lat="44.8043383" lon="7.929305"><ele>352.0</ele><time>2026-04-25T13:55:34.105Z</time></trkpt><trkpt lat="44.80428" lon="7.929115"><ele>352.0</ele><time>2026-04-25T13:55:35.105Z</time></trkpt><trkpt lat="44.804225" lon="7.928925"><ele>354.5</ele><time>2026-04-25T13:55:36.105Z</time></trkpt><trkpt lat="44.8041783" lon="7.9287467"><ele>357.0</ele><time>2026-04-25T13:55:37.105Z</time></trkpt><trkpt lat="44.8041317" lon="7.9285683"><ele>359.5</ele><time>2026-04-25T13:55:38.105Z</time></trkpt><trkpt lat="44.8040867" lon="7.9283967"><ele>362.0</ele><time>2026-04-25T13:55:39.105Z</time></trkpt><trkpt lat="44.80404" lon="7.928215"><ele>363.25</ele><time>2026-04-25T13:55:40.105Z</time></trkpt><trkpt lat="44.80399" lon="7.92804"><ele>364.5</ele><time>2026-04-25T13:55:41.105Z</time></trkpt><trkpt lat="44.8039383" lon="7.9278567"><ele>365.75</ele><time>2026-04-25T13:55:42.105Z</time></trkpt><trkpt lat="44.8038917" lon="7.927675"><ele>367.0</ele><time>2026-04-25T13:55:43.105Z</time></trkpt><trkpt lat="44.8038433" lon="7.9275033"><ele>369.0</ele><time>2026-04-25T13:55:44.105Z</time></trkpt><trkpt lat="44.8037967" lon="7.9273417"><ele>371.0</ele><time>2026-04-25T13:55:45.105Z</time></trkpt><trkpt lat="44.8037633" lon="7.9271767"><ele>373.0</ele><time>2026-04-25T13:55:46.105Z</time></trkpt><trkpt lat="44.8036867" lon="7.9270617"><ele>375.0</ele><time>2026-04-25T13:55:47.105Z</time></trkpt><trkpt lat="44.80359" lon="7.9269817"><ele>375.75</ele><time>2026-04-25T13:55:48.105Z</time></trkpt><trkpt lat="44.803465" lon="7.926925"><ele>376.5</ele><time>2026-04-25T13:55:49.105Z</time></trkpt><trkpt lat="44.8033267" lon="7.9269"><ele>377.25</ele><time>2026-04-25T13:55:50.105Z</time></trkpt><trkpt lat="44.8031867" lon="7.9268717"><ele>378.0</ele><time>2026-04-25T13:55:51.105Z</time></trkpt><trkpt lat="44.8030367" lon="7.9268383"><ele>378.0</ele><time>2026-04-25T13:55:52.105Z</time></trkpt><trkpt lat="44.80289" lon="7.926795"><ele>378.0</ele><time>2026-04-25T13:55:53.105Z</time></trkpt><trkpt lat="44.80275" lon="7.9267367"><ele>378.0</ele><time>2026-04-25T13:55:54.105Z</time></trkpt><trkpt lat="44.8026" lon="7.9266833"><ele>379.25</ele><time>2026-04-25T13:55:55.105Z</time></trkpt><trkpt lat="44.8024617" lon="7.9266083"><ele>380.5</ele><time>2026-04-25T13:55:56.105Z</time></trkpt><trkpt lat="44.8023217" lon="7.9265333"><ele>381.75</ele><time>2026-04-25T13:55:57.105Z</time></trkpt><trkpt lat="44.80218" lon="7.926475"><ele>383.0</ele><time>2026-04-25T13:55:58.105Z</time></trkpt><trkpt lat="44.80204" lon="7.9264433"><ele>383.0</ele><time>2026-04-25T13:55:59.105Z</time></trkpt><trkpt lat="44.8018967" lon="7.9264217"><ele>383.0</ele><time>2026-04-25T13:56:00.105Z</time></trkpt><trkpt lat="44.8017617" lon="7.9264017"><ele>383.0</ele><time>2026-04-25T13:56:01.105Z</time></trkpt><trkpt lat="44.8016267" lon="7.926405"><ele>383.0</ele><time>2026-04-25T13:56:02.105Z</time></trkpt><trkpt lat="44.8014867" lon="7.9263933"><ele>383.5</ele><time>2026-04-25T13:56:03.105Z</time></trkpt><trkpt lat="44.80136" lon="7.9263817"><ele>384.0</ele><time>2026-04-25T13:56:04.105Z</time></trkpt><trkpt lat="44.8012383" lon="7.9263483"><ele>384.5</ele><time>2026-04-25T13:56:05.105Z</time></trkpt><trkpt lat="44.8011217" lon="7.9263017"><ele>385.0</ele><time>2026-04-25T13:56:06.105Z</time></trkpt><trkpt lat="44.8010133" lon="7.9262083"><ele>385.25</ele><time>2026-04-25T13:56:07.105Z</time></trkpt><trkpt lat="44.8009167" lon="7.9261083"><ele>385.5</ele><time>2026-04-25T13:56:08.105Z</time></trkpt><trkpt lat="44.8008067" lon="7.9260233"><ele>385.75</ele><time>2026-04-25T13:56:09.105Z</time></trkpt><trkpt lat="44.8007033" lon="7.925965"><ele>386.0</ele><time>2026-04-25T13:56:10.105Z</time></trkpt><trkpt lat="44.800605" lon="7.9259367"><ele>386.0</ele><time>2026-04-25T13:56:11.105Z</time></trkpt><trkpt lat="44.8005033" lon="7.925955"><ele>386.0</ele><time>2026-04-25T13:56:12.105Z</time></trkpt><trkpt lat="44.80041" lon="7.926005"><ele>386.0</ele><time>2026-04-25T13:56:13.105Z</time></trkpt><trkpt lat="44.8003267" lon="7.9260983"><ele>386.0</ele><time>2026-04-25T13:56:14.105Z</time></trkpt><trkpt lat="44.8002433" lon="7.9262267"><ele>386.0</ele><time>2026-04-25T13:56:15.105Z</time></trkpt><trkpt lat="44.8001567" lon="7.92638"><ele>386.0</ele><time>2026-04-25T13:56:16.105Z</time></trkpt><trkpt lat="44.8000717" lon="7.9265467"><ele>386.0</ele><time>2026-04-25T13:56:17.105Z</time></trkpt><trkpt lat="44.7999883" lon="7.9267233"><ele>386.0</ele><time>2026-04-25T13:56:18.105Z</time></trkpt><trkpt lat="44.7999033" lon="7.9268933"><ele>386.0</ele><time>2026-04-25T13:56:19.105Z</time></trkpt><trkpt lat="44.799815" lon="7.9270767"><ele>386.0</ele><time>2026-04-25T13:56:20.105Z</time></trkpt><trkpt lat="44.799715" lon="7.9272583"><ele>386.0</ele><time>2026-04-25T13:56:21.105Z</time></trkpt><trkpt lat="44.7996083" lon="7.927445"><ele>386.0</ele><time>2026-04-25T13:56:22.105Z</time></trkpt><trkpt lat="44.7994933" lon="7.9276133"><ele>386.3333333333333</ele><time>2026-04-25T13:56:23.105Z</time></trkpt><trkpt lat="44.7993767" lon="7.927775"><ele>386.66666666666663</ele><time>2026-04-25T13:56:24.105Z</time></trkpt><trkpt lat="44.7992567" lon="7.9279317"><ele>387.0</ele><time>2026-04-25T13:56:25.105Z</time></trkpt><trkpt lat="44.7991317" lon="7.9281033"><ele>387.0</ele><time>2026-04-25T13:56:26.105Z</time></trkpt><trkpt lat="44.7990233" lon="7.9282767"><ele>387.0</ele><time>2026-04-25T13:56:27.105Z</time></trkpt><trkpt lat="44.798895" lon="7.9284017"><ele>387.0</ele><time>2026-04-25T13:56:28.105Z</time></trkpt><trkpt lat="44.798765" lon="7.9285067"><ele>385.3333333333333</ele><time>2026-04-25T13:56:29.105Z</time></trkpt><trkpt lat="44.79863" lon="7.9286183"><ele>383.66666666666663</ele><time>2026-04-25T13:56:30.105Z</time></trkpt><trkpt lat="44.7984883" lon="7.9287417"><ele>382.0</ele><time>2026-04-25T13:56:31.105Z</time></trkpt><trkpt lat="44.7983517" lon="7.9288767"><ele>382.0</ele><time>2026-04-25T13:56:32.105Z</time></trkpt><trkpt lat="44.7982217" lon="7.9289967"><ele>382.0</ele><time>2026-04-25T13:56:33.105Z</time></trkpt><trkpt lat="44.7980717" lon="7.9290967"><ele>382.0</ele><time>2026-04-25T13:56:34.105Z</time></trkpt><trkpt lat="44.79793" lon="7.92918"><ele>380.75</ele><time>2026-04-25T13:56:35.105Z</time></trkpt><trkpt lat="44.7977817" lon="7.929245"><ele>379.5</ele><time>2026-04-25T13:56:36.105Z</time></trkpt><trkpt lat="44.7976533" lon="7.929315"><ele>378.25</ele><time>2026-04-25T13:56:37.105Z</time></trkpt><trkpt lat="44.7975517" lon="7.9294033"><ele>377.0</ele><time>2026-04-25T13:56:38.105Z</time></trkpt><trkpt lat="44.79747" lon="7.9295367"><ele>377.0</ele><time>2026-04-25T13:56:39.105Z</time></trkpt><trkpt lat="44.7974017" lon="7.92969"><ele>377.0</ele><time>2026-04-25T13:56:40.105Z</time></trkpt><trkpt lat="44.7973267" lon="7.9298433"><ele>377.0</ele><time>2026-04-25T13:56:41.105Z</time></trkpt><trkpt lat="44.7972483" lon="7.929985"><ele>377.0</ele><time>2026-04-25T13:56:42.105Z</time></trkpt><trkpt lat="44.7971567" lon="7.9301"><ele>376.5</ele><time>2026-04-25T13:56:43.105Z</time></trkpt><trkpt lat="44.7970583" lon="7.9301833"><ele>376.0</ele><time>2026-04-25T13:56:44.105Z</time></trkpt><trkpt lat="44.7969533" lon="7.9302467"><ele>375.5</ele><time>2026-04-25T13:56:45.105Z</time></trkpt><trkpt lat="44.79684" lon="7.9302933"><ele>375.0</ele><time>2026-04-25T13:56:46.105Z</time></trkpt><trkpt lat="44.7967217" lon="7.9303517"><ele>378.25</ele><time>2026-04-25T13:56:47.105Z</time></trkpt><trkpt lat="44.7966033" lon="7.9303983"><ele>381.5</ele><time>2026-04-25T13:56:48.105Z</time></trkpt><trkpt lat="44.7964783" lon="7.930425"><ele>384.75</ele><time>2026-04-25T13:56:49.105Z</time></trkpt><trkpt lat="44.796345" lon="7.9304467"><ele>388.0</ele><time>2026-04-25T13:56:50.105Z</time></trkpt><trkpt lat="44.79621" lon="7.9304433"><ele>388.0</ele><time>2026-04-25T13:56:51.105Z</time></trkpt><trkpt lat="44.7960633" lon="7.9304117"><ele>388.0</ele><time>2026-04-25T13:56:52.105Z</time></trkpt><trkpt lat="44.7959117" lon="7.9303517"><ele>388.0</ele><time>2026-04-25T13:56:53.106Z</time></trkpt><trkpt lat="44.79576" lon="7.9302817"><ele>388.25</ele><time>2026-04-25T13:56:54.105Z</time></trkpt><trkpt lat="44.7956183" lon="7.9302117"><ele>388.5</ele><time>2026-04-25T13:56:55.105Z</time></trkpt><trkpt lat="44.7954817" lon="7.9301483"><ele>388.75</ele><time>2026-04-25T13:56:56.105Z</time></trkpt><trkpt lat="44.7953433" lon="7.9300767"><ele>389.0</ele><time>2026-04-25T13:56:57.105Z</time></trkpt><trkpt lat="44.7952133" lon="7.9300083"><ele>385.5</ele><time>2026-04-25T13:56:58.105Z</time></trkpt><trkpt lat="44.795085" lon="7.9299567"><ele>382.0</ele><time>2026-04-25T13:56:59.105Z</time></trkpt><trkpt lat="44.7949717" lon="7.9299383"><ele>378.5</ele><time>2026-04-25T13:57:00.105Z</time></trkpt><trkpt lat="44.7948567" lon="7.9299667"><ele>375.0</ele><time>2026-04-25T13:57:01.105Z</time></trkpt><trkpt lat="44.794755" lon="7.93004"><ele>376.25</ele><time>2026-04-25T13:57:02.105Z</time></trkpt><trkpt lat="44.79468" lon="7.930165"><ele>377.5</ele><time>2026-04-25T13:57:03.105Z</time></trkpt><trkpt lat="44.794615" lon="7.9303383"><ele>378.75</ele><time>2026-04-25T13:57:04.105Z</time></trkpt><trkpt lat="44.79458" lon="7.9305117"><ele>380.0</ele><time>2026-04-25T13:57:05.105Z</time></trkpt><trkpt lat="44.7945483" lon="7.930685"><ele>380.0</ele><time>2026-04-25T13:57:06.105Z</time></trkpt><trkpt lat="44.794535" lon="7.9308533"><ele>380.0</ele><time>2026-04-25T13:57:07.105Z</time></trkpt><trkpt lat="44.7945583" lon="7.9310133"><ele>380.0</ele><time>2026-04-25T13:57:08.105Z</time></trkpt><trkpt lat="44.7946067" lon="7.9311533"><ele>380.0</ele><time>2026-04-25T13:57:09.105Z</time></trkpt><trkpt lat="44.7946567" lon="7.93129"><ele>379.4</ele><time>2026-04-25T13:57:10.105Z</time></trkpt><trkpt lat="44.7946867" lon="7.9314267"><ele>378.8</ele><time>2026-04-25T13:57:11.105Z</time></trkpt><trkpt lat="44.7946683" lon="7.931575"><ele>378.20000000000005</ele><time>2026-04-25T13:57:12.105Z</time></trkpt><trkpt lat="44.7946117" lon="7.931715"><ele>377.6</ele><time>2026-04-25T13:57:13.105Z</time></trkpt><trkpt lat="44.7945317" lon="7.931835"><ele>377.0</ele><time>2026-04-25T13:57:14.105Z</time></trkpt><trkpt lat="44.7944367" lon="7.93194"><ele>377.0</ele><time>2026-04-25T13:57:15.105Z</time></trkpt><trkpt lat="44.79435" lon="7.9320283"><ele>377.0</ele><time>2026-04-25T13:57:16.105Z</time></trkpt><trkpt lat="44.794245" lon="7.93206"><ele>377.0</ele><time>2026-04-25T13:57:17.105Z</time></trkpt><trkpt lat="44.794125" lon="7.93204"><ele>377.0</ele><time>2026-04-25T13:57:18.105Z</time></trkpt><trkpt lat="44.7940183" lon="7.9319583"><ele>374.0</ele><time>2026-04-25T13:57:19.105Z</time></trkpt><trkpt lat="44.7939167" lon="7.93185"><ele>371.0</ele><time>2026-04-25T13:57:20.105Z</time></trkpt><trkpt lat="44.7938283" lon="7.931705"><ele>368.0</ele><time>2026-04-25T13:57:21.105Z</time></trkpt><trkpt lat="44.7937367" lon="7.9315567"><ele>365.0</ele><time>2026-04-25T13:57:22.105Z</time></trkpt><trkpt lat="44.7936483" lon="7.9314383"><ele>363.6</ele><time>2026-04-25T13:57:23.105Z</time></trkpt><trkpt lat="44.7935683" lon="7.9313167"><ele>362.2</ele><time>2026-04-25T13:57:24.105Z</time></trkpt><trkpt lat="44.7934883" lon="7.9311983"><ele>360.79999999999995</ele><time>2026-04-25T13:57:25.105Z</time></trkpt><trkpt lat="44.7934167" lon="7.93108"><ele>359.4</ele><time>2026-04-25T13:57:26.105Z</time></trkpt><trkpt lat="44.7933533" lon="7.9309767"><ele>358.0</ele><time>2026-04-25T13:57:27.105Z</time></trkpt><trkpt lat="44.7933017" lon="7.9308983"><ele>357.0</ele><time>2026-04-25T13:57:28.105Z</time></trkpt><trkpt lat="44.79326" lon="7.9308317"><ele>356.0</ele><time>2026-04-25T13:57:29.105Z</time></trkpt><trkpt lat="44.7932083" lon="7.93074"><ele>355.0</ele><time>2026-04-25T13:57:31.105Z</time></trkpt><trkpt lat="44.7931383" lon="7.9307017"><ele>354.0</ele><time>2026-04-25T13:57:34.105Z</time></trkpt><trkpt lat="44.79307" lon="7.93078"><ele>353.0</ele><time>2026-04-25T13:57:36.105Z</time></trkpt><trkpt lat="44.7930017" lon="7.930955"><ele>353.0</ele><time>2026-04-25T13:57:38.105Z</time></trkpt><trkpt lat="44.79297" lon="7.9310683"><ele>353.0</ele><time>2026-04-25T13:57:39.105Z</time></trkpt><trkpt lat="44.792925" lon="7.9311867"><ele>353.0</ele><time>2026-04-25T13:57:40.105Z</time></trkpt><trkpt lat="44.7928733" lon="7.9313083"><ele>353.0</ele><time>2026-04-25T13:57:41.105Z</time></trkpt><trkpt lat="44.7928167" lon="7.9314317"><ele>353.0</ele><time>2026-04-25T13:57:42.105Z</time></trkpt><trkpt lat="44.7927617" lon="7.9315633"><ele>353.0</ele><time>2026-04-25T13:57:43.105Z</time></trkpt><trkpt lat="44.7927117" lon="7.9317067"><ele>353.0</ele><time>2026-04-25T13:57:44.105Z</time></trkpt><trkpt lat="44.7926483" lon="7.9318617"><ele>353.0</ele><time>2026-04-25T13:57:45.105Z</time></trkpt><trkpt lat="44.7925767" lon="7.9320333"><ele>353.0</ele><time>2026-04-25T13:57:46.105Z</time></trkpt><trkpt lat="44.79251" lon="7.9322117"><ele>353.0</ele><time>2026-04-25T13:57:47.105Z</time></trkpt><trkpt lat="44.792445" lon="7.93238"><ele>353.0</ele><time>2026-04-25T13:57:48.105Z</time></trkpt><trkpt lat="44.7923767" lon="7.9325533"><ele>353.0</ele><time>2026-04-25T13:57:49.105Z</time></trkpt><trkpt lat="44.7922933" lon="7.9327483"><ele>353.0</ele><time>2026-04-25T13:57:50.105Z</time></trkpt><trkpt lat="44.7922183" lon="7.9329483"><ele>355.0</ele><time>2026-04-25T13:57:51.105Z</time></trkpt><trkpt lat="44.792135" lon="7.9331583"><ele>357.0</ele><time>2026-04-25T13:57:52.105Z</time></trkpt><trkpt lat="44.7920567" lon="7.9333633"><ele>359.0</ele><time>2026-04-25T13:57:53.105Z</time></trkpt><trkpt lat="44.7919867" lon="7.9335833"><ele>359.33333333333337</ele><time>2026-04-25T13:57:54.104Z</time></trkpt><trkpt lat="44.791915" lon="7.9338133"><ele>359.6666666666667</ele><time>2026-04-25T13:57:55.104Z</time></trkpt><trkpt lat="44.79184" lon="7.9340383"><ele>360.0</ele><time>2026-04-25T13:57:56.104Z</time></trkpt><trkpt lat="44.791765" lon="7.9342717"><ele>360.0</ele><time>2026-04-25T13:57:57.104Z</time></trkpt><trkpt lat="44.79169" lon="7.934505"><ele>360.0</ele><time>2026-04-25T13:57:58.104Z</time></trkpt><trkpt lat="44.7916167" lon="7.9347333"><ele>360.0</ele><time>2026-04-25T13:57:59.104Z</time></trkpt><trkpt lat="44.7915483" lon="7.9349733"><ele>362.0</ele><time>2026-04-25T13:58:00.104Z</time></trkpt><trkpt lat="44.7914833" lon="7.9352183"><ele>364.0</ele><time>2026-04-25T13:58:01.104Z</time></trkpt><trkpt lat="44.7914183" lon="7.9354467"><ele>366.0</ele><time>2026-04-25T13:58:02.104Z</time></trkpt><trkpt lat="44.7913517" lon="7.9356667"><ele>366.0</ele><time>2026-04-25T13:58:03.104Z</time></trkpt><trkpt lat="44.7912833" lon="7.935875"><ele>366.0</ele><time>2026-04-25T13:58:04.104Z</time></trkpt><trkpt lat="44.7912183" lon="7.9360833"><ele>366.0</ele><time>2026-04-25T13:58:05.104Z</time></trkpt><trkpt lat="44.7911583" lon="7.936285"><ele>368.5</ele><time>2026-04-25T13:58:06.104Z</time></trkpt><trkpt lat="44.7911033" lon="7.93648"><ele>371.0</ele><time>2026-04-25T13:58:07.104Z</time></trkpt><trkpt lat="44.7910483" lon="7.9366733"><ele>373.5</ele><time>2026-04-25T13:58:08.104Z</time></trkpt><trkpt lat="44.7910017" lon="7.9368633"><ele>376.0</ele><time>2026-04-25T13:58:09.104Z</time></trkpt><trkpt lat="44.790955" lon="7.9370433"><ele>370.75</ele><time>2026-04-25T13:58:10.104Z</time></trkpt><trkpt lat="44.79089" lon="7.937215"><ele>365.5</ele><time>2026-04-25T13:58:11.104Z</time></trkpt><trkpt lat="44.790805" lon="7.9373733"><ele>360.25</ele><time>2026-04-25T13:58:12.104Z</time></trkpt><trkpt lat="44.7907017" lon="7.9375033"><ele>355.0</ele><time>2026-04-25T13:58:13.104Z</time></trkpt><trkpt lat="44.790595" lon="7.9376283"><ele>352.25</ele><time>2026-04-25T13:58:14.104Z</time></trkpt><trkpt lat="44.790495" lon="7.9377533"><ele>349.5</ele><time>2026-04-25T13:58:15.104Z</time></trkpt><trkpt lat="44.7904017" lon="7.9378767"><ele>346.75</ele><time>2026-04-25T13:58:16.104Z</time></trkpt><trkpt lat="44.790325" lon="7.937995"><ele>344.0</ele><time>2026-04-25T13:58:17.104Z</time></trkpt><trkpt lat="44.79026" lon="7.9381267"><ele>344.0</ele><time>2026-04-25T13:58:18.104Z</time></trkpt><trkpt lat="44.790205" lon="7.938275"><ele>344.0</ele><time>2026-04-25T13:58:19.104Z</time></trkpt><trkpt lat="44.7901633" lon="7.9384383"><ele>344.0</ele><time>2026-04-25T13:58:20.104Z</time></trkpt><trkpt lat="44.79012" lon="7.9385967"><ele>344.0</ele><time>2026-04-25T13:58:21.104Z</time></trkpt><trkpt lat="44.7900517" lon="7.9387417"><ele>343.0</ele><time>2026-04-25T13:58:22.104Z</time></trkpt><trkpt lat="44.7899583" lon="7.9388583"><ele>342.0</ele><time>2026-04-25T13:58:23.104Z</time></trkpt><trkpt lat="44.789865" lon="7.9389567"><ele>341.0</ele><time>2026-04-25T13:58:24.104Z</time></trkpt><trkpt lat="44.7897733" lon="7.939065"><ele>340.0</ele><time>2026-04-25T13:58:25.104Z</time></trkpt><trkpt lat="44.7896817" lon="7.9391683"><ele>339.8</ele><time>2026-04-25T13:58:26.104Z</time></trkpt><trkpt lat="44.789595" lon="7.9392683"><ele>339.6</ele><time>2026-04-25T13:58:27.104Z</time></trkpt><trkpt lat="44.7895" lon="7.9393517"><ele>339.4</ele><time>2026-04-25T13:58:28.104Z</time></trkpt><trkpt lat="44.7893967" lon="7.9394083"><ele>339.2</ele><time>2026-04-25T13:58:29.104Z</time></trkpt><trkpt lat="44.7892967" lon="7.9394483"><ele>339.0</ele><time>2026-04-25T13:58:30.104Z</time></trkpt><trkpt lat="44.7892133" lon="7.9394817"><ele>340.79999999999995</ele><time>2026-04-25T13:58:31.104Z</time></trkpt><trkpt lat="44.789145" lon="7.9395083"><ele>342.59999999999997</ele><time>2026-04-25T13:58:32.104Z</time></trkpt><trkpt lat="44.789085" lon="7.9395433"><ele>344.4</ele><time>2026-04-25T13:58:33.104Z</time></trkpt><trkpt lat="44.789" lon="7.9396333"><ele>346.2</ele><time>2026-04-25T13:58:35.104Z</time></trkpt><trkpt lat="44.7889183" lon="7.9397767"><ele>348.0</ele><time>2026-04-25T13:58:37.104Z</time></trkpt><trkpt lat="44.78888" lon="7.939875"><ele>348.0</ele><time>2026-04-25T13:58:38.104Z</time></trkpt><trkpt lat="44.78884" lon="7.9399883"><ele>348.0</ele><time>2026-04-25T13:58:39.104Z</time></trkpt><trkpt lat="44.7888033" lon="7.94011"><ele>348.0</ele><time>2026-04-25T13:58:40.104Z</time></trkpt><trkpt lat="44.7887817" lon="7.94024"><ele>348.0</ele><time>2026-04-25T13:58:41.104Z</time></trkpt><trkpt lat="44.7887567" lon="7.9403767"><ele>348.0</ele><time>2026-04-25T13:58:42.104Z</time></trkpt><trkpt lat="44.7887267" lon="7.9405233"><ele>349.4</ele><time>2026-04-25T13:58:43.104Z</time></trkpt><trkpt lat="44.7886933" lon="7.9406717"><ele>350.79999999999995</ele><time>2026-04-25T13:58:44.104Z</time></trkpt><trkpt lat="44.7886617" lon="7.940815"><ele>352.2</ele><time>2026-04-25T13:58:45.104Z</time></trkpt><trkpt lat="44.7886267" lon="7.94096"><ele>353.6</ele><time>2026-04-25T13:58:46.104Z</time></trkpt><trkpt lat="44.7886033" lon="7.9411083"><ele>355.0</ele><time>2026-04-25T13:58:47.104Z</time></trkpt><trkpt lat="44.7885783" lon="7.94125"><ele>352.0</ele><time>2026-04-25T13:58:48.104Z</time></trkpt><trkpt lat="44.7885483" lon="7.94139"><ele>349.0</ele><time>2026-04-25T13:58:49.104Z</time></trkpt><trkpt lat="44.7885083" lon="7.9415267"><ele>346.0</ele><time>2026-04-25T13:58:50.104Z</time></trkpt><trkpt lat="44.7884617" lon="7.9416583"><ele>343.0</ele><time>2026-04-25T13:58:51.104Z</time></trkpt><trkpt lat="44.7883983" lon="7.9417683"><ele>340.0</ele><time>2026-04-25T13:58:52.104Z</time></trkpt><trkpt lat="44.78833" lon="7.9418767"><ele>334.6</ele><time>2026-04-25T13:58:53.104Z</time></trkpt><trkpt lat="44.7882567" lon="7.94198"><ele>329.2</ele><time>2026-04-25T13:58:54.104Z</time></trkpt><trkpt lat="44.788175" lon="7.94205"><ele>323.8</ele><time>2026-04-25T13:58:55.104Z</time></trkpt><trkpt lat="44.78811" lon="7.942085"><ele>318.4</ele><time>2026-04-25T13:58:56.104Z</time></trkpt><trkpt lat="44.7880083" lon="7.9421367"><ele>313.0</ele><time>2026-04-25T13:58:57.104Z</time></trkpt><trkpt lat="44.7879083" lon="7.9422033"><ele>313.0</ele><time>2026-04-25T13:58:58.104Z</time></trkpt><trkpt lat="44.787815" lon="7.9422717"><ele>313.0</ele><time>2026-04-25T13:58:59.104Z</time></trkpt><trkpt lat="44.7877283" lon="7.94232"><ele>313.0</ele><time>2026-04-25T13:59:00.104Z</time></trkpt><trkpt lat="44.7876317" lon="7.9423983"><ele>313.0</ele><time>2026-04-25T13:59:01.104Z</time></trkpt><trkpt lat="44.7875283" lon="7.9424633"><ele>313.0</ele><time>2026-04-25T13:59:02.104Z</time></trkpt><trkpt lat="44.7874383" lon="7.9425267"><ele>310.2</ele><time>2026-04-25T13:59:03.104Z</time></trkpt><trkpt lat="44.7873433" lon="7.9425683"><ele>307.4</ele><time>2026-04-25T13:59:04.104Z</time></trkpt><trkpt lat="44.7872567" lon="7.9426133"><ele>304.59999999999997</ele><time>2026-04-25T13:59:05.104Z</time></trkpt><trkpt lat="44.78717" lon="7.9426767"><ele>301.8</ele><time>2026-04-25T13:59:06.104Z</time></trkpt><trkpt lat="44.7870833" lon="7.9427383"><ele>299.0</ele><time>2026-04-25T13:59:07.104Z</time></trkpt><trkpt lat="44.78699" lon="7.9428333"><ele>299.0</ele><time>2026-04-25T13:59:08.104Z</time></trkpt><trkpt lat="44.7869033" lon="7.9429333"><ele>299.0</ele><time>2026-04-25T13:59:09.104Z</time></trkpt><trkpt lat="44.7868067" lon="7.9430333"><ele>299.0</ele><time>2026-04-25T13:59:10.104Z</time></trkpt><trkpt lat="44.7867067" lon="7.943125"><ele>299.0</ele><time>2026-04-25T13:59:11.104Z</time></trkpt><trkpt lat="44.7866183" lon="7.9432333"><ele>297.75</ele><time>2026-04-25T13:59:12.104Z</time></trkpt><trkpt lat="44.786525" lon="7.9433317"><ele>296.5</ele><time>2026-04-25T13:59:13.104Z</time></trkpt><trkpt lat="44.7864217" lon="7.94344"><ele>295.25</ele><time>2026-04-25T13:59:14.104Z</time></trkpt><trkpt lat="44.7863083" lon="7.943545"><ele>294.0</ele><time>2026-04-25T13:59:15.104Z</time></trkpt><trkpt lat="44.786195" lon="7.9436517"><ele>294.0</ele><time>2026-04-25T13:59:16.104Z</time></trkpt><trkpt lat="44.7860783" lon="7.9437617"><ele>294.0</ele><time>2026-04-25T13:59:17.104Z</time></trkpt><trkpt lat="44.7859717" lon="7.9438917"><ele>294.0</ele><time>2026-04-25T13:59:18.104Z</time></trkpt><trkpt lat="44.7858717" lon="7.9440233"><ele>294.0</ele><time>2026-04-25T13:59:19.104Z</time></trkpt><trkpt lat="44.785765" lon="7.9441617"><ele>297.75</ele><time>2026-04-25T13:59:20.104Z</time></trkpt><trkpt lat="44.78566" lon="7.9442917"><ele>301.5</ele><time>2026-04-25T13:59:21.104Z</time></trkpt><trkpt lat="44.785555" lon="7.94442"><ele>305.25</ele><time>2026-04-25T13:59:22.104Z</time></trkpt><trkpt lat="44.7854517" lon="7.9445433"><ele>309.0</ele><time>2026-04-25T13:59:23.104Z</time></trkpt><trkpt lat="44.7853583" lon="7.9446617"><ele>309.0</ele><time>2026-04-25T13:59:24.104Z</time></trkpt><trkpt lat="44.7852633" lon="7.9447783"><ele>309.0</ele><time>2026-04-25T13:59:25.104Z</time></trkpt><trkpt lat="44.785165" lon="7.9448967"><ele>309.0</ele><time>2026-04-25T13:59:26.104Z</time></trkpt><trkpt lat="44.7850633" lon="7.9450217"><ele>309.0</ele><time>2026-04-25T13:59:27.104Z</time></trkpt><trkpt lat="44.7849583" lon="7.9451483"><ele>311.5</ele><time>2026-04-25T13:59:28.104Z</time></trkpt><trkpt lat="44.7848617" lon="7.945265"><ele>314.0</ele><time>2026-04-25T13:59:29.104Z</time></trkpt><trkpt lat="44.7847483" lon="7.94534"><ele>316.5</ele><time>2026-04-25T13:59:30.104Z</time></trkpt><trkpt lat="44.784605" lon="7.94542"><ele>319.0</ele><time>2026-04-25T13:59:31.104Z</time></trkpt><trkpt lat="44.7844483" lon="7.9454867"><ele>316.0</ele><time>2026-04-25T13:59:32.104Z</time></trkpt><trkpt lat="44.78429" lon="7.945565"><ele>313.0</ele><time>2026-04-25T13:59:33.104Z</time></trkpt><trkpt lat="44.7841367" lon="7.9456433"><ele>310.0</ele><time>2026-04-25T13:59:34.104Z</time></trkpt><trkpt lat="44.783975" lon="7.9457217"><ele>310.0</ele><time>2026-04-25T13:59:35.104Z</time></trkpt><trkpt lat="44.78382" lon="7.9458017"><ele>310.0</ele><time>2026-04-25T13:59:36.104Z</time></trkpt><trkpt lat="44.783665" lon="7.9458883"><ele>310.0</ele><time>2026-04-25T13:59:37.104Z</time></trkpt><trkpt lat="44.7835167" lon="7.9459717"><ele>309.0</ele><time>2026-04-25T13:59:38.104Z</time></trkpt><trkpt lat="44.7833767" lon="7.94604"><ele>308.0</ele><time>2026-04-25T13:59:39.105Z</time></trkpt><trkpt lat="44.7832583" lon="7.9461117"><ele>307.0</ele><time>2026-04-25T13:59:40.104Z</time></trkpt><trkpt lat="44.783155" lon="7.94619"><ele>306.0</ele><time>2026-04-25T13:59:41.104Z</time></trkpt><trkpt lat="44.78307" lon="7.9462817"><ele>306.0</ele><time>2026-04-25T13:59:42.104Z</time></trkpt><trkpt lat="44.7829983" lon="7.946365"><ele>306.0</ele><time>2026-04-25T13:59:43.104Z</time></trkpt><trkpt lat="44.7829367" lon="7.9464417"><ele>306.0</ele><time>2026-04-25T13:59:44.104Z</time></trkpt><trkpt lat="44.7828717" lon="7.9465017"><ele>306.0</ele><time>2026-04-25T13:59:45.104Z</time></trkpt><trkpt lat="44.7828083" lon="7.9465233"><ele>306.0</ele><time>2026-04-25T13:59:46.104Z</time></trkpt><trkpt lat="44.78272" lon="7.9464417"><ele>306.0</ele><time>2026-04-25T13:59:48.104Z</time></trkpt><trkpt lat="44.78271" lon="7.9463367"><ele>306.0</ele><time>2026-04-25T13:59:49.104Z</time></trkpt><trkpt lat="44.7827367" lon="7.9462"><ele>306.0</ele><time>2026-04-25T13:59:50.104Z</time></trkpt><trkpt lat="44.7827683" lon="7.9460417"><ele>306.0</ele><time>2026-04-25T13:59:51.104Z</time></trkpt><trkpt lat="44.7827833" lon="7.9458883"><ele>306.0</ele><time>2026-04-25T13:59:52.104Z</time></trkpt><trkpt lat="44.7827533" lon="7.945745"><ele>306.0</ele><time>2026-04-25T13:59:53.104Z</time></trkpt><trkpt lat="44.7826983" lon="7.9456083"><ele>301.0</ele><time>2026-04-25T13:59:54.104Z</time></trkpt><trkpt lat="44.782625" lon="7.9454817"><ele>296.0</ele><time>2026-04-25T13:59:55.104Z</time></trkpt><trkpt lat="44.78255" lon="7.94536"><ele>291.0</ele><time>2026-04-25T13:59:56.104Z</time></trkpt><trkpt lat="44.7824833" lon="7.9452517"><ele>286.0</ele><time>2026-04-25T13:59:57.104Z</time></trkpt><trkpt lat="44.7824317" lon="7.9451683"><ele>281.0</ele><time>2026-04-25T13:59:58.104Z</time></trkpt><trkpt lat="44.782385" lon="7.9450983"><ele>281.0</ele><time>2026-04-25T13:59:59.104Z</time></trkpt><trkpt lat="44.7823183" lon="7.945065"><ele>281.0</ele><time>2026-04-25T14:00:00.104Z</time></trkpt><trkpt lat="44.7822283" lon="7.9451467"><ele>281.0</ele><time>2026-04-25T14:00:02.104Z</time></trkpt><trkpt lat="44.7822217" lon="7.9452483"><ele>281.0</ele><time>2026-04-25T14:00:03.104Z</time></trkpt><trkpt lat="44.7822567" lon="7.9453617"><ele>281.0</ele><time>2026-04-25T14:00:04.104Z</time></trkpt><trkpt lat="44.7823233" lon="7.94548"><ele>281.0</ele><time>2026-04-25T14:00:05.104Z</time></trkpt><trkpt lat="44.7824017" lon="7.9456083"><ele>281.0</ele><time>2026-04-25T14:00:06.104Z</time></trkpt><trkpt lat="44.7824533" lon="7.945755"><ele>281.0</ele><time>2026-04-25T14:00:07.104Z</time></trkpt><trkpt lat="44.7824717" lon="7.9459183"><ele>281.0</ele><time>2026-04-25T14:00:08.104Z</time></trkpt><trkpt lat="44.7824517" lon="7.9461033"><ele>281.0</ele><time>2026-04-25T14:00:09.104Z</time></trkpt><trkpt lat="44.7824183" lon="7.946285"><ele>281.5</ele><time>2026-04-25T14:00:10.104Z</time></trkpt><trkpt lat="44.7823733" lon="7.9464733"><ele>282.0</ele><time>2026-04-25T14:00:11.104Z</time></trkpt><trkpt lat="44.78233" lon="7.9466567"><ele>282.5</ele><time>2026-04-25T14:00:12.104Z</time></trkpt><trkpt lat="44.7822583" lon="7.9468367"><ele>283.0</ele><time>2026-04-25T14:00:13.104Z</time></trkpt><trkpt lat="44.7821767" lon="7.9469833"><ele>283.5</ele><time>2026-04-25T14:00:14.104Z</time></trkpt><trkpt lat="44.7820867" lon="7.9471267"><ele>284.0</ele><time>2026-04-25T14:00:15.104Z</time></trkpt><trkpt lat="44.7819933" lon="7.9472583"><ele>284.5</ele><time>2026-04-25T14:00:16.104Z</time></trkpt><trkpt lat="44.7819083" lon="7.9474117"><ele>285.0</ele><time>2026-04-25T14:00:17.104Z</time></trkpt><trkpt lat="44.7818283" lon="7.947545"><ele>280.8333333333333</ele><time>2026-04-25T14:00:18.104Z</time></trkpt><trkpt lat="44.7817617" lon="7.947665"><ele>276.6666666666667</ele><time>2026-04-25T14:00:19.104Z</time></trkpt><trkpt lat="44.781695" lon="7.94777"><ele>272.5</ele><time>2026-04-25T14:00:20.104Z</time></trkpt><trkpt lat="44.7816267" lon="7.947825"><ele>268.33333333333337</ele><time>2026-04-25T14:00:21.104Z</time></trkpt><trkpt lat="44.7815483" lon="7.9478417"><ele>264.1666666666667</ele><time>2026-04-25T14:00:22.104Z</time></trkpt><trkpt lat="44.7814833" lon="7.9478167"><ele>260.0</ele><time>2026-04-25T14:00:23.104Z</time></trkpt><trkpt lat="44.7814517" lon="7.947735"><ele>260.0</ele><time>2026-04-25T14:00:24.104Z</time></trkpt><trkpt lat="44.78146" lon="7.9476317"><ele>260.0</ele><time>2026-04-25T14:00:25.104Z</time></trkpt><trkpt lat="44.7815167" lon="7.9475017"><ele>260.0</ele><time>2026-04-25T14:00:26.104Z</time></trkpt><trkpt lat="44.7816083" lon="7.9473733"><ele>260.0</ele><time>2026-04-25T14:00:27.104Z</time></trkpt><trkpt lat="44.78172" lon="7.9472583"><ele>261.0</ele><time>2026-04-25T14:00:28.104Z</time></trkpt><trkpt lat="44.7818183" lon="7.94715"><ele>262.0</ele><time>2026-04-25T14:00:29.104Z</time></trkpt><trkpt lat="44.7818967" lon="7.947015"><ele>263.0</ele><time>2026-04-25T14:00:30.104Z</time></trkpt><trkpt lat="44.7819383" lon="7.94685"><ele>264.0</ele><time>2026-04-25T14:00:31.104Z</time></trkpt><trkpt lat="44.781955" lon="7.9466733"><ele>262.0</ele><time>2026-04-25T14:00:32.104Z</time></trkpt><trkpt lat="44.781965" lon="7.94651"><ele>260.0</ele><time>2026-04-25T14:00:33.104Z</time></trkpt><trkpt lat="44.7819683" lon="7.94637"><ele>258.0</ele><time>2026-04-25T14:00:34.104Z</time></trkpt><trkpt lat="44.7819567" lon="7.9462533"><ele>256.0</ele><time>2026-04-25T14:00:35.104Z</time></trkpt><trkpt lat="44.7819267" lon="7.946175"><ele>254.0</ele><time>2026-04-25T14:00:36.104Z</time></trkpt><trkpt lat="44.781815" lon="7.9461267"><ele>254.0</ele><time>2026-04-25T14:00:38.104Z</time></trkpt><trkpt lat="44.78176" lon="7.94619"><ele>253.99999999999997</ele><time>2026-04-25T14:00:39.104Z</time></trkpt><trkpt lat="44.7817283" lon="7.9463183"><ele>253.99999999999997</ele><time>2026-04-25T14:00:40.104Z</time></trkpt><trkpt lat="44.7817283" lon="7.9464817"><ele>254.0</ele><time>2026-04-25T14:00:41.104Z</time></trkpt><trkpt lat="44.7817317" lon="7.94665"><ele>254.0</ele><time>2026-04-25T14:00:42.104Z</time></trkpt><trkpt lat="44.781705" lon="7.94679"><ele>256.0</ele><time>2026-04-25T14:00:43.104Z</time></trkpt><trkpt lat="44.7816367" lon="7.9468817"><ele>258.0</ele><time>2026-04-25T14:00:44.104Z</time></trkpt><trkpt lat="44.7815433" lon="7.9469333"><ele>260.0</ele><time>2026-04-25T14:00:45.104Z</time></trkpt><trkpt lat="44.7814217" lon="7.9469467"><ele>262.0</ele><time>2026-04-25T14:00:46.104Z</time></trkpt><trkpt lat="44.78129" lon="7.9469433"><ele>264.0</ele><time>2026-04-25T14:00:47.104Z</time></trkpt><trkpt lat="44.781165" lon="7.94695"><ele>264.0</ele><time>2026-04-25T14:00:48.104Z</time></trkpt><trkpt lat="44.781055" lon="7.946955"><ele>264.0</ele><time>2026-04-25T14:00:49.104Z</time></trkpt><trkpt lat="44.7809733" lon="7.94693"><ele>264.0</ele><time>2026-04-25T14:00:50.104Z</time></trkpt><trkpt lat="44.78091" lon="7.9468633"><ele>264.0</ele><time>2026-04-25T14:00:51.104Z</time></trkpt><trkpt lat="44.7808867" lon="7.9467733"><ele>264.0</ele><time>2026-04-25T14:00:52.104Z</time></trkpt><trkpt lat="44.7809117" lon="7.9466683"><ele>264.0</ele><time>2026-04-25T14:00:53.104Z</time></trkpt><trkpt lat="44.7809833" lon="7.9465533"><ele>262.0</ele><time>2026-04-25T14:00:54.104Z</time></trkpt><trkpt lat="44.781085" lon="7.946435"><ele>260.0</ele><time>2026-04-25T14:00:55.104Z</time></trkpt><trkpt lat="44.7811833" lon="7.946335"><ele>258.0</ele><time>2026-04-25T14:00:56.104Z</time></trkpt><trkpt lat="44.781255" lon="7.9462567"><ele>256.0</ele><time>2026-04-25T14:00:57.104Z</time></trkpt><trkpt lat="44.7813067" lon="7.9461833"><ele>254.0</ele><time>2026-04-25T14:00:58.104Z</time></trkpt><trkpt lat="44.78132" lon="7.946035"><ele>254.0</ele><time>2026-04-25T14:01:00.104Z</time></trkpt><trkpt lat="44.7812017" lon="7.9459683"><ele>254.0</ele><time>2026-04-25T14:01:02.104Z</time></trkpt><trkpt lat="44.7811167" lon="7.9460133"><ele>254.0</ele><time>2026-04-25T14:01:03.104Z</time></trkpt><trkpt lat="44.781025" lon="7.94609"><ele>254.0</ele><time>2026-04-25T14:01:04.104Z</time></trkpt><trkpt lat="44.7809167" lon="7.9461867"><ele>251.0</ele><time>2026-04-25T14:01:05.104Z</time></trkpt><trkpt lat="44.780805" lon="7.9462683"><ele>248.0</ele><time>2026-04-25T14:01:06.104Z</time></trkpt><trkpt lat="44.78069" lon="7.9463467"><ele>245.0</ele><time>2026-04-25T14:01:07.104Z</time></trkpt><trkpt lat="44.7805867" lon="7.9464217"><ele>242.0</ele><time>2026-04-25T14:01:08.104Z</time></trkpt><trkpt lat="44.7804817" lon="7.9464667"><ele>242.0</ele><time>2026-04-25T14:01:09.104Z</time></trkpt><trkpt lat="44.78036" lon="7.9465"><ele>242.0</ele><time>2026-04-25T14:01:10.104Z</time></trkpt><trkpt lat="44.7802433" lon="7.9464983"><ele>242.0</ele><time>2026-04-25T14:01:11.104Z</time></trkpt><trkpt lat="44.780125" lon="7.9464733"><ele>242.0</ele><time>2026-04-25T14:01:12.104Z</time></trkpt><trkpt lat="44.7799967" lon="7.9464367"><ele>240.5</ele><time>2026-04-25T14:01:13.104Z</time></trkpt><trkpt lat="44.77988" lon="7.9463983"><ele>239.0</ele><time>2026-04-25T14:01:14.104Z</time></trkpt><trkpt lat="44.77975" lon="7.946365"><ele>237.5</ele><time>2026-04-25T14:01:15.104Z</time></trkpt><trkpt lat="44.7796167" lon="7.946335"><ele>236.0</ele><time>2026-04-25T14:01:16.104Z</time></trkpt><trkpt lat="44.77949" lon="7.9463233"><ele>236.0</ele><time>2026-04-25T14:01:17.104Z</time></trkpt><trkpt lat="44.7793517" lon="7.9463217"><ele>236.0</ele><time>2026-04-25T14:01:18.104Z</time></trkpt><trkpt lat="44.7792167" lon="7.9463583"><ele>236.0</ele><time>2026-04-25T14:01:19.104Z</time></trkpt><trkpt lat="44.7790883" lon="7.946415"><ele>236.0</ele><time>2026-04-25T14:01:20.104Z</time></trkpt><trkpt lat="44.7789567" lon="7.94649"><ele>236.0</ele><time>2026-04-25T14:01:21.104Z</time></trkpt><trkpt lat="44.7788283" lon="7.946555"><ele>236.0</ele><time>2026-04-25T14:01:22.104Z</time></trkpt><trkpt lat="44.778695" lon="7.946625"><ele>236.0</ele><time>2026-04-25T14:01:23.104Z</time></trkpt><trkpt lat="44.7785617" lon="7.946695"><ele>236.0</ele><time>2026-04-25T14:01:24.104Z</time></trkpt><trkpt lat="44.7784283" lon="7.946765"><ele>238.75</ele><time>2026-04-25T14:01:25.104Z</time></trkpt><trkpt lat="44.7782983" lon="7.94682"><ele>241.5</ele><time>2026-04-25T14:01:26.104Z</time></trkpt><trkpt lat="44.778165" lon="7.9468783"><ele>244.25</ele><time>2026-04-25T14:01:27.104Z</time></trkpt><trkpt lat="44.7780333" lon="7.9469067"><ele>247.0</ele><time>2026-04-25T14:01:28.104Z</time></trkpt><trkpt lat="44.777895" lon="7.94691"><ele>247.0</ele><time>2026-04-25T14:01:29.104Z</time></trkpt><trkpt lat="44.777775" lon="7.946885"><ele>247.0</ele><time>2026-04-25T14:01:30.104Z</time></trkpt><trkpt lat="44.7776767" lon="7.9468583"><ele>247.0</ele><time>2026-04-25T14:01:31.104Z</time></trkpt><trkpt lat="44.7776067" lon="7.9468"><ele>247.0</ele><time>2026-04-25T14:01:32.104Z</time></trkpt><trkpt lat="44.77754" lon="7.9467433"><ele>247.0</ele><time>2026-04-25T14:01:33.104Z</time></trkpt><trkpt lat="44.7774433" lon="7.9466583"><ele>247.99999999999997</ele><time>2026-04-25T14:01:35.104Z</time></trkpt><trkpt lat="44.777355" lon="7.946605"><ele>249.0</ele><time>2026-04-25T14:01:37.104Z</time></trkpt><trkpt lat="44.7772583" lon="7.9465867"><ele>250.0</ele><time>2026-04-25T14:01:39.104Z</time></trkpt><trkpt lat="44.7771917" lon="7.9466133"><ele>251.0</ele><time>2026-04-25T14:01:40.104Z</time></trkpt><trkpt lat="44.777115" lon="7.9466583"><ele>251.99999999999997</ele><time>2026-04-25T14:01:41.104Z</time></trkpt><trkpt lat="44.777025" lon="7.9467217"><ele>253.0</ele><time>2026-04-25T14:01:42.104Z</time></trkpt><trkpt lat="44.7769333" lon="7.9467983"><ele>252.75</ele><time>2026-04-25T14:01:43.104Z</time></trkpt><trkpt lat="44.776835" lon="7.9468817"><ele>252.5</ele><time>2026-04-25T14:01:44.104Z</time></trkpt><trkpt lat="44.7767417" lon="7.946975"><ele>252.25</ele><time>2026-04-25T14:01:45.104Z</time></trkpt><trkpt lat="44.7766583" lon="7.94708"><ele>252.0</ele><time>2026-04-25T14:01:46.104Z</time></trkpt><trkpt lat="44.7765833" lon="7.9472"><ele>252.0</ele><time>2026-04-25T14:01:47.104Z</time></trkpt><trkpt lat="44.7765117" lon="7.9473433"><ele>252.0</ele><time>2026-04-25T14:01:48.104Z</time></trkpt><trkpt lat="44.7764433" lon="7.9475083"><ele>252.0</ele><time>2026-04-25T14:01:49.104Z</time></trkpt><trkpt lat="44.7763883" lon="7.947685"><ele>252.0</ele><time>2026-04-25T14:01:50.104Z</time></trkpt><trkpt lat="44.7763467" lon="7.94788"><ele>252.75</ele><time>2026-04-25T14:01:51.104Z</time></trkpt><trkpt lat="44.7763133" lon="7.948085"><ele>253.5</ele><time>2026-04-25T14:01:52.104Z</time></trkpt><trkpt lat="44.7762867" lon="7.948295"><ele>254.25</ele><time>2026-04-25T14:01:53.104Z</time></trkpt><trkpt lat="44.7762633" lon="7.9485017"><ele>255.0</ele><time>2026-04-25T14:01:54.104Z</time></trkpt><trkpt lat="44.77624" lon="7.9487117"><ele>255.0</ele><time>2026-04-25T14:01:55.104Z</time></trkpt><trkpt lat="44.7762083" lon="7.94894"><ele>255.0</ele><time>2026-04-25T14:01:56.104Z</time></trkpt><trkpt lat="44.776175" lon="7.9491667"><ele>255.0</ele><time>2026-04-25T14:01:57.104Z</time></trkpt><trkpt lat="44.7761433" lon="7.949395"><ele>254.33333333333331</ele><time>2026-04-25T14:01:58.104Z</time></trkpt><trkpt lat="44.776115" lon="7.9496233"><ele>253.66666666666666</ele><time>2026-04-25T14:01:59.104Z</time></trkpt><trkpt lat="44.7760833" lon="7.94984"><ele>253.0</ele><time>2026-04-25T14:02:00.104Z</time></trkpt><trkpt lat="44.7760517" lon="7.9500517"><ele>252.75</ele><time>2026-04-25T14:02:01.104Z</time></trkpt><trkpt lat="44.7760217" lon="7.9502583"><ele>252.5</ele><time>2026-04-25T14:02:02.104Z</time></trkpt><trkpt lat="44.775995" lon="7.95046"><ele>252.25</ele><time>2026-04-25T14:02:03.104Z</time></trkpt><trkpt lat="44.77597" lon="7.950655"><ele>252.0</ele><time>2026-04-25T14:02:04.104Z</time></trkpt><trkpt lat="44.7759467" lon="7.95084"><ele>246.5</ele><time>2026-04-25T14:02:05.104Z</time></trkpt><trkpt lat="44.775925" lon="7.9510217"><ele>241.0</ele><time>2026-04-25T14:02:06.104Z</time></trkpt><trkpt lat="44.7758983" lon="7.9512083"><ele>235.5</ele><time>2026-04-25T14:02:07.104Z</time></trkpt><trkpt lat="44.7758783" lon="7.9513917"><ele>230.0</ele><time>2026-04-25T14:02:08.104Z</time></trkpt><trkpt lat="44.77586" lon="7.95156"><ele>229.6</ele><time>2026-04-25T14:02:09.104Z</time></trkpt><trkpt lat="44.7758417" lon="7.9517233"><ele>229.2</ele><time>2026-04-25T14:02:10.104Z</time></trkpt><trkpt lat="44.7758283" lon="7.95187"><ele>228.8</ele><time>2026-04-25T14:02:11.104Z</time></trkpt><trkpt lat="44.7758067" lon="7.95199"><ele>228.4</ele><time>2026-04-25T14:02:12.104Z</time></trkpt><trkpt lat="44.775785" lon="7.9520767"><ele>228.0</ele><time>2026-04-25T14:02:13.104Z</time></trkpt><trkpt lat="44.7757067" lon="7.9521933"><ele>228.0</ele><time>2026-04-25T14:02:15.104Z</time></trkpt><trkpt lat="44.77564" lon="7.9522283"><ele>228.0</ele><time>2026-04-25T14:02:16.104Z</time></trkpt><trkpt lat="44.7755717" lon="7.95223"><ele>228.0</ele><time>2026-04-25T14:02:17.104Z</time></trkpt><trkpt lat="44.7754933" lon="7.9521817"><ele>228.0</ele><time>2026-04-25T14:02:18.104Z</time></trkpt><trkpt lat="44.77541" lon="7.9520967"><ele>228.0</ele><time>2026-04-25T14:02:19.104Z</time></trkpt><trkpt lat="44.775315" lon="7.9520033"><ele>228.0</ele><time>2026-04-25T14:02:20.104Z</time></trkpt><trkpt lat="44.7752183" lon="7.9519167"><ele>227.0</ele><time>2026-04-25T14:02:21.104Z</time></trkpt><trkpt lat="44.7751267" lon="7.95181"><ele>226.0</ele><time>2026-04-25T14:02:22.104Z</time></trkpt><trkpt lat="44.775035" lon="7.951705"><ele>225.0</ele><time>2026-04-25T14:02:23.104Z</time></trkpt><trkpt lat="44.774935" lon="7.95159"><ele>224.0</ele><time>2026-04-25T14:02:24.104Z</time></trkpt><trkpt lat="44.7748167" lon="7.9514783"><ele>224.0</ele><time>2026-04-25T14:02:25.105Z</time></trkpt><trkpt lat="44.7746883" lon="7.9513483"><ele>224.0</ele><time>2026-04-25T14:02:26.104Z</time></trkpt><trkpt lat="44.7745583" lon="7.9512217"><ele>224.0</ele><time>2026-04-25T14:02:27.104Z</time></trkpt><trkpt lat="44.7744183" lon="7.951085"><ele>224.33333333333334</ele><time>2026-04-25T14:02:28.104Z</time></trkpt><trkpt lat="44.7742767" lon="7.9509467"><ele>224.66666666666669</ele><time>2026-04-25T14:02:29.104Z</time></trkpt><trkpt lat="44.7741183" lon="7.9507833"><ele>225.0</ele><time>2026-04-25T14:02:30.104Z</time></trkpt><trkpt lat="44.7739383" lon="7.950615"><ele>225.0</ele><time>2026-04-25T14:02:31.104Z</time></trkpt><trkpt lat="44.773745" lon="7.9504333"><ele>225.0</ele><time>2026-04-25T14:02:32.104Z</time></trkpt><trkpt lat="44.7735467" lon="7.9502117"><ele>226.0</ele><time>2026-04-25T14:02:33.104Z</time></trkpt><trkpt lat="44.7733433" lon="7.9500017"><ele>227.0</ele><time>2026-04-25T14:02:34.104Z</time></trkpt><trkpt lat="44.7731533" lon="7.9497983"><ele>227.0</ele><time>2026-04-25T14:02:35.104Z</time></trkpt><trkpt lat="44.7729683" lon="7.949585"><ele>227.0</ele><time>2026-04-25T14:02:36.104Z</time></trkpt><trkpt lat="44.7727867" lon="7.9493883"><ele>227.0</ele><time>2026-04-25T14:02:37.104Z</time></trkpt><trkpt lat="44.7726017" lon="7.9491917"><ele>227.0</ele><time>2026-04-25T14:02:38.104Z</time></trkpt><trkpt lat="44.7724167" lon="7.9489967"><ele>227.0</ele><time>2026-04-25T14:02:39.104Z</time></trkpt><trkpt lat="44.77224" lon="7.9488117"><ele>227.0</ele><time>2026-04-25T14:02:40.104Z</time></trkpt><trkpt lat="44.7720633" lon="7.9486317"><ele>227.0</ele><time>2026-04-25T14:02:41.104Z</time></trkpt><trkpt lat="44.7718883" lon="7.948445"><ele>228.33333333333334</ele><time>2026-04-25T14:02:42.104Z</time></trkpt><trkpt lat="44.77171" lon="7.948275"><ele>229.66666666666669</ele><time>2026-04-25T14:02:43.104Z</time></trkpt><trkpt lat="44.7715267" lon="7.9481283"><ele>231.0</ele><time>2026-04-25T14:02:44.104Z</time></trkpt><trkpt lat="44.7713283" lon="7.9480117"><ele>231.0</ele><time>2026-04-25T14:02:45.104Z</time></trkpt><trkpt lat="44.7711367" lon="7.9479233"><ele>231.0</ele><time>2026-04-25T14:02:46.104Z</time></trkpt><trkpt lat="44.7709383" lon="7.9478517"><ele>231.0</ele><time>2026-04-25T14:02:47.104Z</time></trkpt><trkpt lat="44.770745" lon="7.9477717"><ele>230.0</ele><time>2026-04-25T14:02:48.104Z</time></trkpt><trkpt lat="44.7705667" lon="7.9476933"><ele>229.0</ele><time>2026-04-25T14:02:49.104Z</time></trkpt><trkpt lat="44.77039" lon="7.9476167"><ele>228.0</ele><time>2026-04-25T14:02:50.104Z</time></trkpt><trkpt lat="44.7702167" lon="7.9475267"><ele>229.33333333333331</ele><time>2026-04-25T14:02:51.104Z</time></trkpt><trkpt lat="44.7700633" lon="7.9474217"><ele>230.66666666666666</ele><time>2026-04-25T14:02:52.104Z</time></trkpt><trkpt lat="44.76992" lon="7.9473117"><ele>232.0</ele><time>2026-04-25T14:02:53.104Z</time></trkpt><trkpt lat="44.7697817" lon="7.947205"><ele>232.0</ele><time>2026-04-25T14:02:54.104Z</time></trkpt><trkpt lat="44.7696383" lon="7.9471267"><ele>232.0</ele><time>2026-04-25T14:02:55.104Z</time></trkpt><trkpt lat="44.7694783" lon="7.9470917"><ele>232.0</ele><time>2026-04-25T14:02:56.104Z</time></trkpt><trkpt lat="44.76933" lon="7.9470883"><ele>232.0</ele><time>2026-04-25T14:02:57.104Z</time></trkpt><trkpt lat="44.7691767" lon="7.94713"><ele>232.0</ele><time>2026-04-25T14:02:58.104Z</time></trkpt><trkpt lat="44.7690217" lon="7.9471917"><ele>232.0</ele><time>2026-04-25T14:02:59.104Z</time></trkpt><trkpt lat="44.7688583" lon="7.9472467"><ele>232.0</ele><time>2026-04-25T14:03:00.104Z</time></trkpt><trkpt lat="44.7686917" lon="7.9472667"><ele>232.0</ele><time>2026-04-25T14:03:01.104Z</time></trkpt><trkpt lat="44.7685367" lon="7.94726"><ele>232.0</ele><time>2026-04-25T14:03:02.104Z</time></trkpt><trkpt lat="44.768395" lon="7.9472167"><ele>232.0</ele><time>2026-04-25T14:03:03.104Z</time></trkpt><trkpt lat="44.7682567" lon="7.9471317"><ele>232.0</ele><time>2026-04-25T14:03:04.104Z</time></trkpt><trkpt lat="44.7681233" lon="7.94701"><ele>232.0</ele><time>2026-04-25T14:03:05.104Z</time></trkpt><trkpt lat="44.7680067" lon="7.9468433"><ele>234.33333333333331</ele><time>2026-04-25T14:03:06.104Z</time></trkpt><trkpt lat="44.7679117" lon="7.94665"><ele>236.66666666666669</ele><time>2026-04-25T14:03:07.104Z</time></trkpt><trkpt lat="44.767825" lon="7.946435"><ele>239.0</ele><time>2026-04-25T14:03:08.104Z</time></trkpt><trkpt lat="44.7677333" lon="7.9462233"><ele>238.33333333333334</ele><time>2026-04-25T14:03:09.104Z</time></trkpt><trkpt lat="44.7676383" lon="7.9460217"><ele>237.66666666666669</ele><time>2026-04-25T14:03:10.104Z</time></trkpt><trkpt lat="44.7675467" lon="7.94582"><ele>237.0</ele><time>2026-04-25T14:03:11.104Z</time></trkpt><trkpt lat="44.7674567" lon="7.945625"><ele>237.0</ele><time>2026-04-25T14:03:12.104Z</time></trkpt><trkpt lat="44.7673683" lon="7.94543"><ele>237.0</ele><time>2026-04-25T14:03:13.104Z</time></trkpt><trkpt lat="44.7672817" lon="7.945225"><ele>237.0</ele><time>2026-04-25T14:03:14.104Z</time></trkpt><trkpt lat="44.7671967" lon="7.9450317"><ele>239.33333333333331</ele><time>2026-04-25T14:03:15.104Z</time></trkpt><trkpt lat="44.7671233" lon="7.944825"><ele>241.66666666666666</ele><time>2026-04-25T14:03:16.104Z</time></trkpt><trkpt lat="44.7670433" lon="7.9446183"><ele>244.0</ele><time>2026-04-25T14:03:17.104Z</time></trkpt><trkpt lat="44.7669767" lon="7.94441"><ele>241.66666666666666</ele><time>2026-04-25T14:03:18.104Z</time></trkpt><trkpt lat="44.7669183" lon="7.9441833"><ele>239.33333333333331</ele><time>2026-04-25T14:03:19.104Z</time></trkpt><trkpt lat="44.7668617" lon="7.9439583"><ele>237.0</ele><time>2026-04-25T14:03:20.104Z</time></trkpt><trkpt lat="44.7668083" lon="7.9437383"><ele>237.0</ele><time>2026-04-25T14:03:21.104Z</time></trkpt><trkpt lat="44.7667517" lon="7.9435033"><ele>237.0</ele><time>2026-04-25T14:03:22.104Z</time></trkpt><trkpt lat="44.7666967" lon="7.9432717"><ele>237.0</ele><time>2026-04-25T14:03:23.104Z</time></trkpt><trkpt lat="44.7666467" lon="7.943035"><ele>238.33333333333331</ele><time>2026-04-25T14:03:24.104Z</time></trkpt><trkpt lat="44.766605" lon="7.9427983"><ele>239.66666666666666</ele><time>2026-04-25T14:03:25.104Z</time></trkpt><trkpt lat="44.7665933" lon="7.9425533"><ele>241.0</ele><time>2026-04-25T14:03:26.104Z</time></trkpt><trkpt lat="44.7665883" lon="7.94231"><ele>241.0</ele><time>2026-04-25T14:03:27.104Z</time></trkpt><trkpt lat="44.7665917" lon="7.94206"><ele>241.0</ele><time>2026-04-25T14:03:28.104Z</time></trkpt><trkpt lat="44.766585" lon="7.941825"><ele>241.0</ele><time>2026-04-25T14:03:29.104Z</time></trkpt><trkpt lat="44.7665767" lon="7.9416083"><ele>241.0</ele><time>2026-04-25T14:03:30.104Z</time></trkpt><trkpt lat="44.766545" lon="7.9414067"><ele>241.0</ele><time>2026-04-25T14:03:31.104Z</time></trkpt><trkpt lat="44.7664833" lon="7.9412267"><ele>241.0</ele><time>2026-04-25T14:03:32.104Z</time></trkpt><trkpt lat="44.7663917" lon="7.941075"><ele>241.0</ele><time>2026-04-25T14:03:33.104Z</time></trkpt><trkpt lat="44.7662933" lon="7.9409317"><ele>241.33333333333331</ele><time>2026-04-25T14:03:34.104Z</time></trkpt><trkpt lat="44.76617" lon="7.94078"><ele>241.66666666666669</ele><time>2026-04-25T14:03:35.104Z</time></trkpt><trkpt lat="44.7660383" lon="7.94062"><ele>242.0</ele><time>2026-04-25T14:03:36.104Z</time></trkpt><trkpt lat="44.7658983" lon="7.9404717"><ele>242.66666666666669</ele><time>2026-04-25T14:03:37.104Z</time></trkpt><trkpt lat="44.7657567" lon="7.9403167"><ele>243.33333333333331</ele><time>2026-04-25T14:03:38.104Z</time></trkpt><trkpt lat="44.7656067" lon="7.94016"><ele>244.0</ele><time>2026-04-25T14:03:39.104Z</time></trkpt><trkpt lat="44.7654717" lon="7.939995"><ele>244.33333333333331</ele><time>2026-04-25T14:03:40.104Z</time></trkpt><trkpt lat="44.7653367" lon="7.939825"><ele>244.66666666666669</ele><time>2026-04-25T14:03:41.104Z</time></trkpt><trkpt lat="44.7651983" lon="7.9396583"><ele>245.0</ele><time>2026-04-25T14:03:42.104Z</time></trkpt><trkpt lat="44.7650667" lon="7.9394967"><ele>245.0</ele><time>2026-04-25T14:03:43.104Z</time></trkpt><trkpt lat="44.7649267" lon="7.9393367"><ele>245.0</ele><time>2026-04-25T14:03:44.104Z</time></trkpt><trkpt lat="44.7647833" lon="7.93916"><ele>245.0</ele><time>2026-04-25T14:03:45.104Z</time></trkpt><trkpt lat="44.7646467" lon="7.9389783"><ele>245.66666666666669</ele><time>2026-04-25T14:03:46.104Z</time></trkpt><trkpt lat="44.7645133" lon="7.9388067"><ele>246.33333333333331</ele><time>2026-04-25T14:03:47.104Z</time></trkpt><trkpt lat="44.7643783" lon="7.9386467"><ele>247.0</ele><time>2026-04-25T14:03:48.104Z</time></trkpt><trkpt lat="44.7642467" lon="7.9384717"><ele>248.66666666666666</ele><time>2026-04-25T14:03:49.104Z</time></trkpt><trkpt lat="44.7641167" lon="7.9383017"><ele>250.33333333333331</ele><time>2026-04-25T14:03:50.104Z</time></trkpt><trkpt lat="44.763995" lon="7.9381233"><ele>252.0</ele><time>2026-04-25T14:03:51.104Z</time></trkpt><trkpt lat="44.7638883" lon="7.937945"><ele>252.0</ele><time>2026-04-25T14:03:52.104Z</time></trkpt><trkpt lat="44.7637933" lon="7.9377767"><ele>252.0</ele><time>2026-04-25T14:03:53.104Z</time></trkpt><trkpt lat="44.7637217" lon="7.9375967"><ele>252.0</ele><time>2026-04-25T14:03:54.104Z</time></trkpt><trkpt lat="44.7636633" lon="7.9374117"><ele>252.0</ele><time>2026-04-25T14:03:55.104Z</time></trkpt><trkpt lat="44.7636067" lon="7.9372317"><ele>252.0</ele><time>2026-04-25T14:03:56.104Z</time></trkpt><trkpt lat="44.763525" lon="7.9370817"><ele>252.0</ele><time>2026-04-25T14:03:57.104Z</time></trkpt><trkpt lat="44.7634217" lon="7.9369583"><ele>252.0</ele><time>2026-04-25T14:03:58.104Z</time></trkpt><trkpt lat="44.7633067" lon="7.9368517"><ele>252.0</ele><time>2026-04-25T14:03:59.104Z</time></trkpt><trkpt lat="44.7631883" lon="7.9367567"><ele>252.0</ele><time>2026-04-25T14:04:00.104Z</time></trkpt><trkpt lat="44.763065" lon="7.93668"><ele>252.0</ele><time>2026-04-25T14:04:01.104Z</time></trkpt><trkpt lat="44.7629417" lon="7.9366383"><ele>252.0</ele><time>2026-04-25T14:04:02.104Z</time></trkpt><trkpt lat="44.7628217" lon="7.9366633"><ele>252.0</ele><time>2026-04-25T14:04:03.104Z</time></trkpt><trkpt lat="44.7627183" lon="7.9367283"><ele>253.0</ele><time>2026-04-25T14:04:04.104Z</time></trkpt><trkpt lat="44.76263" lon="7.9368133"><ele>254.0</ele><time>2026-04-25T14:04:05.104Z</time></trkpt><trkpt lat="44.7625383" lon="7.9368667"><ele>255.0</ele><time>2026-04-25T14:04:06.104Z</time></trkpt><trkpt lat="44.76246" lon="7.9369017"><ele>256.0</ele><time>2026-04-25T14:04:07.104Z</time></trkpt><trkpt lat="44.7623917" lon="7.936935"><ele>257.0</ele><time>2026-04-25T14:04:08.104Z</time></trkpt><trkpt lat="44.7622933" lon="7.9370333"><ele>257.0</ele><time>2026-04-25T14:04:10.104Z</time></trkpt><trkpt lat="44.7622367" lon="7.9371117"><ele>257.0</ele><time>2026-04-25T14:04:11.104Z</time></trkpt><trkpt lat="44.7621633" lon="7.9371833"><ele>257.0</ele><time>2026-04-25T14:04:12.104Z</time></trkpt><trkpt lat="44.762075" lon="7.9372383"><ele>257.0</ele><time>2026-04-25T14:04:13.104Z</time></trkpt><trkpt lat="44.7619767" lon="7.93727"><ele>257.0</ele><time>2026-04-25T14:04:14.104Z</time></trkpt><trkpt lat="44.7618617" lon="7.9372833"><ele>258.0</ele><time>2026-04-25T14:04:15.104Z</time></trkpt><trkpt lat="44.761745" lon="7.9372783"><ele>259.0</ele><time>2026-04-25T14:04:16.104Z</time></trkpt><trkpt lat="44.7616283" lon="7.9372767"><ele>260.0</ele><time>2026-04-25T14:04:17.104Z</time></trkpt><trkpt lat="44.761495" lon="7.9373"><ele>261.0</ele><time>2026-04-25T14:04:18.104Z</time></trkpt><trkpt lat="44.7613683" lon="7.9373583"><ele>261.0</ele><time>2026-04-25T14:04:19.104Z</time></trkpt><trkpt lat="44.7612333" lon="7.937465"><ele>261.0</ele><time>2026-04-25T14:04:20.104Z</time></trkpt><trkpt lat="44.7611017" lon="7.9376017"><ele>261.0</ele><time>2026-04-25T14:04:21.104Z</time></trkpt><trkpt lat="44.7609717" lon="7.93773"><ele>262.0</ele><time>2026-04-25T14:04:22.104Z</time></trkpt><trkpt lat="44.7608367" lon="7.937855"><ele>263.0</ele><time>2026-04-25T14:04:23.104Z</time></trkpt><trkpt lat="44.760695" lon="7.9379633"><ele>264.0</ele><time>2026-04-25T14:04:24.104Z</time></trkpt><trkpt lat="44.76055" lon="7.93806"><ele>264.0</ele><time>2026-04-25T14:04:25.104Z</time></trkpt><trkpt lat="44.7604117" lon="7.9381517"><ele>264.0</ele><time>2026-04-25T14:04:26.104Z</time></trkpt><trkpt lat="44.7602717" lon="7.9382483"><ele>264.0</ele><time>2026-04-25T14:04:27.104Z</time></trkpt><trkpt lat="44.7601367" lon="7.9383283"><ele>266.0</ele><time>2026-04-25T14:04:28.104Z</time></trkpt><trkpt lat="44.7599883" lon="7.938425"><ele>268.0</ele><time>2026-04-25T14:04:29.104Z</time></trkpt><trkpt lat="44.75985" lon="7.9385"><ele>270.0</ele><time>2026-04-25T14:04:30.104Z</time></trkpt><trkpt lat="44.7597117" lon="7.9385283"><ele>270.0</ele><time>2026-04-25T14:04:31.104Z</time></trkpt><trkpt lat="44.7595667" lon="7.93853"><ele>270.0</ele><time>2026-04-25T14:04:32.104Z</time></trkpt><trkpt lat="44.759395" lon="7.9384933"><ele>270.0</ele><time>2026-04-25T14:04:33.104Z</time></trkpt><trkpt lat="44.7592333" lon="7.9384617"><ele>271.3333333333333</ele><time>2026-04-25T14:04:34.104Z</time></trkpt><trkpt lat="44.7590717" lon="7.9384417"><ele>272.66666666666663</ele><time>2026-04-25T14:04:35.104Z</time></trkpt><trkpt lat="44.75892" lon="7.9384133"><ele>274.0</ele><time>2026-04-25T14:04:36.104Z</time></trkpt><trkpt lat="44.7587767" lon="7.938365"><ele>274.0</ele><time>2026-04-25T14:04:37.104Z</time></trkpt><trkpt lat="44.7586383" lon="7.9382983"><ele>274.0</ele><time>2026-04-25T14:04:38.104Z</time></trkpt><trkpt lat="44.7584983" lon="7.93819"><ele>274.0</ele><time>2026-04-25T14:04:39.104Z</time></trkpt><trkpt lat="44.7583683" lon="7.9380267"><ele>272.66666666666663</ele><time>2026-04-25T14:04:40.104Z</time></trkpt><trkpt lat="44.7582517" lon="7.937845"><ele>271.3333333333333</ele><time>2026-04-25T14:04:41.104Z</time></trkpt><trkpt lat="44.7581333" lon="7.9376517"><ele>270.0</ele><time>2026-04-25T14:04:42.104Z</time></trkpt><trkpt lat="44.7580133" lon="7.93746"><ele>268.3333333333333</ele><time>2026-04-25T14:04:43.104Z</time></trkpt><trkpt lat="44.7578983" lon="7.937255"><ele>266.66666666666663</ele><time>2026-04-25T14:04:44.104Z</time></trkpt><trkpt lat="44.75779" lon="7.9370617"><ele>265.0</ele><time>2026-04-25T14:04:45.104Z</time></trkpt><trkpt lat="44.7576717" lon="7.9368633"><ele>263.3333333333333</ele><time>2026-04-25T14:04:46.104Z</time></trkpt><trkpt lat="44.7575583" lon="7.9366683"><ele>261.6666666666667</ele><time>2026-04-25T14:04:47.104Z</time></trkpt><trkpt lat="44.75745" lon="7.9364833"><ele>260.0</ele><time>2026-04-25T14:04:48.104Z</time></trkpt><trkpt lat="44.7573283" lon="7.9363333"><ele>260.0</ele><time>2026-04-25T14:04:49.104Z</time></trkpt><trkpt lat="44.7571783" lon="7.936225"><ele>260.0</ele><time>2026-04-25T14:04:50.104Z</time></trkpt><trkpt lat="44.757015" lon="7.9361567"><ele>260.0</ele><time>2026-04-25T14:04:51.104Z</time></trkpt><trkpt lat="44.75684" lon="7.9361517"><ele>260.33333333333337</ele><time>2026-04-25T14:04:52.104Z</time></trkpt><trkpt lat="44.7566617" lon="7.9361617"><ele>260.6666666666667</ele><time>2026-04-25T14:04:53.104Z</time></trkpt><trkpt lat="44.7564867" lon="7.9361717"><ele>261.0</ele><time>2026-04-25T14:04:54.104Z</time></trkpt><trkpt lat="44.7563033" lon="7.9361617"><ele>261.0</ele><time>2026-04-25T14:04:55.104Z</time></trkpt><trkpt lat="44.756125" lon="7.9361317"><ele>261.0</ele><time>2026-04-25T14:04:56.104Z</time></trkpt><trkpt lat="44.7559417" lon="7.936105"><ele>261.0</ele><time>2026-04-25T14:04:57.104Z</time></trkpt><trkpt lat="44.75576" lon="7.93609"><ele>260.3333333333333</ele><time>2026-04-25T14:04:58.104Z</time></trkpt><trkpt lat="44.7555783" lon="7.9361"><ele>259.66666666666663</ele><time>2026-04-25T14:04:59.104Z</time></trkpt><trkpt lat="44.7553967" lon="7.9361367"><ele>259.0</ele><time>2026-04-25T14:05:00.104Z</time></trkpt><trkpt lat="44.755215" lon="7.93619"><ele>256.66666666666663</ele><time>2026-04-25T14:05:01.104Z</time></trkpt><trkpt lat="44.755035" lon="7.9362567"><ele>254.33333333333331</ele><time>2026-04-25T14:05:02.104Z</time></trkpt><trkpt lat="44.7548617" lon="7.9363133"><ele>252.0</ele><time>2026-04-25T14:05:03.104Z</time></trkpt><trkpt lat="44.7546867" lon="7.9363733"><ele>252.0</ele><time>2026-04-25T14:05:04.104Z</time></trkpt><trkpt lat="44.7545133" lon="7.93642"><ele>252.0</ele><time>2026-04-25T14:05:05.104Z</time></trkpt><trkpt lat="44.754345" lon="7.9364483"><ele>252.0</ele><time>2026-04-25T14:05:06.104Z</time></trkpt><trkpt lat="44.754185" lon="7.936455"><ele>252.0</ele><time>2026-04-25T14:05:07.104Z</time></trkpt><trkpt lat="44.7540283" lon="7.936455"><ele>252.0</ele><time>2026-04-25T14:05:08.104Z</time></trkpt><trkpt lat="44.7538783" lon="7.93643"><ele>252.0</ele><time>2026-04-25T14:05:09.104Z</time></trkpt><trkpt lat="44.7537283" lon="7.9364"><ele>252.0</ele><time>2026-04-25T14:05:10.104Z</time></trkpt><trkpt lat="44.753585" lon="7.9363717"><ele>252.0</ele><time>2026-04-25T14:05:11.104Z</time></trkpt><trkpt lat="44.753445" lon="7.9363517"><ele>252.0</ele><time>2026-04-25T14:05:12.104Z</time></trkpt><trkpt lat="44.7533117" lon="7.93634"><ele>252.0</ele><time>2026-04-25T14:05:13.104Z</time></trkpt><trkpt lat="44.75318" lon="7.9363333"><ele>252.25</ele><time>2026-04-25T14:05:14.104Z</time></trkpt><trkpt lat="44.75306" lon="7.93633"><ele>252.5</ele><time>2026-04-25T14:05:15.104Z</time></trkpt><trkpt lat="44.7529383" lon="7.9363517"><ele>252.75</ele><time>2026-04-25T14:05:16.104Z</time></trkpt><trkpt lat="44.752825" lon="7.9363683"><ele>253.0</ele><time>2026-04-25T14:05:17.104Z</time></trkpt><trkpt lat="44.7527017" lon="7.9363883"><ele>251.75</ele><time>2026-04-25T14:05:18.104Z</time></trkpt><trkpt lat="44.7525817" lon="7.936405"><ele>250.5</ele><time>2026-04-25T14:05:19.104Z</time></trkpt><trkpt lat="44.752465" lon="7.936425"><ele>249.25</ele><time>2026-04-25T14:05:20.104Z</time></trkpt><trkpt lat="44.7523517" lon="7.9364567"><ele>248.0</ele><time>2026-04-25T14:05:21.104Z</time></trkpt><trkpt lat="44.7522433" lon="7.936515"><ele>248.0</ele><time>2026-04-25T14:05:22.104Z</time></trkpt><trkpt lat="44.7521367" lon="7.93661"><ele>248.0</ele><time>2026-04-25T14:05:23.104Z</time></trkpt><trkpt lat="44.7520433" lon="7.936735"><ele>248.0</ele><time>2026-04-25T14:05:24.104Z</time></trkpt><trkpt lat="44.751965" lon="7.9369067"><ele>248.0</ele><time>2026-04-25T14:05:25.104Z</time></trkpt><trkpt lat="44.75189" lon="7.937125"><ele>246.66666666666669</ele><time>2026-04-25T14:05:26.103Z</time></trkpt><trkpt lat="44.751805" lon="7.937345"><ele>245.33333333333331</ele><time>2026-04-25T14:05:27.103Z</time></trkpt><trkpt lat="44.751725" lon="7.9375483"><ele>244.0</ele><time>2026-04-25T14:05:28.103Z</time></trkpt><trkpt lat="44.7516567" lon="7.93774"><ele>243.75</ele><time>2026-04-25T14:05:29.103Z</time></trkpt><trkpt lat="44.7515917" lon="7.9379317"><ele>243.5</ele><time>2026-04-25T14:05:30.103Z</time></trkpt><trkpt lat="44.7515367" lon="7.9381133"><ele>243.25</ele><time>2026-04-25T14:05:31.103Z</time></trkpt><trkpt lat="44.7514833" lon="7.9382817"><ele>243.0</ele><time>2026-04-25T14:05:32.103Z</time></trkpt><trkpt lat="44.7514233" lon="7.9384383"><ele>243.75</ele><time>2026-04-25T14:05:33.103Z</time></trkpt><trkpt lat="44.7513467" lon="7.9385833"><ele>244.5</ele><time>2026-04-25T14:05:34.103Z</time></trkpt><trkpt lat="44.75126" lon="7.938725"><ele>245.25</ele><time>2026-04-25T14:05:35.103Z</time></trkpt><trkpt lat="44.7511733" lon="7.9388483"><ele>246.0</ele><time>2026-04-25T14:05:36.103Z</time></trkpt><trkpt lat="44.7510683" lon="7.9389583"><ele>245.75</ele><time>2026-04-25T14:05:37.103Z</time></trkpt><trkpt lat="44.7509683" lon="7.9390483"><ele>245.5</ele><time>2026-04-25T14:05:38.103Z</time></trkpt><trkpt lat="44.750865" lon="7.93913"><ele>245.25</ele><time>2026-04-25T14:05:39.103Z</time></trkpt><trkpt lat="44.7507583" lon="7.939205"><ele>245.0</ele><time>2026-04-25T14:05:40.103Z</time></trkpt><trkpt lat="44.7506467" lon="7.9392833"><ele>245.0</ele><time>2026-04-25T14:05:41.103Z</time></trkpt><trkpt lat="44.75054" lon="7.9393567"><ele>245.0</ele><time>2026-04-25T14:05:42.103Z</time></trkpt><trkpt lat="44.7504233" lon="7.9394167"><ele>245.0</ele><time>2026-04-25T14:05:43.103Z</time></trkpt><trkpt lat="44.7503067" lon="7.9394533"><ele>245.0</ele><time>2026-04-25T14:05:44.103Z</time></trkpt><trkpt lat="44.75019" lon="7.9394683"><ele>244.6</ele><time>2026-04-25T14:05:45.103Z</time></trkpt><trkpt lat="44.7500783" lon="7.93948"><ele>244.2</ele><time>2026-04-25T14:05:46.103Z</time></trkpt><trkpt lat="44.7499717" lon="7.9394717"><ele>243.8</ele><time>2026-04-25T14:05:47.103Z</time></trkpt><trkpt lat="44.7498683" lon="7.9394283"><ele>243.4</ele><time>2026-04-25T14:05:48.103Z</time></trkpt><trkpt lat="44.7497567" lon="7.9393733"><ele>243.0</ele><time>2026-04-25T14:05:49.103Z</time></trkpt><trkpt lat="44.74964" lon="7.939315"><ele>243.0</ele><time>2026-04-25T14:05:50.103Z</time></trkpt><trkpt lat="44.7495267" lon="7.9392333"><ele>243.0</ele><time>2026-04-25T14:05:51.103Z</time></trkpt><trkpt lat="44.7494183" lon="7.9391483"><ele>243.0</ele><time>2026-04-25T14:05:52.103Z</time></trkpt><trkpt lat="44.7493117" lon="7.93906"><ele>243.0</ele><time>2026-04-25T14:05:53.103Z</time></trkpt><trkpt lat="44.749205" lon="7.9389633"><ele>243.25</ele><time>2026-04-25T14:05:54.103Z</time></trkpt><trkpt lat="44.7490933" lon="7.9388683"><ele>243.5</ele><time>2026-04-25T14:05:55.103Z</time></trkpt><trkpt lat="44.748985" lon="7.9387883"><ele>243.75</ele><time>2026-04-25T14:05:56.103Z</time></trkpt><trkpt lat="44.748865" lon="7.9387333"><ele>244.0</ele><time>2026-04-25T14:05:57.103Z</time></trkpt><trkpt lat="44.7487433" lon="7.9387067"><ele>244.0</ele><time>2026-04-25T14:05:58.103Z</time></trkpt><trkpt lat="44.7486183" lon="7.9386933"><ele>244.0</ele><time>2026-04-25T14:05:59.103Z</time></trkpt><trkpt lat="44.748475" lon="7.938695"><ele>244.0</ele><time>2026-04-25T14:06:00.103Z</time></trkpt><trkpt lat="44.748335" lon="7.9387133"><ele>244.0</ele><time>2026-04-25T14:06:01.103Z</time></trkpt><trkpt lat="44.7482" lon="7.9387333"><ele>244.0</ele><time>2026-04-25T14:06:02.103Z</time></trkpt><trkpt lat="44.748075" lon="7.9387617"><ele>244.0</ele><time>2026-04-25T14:06:03.103Z</time></trkpt><trkpt lat="44.7479433" lon="7.938795"><ele>244.0</ele><time>2026-04-25T14:06:04.103Z</time></trkpt><trkpt lat="44.74781" lon="7.9388383"><ele>244.0</ele><time>2026-04-25T14:06:05.103Z</time></trkpt><trkpt lat="44.7476733" lon="7.9388833"><ele>242.0</ele><time>2026-04-25T14:06:06.103Z</time></trkpt><trkpt lat="44.747535" lon="7.9389167"><ele>240.0</ele><time>2026-04-25T14:06:07.103Z</time></trkpt><trkpt lat="44.7474017" lon="7.9389583"><ele>238.0</ele><time>2026-04-25T14:06:08.103Z</time></trkpt><trkpt lat="44.747265" lon="7.9389883"><ele>236.0</ele><time>2026-04-25T14:06:09.103Z</time></trkpt><trkpt lat="44.7471317" lon="7.93903"><ele>236.0</ele><time>2026-04-25T14:06:10.103Z</time></trkpt><trkpt lat="44.746995" lon="7.9390833"><ele>236.0</ele><time>2026-04-25T14:06:11.103Z</time></trkpt><trkpt lat="44.7468517" lon="7.9391767"><ele>236.0</ele><time>2026-04-25T14:06:12.103Z</time></trkpt><trkpt lat="44.746695" lon="7.9392933"><ele>239.0</ele><time>2026-04-25T14:06:13.103Z</time></trkpt><trkpt lat="44.7465283" lon="7.9394233"><ele>242.0</ele><time>2026-04-25T14:06:14.103Z</time></trkpt><trkpt lat="44.746355" lon="7.93955"><ele>245.0</ele><time>2026-04-25T14:06:15.103Z</time></trkpt><trkpt lat="44.7461733" lon="7.93967"><ele>244.66666666666669</ele><time>2026-04-25T14:06:16.103Z</time></trkpt><trkpt lat="44.7459717" lon="7.9398067"><ele>244.33333333333331</ele><time>2026-04-25T14:06:17.103Z</time></trkpt><trkpt lat="44.7457783" lon="7.93995"><ele>244.0</ele><time>2026-04-25T14:06:18.103Z</time></trkpt><trkpt lat="44.7455933" lon="7.940095"><ele>244.0</ele><time>2026-04-25T14:06:19.103Z</time></trkpt><trkpt lat="44.7454083" lon="7.94023"><ele>244.0</ele><time>2026-04-25T14:06:20.103Z</time></trkpt><trkpt lat="44.7452217" lon="7.940365"><ele>244.0</ele><time>2026-04-25T14:06:21.103Z</time></trkpt><trkpt lat="44.74505" lon="7.9404783"><ele>242.0</ele><time>2026-04-25T14:06:22.103Z</time></trkpt><trkpt lat="44.7448717" lon="7.9405983"><ele>240.0</ele><time>2026-04-25T14:06:23.103Z</time></trkpt><trkpt lat="44.744695" lon="7.9406867"><ele>238.0</ele><time>2026-04-25T14:06:24.103Z</time></trkpt><trkpt lat="44.7445133" lon="7.9407633"><ele>237.0</ele><time>2026-04-25T14:06:25.103Z</time></trkpt><trkpt lat="44.744325" lon="7.94083"><ele>236.0</ele><time>2026-04-25T14:06:26.103Z</time></trkpt><trkpt lat="44.7441367" lon="7.9408983"><ele>235.0</ele><time>2026-04-25T14:06:27.103Z</time></trkpt><trkpt lat="44.7439467" lon="7.9409767"><ele>233.66666666666666</ele><time>2026-04-25T14:06:28.103Z</time></trkpt><trkpt lat="44.7437583" lon="7.941055"><ele>232.33333333333331</ele><time>2026-04-25T14:06:29.103Z</time></trkpt><trkpt lat="44.7435617" lon="7.941135"><ele>231.0</ele><time>2026-04-25T14:06:30.103Z</time></trkpt><trkpt lat="44.74337" lon="7.941215"><ele>231.0</ele><time>2026-04-25T14:06:31.103Z</time></trkpt><trkpt lat="44.7431783" lon="7.9413117"><ele>231.0</ele><time>2026-04-25T14:06:32.103Z</time></trkpt><trkpt lat="44.7430017" lon="7.9414167"><ele>231.0</ele><time>2026-04-25T14:06:33.103Z</time></trkpt><trkpt lat="44.742825" lon="7.9415283"><ele>230.33333333333331</ele><time>2026-04-25T14:06:34.103Z</time></trkpt><trkpt lat="44.7426367" lon="7.94164"><ele>229.66666666666666</ele><time>2026-04-25T14:06:35.103Z</time></trkpt><trkpt lat="44.7424583" lon="7.941755"><ele>229.0</ele><time>2026-04-25T14:06:36.103Z</time></trkpt><trkpt lat="44.742275" lon="7.941865"><ele>229.0</ele><time>2026-04-25T14:06:37.103Z</time></trkpt><trkpt lat="44.74209" lon="7.9419833"><ele>229.0</ele><time>2026-04-25T14:06:38.103Z</time></trkpt><trkpt lat="44.7419" lon="7.9421"><ele>229.0</ele><time>2026-04-25T14:06:39.103Z</time></trkpt><trkpt lat="44.7417083" lon="7.9422117"><ele>229.66666666666666</ele><time>2026-04-25T14:06:40.103Z</time></trkpt><trkpt lat="44.7415117" lon="7.9423267"><ele>230.33333333333331</ele><time>2026-04-25T14:06:41.103Z</time></trkpt><trkpt lat="44.7413183" lon="7.9424417"><ele>231.0</ele><time>2026-04-25T14:06:42.103Z</time></trkpt><trkpt lat="44.7411317" lon="7.942565"><ele>228.33333333333331</ele><time>2026-04-25T14:06:43.103Z</time></trkpt><trkpt lat="44.7409417" lon="7.942695"><ele>225.66666666666666</ele><time>2026-04-25T14:06:44.103Z</time></trkpt><trkpt lat="44.74075" lon="7.9428417"><ele>223.0</ele><time>2026-04-25T14:06:45.103Z</time></trkpt><trkpt lat="44.7405583" lon="7.943"><ele>223.0</ele><time>2026-04-25T14:06:46.103Z</time></trkpt><trkpt lat="44.740365" lon="7.943155"><ele>223.0</ele><time>2026-04-25T14:06:47.103Z</time></trkpt><trkpt lat="44.7401867" lon="7.943305"><ele>223.0</ele><time>2026-04-25T14:06:48.103Z</time></trkpt><trkpt lat="44.740005" lon="7.9434617"><ele>222.33333333333331</ele><time>2026-04-25T14:06:49.103Z</time></trkpt><trkpt lat="44.7398217" lon="7.9436183"><ele>221.66666666666669</ele><time>2026-04-25T14:06:50.103Z</time></trkpt><trkpt lat="44.7396383" lon="7.9437483"><ele>221.0</ele><time>2026-04-25T14:06:51.103Z</time></trkpt><trkpt lat="44.73944" lon="7.9438433"><ele>221.0</ele><time>2026-04-25T14:06:52.103Z</time></trkpt><trkpt lat="44.7392433" lon="7.9439083"><ele>221.0</ele><time>2026-04-25T14:06:53.103Z</time></trkpt><trkpt lat="44.739045" lon="7.94395"><ele>221.0</ele><time>2026-04-25T14:06:54.103Z</time></trkpt><trkpt lat="44.7388517" lon="7.9439583"><ele>221.0</ele><time>2026-04-25T14:06:55.103Z</time></trkpt><trkpt lat="44.7386583" lon="7.943965"><ele>221.0</ele><time>2026-04-25T14:06:56.103Z</time></trkpt><trkpt lat="44.7384667" lon="7.9439933"><ele>221.0</ele><time>2026-04-25T14:06:57.103Z</time></trkpt><trkpt lat="44.7382917" lon="7.9440617"><ele>220.0</ele><time>2026-04-25T14:06:58.103Z</time></trkpt><trkpt lat="44.7381267" lon="7.94418"><ele>219.0</ele><time>2026-04-25T14:06:59.103Z</time></trkpt><trkpt lat="44.7379617" lon="7.9443217"><ele>218.0</ele><time>2026-04-25T14:07:00.103Z</time></trkpt><trkpt lat="44.737785" lon="7.9444583"><ele>220.0</ele><time>2026-04-25T14:07:01.103Z</time></trkpt><trkpt lat="44.737615" lon="7.9445983"><ele>222.0</ele><time>2026-04-25T14:07:02.103Z</time></trkpt><trkpt lat="44.73745" lon="7.9447417"><ele>224.0</ele><time>2026-04-25T14:07:03.103Z</time></trkpt><trkpt lat="44.7372967" lon="7.944875"><ele>224.0</ele><time>2026-04-25T14:07:04.103Z</time></trkpt><trkpt lat="44.7371417" lon="7.9450183"><ele>224.0</ele><time>2026-04-25T14:07:05.103Z</time></trkpt><trkpt lat="44.7369883" lon="7.9451767"><ele>224.0</ele><time>2026-04-25T14:07:06.103Z</time></trkpt><trkpt lat="44.7368467" lon="7.9453583"><ele>223.66666666666669</ele><time>2026-04-25T14:07:07.103Z</time></trkpt><trkpt lat="44.7367033" lon="7.9455333"><ele>223.33333333333331</ele><time>2026-04-25T14:07:08.103Z</time></trkpt><trkpt lat="44.7365533" lon="7.94571"><ele>223.0</ele><time>2026-04-25T14:07:09.103Z</time></trkpt><trkpt lat="44.736415" lon="7.9459"><ele>224.66666666666666</ele><time>2026-04-25T14:07:10.103Z</time></trkpt><trkpt lat="44.7362867" lon="7.94608"><ele>226.33333333333331</ele><time>2026-04-25T14:07:11.103Z</time></trkpt><trkpt lat="44.7361567" lon="7.94627"><ele>228.0</ele><time>2026-04-25T14:07:12.103Z</time></trkpt><trkpt lat="44.736035" lon="7.946465"><ele>223.33333333333331</ele><time>2026-04-25T14:07:13.103Z</time></trkpt><trkpt lat="44.7359267" lon="7.946665"><ele>218.66666666666666</ele><time>2026-04-25T14:07:14.103Z</time></trkpt><trkpt lat="44.7358267" lon="7.946875"><ele>214.0</ele><time>2026-04-25T14:07:15.103Z</time></trkpt><trkpt lat="44.7357333" lon="7.9470867"><ele>214.0</ele><time>2026-04-25T14:07:16.103Z</time></trkpt><trkpt lat="44.7356433" lon="7.9472867"><ele>214.0</ele><time>2026-04-25T14:07:17.103Z</time></trkpt><trkpt lat="44.7355567" lon="7.9474717"><ele>214.0</ele><time>2026-04-25T14:07:18.103Z</time></trkpt><trkpt lat="44.7354717" lon="7.9476517"><ele>213.75</ele><time>2026-04-25T14:07:19.103Z</time></trkpt><trkpt lat="44.7353933" lon="7.9478383"><ele>213.5</ele><time>2026-04-25T14:07:20.103Z</time></trkpt><trkpt lat="44.73532" lon="7.9480217"><ele>213.25</ele><time>2026-04-25T14:07:21.103Z</time></trkpt><trkpt lat="44.7352517" lon="7.9481817"><ele>213.0</ele><time>2026-04-25T14:07:22.103Z</time></trkpt><trkpt lat="44.7351917" lon="7.9483333"><ele>213.0</ele><time>2026-04-25T14:07:23.103Z</time></trkpt><trkpt lat="44.735135" lon="7.9484617"><ele>213.0</ele><time>2026-04-25T14:07:24.103Z</time></trkpt><trkpt lat="44.73508" lon="7.9485633"><ele>213.0</ele><time>2026-04-25T14:07:25.103Z</time></trkpt><trkpt lat="44.7350317" lon="7.94864"><ele>213.0</ele><time>2026-04-25T14:07:26.103Z</time></trkpt><trkpt lat="44.7349717" lon="7.948695"><ele>213.0</ele><time>2026-04-25T14:07:27.103Z</time></trkpt><trkpt lat="44.7349033" lon="7.9487083"><ele>213.0</ele><time>2026-04-25T14:07:28.103Z</time></trkpt><trkpt lat="44.7348483" lon="7.94866"><ele>213.0</ele><time>2026-04-25T14:07:29.103Z</time></trkpt><trkpt lat="44.7348167" lon="7.9485567"><ele>213.0</ele><time>2026-04-25T14:07:30.103Z</time></trkpt><trkpt lat="44.73478" lon="7.9484433"><ele>213.0</ele><time>2026-04-25T14:07:31.103Z</time></trkpt><trkpt lat="44.7347683" lon="7.9482967"><ele>213.0</ele><time>2026-04-25T14:07:32.103Z</time></trkpt><trkpt lat="44.7347567" lon="7.9481233"><ele>213.0</ele><time>2026-04-25T14:07:33.103Z</time></trkpt><trkpt lat="44.734735" lon="7.9479467"><ele>213.0</ele><time>2026-04-25T14:07:34.103Z</time></trkpt><trkpt lat="44.7347133" lon="7.9477617"><ele>213.0</ele><time>2026-04-25T14:07:35.103Z</time></trkpt><trkpt lat="44.734695" lon="7.9475517"><ele>213.0</ele><time>2026-04-25T14:07:36.103Z</time></trkpt><trkpt lat="44.7346717" lon="7.9473333"><ele>213.0</ele><time>2026-04-25T14:07:37.103Z</time></trkpt><trkpt lat="44.73465" lon="7.9471117"><ele>212.66666666666669</ele><time>2026-04-25T14:07:38.103Z</time></trkpt><trkpt lat="44.7346317" lon="7.9468783"><ele>212.33333333333334</ele><time>2026-04-25T14:07:39.103Z</time></trkpt><trkpt lat="44.7346083" lon="7.9466367"><ele>212.0</ele><time>2026-04-25T14:07:40.103Z</time></trkpt><trkpt lat="44.734575" lon="7.946385"><ele>211.66666666666669</ele><time>2026-04-25T14:07:41.103Z</time></trkpt><trkpt lat="44.7345417" lon="7.9461233"><ele>211.33333333333331</ele><time>2026-04-25T14:07:42.103Z</time></trkpt><trkpt lat="44.7345117" lon="7.94586"><ele>211.0</ele><time>2026-04-25T14:07:43.103Z</time></trkpt><trkpt lat="44.7344833" lon="7.9455867"><ele>210.66666666666666</ele><time>2026-04-25T14:07:44.103Z</time></trkpt><trkpt lat="44.7344567" lon="7.9452933"><ele>210.33333333333331</ele><time>2026-04-25T14:07:45.103Z</time></trkpt><trkpt lat="44.7344233" lon="7.9450083"><ele>210.0</ele><time>2026-04-25T14:07:46.103Z</time></trkpt><trkpt lat="44.7343917" lon="7.9447167"><ele>211.0</ele><time>2026-04-25T14:07:47.103Z</time></trkpt><trkpt lat="44.73436" lon="7.944425"><ele>212.0</ele><time>2026-04-25T14:07:48.103Z</time></trkpt><trkpt lat="44.7343267" lon="7.9441317"><ele>213.0</ele><time>2026-04-25T14:07:49.103Z</time></trkpt><trkpt lat="44.7342967" lon="7.9438383"><ele>215.0</ele><time>2026-04-25T14:07:50.103Z</time></trkpt><trkpt lat="44.7342683" lon="7.9435483"><ele>217.0</ele><time>2026-04-25T14:07:51.103Z</time></trkpt><trkpt lat="44.73424" lon="7.94326"><ele>219.0</ele><time>2026-04-25T14:07:52.103Z</time></trkpt><trkpt lat="44.734225" lon="7.9429767"><ele>219.33333333333331</ele><time>2026-04-25T14:07:53.103Z</time></trkpt><trkpt lat="44.734215" lon="7.9426883"><ele>219.66666666666666</ele><time>2026-04-25T14:07:54.103Z</time></trkpt><trkpt lat="44.734205" lon="7.9424"><ele>220.0</ele><time>2026-04-25T14:07:55.103Z</time></trkpt><trkpt lat="44.7342183" lon="7.9420967"><ele>220.0</ele><time>2026-04-25T14:07:56.103Z</time></trkpt><trkpt lat="44.734235" lon="7.9418017"><ele>220.0</ele><time>2026-04-25T14:07:57.103Z</time></trkpt><trkpt lat="44.7342717" lon="7.9415217"><ele>220.0</ele><time>2026-04-25T14:07:58.103Z</time></trkpt><trkpt lat="44.73431" lon="7.9412733"><ele>219.66666666666666</ele><time>2026-04-25T14:07:59.103Z</time></trkpt><trkpt lat="44.7343617" lon="7.94102"><ele>219.33333333333331</ele><time>2026-04-25T14:08:00.103Z</time></trkpt><trkpt lat="44.7344333" lon="7.940765"><ele>219.0</ele><time>2026-04-25T14:08:01.103Z</time></trkpt><trkpt lat="44.73451" lon="7.9405233"><ele>219.66666666666669</ele><time>2026-04-25T14:08:02.103Z</time></trkpt><trkpt lat="44.73461" lon="7.9402683"><ele>220.33333333333334</ele><time>2026-04-25T14:08:03.103Z</time></trkpt><trkpt lat="44.73471" lon="7.939985"><ele>221.0</ele><time>2026-04-25T14:08:04.103Z</time></trkpt><trkpt lat="44.7348167" lon="7.9396667"><ele>221.0</ele><time>2026-04-25T14:08:05.103Z</time></trkpt><trkpt lat="44.73492" lon="7.93936"><ele>221.0</ele><time>2026-04-25T14:08:06.103Z</time></trkpt><trkpt lat="44.7350333" lon="7.9390833"><ele>219.5</ele><time>2026-04-25T14:08:07.103Z</time></trkpt><trkpt lat="44.7351417" lon="7.9388117"><ele>218.0</ele><time>2026-04-25T14:08:08.103Z</time></trkpt><trkpt lat="44.735245" lon="7.9385233"><ele>223.0</ele><time>2026-04-25T14:08:09.103Z</time></trkpt><trkpt lat="44.735355" lon="7.9382433"><ele>228.0</ele><time>2026-04-25T14:08:10.103Z</time></trkpt><trkpt lat="44.7354567" lon="7.9379533"><ele>228.0</ele><time>2026-04-25T14:08:11.103Z</time></trkpt><trkpt lat="44.7355583" lon="7.9376567"><ele>228.0</ele><time>2026-04-25T14:08:12.103Z</time></trkpt><trkpt lat="44.7356617" lon="7.9373667"><ele>226.0</ele><time>2026-04-25T14:08:13.103Z</time></trkpt><trkpt lat="44.735765" lon="7.9370767"><ele>224.0</ele><time>2026-04-25T14:08:14.103Z</time></trkpt><trkpt lat="44.7358783" lon="7.936785"><ele>222.5</ele><time>2026-04-25T14:08:15.103Z</time></trkpt><trkpt lat="44.7359783" lon="7.9364867"><ele>221.0</ele><time>2026-04-25T14:08:16.103Z</time></trkpt><trkpt lat="44.736085" lon="7.9361867"><ele>222.0</ele><time>2026-04-25T14:08:17.103Z</time></trkpt><trkpt lat="44.73619" lon="7.93589"><ele>223.0</ele><time>2026-04-25T14:08:18.103Z</time></trkpt><trkpt lat="44.736305" lon="7.9355983"><ele>223.0</ele><time>2026-04-25T14:08:19.103Z</time></trkpt><trkpt lat="44.736415" lon="7.935295"><ele>223.0</ele><time>2026-04-25T14:08:20.103Z</time></trkpt><trkpt lat="44.7365183" lon="7.9349933"><ele>222.0</ele><time>2026-04-25T14:08:21.103Z</time></trkpt><trkpt lat="44.7366167" lon="7.9346933"><ele>221.0</ele><time>2026-04-25T14:08:22.103Z</time></trkpt><trkpt lat="44.7367233" lon="7.9344"><ele>221.0</ele><time>2026-04-25T14:08:23.103Z</time></trkpt><trkpt lat="44.7368283" lon="7.9341083"><ele>221.0</ele><time>2026-04-25T14:08:24.103Z</time></trkpt><trkpt lat="44.7369317" lon="7.9338117"><ele>223.5</ele><time>2026-04-25T14:08:25.103Z</time></trkpt><trkpt lat="44.7370333" lon="7.9335183"><ele>226.0</ele><time>2026-04-25T14:08:26.103Z</time></trkpt><trkpt lat="44.73714" lon="7.9332267"><ele>227.0</ele><time>2026-04-25T14:08:27.103Z</time></trkpt><trkpt lat="44.737245" lon="7.9329367"><ele>228.0</ele><time>2026-04-25T14:08:28.103Z</time></trkpt><trkpt lat="44.73734" lon="7.9326517"><ele>227.66666666666669</ele><time>2026-04-25T14:08:29.103Z</time></trkpt><trkpt lat="44.7374417" lon="7.932375"><ele>227.33333333333334</ele><time>2026-04-25T14:08:30.103Z</time></trkpt><trkpt lat="44.7375417" lon="7.9320967"><ele>227.0</ele><time>2026-04-25T14:08:31.103Z</time></trkpt><trkpt lat="44.7376467" lon="7.9318217"><ele>231.33333333333334</ele><time>2026-04-25T14:08:32.103Z</time></trkpt><trkpt lat="44.7377383" lon="7.9315517"><ele>235.66666666666669</ele><time>2026-04-25T14:08:33.103Z</time></trkpt><trkpt lat="44.7377933" lon="7.93127"><ele>240.0</ele><time>2026-04-25T14:08:34.103Z</time></trkpt><trkpt lat="44.737815" lon="7.9310017"><ele>244.0</ele><time>2026-04-25T14:08:35.103Z</time></trkpt><trkpt lat="44.73781" lon="7.9307217"><ele>248.0</ele><time>2026-04-25T14:08:36.103Z</time></trkpt><trkpt lat="44.73777" lon="7.93043"><ele>252.0</ele><time>2026-04-25T14:08:37.103Z</time></trkpt><trkpt lat="44.7377333" lon="7.9301367"><ele>246.0</ele><time>2026-04-25T14:08:38.103Z</time></trkpt><trkpt lat="44.7376867" lon="7.9298467"><ele>240.0</ele><time>2026-04-25T14:08:39.103Z</time></trkpt><trkpt lat="44.7376367" lon="7.9295467"><ele>234.0</ele><time>2026-04-25T14:08:40.103Z</time></trkpt><trkpt lat="44.7375883" lon="7.929245"><ele>234.33333333333331</ele><time>2026-04-25T14:08:41.103Z</time></trkpt><trkpt lat="44.73754" lon="7.92895"><ele>234.66666666666666</ele><time>2026-04-25T14:08:42.103Z</time></trkpt><trkpt lat="44.7374917" lon="7.928675"><ele>235.0</ele><time>2026-04-25T14:08:43.103Z</time></trkpt><trkpt lat="44.7374533" lon="7.9283967"><ele>235.33333333333331</ele><time>2026-04-25T14:08:44.103Z</time></trkpt><trkpt lat="44.73742" lon="7.92812"><ele>235.66666666666669</ele><time>2026-04-25T14:08:45.103Z</time></trkpt><trkpt lat="44.7373817" lon="7.9278383"><ele>236.0</ele><time>2026-04-25T14:08:46.103Z</time></trkpt><trkpt lat="44.7373633" lon="7.9275717"><ele>236.66666666666669</ele><time>2026-04-25T14:08:47.103Z</time></trkpt><trkpt lat="44.7373783" lon="7.927285"><ele>237.33333333333331</ele><time>2026-04-25T14:08:48.103Z</time></trkpt><trkpt lat="44.7374233" lon="7.9270117"><ele>238.0</ele><time>2026-04-25T14:08:49.103Z</time></trkpt><trkpt lat="44.737495" lon="7.9267367"><ele>238.66666666666666</ele><time>2026-04-25T14:08:50.103Z</time></trkpt><trkpt lat="44.7375667" lon="7.9265033"><ele>239.33333333333331</ele><time>2026-04-25T14:08:51.103Z</time></trkpt><trkpt lat="44.7376317" lon="7.9262867"><ele>240.0</ele><time>2026-04-25T14:08:52.103Z</time></trkpt><trkpt lat="44.7377283" lon="7.9260883"><ele>244.0</ele><time>2026-04-25T14:08:53.103Z</time></trkpt><trkpt lat="44.73784" lon="7.9259083"><ele>248.0</ele><time>2026-04-25T14:08:54.103Z</time></trkpt><trkpt lat="44.7379617" lon="7.925735"><ele>252.0</ele><time>2026-04-25T14:08:55.103Z</time></trkpt><trkpt lat="44.7380767" lon="7.9255667"><ele>252.0</ele><time>2026-04-25T14:08:56.103Z</time></trkpt><trkpt lat="44.7381883" lon="7.925395"><ele>252.0</ele><time>2026-04-25T14:08:57.103Z</time></trkpt><trkpt lat="44.7382933" lon="7.9252133"><ele>252.0</ele><time>2026-04-25T14:08:58.103Z</time></trkpt><trkpt lat="44.7384183" lon="7.9250383"><ele>250.0</ele><time>2026-04-25T14:08:59.103Z</time></trkpt><trkpt lat="44.7385317" lon="7.9248633"><ele>248.0</ele><time>2026-04-25T14:09:00.103Z</time></trkpt><trkpt lat="44.738655" lon="7.9247033"><ele>246.0</ele><time>2026-04-25T14:09:01.103Z</time></trkpt><trkpt lat="44.7387817" lon="7.9245483"><ele>249.33333333333331</ele><time>2026-04-25T14:09:02.103Z</time></trkpt><trkpt lat="44.7389133" lon="7.9243967"><ele>252.66666666666666</ele><time>2026-04-25T14:09:03.103Z</time></trkpt><trkpt lat="44.7390267" lon="7.9242433"><ele>256.0</ele><time>2026-04-25T14:09:04.103Z</time></trkpt><trkpt lat="44.739125" lon="7.9240883"><ele>256.0</ele><time>2026-04-25T14:09:05.103Z</time></trkpt><trkpt lat="44.7391983" lon="7.923905"><ele>256.0</ele><time>2026-04-25T14:09:06.103Z</time></trkpt><trkpt lat="44.7392233" lon="7.9237417"><ele>256.0</ele><time>2026-04-25T14:09:07.103Z</time></trkpt><trkpt lat="44.7392167" lon="7.923555"><ele>256.0</ele><time>2026-04-25T14:09:08.103Z</time></trkpt><trkpt lat="44.739185" lon="7.9233617"><ele>256.0</ele><time>2026-04-25T14:09:09.103Z</time></trkpt><trkpt lat="44.739155" lon="7.9231783"><ele>256.0</ele><time>2026-04-25T14:09:10.103Z</time></trkpt><trkpt lat="44.7391433" lon="7.9230117"><ele>256.0</ele><time>2026-04-25T14:09:11.103Z</time></trkpt><trkpt lat="44.7391567" lon="7.9228633"><ele>256.0</ele><time>2026-04-25T14:09:12.103Z</time></trkpt><trkpt lat="44.7391917" lon="7.9227283"><ele>256.0</ele><time>2026-04-25T14:09:13.103Z</time></trkpt><trkpt lat="44.73927" lon="7.922605"><ele>256.0</ele><time>2026-04-25T14:09:14.103Z</time></trkpt><trkpt lat="44.7393783" lon="7.9225317"><ele>256.0</ele><time>2026-04-25T14:09:15.103Z</time></trkpt><trkpt lat="44.7395033" lon="7.9224683"><ele>256.0</ele><time>2026-04-25T14:09:16.103Z</time></trkpt><trkpt lat="44.739605" lon="7.92238"><ele>259.0</ele><time>2026-04-25T14:09:17.103Z</time></trkpt><trkpt lat="44.7396867" lon="7.9222317"><ele>262.0</ele><time>2026-04-25T14:09:18.103Z</time></trkpt><trkpt lat="44.7397367" lon="7.9220517"><ele>265.0</ele><time>2026-04-25T14:09:19.103Z</time></trkpt><trkpt lat="44.7397783" lon="7.921885"><ele>268.0</ele><time>2026-04-25T14:09:20.103Z</time></trkpt><trkpt lat="44.7398383" lon="7.921725"><ele>268.0</ele><time>2026-04-25T14:09:21.103Z</time></trkpt><trkpt lat="44.73993" lon="7.9215817"><ele>268.0</ele><time>2026-04-25T14:09:22.103Z</time></trkpt><trkpt lat="44.74003" lon="7.9214567"><ele>268.0</ele><time>2026-04-25T14:09:23.103Z</time></trkpt><trkpt lat="44.74015" lon="7.9213367"><ele>268.0</ele><time>2026-04-25T14:09:24.103Z</time></trkpt><trkpt lat="44.7402767" lon="7.9212033"><ele>271.0</ele><time>2026-04-25T14:09:25.103Z</time></trkpt><trkpt lat="44.74039" lon="7.9210483"><ele>274.0</ele><time>2026-04-25T14:09:26.103Z</time></trkpt><trkpt lat="44.74049" lon="7.9208717"><ele>277.0</ele><time>2026-04-25T14:09:27.103Z</time></trkpt><trkpt lat="44.7405733" lon="7.9206783"><ele>277.66666666666663</ele><time>2026-04-25T14:09:28.103Z</time></trkpt><trkpt lat="44.740655" lon="7.920465"><ele>278.3333333333333</ele><time>2026-04-25T14:09:29.103Z</time></trkpt><trkpt lat="44.740745" lon="7.9202633"><ele>279.0</ele><time>2026-04-25T14:09:30.103Z</time></trkpt><trkpt lat="44.7408317" lon="7.9200667"><ele>278.5</ele><time>2026-04-25T14:09:31.103Z</time></trkpt><trkpt lat="44.74091" lon="7.9198867"><ele>278.0</ele><time>2026-04-25T14:09:32.103Z</time></trkpt><trkpt lat="44.7409933" lon="7.9197067"><ele>277.5</ele><time>2026-04-25T14:09:33.103Z</time></trkpt><trkpt lat="44.7410733" lon="7.919535"><ele>277.0</ele><time>2026-04-25T14:09:34.103Z</time></trkpt><trkpt lat="44.7411483" lon="7.9193617"><ele>276.25</ele><time>2026-04-25T14:09:35.103Z</time></trkpt><trkpt lat="44.7412233" lon="7.919195"><ele>275.5</ele><time>2026-04-25T14:09:36.103Z</time></trkpt><trkpt lat="44.7412767" lon="7.9190317"><ele>274.75</ele><time>2026-04-25T14:09:37.103Z</time></trkpt><trkpt lat="44.74133" lon="7.918855"><ele>274.0</ele><time>2026-04-25T14:09:38.103Z</time></trkpt><trkpt lat="44.7413533" lon="7.918665"><ele>274.0</ele><time>2026-04-25T14:09:39.103Z</time></trkpt><trkpt lat="44.7413667" lon="7.918485"><ele>274.0</ele><time>2026-04-25T14:09:40.103Z</time></trkpt><trkpt lat="44.7413633" lon="7.918295"><ele>274.0</ele><time>2026-04-25T14:09:41.103Z</time></trkpt><trkpt lat="44.7413567" lon="7.91812"><ele>274.0</ele><time>2026-04-25T14:09:42.103Z</time></trkpt><trkpt lat="44.741355" lon="7.9179617"><ele>274.5</ele><time>2026-04-25T14:09:43.103Z</time></trkpt><trkpt lat="44.7413617" lon="7.917805"><ele>275.0</ele><time>2026-04-25T14:09:44.103Z</time></trkpt><trkpt lat="44.7413567" lon="7.9176433"><ele>275.5</ele><time>2026-04-25T14:09:45.103Z</time></trkpt><trkpt lat="44.741355" lon="7.9174767"><ele>276.0</ele><time>2026-04-25T14:09:46.103Z</time></trkpt><trkpt lat="44.7413517" lon="7.9173217"><ele>277.25</ele><time>2026-04-25T14:09:47.103Z</time></trkpt><trkpt lat="44.741355" lon="7.9171633"><ele>278.5</ele><time>2026-04-25T14:09:48.103Z</time></trkpt><trkpt lat="44.7413517" lon="7.91701"><ele>279.75</ele><time>2026-04-25T14:09:49.103Z</time></trkpt><trkpt lat="44.7413333" lon="7.9168467"><ele>281.0</ele><time>2026-04-25T14:09:50.103Z</time></trkpt><trkpt lat="44.7412967" lon="7.9166783"><ele>281.5</ele><time>2026-04-25T14:09:51.103Z</time></trkpt><trkpt lat="44.7412367" lon="7.9165167"><ele>282.0</ele><time>2026-04-25T14:09:52.103Z</time></trkpt><trkpt lat="44.7411567" lon="7.91639"><ele>282.5</ele><time>2026-04-25T14:09:53.103Z</time></trkpt><trkpt lat="44.7410633" lon="7.916275"><ele>283.0</ele><time>2026-04-25T14:09:54.103Z</time></trkpt><trkpt lat="44.7409667" lon="7.9161667"><ele>285.25</ele><time>2026-04-25T14:09:55.103Z</time></trkpt><trkpt lat="44.7408667" lon="7.9160717"><ele>287.5</ele><time>2026-04-25T14:09:56.103Z</time></trkpt><trkpt lat="44.7407567" lon="7.915985"><ele>289.75</ele><time>2026-04-25T14:09:57.103Z</time></trkpt><trkpt lat="44.740655" lon="7.9159017"><ele>292.0</ele><time>2026-04-25T14:09:58.103Z</time></trkpt><trkpt lat="44.7405567" lon="7.9158233"><ele>292.0</ele><time>2026-04-25T14:09:59.103Z</time></trkpt><trkpt lat="44.740465" lon="7.91575"><ele>292.0</ele><time>2026-04-25T14:10:00.103Z</time></trkpt><trkpt lat="44.7403783" lon="7.9156783"><ele>292.0</ele><time>2026-04-25T14:10:01.103Z</time></trkpt><trkpt lat="44.74029" lon="7.9156067"><ele>292.0</ele><time>2026-04-25T14:10:02.103Z</time></trkpt><trkpt lat="44.740205" lon="7.9155333"><ele>292.0</ele><time>2026-04-25T14:10:03.103Z</time></trkpt><trkpt lat="44.7401333" lon="7.91545"><ele>291.8</ele><time>2026-04-25T14:10:04.103Z</time></trkpt><trkpt lat="44.7400783" lon="7.91535"><ele>291.6</ele><time>2026-04-25T14:10:05.103Z</time></trkpt><trkpt lat="44.7400417" lon="7.915225"><ele>291.40000000000003</ele><time>2026-04-25T14:10:06.103Z</time></trkpt><trkpt lat="44.74003" lon="7.9150817"><ele>291.2</ele><time>2026-04-25T14:10:07.103Z</time></trkpt><trkpt lat="44.7400317" lon="7.91493"><ele>291.0</ele><time>2026-04-25T14:10:08.103Z</time></trkpt><trkpt lat="44.7400317" lon="7.9147717"><ele>292.25</ele><time>2026-04-25T14:10:09.103Z</time></trkpt><trkpt lat="44.7400167" lon="7.91461"><ele>293.5</ele><time>2026-04-25T14:10:10.103Z</time></trkpt><trkpt lat="44.7399783" lon="7.9144333"><ele>294.75</ele><time>2026-04-25T14:10:11.103Z</time></trkpt><trkpt lat="44.739935" lon="7.9142683"><ele>296.0</ele><time>2026-04-25T14:10:12.103Z</time></trkpt><trkpt lat="44.7398717" lon="7.91411"><ele>297.25</ele><time>2026-04-25T14:10:13.103Z</time></trkpt><trkpt lat="44.7397967" lon="7.9139733"><ele>298.5</ele><time>2026-04-25T14:10:14.103Z</time></trkpt><trkpt lat="44.7397083" lon="7.9138483"><ele>299.75</ele><time>2026-04-25T14:10:15.103Z</time></trkpt><trkpt lat="44.739605" lon="7.9137233"><ele>301.0</ele><time>2026-04-25T14:10:16.103Z</time></trkpt><trkpt lat="44.7395033" lon="7.9136067"><ele>301.0</ele><time>2026-04-25T14:10:17.103Z</time></trkpt><trkpt lat="44.7394033" lon="7.9134917"><ele>301.0</ele><time>2026-04-25T14:10:18.103Z</time></trkpt><trkpt lat="44.7393133" lon="7.9133767"><ele>301.0</ele><time>2026-04-25T14:10:19.103Z</time></trkpt><trkpt lat="44.7392333" lon="7.9132417"><ele>301.0</ele><time>2026-04-25T14:10:20.103Z</time></trkpt><trkpt lat="44.7391833" lon="7.913095"><ele>301.0</ele><time>2026-04-25T14:10:21.103Z</time></trkpt><trkpt lat="44.7391567" lon="7.9129467"><ele>301.0</ele><time>2026-04-25T14:10:22.103Z</time></trkpt><trkpt lat="44.7391633" lon="7.9127933"><ele>301.0</ele><time>2026-04-25T14:10:23.103Z</time></trkpt><trkpt lat="44.739205" lon="7.9126517"><ele>301.0</ele><time>2026-04-25T14:10:24.103Z</time></trkpt><trkpt lat="44.7392817" lon="7.9125417"><ele>301.0</ele><time>2026-04-25T14:10:25.103Z</time></trkpt><trkpt lat="44.7393733" lon="7.9124533"><ele>301.6</ele><time>2026-04-25T14:10:26.103Z</time></trkpt><trkpt lat="44.739465" lon="7.9123633"><ele>302.20000000000005</ele><time>2026-04-25T14:10:27.103Z</time></trkpt><trkpt lat="44.7395467" lon="7.9122767"><ele>302.79999999999995</ele><time>2026-04-25T14:10:28.103Z</time></trkpt><trkpt lat="44.739635" lon="7.9121983"><ele>303.4</ele><time>2026-04-25T14:10:29.103Z</time></trkpt><trkpt lat="44.7397167" lon="7.9121167"><ele>304.0</ele><time>2026-04-25T14:10:30.103Z</time></trkpt><trkpt lat="44.7398" lon="7.9120367"><ele>304.0</ele><time>2026-04-25T14:10:31.103Z</time></trkpt><trkpt lat="44.7398783" lon="7.911945"><ele>304.0</ele><time>2026-04-25T14:10:32.103Z</time></trkpt><trkpt lat="44.7399633" lon="7.9118617"><ele>304.0</ele><time>2026-04-25T14:10:33.103Z</time></trkpt><trkpt lat="44.7400467" lon="7.9117817"><ele>304.0</ele><time>2026-04-25T14:10:34.103Z</time></trkpt><trkpt lat="44.7401267" lon="7.9116983"><ele>304.0</ele><time>2026-04-25T14:10:35.103Z</time></trkpt><trkpt lat="44.740185" lon="7.91159"><ele>306.59999999999997</ele><time>2026-04-25T14:10:36.103Z</time></trkpt><trkpt lat="44.74021" lon="7.91146"><ele>309.2</ele><time>2026-04-25T14:10:37.103Z</time></trkpt><trkpt lat="44.74021" lon="7.911325"><ele>311.79999999999995</ele><time>2026-04-25T14:10:38.103Z</time></trkpt><trkpt lat="44.7401933" lon="7.911205"><ele>314.4</ele><time>2026-04-25T14:10:39.103Z</time></trkpt><trkpt lat="44.7401783" lon="7.9110833"><ele>317.0</ele><time>2026-04-25T14:10:40.103Z</time></trkpt><trkpt lat="44.7401583" lon="7.9109567"><ele>318.1666666666667</ele><time>2026-04-25T14:10:41.103Z</time></trkpt><trkpt lat="44.7401483" lon="7.9108317"><ele>319.33333333333337</ele><time>2026-04-25T14:10:42.103Z</time></trkpt><trkpt lat="44.74015" lon="7.9107017"><ele>320.5</ele><time>2026-04-25T14:10:43.103Z</time></trkpt><trkpt lat="44.7401533" lon="7.9105767"><ele>321.6666666666667</ele><time>2026-04-25T14:10:44.103Z</time></trkpt><trkpt lat="44.7401567" lon="7.91046"><ele>322.8333333333333</ele><time>2026-04-25T14:10:45.103Z</time></trkpt><trkpt lat="44.7401517" lon="7.9103583"><ele>324.0</ele><time>2026-04-25T14:10:46.103Z</time></trkpt><trkpt lat="44.740125" lon="7.9102267"><ele>324.0</ele><time>2026-04-25T14:10:48.103Z</time></trkpt><trkpt lat="44.7400383" lon="7.910145"><ele>324.0</ele><time>2026-04-25T14:10:50.103Z</time></trkpt><trkpt lat="44.7399683" lon="7.9101017"><ele>324.0</ele><time>2026-04-25T14:10:51.103Z</time></trkpt><trkpt lat="44.7398967" lon="7.9100417"><ele>324.0</ele><time>2026-04-25T14:10:52.103Z</time></trkpt><trkpt lat="44.739825" lon="7.9099583"><ele>324.0</ele><time>2026-04-25T14:10:53.103Z</time></trkpt><trkpt lat="44.739765" lon="7.909845"><ele>325.0</ele><time>2026-04-25T14:10:54.103Z</time></trkpt><trkpt lat="44.7397117" lon="7.909705"><ele>326.0</ele><time>2026-04-25T14:10:55.103Z</time></trkpt><trkpt lat="44.73966" lon="7.9095533"><ele>327.0</ele><time>2026-04-25T14:10:56.103Z</time></trkpt><trkpt lat="44.7396317" lon="7.9093783"><ele>328.0</ele><time>2026-04-25T14:10:57.103Z</time></trkpt><trkpt lat="44.7396117" lon="7.9091933"><ele>328.5</ele><time>2026-04-25T14:10:58.104Z</time></trkpt><trkpt lat="44.739595" lon="7.9090167"><ele>329.0</ele><time>2026-04-25T14:10:59.103Z</time></trkpt><trkpt lat="44.7395767" lon="7.90884"><ele>329.5</ele><time>2026-04-25T14:11:00.103Z</time></trkpt><trkpt lat="44.7395283" lon="7.90868"><ele>330.0</ele><time>2026-04-25T14:11:01.103Z</time></trkpt><trkpt lat="44.7394467" lon="7.9085517"><ele>327.0</ele><time>2026-04-25T14:11:02.103Z</time></trkpt><trkpt lat="44.7393367" lon="7.9084367"><ele>324.0</ele><time>2026-04-25T14:11:03.103Z</time></trkpt><trkpt lat="44.73923" lon="7.9083233"><ele>321.0</ele><time>2026-04-25T14:11:04.103Z</time></trkpt><trkpt lat="44.7391333" lon="7.9081883"><ele>318.0</ele><time>2026-04-25T14:11:05.103Z</time></trkpt><trkpt lat="44.73906" lon="7.9080333"><ele>318.0</ele><time>2026-04-25T14:11:06.103Z</time></trkpt><trkpt lat="44.7390033" lon="7.907865"><ele>318.0</ele><time>2026-04-25T14:11:07.103Z</time></trkpt><trkpt lat="44.7389517" lon="7.9077017"><ele>318.0</ele><time>2026-04-25T14:11:08.103Z</time></trkpt><trkpt lat="44.7389067" lon="7.90754"><ele>318.0</ele><time>2026-04-25T14:11:09.103Z</time></trkpt><trkpt lat="44.7388767" lon="7.9073783"><ele>317.5</ele><time>2026-04-25T14:11:10.103Z</time></trkpt><trkpt lat="44.7388883" lon="7.9071967"><ele>317.0</ele><time>2026-04-25T14:11:11.103Z</time></trkpt><trkpt lat="44.7389067" lon="7.9070167"><ele>316.5</ele><time>2026-04-25T14:11:12.103Z</time></trkpt><trkpt lat="44.7389583" lon="7.9068467"><ele>316.0</ele><time>2026-04-25T14:11:13.103Z</time></trkpt><trkpt lat="44.7390133" lon="7.9066633"><ele>316.0</ele><time>2026-04-25T14:11:14.103Z</time></trkpt><trkpt lat="44.7390367" lon="7.9064833"><ele>316.0</ele><time>2026-04-25T14:11:15.103Z</time></trkpt><trkpt lat="44.7390167" lon="7.906295"><ele>316.0</ele><time>2026-04-25T14:11:16.103Z</time></trkpt><trkpt lat="44.7389667" lon="7.9061433"><ele>316.0</ele><time>2026-04-25T14:11:17.103Z</time></trkpt><trkpt lat="44.7388767" lon="7.90601"><ele>318.25</ele><time>2026-04-25T14:11:18.103Z</time></trkpt><trkpt lat="44.7387617" lon="7.9059"><ele>320.5</ele><time>2026-04-25T14:11:19.103Z</time></trkpt><trkpt lat="44.738625" lon="7.9058017"><ele>322.75</ele><time>2026-04-25T14:11:20.103Z</time></trkpt><trkpt lat="44.7384883" lon="7.905705"><ele>325.0</ele><time>2026-04-25T14:11:21.103Z</time></trkpt><trkpt lat="44.7383483" lon="7.9055917"><ele>319.0</ele><time>2026-04-25T14:11:22.103Z</time></trkpt><trkpt lat="44.7382083" lon="7.9054783"><ele>313.0</ele><time>2026-04-25T14:11:23.103Z</time></trkpt><trkpt lat="44.7380583" lon="7.90537"><ele>307.0</ele><time>2026-04-25T14:11:24.103Z</time></trkpt><trkpt lat="44.7379117" lon="7.9052583"><ele>307.0</ele><time>2026-04-25T14:11:25.103Z</time></trkpt><trkpt lat="44.7377683" lon="7.9051433"><ele>307.0</ele><time>2026-04-25T14:11:26.103Z</time></trkpt><trkpt lat="44.7376233" lon="7.9050333"><ele>307.0</ele><time>2026-04-25T14:11:27.103Z</time></trkpt><trkpt lat="44.73748" lon="7.9049283"><ele>305.5</ele><time>2026-04-25T14:11:28.103Z</time></trkpt><trkpt lat="44.7373483" lon="7.90482"><ele>304.0</ele><time>2026-04-25T14:11:29.103Z</time></trkpt><trkpt lat="44.7372267" lon="7.90472"><ele>302.5</ele><time>2026-04-25T14:11:30.103Z</time></trkpt><trkpt lat="44.7371083" lon="7.9046217"><ele>301.0</ele><time>2026-04-25T14:11:31.103Z</time></trkpt><trkpt lat="44.737005" lon="7.9044917"><ele>301.0</ele><time>2026-04-25T14:11:32.103Z</time></trkpt><trkpt lat="44.73693" lon="7.9043383"><ele>301.0</ele><time>2026-04-25T14:11:33.103Z</time></trkpt><trkpt lat="44.7368817" lon="7.9041767"><ele>301.0</ele><time>2026-04-25T14:11:34.103Z</time></trkpt><trkpt lat="44.7368783" lon="7.9039783"><ele>301.0</ele><time>2026-04-25T14:11:35.103Z</time></trkpt><trkpt lat="44.7368883" lon="7.9037867"><ele>301.66666666666663</ele><time>2026-04-25T14:11:36.103Z</time></trkpt><trkpt lat="44.7369167" lon="7.9035633"><ele>302.3333333333333</ele><time>2026-04-25T14:11:37.103Z</time></trkpt><trkpt lat="44.7369133" lon="7.9033367"><ele>303.0</ele><time>2026-04-25T14:11:38.103Z</time></trkpt><trkpt lat="44.73688" lon="7.9031167"><ele>300.3333333333333</ele><time>2026-04-25T14:11:39.103Z</time></trkpt><trkpt lat="44.7368117" lon="7.9029217"><ele>297.66666666666663</ele><time>2026-04-25T14:11:40.103Z</time></trkpt><trkpt lat="44.73674" lon="7.90273"><ele>295.0</ele><time>2026-04-25T14:11:41.103Z</time></trkpt><trkpt lat="44.73666" lon="7.902535"><ele>294.0</ele><time>2026-04-25T14:11:42.103Z</time></trkpt><trkpt lat="44.736575" lon="7.90235"><ele>293.0</ele><time>2026-04-25T14:11:43.103Z</time></trkpt><trkpt lat="44.7364933" lon="7.902165"><ele>292.0</ele><time>2026-04-25T14:11:44.103Z</time></trkpt><trkpt lat="44.736405" lon="7.9019983"><ele>292.0</ele><time>2026-04-25T14:11:45.103Z</time></trkpt><trkpt lat="44.7363017" lon="7.9018517"><ele>292.0</ele><time>2026-04-25T14:11:46.103Z</time></trkpt><trkpt lat="44.7361867" lon="7.90172"><ele>292.0</ele><time>2026-04-25T14:11:47.103Z</time></trkpt><trkpt lat="44.7360483" lon="7.9016167"><ele>291.3333333333333</ele><time>2026-04-25T14:11:48.103Z</time></trkpt><trkpt lat="44.7358917" lon="7.9015367"><ele>290.6666666666667</ele><time>2026-04-25T14:11:49.103Z</time></trkpt><trkpt lat="44.7357183" lon="7.9014817"><ele>290.0</ele><time>2026-04-25T14:11:50.103Z</time></trkpt><trkpt lat="44.735545" lon="7.90146"><ele>290.0</ele><time>2026-04-25T14:11:51.103Z</time></trkpt><trkpt lat="44.7353633" lon="7.9014767"><ele>290.0</ele><time>2026-04-25T14:11:52.103Z</time></trkpt><trkpt lat="44.73518" lon="7.901505"><ele>290.0</ele><time>2026-04-25T14:11:53.103Z</time></trkpt><trkpt lat="44.7349883" lon="7.9015367"><ele>289.0</ele><time>2026-04-25T14:11:54.103Z</time></trkpt><trkpt lat="44.7347917" lon="7.90157"><ele>288.0</ele><time>2026-04-25T14:11:55.103Z</time></trkpt><trkpt lat="44.7345917" lon="7.9015933"><ele>287.0</ele><time>2026-04-25T14:11:56.103Z</time></trkpt><trkpt lat="44.7343917" lon="7.9016217"><ele>285.6666666666667</ele><time>2026-04-25T14:11:57.103Z</time></trkpt><trkpt lat="44.7341983" lon="7.9016483"><ele>284.3333333333333</ele><time>2026-04-25T14:11:58.103Z</time></trkpt><trkpt lat="44.7340017" lon="7.9016817"><ele>283.0</ele><time>2026-04-25T14:11:59.103Z</time></trkpt><trkpt lat="44.7338083" lon="7.9017083"><ele>283.0</ele><time>2026-04-25T14:12:00.103Z</time></trkpt><trkpt lat="44.7336167" lon="7.9017417"><ele>283.0</ele><time>2026-04-25T14:12:01.103Z</time></trkpt><trkpt lat="44.7334283" lon="7.9017767"><ele>283.0</ele><time>2026-04-25T14:12:02.103Z</time></trkpt><trkpt lat="44.7332267" lon="7.9018017"><ele>283.66666666666663</ele><time>2026-04-25T14:12:03.103Z</time></trkpt><trkpt lat="44.73304" lon="7.9018283"><ele>284.3333333333333</ele><time>2026-04-25T14:12:04.103Z</time></trkpt><trkpt lat="44.7328483" lon="7.9018517"><ele>285.0</ele><time>2026-04-25T14:12:05.103Z</time></trkpt><trkpt lat="44.73266" lon="7.9018883"><ele>285.0</ele><time>2026-04-25T14:12:06.103Z</time></trkpt><trkpt lat="44.7324667" lon="7.9019233"><ele>285.0</ele><time>2026-04-25T14:12:07.103Z</time></trkpt><trkpt lat="44.732275" lon="7.901945"><ele>285.0</ele><time>2026-04-25T14:12:08.103Z</time></trkpt><trkpt lat="44.7321" lon="7.90196"><ele>285.0</ele><time>2026-04-25T14:12:09.103Z</time></trkpt><trkpt lat="44.7319267" lon="7.90193"><ele>285.0</ele><time>2026-04-25T14:12:10.103Z</time></trkpt><trkpt lat="44.7317667" lon="7.9018783"><ele>285.0</ele><time>2026-04-25T14:12:11.103Z</time></trkpt><trkpt lat="44.731615" lon="7.9017967"><ele>282.3333333333333</ele><time>2026-04-25T14:12:12.103Z</time></trkpt><trkpt lat="44.7314733" lon="7.9017033"><ele>279.66666666666663</ele><time>2026-04-25T14:12:13.103Z</time></trkpt><trkpt lat="44.7313267" lon="7.90163"><ele>277.0</ele><time>2026-04-25T14:12:14.103Z</time></trkpt><trkpt lat="44.7311817" lon="7.90155"><ele>278.0</ele><time>2026-04-25T14:12:15.103Z</time></trkpt><trkpt lat="44.7310167" lon="7.90148"><ele>279.0</ele><time>2026-04-25T14:12:16.103Z</time></trkpt><trkpt lat="44.7308467" lon="7.90144"><ele>280.0</ele><time>2026-04-25T14:12:17.103Z</time></trkpt><trkpt lat="44.7306667" lon="7.901445"><ele>280.0</ele><time>2026-04-25T14:12:18.103Z</time></trkpt><trkpt lat="44.7304817" lon="7.901495"><ele>280.0</ele><time>2026-04-25T14:12:19.103Z</time></trkpt><trkpt lat="44.7302967" lon="7.90154"><ele>280.0</ele><time>2026-04-25T14:12:20.103Z</time></trkpt><trkpt lat="44.7301167" lon="7.9015917"><ele>278.66666666666663</ele><time>2026-04-25T14:12:21.103Z</time></trkpt><trkpt lat="44.72994" lon="7.90163"><ele>277.3333333333333</ele><time>2026-04-25T14:12:22.103Z</time></trkpt><trkpt lat="44.729775" lon="7.9016733"><ele>276.0</ele><time>2026-04-25T14:12:23.103Z</time></trkpt><trkpt lat="44.7295983" lon="7.90169"><ele>276.0</ele><time>2026-04-25T14:12:24.103Z</time></trkpt><trkpt lat="44.7294267" lon="7.90167"><ele>276.0</ele><time>2026-04-25T14:12:25.103Z</time></trkpt><trkpt lat="44.729265" lon="7.9016067"><ele>276.0</ele><time>2026-04-25T14:12:26.103Z</time></trkpt><trkpt lat="44.7291133" lon="7.9015083"><ele>274.6666666666667</ele><time>2026-04-25T14:12:27.103Z</time></trkpt><trkpt lat="44.7289617" lon="7.9013917"><ele>273.33333333333337</ele><time>2026-04-25T14:12:28.103Z</time></trkpt><trkpt lat="44.7288117" lon="7.901265"><ele>272.0</ele><time>2026-04-25T14:12:29.103Z</time></trkpt><trkpt lat="44.7286383" lon="7.9011783"><ele>271.0</ele><time>2026-04-25T14:12:30.103Z</time></trkpt><trkpt lat="44.7284667" lon="7.9011217"><ele>270.0</ele><time>2026-04-25T14:12:31.103Z</time></trkpt><trkpt lat="44.7282883" lon="7.9011133"><ele>269.0</ele><time>2026-04-25T14:12:32.103Z</time></trkpt><trkpt lat="44.7281217" lon="7.9011483"><ele>269.0</ele><time>2026-04-25T14:12:33.103Z</time></trkpt><trkpt lat="44.7279567" lon="7.90123"><ele>269.0</ele><time>2026-04-25T14:12:34.103Z</time></trkpt><trkpt lat="44.727805" lon="7.9013383"><ele>269.0</ele><time>2026-04-25T14:12:35.103Z</time></trkpt><trkpt lat="44.7276417" lon="7.9014717"><ele>268.0</ele><time>2026-04-25T14:12:36.103Z</time></trkpt><trkpt lat="44.7274867" lon="7.9015933"><ele>267.0</ele><time>2026-04-25T14:12:37.103Z</time></trkpt><trkpt lat="44.7273133" lon="7.9016883"><ele>266.0</ele><time>2026-04-25T14:12:38.103Z</time></trkpt><trkpt lat="44.7271417" lon="7.9017533"><ele>266.0</ele><time>2026-04-25T14:12:39.103Z</time></trkpt><trkpt lat="44.7269583" lon="7.9018117"><ele>266.0</ele><time>2026-04-25T14:12:40.103Z</time></trkpt><trkpt lat="44.7267733" lon="7.9018317"><ele>266.0</ele><time>2026-04-25T14:12:41.103Z</time></trkpt><trkpt lat="44.7265833" lon="7.90186"><ele>266.33333333333337</ele><time>2026-04-25T14:12:42.103Z</time></trkpt><trkpt lat="44.7263883" lon="7.9019"><ele>266.6666666666667</ele><time>2026-04-25T14:12:43.103Z</time></trkpt><trkpt lat="44.726205" lon="7.9019417"><ele>267.0</ele><time>2026-04-25T14:12:44.103Z</time></trkpt><trkpt lat="44.7260183" lon="7.901995"><ele>267.0</ele><time>2026-04-25T14:12:45.103Z</time></trkpt><trkpt lat="44.7258333" lon="7.9020417"><ele>267.0</ele><time>2026-04-25T14:12:46.103Z</time></trkpt><trkpt lat="44.7256433" lon="7.902085"><ele>267.0</ele><time>2026-04-25T14:12:47.103Z</time></trkpt><trkpt lat="44.7254517" lon="7.9021283"><ele>267.0</ele><time>2026-04-25T14:12:48.103Z</time></trkpt><trkpt lat="44.725255" lon="7.9021667"><ele>267.0</ele><time>2026-04-25T14:12:49.103Z</time></trkpt><trkpt lat="44.7250633" lon="7.9022117"><ele>267.0</ele><time>2026-04-25T14:12:50.103Z</time></trkpt><trkpt lat="44.7248767" lon="7.9022617"><ele>264.6666666666667</ele><time>2026-04-25T14:12:51.103Z</time></trkpt><trkpt lat="44.7246883" lon="7.9023083"><ele>262.33333333333337</ele><time>2026-04-25T14:12:52.103Z</time></trkpt><trkpt lat="44.7245083" lon="7.902355"><ele>260.0</ele><time>2026-04-25T14:12:53.103Z</time></trkpt><trkpt lat="44.7243283" lon="7.9024"><ele>260.0</ele><time>2026-04-25T14:12:54.103Z</time></trkpt><trkpt lat="44.7241417" lon="7.9024367"><ele>260.0</ele><time>2026-04-25T14:12:55.103Z</time></trkpt><trkpt lat="44.7239567" lon="7.90248"><ele>260.0</ele><time>2026-04-25T14:12:56.103Z</time></trkpt><trkpt lat="44.7237733" lon="7.90252"><ele>260.0</ele><time>2026-04-25T14:12:57.103Z</time></trkpt><trkpt lat="44.7235917" lon="7.9025717"><ele>260.0</ele><time>2026-04-25T14:12:58.103Z</time></trkpt><trkpt lat="44.72342" lon="7.9026133"><ele>260.0</ele><time>2026-04-25T14:12:59.103Z</time></trkpt><trkpt lat="44.7232517" lon="7.9026417"><ele>258.25</ele><time>2026-04-25T14:13:00.103Z</time></trkpt><trkpt lat="44.7231017" lon="7.9026717"><ele>256.5</ele><time>2026-04-25T14:13:01.103Z</time></trkpt><trkpt lat="44.72296" lon="7.9026883"><ele>254.75</ele><time>2026-04-25T14:13:02.103Z</time></trkpt><trkpt lat="44.72282" lon="7.902675"><ele>253.0</ele><time>2026-04-25T14:13:03.103Z</time></trkpt><trkpt lat="44.722675" lon="7.90263"><ele>254.33333333333331</ele><time>2026-04-25T14:13:04.103Z</time></trkpt><trkpt lat="44.7225333" lon="7.9025533"><ele>255.66666666666669</ele><time>2026-04-25T14:13:05.103Z</time></trkpt><trkpt lat="44.7223933" lon="7.9024533"><ele>257.0</ele><time>2026-04-25T14:13:06.103Z</time></trkpt><trkpt lat="44.7222533" lon="7.9023383"><ele>257.0</ele><time>2026-04-25T14:13:07.103Z</time></trkpt><trkpt lat="44.7221217" lon="7.9022033"><ele>257.0</ele><time>2026-04-25T14:13:08.103Z</time></trkpt><trkpt lat="44.7219883" lon="7.9020567"><ele>257.0</ele><time>2026-04-25T14:13:09.103Z</time></trkpt><trkpt lat="44.72187" lon="7.9019083"><ele>257.6666666666667</ele><time>2026-04-25T14:13:10.103Z</time></trkpt><trkpt lat="44.7217483" lon="7.9017517"><ele>258.3333333333333</ele><time>2026-04-25T14:13:11.103Z</time></trkpt><trkpt lat="44.72163" lon="7.9015867"><ele>259.0</ele><time>2026-04-25T14:13:12.104Z</time></trkpt><trkpt lat="44.7215267" lon="7.9014117"><ele>259.0</ele><time>2026-04-25T14:13:13.103Z</time></trkpt><trkpt lat="44.7214417" lon="7.90124"><ele>259.0</ele><time>2026-04-25T14:13:14.103Z</time></trkpt><trkpt lat="44.7213733" lon="7.901045"><ele>259.0</ele><time>2026-04-25T14:13:15.103Z</time></trkpt><trkpt lat="44.7213367" lon="7.9008267"><ele>260.0</ele><time>2026-04-25T14:13:16.103Z</time></trkpt><trkpt lat="44.7213133" lon="7.900585"><ele>261.0</ele><time>2026-04-25T14:13:17.103Z</time></trkpt><trkpt lat="44.7213083" lon="7.9003317"><ele>262.0</ele><time>2026-04-25T14:13:18.103Z</time></trkpt><trkpt lat="44.7213083" lon="7.9000783"><ele>262.3333333333333</ele><time>2026-04-25T14:13:19.103Z</time></trkpt><trkpt lat="44.7213083" lon="7.8998317"><ele>262.6666666666667</ele><time>2026-04-25T14:13:20.102Z</time></trkpt><trkpt lat="44.7212883" lon="7.8995817"><ele>263.0</ele><time>2026-04-25T14:13:21.102Z</time></trkpt><trkpt lat="44.7212517" lon="7.8993467"><ele>264.6666666666667</ele><time>2026-04-25T14:13:22.102Z</time></trkpt><trkpt lat="44.7211867" lon="7.8991167"><ele>266.3333333333333</ele><time>2026-04-25T14:13:23.102Z</time></trkpt><trkpt lat="44.7211033" lon="7.8988883"><ele>268.0</ele><time>2026-04-25T14:13:24.102Z</time></trkpt><trkpt lat="44.72101" lon="7.8986633"><ele>265.0</ele><time>2026-04-25T14:13:25.102Z</time></trkpt><trkpt lat="44.7209283" lon="7.8984333"><ele>262.0</ele><time>2026-04-25T14:13:26.102Z</time></trkpt><trkpt lat="44.7208517" lon="7.8981867"><ele>259.0</ele><time>2026-04-25T14:13:27.102Z</time></trkpt><trkpt lat="44.72077" lon="7.897955"><ele>259.0</ele><time>2026-04-25T14:13:28.102Z</time></trkpt><trkpt lat="44.7206933" lon="7.8977217"><ele>259.0</ele><time>2026-04-25T14:13:29.102Z</time></trkpt><trkpt lat="44.7206167" lon="7.89748"><ele>259.0</ele><time>2026-04-25T14:13:30.102Z</time></trkpt><trkpt lat="44.72054" lon="7.8972533"><ele>259.3333333333333</ele><time>2026-04-25T14:13:31.102Z</time></trkpt><trkpt lat="44.7204667" lon="7.8970217"><ele>259.6666666666667</ele><time>2026-04-25T14:13:32.102Z</time></trkpt><trkpt lat="44.7203933" lon="7.8967933"><ele>260.0</ele><time>2026-04-25T14:13:33.102Z</time></trkpt><trkpt lat="44.720315" lon="7.896565"><ele>262.33333333333337</ele><time>2026-04-25T14:13:34.102Z</time></trkpt><trkpt lat="44.7202317" lon="7.8963283"><ele>264.6666666666667</ele><time>2026-04-25T14:13:35.102Z</time></trkpt><trkpt lat="44.72015" lon="7.89609"><ele>267.0</ele><time>2026-04-25T14:13:36.102Z</time></trkpt><trkpt lat="44.7200733" lon="7.8958467"><ele>267.0</ele><time>2026-04-25T14:13:37.102Z</time></trkpt><trkpt lat="44.7199883" lon="7.8956133"><ele>267.0</ele><time>2026-04-25T14:13:38.102Z</time></trkpt><trkpt lat="44.719915" lon="7.8953783"><ele>267.0</ele><time>2026-04-25T14:13:39.102Z</time></trkpt><trkpt lat="44.7198317" lon="7.89514"><ele>271.0</ele><time>2026-04-25T14:13:40.102Z</time></trkpt><trkpt lat="44.7197467" lon="7.8949"><ele>275.0</ele><time>2026-04-25T14:13:41.102Z</time></trkpt><trkpt lat="44.71965" lon="7.8946767"><ele>279.0</ele><time>2026-04-25T14:13:42.102Z</time></trkpt><trkpt lat="44.7195417" lon="7.8944667"><ele>279.0</ele><time>2026-04-25T14:13:43.102Z</time></trkpt><trkpt lat="44.719425" lon="7.8942683"><ele>279.0</ele><time>2026-04-25T14:13:44.102Z</time></trkpt><trkpt lat="44.7192933" lon="7.89406"><ele>279.0</ele><time>2026-04-25T14:13:45.102Z</time></trkpt><trkpt lat="44.7191683" lon="7.8938467"><ele>279.0</ele><time>2026-04-25T14:13:46.102Z</time></trkpt><trkpt lat="44.7190467" lon="7.8936433"><ele>279.0</ele><time>2026-04-25T14:13:47.102Z</time></trkpt><trkpt lat="44.7189217" lon="7.8934333"><ele>279.0</ele><time>2026-04-25T14:13:48.102Z</time></trkpt><trkpt lat="44.7188033" lon="7.8932283"><ele>280.6666666666667</ele><time>2026-04-25T14:13:49.102Z</time></trkpt><trkpt lat="44.7186717" lon="7.8930383"><ele>282.33333333333337</ele><time>2026-04-25T14:13:50.102Z</time></trkpt><trkpt lat="44.71851" lon="7.89287"><ele>284.0</ele><time>2026-04-25T14:13:51.102Z</time></trkpt><trkpt lat="44.7183517" lon="7.892685"><ele>284.6666666666667</ele><time>2026-04-25T14:13:52.102Z</time></trkpt><trkpt lat="44.71819" lon="7.8925283"><ele>285.3333333333333</ele><time>2026-04-25T14:13:53.102Z</time></trkpt><trkpt lat="44.7180167" lon="7.8923883"><ele>286.0</ele><time>2026-04-25T14:13:54.102Z</time></trkpt><trkpt lat="44.71786" lon="7.8922267"><ele>283.66666666666663</ele><time>2026-04-25T14:13:55.102Z</time></trkpt><trkpt lat="44.7177083" lon="7.8920833"><ele>281.3333333333333</ele><time>2026-04-25T14:13:56.102Z</time></trkpt><trkpt lat="44.7175433" lon="7.8919533"><ele>279.0</ele><time>2026-04-25T14:13:57.102Z</time></trkpt><trkpt lat="44.7173783" lon="7.8918183"><ele>282.3333333333333</ele><time>2026-04-25T14:13:58.102Z</time></trkpt><trkpt lat="44.717215" lon="7.8917067"><ele>285.66666666666663</ele><time>2026-04-25T14:13:59.102Z</time></trkpt><trkpt lat="44.7170617" lon="7.8916117"><ele>289.0</ele><time>2026-04-25T14:14:00.102Z</time></trkpt><trkpt lat="44.716915" lon="7.89151"><ele>288.0</ele><time>2026-04-25T14:14:01.102Z</time></trkpt><trkpt lat="44.716775" lon="7.8914167"><ele>287.0</ele><time>2026-04-25T14:14:02.102Z</time></trkpt><trkpt lat="44.7166417" lon="7.89132"><ele>286.0</ele><time>2026-04-25T14:14:03.102Z</time></trkpt><trkpt lat="44.7165167" lon="7.8912417"><ele>285.0</ele><time>2026-04-25T14:14:04.102Z</time></trkpt><trkpt lat="44.716395" lon="7.8911917"><ele>285.0</ele><time>2026-04-25T14:14:05.102Z</time></trkpt><trkpt lat="44.7162717" lon="7.8911917"><ele>285.0</ele><time>2026-04-25T14:14:06.102Z</time></trkpt><trkpt lat="44.716165" lon="7.8912317"><ele>285.0</ele><time>2026-04-25T14:14:07.102Z</time></trkpt><trkpt lat="44.7160817" lon="7.8913217"><ele>285.0</ele><time>2026-04-25T14:14:08.102Z</time></trkpt><trkpt lat="44.7160167" lon="7.8914633"><ele>285.75</ele><time>2026-04-25T14:14:09.102Z</time></trkpt><trkpt lat="44.7159833" lon="7.89163"><ele>286.5</ele><time>2026-04-25T14:14:10.102Z</time></trkpt><trkpt lat="44.7160033" lon="7.891785"><ele>287.25</ele><time>2026-04-25T14:14:11.102Z</time></trkpt><trkpt lat="44.71607" lon="7.8919233"><ele>288.0</ele><time>2026-04-25T14:14:12.102Z</time></trkpt><trkpt lat="44.7161933" lon="7.8920633"><ele>288.0</ele><time>2026-04-25T14:14:13.102Z</time></trkpt><trkpt lat="44.7163317" lon="7.8921883"><ele>288.0</ele><time>2026-04-25T14:14:14.102Z</time></trkpt><trkpt lat="44.71646" lon="7.8923117"><ele>288.0</ele><time>2026-04-25T14:14:15.102Z</time></trkpt><trkpt lat="44.71658" lon="7.89244"><ele>288.0</ele><time>2026-04-25T14:14:16.102Z</time></trkpt><trkpt lat="44.7167" lon="7.8925633"><ele>288.0</ele><time>2026-04-25T14:14:17.102Z</time></trkpt><trkpt lat="44.7168267" lon="7.89268"><ele>288.0</ele><time>2026-04-25T14:14:18.102Z</time></trkpt><trkpt lat="44.7169533" lon="7.8928033"><ele>288.75</ele><time>2026-04-25T14:14:19.102Z</time></trkpt><trkpt lat="44.71708" lon="7.8929367"><ele>289.5</ele><time>2026-04-25T14:14:20.102Z</time></trkpt><trkpt lat="44.7172017" lon="7.89305"><ele>290.25</ele><time>2026-04-25T14:14:21.102Z</time></trkpt><trkpt lat="44.717305" lon="7.89315"><ele>291.0</ele><time>2026-04-25T14:14:22.102Z</time></trkpt><trkpt lat="44.7174033" lon="7.893245"><ele>291.0</ele><time>2026-04-25T14:14:23.102Z</time></trkpt><trkpt lat="44.7174883" lon="7.8933383"><ele>291.0</ele><time>2026-04-25T14:14:24.102Z</time></trkpt><trkpt lat="44.7175517" lon="7.8934367"><ele>291.0</ele><time>2026-04-25T14:14:25.102Z</time></trkpt><trkpt lat="44.7175917" lon="7.89354"><ele>291.0</ele><time>2026-04-25T14:14:26.102Z</time></trkpt><trkpt lat="44.7176033" lon="7.8936333"><ele>291.0</ele><time>2026-04-25T14:14:27.102Z</time></trkpt><trkpt lat="44.7175767" lon="7.89372"><ele>291.0</ele><time>2026-04-25T14:14:28.102Z</time></trkpt><trkpt lat="44.7175233" lon="7.8937867"><ele>291.0</ele><time>2026-04-25T14:14:29.102Z</time></trkpt><trkpt lat="44.717435" lon="7.8937767"><ele>291.0</ele><time>2026-04-25T14:14:30.102Z</time></trkpt><trkpt lat="44.7173383" lon="7.8937083"><ele>291.0</ele><time>2026-04-25T14:14:31.102Z</time></trkpt><trkpt lat="44.7172283" lon="7.8935767"><ele>291.0</ele><time>2026-04-25T14:14:32.102Z</time></trkpt><trkpt lat="44.7171217" lon="7.8934183"><ele>291.0</ele><time>2026-04-25T14:14:33.102Z</time></trkpt><trkpt lat="44.7169933" lon="7.8932433"><ele>291.0</ele><time>2026-04-25T14:14:34.102Z</time></trkpt><trkpt lat="44.7168767" lon="7.89309"><ele>291.0</ele><time>2026-04-25T14:14:35.102Z</time></trkpt><trkpt lat="44.716765" lon="7.8929533"><ele>290.0</ele><time>2026-04-25T14:14:36.102Z</time></trkpt><trkpt lat="44.7166417" lon="7.8928233"><ele>289.0</ele><time>2026-04-25T14:14:37.102Z</time></trkpt><trkpt lat="44.7165117" lon="7.8927033"><ele>288.0</ele><time>2026-04-25T14:14:38.102Z</time></trkpt><trkpt lat="44.71638" lon="7.892575"><ele>288.0</ele><time>2026-04-25T14:14:39.102Z</time></trkpt><trkpt lat="44.7162517" lon="7.8924483"><ele>288.0</ele><time>2026-04-25T14:14:40.102Z</time></trkpt><trkpt lat="44.7161217" lon="7.8923167"><ele>288.0</ele><time>2026-04-25T14:14:41.102Z</time></trkpt><trkpt lat="44.7159867" lon="7.892185"><ele>296.3333333333333</ele><time>2026-04-25T14:14:42.102Z</time></trkpt><trkpt lat="44.7158433" lon="7.89207"><ele>304.66666666666663</ele><time>2026-04-25T14:14:43.102Z</time></trkpt><trkpt lat="44.7156883" lon="7.8919733"><ele>313.0</ele><time>2026-04-25T14:14:44.102Z</time></trkpt><trkpt lat="44.7155267" lon="7.8918717"><ele>313.0</ele><time>2026-04-25T14:14:45.102Z</time></trkpt><trkpt lat="44.7153667" lon="7.8917883"><ele>313.0</ele><time>2026-04-25T14:14:46.102Z</time></trkpt><trkpt lat="44.7152083" lon="7.8917083"><ele>313.0</ele><time>2026-04-25T14:14:47.102Z</time></trkpt><trkpt lat="44.7150567" lon="7.8916233"><ele>312.66666666666663</ele><time>2026-04-25T14:14:48.102Z</time></trkpt><trkpt lat="44.714915" lon="7.8915333"><ele>312.3333333333333</ele><time>2026-04-25T14:14:49.102Z</time></trkpt><trkpt lat="44.7147783" lon="7.8914383"><ele>312.0</ele><time>2026-04-25T14:14:50.102Z</time></trkpt><trkpt lat="44.7146517" lon="7.89131"><ele>312.0</ele><time>2026-04-25T14:14:51.102Z</time></trkpt><trkpt lat="44.714545" lon="7.89115"><ele>312.0</ele><time>2026-04-25T14:14:52.102Z</time></trkpt><trkpt lat="44.714455" lon="7.89097"><ele>312.0</ele><time>2026-04-25T14:14:53.102Z</time></trkpt><trkpt lat="44.7143883" lon="7.89078"><ele>309.25</ele><time>2026-04-25T14:14:54.102Z</time></trkpt><trkpt lat="44.714335" lon="7.8905883"><ele>306.5</ele><time>2026-04-25T14:14:55.102Z</time></trkpt><trkpt lat="44.7142917" lon="7.8903817"><ele>303.75</ele><time>2026-04-25T14:14:56.102Z</time></trkpt><trkpt lat="44.7142633" lon="7.8901767"><ele>301.0</ele><time>2026-04-25T14:14:57.102Z</time></trkpt><trkpt lat="44.7142317" lon="7.8899683"><ele>301.0</ele><time>2026-04-25T14:14:58.102Z</time></trkpt><trkpt lat="44.7141933" lon="7.8897833"><ele>301.0</ele><time>2026-04-25T14:14:59.102Z</time></trkpt><trkpt lat="44.71414" lon="7.8896167"><ele>301.0</ele><time>2026-04-25T14:15:00.102Z</time></trkpt><trkpt lat="44.714055" lon="7.889465"><ele>301.0</ele><time>2026-04-25T14:15:01.102Z</time></trkpt><trkpt lat="44.7139483" lon="7.8893517"><ele>301.0</ele><time>2026-04-25T14:15:02.102Z</time></trkpt><trkpt lat="44.7138383" lon="7.8892683"><ele>301.0</ele><time>2026-04-25T14:15:03.102Z</time></trkpt><trkpt lat="44.7137117" lon="7.8892067"><ele>301.0</ele><time>2026-04-25T14:15:04.102Z</time></trkpt><trkpt lat="44.7135767" lon="7.8891483"><ele>301.0</ele><time>2026-04-25T14:15:05.102Z</time></trkpt><trkpt lat="44.713465" lon="7.8890617"><ele>299.5</ele><time>2026-04-25T14:15:06.102Z</time></trkpt><trkpt lat="44.7133783" lon="7.888935"><ele>298.0</ele><time>2026-04-25T14:15:07.102Z</time></trkpt><trkpt lat="44.7133317" lon="7.8887717"><ele>296.5</ele><time>2026-04-25T14:15:08.102Z</time></trkpt><trkpt lat="44.713305" lon="7.8886067"><ele>295.0</ele><time>2026-04-25T14:15:09.102Z</time></trkpt><trkpt lat="44.7133167" lon="7.8884183"><ele>295.0</ele><time>2026-04-25T14:15:10.102Z</time></trkpt><trkpt lat="44.7133567" lon="7.8882417"><ele>295.0</ele><time>2026-04-25T14:15:11.102Z</time></trkpt><trkpt lat="44.713425" lon="7.8880817"><ele>295.0</ele><time>2026-04-25T14:15:12.102Z</time></trkpt><trkpt lat="44.713515" lon="7.8879217"><ele>295.0</ele><time>2026-04-25T14:15:13.102Z</time></trkpt><trkpt lat="44.7136033" lon="7.8877617"><ele>297.5</ele><time>2026-04-25T14:15:14.102Z</time></trkpt><trkpt lat="44.7136883" lon="7.8875933"><ele>300.0</ele><time>2026-04-25T14:15:15.102Z</time></trkpt><trkpt lat="44.7137667" lon="7.8874383"><ele>302.5</ele><time>2026-04-25T14:15:16.102Z</time></trkpt><trkpt lat="44.7138483" lon="7.88728"><ele>305.0</ele><time>2026-04-25T14:15:17.102Z</time></trkpt><trkpt lat="44.7139233" lon="7.8871283"><ele>305.0</ele><time>2026-04-25T14:15:18.102Z</time></trkpt><trkpt lat="44.7139933" lon="7.8869617"><ele>305.0</ele><time>2026-04-25T14:15:19.102Z</time></trkpt><trkpt lat="44.7140667" lon="7.8868017"><ele>305.0</ele><time>2026-04-25T14:15:20.102Z</time></trkpt><trkpt lat="44.7141517" lon="7.8866367"><ele>305.0</ele><time>2026-04-25T14:15:21.102Z</time></trkpt><trkpt lat="44.71425" lon="7.8864883"><ele>306.6666666666667</ele><time>2026-04-25T14:15:22.102Z</time></trkpt><trkpt lat="44.7143567" lon="7.8863567"><ele>308.3333333333333</ele><time>2026-04-25T14:15:23.102Z</time></trkpt><trkpt lat="44.7144783" lon="7.88624"><ele>310.0</ele><time>2026-04-25T14:15:24.102Z</time></trkpt><trkpt lat="44.71462" lon="7.8861283"><ele>310.0</ele><time>2026-04-25T14:15:25.102Z</time></trkpt><trkpt lat="44.714765" lon="7.8860167"><ele>310.0</ele><time>2026-04-25T14:15:26.102Z</time></trkpt><trkpt lat="44.71491" lon="7.885905"><ele>310.0</ele><time>2026-04-25T14:15:27.102Z</time></trkpt><trkpt lat="44.715055" lon="7.8857967"><ele>310.66666666666663</ele><time>2026-04-25T14:15:28.102Z</time></trkpt><trkpt lat="44.715185" lon="7.8856717"><ele>311.3333333333333</ele><time>2026-04-25T14:15:29.102Z</time></trkpt><trkpt lat="44.7153033" lon="7.8855117"><ele>312.0</ele><time>2026-04-25T14:15:30.102Z</time></trkpt><trkpt lat="44.7154" lon="7.8853383"><ele>312.0</ele><time>2026-04-25T14:15:31.102Z</time></trkpt><trkpt lat="44.71549" lon="7.8851583"><ele>312.0</ele><time>2026-04-25T14:15:32.102Z</time></trkpt><trkpt lat="44.71558" lon="7.8849917"><ele>312.0</ele><time>2026-04-25T14:15:33.102Z</time></trkpt><trkpt lat="44.71566" lon="7.884835"><ele>312.0</ele><time>2026-04-25T14:15:34.102Z</time></trkpt><trkpt lat="44.7157333" lon="7.8846917"><ele>308.75</ele><time>2026-04-25T14:15:35.102Z</time></trkpt><trkpt lat="44.7157967" lon="7.8845383"><ele>305.5</ele><time>2026-04-25T14:15:36.102Z</time></trkpt><trkpt lat="44.715835" lon="7.8843833"><ele>302.25</ele><time>2026-04-25T14:15:37.102Z</time></trkpt><trkpt lat="44.71583" lon="7.8842117"><ele>299.0</ele><time>2026-04-25T14:15:38.102Z</time></trkpt><trkpt lat="44.7158067" lon="7.8840617"><ele>296.25</ele><time>2026-04-25T14:15:39.102Z</time></trkpt><trkpt lat="44.7157583" lon="7.883915"><ele>293.5</ele><time>2026-04-25T14:15:40.102Z</time></trkpt><trkpt lat="44.7156883" lon="7.883755"><ele>290.75</ele><time>2026-04-25T14:15:41.102Z</time></trkpt><trkpt lat="44.7155967" lon="7.8836"><ele>288.0</ele><time>2026-04-25T14:15:42.102Z</time></trkpt><trkpt lat="44.715485" lon="7.883445"><ele>288.0</ele><time>2026-04-25T14:15:43.102Z</time></trkpt><trkpt lat="44.7153733" lon="7.8832767"><ele>288.0</ele><time>2026-04-25T14:15:44.102Z</time></trkpt><trkpt lat="44.7152617" lon="7.88311"><ele>288.0</ele><time>2026-04-25T14:15:45.102Z</time></trkpt><trkpt lat="44.715155" lon="7.8829417"><ele>285.0</ele><time>2026-04-25T14:15:46.102Z</time></trkpt><trkpt lat="44.71504" lon="7.882785"><ele>282.0</ele><time>2026-04-25T14:15:47.102Z</time></trkpt><trkpt lat="44.71493" lon="7.8826233"><ele>279.0</ele><time>2026-04-25T14:15:48.102Z</time></trkpt><trkpt lat="44.714825" lon="7.8824467"><ele>279.0</ele><time>2026-04-25T14:15:49.102Z</time></trkpt><trkpt lat="44.7147183" lon="7.8822783"><ele>279.0</ele><time>2026-04-25T14:15:50.102Z</time></trkpt><trkpt lat="44.7146117" lon="7.8821233"><ele>279.0</ele><time>2026-04-25T14:15:51.102Z</time></trkpt><trkpt lat="44.7145067" lon="7.88197"><ele>279.0</ele><time>2026-04-25T14:15:52.102Z</time></trkpt><trkpt lat="44.7144367" lon="7.8818083"><ele>279.0</ele><time>2026-04-25T14:15:53.102Z</time></trkpt><trkpt lat="44.7144" lon="7.8816133"><ele>279.0</ele><time>2026-04-25T14:15:54.102Z</time></trkpt><trkpt lat="44.7143817" lon="7.881445"><ele>279.0</ele><time>2026-04-25T14:15:55.102Z</time></trkpt><trkpt lat="44.7143783" lon="7.8812683"><ele>277.25</ele><time>2026-04-25T14:15:56.102Z</time></trkpt><trkpt lat="44.7143717" lon="7.8810817"><ele>275.5</ele><time>2026-04-25T14:15:57.102Z</time></trkpt><trkpt lat="44.71435" lon="7.8808867"><ele>273.75</ele><time>2026-04-25T14:15:58.102Z</time></trkpt><trkpt lat="44.714315" lon="7.88069"><ele>272.0</ele><time>2026-04-25T14:15:59.102Z</time></trkpt><trkpt lat="44.7142517" lon="7.880505"><ele>272.0</ele><time>2026-04-25T14:16:00.102Z</time></trkpt><trkpt lat="44.7141817" lon="7.8803283"><ele>272.0</ele><time>2026-04-25T14:16:01.102Z</time></trkpt><trkpt lat="44.7141133" lon="7.880155"><ele>272.0</ele><time>2026-04-25T14:16:02.102Z</time></trkpt><trkpt lat="44.71405" lon="7.8799867"><ele>272.0</ele><time>2026-04-25T14:16:03.102Z</time></trkpt><trkpt lat="44.7139917" lon="7.8798217"><ele>273.75</ele><time>2026-04-25T14:16:04.102Z</time></trkpt><trkpt lat="44.7139417" lon="7.8796783"><ele>275.5</ele><time>2026-04-25T14:16:05.102Z</time></trkpt><trkpt lat="44.7138533" lon="7.879565"><ele>277.25</ele><time>2026-04-25T14:16:06.102Z</time></trkpt><trkpt lat="44.7137533" lon="7.8794833"><ele>279.0</ele><time>2026-04-25T14:16:07.102Z</time></trkpt><trkpt lat="44.7136217" lon="7.8794283"><ele>277.5</ele><time>2026-04-25T14:16:08.102Z</time></trkpt><trkpt lat="44.7134917" lon="7.8793967"><ele>276.0</ele><time>2026-04-25T14:16:09.102Z</time></trkpt><trkpt lat="44.7133683" lon="7.8793583"><ele>274.5</ele><time>2026-04-25T14:16:10.102Z</time></trkpt><trkpt lat="44.7132517" lon="7.8793017"><ele>273.0</ele><time>2026-04-25T14:16:11.102Z</time></trkpt><trkpt lat="44.7131433" lon="7.8792117"><ele>273.0</ele><time>2026-04-25T14:16:12.102Z</time></trkpt><trkpt lat="44.71306" lon="7.8790833"><ele>273.0</ele><time>2026-04-25T14:16:13.102Z</time></trkpt><trkpt lat="44.7130067" lon="7.878915"><ele>273.0</ele><time>2026-04-25T14:16:14.102Z</time></trkpt><trkpt lat="44.7129667" lon="7.8787433"><ele>273.0</ele><time>2026-04-25T14:16:15.102Z</time></trkpt><trkpt lat="44.71293" lon="7.87856"><ele>272.0</ele><time>2026-04-25T14:16:16.102Z</time></trkpt><trkpt lat="44.7128683" lon="7.8784067"><ele>271.0</ele><time>2026-04-25T14:16:17.102Z</time></trkpt><trkpt lat="44.7127833" lon="7.878285"><ele>270.0</ele><time>2026-04-25T14:16:18.102Z</time></trkpt><trkpt lat="44.7126633" lon="7.8782"><ele>269.0</ele><time>2026-04-25T14:16:19.102Z</time></trkpt><trkpt lat="44.7125317" lon="7.8781667"><ele>269.0</ele><time>2026-04-25T14:16:20.102Z</time></trkpt><trkpt lat="44.7124017" lon="7.8781833"><ele>269.0</ele><time>2026-04-25T14:16:21.102Z</time></trkpt><trkpt lat="44.71228" lon="7.8782267"><ele>269.0</ele><time>2026-04-25T14:16:22.102Z</time></trkpt><trkpt lat="44.7121517" lon="7.8782433"><ele>269.0</ele><time>2026-04-25T14:16:23.102Z</time></trkpt><trkpt lat="44.7120217" lon="7.87825"><ele>267.0</ele><time>2026-04-25T14:16:24.102Z</time></trkpt><trkpt lat="44.7119017" lon="7.8782067"><ele>265.0</ele><time>2026-04-25T14:16:25.102Z</time></trkpt><trkpt lat="44.711795" lon="7.8781183"><ele>263.0</ele><time>2026-04-25T14:16:26.102Z</time></trkpt><trkpt lat="44.7116917" lon="7.878"><ele>261.0</ele><time>2026-04-25T14:16:27.102Z</time></trkpt><trkpt lat="44.7115967" lon="7.8778867"><ele>261.0</ele><time>2026-04-25T14:16:28.102Z</time></trkpt><trkpt lat="44.711485" lon="7.877795"><ele>261.0</ele><time>2026-04-25T14:16:29.102Z</time></trkpt><trkpt lat="44.7113517" lon="7.8777433"><ele>261.0</ele><time>2026-04-25T14:16:30.102Z</time></trkpt><trkpt lat="44.7112217" lon="7.877745"><ele>261.0</ele><time>2026-04-25T14:16:31.102Z</time></trkpt><trkpt lat="44.7111" lon="7.8778033"><ele>259.75</ele><time>2026-04-25T14:16:32.102Z</time></trkpt><trkpt lat="44.7109833" lon="7.8778783"><ele>258.5</ele><time>2026-04-25T14:16:33.102Z</time></trkpt><trkpt lat="44.7108733" lon="7.87796"><ele>257.25</ele><time>2026-04-25T14:16:34.102Z</time></trkpt><trkpt lat="44.7107683" lon="7.87805"><ele>256.0</ele><time>2026-04-25T14:16:35.102Z</time></trkpt><trkpt lat="44.71065" lon="7.8781283"><ele>256.0</ele><time>2026-04-25T14:16:36.102Z</time></trkpt><trkpt lat="44.7105383" lon="7.878175"><ele>256.0</ele><time>2026-04-25T14:16:37.102Z</time></trkpt><trkpt lat="44.710425" lon="7.87819"><ele>256.0</ele><time>2026-04-25T14:16:38.102Z</time></trkpt><trkpt lat="44.7103067" lon="7.8781683"><ele>256.0</ele><time>2026-04-25T14:16:39.102Z</time></trkpt><trkpt lat="44.7101833" lon="7.8781083"><ele>255.0</ele><time>2026-04-25T14:16:40.102Z</time></trkpt><trkpt lat="44.710055" lon="7.87804"><ele>254.0</ele><time>2026-04-25T14:16:41.102Z</time></trkpt><trkpt lat="44.7099267" lon="7.877985"><ele>253.0</ele><time>2026-04-25T14:16:42.102Z</time></trkpt><trkpt lat="44.709795" lon="7.87795"><ele>252.0</ele><time>2026-04-25T14:16:43.102Z</time></trkpt><trkpt lat="44.7096767" lon="7.877945"><ele>252.0</ele><time>2026-04-25T14:16:44.102Z</time></trkpt><trkpt lat="44.7095667" lon="7.8779633"><ele>252.0</ele><time>2026-04-25T14:16:45.102Z</time></trkpt><trkpt lat="44.7094717" lon="7.8779867"><ele>252.0</ele><time>2026-04-25T14:16:46.102Z</time></trkpt><trkpt lat="44.7093883" lon="7.8780317"><ele>252.0</ele><time>2026-04-25T14:16:47.102Z</time></trkpt><trkpt lat="44.709315" lon="7.8781033"><ele>252.0</ele><time>2026-04-25T14:16:48.102Z</time></trkpt><trkpt lat="44.7092517" lon="7.8781767"><ele>252.6</ele><time>2026-04-25T14:16:49.102Z</time></trkpt><trkpt lat="44.7091883" lon="7.8782583"><ele>253.2</ele><time>2026-04-25T14:16:50.102Z</time></trkpt><trkpt lat="44.7091133" lon="7.8783433"><ele>253.8</ele><time>2026-04-25T14:16:51.102Z</time></trkpt><trkpt lat="44.709035" lon="7.878435"><ele>254.4</ele><time>2026-04-25T14:16:52.102Z</time></trkpt><trkpt lat="44.7089533" lon="7.8785217"><ele>255.0</ele><time>2026-04-25T14:16:53.102Z</time></trkpt><trkpt lat="44.7088617" lon="7.8786183"><ele>252.75</ele><time>2026-04-25T14:16:54.102Z</time></trkpt><trkpt lat="44.7087683" lon="7.8787083"><ele>250.5</ele><time>2026-04-25T14:16:55.102Z</time></trkpt><trkpt lat="44.7086767" lon="7.8788"><ele>248.25</ele><time>2026-04-25T14:16:56.102Z</time></trkpt><trkpt lat="44.7085767" lon="7.8788767"><ele>246.0</ele><time>2026-04-25T14:16:57.102Z</time></trkpt><trkpt lat="44.7084733" lon="7.8789417"><ele>246.0</ele><time>2026-04-25T14:16:58.102Z</time></trkpt><trkpt lat="44.7083667" lon="7.8789967"><ele>246.0</ele><time>2026-04-25T14:16:59.102Z</time></trkpt><trkpt lat="44.7082517" lon="7.8790467"><ele>246.0</ele><time>2026-04-25T14:17:00.102Z</time></trkpt><trkpt lat="44.70813" lon="7.8791017"><ele>246.0</ele><time>2026-04-25T14:17:01.102Z</time></trkpt><trkpt lat="44.7079967" lon="7.8791583"><ele>246.0</ele><time>2026-04-25T14:17:02.102Z</time></trkpt><trkpt lat="44.7078717" lon="7.8792217"><ele>246.0</ele><time>2026-04-25T14:17:03.102Z</time></trkpt><trkpt lat="44.7077467" lon="7.8792833"><ele>246.0</ele><time>2026-04-25T14:17:04.102Z</time></trkpt><trkpt lat="44.7076283" lon="7.8793333"><ele>246.0</ele><time>2026-04-25T14:17:05.102Z</time></trkpt><trkpt lat="44.707505" lon="7.87936"><ele>243.5</ele><time>2026-04-25T14:17:06.102Z</time></trkpt><trkpt lat="44.7073867" lon="7.87936"><ele>241.0</ele><time>2026-04-25T14:17:07.102Z</time></trkpt><trkpt lat="44.7072817" lon="7.8793417"><ele>238.5</ele><time>2026-04-25T14:17:08.102Z</time></trkpt><trkpt lat="44.70717" lon="7.879315"><ele>236.0</ele><time>2026-04-25T14:17:09.102Z</time></trkpt><trkpt lat="44.7070583" lon="7.8792883"><ele>235.75</ele><time>2026-04-25T14:17:10.102Z</time></trkpt><trkpt lat="44.7069467" lon="7.8792467"><ele>235.5</ele><time>2026-04-25T14:17:11.102Z</time></trkpt><trkpt lat="44.7068383" lon="7.8792"><ele>235.25</ele><time>2026-04-25T14:17:12.102Z</time></trkpt><trkpt lat="44.7067233" lon="7.8791733"><ele>235.0</ele><time>2026-04-25T14:17:13.102Z</time></trkpt><trkpt lat="44.706605" lon="7.8791583"><ele>235.0</ele><time>2026-04-25T14:17:14.102Z</time></trkpt><trkpt lat="44.706485" lon="7.8791833"><ele>235.0</ele><time>2026-04-25T14:17:15.102Z</time></trkpt><trkpt lat="44.706385" lon="7.8792317"><ele>235.0</ele><time>2026-04-25T14:17:16.102Z</time></trkpt><trkpt lat="44.706295" lon="7.8793117"><ele>235.0</ele><time>2026-04-25T14:17:17.102Z</time></trkpt><trkpt lat="44.7061967" lon="7.879405"><ele>234.75</ele><time>2026-04-25T14:17:18.102Z</time></trkpt><trkpt lat="44.7060933" lon="7.8795133"><ele>234.5</ele><time>2026-04-25T14:17:19.102Z</time></trkpt><trkpt lat="44.7059783" lon="7.8796183"><ele>234.25</ele><time>2026-04-25T14:17:20.102Z</time></trkpt><trkpt lat="44.7058667" lon="7.87972"><ele>234.0</ele><time>2026-04-25T14:17:21.102Z</time></trkpt><trkpt lat="44.70576" lon="7.879825"><ele>233.25</ele><time>2026-04-25T14:17:22.102Z</time></trkpt><trkpt lat="44.7056467" lon="7.879935"><ele>232.5</ele><time>2026-04-25T14:17:23.102Z</time></trkpt><trkpt lat="44.7055233" lon="7.8800517"><ele>231.75</ele><time>2026-04-25T14:17:24.102Z</time></trkpt><trkpt lat="44.7054" lon="7.8801733"><ele>231.0</ele><time>2026-04-25T14:17:25.102Z</time></trkpt><trkpt lat="44.7052717" lon="7.8802917"><ele>231.33333333333331</ele><time>2026-04-25T14:17:26.102Z</time></trkpt><trkpt lat="44.70514" lon="7.8804117"><ele>231.66666666666666</ele><time>2026-04-25T14:17:27.102Z</time></trkpt><trkpt lat="44.7050167" lon="7.880525"><ele>232.0</ele><time>2026-04-25T14:17:28.102Z</time></trkpt><trkpt lat="44.7048983" lon="7.8806467"><ele>232.0</ele><time>2026-04-25T14:17:29.102Z</time></trkpt><trkpt lat="44.7047767" lon="7.880765"><ele>232.0</ele><time>2026-04-25T14:17:30.102Z</time></trkpt><trkpt lat="44.7046517" lon="7.880875"><ele>232.0</ele><time>2026-04-25T14:17:31.102Z</time></trkpt><trkpt lat="44.70453" lon="7.8809783"><ele>232.0</ele><time>2026-04-25T14:17:32.102Z</time></trkpt><trkpt lat="44.7044017" lon="7.8810717"><ele>231.25</ele><time>2026-04-25T14:17:33.102Z</time></trkpt><trkpt lat="44.70428" lon="7.8811717"><ele>230.5</ele><time>2026-04-25T14:17:34.102Z</time></trkpt><trkpt lat="44.70416" lon="7.8812567"><ele>229.75</ele><time>2026-04-25T14:17:35.102Z</time></trkpt><trkpt lat="44.7040367" lon="7.8813483"><ele>229.0</ele><time>2026-04-25T14:17:36.102Z</time></trkpt><trkpt lat="44.7039183" lon="7.8814467"><ele>229.0</ele><time>2026-04-25T14:17:37.102Z</time></trkpt><trkpt lat="44.70379" lon="7.8815383"><ele>229.0</ele><time>2026-04-25T14:17:38.102Z</time></trkpt><trkpt lat="44.70367" lon="7.8816483"><ele>229.0</ele><time>2026-04-25T14:17:39.102Z</time></trkpt><trkpt lat="44.7035417" lon="7.881765"><ele>229.0</ele><time>2026-04-25T14:17:40.102Z</time></trkpt><trkpt lat="44.7034183" lon="7.8819117"><ele>228.5</ele><time>2026-04-25T14:17:41.102Z</time></trkpt><trkpt lat="44.7032917" lon="7.8820483"><ele>228.0</ele><time>2026-04-25T14:17:42.102Z</time></trkpt><trkpt lat="44.703185" lon="7.8821833"><ele>227.5</ele><time>2026-04-25T14:17:43.102Z</time></trkpt><trkpt lat="44.7030733" lon="7.8823017"><ele>227.0</ele><time>2026-04-25T14:17:44.102Z</time></trkpt><trkpt lat="44.7029767" lon="7.8824233"><ele>227.0</ele><time>2026-04-25T14:17:45.102Z</time></trkpt><trkpt lat="44.7028817" lon="7.88255"><ele>227.0</ele><time>2026-04-25T14:17:46.102Z</time></trkpt><trkpt lat="44.702785" lon="7.8826767"><ele>227.0</ele><time>2026-04-25T14:17:47.102Z</time></trkpt><trkpt lat="44.702685" lon="7.88279"><ele>227.0</ele><time>2026-04-25T14:17:48.102Z</time></trkpt><trkpt lat="44.7025817" lon="7.8829167"><ele>226.75</ele><time>2026-04-25T14:17:49.102Z</time></trkpt><trkpt lat="44.7024817" lon="7.8830483"><ele>226.5</ele><time>2026-04-25T14:17:50.102Z</time></trkpt><trkpt lat="44.70238" lon="7.8831833"><ele>226.25</ele><time>2026-04-25T14:17:51.102Z</time></trkpt><trkpt lat="44.7022733" lon="7.8833167"><ele>226.0</ele><time>2026-04-25T14:17:52.102Z</time></trkpt><trkpt lat="44.70217" lon="7.8834583"><ele>225.5</ele><time>2026-04-25T14:17:53.102Z</time></trkpt><trkpt lat="44.7020583" lon="7.8835917"><ele>225.0</ele><time>2026-04-25T14:17:54.102Z</time></trkpt><trkpt lat="44.7019467" lon="7.883725"><ele>224.5</ele><time>2026-04-25T14:17:55.102Z</time></trkpt><trkpt lat="44.7018333" lon="7.883865"><ele>224.0</ele><time>2026-04-25T14:17:56.102Z</time></trkpt><trkpt lat="44.7017183" lon="7.8840067"><ele>224.0</ele><time>2026-04-25T14:17:57.102Z</time></trkpt><trkpt lat="44.7016033" lon="7.8841417"><ele>224.0</ele><time>2026-04-25T14:17:58.102Z</time></trkpt><trkpt lat="44.7014983" lon="7.8842817"><ele>224.0</ele><time>2026-04-25T14:17:59.102Z</time></trkpt><trkpt lat="44.701395" lon="7.8844183"><ele>224.0</ele><time>2026-04-25T14:18:00.102Z</time></trkpt><trkpt lat="44.7012917" lon="7.8845567"><ele>224.0</ele><time>2026-04-25T14:18:01.102Z</time></trkpt><trkpt lat="44.70119" lon="7.884695"><ele>224.0</ele><time>2026-04-25T14:18:02.102Z</time></trkpt><trkpt lat="44.7010817" lon="7.8848317"><ele>224.0</ele><time>2026-04-25T14:18:03.102Z</time></trkpt><trkpt lat="44.7009767" lon="7.8849567"><ele>224.0</ele><time>2026-04-25T14:18:04.102Z</time></trkpt><trkpt lat="44.7008783" lon="7.8850817"><ele>223.79999999999998</ele><time>2026-04-25T14:18:05.102Z</time></trkpt><trkpt lat="44.7007833" lon="7.8851817"><ele>223.59999999999997</ele><time>2026-04-25T14:18:06.102Z</time></trkpt><trkpt lat="44.700695" lon="7.88528"><ele>223.4</ele><time>2026-04-25T14:18:07.102Z</time></trkpt><trkpt lat="44.700625" lon="7.8853683"><ele>223.2</ele><time>2026-04-25T14:18:08.102Z</time></trkpt><trkpt lat="44.7005767" lon="7.8854467"><ele>223.0</ele><time>2026-04-25T14:18:09.102Z</time></trkpt><trkpt lat="44.7004933" lon="7.885535"><ele>222.99999999999997</ele><time>2026-04-25T14:18:11.102Z</time></trkpt><trkpt lat="44.7004433" lon="7.88559"><ele>223.0</ele><time>2026-04-25T14:18:13.102Z</time></trkpt><trkpt lat="44.70038" lon="7.8856767"><ele>223.0</ele><time>2026-04-25T14:18:15.102Z</time></trkpt><trkpt lat="44.700265" lon="7.8857517"><ele>223.0</ele><time>2026-04-25T14:18:17.102Z</time></trkpt><trkpt lat="44.7001867" lon="7.8857733"><ele>222.99999999999997</ele><time>2026-04-25T14:18:18.102Z</time></trkpt><trkpt lat="44.7000983" lon="7.8857833"><ele>223.0</ele><time>2026-04-25T14:18:19.102Z</time></trkpt><trkpt lat="44.7000017" lon="7.885805"><ele>222.75</ele><time>2026-04-25T14:18:20.102Z</time></trkpt><trkpt lat="44.6998833" lon="7.88586"><ele>222.5</ele><time>2026-04-25T14:18:21.102Z</time></trkpt><trkpt lat="44.69976" lon="7.8859233"><ele>222.25</ele><time>2026-04-25T14:18:22.102Z</time></trkpt><trkpt lat="44.699635" lon="7.885995"><ele>222.0</ele><time>2026-04-25T14:18:23.102Z</time></trkpt><trkpt lat="44.6995033" lon="7.88607"><ele>221.5</ele><time>2026-04-25T14:18:24.102Z</time></trkpt><trkpt lat="44.6993767" lon="7.8861483"><ele>221.0</ele><time>2026-04-25T14:18:25.102Z</time></trkpt><trkpt lat="44.6992417" lon="7.8862217"><ele>220.5</ele><time>2026-04-25T14:18:26.102Z</time></trkpt><trkpt lat="44.6991133" lon="7.8863067"><ele>220.0</ele><time>2026-04-25T14:18:27.102Z</time></trkpt><trkpt lat="44.6989917" lon="7.8864017"><ele>220.0</ele><time>2026-04-25T14:18:28.102Z</time></trkpt><trkpt lat="44.6988583" lon="7.8864817"><ele>220.0</ele><time>2026-04-25T14:18:29.102Z</time></trkpt><trkpt lat="44.6987333" lon="7.886575"><ele>220.0</ele><time>2026-04-25T14:18:30.102Z</time></trkpt><trkpt lat="44.698615" lon="7.886655"><ele>220.0</ele><time>2026-04-25T14:18:31.102Z</time></trkpt><trkpt lat="44.698495" lon="7.8867333"><ele>219.5</ele><time>2026-04-25T14:18:32.102Z</time></trkpt><trkpt lat="44.6983767" lon="7.8868133"><ele>219.0</ele><time>2026-04-25T14:18:33.102Z</time></trkpt><trkpt lat="44.6982633" lon="7.8868817"><ele>218.5</ele><time>2026-04-25T14:18:34.102Z</time></trkpt><trkpt lat="44.6981383" lon="7.886935"><ele>218.0</ele><time>2026-04-25T14:18:35.102Z</time></trkpt><trkpt lat="44.69802" lon="7.8869783"><ele>218.0</ele><time>2026-04-25T14:18:36.102Z</time></trkpt><trkpt lat="44.6979117" lon="7.88702"><ele>218.0</ele><time>2026-04-25T14:18:37.102Z</time></trkpt><trkpt lat="44.69781" lon="7.8870633"><ele>218.0</ele><time>2026-04-25T14:18:38.102Z</time></trkpt><trkpt lat="44.6977067" lon="7.8871033"><ele>218.0</ele><time>2026-04-25T14:18:39.102Z</time></trkpt><trkpt lat="44.6976033" lon="7.88714"><ele>218.0</ele><time>2026-04-25T14:18:40.102Z</time></trkpt><trkpt lat="44.6975083" lon="7.8871867"><ele>218.16666666666669</ele><time>2026-04-25T14:18:41.102Z</time></trkpt><trkpt lat="44.6974433" lon="7.887215"><ele>218.33333333333334</ele><time>2026-04-25T14:18:42.102Z</time></trkpt><trkpt lat="44.6973817" lon="7.8872433"><ele>218.5</ele><time>2026-04-25T14:18:44.102Z</time></trkpt><trkpt lat="44.6973117" lon="7.8872017"><ele>218.66666666666669</ele><time>2026-04-25T14:19:54.102Z</time></trkpt><trkpt lat="44.69719" lon="7.8872083"><ele>218.83333333333334</ele><time>2026-04-25T14:19:56.102Z</time></trkpt><trkpt lat="44.6971217" lon="7.887235"><ele>219.0</ele><time>2026-04-25T14:19:57.102Z</time></trkpt><trkpt lat="44.697055" lon="7.8872867"><ele>219.0</ele><time>2026-04-25T14:19:58.102Z</time></trkpt><trkpt lat="44.6969783" lon="7.8873467"><ele>218.99999999999997</ele><time>2026-04-25T14:19:59.102Z</time></trkpt><trkpt lat="44.6968883" lon="7.8874267"><ele>218.99999999999997</ele><time>2026-04-25T14:20:00.102Z</time></trkpt><trkpt lat="44.6968" lon="7.8874983"><ele>219.0</ele><time>2026-04-25T14:20:01.102Z</time></trkpt><trkpt lat="44.696705" lon="7.887585"><ele>219.0</ele><time>2026-04-25T14:20:02.102Z</time></trkpt><trkpt lat="44.6965967" lon="7.8876867"><ele>218.5</ele><time>2026-04-25T14:20:03.102Z</time></trkpt><trkpt lat="44.6964667" lon="7.8877833"><ele>218.0</ele><time>2026-04-25T14:20:04.102Z</time></trkpt><trkpt lat="44.6963483" lon="7.8878883"><ele>217.5</ele><time>2026-04-25T14:20:05.102Z</time></trkpt><trkpt lat="44.6962317" lon="7.8880017"><ele>217.0</ele><time>2026-04-25T14:20:06.102Z</time></trkpt><trkpt lat="44.6961067" lon="7.8881083"><ele>216.75</ele><time>2026-04-25T14:20:07.102Z</time></trkpt><trkpt lat="44.69599" lon="7.88821"><ele>216.5</ele><time>2026-04-25T14:20:08.103Z</time></trkpt><trkpt lat="44.6958667" lon="7.888315"><ele>216.25</ele><time>2026-04-25T14:20:09.102Z</time></trkpt><trkpt lat="44.6957283" lon="7.88842"><ele>216.0</ele><time>2026-04-25T14:20:10.102Z</time></trkpt><trkpt lat="44.6955933" lon="7.888535"><ele>216.0</ele><time>2026-04-25T14:20:11.102Z</time></trkpt><trkpt lat="44.6954517" lon="7.88865"><ele>216.0</ele><time>2026-04-25T14:20:12.102Z</time></trkpt><trkpt lat="44.6953117" lon="7.8887583"><ele>216.0</ele><time>2026-04-25T14:20:13.102Z</time></trkpt><trkpt lat="44.69517" lon="7.88887"><ele>214.66666666666669</ele><time>2026-04-25T14:20:14.102Z</time></trkpt><trkpt lat="44.69503" lon="7.8889917"><ele>213.33333333333334</ele><time>2026-04-25T14:20:15.102Z</time></trkpt><trkpt lat="44.6948867" lon="7.88911"><ele>212.0</ele><time>2026-04-25T14:20:16.102Z</time></trkpt><trkpt lat="44.6947383" lon="7.8892283"><ele>211.66666666666669</ele><time>2026-04-25T14:20:17.102Z</time></trkpt><trkpt lat="44.6945917" lon="7.8893517"><ele>211.33333333333331</ele><time>2026-04-25T14:20:18.102Z</time></trkpt><trkpt lat="44.6944467" lon="7.88947"><ele>211.0</ele><time>2026-04-25T14:20:19.102Z</time></trkpt><trkpt lat="44.6943" lon="7.8895983"><ele>211.66666666666666</ele><time>2026-04-25T14:20:20.102Z</time></trkpt><trkpt lat="44.69415" lon="7.8897233"><ele>212.33333333333331</ele><time>2026-04-25T14:20:21.102Z</time></trkpt><trkpt lat="44.694005" lon="7.8898517"><ele>213.0</ele><time>2026-04-25T14:20:22.102Z</time></trkpt><trkpt lat="44.6938617" lon="7.8899733"><ele>212.66666666666669</ele><time>2026-04-25T14:20:23.102Z</time></trkpt><trkpt lat="44.69372" lon="7.8900917"><ele>212.33333333333334</ele><time>2026-04-25T14:20:24.102Z</time></trkpt><trkpt lat="44.693575" lon="7.8902167"><ele>212.0</ele><time>2026-04-25T14:20:25.102Z</time></trkpt><trkpt lat="44.6934267" lon="7.8903467"><ele>211.0</ele><time>2026-04-25T14:20:26.102Z</time></trkpt><trkpt lat="44.6932817" lon="7.8904767"><ele>210.0</ele><time>2026-04-25T14:20:27.102Z</time></trkpt><trkpt lat="44.6931267" lon="7.8906083"><ele>209.0</ele><time>2026-04-25T14:20:28.102Z</time></trkpt><trkpt lat="44.692975" lon="7.890735"><ele>209.0</ele><time>2026-04-25T14:20:29.102Z</time></trkpt><trkpt lat="44.692825" lon="7.89086"><ele>209.0</ele><time>2026-04-25T14:20:30.102Z</time></trkpt><trkpt lat="44.6926733" lon="7.8909917"><ele>209.0</ele><time>2026-04-25T14:20:31.102Z</time></trkpt><trkpt lat="44.6925317" lon="7.891115"><ele>208.33333333333334</ele><time>2026-04-25T14:20:32.102Z</time></trkpt><trkpt lat="44.6923867" lon="7.8912433"><ele>207.66666666666669</ele><time>2026-04-25T14:20:33.102Z</time></trkpt><trkpt lat="44.6922367" lon="7.89136"><ele>207.0</ele><time>2026-04-25T14:20:34.102Z</time></trkpt><trkpt lat="44.692085" lon="7.891475"><ele>207.0</ele><time>2026-04-25T14:20:35.102Z</time></trkpt><trkpt lat="44.6919383" lon="7.89159"><ele>207.0</ele><time>2026-04-25T14:20:36.103Z</time></trkpt><trkpt lat="44.6917867" lon="7.8917117"><ele>207.0</ele><time>2026-04-25T14:20:37.102Z</time></trkpt><trkpt lat="44.69165" lon="7.8918383"><ele>206.66666666666669</ele><time>2026-04-25T14:20:38.102Z</time></trkpt><trkpt lat="44.691505" lon="7.8919633"><ele>206.33333333333334</ele><time>2026-04-25T14:20:39.102Z</time></trkpt><trkpt lat="44.6913583" lon="7.8920883"><ele>206.0</ele><time>2026-04-25T14:20:40.102Z</time></trkpt><trkpt lat="44.691215" lon="7.8922117"><ele>206.25</ele><time>2026-04-25T14:20:41.102Z</time></trkpt><trkpt lat="44.6910717" lon="7.89232"><ele>206.5</ele><time>2026-04-25T14:20:42.102Z</time></trkpt><trkpt lat="44.69094" lon="7.8924267"><ele>206.75</ele><time>2026-04-25T14:20:43.102Z</time></trkpt><trkpt lat="44.6908267" lon="7.892525"><ele>207.0</ele><time>2026-04-25T14:20:44.102Z</time></trkpt><trkpt lat="44.6907133" lon="7.892625"><ele>207.0</ele><time>2026-04-25T14:20:45.102Z</time></trkpt><trkpt lat="44.6905983" lon="7.8927283"><ele>207.0</ele><time>2026-04-25T14:20:46.102Z</time></trkpt><trkpt lat="44.690485" lon="7.892835"><ele>207.0</ele><time>2026-04-25T14:20:47.102Z</time></trkpt><trkpt lat="44.6903617" lon="7.89293"><ele>207.0</ele><time>2026-04-25T14:20:48.102Z</time></trkpt><trkpt lat="44.6902367" lon="7.89303"><ele>206.33333333333331</ele><time>2026-04-25T14:20:49.102Z</time></trkpt><trkpt lat="44.6901017" lon="7.8931267"><ele>205.66666666666666</ele><time>2026-04-25T14:20:50.102Z</time></trkpt><trkpt lat="44.6899717" lon="7.893235"><ele>205.0</ele><time>2026-04-25T14:20:51.102Z</time></trkpt><trkpt lat="44.68984" lon="7.89335"><ele>204.66666666666666</ele><time>2026-04-25T14:20:52.102Z</time></trkpt><trkpt lat="44.6897" lon="7.8934617"><ele>204.33333333333331</ele><time>2026-04-25T14:20:53.102Z</time></trkpt><trkpt lat="44.68956" lon="7.8935733"><ele>204.0</ele><time>2026-04-25T14:20:54.102Z</time></trkpt><trkpt lat="44.6894283" lon="7.8936833"><ele>204.25</ele><time>2026-04-25T14:20:55.102Z</time></trkpt><trkpt lat="44.6893033" lon="7.8937867"><ele>204.5</ele><time>2026-04-25T14:20:56.102Z</time></trkpt><trkpt lat="44.6891733" lon="7.89389"><ele>204.75</ele><time>2026-04-25T14:20:57.102Z</time></trkpt><trkpt lat="44.68905" lon="7.8940017"><ele>205.0</ele><time>2026-04-25T14:20:58.102Z</time></trkpt><trkpt lat="44.688925" lon="7.894115"><ele>205.0</ele><time>2026-04-25T14:20:59.102Z</time></trkpt><trkpt lat="44.6888017" lon="7.8942133"><ele>205.0</ele><time>2026-04-25T14:21:00.102Z</time></trkpt><trkpt lat="44.6886683" lon="7.8943333"><ele>205.0</ele><time>2026-04-25T14:21:01.102Z</time></trkpt><trkpt lat="44.6885367" lon="7.89444"><ele>204.5</ele><time>2026-04-25T14:21:02.102Z</time></trkpt><trkpt lat="44.68842" lon="7.8945283"><ele>204.0</ele><time>2026-04-25T14:21:03.102Z</time></trkpt><trkpt lat="44.6882967" lon="7.8946317"><ele>203.5</ele><time>2026-04-25T14:21:04.102Z</time></trkpt><trkpt lat="44.6881767" lon="7.8947583"><ele>203.0</ele><time>2026-04-25T14:21:05.101Z</time></trkpt><trkpt lat="44.688045" lon="7.8948467"><ele>203.0</ele><time>2026-04-25T14:21:06.101Z</time></trkpt><trkpt lat="44.6879167" lon="7.8949617"><ele>203.0</ele><time>2026-04-25T14:21:07.101Z</time></trkpt><trkpt lat="44.68779" lon="7.8950617"><ele>203.0</ele><time>2026-04-25T14:21:08.101Z</time></trkpt><trkpt lat="44.68767" lon="7.895165"><ele>203.0</ele><time>2026-04-25T14:21:09.101Z</time></trkpt><trkpt lat="44.68755" lon="7.89527"><ele>202.60000000000002</ele><time>2026-04-25T14:21:10.101Z</time></trkpt><trkpt lat="44.6874433" lon="7.895355"><ele>202.20000000000002</ele><time>2026-04-25T14:21:11.101Z</time></trkpt><trkpt lat="44.6873483" lon="7.895435"><ele>201.8</ele><time>2026-04-25T14:21:12.101Z</time></trkpt><trkpt lat="44.6872567" lon="7.8955133"><ele>201.4</ele><time>2026-04-25T14:21:13.101Z</time></trkpt><trkpt lat="44.68717" lon="7.8955817"><ele>201.0</ele><time>2026-04-25T14:21:14.101Z</time></trkpt><trkpt lat="44.6870917" lon="7.895645"><ele>201.0</ele><time>2026-04-25T14:21:15.101Z</time></trkpt><trkpt lat="44.6870217" lon="7.8957067"><ele>201.0</ele><time>2026-04-25T14:21:16.101Z</time></trkpt><trkpt lat="44.686955" lon="7.8957667"><ele>201.0</ele><time>2026-04-25T14:21:17.101Z</time></trkpt><trkpt lat="44.68689" lon="7.89581"><ele>201.0</ele><time>2026-04-25T14:21:18.101Z</time></trkpt><trkpt lat="44.6868183" lon="7.89587"><ele>201.0</ele><time>2026-04-25T14:21:19.101Z</time></trkpt><trkpt lat="44.6867517" lon="7.8959283"><ele>201.0</ele><time>2026-04-25T14:21:20.101Z</time></trkpt><trkpt lat="44.6866833" lon="7.8959933"><ele>201.20000000000002</ele><time>2026-04-25T14:21:21.101Z</time></trkpt><trkpt lat="44.6866033" lon="7.8960667"><ele>201.4</ele><time>2026-04-25T14:21:22.101Z</time></trkpt><trkpt lat="44.686505" lon="7.8961517"><ele>201.6</ele><time>2026-04-25T14:21:23.101Z</time></trkpt><trkpt lat="44.6864083" lon="7.8962283"><ele>201.8</ele><time>2026-04-25T14:21:24.101Z</time></trkpt><trkpt lat="44.6863117" lon="7.8963033"><ele>202.0</ele><time>2026-04-25T14:21:25.101Z</time></trkpt><trkpt lat="44.6861967" lon="7.8963967"><ele>202.0</ele><time>2026-04-25T14:21:26.101Z</time></trkpt><trkpt lat="44.686075" lon="7.8965083"><ele>202.0</ele><time>2026-04-25T14:21:27.101Z</time></trkpt><trkpt lat="44.6859533" lon="7.8966033"><ele>202.0</ele><time>2026-04-25T14:21:28.101Z</time></trkpt><trkpt lat="44.6858267" lon="7.8966933"><ele>202.0</ele><time>2026-04-25T14:21:29.101Z</time></trkpt><trkpt lat="44.6857083" lon="7.8967883"><ele>202.25</ele><time>2026-04-25T14:21:30.101Z</time></trkpt><trkpt lat="44.6855867" lon="7.89689"><ele>202.5</ele><time>2026-04-25T14:21:31.101Z</time></trkpt><trkpt lat="44.6854667" lon="7.8969917"><ele>202.75</ele><time>2026-04-25T14:21:32.101Z</time></trkpt><trkpt lat="44.6853483" lon="7.897105"><ele>203.0</ele><time>2026-04-25T14:21:33.101Z</time></trkpt><trkpt lat="44.6852317" lon="7.8972217"><ele>202.5</ele><time>2026-04-25T14:21:34.101Z</time></trkpt><trkpt lat="44.6851217" lon="7.897315"><ele>202.0</ele><time>2026-04-25T14:21:35.101Z</time></trkpt><trkpt lat="44.68503" lon="7.897435"><ele>201.5</ele><time>2026-04-25T14:21:36.101Z</time></trkpt><trkpt lat="44.684945" lon="7.8975567"><ele>201.0</ele><time>2026-04-25T14:21:37.101Z</time></trkpt><trkpt lat="44.6848633" lon="7.8976767"><ele>200.5</ele><time>2026-04-25T14:21:38.101Z</time></trkpt><trkpt lat="44.6847867" lon="7.8978067"><ele>200.0</ele><time>2026-04-25T14:21:39.101Z</time></trkpt><trkpt lat="44.684715" lon="7.8979483"><ele>199.5</ele><time>2026-04-25T14:21:40.101Z</time></trkpt><trkpt lat="44.6846367" lon="7.898095"><ele>199.0</ele><time>2026-04-25T14:21:41.101Z</time></trkpt><trkpt lat="44.6845683" lon="7.89826"><ele>198.66666666666666</ele><time>2026-04-25T14:21:42.101Z</time></trkpt><trkpt lat="44.6844983" lon="7.8984433"><ele>198.33333333333331</ele><time>2026-04-25T14:21:43.101Z</time></trkpt><trkpt lat="44.6844283" lon="7.8986333"><ele>198.0</ele><time>2026-04-25T14:21:44.101Z</time></trkpt><trkpt lat="44.684355" lon="7.8988417"><ele>198.0</ele><time>2026-04-25T14:21:45.101Z</time></trkpt><trkpt lat="44.6842833" lon="7.8990633"><ele>198.0</ele><time>2026-04-25T14:21:46.101Z</time></trkpt><trkpt lat="44.684215" lon="7.899305"><ele>198.0</ele><time>2026-04-25T14:21:47.101Z</time></trkpt><trkpt lat="44.6841533" lon="7.8995617"><ele>197.33333333333331</ele><time>2026-04-25T14:21:48.101Z</time></trkpt><trkpt lat="44.6840917" lon="7.89983"><ele>196.66666666666666</ele><time>2026-04-25T14:21:49.101Z</time></trkpt><trkpt lat="44.6840383" lon="7.9001133"><ele>196.0</ele><time>2026-04-25T14:21:50.101Z</time></trkpt><trkpt lat="44.6839983" lon="7.9004233"><ele>195.5</ele><time>2026-04-25T14:21:51.101Z</time></trkpt><trkpt lat="44.6839617" lon="7.9007383"><ele>195.0</ele><time>2026-04-25T14:21:52.101Z</time></trkpt><trkpt lat="44.6839267" lon="7.9010633"><ele>195.0</ele><time>2026-04-25T14:21:53.101Z</time></trkpt><trkpt lat="44.6839033" lon="7.9013967"><ele>195.0</ele><time>2026-04-25T14:21:54.101Z</time></trkpt><trkpt lat="44.6838783" lon="7.9017633"><ele>194.5</ele><time>2026-04-25T14:21:55.101Z</time></trkpt><trkpt lat="44.683855" lon="7.902145"><ele>194.0</ele><time>2026-04-25T14:21:56.101Z</time></trkpt><trkpt lat="44.68383" lon="7.9025117"><ele>194.5</ele><time>2026-04-25T14:21:57.101Z</time></trkpt><trkpt lat="44.6838033" lon="7.90286"><ele>195.0</ele><time>2026-04-25T14:21:58.101Z</time></trkpt><trkpt lat="44.6837767" lon="7.903185"><ele>195.0</ele><time>2026-04-25T14:21:59.101Z</time></trkpt><trkpt lat="44.6837533" lon="7.903495"><ele>195.0</ele><time>2026-04-25T14:22:00.101Z</time></trkpt><trkpt lat="44.6837333" lon="7.90379"><ele>195.0</ele><time>2026-04-25T14:22:01.101Z</time></trkpt><trkpt lat="44.68371" lon="7.90409"><ele>194.66666666666669</ele><time>2026-04-25T14:22:02.101Z</time></trkpt><trkpt lat="44.6836867" lon="7.9043833"><ele>194.33333333333334</ele><time>2026-04-25T14:22:03.101Z</time></trkpt><trkpt lat="44.6836633" lon="7.904675"><ele>194.0</ele><time>2026-04-25T14:22:04.101Z</time></trkpt><trkpt lat="44.6836367" lon="7.904955"><ele>194.0</ele><time>2026-04-25T14:22:05.101Z</time></trkpt><trkpt lat="44.683615" lon="7.90523"><ele>194.0</ele><time>2026-04-25T14:22:06.101Z</time></trkpt><trkpt lat="44.68359" lon="7.9054917"><ele>194.0</ele><time>2026-04-25T14:22:07.101Z</time></trkpt><trkpt lat="44.68357" lon="7.9057433"><ele>193.33333333333334</ele><time>2026-04-25T14:22:08.101Z</time></trkpt><trkpt lat="44.6835583" lon="7.9059833"><ele>192.66666666666669</ele><time>2026-04-25T14:22:09.101Z</time></trkpt><trkpt lat="44.6835517" lon="7.906225"><ele>192.0</ele><time>2026-04-25T14:22:10.101Z</time></trkpt><trkpt lat="44.6835567" lon="7.906475"><ele>192.0</ele><time>2026-04-25T14:22:11.101Z</time></trkpt><trkpt lat="44.6835867" lon="7.9067133"><ele>192.0</ele><time>2026-04-25T14:22:12.101Z</time></trkpt><trkpt lat="44.68364" lon="7.9069567"><ele>192.0</ele><time>2026-04-25T14:22:13.101Z</time></trkpt><trkpt lat="44.683725" lon="7.9071983"><ele>192.0</ele><time>2026-04-25T14:22:14.101Z</time></trkpt><trkpt lat="44.68383" lon="7.90746"><ele>192.0</ele><time>2026-04-25T14:22:15.101Z</time></trkpt><trkpt lat="44.6839417" lon="7.9077417"><ele>192.0</ele><time>2026-04-25T14:22:16.101Z</time></trkpt><trkpt lat="44.6840583" lon="7.908005"><ele>192.0</ele><time>2026-04-25T14:22:17.101Z</time></trkpt><trkpt lat="44.6841717" lon="7.90828"><ele>192.0</ele><time>2026-04-25T14:22:18.101Z</time></trkpt><trkpt lat="44.6842783" lon="7.9085583"><ele>192.0</ele><time>2026-04-25T14:22:19.101Z</time></trkpt><trkpt lat="44.6843917" lon="7.9088317"><ele>192.0</ele><time>2026-04-25T14:22:20.101Z</time></trkpt><trkpt lat="44.6845067" lon="7.9091083"><ele>193.0</ele><time>2026-04-25T14:22:21.102Z</time></trkpt><trkpt lat="44.6846183" lon="7.9093917"><ele>194.0</ele><time>2026-04-25T14:22:22.101Z</time></trkpt><trkpt lat="44.6847283" lon="7.9096817"><ele>194.0</ele><time>2026-04-25T14:22:23.101Z</time></trkpt><trkpt lat="44.684845" lon="7.90997"><ele>194.0</ele><time>2026-04-25T14:22:24.101Z</time></trkpt><trkpt lat="44.6849533" lon="7.9102383"><ele>194.33333333333334</ele><time>2026-04-25T14:22:25.101Z</time></trkpt><trkpt lat="44.68506" lon="7.9105033"><ele>194.66666666666669</ele><time>2026-04-25T14:22:26.101Z</time></trkpt><trkpt lat="44.68516" lon="7.9107583"><ele>195.0</ele><time>2026-04-25T14:22:27.101Z</time></trkpt><trkpt lat="44.68526" lon="7.9109933"><ele>194.0</ele><time>2026-04-25T14:22:28.101Z</time></trkpt><trkpt lat="44.68535" lon="7.9112083"><ele>193.0</ele><time>2026-04-25T14:22:29.101Z</time></trkpt><trkpt lat="44.6854333" lon="7.9114033"><ele>192.0</ele><time>2026-04-25T14:22:30.101Z</time></trkpt><trkpt lat="44.6855033" lon="7.9115867"><ele>191.5</ele><time>2026-04-25T14:22:31.101Z</time></trkpt><trkpt lat="44.6855633" lon="7.911755"><ele>191.0</ele><time>2026-04-25T14:22:32.101Z</time></trkpt><trkpt lat="44.6855933" lon="7.91192"><ele>190.5</ele><time>2026-04-25T14:22:33.101Z</time></trkpt><trkpt lat="44.685595" lon="7.9120867"><ele>190.0</ele><time>2026-04-25T14:22:34.101Z</time></trkpt><trkpt lat="44.6855633" lon="7.9122417"><ele>190.0</ele><time>2026-04-25T14:22:35.101Z</time></trkpt><trkpt lat="44.6855017" lon="7.9123917"><ele>190.0</ele><time>2026-04-25T14:22:36.101Z</time></trkpt><trkpt lat="44.6854067" lon="7.912525"><ele>190.0</ele><time>2026-04-25T14:22:37.101Z</time></trkpt><trkpt lat="44.6852833" lon="7.91264"><ele>190.0</ele><time>2026-04-25T14:22:38.101Z</time></trkpt><trkpt lat="44.6851417" lon="7.9127417"><ele>188.66666666666669</ele><time>2026-04-25T14:22:39.101Z</time></trkpt><trkpt lat="44.684995" lon="7.912845"><ele>187.33333333333334</ele><time>2026-04-25T14:22:40.101Z</time></trkpt><trkpt lat="44.6848483" lon="7.9129583"><ele>186.0</ele><time>2026-04-25T14:22:41.101Z</time></trkpt><trkpt lat="44.6846983" lon="7.9130683"><ele>186.0</ele><time>2026-04-25T14:22:42.101Z</time></trkpt><trkpt lat="44.6845567" lon="7.913185"><ele>186.0</ele><time>2026-04-25T14:22:43.101Z</time></trkpt><trkpt lat="44.6844117" lon="7.9133033"><ele>186.0</ele><time>2026-04-25T14:22:44.101Z</time></trkpt><trkpt lat="44.6842667" lon="7.9134167"><ele>185.66666666666666</ele><time>2026-04-25T14:22:45.101Z</time></trkpt><trkpt lat="44.68412" lon="7.9135267"><ele>185.33333333333331</ele><time>2026-04-25T14:22:46.101Z</time></trkpt><trkpt lat="44.6839717" lon="7.91363"><ele>185.0</ele><time>2026-04-25T14:22:47.101Z</time></trkpt><trkpt lat="44.6838217" lon="7.9137483"><ele>185.0</ele><time>2026-04-25T14:22:48.101Z</time></trkpt><trkpt lat="44.6836683" lon="7.9138683"><ele>185.0</ele><time>2026-04-25T14:22:49.101Z</time></trkpt><trkpt lat="44.683495" lon="7.9140017"><ele>185.0</ele><time>2026-04-25T14:22:50.101Z</time></trkpt><trkpt lat="44.6833117" lon="7.9141483"><ele>184.66666666666666</ele><time>2026-04-25T14:22:51.101Z</time></trkpt><trkpt lat="44.6831333" lon="7.914295"><ele>184.33333333333334</ele><time>2026-04-25T14:22:52.101Z</time></trkpt><trkpt lat="44.6829567" lon="7.9144467"><ele>184.0</ele><time>2026-04-25T14:22:53.101Z</time></trkpt><trkpt lat="44.6827917" lon="7.9146233"><ele>184.0</ele><time>2026-04-25T14:22:54.101Z</time></trkpt><trkpt lat="44.682625" lon="7.9148183"><ele>184.0</ele><time>2026-04-25T14:22:55.101Z</time></trkpt><trkpt lat="44.6824733" lon="7.9150017"><ele>184.0</ele><time>2026-04-25T14:22:56.101Z</time></trkpt><trkpt lat="44.6823217" lon="7.9151917"><ele>184.0</ele><time>2026-04-25T14:22:57.101Z</time></trkpt><trkpt lat="44.6821683" lon="7.9153783"><ele>184.0</ele><time>2026-04-25T14:22:58.101Z</time></trkpt><trkpt lat="44.68201" lon="7.9155733"><ele>184.0</ele><time>2026-04-25T14:22:59.101Z</time></trkpt><trkpt lat="44.681855" lon="7.9157667"><ele>184.0</ele><time>2026-04-25T14:23:00.101Z</time></trkpt><trkpt lat="44.6817017" lon="7.9159417"><ele>184.0</ele><time>2026-04-25T14:23:01.101Z</time></trkpt><trkpt lat="44.6815517" lon="7.91612"><ele>184.0</ele><time>2026-04-25T14:23:02.101Z</time></trkpt><trkpt lat="44.6814067" lon="7.916295"><ele>184.0</ele><time>2026-04-25T14:23:03.101Z</time></trkpt><trkpt lat="44.681265" lon="7.9164617"><ele>184.0</ele><time>2026-04-25T14:23:04.101Z</time></trkpt><trkpt lat="44.681125" lon="7.91663"><ele>184.0</ele><time>2026-04-25T14:23:05.101Z</time></trkpt><trkpt lat="44.6809917" lon="7.9167983"><ele>184.0</ele><time>2026-04-25T14:23:06.101Z</time></trkpt><trkpt lat="44.6808567" lon="7.91696"><ele>184.0</ele><time>2026-04-25T14:23:07.101Z</time></trkpt><trkpt lat="44.6807233" lon="7.917115"><ele>184.0</ele><time>2026-04-25T14:23:08.101Z</time></trkpt><trkpt lat="44.6806017" lon="7.9172733"><ele>184.0</ele><time>2026-04-25T14:23:09.101Z</time></trkpt><trkpt lat="44.6804817" lon="7.91744"><ele>184.0</ele><time>2026-04-25T14:23:10.101Z</time></trkpt><trkpt lat="44.68035" lon="7.9175917"><ele>184.0</ele><time>2026-04-25T14:23:11.101Z</time></trkpt><trkpt lat="44.680215" lon="7.9177417"><ele>185.0</ele><time>2026-04-25T14:23:12.101Z</time></trkpt><trkpt lat="44.6800867" lon="7.9178933"><ele>186.0</ele><time>2026-04-25T14:23:13.101Z</time></trkpt><trkpt lat="44.67996" lon="7.91805"><ele>187.0</ele><time>2026-04-25T14:23:14.101Z</time></trkpt><trkpt lat="44.67982" lon="7.9181867"><ele>187.0</ele><time>2026-04-25T14:23:15.101Z</time></trkpt><trkpt lat="44.6796867" lon="7.9183067"><ele>187.0</ele><time>2026-04-25T14:23:16.101Z</time></trkpt><trkpt lat="44.6795483" lon="7.9184017"><ele>187.0</ele><time>2026-04-25T14:23:17.101Z</time></trkpt><trkpt lat="44.6794167" lon="7.9184633"><ele>187.5</ele><time>2026-04-25T14:23:18.101Z</time></trkpt><trkpt lat="44.6792767" lon="7.918485"><ele>188.0</ele><time>2026-04-25T14:23:19.101Z</time></trkpt><trkpt lat="44.67915" lon="7.9185033"><ele>188.5</ele><time>2026-04-25T14:23:20.101Z</time></trkpt><trkpt lat="44.679035" lon="7.918505"><ele>189.0</ele><time>2026-04-25T14:23:21.101Z</time></trkpt><trkpt lat="44.6789167" lon="7.91851"><ele>189.0</ele><time>2026-04-25T14:23:22.101Z</time></trkpt><trkpt lat="44.6788083" lon="7.91852"><ele>189.0</ele><time>2026-04-25T14:23:23.101Z</time></trkpt><trkpt lat="44.6787083" lon="7.9185333"><ele>189.0</ele><time>2026-04-25T14:23:24.101Z</time></trkpt><trkpt lat="44.6786083" lon="7.9185533"><ele>189.0</ele><time>2026-04-25T14:23:25.101Z</time></trkpt><trkpt lat="44.6784867" lon="7.9185733"><ele>189.0</ele><time>2026-04-25T14:23:26.101Z</time></trkpt><trkpt lat="44.67836" lon="7.9185967"><ele>190.66666666666669</ele><time>2026-04-25T14:23:27.101Z</time></trkpt><trkpt lat="44.6782167" lon="7.9186083"><ele>192.33333333333334</ele><time>2026-04-25T14:23:28.101Z</time></trkpt><trkpt lat="44.6780483" lon="7.9186183"><ele>194.0</ele><time>2026-04-25T14:23:29.101Z</time></trkpt><trkpt lat="44.67788" lon="7.9186367"><ele>196.66666666666669</ele><time>2026-04-25T14:23:30.101Z</time></trkpt><trkpt lat="44.677705" lon="7.9186617"><ele>199.33333333333331</ele><time>2026-04-25T14:23:31.101Z</time></trkpt><trkpt lat="44.6775283" lon="7.91869"><ele>202.0</ele><time>2026-04-25T14:23:32.101Z</time></trkpt><trkpt lat="44.6773783" lon="7.9187117"><ele>202.0</ele><time>2026-04-25T14:23:33.101Z</time></trkpt><trkpt lat="44.67725" lon="7.91872"><ele>202.0</ele><time>2026-04-25T14:23:34.101Z</time></trkpt><trkpt lat="44.67713" lon="7.9187033"><ele>202.0</ele><time>2026-04-25T14:23:35.101Z</time></trkpt><trkpt lat="44.6770083" lon="7.9186533"><ele>202.0</ele><time>2026-04-25T14:23:36.101Z</time></trkpt><trkpt lat="44.6768867" lon="7.9185667"><ele>203.66666666666666</ele><time>2026-04-25T14:23:37.101Z</time></trkpt><trkpt lat="44.67677" lon="7.91844"><ele>205.33333333333331</ele><time>2026-04-25T14:23:38.101Z</time></trkpt><trkpt lat="44.6766483" lon="7.9183067"><ele>207.0</ele><time>2026-04-25T14:23:39.101Z</time></trkpt><trkpt lat="44.6765233" lon="7.9181683"><ele>207.66666666666669</ele><time>2026-04-25T14:23:40.101Z</time></trkpt><trkpt lat="44.676395" lon="7.91802"><ele>208.33333333333334</ele><time>2026-04-25T14:23:41.101Z</time></trkpt><trkpt lat="44.67626" lon="7.917865"><ele>209.0</ele><time>2026-04-25T14:23:42.102Z</time></trkpt><trkpt lat="44.676125" lon="7.9177217"><ele>211.66666666666669</ele><time>2026-04-25T14:23:43.101Z</time></trkpt><trkpt lat="44.675995" lon="7.917565"><ele>214.33333333333331</ele><time>2026-04-25T14:23:44.101Z</time></trkpt><trkpt lat="44.67586" lon="7.9174083"><ele>217.0</ele><time>2026-04-25T14:23:45.101Z</time></trkpt><trkpt lat="44.675725" lon="7.9172583"><ele>217.0</ele><time>2026-04-25T14:23:46.101Z</time></trkpt><trkpt lat="44.675585" lon="7.917105"><ele>217.0</ele><time>2026-04-25T14:23:47.101Z</time></trkpt><trkpt lat="44.6754483" lon="7.916955"><ele>217.0</ele><time>2026-04-25T14:23:48.101Z</time></trkpt><trkpt lat="44.6753" lon="7.916795"><ele>219.0</ele><time>2026-04-25T14:23:49.101Z</time></trkpt><trkpt lat="44.6751533" lon="7.9166233"><ele>221.0</ele><time>2026-04-25T14:23:50.101Z</time></trkpt><trkpt lat="44.6749967" lon="7.916455"><ele>223.0</ele><time>2026-04-25T14:23:51.101Z</time></trkpt><trkpt lat="44.6748517" lon="7.916285"><ele>223.0</ele><time>2026-04-25T14:23:52.101Z</time></trkpt><trkpt lat="44.6747033" lon="7.9161233"><ele>223.0</ele><time>2026-04-25T14:23:53.101Z</time></trkpt><trkpt lat="44.6745633" lon="7.915965"><ele>223.0</ele><time>2026-04-25T14:23:54.101Z</time></trkpt><trkpt lat="44.6744367" lon="7.9157967"><ele>225.0</ele><time>2026-04-25T14:23:55.101Z</time></trkpt><trkpt lat="44.67433" lon="7.9156"><ele>227.0</ele><time>2026-04-25T14:23:56.101Z</time></trkpt><trkpt lat="44.674235" lon="7.9153717"><ele>229.0</ele><time>2026-04-25T14:23:57.101Z</time></trkpt><trkpt lat="44.6741567" lon="7.9151133"><ele>229.0</ele><time>2026-04-25T14:23:58.101Z</time></trkpt><trkpt lat="44.6740867" lon="7.9148483"><ele>229.0</ele><time>2026-04-25T14:23:59.101Z</time></trkpt><trkpt lat="44.6740167" lon="7.914615"><ele>229.0</ele><time>2026-04-25T14:24:00.101Z</time></trkpt><trkpt lat="44.673945" lon="7.914395"><ele>229.33333333333331</ele><time>2026-04-25T14:24:01.101Z</time></trkpt><trkpt lat="44.6738667" lon="7.9141883"><ele>229.66666666666669</ele><time>2026-04-25T14:24:02.101Z</time></trkpt><trkpt lat="44.6737767" lon="7.9139883"><ele>230.0</ele><time>2026-04-25T14:24:03.101Z</time></trkpt><trkpt lat="44.6736667" lon="7.913805"><ele>231.33333333333334</ele><time>2026-04-25T14:24:04.101Z</time></trkpt><trkpt lat="44.6735417" lon="7.9136417"><ele>232.66666666666669</ele><time>2026-04-25T14:24:05.101Z</time></trkpt><trkpt lat="44.6734283" lon="7.91347"><ele>234.0</ele><time>2026-04-25T14:24:06.101Z</time></trkpt><trkpt lat="44.6733167" lon="7.913295"><ele>234.0</ele><time>2026-04-25T14:24:07.101Z</time></trkpt><trkpt lat="44.673205" lon="7.9131033"><ele>234.0</ele><time>2026-04-25T14:24:08.101Z</time></trkpt><trkpt lat="44.6731" lon="7.9128967"><ele>234.0</ele><time>2026-04-25T14:24:09.101Z</time></trkpt><trkpt lat="44.6730033" lon="7.912675"><ele>233.33333333333331</ele><time>2026-04-25T14:24:10.101Z</time></trkpt><trkpt lat="44.67292" lon="7.9124483"><ele>232.66666666666666</ele><time>2026-04-25T14:24:11.101Z</time></trkpt><trkpt lat="44.6728417" lon="7.9122317"><ele>232.0</ele><time>2026-04-25T14:24:12.101Z</time></trkpt><trkpt lat="44.6727467" lon="7.9120417"><ele>234.33333333333331</ele><time>2026-04-25T14:24:13.101Z</time></trkpt><trkpt lat="44.6726283" lon="7.9118617"><ele>236.66666666666669</ele><time>2026-04-25T14:24:14.101Z</time></trkpt><trkpt lat="44.672495" lon="7.9116917"><ele>239.0</ele><time>2026-04-25T14:24:15.101Z</time></trkpt><trkpt lat="44.672375" lon="7.9115267"><ele>239.0</ele><time>2026-04-25T14:24:16.101Z</time></trkpt><trkpt lat="44.67226" lon="7.9113517"><ele>239.0</ele><time>2026-04-25T14:24:17.101Z</time></trkpt><trkpt lat="44.6721583" lon="7.911175"><ele>239.0</ele><time>2026-04-25T14:24:18.101Z</time></trkpt><trkpt lat="44.67205" lon="7.9110317"><ele>239.66666666666669</ele><time>2026-04-25T14:24:19.101Z</time></trkpt><trkpt lat="44.6719267" lon="7.910925"><ele>240.33333333333331</ele><time>2026-04-25T14:24:20.101Z</time></trkpt><trkpt lat="44.6717817" lon="7.910865"><ele>241.0</ele><time>2026-04-25T14:24:21.101Z</time></trkpt><trkpt lat="44.6716167" lon="7.91084"><ele>241.0</ele><time>2026-04-25T14:24:22.101Z</time></trkpt><trkpt lat="44.6714483" lon="7.9108383"><ele>241.0</ele><time>2026-04-25T14:24:23.101Z</time></trkpt><trkpt lat="44.6712633" lon="7.9108383"><ele>241.0</ele><time>2026-04-25T14:24:24.101Z</time></trkpt><trkpt lat="44.671075" lon="7.9108367"><ele>241.66666666666666</ele><time>2026-04-25T14:24:25.101Z</time></trkpt><trkpt lat="44.6708833" lon="7.9108317"><ele>242.33333333333331</ele><time>2026-04-25T14:24:26.101Z</time></trkpt><trkpt lat="44.6706817" lon="7.9108233"><ele>243.0</ele><time>2026-04-25T14:24:27.101Z</time></trkpt><trkpt lat="44.6704783" lon="7.9108283"><ele>243.0</ele><time>2026-04-25T14:24:28.101Z</time></trkpt><trkpt lat="44.6702783" lon="7.9108283"><ele>243.0</ele><time>2026-04-25T14:24:29.101Z</time></trkpt><trkpt lat="44.6700817" lon="7.9108183"><ele>243.0</ele><time>2026-04-25T14:24:30.101Z</time></trkpt><trkpt lat="44.6698867" lon="7.9107783"><ele>245.0</ele><time>2026-04-25T14:24:31.101Z</time></trkpt><trkpt lat="44.6696933" lon="7.9107133"><ele>247.0</ele><time>2026-04-25T14:24:32.101Z</time></trkpt><trkpt lat="44.6695033" lon="7.910625"><ele>249.0</ele><time>2026-04-25T14:24:33.101Z</time></trkpt><trkpt lat="44.6693167" lon="7.91053"><ele>250.0</ele><time>2026-04-25T14:24:34.101Z</time></trkpt><trkpt lat="44.669125" lon="7.9104333"><ele>251.0</ele><time>2026-04-25T14:24:35.101Z</time></trkpt><trkpt lat="44.6689333" lon="7.9103417"><ele>252.0</ele><time>2026-04-25T14:24:36.101Z</time></trkpt><trkpt lat="44.6687483" lon="7.9102517"><ele>253.0</ele><time>2026-04-25T14:24:37.101Z</time></trkpt><trkpt lat="44.668565" lon="7.9101617"><ele>254.0</ele><time>2026-04-25T14:24:38.101Z</time></trkpt><trkpt lat="44.668385" lon="7.9100783"><ele>255.0</ele><time>2026-04-25T14:24:39.101Z</time></trkpt><trkpt lat="44.6682117" lon="7.9099867"><ele>256.3333333333333</ele><time>2026-04-25T14:24:40.101Z</time></trkpt><trkpt lat="44.6680433" lon="7.909905"><ele>257.66666666666663</ele><time>2026-04-25T14:24:41.101Z</time></trkpt><trkpt lat="44.6678783" lon="7.9098117"><ele>259.0</ele><time>2026-04-25T14:24:42.101Z</time></trkpt><trkpt lat="44.6677267" lon="7.9097283"><ele>259.75</ele><time>2026-04-25T14:24:43.101Z</time></trkpt><trkpt lat="44.667585" lon="7.9096583"><ele>260.5</ele><time>2026-04-25T14:24:44.101Z</time></trkpt><trkpt lat="44.66745" lon="7.9095867"><ele>261.25</ele><time>2026-04-25T14:24:45.101Z</time></trkpt><trkpt lat="44.66733" lon="7.9095367"><ele>262.0</ele><time>2026-04-25T14:24:46.101Z</time></trkpt><trkpt lat="44.6672067" lon="7.9095433"><ele>262.0</ele><time>2026-04-25T14:24:47.101Z</time></trkpt><trkpt lat="44.6670867" lon="7.909575"><ele>262.0</ele><time>2026-04-25T14:24:48.101Z</time></trkpt><trkpt lat="44.666965" lon="7.9096733"><ele>262.0</ele><time>2026-04-25T14:24:49.101Z</time></trkpt><trkpt lat="44.6668533" lon="7.909795"><ele>262.0</ele><time>2026-04-25T14:24:50.101Z</time></trkpt><trkpt lat="44.66673" lon="7.909945"><ele>263.3333333333333</ele><time>2026-04-25T14:24:51.101Z</time></trkpt><trkpt lat="44.6666017" lon="7.9100867"><ele>264.6666666666667</ele><time>2026-04-25T14:24:52.101Z</time></trkpt><trkpt lat="44.666475" lon="7.9102383"><ele>266.0</ele><time>2026-04-25T14:24:53.101Z</time></trkpt><trkpt lat="44.6663417" lon="7.91039"><ele>266.0</ele><time>2026-04-25T14:24:54.101Z</time></trkpt><trkpt lat="44.6662167" lon="7.9105367"><ele>266.0</ele><time>2026-04-25T14:24:55.101Z</time></trkpt><trkpt lat="44.6661067" lon="7.9106883"><ele>266.0</ele><time>2026-04-25T14:24:56.101Z</time></trkpt><trkpt lat="44.6660183" lon="7.9108467"><ele>269.5</ele><time>2026-04-25T14:24:57.101Z</time></trkpt><trkpt lat="44.6659517" lon="7.9110033"><ele>273.0</ele><time>2026-04-25T14:24:58.101Z</time></trkpt><trkpt lat="44.6658967" lon="7.9111517"><ele>276.5</ele><time>2026-04-25T14:24:59.101Z</time></trkpt><trkpt lat="44.6658433" lon="7.9113067"><ele>280.0</ele><time>2026-04-25T14:25:00.101Z</time></trkpt><trkpt lat="44.66579" lon="7.9114567"><ele>280.0</ele><time>2026-04-25T14:25:01.101Z</time></trkpt><trkpt lat="44.6657283" lon="7.9116117"><ele>280.0</ele><time>2026-04-25T14:25:02.101Z</time></trkpt><trkpt lat="44.665675" lon="7.9117733"><ele>280.0</ele><time>2026-04-25T14:25:03.101Z</time></trkpt><trkpt lat="44.6656333" lon="7.9119317"><ele>280.0</ele><time>2026-04-25T14:25:04.101Z</time></trkpt><trkpt lat="44.665585" lon="7.912095"><ele>281.25</ele><time>2026-04-25T14:25:05.101Z</time></trkpt><trkpt lat="44.6655267" lon="7.91227"><ele>282.5</ele><time>2026-04-25T14:25:06.102Z</time></trkpt><trkpt lat="44.66547" lon="7.9124383"><ele>283.75</ele><time>2026-04-25T14:25:07.101Z</time></trkpt><trkpt lat="44.6654033" lon="7.9126067"><ele>285.0</ele><time>2026-04-25T14:25:08.101Z</time></trkpt><trkpt lat="44.6653383" lon="7.9127567"><ele>287.25</ele><time>2026-04-25T14:25:09.101Z</time></trkpt><trkpt lat="44.665255" lon="7.9129067"><ele>289.5</ele><time>2026-04-25T14:25:10.101Z</time></trkpt><trkpt lat="44.6651467" lon="7.9130317"><ele>291.75</ele><time>2026-04-25T14:25:11.101Z</time></trkpt><trkpt lat="44.66503" lon="7.9131433"><ele>294.0</ele><time>2026-04-25T14:25:12.101Z</time></trkpt><trkpt lat="44.6649233" lon="7.9132383"><ele>294.0</ele><time>2026-04-25T14:25:13.101Z</time></trkpt><trkpt lat="44.6648183" lon="7.91332"><ele>294.0</ele><time>2026-04-25T14:25:14.101Z</time></trkpt><trkpt lat="44.66471" lon="7.913365"><ele>294.0</ele><time>2026-04-25T14:25:15.101Z</time></trkpt><trkpt lat="44.664595" lon="7.9133867"><ele>294.0</ele><time>2026-04-25T14:25:16.101Z</time></trkpt><trkpt lat="44.66449" lon="7.9134267"><ele>296.25</ele><time>2026-04-25T14:25:17.101Z</time></trkpt><trkpt lat="44.6643833" lon="7.9135"><ele>298.5</ele><time>2026-04-25T14:25:18.101Z</time></trkpt><trkpt lat="44.6642767" lon="7.9136217"><ele>300.75</ele><time>2026-04-25T14:25:19.101Z</time></trkpt><trkpt lat="44.6641867" lon="7.9137767"><ele>303.0</ele><time>2026-04-25T14:25:20.101Z</time></trkpt><trkpt lat="44.664105" lon="7.91397"><ele>303.0</ele><time>2026-04-25T14:25:21.101Z</time></trkpt><trkpt lat="44.66403" lon="7.9141467"><ele>303.0</ele><time>2026-04-25T14:25:22.101Z</time></trkpt><trkpt lat="44.6639483" lon="7.9143133"><ele>303.0</ele><time>2026-04-25T14:25:23.101Z</time></trkpt><trkpt lat="44.6638683" lon="7.9144767"><ele>303.0</ele><time>2026-04-25T14:25:24.101Z</time></trkpt><trkpt lat="44.66377" lon="7.9146367"><ele>304.6666666666667</ele><time>2026-04-25T14:25:25.101Z</time></trkpt><trkpt lat="44.6636517" lon="7.9147867"><ele>306.33333333333337</ele><time>2026-04-25T14:25:26.101Z</time></trkpt><trkpt lat="44.66353" lon="7.9149317"><ele>308.0</ele><time>2026-04-25T14:25:27.101Z</time></trkpt><trkpt lat="44.6634017" lon="7.9150633"><ele>311.33333333333337</ele><time>2026-04-25T14:25:28.101Z</time></trkpt><trkpt lat="44.6632783" lon="7.9151983"><ele>314.6666666666667</ele><time>2026-04-25T14:25:29.101Z</time></trkpt><trkpt lat="44.66316" lon="7.9153483"><ele>318.0</ele><time>2026-04-25T14:25:30.101Z</time></trkpt><trkpt lat="44.6630433" lon="7.915485"><ele>318.0</ele><time>2026-04-25T14:25:31.101Z</time></trkpt><trkpt lat="44.6629267" lon="7.9156483"><ele>318.0</ele><time>2026-04-25T14:25:32.101Z</time></trkpt><trkpt lat="44.66281" lon="7.9158067"><ele>318.0</ele><time>2026-04-25T14:25:33.101Z</time></trkpt><trkpt lat="44.6627117" lon="7.91598"><ele>319.3333333333333</ele><time>2026-04-25T14:25:34.101Z</time></trkpt><trkpt lat="44.6626317" lon="7.916165"><ele>320.66666666666663</ele><time>2026-04-25T14:25:35.101Z</time></trkpt><trkpt lat="44.662565" lon="7.9163633"><ele>322.0</ele><time>2026-04-25T14:25:36.101Z</time></trkpt><trkpt lat="44.6625033" lon="7.9165583"><ele>323.75</ele><time>2026-04-25T14:25:37.101Z</time></trkpt><trkpt lat="44.662445" lon="7.9167567"><ele>325.5</ele><time>2026-04-25T14:25:38.101Z</time></trkpt><trkpt lat="44.6623883" lon="7.91695"><ele>327.25</ele><time>2026-04-25T14:25:39.101Z</time></trkpt><trkpt lat="44.6623433" lon="7.91713"><ele>329.0</ele><time>2026-04-25T14:25:40.101Z</time></trkpt><trkpt lat="44.66232" lon="7.9172883"><ele>329.0</ele><time>2026-04-25T14:25:41.101Z</time></trkpt><trkpt lat="44.6622733" lon="7.9174367"><ele>329.0</ele><time>2026-04-25T14:25:42.101Z</time></trkpt><trkpt lat="44.6622283" lon="7.9175883"><ele>329.0</ele><time>2026-04-25T14:25:43.101Z</time></trkpt><trkpt lat="44.6621583" lon="7.91773"><ele>329.0</ele><time>2026-04-25T14:25:44.102Z</time></trkpt><trkpt lat="44.6620717" lon="7.9178983"><ele>329.0</ele><time>2026-04-25T14:25:45.101Z</time></trkpt><trkpt lat="44.6619767" lon="7.9180733"><ele>329.0</ele><time>2026-04-25T14:25:46.101Z</time></trkpt><trkpt lat="44.6618833" lon="7.9182533"><ele>329.0</ele><time>2026-04-25T14:25:47.101Z</time></trkpt><trkpt lat="44.6617883" lon="7.9184283"><ele>329.0</ele><time>2026-04-25T14:25:48.101Z</time></trkpt><trkpt lat="44.6616867" lon="7.9186117"><ele>329.0</ele><time>2026-04-25T14:25:49.101Z</time></trkpt><trkpt lat="44.6616017" lon="7.9187783"><ele>329.0</ele><time>2026-04-25T14:25:50.101Z</time></trkpt><trkpt lat="44.6615117" lon="7.9189383"><ele>329.0</ele><time>2026-04-25T14:25:51.101Z</time></trkpt><trkpt lat="44.661415" lon="7.919085"><ele>329.0</ele><time>2026-04-25T14:25:52.101Z</time></trkpt><trkpt lat="44.6613183" lon="7.9192117"><ele>329.0</ele><time>2026-04-25T14:25:53.101Z</time></trkpt><trkpt lat="44.6612233" lon="7.91933"><ele>329.0</ele><time>2026-04-25T14:25:54.101Z</time></trkpt><trkpt lat="44.661135" lon="7.9194333"><ele>329.4</ele><time>2026-04-25T14:25:55.101Z</time></trkpt><trkpt lat="44.6610717" lon="7.9195317"><ele>329.79999999999995</ele><time>2026-04-25T14:25:56.101Z</time></trkpt><trkpt lat="44.66103" lon="7.9196333"><ele>330.20000000000005</ele><time>2026-04-25T14:25:57.101Z</time></trkpt><trkpt lat="44.66101" lon="7.9197683"><ele>330.6</ele><time>2026-04-25T14:25:58.101Z</time></trkpt><trkpt lat="44.661015" lon="7.9199117"><ele>331.0</ele><time>2026-04-25T14:25:59.101Z</time></trkpt><trkpt lat="44.66105" lon="7.9200683"><ele>332.5</ele><time>2026-04-25T14:26:00.101Z</time></trkpt><trkpt lat="44.6611033" lon="7.9202417"><ele>334.0</ele><time>2026-04-25T14:26:01.101Z</time></trkpt><trkpt lat="44.66119" lon="7.920395"><ele>335.5</ele><time>2026-04-25T14:26:02.101Z</time></trkpt><trkpt lat="44.661305" lon="7.920525"><ele>337.0</ele><time>2026-04-25T14:26:03.101Z</time></trkpt><trkpt lat="44.6614267" lon="7.9206167"><ele>337.0</ele><time>2026-04-25T14:26:04.101Z</time></trkpt><trkpt lat="44.6615533" lon="7.920675"><ele>337.0</ele><time>2026-04-25T14:26:05.101Z</time></trkpt><trkpt lat="44.6616583" lon="7.9207117"><ele>337.0</ele><time>2026-04-25T14:26:06.101Z</time></trkpt><trkpt lat="44.6617667" lon="7.9207417"><ele>337.0</ele><time>2026-04-25T14:26:07.101Z</time></trkpt><trkpt lat="44.6618483" lon="7.9207933"><ele>337.0</ele><time>2026-04-25T14:26:08.101Z</time></trkpt><trkpt lat="44.6618933" lon="7.9208717"><ele>339.40000000000003</ele><time>2026-04-25T14:26:09.101Z</time></trkpt><trkpt lat="44.6619033" lon="7.92096"><ele>341.8</ele><time>2026-04-25T14:26:10.101Z</time></trkpt><trkpt lat="44.6618183" lon="7.9211"><ele>344.2</ele><time>2026-04-25T14:26:12.102Z</time></trkpt><trkpt lat="44.66173" lon="7.9211317"><ele>346.6</ele><time>2026-04-25T14:26:13.101Z</time></trkpt><trkpt lat="44.6616117" lon="7.921135"><ele>349.0</ele><time>2026-04-25T14:26:14.101Z</time></trkpt><trkpt lat="44.6614633" lon="7.92113"><ele>349.0</ele><time>2026-04-25T14:26:15.101Z</time></trkpt><trkpt lat="44.6613167" lon="7.9211317"><ele>349.0</ele><time>2026-04-25T14:26:16.101Z</time></trkpt><trkpt lat="44.6611783" lon="7.921135"><ele>349.0</ele><time>2026-04-25T14:26:17.101Z</time></trkpt><trkpt lat="44.6610483" lon="7.9211467"><ele>349.0</ele><time>2026-04-25T14:26:18.101Z</time></trkpt><trkpt lat="44.6609233" lon="7.9211683"><ele>349.25</ele><time>2026-04-25T14:26:19.101Z</time></trkpt><trkpt lat="44.660795" lon="7.92121"><ele>349.5</ele><time>2026-04-25T14:26:20.101Z</time></trkpt><trkpt lat="44.6606617" lon="7.92129"><ele>349.75</ele><time>2026-04-25T14:26:21.101Z</time></trkpt><trkpt lat="44.660525" lon="7.9214017"><ele>350.0</ele><time>2026-04-25T14:26:22.101Z</time></trkpt><trkpt lat="44.6603933" lon="7.921525"><ele>349.33333333333337</ele><time>2026-04-25T14:26:23.101Z</time></trkpt><trkpt lat="44.66025" lon="7.9216533"><ele>348.6666666666667</ele><time>2026-04-25T14:26:24.101Z</time></trkpt><trkpt lat="44.6601067" lon="7.9217817"><ele>348.0</ele><time>2026-04-25T14:26:25.101Z</time></trkpt><trkpt lat="44.6599667" lon="7.921895"><ele>351.0</ele><time>2026-04-25T14:26:26.101Z</time></trkpt><trkpt lat="44.6598383" lon="7.9220183"><ele>354.0</ele><time>2026-04-25T14:26:27.101Z</time></trkpt><trkpt lat="44.65972" lon="7.9221517"><ele>357.0</ele><time>2026-04-25T14:26:28.101Z</time></trkpt><trkpt lat="44.6596183" lon="7.9222833"><ele>360.0</ele><time>2026-04-25T14:26:29.101Z</time></trkpt><trkpt lat="44.65954" lon="7.922445"><ele>360.25</ele><time>2026-04-25T14:26:30.101Z</time></trkpt><trkpt lat="44.6594667" lon="7.9226017"><ele>360.5</ele><time>2026-04-25T14:26:31.101Z</time></trkpt><trkpt lat="44.6593933" lon="7.9227567"><ele>360.75</ele><time>2026-04-25T14:26:32.101Z</time></trkpt><trkpt lat="44.65931" lon="7.9228933"><ele>361.0</ele><time>2026-04-25T14:26:33.101Z</time></trkpt><trkpt lat="44.6591917" lon="7.9230017"><ele>361.0</ele><time>2026-04-25T14:26:34.101Z</time></trkpt><trkpt lat="44.6590533" lon="7.9230667"><ele>361.0</ele><time>2026-04-25T14:26:35.101Z</time></trkpt><trkpt lat="44.6589017" lon="7.9231233"><ele>361.0</ele><time>2026-04-25T14:26:36.101Z</time></trkpt><trkpt lat="44.6587517" lon="7.92317"><ele>361.5</ele><time>2026-04-25T14:26:37.101Z</time></trkpt><trkpt lat="44.6586017" lon="7.9232033"><ele>362.0</ele><time>2026-04-25T14:26:38.101Z</time></trkpt><trkpt lat="44.658455" lon="7.92321"><ele>362.5</ele><time>2026-04-25T14:26:39.101Z</time></trkpt><trkpt lat="44.6583183" lon="7.923185"><ele>363.0</ele><time>2026-04-25T14:26:40.101Z</time></trkpt><trkpt lat="44.658185" lon="7.92315"><ele>363.0</ele><time>2026-04-25T14:26:41.101Z</time></trkpt><trkpt lat="44.6580533" lon="7.9231117"><ele>363.0</ele><time>2026-04-25T14:26:42.101Z</time></trkpt><trkpt lat="44.657925" lon="7.923095"><ele>363.0</ele><time>2026-04-25T14:26:43.101Z</time></trkpt><trkpt lat="44.6578167" lon="7.9231283"><ele>363.0</ele><time>2026-04-25T14:26:44.101Z</time></trkpt><trkpt lat="44.6577083" lon="7.9231833"><ele>364.0</ele><time>2026-04-25T14:26:45.101Z</time></trkpt><trkpt lat="44.6576033" lon="7.9232267"><ele>365.0</ele><time>2026-04-25T14:26:46.101Z</time></trkpt><trkpt lat="44.657495" lon="7.9232317"><ele>366.0</ele><time>2026-04-25T14:26:47.101Z</time></trkpt><trkpt lat="44.657385" lon="7.9231833"><ele>367.0</ele><time>2026-04-25T14:26:48.101Z</time></trkpt><trkpt lat="44.6572783" lon="7.9230683"><ele>367.0</ele><time>2026-04-25T14:26:49.101Z</time></trkpt><trkpt lat="44.65718" lon="7.92292"><ele>367.0</ele><time>2026-04-25T14:26:50.101Z</time></trkpt><trkpt lat="44.6570817" lon="7.9227667"><ele>367.0</ele><time>2026-04-25T14:26:51.101Z</time></trkpt><trkpt lat="44.6569867" lon="7.9226333"><ele>367.0</ele><time>2026-04-25T14:26:52.101Z</time></trkpt><trkpt lat="44.6568933" lon="7.922535"><ele>368.5</ele><time>2026-04-25T14:26:53.101Z</time></trkpt><trkpt lat="44.6567967" lon="7.922465"><ele>370.0</ele><time>2026-04-25T14:26:54.101Z</time></trkpt><trkpt lat="44.656665" lon="7.922445"><ele>371.5</ele><time>2026-04-25T14:26:55.101Z</time></trkpt><trkpt lat="44.6565233" lon="7.9224483"><ele>373.0</ele><time>2026-04-25T14:26:56.101Z</time></trkpt><trkpt lat="44.6563667" lon="7.922455"><ele>373.0</ele><time>2026-04-25T14:26:57.101Z</time></trkpt><trkpt lat="44.6562033" lon="7.92243"><ele>373.0</ele><time>2026-04-25T14:26:58.101Z</time></trkpt><trkpt lat="44.6560317" lon="7.9224"><ele>373.0</ele><time>2026-04-25T14:26:59.101Z</time></trkpt><trkpt lat="44.6558617" lon="7.9223683"><ele>374.0</ele><time>2026-04-25T14:27:00.101Z</time></trkpt><trkpt lat="44.6556933" lon="7.92233"><ele>375.0</ele><time>2026-04-25T14:27:01.101Z</time></trkpt><trkpt lat="44.6555217" lon="7.922285"><ele>376.0</ele><time>2026-04-25T14:27:02.101Z</time></trkpt><trkpt lat="44.6553467" lon="7.92224"><ele>378.3333333333333</ele><time>2026-04-25T14:27:03.101Z</time></trkpt><trkpt lat="44.65518" lon="7.9221917"><ele>380.6666666666667</ele><time>2026-04-25T14:27:04.101Z</time></trkpt><trkpt lat="44.6550083" lon="7.9221533"><ele>383.0</ele><time>2026-04-25T14:27:05.101Z</time></trkpt><trkpt lat="44.654845" lon="7.9221167"><ele>383.0</ele><time>2026-04-25T14:27:06.101Z</time></trkpt><trkpt lat="44.6546933" lon="7.9220783"><ele>383.0</ele><time>2026-04-25T14:27:07.101Z</time></trkpt><trkpt lat="44.654545" lon="7.92205"><ele>383.0</ele><time>2026-04-25T14:27:08.101Z</time></trkpt><trkpt lat="44.654395" lon="7.9220333"><ele>384.5</ele><time>2026-04-25T14:27:09.101Z</time></trkpt><trkpt lat="44.6542683" lon="7.922045"><ele>386.0</ele><time>2026-04-25T14:27:10.101Z</time></trkpt><trkpt lat="44.6541583" lon="7.92209"><ele>387.5</ele><time>2026-04-25T14:27:11.101Z</time></trkpt><trkpt lat="44.65406" lon="7.9221633"><ele>389.0</ele><time>2026-04-25T14:27:12.101Z</time></trkpt><trkpt lat="44.6539667" lon="7.9222483"><ele>389.0</ele><time>2026-04-25T14:27:13.101Z</time></trkpt><trkpt lat="44.65388" lon="7.9223217"><ele>389.0</ele><time>2026-04-25T14:27:14.101Z</time></trkpt><trkpt lat="44.6537783" lon="7.9223433"><ele>389.0</ele><time>2026-04-25T14:27:15.101Z</time></trkpt><trkpt lat="44.653675" lon="7.9223133"><ele>389.0</ele><time>2026-04-25T14:27:16.101Z</time></trkpt><trkpt lat="44.6535783" lon="7.92223"><ele>389.0</ele><time>2026-04-25T14:27:17.101Z</time></trkpt><trkpt lat="44.65349" lon="7.9221117"><ele>389.5</ele><time>2026-04-25T14:27:18.101Z</time></trkpt><trkpt lat="44.6534033" lon="7.9219583"><ele>390.0</ele><time>2026-04-25T14:27:19.101Z</time></trkpt><trkpt lat="44.653315" lon="7.9217933"><ele>390.5</ele><time>2026-04-25T14:27:20.101Z</time></trkpt><trkpt lat="44.6532233" lon="7.921625"><ele>391.0</ele><time>2026-04-25T14:27:21.101Z</time></trkpt><trkpt lat="44.6531183" lon="7.9215083"><ele>391.0</ele><time>2026-04-25T14:27:22.101Z</time></trkpt><trkpt lat="44.6530067" lon="7.9214333"><ele>391.0</ele><time>2026-04-25T14:27:23.101Z</time></trkpt><trkpt lat="44.652885" lon="7.9213883"><ele>391.0</ele><time>2026-04-25T14:27:24.101Z</time></trkpt><trkpt lat="44.6527483" lon="7.9213667"><ele>391.0</ele><time>2026-04-25T14:27:25.101Z</time></trkpt><trkpt lat="44.652615" lon="7.9213967"><ele>393.0</ele><time>2026-04-25T14:27:26.101Z</time></trkpt><trkpt lat="44.6524683" lon="7.921455"><ele>395.0</ele><time>2026-04-25T14:27:27.101Z</time></trkpt><trkpt lat="44.6523167" lon="7.9215367"><ele>397.0</ele><time>2026-04-25T14:27:28.101Z</time></trkpt><trkpt lat="44.6521683" lon="7.9216233"><ele>397.0</ele><time>2026-04-25T14:27:29.101Z</time></trkpt><trkpt lat="44.6520183" lon="7.9216983"><ele>397.0</ele><time>2026-04-25T14:27:30.101Z</time></trkpt><trkpt lat="44.6518633" lon="7.9217567"><ele>397.0</ele><time>2026-04-25T14:27:31.101Z</time></trkpt><trkpt lat="44.651715" lon="7.92182"><ele>400.0</ele><time>2026-04-25T14:27:32.101Z</time></trkpt><trkpt lat="44.6515683" lon="7.9218883"><ele>403.0</ele><time>2026-04-25T14:27:33.101Z</time></trkpt><trkpt lat="44.6514217" lon="7.9219467"><ele>406.0</ele><time>2026-04-25T14:27:34.101Z</time></trkpt><trkpt lat="44.6512833" lon="7.9220133"><ele>406.0</ele><time>2026-04-25T14:27:35.101Z</time></trkpt><trkpt lat="44.6511467" lon="7.9220883"><ele>406.0</ele><time>2026-04-25T14:27:36.101Z</time></trkpt><trkpt lat="44.6510217" lon="7.9221683"><ele>406.0</ele><time>2026-04-25T14:27:37.101Z</time></trkpt><trkpt lat="44.6508933" lon="7.9222533"><ele>406.0</ele><time>2026-04-25T14:27:38.101Z</time></trkpt><trkpt lat="44.6507667" lon="7.9223417"><ele>405.5</ele><time>2026-04-25T14:27:39.101Z</time></trkpt><trkpt lat="44.65063" lon="7.922425"><ele>405.0</ele><time>2026-04-25T14:27:40.101Z</time></trkpt><trkpt lat="44.6505033" lon="7.9225017"><ele>404.5</ele><time>2026-04-25T14:27:41.101Z</time></trkpt><trkpt lat="44.6503867" lon="7.92258"><ele>404.0</ele><time>2026-04-25T14:27:42.101Z</time></trkpt><trkpt lat="44.650285" lon="7.92265"><ele>404.99999999999994</ele><time>2026-04-25T14:27:43.101Z</time></trkpt><trkpt lat="44.6502117" lon="7.9227333"><ele>406.0</ele><time>2026-04-25T14:27:44.101Z</time></trkpt><trkpt lat="44.6501517" lon="7.92282"><ele>407.0</ele><time>2026-04-25T14:27:45.101Z</time></trkpt><trkpt lat="44.65012" lon="7.92292"><ele>408.0</ele><time>2026-04-25T14:27:46.101Z</time></trkpt><trkpt lat="44.6501283" lon="7.923045"><ele>408.99999999999994</ele><time>2026-04-25T14:27:47.101Z</time></trkpt><trkpt lat="44.6501533" lon="7.923165"><ele>410.0</ele><time>2026-04-25T14:27:48.101Z</time></trkpt><trkpt lat="44.6502083" lon="7.9232633"><ele>410.25</ele><time>2026-04-25T14:27:49.101Z</time></trkpt><trkpt lat="44.6502983" lon="7.923335"><ele>410.5</ele><time>2026-04-25T14:27:50.101Z</time></trkpt><trkpt lat="44.650405" lon="7.92338"><ele>410.75</ele><time>2026-04-25T14:27:51.101Z</time></trkpt><trkpt lat="44.650525" lon="7.9233783"><ele>411.0</ele><time>2026-04-25T14:27:52.101Z</time></trkpt><trkpt lat="44.6506517" lon="7.92332"><ele>411.0</ele><time>2026-04-25T14:27:53.101Z</time></trkpt><trkpt lat="44.650765" lon="7.9232367"><ele>411.0</ele><time>2026-04-25T14:27:54.101Z</time></trkpt><trkpt lat="44.6508567" lon="7.92316"><ele>411.0</ele><time>2026-04-25T14:27:55.101Z</time></trkpt><trkpt lat="44.6509467" lon="7.9231433"><ele>411.0</ele><time>2026-04-25T14:27:56.101Z</time></trkpt><trkpt lat="44.65103" lon="7.9231583"><ele>411.0</ele><time>2026-04-25T14:27:57.101Z</time></trkpt><trkpt lat="44.6511083" lon="7.9232"><ele>411.25</ele><time>2026-04-25T14:27:58.101Z</time></trkpt><trkpt lat="44.651195" lon="7.92327"><ele>411.5</ele><time>2026-04-25T14:27:59.101Z</time></trkpt><trkpt lat="44.651285" lon="7.9233717"><ele>411.75</ele><time>2026-04-25T14:28:00.101Z</time></trkpt><trkpt lat="44.6513717" lon="7.923495"><ele>412.0</ele><time>2026-04-25T14:28:01.101Z</time></trkpt><trkpt lat="44.65146" lon="7.923635"><ele>413.6666666666667</ele><time>2026-04-25T14:28:02.101Z</time></trkpt><trkpt lat="44.651565" lon="7.92378"><ele>415.33333333333337</ele><time>2026-04-25T14:28:03.101Z</time></trkpt><trkpt lat="44.6516867" lon="7.923945"><ele>417.0</ele><time>2026-04-25T14:28:04.101Z</time></trkpt><trkpt lat="44.6518167" lon="7.924125"><ele>416.66666666666663</ele><time>2026-04-25T14:28:05.101Z</time></trkpt><trkpt lat="44.6519383" lon="7.92432"><ele>416.3333333333333</ele><time>2026-04-25T14:28:06.101Z</time></trkpt><trkpt lat="44.65206" lon="7.92451"><ele>416.0</ele><time>2026-04-25T14:28:07.101Z</time></trkpt><trkpt lat="44.6521717" lon="7.92469"><ele>416.0</ele><time>2026-04-25T14:28:08.101Z</time></trkpt><trkpt lat="44.6522717" lon="7.92485"><ele>416.0</ele><time>2026-04-25T14:28:09.101Z</time></trkpt><trkpt lat="44.6523583" lon="7.9249867"><ele>416.0</ele><time>2026-04-25T14:28:10.101Z</time></trkpt><trkpt lat="44.6524267" lon="7.9251033"><ele>416.0</ele><time>2026-04-25T14:28:11.101Z</time></trkpt><trkpt lat="44.6524783" lon="7.925205"><ele>417.49999999999994</ele><time>2026-04-25T14:28:12.101Z</time></trkpt><trkpt lat="44.652505" lon="7.9253067"><ele>419.0</ele><time>2026-04-25T14:28:13.101Z</time></trkpt><trkpt lat="44.652505" lon="7.9254133"><ele>420.5</ele><time>2026-04-25T14:28:14.101Z</time></trkpt><trkpt lat="44.6524717" lon="7.9255"><ele>422.0</ele><time>2026-04-25T14:28:15.101Z</time></trkpt><trkpt lat="44.6524183" lon="7.9255817"><ele>423.49999999999994</ele><time>2026-04-25T14:28:16.101Z</time></trkpt><trkpt lat="44.6523383" lon="7.9256383"><ele>425.0</ele><time>2026-04-25T14:28:17.101Z</time></trkpt><trkpt lat="44.6522433" lon="7.9256417"><ele>425.0</ele><time>2026-04-25T14:28:18.101Z</time></trkpt><trkpt lat="44.6521167" lon="7.9256133"><ele>425.0</ele><time>2026-04-25T14:28:19.101Z</time></trkpt><trkpt lat="44.6519633" lon="7.92557"><ele>425.0</ele><time>2026-04-25T14:28:20.101Z</time></trkpt><trkpt lat="44.6518067" lon="7.925525"><ele>425.0</ele><time>2026-04-25T14:28:21.101Z</time></trkpt><trkpt lat="44.6516483" lon="7.9254883"><ele>426.66666666666663</ele><time>2026-04-25T14:28:22.101Z</time></trkpt><trkpt lat="44.651485" lon="7.9254517"><ele>428.33333333333337</ele><time>2026-04-25T14:28:23.101Z</time></trkpt><trkpt lat="44.6513183" lon="7.9254233"><ele>430.0</ele><time>2026-04-25T14:28:24.101Z</time></trkpt><trkpt lat="44.6511483" lon="7.9253933"><ele>432.33333333333337</ele><time>2026-04-25T14:28:25.102Z</time></trkpt><trkpt lat="44.6509767" lon="7.925355"><ele>434.66666666666663</ele><time>2026-04-25T14:28:26.101Z</time></trkpt><trkpt lat="44.650805" lon="7.9253133"><ele>437.0</ele><time>2026-04-25T14:28:27.101Z</time></trkpt><trkpt lat="44.6506367" lon="7.9252867"><ele>437.0</ele><time>2026-04-25T14:28:28.101Z</time></trkpt><trkpt lat="44.650475" lon="7.9252533"><ele>437.0</ele><time>2026-04-25T14:28:29.101Z</time></trkpt><trkpt lat="44.65031" lon="7.92522"><ele>437.0</ele><time>2026-04-25T14:28:30.101Z</time></trkpt><trkpt lat="44.6501467" lon="7.925215"><ele>438.66666666666663</ele><time>2026-04-25T14:28:31.101Z</time></trkpt><trkpt lat="44.6499933" lon="7.9252483"><ele>440.33333333333337</ele><time>2026-04-25T14:28:32.101Z</time></trkpt><trkpt lat="44.6498433" lon="7.9252983"><ele>442.0</ele><time>2026-04-25T14:28:33.101Z</time></trkpt><trkpt lat="44.6496967" lon="7.9253617"><ele>442.0</ele><time>2026-04-25T14:28:34.101Z</time></trkpt><trkpt lat="44.6495517" lon="7.9254317"><ele>442.0</ele><time>2026-04-25T14:28:35.101Z</time></trkpt><trkpt lat="44.649415" lon="7.9254967"><ele>442.0</ele><time>2026-04-25T14:28:36.101Z</time></trkpt><trkpt lat="44.64928" lon="7.9255567"><ele>442.0</ele><time>2026-04-25T14:28:37.101Z</time></trkpt><trkpt lat="44.6491283" lon="7.9256233"><ele>441.6666666666667</ele><time>2026-04-25T14:28:38.101Z</time></trkpt><trkpt lat="44.6489833" lon="7.9256967"><ele>441.33333333333337</ele><time>2026-04-25T14:28:39.101Z</time></trkpt><trkpt lat="44.6488383" lon="7.925775"><ele>441.0</ele><time>2026-04-25T14:28:40.101Z</time></trkpt><trkpt lat="44.6486783" lon="7.9258533"><ele>443.0</ele><time>2026-04-25T14:28:41.101Z</time></trkpt><trkpt lat="44.6485183" lon="7.9259433"><ele>445.0</ele><time>2026-04-25T14:28:42.101Z</time></trkpt><trkpt lat="44.6483583" lon="7.926015"><ele>447.0</ele><time>2026-04-25T14:28:43.101Z</time></trkpt><trkpt lat="44.6482017" lon="7.9260867"><ele>447.0</ele><time>2026-04-25T14:28:44.101Z</time></trkpt><trkpt lat="44.64806" lon="7.9261567"><ele>447.0</ele><time>2026-04-25T14:28:45.101Z</time></trkpt><trkpt lat="44.6479317" lon="7.9262233"><ele>447.0</ele><time>2026-04-25T14:28:46.101Z</time></trkpt><trkpt lat="44.6478133" lon="7.9262933"><ele>447.0</ele><time>2026-04-25T14:28:47.101Z</time></trkpt><trkpt lat="44.6477033" lon="7.9263533"><ele>447.0</ele><time>2026-04-25T14:28:48.101Z</time></trkpt><trkpt lat="44.6475967" lon="7.9264083"><ele>447.0</ele><time>2026-04-25T14:28:49.101Z</time></trkpt><trkpt lat="44.64749" lon="7.92646"><ele>447.0</ele><time>2026-04-25T14:28:50.101Z</time></trkpt><trkpt lat="44.64738" lon="7.926515"><ele>447.0</ele><time>2026-04-25T14:28:51.101Z</time></trkpt><trkpt lat="44.6472717" lon="7.9265767"><ele>447.0</ele><time>2026-04-25T14:28:52.101Z</time></trkpt><trkpt lat="44.647175" lon="7.926635"><ele>447.00000000000006</ele><time>2026-04-25T14:28:53.101Z</time></trkpt><trkpt lat="44.647085" lon="7.92668"><ele>447.00000000000006</ele><time>2026-04-25T14:28:54.101Z</time></trkpt><trkpt lat="44.647015" lon="7.9267183"><ele>447.0</ele><time>2026-04-25T14:28:55.101Z</time></trkpt><trkpt lat="44.646925" lon="7.92678"><ele>447.0</ele><time>2026-04-25T14:28:57.101Z</time></trkpt><trkpt lat="44.6468517" lon="7.9268283"><ele>449.6</ele><time>2026-04-25T14:29:00.101Z</time></trkpt><trkpt lat="44.6467733" lon="7.92688"><ele>452.20000000000005</ele><time>2026-04-25T14:29:02.101Z</time></trkpt><trkpt lat="44.6467033" lon="7.9269283"><ele>454.8</ele><time>2026-04-25T14:29:03.1Z</time></trkpt><trkpt lat="44.646615" lon="7.9270133"><ele>457.4</ele><time>2026-04-25T14:29:04.1Z</time></trkpt><trkpt lat="44.64651" lon="7.92712"><ele>460.0</ele><time>2026-04-25T14:29:05.1Z</time></trkpt><trkpt lat="44.6464" lon="7.9272333"><ele>460.0</ele><time>2026-04-25T14:29:06.1Z</time></trkpt><trkpt lat="44.6463067" lon="7.9273433"><ele>460.0</ele><time>2026-04-25T14:29:07.1Z</time></trkpt><trkpt lat="44.646215" lon="7.9274633"><ele>460.0</ele><time>2026-04-25T14:29:08.1Z</time></trkpt><trkpt lat="44.6461167" lon="7.9275867"><ele>460.0</ele><time>2026-04-25T14:29:09.1Z</time></trkpt><trkpt lat="44.64602" lon="7.9277117"><ele>461.25</ele><time>2026-04-25T14:29:10.1Z</time></trkpt><trkpt lat="44.6459217" lon="7.9278283"><ele>462.5</ele><time>2026-04-25T14:29:11.1Z</time></trkpt><trkpt lat="44.6458233" lon="7.9279567"><ele>463.75</ele><time>2026-04-25T14:29:12.1Z</time></trkpt><trkpt lat="44.6457183" lon="7.9281017"><ele>465.0</ele><time>2026-04-25T14:29:13.1Z</time></trkpt><trkpt lat="44.6456283" lon="7.9282267"><ele>465.0</ele><time>2026-04-25T14:29:14.1Z</time></trkpt><trkpt lat="44.6455433" lon="7.9283433"><ele>465.0</ele><time>2026-04-25T14:29:15.1Z</time></trkpt><trkpt lat="44.645465" lon="7.9284567"><ele>465.0</ele><time>2026-04-25T14:29:16.1Z</time></trkpt><trkpt lat="44.64538" lon="7.9285733"><ele>465.0</ele><time>2026-04-25T14:29:17.1Z</time></trkpt><trkpt lat="44.6452933" lon="7.9286817"><ele>466.0</ele><time>2026-04-25T14:29:18.1Z</time></trkpt><trkpt lat="44.645215" lon="7.9287967"><ele>467.0</ele><time>2026-04-25T14:29:19.1Z</time></trkpt><trkpt lat="44.645125" lon="7.928915"><ele>468.0</ele><time>2026-04-25T14:29:20.1Z</time></trkpt><trkpt lat="44.6450417" lon="7.9290267"><ele>469.0</ele><time>2026-04-25T14:29:21.1Z</time></trkpt><trkpt lat="44.6449533" lon="7.9291333"><ele>469.0</ele><time>2026-04-25T14:29:22.1Z</time></trkpt><trkpt lat="44.6448633" lon="7.929245"><ele>469.0</ele><time>2026-04-25T14:29:23.1Z</time></trkpt><trkpt lat="44.6447783" lon="7.929365"><ele>469.0</ele><time>2026-04-25T14:29:24.1Z</time></trkpt><trkpt lat="44.644695" lon="7.92948"><ele>469.0</ele><time>2026-04-25T14:29:25.1Z</time></trkpt><trkpt lat="44.6446167" lon="7.92959"><ele>469.0</ele><time>2026-04-25T14:29:26.1Z</time></trkpt><trkpt lat="44.64454" lon="7.92969"><ele>469.0</ele><time>2026-04-25T14:29:27.1Z</time></trkpt><trkpt lat="44.64446" lon="7.9297917"><ele>469.0</ele><time>2026-04-25T14:29:28.1Z</time></trkpt><trkpt lat="44.6443867" lon="7.9298833"><ele>469.0</ele><time>2026-04-25T14:29:29.1Z</time></trkpt><trkpt lat="44.6443133" lon="7.9299633"><ele>469.0</ele><time>2026-04-25T14:29:30.1Z</time></trkpt><trkpt lat="44.64424" lon="7.9300267"><ele>471.6</ele><time>2026-04-25T14:29:31.1Z</time></trkpt><trkpt lat="44.6441783" lon="7.93007"><ele>474.2</ele><time>2026-04-25T14:29:32.1Z</time></trkpt><trkpt lat="44.644085" lon="7.930145"><ele>476.80000000000007</ele><time>2026-04-25T14:29:34.1Z</time></trkpt><trkpt lat="44.6440217" lon="7.9303317"><ele>479.40000000000003</ele><time>2026-04-25T14:29:36.1Z</time></trkpt><trkpt lat="44.6439783" lon="7.9304533"><ele>482.0</ele><time>2026-04-25T14:29:37.1Z</time></trkpt><trkpt lat="44.6439167" lon="7.93056"><ele>482.0</ele><time>2026-04-25T14:29:38.1Z</time></trkpt><trkpt lat="44.643855" lon="7.930665"><ele>482.0</ele><time>2026-04-25T14:29:39.1Z</time></trkpt><trkpt lat="44.6437683" lon="7.93077"><ele>482.0</ele><time>2026-04-25T14:29:40.1Z</time></trkpt><trkpt lat="44.643675" lon="7.93088"><ele>482.0</ele><time>2026-04-25T14:29:41.1Z</time></trkpt><trkpt lat="44.643585" lon="7.9309917"><ele>483.40000000000003</ele><time>2026-04-25T14:29:42.1Z</time></trkpt><trkpt lat="44.6435033" lon="7.9310933"><ele>484.80000000000007</ele><time>2026-04-25T14:29:43.1Z</time></trkpt><trkpt lat="44.6434233" lon="7.9311983"><ele>486.2</ele><time>2026-04-25T14:29:44.1Z</time></trkpt><trkpt lat="44.6433467" lon="7.9313033"><ele>487.6</ele><time>2026-04-25T14:29:45.1Z</time></trkpt><trkpt lat="44.6432617" lon="7.9314067"><ele>489.0</ele><time>2026-04-25T14:29:46.1Z</time></trkpt><trkpt lat="44.643185" lon="7.931515"><ele>489.0</ele><time>2026-04-25T14:29:47.1Z</time></trkpt><trkpt lat="44.6431117" lon="7.9316183"><ele>489.0</ele><time>2026-04-25T14:29:48.1Z</time></trkpt><trkpt lat="44.6430467" lon="7.931705"><ele>489.0</ele><time>2026-04-25T14:29:49.1Z</time></trkpt><trkpt lat="44.6429767" lon="7.9317933"><ele>489.0</ele><time>2026-04-25T14:29:50.1Z</time></trkpt><trkpt lat="44.6429133" lon="7.9318833"><ele>489.0</ele><time>2026-04-25T14:29:51.1Z</time></trkpt><trkpt lat="44.6428483" lon="7.9319633"><ele>490.3333333333333</ele><time>2026-04-25T14:29:52.1Z</time></trkpt><trkpt lat="44.642795" lon="7.93203"><ele>491.66666666666663</ele><time>2026-04-25T14:29:53.1Z</time></trkpt><trkpt lat="44.64274" lon="7.932105"><ele>493.0</ele><time>2026-04-25T14:29:54.1Z</time></trkpt><trkpt lat="44.6426783" lon="7.9321917"><ele>494.3333333333333</ele><time>2026-04-25T14:29:55.1Z</time></trkpt><trkpt lat="44.6426017" lon="7.932285"><ele>495.66666666666663</ele><time>2026-04-25T14:29:56.1Z</time></trkpt><trkpt lat="44.64252" lon="7.932355"><ele>497.0</ele><time>2026-04-25T14:29:57.1Z</time></trkpt><trkpt lat="44.6424183" lon="7.9324217"><ele>497.0</ele><time>2026-04-25T14:29:58.1Z</time></trkpt><trkpt lat="44.6423083" lon="7.9324733"><ele>497.00000000000006</ele><time>2026-04-25T14:29:59.1Z</time></trkpt><trkpt lat="44.6422033" lon="7.9325217"><ele>497.00000000000006</ele><time>2026-04-25T14:30:00.1Z</time></trkpt><trkpt lat="44.6421083" lon="7.932565"><ele>497.0</ele><time>2026-04-25T14:30:01.1Z</time></trkpt><trkpt lat="44.6420183" lon="7.9325867"><ele>497.0</ele><time>2026-04-25T14:30:02.1Z</time></trkpt><trkpt lat="44.641945" lon="7.9326167"><ele>496.8571428571429</ele><time>2026-04-25T14:30:03.1Z</time></trkpt><trkpt lat="44.6418717" lon="7.93265"><ele>496.7142857142857</ele><time>2026-04-25T14:30:04.1Z</time></trkpt><trkpt lat="44.6417983" lon="7.93269"><ele>496.57142857142856</ele><time>2026-04-25T14:30:05.1Z</time></trkpt><trkpt lat="44.6417283" lon="7.9327283"><ele>496.42857142857144</ele><time>2026-04-25T14:30:06.1Z</time></trkpt><trkpt lat="44.6416633" lon="7.9327617"><ele>496.28571428571433</ele><time>2026-04-25T14:30:07.1Z</time></trkpt><trkpt lat="44.6415967" lon="7.9327867"><ele>496.14285714285717</ele><time>2026-04-25T14:30:08.1Z</time></trkpt><trkpt lat="44.6415317" lon="7.9328083"><ele>496.0</ele><time>2026-04-25T14:30:09.1Z</time></trkpt><trkpt lat="44.6414667" lon="7.932835"><ele>496.00000000000006</ele><time>2026-04-25T14:30:10.1Z</time></trkpt><trkpt lat="44.6413967" lon="7.9328633"><ele>496.0</ele><time>2026-04-25T14:30:11.1Z</time></trkpt><trkpt lat="44.64133" lon="7.9328883"><ele>496.0</ele><time>2026-04-25T14:30:12.1Z</time></trkpt><trkpt lat="44.6412683" lon="7.9329233"><ele>496.0</ele><time>2026-04-25T14:30:13.1Z</time></trkpt><trkpt lat="44.6411967" lon="7.9329633"><ele>496.00000000000006</ele><time>2026-04-25T14:30:14.101Z</time></trkpt><trkpt lat="44.64111" lon="7.933015"><ele>496.0</ele><time>2026-04-25T14:30:15.1Z</time></trkpt><trkpt lat="44.6410283" lon="7.9330683"><ele>496.50000000000006</ele><time>2026-04-25T14:30:16.1Z</time></trkpt><trkpt lat="44.6409583" lon="7.9331133"><ele>497.0</ele><time>2026-04-25T14:30:17.1Z</time></trkpt><trkpt lat="44.6408817" lon="7.9331617"><ele>497.5</ele><time>2026-04-25T14:30:18.1Z</time></trkpt><trkpt lat="44.6408067" lon="7.9332167"><ele>498.0</ele><time>2026-04-25T14:30:19.1Z</time></trkpt><trkpt lat="44.640735" lon="7.9332683"><ele>498.50000000000006</ele><time>2026-04-25T14:30:20.1Z</time></trkpt><trkpt lat="44.64066" lon="7.9332983"><ele>499.0</ele><time>2026-04-25T14:30:21.1Z</time></trkpt><trkpt lat="44.6405917" lon="7.9333333"><ele>499.00000000000006</ele><time>2026-04-25T14:30:22.1Z</time></trkpt><trkpt lat="44.64051" lon="7.9333633"><ele>499.0</ele><time>2026-04-25T14:30:23.1Z</time></trkpt><trkpt lat="44.6404333" lon="7.933415"><ele>499.0</ele><time>2026-04-25T14:30:24.1Z</time></trkpt><trkpt lat="44.6403617" lon="7.9334567"><ele>499.0</ele><time>2026-04-25T14:30:25.1Z</time></trkpt><trkpt lat="44.6402933" lon="7.9335033"><ele>499.00000000000006</ele><time>2026-04-25T14:30:26.1Z</time></trkpt><trkpt lat="44.6402117" lon="7.9335517"><ele>499.0</ele><time>2026-04-25T14:30:27.1Z</time></trkpt><trkpt lat="44.6401367" lon="7.9336017"><ele>498.33333333333337</ele><time>2026-04-25T14:30:28.1Z</time></trkpt><trkpt lat="44.6400583" lon="7.9336467"><ele>497.6666666666667</ele><time>2026-04-25T14:30:29.1Z</time></trkpt><trkpt lat="44.6399817" lon="7.9336933"><ele>497.0</ele><time>2026-04-25T14:30:30.1Z</time></trkpt><trkpt lat="44.6399067" lon="7.9337433"><ele>496.33333333333337</ele><time>2026-04-25T14:30:31.1Z</time></trkpt><trkpt lat="44.639845" lon="7.9337833"><ele>495.6666666666667</ele><time>2026-04-25T14:30:32.1Z</time></trkpt><trkpt lat="44.6397717" lon="7.933815"><ele>495.0</ele><time>2026-04-25T14:30:33.1Z</time></trkpt><trkpt lat="44.6397017" lon="7.93385"><ele>495.0</ele><time>2026-04-25T14:30:34.1Z</time></trkpt><trkpt lat="44.6396317" lon="7.9338917"><ele>495.0</ele><time>2026-04-25T14:30:35.1Z</time></trkpt><trkpt lat="44.6395617" lon="7.933925"><ele>495.0</ele><time>2026-04-25T14:30:36.1Z</time></trkpt><trkpt lat="44.6394867" lon="7.933975"><ele>495.0</ele><time>2026-04-25T14:30:37.1Z</time></trkpt><trkpt lat="44.6394233" lon="7.933995"><ele>495.0</ele><time>2026-04-25T14:30:38.1Z</time></trkpt><trkpt lat="44.6393317" lon="7.9340417"><ele>495.0</ele><time>2026-04-25T14:30:40.1Z</time></trkpt><trkpt lat="44.6392783" lon="7.9341117"><ele>493.2</ele><time>2026-04-25T14:30:43.1Z</time></trkpt><trkpt lat="44.6391617" lon="7.93426"><ele>491.4</ele><time>2026-04-25T14:30:52.1Z</time></trkpt><trkpt lat="44.6391717" lon="7.9343917"><ele>489.6</ele><time>2026-04-25T14:30:54.1Z</time></trkpt><trkpt lat="44.6392667" lon="7.934485"><ele>487.8</ele><time>2026-04-25T14:30:56.101Z</time></trkpt><trkpt lat="44.6393483" lon="7.93449"><ele>486.0</ele><time>2026-04-25T14:30:57.1Z</time></trkpt><trkpt lat="44.6394383" lon="7.9344683"><ele>482.8</ele><time>2026-04-25T14:30:58.1Z</time></trkpt><trkpt lat="44.6395467" lon="7.934425"><ele>479.6</ele><time>2026-04-25T14:30:59.1Z</time></trkpt><trkpt lat="44.639655" lon="7.9343883"><ele>476.4</ele><time>2026-04-25T14:31:00.1Z</time></trkpt><trkpt lat="44.6397633" lon="7.9343433"><ele>473.2</ele><time>2026-04-25T14:31:01.1Z</time></trkpt><trkpt lat="44.6398733" lon="7.934315"><ele>470.0</ele><time>2026-04-25T14:31:02.1Z</time></trkpt><trkpt lat="44.6399683" lon="7.9342883"><ele>470.0</ele><time>2026-04-25T14:31:03.1Z</time></trkpt><trkpt lat="44.640065" lon="7.93426"><ele>470.0</ele><time>2026-04-25T14:31:04.1Z</time></trkpt><trkpt lat="44.6401633" lon="7.9342283"><ele>470.0</ele><time>2026-04-25T14:31:05.1Z</time></trkpt><trkpt lat="44.6402683" lon="7.9341983"><ele>470.0</ele><time>2026-04-25T14:31:06.1Z</time></trkpt><trkpt lat="44.64037" lon="7.9341783"><ele>470.0</ele><time>2026-04-25T14:31:07.1Z</time></trkpt><trkpt lat="44.6404767" lon="7.9341567"><ele>472.8</ele><time>2026-04-25T14:31:08.1Z</time></trkpt><trkpt lat="44.6405867" lon="7.9341367"><ele>475.6</ele><time>2026-04-25T14:31:09.1Z</time></trkpt><trkpt lat="44.64069" lon="7.9341167"><ele>478.4</ele><time>2026-04-25T14:31:10.1Z</time></trkpt><trkpt lat="44.6407983" lon="7.9340983"><ele>481.2</ele><time>2026-04-25T14:31:11.1Z</time></trkpt><trkpt lat="44.6408983" lon="7.93408"><ele>484.0</ele><time>2026-04-25T14:31:12.1Z</time></trkpt><trkpt lat="44.641" lon="7.9340717"><ele>484.0</ele><time>2026-04-25T14:31:13.1Z</time></trkpt><trkpt lat="44.641095" lon="7.9340633"><ele>484.0</ele><time>2026-04-25T14:31:14.1Z</time></trkpt><trkpt lat="44.6411967" lon="7.9340483"><ele>484.0</ele><time>2026-04-25T14:31:15.1Z</time></trkpt><trkpt lat="44.6412933" lon="7.934035"><ele>484.0</ele><time>2026-04-25T14:31:16.1Z</time></trkpt><trkpt lat="44.64139" lon="7.9340267"><ele>484.0</ele><time>2026-04-25T14:31:17.1Z</time></trkpt><trkpt lat="44.6414833" lon="7.9340133"><ele>482.6666666666667</ele><time>2026-04-25T14:31:18.1Z</time></trkpt><trkpt lat="44.6415733" lon="7.9340017"><ele>481.33333333333337</ele><time>2026-04-25T14:31:19.1Z</time></trkpt><trkpt lat="44.6416633" lon="7.9339817"><ele>480.0</ele><time>2026-04-25T14:31:20.1Z</time></trkpt><trkpt lat="44.641755" lon="7.933965"><ele>478.66666666666663</ele><time>2026-04-25T14:31:21.1Z</time></trkpt><trkpt lat="44.6418367" lon="7.933945"><ele>477.3333333333333</ele><time>2026-04-25T14:31:22.1Z</time></trkpt><trkpt lat="44.64191" lon="7.9339367"><ele>476.0</ele><time>2026-04-25T14:31:23.1Z</time></trkpt><trkpt lat="44.6419783" lon="7.9339267"><ele>476.0</ele><time>2026-04-25T14:31:24.1Z</time></trkpt><trkpt lat="44.6420683" lon="7.9339933"><ele>476.0</ele><time>2026-04-25T14:31:26.1Z</time></trkpt><trkpt lat="44.64206" lon="7.934115"><ele>476.0</ele><time>2026-04-25T14:31:28.1Z</time></trkpt><trkpt lat="44.6420083" lon="7.9341667"><ele>476.0</ele><time>2026-04-25T14:31:29.1Z</time></trkpt><trkpt lat="44.6419167" lon="7.93421"><ele>476.0</ele><time>2026-04-25T14:31:30.1Z</time></trkpt><trkpt lat="44.6417933" lon="7.9342417"><ele>470.0</ele><time>2026-04-25T14:31:31.1Z</time></trkpt><trkpt lat="44.64166" lon="7.93427"><ele>464.0</ele><time>2026-04-25T14:31:32.1Z</time></trkpt><trkpt lat="44.6415317" lon="7.93431"><ele>458.0</ele><time>2026-04-25T14:31:33.1Z</time></trkpt><trkpt lat="44.6414083" lon="7.9343717"><ele>452.0</ele><time>2026-04-25T14:31:34.1Z</time></trkpt><trkpt lat="44.641275" lon="7.9344317"><ele>455.0</ele><time>2026-04-25T14:31:35.1Z</time></trkpt><trkpt lat="44.6411317" lon="7.93452"><ele>458.0</ele><time>2026-04-25T14:31:36.1Z</time></trkpt><trkpt lat="44.6409867" lon="7.9346067"><ele>461.0</ele><time>2026-04-25T14:31:37.1Z</time></trkpt><trkpt lat="44.6408117" lon="7.93472"><ele>461.0</ele><time>2026-04-25T14:31:38.1Z</time></trkpt><trkpt lat="44.640635" lon="7.93483"><ele>461.0</ele><time>2026-04-25T14:31:39.1Z</time></trkpt><trkpt lat="44.6404567" lon="7.9349317"><ele>461.0</ele><time>2026-04-25T14:31:40.1Z</time></trkpt><trkpt lat="44.6402833" lon="7.9350233"><ele>456.66666666666663</ele><time>2026-04-25T14:31:41.1Z</time></trkpt><trkpt lat="44.640115" lon="7.9351083"><ele>452.33333333333337</ele><time>2026-04-25T14:31:42.1Z</time></trkpt><trkpt lat="44.6399617" lon="7.9351983"><ele>448.0</ele><time>2026-04-25T14:31:43.1Z</time></trkpt><trkpt lat="44.639815" lon="7.9352883"><ele>448.0</ele><time>2026-04-25T14:31:44.1Z</time></trkpt><trkpt lat="44.63968" lon="7.935395"><ele>448.0</ele><time>2026-04-25T14:31:45.1Z</time></trkpt><trkpt lat="44.63955" lon="7.9355367"><ele>448.0</ele><time>2026-04-25T14:31:46.1Z</time></trkpt><trkpt lat="44.6394367" lon="7.9356933"><ele>446.0</ele><time>2026-04-25T14:31:47.1Z</time></trkpt><trkpt lat="44.6393317" lon="7.93585"><ele>444.0</ele><time>2026-04-25T14:31:48.1Z</time></trkpt><trkpt lat="44.6392333" lon="7.9359883"><ele>442.0</ele><time>2026-04-25T14:31:49.1Z</time></trkpt><trkpt lat="44.6391383" lon="7.936125"><ele>440.0</ele><time>2026-04-25T14:31:50.1Z</time></trkpt><trkpt lat="44.6390417" lon="7.9362533"><ele>440.0</ele><time>2026-04-25T14:31:51.1Z</time></trkpt><trkpt lat="44.6389567" lon="7.936375"><ele>440.0</ele><time>2026-04-25T14:31:52.1Z</time></trkpt><trkpt lat="44.6388667" lon="7.9365183"><ele>440.0</ele><time>2026-04-25T14:31:53.1Z</time></trkpt><trkpt lat="44.6387817" lon="7.9366433"><ele>440.0</ele><time>2026-04-25T14:31:54.1Z</time></trkpt><trkpt lat="44.638695" lon="7.936755"><ele>437.5</ele><time>2026-04-25T14:31:55.1Z</time></trkpt><trkpt lat="44.6386067" lon="7.9368767"><ele>435.0</ele><time>2026-04-25T14:31:56.1Z</time></trkpt><trkpt lat="44.6385167" lon="7.93697"><ele>432.5</ele><time>2026-04-25T14:31:57.1Z</time></trkpt><trkpt lat="44.63841" lon="7.9370467"><ele>430.0</ele><time>2026-04-25T14:31:58.1Z</time></trkpt><trkpt lat="44.638285" lon="7.93708"><ele>430.0</ele><time>2026-04-25T14:31:59.1Z</time></trkpt><trkpt lat="44.638155" lon="7.9370883"><ele>430.0</ele><time>2026-04-25T14:32:00.1Z</time></trkpt><trkpt lat="44.6380283" lon="7.93703"><ele>430.0</ele><time>2026-04-25T14:32:01.1Z</time></trkpt><trkpt lat="44.637895" lon="7.9369583"><ele>430.0</ele><time>2026-04-25T14:32:02.1Z</time></trkpt><trkpt lat="44.6377567" lon="7.9368733"><ele>431.75</ele><time>2026-04-25T14:32:03.1Z</time></trkpt><trkpt lat="44.6376183" lon="7.936805"><ele>433.5</ele><time>2026-04-25T14:32:04.1Z</time></trkpt><trkpt lat="44.6374717" lon="7.9367333"><ele>435.25</ele><time>2026-04-25T14:32:05.1Z</time></trkpt><trkpt lat="44.63734" lon="7.9366567"><ele>437.0</ele><time>2026-04-25T14:32:06.1Z</time></trkpt><trkpt lat="44.6372317" lon="7.9365983"><ele>436.99999999999994</ele><time>2026-04-25T14:32:07.1Z</time></trkpt><trkpt lat="44.6371467" lon="7.93656"><ele>437.0</ele><time>2026-04-25T14:32:08.1Z</time></trkpt><trkpt lat="44.6370683" lon="7.936545"><ele>437.0</ele><time>2026-04-25T14:32:09.1Z</time></trkpt><trkpt lat="44.6369983" lon="7.9365517"><ele>437.0</ele><time>2026-04-25T14:32:10.1Z</time></trkpt><trkpt lat="44.6369333" lon="7.93659"><ele>436.99999999999994</ele><time>2026-04-25T14:32:11.1Z</time></trkpt><trkpt lat="44.63687" lon="7.93666"><ele>437.0</ele><time>2026-04-25T14:32:12.1Z</time></trkpt><trkpt lat="44.636815" lon="7.9367467"><ele>433.20000000000005</ele><time>2026-04-25T14:32:13.1Z</time></trkpt><trkpt lat="44.6367867" lon="7.9368483"><ele>429.40000000000003</ele><time>2026-04-25T14:32:14.1Z</time></trkpt><trkpt lat="44.6367883" lon="7.9369617"><ele>425.6</ele><time>2026-04-25T14:32:15.1Z</time></trkpt><trkpt lat="44.6368167" lon="7.9370933"><ele>421.79999999999995</ele><time>2026-04-25T14:32:16.1Z</time></trkpt><trkpt lat="44.63689" lon="7.9372333"><ele>418.0</ele><time>2026-04-25T14:32:17.1Z</time></trkpt><trkpt lat="44.6369967" lon="7.937355"><ele>418.0</ele><time>2026-04-25T14:32:18.1Z</time></trkpt><trkpt lat="44.6371" lon="7.9374683"><ele>418.0</ele><time>2026-04-25T14:32:19.1Z</time></trkpt><trkpt lat="44.6372067" lon="7.9375883"><ele>418.0</ele><time>2026-04-25T14:32:20.1Z</time></trkpt><trkpt lat="44.6373083" lon="7.937715"><ele>418.0</ele><time>2026-04-25T14:32:21.1Z</time></trkpt><trkpt lat="44.6374083" lon="7.9378367"><ele>414.75</ele><time>2026-04-25T14:32:22.1Z</time></trkpt><trkpt lat="44.6375067" lon="7.9379583"><ele>411.5</ele><time>2026-04-25T14:32:23.1Z</time></trkpt><trkpt lat="44.63759" lon="7.9380667"><ele>408.25</ele><time>2026-04-25T14:32:24.1Z</time></trkpt><trkpt lat="44.63767" lon="7.9381717"><ele>405.0</ele><time>2026-04-25T14:32:25.1Z</time></trkpt><trkpt lat="44.6377467" lon="7.9382733"><ele>406.0</ele><time>2026-04-25T14:32:26.1Z</time></trkpt><trkpt lat="44.6378233" lon="7.93837"><ele>407.0</ele><time>2026-04-25T14:32:27.1Z</time></trkpt><trkpt lat="44.63789" lon="7.93847"><ele>408.0</ele><time>2026-04-25T14:32:28.1Z</time></trkpt><trkpt lat="44.63795" lon="7.9385717"><ele>409.0</ele><time>2026-04-25T14:32:29.1Z</time></trkpt><trkpt lat="44.638005" lon="7.93867"><ele>410.0</ele><time>2026-04-25T14:32:30.1Z</time></trkpt><trkpt lat="44.638045" lon="7.9387833"><ele>407.4</ele><time>2026-04-25T14:32:31.1Z</time></trkpt><trkpt lat="44.6380633" lon="7.93891"><ele>404.8</ele><time>2026-04-25T14:32:32.1Z</time></trkpt><trkpt lat="44.6380733" lon="7.93906"><ele>402.20000000000005</ele><time>2026-04-25T14:32:33.1Z</time></trkpt><trkpt lat="44.6380517" lon="7.9392233"><ele>399.6</ele><time>2026-04-25T14:32:34.1Z</time></trkpt><trkpt lat="44.638005" lon="7.9393933"><ele>397.0</ele><time>2026-04-25T14:32:35.1Z</time></trkpt><trkpt lat="44.63794" lon="7.9395667"><ele>394.0</ele><time>2026-04-25T14:32:36.1Z</time></trkpt><trkpt lat="44.6378667" lon="7.9397433"><ele>391.0</ele><time>2026-04-25T14:32:37.1Z</time></trkpt><trkpt lat="44.6377917" lon="7.9399267"><ele>388.0</ele><time>2026-04-25T14:32:38.1Z</time></trkpt><trkpt lat="44.6377133" lon="7.9401183"><ele>387.33333333333337</ele><time>2026-04-25T14:32:39.1Z</time></trkpt><trkpt lat="44.6376417" lon="7.9403117"><ele>386.66666666666663</ele><time>2026-04-25T14:32:40.1Z</time></trkpt><trkpt lat="44.6375667" lon="7.9404917"><ele>386.0</ele><time>2026-04-25T14:32:41.1Z</time></trkpt><trkpt lat="44.637495" lon="7.9406767"><ele>386.0</ele><time>2026-04-25T14:32:42.1Z</time></trkpt><trkpt lat="44.6374267" lon="7.940855"><ele>386.0</ele><time>2026-04-25T14:32:43.1Z</time></trkpt><trkpt lat="44.637365" lon="7.9410417"><ele>386.0</ele><time>2026-04-25T14:32:44.1Z</time></trkpt><trkpt lat="44.6373" lon="7.9412083"><ele>386.0</ele><time>2026-04-25T14:32:45.1Z</time></trkpt><trkpt lat="44.6372367" lon="7.9413717"><ele>385.20000000000005</ele><time>2026-04-25T14:32:46.1Z</time></trkpt><trkpt lat="44.63718" lon="7.9415133"><ele>384.40000000000003</ele><time>2026-04-25T14:32:47.1Z</time></trkpt><trkpt lat="44.63713" lon="7.9416517"><ele>383.6</ele><time>2026-04-25T14:32:48.1Z</time></trkpt><trkpt lat="44.6370883" lon="7.941785"><ele>382.8</ele><time>2026-04-25T14:32:49.1Z</time></trkpt><trkpt lat="44.6370667" lon="7.9419217"><ele>382.0</ele><time>2026-04-25T14:32:50.1Z</time></trkpt><trkpt lat="44.6370867" lon="7.9420583"><ele>380.0</ele><time>2026-04-25T14:32:51.1Z</time></trkpt><trkpt lat="44.6371283" lon="7.9421783"><ele>378.0</ele><time>2026-04-25T14:32:52.1Z</time></trkpt><trkpt lat="44.6371883" lon="7.9422767"><ele>376.0</ele><time>2026-04-25T14:32:53.1Z</time></trkpt><trkpt lat="44.63728" lon="7.9423383"><ele>374.0</ele><time>2026-04-25T14:32:54.1Z</time></trkpt><trkpt lat="44.6373833" lon="7.9423433"><ele>372.0</ele><time>2026-04-25T14:32:55.1Z</time></trkpt><trkpt lat="44.6374967" lon="7.9423133"><ele>372.0</ele><time>2026-04-25T14:32:56.1Z</time></trkpt><trkpt lat="44.637615" lon="7.9422283"><ele>372.0</ele><time>2026-04-25T14:32:57.1Z</time></trkpt><trkpt lat="44.6377317" lon="7.94214"><ele>372.0</ele><time>2026-04-25T14:32:58.1Z</time></trkpt><trkpt lat="44.6378367" lon="7.94206"><ele>372.0</ele><time>2026-04-25T14:32:59.1Z</time></trkpt><trkpt lat="44.6379483" lon="7.941985"><ele>372.25</ele><time>2026-04-25T14:33:00.1Z</time></trkpt><trkpt lat="44.6380583" lon="7.9419183"><ele>372.5</ele><time>2026-04-25T14:33:01.1Z</time></trkpt><trkpt lat="44.6381617" lon="7.9418433"><ele>372.75</ele><time>2026-04-25T14:33:02.1Z</time></trkpt><trkpt lat="44.6382667" lon="7.94177"><ele>373.0</ele><time>2026-04-25T14:33:03.1Z</time></trkpt><trkpt lat="44.6383683" lon="7.94169"><ele>373.0</ele><time>2026-04-25T14:33:04.1Z</time></trkpt><trkpt lat="44.6384667" lon="7.9416233"><ele>373.0</ele><time>2026-04-25T14:33:05.1Z</time></trkpt><trkpt lat="44.6385583" lon="7.9415683"><ele>373.0</ele><time>2026-04-25T14:33:06.1Z</time></trkpt><trkpt lat="44.638645" lon="7.94154"><ele>373.0</ele><time>2026-04-25T14:33:07.1Z</time></trkpt><trkpt lat="44.63873" lon="7.9415433"><ele>373.0</ele><time>2026-04-25T14:33:08.1Z</time></trkpt><trkpt lat="44.6388133" lon="7.9415967"><ele>371.4</ele><time>2026-04-25T14:33:09.1Z</time></trkpt><trkpt lat="44.6388533" lon="7.9416917"><ele>369.79999999999995</ele><time>2026-04-25T14:33:10.1Z</time></trkpt><trkpt lat="44.6388533" lon="7.9418267"><ele>368.2</ele><time>2026-04-25T14:33:11.1Z</time></trkpt><trkpt lat="44.6388167" lon="7.9419717"><ele>366.6</ele><time>2026-04-25T14:33:12.1Z</time></trkpt><trkpt lat="44.6387333" lon="7.9421283"><ele>365.0</ele><time>2026-04-25T14:33:13.1Z</time></trkpt><trkpt lat="44.6386333" lon="7.9422833"><ele>365.0</ele><time>2026-04-25T14:33:14.1Z</time></trkpt><trkpt lat="44.6385383" lon="7.9424317"><ele>365.0</ele><time>2026-04-25T14:33:15.1Z</time></trkpt><trkpt lat="44.6384533" lon="7.942565"><ele>365.0</ele><time>2026-04-25T14:33:16.1Z</time></trkpt><trkpt lat="44.6383733" lon="7.9426983"><ele>365.0</ele><time>2026-04-25T14:33:17.1Z</time></trkpt><trkpt lat="44.6382933" lon="7.94282"><ele>361.0</ele><time>2026-04-25T14:33:18.1Z</time></trkpt><trkpt lat="44.638205" lon="7.9429217"><ele>357.0</ele><time>2026-04-25T14:33:19.1Z</time></trkpt><trkpt lat="44.638105" lon="7.9430167"><ele>353.0</ele><time>2026-04-25T14:33:20.1Z</time></trkpt><trkpt lat="44.6379783" lon="7.9431133"><ele>349.0</ele><time>2026-04-25T14:33:21.1Z</time></trkpt><trkpt lat="44.637845" lon="7.9431967"><ele>350.75</ele><time>2026-04-25T14:33:22.1Z</time></trkpt><trkpt lat="44.6377067" lon="7.9432733"><ele>352.5</ele><time>2026-04-25T14:33:23.1Z</time></trkpt><trkpt lat="44.6375717" lon="7.9433517"><ele>354.25</ele><time>2026-04-25T14:33:24.1Z</time></trkpt><trkpt lat="44.637445" lon="7.9434217"><ele>356.0</ele><time>2026-04-25T14:33:25.1Z</time></trkpt><trkpt lat="44.6373333" lon="7.9434817"><ele>353.6666666666667</ele><time>2026-04-25T14:33:26.1Z</time></trkpt><trkpt lat="44.6372367" lon="7.9435317"><ele>351.33333333333337</ele><time>2026-04-25T14:33:27.1Z</time></trkpt><trkpt lat="44.6371583" lon="7.9435767"><ele>349.0</ele><time>2026-04-25T14:33:28.1Z</time></trkpt><trkpt lat="44.6370933" lon="7.94364"><ele>346.6666666666667</ele><time>2026-04-25T14:33:29.1Z</time></trkpt><trkpt lat="44.6370433" lon="7.9437167"><ele>344.3333333333333</ele><time>2026-04-25T14:33:30.1Z</time></trkpt><trkpt lat="44.63701" lon="7.943805"><ele>342.0</ele><time>2026-04-25T14:33:31.1Z</time></trkpt><trkpt lat="44.6370467" lon="7.9439583"><ele>342.0</ele><time>2026-04-25T14:33:33.1Z</time></trkpt><trkpt lat="44.637135" lon="7.94403"><ele>342.0</ele><time>2026-04-25T14:33:34.1Z</time></trkpt><trkpt lat="44.63726" lon="7.944065"><ele>342.0</ele><time>2026-04-25T14:33:35.1Z</time></trkpt><trkpt lat="44.6374317" lon="7.94406"><ele>342.0</ele><time>2026-04-25T14:33:36.1Z</time></trkpt><trkpt lat="44.63762" lon="7.94403"><ele>342.0</ele><time>2026-04-25T14:33:37.1Z</time></trkpt><trkpt lat="44.6377833" lon="7.9440083"><ele>342.0</ele><time>2026-04-25T14:33:38.1Z</time></trkpt><trkpt lat="44.63795" lon="7.9439917"><ele>342.0</ele><time>2026-04-25T14:33:39.1Z</time></trkpt><trkpt lat="44.6381133" lon="7.9439733"><ele>341.0</ele><time>2026-04-25T14:33:40.1Z</time></trkpt><trkpt lat="44.63827" lon="7.9439617"><ele>340.0</ele><time>2026-04-25T14:33:41.1Z</time></trkpt><trkpt lat="44.6384233" lon="7.9439417"><ele>339.0</ele><time>2026-04-25T14:33:42.1Z</time></trkpt><trkpt lat="44.6385683" lon="7.9439367"><ele>337.79999999999995</ele><time>2026-04-25T14:33:43.1Z</time></trkpt><trkpt lat="44.6387" lon="7.94393"><ele>336.59999999999997</ele><time>2026-04-25T14:33:44.1Z</time></trkpt><trkpt lat="44.6388167" lon="7.9439167"><ele>335.4</ele><time>2026-04-25T14:33:45.1Z</time></trkpt><trkpt lat="44.63892" lon="7.9439133"><ele>334.2</ele><time>2026-04-25T14:33:46.1Z</time></trkpt><trkpt lat="44.639015" lon="7.943935"><ele>333.0</ele><time>2026-04-25T14:33:47.1Z</time></trkpt><trkpt lat="44.6390983" lon="7.943985"><ele>333.0</ele><time>2026-04-25T14:33:48.1Z</time></trkpt><trkpt lat="44.6391717" lon="7.9440567"><ele>333.0</ele><time>2026-04-25T14:33:49.1Z</time></trkpt><trkpt lat="44.6392283" lon="7.9441533"><ele>333.0</ele><time>2026-04-25T14:33:50.1Z</time></trkpt><trkpt lat="44.6392567" lon="7.9442783"><ele>333.0</ele><time>2026-04-25T14:33:51.1Z</time></trkpt><trkpt lat="44.6392533" lon="7.9444133"><ele>333.0</ele><time>2026-04-25T14:33:52.1Z</time></trkpt><trkpt lat="44.639235" lon="7.9445417"><ele>332.6666666666667</ele><time>2026-04-25T14:33:53.1Z</time></trkpt><trkpt lat="44.6392" lon="7.9446617"><ele>332.3333333333333</ele><time>2026-04-25T14:33:54.1Z</time></trkpt><trkpt lat="44.6391633" lon="7.9447717"><ele>332.0</ele><time>2026-04-25T14:33:55.1Z</time></trkpt><trkpt lat="44.6391217" lon="7.9448683"><ele>331.66666666666663</ele><time>2026-04-25T14:33:56.1Z</time></trkpt><trkpt lat="44.639055" lon="7.9449533"><ele>331.3333333333333</ele><time>2026-04-25T14:33:57.1Z</time></trkpt><trkpt lat="44.6389683" lon="7.945015"><ele>331.0</ele><time>2026-04-25T14:33:58.1Z</time></trkpt><trkpt lat="44.6388567" lon="7.9450433"><ele>329.0</ele><time>2026-04-25T14:33:59.1Z</time></trkpt><trkpt lat="44.638715" lon="7.945065"><ele>327.0</ele><time>2026-04-25T14:34:00.1Z</time></trkpt><trkpt lat="44.6385817" lon="7.9451233"><ele>325.0</ele><time>2026-04-25T14:34:01.1Z</time></trkpt><trkpt lat="44.6384617" lon="7.9452067"><ele>323.0</ele><time>2026-04-25T14:34:02.1Z</time></trkpt><trkpt lat="44.638355" lon="7.9453233"><ele>322.5</ele><time>2026-04-25T14:34:03.1Z</time></trkpt><trkpt lat="44.63824" lon="7.9454417"><ele>322.0</ele><time>2026-04-25T14:34:04.1Z</time></trkpt><trkpt lat="44.6381267" lon="7.9455683"><ele>321.5</ele><time>2026-04-25T14:34:05.1Z</time></trkpt><trkpt lat="44.6380183" lon="7.9456933"><ele>321.0</ele><time>2026-04-25T14:34:06.1Z</time></trkpt><trkpt lat="44.6379033" lon="7.9458167"><ele>317.75</ele><time>2026-04-25T14:34:07.1Z</time></trkpt><trkpt lat="44.6377817" lon="7.9459317"><ele>314.5</ele><time>2026-04-25T14:34:08.1Z</time></trkpt><trkpt lat="44.6376617" lon="7.9460583"><ele>311.25</ele><time>2026-04-25T14:34:09.1Z</time></trkpt><trkpt lat="44.6375433" lon="7.9461867"><ele>308.0</ele><time>2026-04-25T14:34:10.1Z</time></trkpt><trkpt lat="44.6374233" lon="7.9463217"><ele>308.0</ele><time>2026-04-25T14:34:11.1Z</time></trkpt><trkpt lat="44.6372983" lon="7.9464517"><ele>308.0</ele><time>2026-04-25T14:34:12.1Z</time></trkpt><trkpt lat="44.6371783" lon="7.9465967"><ele>308.0</ele><time>2026-04-25T14:34:13.1Z</time></trkpt><trkpt lat="44.6370667" lon="7.94672"><ele>307.25</ele><time>2026-04-25T14:34:14.1Z</time></trkpt><trkpt lat="44.6369717" lon="7.946855"><ele>306.5</ele><time>2026-04-25T14:34:15.1Z</time></trkpt><trkpt lat="44.6368833" lon="7.9469867"><ele>305.75</ele><time>2026-04-25T14:34:16.1Z</time></trkpt><trkpt lat="44.6368133" lon="7.9471333"><ele>305.0</ele><time>2026-04-25T14:34:17.1Z</time></trkpt><trkpt lat="44.6367533" lon="7.9472967"><ele>305.0</ele><time>2026-04-25T14:34:18.1Z</time></trkpt><trkpt lat="44.6367067" lon="7.94747"><ele>305.0</ele><time>2026-04-25T14:34:19.1Z</time></trkpt><trkpt lat="44.6366683" lon="7.94766"><ele>305.0</ele><time>2026-04-25T14:34:20.1Z</time></trkpt><trkpt lat="44.63666" lon="7.9478533"><ele>305.0</ele><time>2026-04-25T14:34:21.1Z</time></trkpt><trkpt lat="44.636675" lon="7.9480483"><ele>305.75</ele><time>2026-04-25T14:34:22.1Z</time></trkpt><trkpt lat="44.6367167" lon="7.9482283"><ele>306.5</ele><time>2026-04-25T14:34:23.1Z</time></trkpt><trkpt lat="44.6367683" lon="7.9483967"><ele>307.25</ele><time>2026-04-25T14:34:24.1Z</time></trkpt><trkpt lat="44.6368417" lon="7.94856"><ele>308.0</ele><time>2026-04-25T14:34:25.1Z</time></trkpt><trkpt lat="44.63692" lon="7.9487217"><ele>302.33333333333337</ele><time>2026-04-25T14:34:26.1Z</time></trkpt><trkpt lat="44.637" lon="7.9488933"><ele>296.6666666666667</ele><time>2026-04-25T14:34:27.1Z</time></trkpt><trkpt lat="44.637075" lon="7.949075"><ele>291.0</ele><time>2026-04-25T14:34:28.1Z</time></trkpt><trkpt lat="44.6371567" lon="7.9492783"><ele>290.3333333333333</ele><time>2026-04-25T14:34:29.1Z</time></trkpt><trkpt lat="44.6372317" lon="7.9494733"><ele>289.66666666666663</ele><time>2026-04-25T14:34:30.1Z</time></trkpt><trkpt lat="44.6372783" lon="7.949685"><ele>289.0</ele><time>2026-04-25T14:34:31.1Z</time></trkpt><trkpt lat="44.6373" lon="7.9498867"><ele>288.5</ele><time>2026-04-25T14:34:32.1Z</time></trkpt><trkpt lat="44.6373067" lon="7.950085"><ele>288.0</ele><time>2026-04-25T14:34:33.1Z</time></trkpt><trkpt lat="44.6372983" lon="7.95029"><ele>287.5</ele><time>2026-04-25T14:34:34.1Z</time></trkpt><trkpt lat="44.6372783" lon="7.950495"><ele>287.0</ele><time>2026-04-25T14:34:35.1Z</time></trkpt><trkpt lat="44.6372483" lon="7.95069"><ele>287.0</ele><time>2026-04-25T14:34:36.1Z</time></trkpt><trkpt lat="44.6372167" lon="7.9508733"><ele>287.0</ele><time>2026-04-25T14:34:37.1Z</time></trkpt><trkpt lat="44.6371733" lon="7.9510283"><ele>287.0</ele><time>2026-04-25T14:34:38.1Z</time></trkpt><trkpt lat="44.637115" lon="7.9511733"><ele>287.0</ele><time>2026-04-25T14:34:39.1Z</time></trkpt><trkpt lat="44.6370283" lon="7.9512917"><ele>287.0</ele><time>2026-04-25T14:34:40.1Z</time></trkpt><trkpt lat="44.636915" lon="7.9513867"><ele>287.0</ele><time>2026-04-25T14:34:41.1Z</time></trkpt><trkpt lat="44.6367817" lon="7.9514783"><ele>287.0</ele><time>2026-04-25T14:34:42.1Z</time></trkpt><trkpt lat="44.63665" lon="7.9515633"><ele>287.0</ele><time>2026-04-25T14:34:43.1Z</time></trkpt><trkpt lat="44.6365033" lon="7.951665"><ele>286.33333333333337</ele><time>2026-04-25T14:34:44.1Z</time></trkpt><trkpt lat="44.63636" lon="7.9517533"><ele>285.6666666666667</ele><time>2026-04-25T14:34:45.1Z</time></trkpt><trkpt lat="44.6362183" lon="7.9518417"><ele>285.0</ele><time>2026-04-25T14:34:46.1Z</time></trkpt><trkpt lat="44.6360883" lon="7.9519283"><ele>285.0</ele><time>2026-04-25T14:34:47.1Z</time></trkpt><trkpt lat="44.6359583" lon="7.9520167"><ele>285.0</ele><time>2026-04-25T14:34:48.1Z</time></trkpt><trkpt lat="44.6358483" lon="7.9521017"><ele>285.0</ele><time>2026-04-25T14:34:49.1Z</time></trkpt><trkpt lat="44.635755" lon="7.9522"><ele>285.0</ele><time>2026-04-25T14:34:50.1Z</time></trkpt><trkpt lat="44.63567" lon="7.952315"><ele>285.0</ele><time>2026-04-25T14:34:51.1Z</time></trkpt><trkpt lat="44.635605" lon="7.9524583"><ele>285.0</ele><time>2026-04-25T14:34:52.1Z</time></trkpt><trkpt lat="44.635575" lon="7.9526367"><ele>285.0</ele><time>2026-04-25T14:34:53.1Z</time></trkpt><trkpt lat="44.635585" lon="7.95283"><ele>285.0</ele><time>2026-04-25T14:34:54.1Z</time></trkpt><trkpt lat="44.63562" lon="7.95303"><ele>284.0</ele><time>2026-04-25T14:34:55.1Z</time></trkpt><trkpt lat="44.6356967" lon="7.9531967"><ele>283.0</ele><time>2026-04-25T14:34:56.1Z</time></trkpt><trkpt lat="44.6358017" lon="7.9533183"><ele>282.0</ele><time>2026-04-25T14:34:57.1Z</time></trkpt><trkpt lat="44.63592" lon="7.9534233"><ele>281.0</ele><time>2026-04-25T14:34:58.1Z</time></trkpt><trkpt lat="44.636045" lon="7.953515"><ele>279.75</ele><time>2026-04-25T14:34:59.1Z</time></trkpt><trkpt lat="44.6361683" lon="7.9536167"><ele>278.5</ele><time>2026-04-25T14:35:00.1Z</time></trkpt><trkpt lat="44.6362733" lon="7.9537167"><ele>277.25</ele><time>2026-04-25T14:35:01.1Z</time></trkpt><trkpt lat="44.6363717" lon="7.953825"><ele>276.0</ele><time>2026-04-25T14:35:02.1Z</time></trkpt><trkpt lat="44.636465" lon="7.9539267"><ele>276.0</ele><time>2026-04-25T14:35:03.1Z</time></trkpt><trkpt lat="44.636565" lon="7.9540217"><ele>276.0</ele><time>2026-04-25T14:35:04.1Z</time></trkpt><trkpt lat="44.6366617" lon="7.95412"><ele>276.0</ele><time>2026-04-25T14:35:05.1Z</time></trkpt><trkpt lat="44.636755" lon="7.9542217"><ele>276.0</ele><time>2026-04-25T14:35:06.1Z</time></trkpt><trkpt lat="44.6368283" lon="7.95435"><ele>274.6</ele><time>2026-04-25T14:35:07.1Z</time></trkpt><trkpt lat="44.6368967" lon="7.9544817"><ele>273.20000000000005</ele><time>2026-04-25T14:35:08.1Z</time></trkpt><trkpt lat="44.63696" lon="7.95461"><ele>271.79999999999995</ele><time>2026-04-25T14:35:09.1Z</time></trkpt><trkpt lat="44.63702" lon="7.9547267"><ele>270.4</ele><time>2026-04-25T14:35:10.1Z</time></trkpt><trkpt lat="44.63707" lon="7.9548183"><ele>269.0</ele><time>2026-04-25T14:35:11.1Z</time></trkpt><trkpt lat="44.6371267" lon="7.9549017"><ele>269.0</ele><time>2026-04-25T14:35:12.1Z</time></trkpt><trkpt lat="44.6371583" lon="7.9549783"><ele>269.0</ele><time>2026-04-25T14:35:13.1Z</time></trkpt><trkpt lat="44.6371717" lon="7.9551233"><ele>269.0</ele><time>2026-04-25T14:35:15.1Z</time></trkpt><trkpt lat="44.6371017" lon="7.95525"><ele>269.0</ele><time>2026-04-25T14:35:17.1Z</time></trkpt><trkpt lat="44.6370417" lon="7.9552883"><ele>269.0</ele><time>2026-04-25T14:35:18.1Z</time></trkpt><trkpt lat="44.636965" lon="7.9553"><ele>269.0</ele><time>2026-04-25T14:35:19.1Z</time></trkpt><trkpt lat="44.6368667" lon="7.9552667"><ele>269.0</ele><time>2026-04-25T14:35:20.1Z</time></trkpt><trkpt lat="44.6367667" lon="7.9552017"><ele>269.0</ele><time>2026-04-25T14:35:21.1Z</time></trkpt><trkpt lat="44.6366817" lon="7.955135"><ele>269.0</ele><time>2026-04-25T14:35:22.1Z</time></trkpt><trkpt lat="44.6366033" lon="7.95505"><ele>269.0</ele><time>2026-04-25T14:35:23.1Z</time></trkpt><trkpt lat="44.6365283" lon="7.9549733"><ele>269.0</ele><time>2026-04-25T14:35:24.1Z</time></trkpt><trkpt lat="44.6364583" lon="7.9549067"><ele>269.0</ele><time>2026-04-25T14:35:25.1Z</time></trkpt><trkpt lat="44.63639" lon="7.9548483"><ele>269.0</ele><time>2026-04-25T14:35:26.1Z</time></trkpt><trkpt lat="44.636325" lon="7.95482"><ele>269.0</ele><time>2026-04-25T14:35:27.1Z</time></trkpt><trkpt lat="44.6362567" lon="7.954815"><ele>269.0</ele><time>2026-04-25T14:35:28.1Z</time></trkpt><trkpt lat="44.63616" lon="7.9548933"><ele>269.0</ele><time>2026-04-25T14:35:30.1Z</time></trkpt><trkpt lat="44.63615" lon="7.9550483"><ele>269.0</ele><time>2026-04-25T14:35:32.1Z</time></trkpt><trkpt lat="44.6361933" lon="7.9551267"><ele>266.4</ele><time>2026-04-25T14:35:33.1Z</time></trkpt><trkpt lat="44.6362767" lon="7.955225"><ele>263.79999999999995</ele><time>2026-04-25T14:35:34.1Z</time></trkpt><trkpt lat="44.63637" lon="7.9553333"><ele>261.20000000000005</ele><time>2026-04-25T14:35:35.1Z</time></trkpt><trkpt lat="44.6364483" lon="7.955415"><ele>258.6</ele><time>2026-04-25T14:35:36.1Z</time></trkpt><trkpt lat="44.6365217" lon="7.9554983"><ele>256.0</ele><time>2026-04-25T14:35:37.1Z</time></trkpt><trkpt lat="44.63659" lon="7.955595"><ele>256.0</ele><time>2026-04-25T14:35:38.1Z</time></trkpt><trkpt lat="44.6366483" lon="7.95572"><ele>256.0</ele><time>2026-04-25T14:35:39.1Z</time></trkpt><trkpt lat="44.6366983" lon="7.9558383"><ele>256.0</ele><time>2026-04-25T14:35:40.1Z</time></trkpt><trkpt lat="44.6367217" lon="7.95598"><ele>256.0</ele><time>2026-04-25T14:35:41.1Z</time></trkpt><trkpt lat="44.636725" lon="7.956135"><ele>256.0</ele><time>2026-04-25T14:35:42.1Z</time></trkpt><trkpt lat="44.6367183" lon="7.9562683"><ele>254.5</ele><time>2026-04-25T14:35:43.1Z</time></trkpt><trkpt lat="44.6366933" lon="7.9564017"><ele>253.0</ele><time>2026-04-25T14:35:44.1Z</time></trkpt><trkpt lat="44.63665" lon="7.956555"><ele>251.5</ele><time>2026-04-25T14:35:45.1Z</time></trkpt><trkpt lat="44.6365983" lon="7.9567067"><ele>250.0</ele><time>2026-04-25T14:35:46.1Z</time></trkpt><trkpt lat="44.63652" lon="7.9568283"><ele>249.25</ele><time>2026-04-25T14:35:47.1Z</time></trkpt><trkpt lat="44.6364167" lon="7.9569433"><ele>248.5</ele><time>2026-04-25T14:35:48.1Z</time></trkpt><trkpt lat="44.6363017" lon="7.9570417"><ele>247.75</ele><time>2026-04-25T14:35:49.1Z</time></trkpt><trkpt lat="44.6361767" lon="7.9571317"><ele>247.0</ele><time>2026-04-25T14:35:50.1Z</time></trkpt><trkpt lat="44.6360433" lon="7.957215"><ele>247.0</ele><time>2026-04-25T14:35:51.1Z</time></trkpt><trkpt lat="44.635915" lon="7.957295"><ele>247.0</ele><time>2026-04-25T14:35:52.1Z</time></trkpt><trkpt lat="44.63579" lon="7.95738"><ele>247.0</ele><time>2026-04-25T14:35:53.1Z</time></trkpt><trkpt lat="44.635675" lon="7.9574817"><ele>247.0</ele><time>2026-04-25T14:35:54.1Z</time></trkpt><trkpt lat="44.6355717" lon="7.9576083"><ele>248.75</ele><time>2026-04-25T14:35:55.1Z</time></trkpt><trkpt lat="44.6354717" lon="7.9577467"><ele>250.5</ele><time>2026-04-25T14:35:56.1Z</time></trkpt><trkpt lat="44.635375" lon="7.9578983"><ele>252.25</ele><time>2026-04-25T14:35:57.1Z</time></trkpt><trkpt lat="44.6352817" lon="7.9580517"><ele>254.0</ele><time>2026-04-25T14:35:58.1Z</time></trkpt><trkpt lat="44.6352017" lon="7.958205"><ele>249.25</ele><time>2026-04-25T14:35:59.1Z</time></trkpt><trkpt lat="44.6351367" lon="7.95837"><ele>244.5</ele><time>2026-04-25T14:36:00.1Z</time></trkpt><trkpt lat="44.635085" lon="7.9585483"><ele>239.75</ele><time>2026-04-25T14:36:01.1Z</time></trkpt><trkpt lat="44.635055" lon="7.9587433"><ele>235.0</ele><time>2026-04-25T14:36:02.101Z</time></trkpt><trkpt lat="44.63503" lon="7.9589417"><ele>235.0</ele><time>2026-04-25T14:36:03.1Z</time></trkpt><trkpt lat="44.63501" lon="7.9591333"><ele>235.0</ele><time>2026-04-25T14:36:04.1Z</time></trkpt><trkpt lat="44.6349817" lon="7.9593117"><ele>235.0</ele><time>2026-04-25T14:36:05.1Z</time></trkpt><trkpt lat="44.634945" lon="7.95947"><ele>235.0</ele><time>2026-04-25T14:36:06.1Z</time></trkpt><trkpt lat="44.63489" lon="7.9596183"><ele>235.0</ele><time>2026-04-25T14:36:07.1Z</time></trkpt><trkpt lat="44.6348217" lon="7.9597583"><ele>235.0</ele><time>2026-04-25T14:36:08.1Z</time></trkpt><trkpt lat="44.634735" lon="7.959885"><ele>235.0</ele><time>2026-04-25T14:36:09.1Z</time></trkpt><trkpt lat="44.63463" lon="7.96001"><ele>235.0</ele><time>2026-04-25T14:36:10.1Z</time></trkpt><trkpt lat="44.6345133" lon="7.9601267"><ele>232.75</ele><time>2026-04-25T14:36:11.1Z</time></trkpt><trkpt lat="44.6344" lon="7.960245"><ele>230.5</ele><time>2026-04-25T14:36:12.1Z</time></trkpt><trkpt lat="44.63429" lon="7.960385"><ele>228.25</ele><time>2026-04-25T14:36:13.1Z</time></trkpt><trkpt lat="44.6341967" lon="7.9605317"><ele>226.0</ele><time>2026-04-25T14:36:14.1Z</time></trkpt><trkpt lat="44.6341067" lon="7.960705"><ele>226.75</ele><time>2026-04-25T14:36:15.1Z</time></trkpt><trkpt lat="44.6340283" lon="7.9608767"><ele>227.5</ele><time>2026-04-25T14:36:16.1Z</time></trkpt><trkpt lat="44.633955" lon="7.9610367"><ele>228.25</ele><time>2026-04-25T14:36:17.1Z</time></trkpt><trkpt lat="44.6338833" lon="7.9611983"><ele>229.0</ele><time>2026-04-25T14:36:18.1Z</time></trkpt><trkpt lat="44.6338283" lon="7.96136"><ele>229.0</ele><time>2026-04-25T14:36:19.1Z</time></trkpt><trkpt lat="44.6338" lon="7.9615167"><ele>228.99999999999997</ele><time>2026-04-25T14:36:20.1Z</time></trkpt><trkpt lat="44.6338083" lon="7.9616633"><ele>228.99999999999997</ele><time>2026-04-25T14:36:21.1Z</time></trkpt><trkpt lat="44.63383" lon="7.9617933"><ele>229.0</ele><time>2026-04-25T14:36:22.1Z</time></trkpt><trkpt lat="44.633855" lon="7.9619067"><ele>229.0</ele><time>2026-04-25T14:36:23.1Z</time></trkpt><trkpt lat="44.63386" lon="7.9620017"><ele>227.49999999999997</ele><time>2026-04-25T14:36:24.1Z</time></trkpt><trkpt lat="44.6338433" lon="7.9620917"><ele>226.0</ele><time>2026-04-25T14:36:25.1Z</time></trkpt><trkpt lat="44.63381" lon="7.9621717"><ele>224.5</ele><time>2026-04-25T14:36:26.1Z</time></trkpt><trkpt lat="44.633685" lon="7.9621783"><ele>223.0</ele><time>2026-04-25T14:36:28.1Z</time></trkpt><trkpt lat="44.6336117" lon="7.9621133"><ele>221.49999999999997</ele><time>2026-04-25T14:36:29.1Z</time></trkpt><trkpt lat="44.63355" lon="7.9620033"><ele>220.0</ele><time>2026-04-25T14:36:30.1Z</time></trkpt><trkpt lat="44.6334867" lon="7.9618767"><ele>218.25</ele><time>2026-04-25T14:36:31.1Z</time></trkpt><trkpt lat="44.6334117" lon="7.9617467"><ele>216.5</ele><time>2026-04-25T14:36:32.1Z</time></trkpt><trkpt lat="44.6333167" lon="7.961635"><ele>214.75</ele><time>2026-04-25T14:36:33.1Z</time></trkpt><trkpt lat="44.6332" lon="7.96155"><ele>213.0</ele><time>2026-04-25T14:36:34.1Z</time></trkpt><trkpt lat="44.6330717" lon="7.9614933"><ele>213.0</ele><time>2026-04-25T14:36:35.1Z</time></trkpt><trkpt lat="44.632935" lon="7.9614717"><ele>213.0</ele><time>2026-04-25T14:36:36.1Z</time></trkpt><trkpt lat="44.6328083" lon="7.9614633"><ele>213.0</ele><time>2026-04-25T14:36:37.1Z</time></trkpt><trkpt lat="44.632685" lon="7.9614683"><ele>213.0</ele><time>2026-04-25T14:36:38.1Z</time></trkpt><trkpt lat="44.6325583" lon="7.9614633"><ele>212.75</ele><time>2026-04-25T14:36:39.1Z</time></trkpt><trkpt lat="44.6324317" lon="7.9614633"><ele>212.5</ele><time>2026-04-25T14:36:40.1Z</time></trkpt><trkpt lat="44.6323083" lon="7.9614483"><ele>212.25</ele><time>2026-04-25T14:36:41.1Z</time></trkpt><trkpt lat="44.632185" lon="7.9614417"><ele>212.0</ele><time>2026-04-25T14:36:42.1Z</time></trkpt><trkpt lat="44.6320633" lon="7.9614417"><ele>211.39999999999998</ele><time>2026-04-25T14:36:43.1Z</time></trkpt><trkpt lat="44.631955" lon="7.9614483"><ele>210.79999999999998</ele><time>2026-04-25T14:36:44.1Z</time></trkpt><trkpt lat="44.631845" lon="7.9614417"><ele>210.2</ele><time>2026-04-25T14:36:45.1Z</time></trkpt><trkpt lat="44.6317467" lon="7.9614183"><ele>209.6</ele><time>2026-04-25T14:36:46.1Z</time></trkpt><trkpt lat="44.6316483" lon="7.96138"><ele>209.0</ele><time>2026-04-25T14:36:47.1Z</time></trkpt><trkpt lat="44.6315467" lon="7.96131"><ele>209.0</ele><time>2026-04-25T14:36:48.1Z</time></trkpt><trkpt lat="44.6314367" lon="7.9612167"><ele>209.0</ele><time>2026-04-25T14:36:49.1Z</time></trkpt><trkpt lat="44.631325" lon="7.9611033"><ele>209.0</ele><time>2026-04-25T14:36:50.1Z</time></trkpt><trkpt lat="44.6312" lon="7.9609867"><ele>209.0</ele><time>2026-04-25T14:36:51.1Z</time></trkpt><trkpt lat="44.6310783" lon="7.9608733"><ele>209.33333333333334</ele><time>2026-04-25T14:36:52.1Z</time></trkpt><trkpt lat="44.6309517" lon="7.9607467"><ele>209.66666666666669</ele><time>2026-04-25T14:36:53.1Z</time></trkpt><trkpt lat="44.63081" lon="7.96062"><ele>210.0</ele><time>2026-04-25T14:36:54.1Z</time></trkpt><trkpt lat="44.6306617" lon="7.9604767"><ele>210.0</ele><time>2026-04-25T14:36:55.1Z</time></trkpt><trkpt lat="44.63051" lon="7.9603283"><ele>210.0</ele><time>2026-04-25T14:36:56.1Z</time></trkpt><trkpt lat="44.6303583" lon="7.960175"><ele>210.0</ele><time>2026-04-25T14:36:57.1Z</time></trkpt><trkpt lat="44.6301983" lon="7.96002"><ele>210.0</ele><time>2026-04-25T14:36:58.1Z</time></trkpt><trkpt lat="44.6300433" lon="7.9598567"><ele>210.0</ele><time>2026-04-25T14:36:59.1Z</time></trkpt><trkpt lat="44.62988" lon="7.959715"><ele>210.0</ele><time>2026-04-25T14:37:00.1Z</time></trkpt><trkpt lat="44.629725" lon="7.959555"><ele>210.0</ele><time>2026-04-25T14:37:01.1Z</time></trkpt><trkpt lat="44.6295667" lon="7.959405"><ele>210.0</ele><time>2026-04-25T14:37:02.1Z</time></trkpt><trkpt lat="44.6294117" lon="7.9592583"><ele>210.0</ele><time>2026-04-25T14:37:03.1Z</time></trkpt><trkpt lat="44.629265" lon="7.9591033"><ele>211.33333333333331</ele><time>2026-04-25T14:37:04.1Z</time></trkpt><trkpt lat="44.62912" lon="7.9589633"><ele>212.66666666666666</ele><time>2026-04-25T14:37:05.1Z</time></trkpt><trkpt lat="44.6289717" lon="7.95883"><ele>214.0</ele><time>2026-04-25T14:37:06.099Z</time></trkpt><trkpt lat="44.62883" lon="7.9586933"><ele>214.0</ele><time>2026-04-25T14:37:07.099Z</time></trkpt><trkpt lat="44.6286867" lon="7.9585583"><ele>214.0</ele><time>2026-04-25T14:37:08.099Z</time></trkpt><trkpt lat="44.6285517" lon="7.9584233"><ele>214.0</ele><time>2026-04-25T14:37:09.099Z</time></trkpt><trkpt lat="44.628415" lon="7.9582983"><ele>214.0</ele><time>2026-04-25T14:37:10.099Z</time></trkpt><trkpt lat="44.6282783" lon="7.95817"><ele>214.0</ele><time>2026-04-25T14:37:11.099Z</time></trkpt><trkpt lat="44.6281483" lon="7.9580533"><ele>214.0</ele><time>2026-04-25T14:37:12.099Z</time></trkpt><trkpt lat="44.6280267" lon="7.9579433"><ele>214.0</ele><time>2026-04-25T14:37:13.099Z</time></trkpt><trkpt lat="44.6279117" lon="7.957835"><ele>214.0</ele><time>2026-04-25T14:37:14.099Z</time></trkpt><trkpt lat="44.6278017" lon="7.9577383"><ele>214.0</ele><time>2026-04-25T14:37:15.099Z</time></trkpt><trkpt lat="44.6277017" lon="7.95764"><ele>214.0</ele><time>2026-04-25T14:37:16.099Z</time></trkpt><trkpt lat="44.627605" lon="7.95755"><ele>214.39999999999998</ele><time>2026-04-25T14:37:17.099Z</time></trkpt><trkpt lat="44.6275183" lon="7.957465"><ele>214.79999999999998</ele><time>2026-04-25T14:37:18.099Z</time></trkpt><trkpt lat="44.6274333" lon="7.9573783"><ele>215.20000000000002</ele><time>2026-04-25T14:37:19.099Z</time></trkpt><trkpt lat="44.6273567" lon="7.957305"><ele>215.60000000000002</ele><time>2026-04-25T14:37:20.099Z</time></trkpt><trkpt lat="44.627285" lon="7.9572283"><ele>216.0</ele><time>2026-04-25T14:37:21.099Z</time></trkpt><trkpt lat="44.6272067" lon="7.9571567"><ele>216.0</ele><time>2026-04-25T14:37:22.099Z</time></trkpt><trkpt lat="44.62713" lon="7.9570833"><ele>216.00000000000003</ele><time>2026-04-25T14:37:23.099Z</time></trkpt><trkpt lat="44.6270583" lon="7.9569967"><ele>216.00000000000003</ele><time>2026-04-25T14:37:24.099Z</time></trkpt><trkpt lat="44.6269917" lon="7.95689"><ele>216.0</ele><time>2026-04-25T14:37:25.099Z</time></trkpt><trkpt lat="44.626925" lon="7.95676"><ele>216.0</ele><time>2026-04-25T14:37:26.099Z</time></trkpt><trkpt lat="44.6268667" lon="7.9566233"><ele>216.0</ele><time>2026-04-25T14:37:27.099Z</time></trkpt><trkpt lat="44.6268017" lon="7.9564883"><ele>216.0</ele><time>2026-04-25T14:37:28.099Z</time></trkpt><trkpt lat="44.6255417" lon="7.9548383"><ele>217.25</ele><time>2026-04-25T14:37:42.099Z</time></trkpt><trkpt lat="44.6254117" lon="7.9547583"><ele>218.5</ele><time>2026-04-25T14:37:43.099Z</time></trkpt><trkpt lat="44.6252967" lon="7.954685"><ele>219.75</ele><time>2026-04-25T14:37:44.099Z</time></trkpt><trkpt lat="44.6251933" lon="7.9545933"><ele>221.0</ele><time>2026-04-25T14:37:45.099Z</time></trkpt><trkpt lat="44.62509" lon="7.95449"><ele>222.25</ele><time>2026-04-25T14:37:46.099Z</time></trkpt><trkpt lat="44.6249783" lon="7.9543767"><ele>223.5</ele><time>2026-04-25T14:37:47.099Z</time></trkpt><trkpt lat="44.6248683" lon="7.9542483"><ele>224.75</ele><time>2026-04-25T14:37:48.099Z</time></trkpt><trkpt lat="44.6247567" lon="7.9541167"><ele>226.0</ele><time>2026-04-25T14:37:49.099Z</time></trkpt><trkpt lat="44.6246433" lon="7.95397"><ele>227.33333333333331</ele><time>2026-04-25T14:37:50.099Z</time></trkpt><trkpt lat="44.6245183" lon="7.9538017"><ele>228.66666666666669</ele><time>2026-04-25T14:37:51.099Z</time></trkpt><trkpt lat="44.62437" lon="7.953625"><ele>230.0</ele><time>2026-04-25T14:37:52.099Z</time></trkpt><trkpt lat="44.6242267" lon="7.9534333"><ele>233.0</ele><time>2026-04-25T14:37:53.099Z</time></trkpt><trkpt lat="44.6241017" lon="7.9532367"><ele>236.0</ele><time>2026-04-25T14:37:54.099Z</time></trkpt><trkpt lat="44.6239767" lon="7.9530617"><ele>239.0</ele><time>2026-04-25T14:37:55.099Z</time></trkpt><trkpt lat="44.6238683" lon="7.9529133"><ele>239.0</ele><time>2026-04-25T14:37:56.099Z</time></trkpt><trkpt lat="44.6237767" lon="7.9527833"><ele>239.0</ele><time>2026-04-25T14:37:57.099Z</time></trkpt><trkpt lat="44.6236883" lon="7.9526533"><ele>239.0</ele><time>2026-04-25T14:37:58.099Z</time></trkpt><trkpt lat="44.62361" lon="7.95253"><ele>239.0</ele><time>2026-04-25T14:37:59.099Z</time></trkpt><trkpt lat="44.623525" lon="7.9523917"><ele>240.79999999999998</ele><time>2026-04-25T14:38:00.099Z</time></trkpt><trkpt lat="44.6234583" lon="7.95224"><ele>242.59999999999997</ele><time>2026-04-25T14:38:01.099Z</time></trkpt><trkpt lat="44.6234117" lon="7.9520967"><ele>244.4</ele><time>2026-04-25T14:38:02.099Z</time></trkpt><trkpt lat="44.6233767" lon="7.9519617"><ele>246.2</ele><time>2026-04-25T14:38:03.099Z</time></trkpt><trkpt lat="44.6233483" lon="7.9518383"><ele>248.0</ele><time>2026-04-25T14:38:04.099Z</time></trkpt><trkpt lat="44.6233233" lon="7.9517017"><ele>248.25</ele><time>2026-04-25T14:38:05.099Z</time></trkpt><trkpt lat="44.6232933" lon="7.9515667"><ele>248.5</ele><time>2026-04-25T14:38:06.099Z</time></trkpt><trkpt lat="44.6232533" lon="7.9514217"><ele>248.75</ele><time>2026-04-25T14:38:07.099Z</time></trkpt><trkpt lat="44.6232067" lon="7.9512717"><ele>249.0</ele><time>2026-04-25T14:38:08.099Z</time></trkpt><trkpt lat="44.6231367" lon="7.95113"><ele>249.0</ele><time>2026-04-25T14:38:09.099Z</time></trkpt><trkpt lat="44.62306" lon="7.950975"><ele>249.0</ele><time>2026-04-25T14:38:10.099Z</time></trkpt><trkpt lat="44.62298" lon="7.95081"><ele>249.0</ele><time>2026-04-25T14:38:11.099Z</time></trkpt><trkpt lat="44.6229067" lon="7.9506467"><ele>249.0</ele><time>2026-04-25T14:38:12.099Z</time></trkpt><trkpt lat="44.6228383" lon="7.950495"><ele>249.75</ele><time>2026-04-25T14:38:13.099Z</time></trkpt><trkpt lat="44.62278" lon="7.950345"><ele>250.5</ele><time>2026-04-25T14:38:14.099Z</time></trkpt><trkpt lat="44.6227233" lon="7.9502067"><ele>251.25</ele><time>2026-04-25T14:38:15.099Z</time></trkpt><trkpt lat="44.6226617" lon="7.9500667"><ele>252.0</ele><time>2026-04-25T14:38:16.099Z</time></trkpt><trkpt lat="44.6225883" lon="7.9499383"><ele>252.0</ele><time>2026-04-25T14:38:17.099Z</time></trkpt><trkpt lat="44.622495" lon="7.9498217"><ele>252.0</ele><time>2026-04-25T14:38:18.099Z</time></trkpt><trkpt lat="44.6223833" lon="7.9497167"><ele>252.0</ele><time>2026-04-25T14:38:19.099Z</time></trkpt><trkpt lat="44.6222717" lon="7.9496383"><ele>252.0</ele><time>2026-04-25T14:38:20.099Z</time></trkpt><trkpt lat="44.622165" lon="7.949565"><ele>252.0</ele><time>2026-04-25T14:38:21.099Z</time></trkpt><trkpt lat="44.6220467" lon="7.949525"><ele>252.0</ele><time>2026-04-25T14:38:22.099Z</time></trkpt><trkpt lat="44.6219267" lon="7.9495017"><ele>252.0</ele><time>2026-04-25T14:38:23.099Z</time></trkpt><trkpt lat="44.6218017" lon="7.9494767"><ele>252.0</ele><time>2026-04-25T14:38:24.099Z</time></trkpt><trkpt lat="44.6216667" lon="7.94945"><ele>252.0</ele><time>2026-04-25T14:38:25.099Z</time></trkpt><trkpt lat="44.621535" lon="7.9493833"><ele>252.0</ele><time>2026-04-25T14:38:26.099Z</time></trkpt><trkpt lat="44.6214" lon="7.9492883"><ele>252.0</ele><time>2026-04-25T14:38:27.099Z</time></trkpt><trkpt lat="44.6212683" lon="7.94916"><ele>252.75</ele><time>2026-04-25T14:38:28.099Z</time></trkpt><trkpt lat="44.6211583" lon="7.9489933"><ele>253.5</ele><time>2026-04-25T14:38:29.099Z</time></trkpt><trkpt lat="44.6210683" lon="7.94883"><ele>254.25</ele><time>2026-04-25T14:38:30.099Z</time></trkpt><trkpt lat="44.6209967" lon="7.948685"><ele>255.0</ele><time>2026-04-25T14:38:31.099Z</time></trkpt><trkpt lat="44.6209383" lon="7.94855"><ele>256.25</ele><time>2026-04-25T14:38:32.099Z</time></trkpt><trkpt lat="44.620875" lon="7.948425"><ele>257.5</ele><time>2026-04-25T14:38:33.099Z</time></trkpt><trkpt lat="44.6208083" lon="7.948295"><ele>258.75</ele><time>2026-04-25T14:38:34.099Z</time></trkpt><trkpt lat="44.62074" lon="7.9481467"><ele>260.0</ele><time>2026-04-25T14:38:35.099Z</time></trkpt><trkpt lat="44.6206633" lon="7.9479833"><ele>260.5</ele><time>2026-04-25T14:38:36.099Z</time></trkpt><trkpt lat="44.6205883" lon="7.947805"><ele>261.0</ele><time>2026-04-25T14:38:37.099Z</time></trkpt><trkpt lat="44.6205083" lon="7.9476367"><ele>261.5</ele><time>2026-04-25T14:38:38.099Z</time></trkpt><trkpt lat="44.6204233" lon="7.947465"><ele>262.0</ele><time>2026-04-25T14:38:39.099Z</time></trkpt><trkpt lat="44.6203317" lon="7.9473"><ele>266.0</ele><time>2026-04-25T14:38:40.099Z</time></trkpt><trkpt lat="44.6202433" lon="7.947135"><ele>270.0</ele><time>2026-04-25T14:38:41.099Z</time></trkpt><trkpt lat="44.6201517" lon="7.946985"><ele>274.0</ele><time>2026-04-25T14:38:42.099Z</time></trkpt><trkpt lat="44.62006" lon="7.946845"><ele>278.0</ele><time>2026-04-25T14:38:43.099Z</time></trkpt><trkpt lat="44.61996" lon="7.9467183"><ele>276.25</ele><time>2026-04-25T14:38:44.099Z</time></trkpt><trkpt lat="44.6198517" lon="7.9465983"><ele>274.5</ele><time>2026-04-25T14:38:45.099Z</time></trkpt><trkpt lat="44.6197317" lon="7.9464933"><ele>272.75</ele><time>2026-04-25T14:38:46.099Z</time></trkpt><trkpt lat="44.6196083" lon="7.946395"><ele>271.0</ele><time>2026-04-25T14:38:47.099Z</time></trkpt><trkpt lat="44.619485" lon="7.9463067"><ele>276.0</ele><time>2026-04-25T14:38:48.099Z</time></trkpt><trkpt lat="44.619345" lon="7.946235"><ele>281.0</ele><time>2026-04-25T14:38:49.099Z</time></trkpt><trkpt lat="44.619195" lon="7.9461667"><ele>286.0</ele><time>2026-04-25T14:38:50.099Z</time></trkpt><trkpt lat="44.6190217" lon="7.94612"><ele>286.0</ele><time>2026-04-25T14:38:51.099Z</time></trkpt><trkpt lat="44.6188433" lon="7.94606"><ele>286.0</ele><time>2026-04-25T14:38:52.099Z</time></trkpt><trkpt lat="44.6186883" lon="7.9459833"><ele>286.0</ele><time>2026-04-25T14:38:53.099Z</time></trkpt><trkpt lat="44.6185483" lon="7.9459083"><ele>287.25</ele><time>2026-04-25T14:38:54.099Z</time></trkpt><trkpt lat="44.6184117" lon="7.945825"><ele>288.5</ele><time>2026-04-25T14:38:55.099Z</time></trkpt><trkpt lat="44.6182833" lon="7.9457367"><ele>289.75</ele><time>2026-04-25T14:38:56.099Z</time></trkpt><trkpt lat="44.6181833" lon="7.9456317"><ele>291.0</ele><time>2026-04-25T14:38:57.099Z</time></trkpt><trkpt lat="44.6180833" lon="7.9455083"><ele>291.0</ele><time>2026-04-25T14:38:58.099Z</time></trkpt><trkpt lat="44.6179833" lon="7.9453783"><ele>291.0</ele><time>2026-04-25T14:38:59.099Z</time></trkpt><trkpt lat="44.6178917" lon="7.9452633"><ele>291.0</ele><time>2026-04-25T14:39:00.099Z</time></trkpt><trkpt lat="44.6178017" lon="7.9451667"><ele>291.0</ele><time>2026-04-25T14:39:01.099Z</time></trkpt><trkpt lat="44.6177117" lon="7.9450633"><ele>292.5</ele><time>2026-04-25T14:39:02.099Z</time></trkpt><trkpt lat="44.617625" lon="7.94496"><ele>294.0</ele><time>2026-04-25T14:39:03.099Z</time></trkpt><trkpt lat="44.617535" lon="7.9448567"><ele>295.5</ele><time>2026-04-25T14:39:04.099Z</time></trkpt><trkpt lat="44.6174367" lon="7.9447383"><ele>297.0</ele><time>2026-04-25T14:39:05.099Z</time></trkpt><trkpt lat="44.6173417" lon="7.944625"><ele>297.0</ele><time>2026-04-25T14:39:06.099Z</time></trkpt><trkpt lat="44.6172417" lon="7.9445133"><ele>297.0</ele><time>2026-04-25T14:39:07.099Z</time></trkpt><trkpt lat="44.6171567" lon="7.9444"><ele>297.0</ele><time>2026-04-25T14:39:08.099Z</time></trkpt><trkpt lat="44.61707" lon="7.944275"><ele>297.0</ele><time>2026-04-25T14:39:09.099Z</time></trkpt><trkpt lat="44.6169817" lon="7.9441433"><ele>298.5</ele><time>2026-04-25T14:39:10.099Z</time></trkpt><trkpt lat="44.6169067" lon="7.9440083"><ele>300.0</ele><time>2026-04-25T14:39:11.099Z</time></trkpt><trkpt lat="44.616835" lon="7.9438717"><ele>301.5</ele><time>2026-04-25T14:39:12.099Z</time></trkpt><trkpt lat="44.6167517" lon="7.943735"><ele>303.0</ele><time>2026-04-25T14:39:13.099Z</time></trkpt><trkpt lat="44.6166717" lon="7.9436083"><ele>303.0</ele><time>2026-04-25T14:39:14.099Z</time></trkpt><trkpt lat="44.6165867" lon="7.9434867"><ele>303.0</ele><time>2026-04-25T14:39:15.099Z</time></trkpt><trkpt lat="44.6164883" lon="7.9433867"><ele>303.0</ele><time>2026-04-25T14:39:16.099Z</time></trkpt><trkpt lat="44.6163867" lon="7.943285"><ele>303.0</ele><time>2026-04-25T14:39:17.099Z</time></trkpt><trkpt lat="44.6162783" lon="7.943195"><ele>302.25</ele><time>2026-04-25T14:39:18.099Z</time></trkpt><trkpt lat="44.6161767" lon="7.9431167"><ele>301.5</ele><time>2026-04-25T14:39:19.099Z</time></trkpt><trkpt lat="44.6160717" lon="7.943045"><ele>300.75</ele><time>2026-04-25T14:39:20.099Z</time></trkpt><trkpt lat="44.6159717" lon="7.9429783"><ele>300.0</ele><time>2026-04-25T14:39:21.099Z</time></trkpt><trkpt lat="44.6158767" lon="7.9429"><ele>301.75</ele><time>2026-04-25T14:39:22.099Z</time></trkpt><trkpt lat="44.6157817" lon="7.9428017"><ele>303.5</ele><time>2026-04-25T14:39:23.099Z</time></trkpt><trkpt lat="44.6156833" lon="7.9426833"><ele>305.25</ele><time>2026-04-25T14:39:24.099Z</time></trkpt><trkpt lat="44.6156" lon="7.9425317"><ele>307.0</ele><time>2026-04-25T14:39:25.099Z</time></trkpt><trkpt lat="44.6155333" lon="7.9423683"><ele>307.0</ele><time>2026-04-25T14:39:26.099Z</time></trkpt><trkpt lat="44.6154683" lon="7.9422117"><ele>307.0</ele><time>2026-04-25T14:39:27.099Z</time></trkpt><trkpt lat="44.6154133" lon="7.9420633"><ele>307.0</ele><time>2026-04-25T14:39:28.099Z</time></trkpt><trkpt lat="44.6153617" lon="7.941915"><ele>307.0</ele><time>2026-04-25T14:39:29.099Z</time></trkpt><trkpt lat="44.6153033" lon="7.9417833"><ele>310.75</ele><time>2026-04-25T14:39:30.099Z</time></trkpt><trkpt lat="44.6152383" lon="7.9416433"><ele>314.5</ele><time>2026-04-25T14:39:31.099Z</time></trkpt><trkpt lat="44.615165" lon="7.9415133"><ele>318.25</ele><time>2026-04-25T14:39:32.099Z</time></trkpt><trkpt lat="44.61506" lon="7.9413933"><ele>322.0</ele><time>2026-04-25T14:39:33.099Z</time></trkpt><trkpt lat="44.6149567" lon="7.9413217"><ele>322.0</ele><time>2026-04-25T14:39:34.099Z</time></trkpt><trkpt lat="44.614865" lon="7.94127"><ele>322.0</ele><time>2026-04-25T14:39:35.099Z</time></trkpt><trkpt lat="44.61478" lon="7.94122"><ele>322.0</ele><time>2026-04-25T14:39:36.099Z</time></trkpt><trkpt lat="44.6147083" lon="7.9411883"><ele>322.0</ele><time>2026-04-25T14:39:37.099Z</time></trkpt><trkpt lat="44.6146433" lon="7.941145"><ele>322.0</ele><time>2026-04-25T14:39:38.099Z</time></trkpt><trkpt lat="44.61459" lon="7.9410967"><ele>322.0</ele><time>2026-04-25T14:39:39.099Z</time></trkpt><trkpt lat="44.6145083" lon="7.9409867"><ele>320.8</ele><time>2026-04-25T14:39:41.099Z</time></trkpt><trkpt lat="44.6144133" lon="7.9409383"><ele>319.6</ele><time>2026-04-25T14:39:43.099Z</time></trkpt><trkpt lat="44.6143467" lon="7.9409533"><ele>318.40000000000003</ele><time>2026-04-25T14:39:44.099Z</time></trkpt><trkpt lat="44.6142583" lon="7.940965"><ele>317.20000000000005</ele><time>2026-04-25T14:39:45.099Z</time></trkpt><trkpt lat="44.6141483" lon="7.9409667"><ele>316.0</ele><time>2026-04-25T14:39:46.099Z</time></trkpt><trkpt lat="44.6140233" lon="7.9409583"><ele>316.0</ele><time>2026-04-25T14:39:47.099Z</time></trkpt><trkpt lat="44.6138833" lon="7.94097"><ele>316.0</ele><time>2026-04-25T14:39:48.099Z</time></trkpt><trkpt lat="44.613745" lon="7.940975"><ele>316.0</ele><time>2026-04-25T14:39:49.099Z</time></trkpt><trkpt lat="44.613605" lon="7.9409667"><ele>316.0</ele><time>2026-04-25T14:39:50.099Z</time></trkpt><trkpt lat="44.6134667" lon="7.940955"><ele>312.75</ele><time>2026-04-25T14:39:51.099Z</time></trkpt><trkpt lat="44.6133183" lon="7.9409467"><ele>309.5</ele><time>2026-04-25T14:39:52.099Z</time></trkpt><trkpt lat="44.6131833" lon="7.940935"><ele>306.25</ele><time>2026-04-25T14:39:53.099Z</time></trkpt><trkpt lat="44.6130533" lon="7.940915"><ele>303.0</ele><time>2026-04-25T14:39:54.099Z</time></trkpt><trkpt lat="44.6129233" lon="7.9408867"><ele>304.25</ele><time>2026-04-25T14:39:55.099Z</time></trkpt><trkpt lat="44.6127833" lon="7.9408533"><ele>305.5</ele><time>2026-04-25T14:39:56.099Z</time></trkpt><trkpt lat="44.6126633" lon="7.9408117"><ele>306.75</ele><time>2026-04-25T14:39:57.099Z</time></trkpt><trkpt lat="44.61254" lon="7.940765"><ele>308.0</ele><time>2026-04-25T14:39:58.099Z</time></trkpt><trkpt lat="44.61242" lon="7.9407117"><ele>308.0</ele><time>2026-04-25T14:39:59.099Z</time></trkpt><trkpt lat="44.6122883" lon="7.9406767"><ele>308.0</ele><time>2026-04-25T14:40:00.099Z</time></trkpt><trkpt lat="44.6121583" lon="7.9406233"><ele>308.0</ele><time>2026-04-25T14:40:01.099Z</time></trkpt><trkpt lat="44.6120283" lon="7.9405683"><ele>308.0</ele><time>2026-04-25T14:40:02.099Z</time></trkpt><trkpt lat="44.61191" lon="7.94049"><ele>308.0</ele><time>2026-04-25T14:40:03.099Z</time></trkpt><trkpt lat="44.6117867" lon="7.9404167"><ele>308.0</ele><time>2026-04-25T14:40:04.099Z</time></trkpt><trkpt lat="44.6116683" lon="7.9403617"><ele>308.0</ele><time>2026-04-25T14:40:05.099Z</time></trkpt><trkpt lat="44.6115533" lon="7.9403017"><ele>308.0</ele><time>2026-04-25T14:40:06.099Z</time></trkpt><trkpt lat="44.6114383" lon="7.9402633"><ele>308.0</ele><time>2026-04-25T14:40:07.099Z</time></trkpt><trkpt lat="44.61131" lon="7.9402417"><ele>308.0</ele><time>2026-04-25T14:40:08.099Z</time></trkpt><trkpt lat="44.61118" lon="7.9402383"><ele>308.0</ele><time>2026-04-25T14:40:09.099Z</time></trkpt><trkpt lat="44.6110617" lon="7.9402433"><ele>308.0</ele><time>2026-04-25T14:40:10.099Z</time></trkpt><trkpt lat="44.61095" lon="7.9402517"><ele>307.5</ele><time>2026-04-25T14:40:11.099Z</time></trkpt><trkpt lat="44.610835" lon="7.9402683"><ele>307.0</ele><time>2026-04-25T14:40:12.099Z</time></trkpt><trkpt lat="44.6107183" lon="7.9402833"><ele>306.5</ele><time>2026-04-25T14:40:13.099Z</time></trkpt><trkpt lat="44.6105983" lon="7.940295"><ele>306.0</ele><time>2026-04-25T14:40:14.099Z</time></trkpt><trkpt lat="44.610485" lon="7.94031"><ele>306.0</ele><time>2026-04-25T14:40:15.099Z</time></trkpt><trkpt lat="44.6103633" lon="7.9403133"><ele>306.0</ele><time>2026-04-25T14:40:16.099Z</time></trkpt><trkpt lat="44.610245" lon="7.9403083"><ele>306.0</ele><time>2026-04-25T14:40:17.099Z</time></trkpt><trkpt lat="44.610135" lon="7.9403067"><ele>306.0</ele><time>2026-04-25T14:40:18.099Z</time></trkpt><trkpt lat="44.61004" lon="7.940315"><ele>306.0</ele><time>2026-04-25T14:40:19.099Z</time></trkpt><trkpt lat="44.609935" lon="7.940295"><ele>306.0</ele><time>2026-04-25T14:40:20.099Z</time></trkpt><trkpt lat="44.6098233" lon="7.9402883"><ele>306.0</ele><time>2026-04-25T14:40:21.099Z</time></trkpt><trkpt lat="44.60969" lon="7.9403017"><ele>306.0</ele><time>2026-04-25T14:40:22.099Z</time></trkpt><trkpt lat="44.60956" lon="7.9403"><ele>306.0</ele><time>2026-04-25T14:40:23.099Z</time></trkpt><trkpt lat="44.6094267" lon="7.9403017"><ele>305.25</ele><time>2026-04-25T14:40:24.099Z</time></trkpt><trkpt lat="44.6093067" lon="7.940285"><ele>304.5</ele><time>2026-04-25T14:40:25.099Z</time></trkpt><trkpt lat="44.609185" lon="7.9402683"><ele>303.75</ele><time>2026-04-25T14:40:26.099Z</time></trkpt><trkpt lat="44.6090567" lon="7.9402433"><ele>303.0</ele><time>2026-04-25T14:40:27.099Z</time></trkpt><trkpt lat="44.608935" lon="7.94024"><ele>303.0</ele><time>2026-04-25T14:40:28.099Z</time></trkpt><trkpt lat="44.608825" lon="7.9402517"><ele>303.0</ele><time>2026-04-25T14:40:29.099Z</time></trkpt><trkpt lat="44.608725" lon="7.9402883"><ele>303.0</ele><time>2026-04-25T14:40:30.099Z</time></trkpt><trkpt lat="44.608635" lon="7.94035"><ele>303.0</ele><time>2026-04-25T14:40:31.099Z</time></trkpt><trkpt lat="44.6085717" lon="7.94045"><ele>303.0</ele><time>2026-04-25T14:40:32.099Z</time></trkpt><trkpt lat="44.60852" lon="7.9405517"><ele>304.0</ele><time>2026-04-25T14:40:33.099Z</time></trkpt><trkpt lat="44.60848" lon="7.9406467"><ele>305.0</ele><time>2026-04-25T14:40:34.099Z</time></trkpt><trkpt lat="44.6084617" lon="7.9407367"><ele>306.0</ele><time>2026-04-25T14:40:35.099Z</time></trkpt><trkpt lat="44.6084483" lon="7.94083"><ele>307.0</ele><time>2026-04-25T14:40:36.099Z</time></trkpt><trkpt lat="44.6084233" lon="7.9409383"><ele>308.0</ele><time>2026-04-25T14:40:37.099Z</time></trkpt><trkpt lat="44.60839" lon="7.94106"><ele>309.0</ele><time>2026-04-25T14:40:38.099Z</time></trkpt><trkpt lat="44.60835" lon="7.941175"><ele>309.0</ele><time>2026-04-25T14:40:39.099Z</time></trkpt><trkpt lat="44.6083017" lon="7.9412683"><ele>309.0</ele><time>2026-04-25T14:40:40.099Z</time></trkpt><trkpt lat="44.6082067" lon="7.9413783"><ele>309.0</ele><time>2026-04-25T14:40:42.099Z</time></trkpt><trkpt lat="44.6080817" lon="7.9413883"><ele>309.0</ele><time>2026-04-25T14:40:44.099Z</time></trkpt><trkpt lat="44.6080133" lon="7.94134"><ele>309.0</ele><time>2026-04-25T14:40:45.099Z</time></trkpt><trkpt lat="44.60794" lon="7.9412733"><ele>309.0</ele><time>2026-04-25T14:40:46.099Z</time></trkpt><trkpt lat="44.6078767" lon="7.9411867"><ele>309.0</ele><time>2026-04-25T14:40:47.099Z</time></trkpt><trkpt lat="44.6078317" lon="7.9410567"><ele>309.0</ele><time>2026-04-25T14:40:48.099Z</time></trkpt><trkpt lat="44.6078067" lon="7.94089"><ele>309.0</ele><time>2026-04-25T14:40:49.099Z</time></trkpt><trkpt lat="44.607775" lon="7.940705"><ele>309.0</ele><time>2026-04-25T14:40:50.099Z</time></trkpt><trkpt lat="44.60774" lon="7.940515"><ele>308.75</ele><time>2026-04-25T14:40:51.099Z</time></trkpt><trkpt lat="44.6077" lon="7.9403483"><ele>308.5</ele><time>2026-04-25T14:40:52.099Z</time></trkpt><trkpt lat="44.6076583" lon="7.9401817"><ele>308.25</ele><time>2026-04-25T14:40:53.099Z</time></trkpt><trkpt lat="44.60762" lon="7.9400283"><ele>308.0</ele><time>2026-04-25T14:40:54.099Z</time></trkpt><trkpt lat="44.607585" lon="7.93988"><ele>311.0</ele><time>2026-04-25T14:40:55.099Z</time></trkpt><trkpt lat="44.6075433" lon="7.9397283"><ele>314.0</ele><time>2026-04-25T14:40:56.099Z</time></trkpt><trkpt lat="44.60748" lon="7.9395967"><ele>317.0</ele><time>2026-04-25T14:40:57.099Z</time></trkpt><trkpt lat="44.6074017" lon="7.9394833"><ele>320.0</ele><time>2026-04-25T14:40:58.099Z</time></trkpt><trkpt lat="44.6072967" lon="7.9393933"><ele>320.0</ele><time>2026-04-25T14:40:59.099Z</time></trkpt><trkpt lat="44.6071767" lon="7.93933"><ele>320.0</ele><time>2026-04-25T14:41:00.099Z</time></trkpt><trkpt lat="44.60704" lon="7.939275"><ele>320.0</ele><time>2026-04-25T14:41:01.099Z</time></trkpt><trkpt lat="44.6068983" lon="7.9392133"><ele>320.0</ele><time>2026-04-25T14:41:02.099Z</time></trkpt><trkpt lat="44.60676" lon="7.9391633"><ele>320.75</ele><time>2026-04-25T14:41:03.099Z</time></trkpt><trkpt lat="44.6066133" lon="7.9391267"><ele>321.5</ele><time>2026-04-25T14:41:04.099Z</time></trkpt><trkpt lat="44.60647" lon="7.9391183"><ele>322.25</ele><time>2026-04-25T14:41:05.099Z</time></trkpt><trkpt lat="44.60632" lon="7.9391383"><ele>323.0</ele><time>2026-04-25T14:41:06.099Z</time></trkpt><trkpt lat="44.6061783" lon="7.9391533"><ele>323.5</ele><time>2026-04-25T14:41:07.099Z</time></trkpt><trkpt lat="44.6060467" lon="7.9391767"><ele>324.0</ele><time>2026-04-25T14:41:08.099Z</time></trkpt><trkpt lat="44.6059217" lon="7.9392117"><ele>324.5</ele><time>2026-04-25T14:41:09.099Z</time></trkpt><trkpt lat="44.605805" lon="7.939265"><ele>325.0</ele><time>2026-04-25T14:41:10.099Z</time></trkpt><trkpt lat="44.605685" lon="7.939365"><ele>326.66666666666663</ele><time>2026-04-25T14:41:11.099Z</time></trkpt><trkpt lat="44.6055567" lon="7.9395133"><ele>328.3333333333333</ele><time>2026-04-25T14:41:12.099Z</time></trkpt><trkpt lat="44.6054017" lon="7.939685"><ele>330.0</ele><time>2026-04-25T14:41:13.099Z</time></trkpt><trkpt lat="44.6052383" lon="7.9398583"><ele>327.0</ele><time>2026-04-25T14:41:14.099Z</time></trkpt><trkpt lat="44.6050683" lon="7.9400583"><ele>324.0</ele><time>2026-04-25T14:41:15.099Z</time></trkpt><trkpt lat="44.6049" lon="7.940245"><ele>321.0</ele><time>2026-04-25T14:41:16.099Z</time></trkpt><trkpt lat="44.60474" lon="7.9404183"><ele>321.0</ele><time>2026-04-25T14:41:17.099Z</time></trkpt><trkpt lat="44.60459" lon="7.9405883"><ele>321.0</ele><time>2026-04-25T14:41:18.099Z</time></trkpt><trkpt lat="44.604465" lon="7.9407467"><ele>321.0</ele><time>2026-04-25T14:41:19.099Z</time></trkpt><trkpt lat="44.6043433" lon="7.9408833"><ele>320.6666666666667</ele><time>2026-04-25T14:41:20.099Z</time></trkpt><trkpt lat="44.604215" lon="7.941"><ele>320.33333333333337</ele><time>2026-04-25T14:41:21.099Z</time></trkpt><trkpt lat="44.604075" lon="7.9410733"><ele>320.0</ele><time>2026-04-25T14:41:22.099Z</time></trkpt><trkpt lat="44.6039183" lon="7.9411183"><ele>320.0</ele><time>2026-04-25T14:41:23.099Z</time></trkpt><trkpt lat="44.6037417" lon="7.9411233"><ele>320.0</ele><time>2026-04-25T14:41:24.099Z</time></trkpt><trkpt lat="44.60355" lon="7.9410983"><ele>320.0</ele><time>2026-04-25T14:41:25.099Z</time></trkpt><trkpt lat="44.6033533" lon="7.9410567"><ele>321.0</ele><time>2026-04-25T14:41:26.099Z</time></trkpt><trkpt lat="44.603155" lon="7.9410167"><ele>322.0</ele><time>2026-04-25T14:41:27.099Z</time></trkpt><trkpt lat="44.6029633" lon="7.9409883"><ele>323.0</ele><time>2026-04-25T14:41:28.099Z</time></trkpt><trkpt lat="44.6027833" lon="7.940965"><ele>324.0</ele><time>2026-04-25T14:41:29.099Z</time></trkpt><trkpt lat="44.6026217" lon="7.9409267"><ele>325.0</ele><time>2026-04-25T14:41:30.099Z</time></trkpt><trkpt lat="44.60247" lon="7.9408867"><ele>326.0</ele><time>2026-04-25T14:41:31.099Z</time></trkpt><trkpt lat="44.60233" lon="7.940805"><ele>328.6666666666667</ele><time>2026-04-25T14:41:32.099Z</time></trkpt><trkpt lat="44.6021917" lon="7.9407"><ele>331.3333333333333</ele><time>2026-04-25T14:41:33.099Z</time></trkpt><trkpt lat="44.60205" lon="7.94056"><ele>334.0</ele><time>2026-04-25T14:41:34.099Z</time></trkpt><trkpt lat="44.6018933" lon="7.9404033"><ele>334.0</ele><time>2026-04-25T14:41:35.099Z</time></trkpt><trkpt lat="44.6017333" lon="7.9402333"><ele>334.0</ele><time>2026-04-25T14:41:36.099Z</time></trkpt><trkpt lat="44.601575" lon="7.940065"><ele>334.0</ele><time>2026-04-25T14:41:37.099Z</time></trkpt><trkpt lat="44.6014183" lon="7.9399083"><ele>334.66666666666663</ele><time>2026-04-25T14:41:38.099Z</time></trkpt><trkpt lat="44.6012667" lon="7.9397583"><ele>335.3333333333333</ele><time>2026-04-25T14:41:39.099Z</time></trkpt><trkpt lat="44.6011183" lon="7.939605"><ele>336.0</ele><time>2026-04-25T14:41:40.099Z</time></trkpt><trkpt lat="44.6009733" lon="7.9394517"><ele>336.0</ele><time>2026-04-25T14:41:41.099Z</time></trkpt><trkpt lat="44.6008317" lon="7.939305"><ele>336.0</ele><time>2026-04-25T14:41:42.099Z</time></trkpt><trkpt lat="44.60069" lon="7.9391667"><ele>336.0</ele><time>2026-04-25T14:41:43.099Z</time></trkpt><trkpt lat="44.600545" lon="7.93905"><ele>340.3333333333333</ele><time>2026-04-25T14:41:44.099Z</time></trkpt><trkpt lat="44.60039" lon="7.9389567"><ele>344.66666666666663</ele><time>2026-04-25T14:41:45.099Z</time></trkpt><trkpt lat="44.60024" lon="7.9389033"><ele>349.0</ele><time>2026-04-25T14:41:46.099Z</time></trkpt><trkpt lat="44.600085" lon="7.93889"><ele>349.0</ele><time>2026-04-25T14:41:47.099Z</time></trkpt><trkpt lat="44.5999217" lon="7.9389217"><ele>349.0</ele><time>2026-04-25T14:41:48.099Z</time></trkpt><trkpt lat="44.599785" lon="7.93901"><ele>349.0</ele><time>2026-04-25T14:41:49.099Z</time></trkpt><trkpt lat="44.599645" lon="7.93915"><ele>351.66666666666663</ele><time>2026-04-25T14:41:50.099Z</time></trkpt><trkpt lat="44.599525" lon="7.9393317"><ele>354.3333333333333</ele><time>2026-04-25T14:41:51.099Z</time></trkpt><trkpt lat="44.599435" lon="7.9395683"><ele>357.0</ele><time>2026-04-25T14:41:52.099Z</time></trkpt><trkpt lat="44.5993667" lon="7.9398367"><ele>357.0</ele><time>2026-04-25T14:41:53.099Z</time></trkpt><trkpt lat="44.5992983" lon="7.9400817"><ele>357.0</ele><time>2026-04-25T14:41:54.099Z</time></trkpt><trkpt lat="44.599235" lon="7.9403183"><ele>357.0</ele><time>2026-04-25T14:41:55.099Z</time></trkpt><trkpt lat="44.599165" lon="7.9405333"><ele>357.0</ele><time>2026-04-25T14:41:56.099Z</time></trkpt><trkpt lat="44.5990983" lon="7.9407533"><ele>357.0</ele><time>2026-04-25T14:41:57.099Z</time></trkpt><trkpt lat="44.5990367" lon="7.9409967"><ele>357.0</ele><time>2026-04-25T14:41:58.099Z</time></trkpt><trkpt lat="44.5990117" lon="7.94124"><ele>357.0</ele><time>2026-04-25T14:41:59.099Z</time></trkpt><trkpt lat="44.599005" lon="7.9415"><ele>357.0</ele><time>2026-04-25T14:42:00.099Z</time></trkpt><trkpt lat="44.5990133" lon="7.9417583"><ele>357.0</ele><time>2026-04-25T14:42:01.099Z</time></trkpt><trkpt lat="44.5990283" lon="7.9420083"><ele>357.0</ele><time>2026-04-25T14:42:02.099Z</time></trkpt><trkpt lat="44.5990567" lon="7.9422467"><ele>357.0</ele><time>2026-04-25T14:42:03.099Z</time></trkpt><trkpt lat="44.5990817" lon="7.942485"><ele>357.0</ele><time>2026-04-25T14:42:04.099Z</time></trkpt><trkpt lat="44.5990983" lon="7.942705"><ele>357.75</ele><time>2026-04-25T14:42:05.099Z</time></trkpt><trkpt lat="44.5991167" lon="7.94291"><ele>358.5</ele><time>2026-04-25T14:42:06.099Z</time></trkpt><trkpt lat="44.5991317" lon="7.94309"><ele>359.25</ele><time>2026-04-25T14:42:07.099Z</time></trkpt><trkpt lat="44.5991417" lon="7.9432483"><ele>360.0</ele><time>2026-04-25T14:42:08.099Z</time></trkpt><trkpt lat="44.5991367" lon="7.9433933"><ele>360.0</ele><time>2026-04-25T14:42:09.099Z</time></trkpt><trkpt lat="44.5990967" lon="7.9435267"><ele>360.0</ele><time>2026-04-25T14:42:10.099Z</time></trkpt><trkpt lat="44.5990267" lon="7.94364"><ele>360.0</ele><time>2026-04-25T14:42:11.099Z</time></trkpt><trkpt lat="44.5989183" lon="7.9437233"><ele>360.0</ele><time>2026-04-25T14:42:12.099Z</time></trkpt><trkpt lat="44.5987767" lon="7.9437583"><ele>360.6666666666667</ele><time>2026-04-25T14:42:13.099Z</time></trkpt><trkpt lat="44.5986217" lon="7.9437783"><ele>361.33333333333337</ele><time>2026-04-25T14:42:14.099Z</time></trkpt><trkpt lat="44.59847" lon="7.9437883"><ele>362.0</ele><time>2026-04-25T14:42:15.099Z</time></trkpt><trkpt lat="44.59832" lon="7.94381"><ele>362.0</ele><time>2026-04-25T14:42:16.099Z</time></trkpt><trkpt lat="44.5981917" lon="7.9438683"><ele>362.0</ele><time>2026-04-25T14:42:17.099Z</time></trkpt><trkpt lat="44.598065" lon="7.94397"><ele>362.0</ele><time>2026-04-25T14:42:18.099Z</time></trkpt><trkpt lat="44.5979517" lon="7.9441117"><ele>362.0</ele><time>2026-04-25T14:42:19.099Z</time></trkpt><trkpt lat="44.5978633" lon="7.9442867"><ele>365.0</ele><time>2026-04-25T14:42:20.099Z</time></trkpt><trkpt lat="44.5978083" lon="7.9445"><ele>368.0</ele><time>2026-04-25T14:42:21.099Z</time></trkpt><trkpt lat="44.5977533" lon="7.9447033"><ele>371.0</ele><time>2026-04-25T14:42:22.099Z</time></trkpt><trkpt lat="44.59769" lon="7.9448817"><ele>371.0</ele><time>2026-04-25T14:42:23.099Z</time></trkpt><trkpt lat="44.597615" lon="7.94503"><ele>371.0</ele><time>2026-04-25T14:42:24.099Z</time></trkpt><trkpt lat="44.5975217" lon="7.9451567"><ele>371.0</ele><time>2026-04-25T14:42:25.099Z</time></trkpt><trkpt lat="44.5974033" lon="7.9452633"><ele>371.0</ele><time>2026-04-25T14:42:26.099Z</time></trkpt><trkpt lat="44.5972583" lon="7.9453267"><ele>369.33333333333337</ele><time>2026-04-25T14:42:27.099Z</time></trkpt><trkpt lat="44.5970917" lon="7.9454033"><ele>367.6666666666667</ele><time>2026-04-25T14:42:28.099Z</time></trkpt><trkpt lat="44.596905" lon="7.9454867"><ele>366.0</ele><time>2026-04-25T14:42:29.099Z</time></trkpt><trkpt lat="44.5967183" lon="7.9455917"><ele>366.0</ele><time>2026-04-25T14:42:30.099Z</time></trkpt><trkpt lat="44.596525" lon="7.945685"><ele>366.0</ele><time>2026-04-25T14:42:31.099Z</time></trkpt><trkpt lat="44.5963317" lon="7.9457767"><ele>366.0</ele><time>2026-04-25T14:42:32.099Z</time></trkpt><trkpt lat="44.5961283" lon="7.945875"><ele>364.0</ele><time>2026-04-25T14:42:33.099Z</time></trkpt><trkpt lat="44.5959383" lon="7.945965"><ele>362.0</ele><time>2026-04-25T14:42:34.099Z</time></trkpt><trkpt lat="44.5957517" lon="7.9460617"><ele>360.0</ele><time>2026-04-25T14:42:35.099Z</time></trkpt><trkpt lat="44.5955583" lon="7.9461517"><ele>360.0</ele><time>2026-04-25T14:42:36.099Z</time></trkpt><trkpt lat="44.5953833" lon="7.9462383"><ele>360.0</ele><time>2026-04-25T14:42:37.099Z</time></trkpt><trkpt lat="44.5952233" lon="7.94633"><ele>360.0</ele><time>2026-04-25T14:42:38.099Z</time></trkpt><trkpt lat="44.5950767" lon="7.94643"><ele>359.0</ele><time>2026-04-25T14:42:39.099Z</time></trkpt><trkpt lat="44.5949517" lon="7.9465617"><ele>358.0</ele><time>2026-04-25T14:42:40.099Z</time></trkpt><trkpt lat="44.59485" lon="7.9467167"><ele>357.0</ele><time>2026-04-25T14:42:41.099Z</time></trkpt><trkpt lat="44.59475" lon="7.9468717"><ele>357.0</ele><time>2026-04-25T14:42:42.099Z</time></trkpt><trkpt lat="44.5946583" lon="7.9469983"><ele>357.0</ele><time>2026-04-25T14:42:43.099Z</time></trkpt><trkpt lat="44.59455" lon="7.9471017"><ele>357.0</ele><time>2026-04-25T14:42:44.099Z</time></trkpt><trkpt lat="44.59442" lon="7.947175"><ele>357.0</ele><time>2026-04-25T14:42:45.099Z</time></trkpt><trkpt lat="44.59427" lon="7.947205"><ele>360.6666666666667</ele><time>2026-04-25T14:42:46.099Z</time></trkpt><trkpt lat="44.5940967" lon="7.947205"><ele>364.33333333333337</ele><time>2026-04-25T14:42:47.099Z</time></trkpt><trkpt lat="44.593925" lon="7.9471883"><ele>368.0</ele><time>2026-04-25T14:42:48.099Z</time></trkpt><trkpt lat="44.593765" lon="7.9471933"><ele>369.25</ele><time>2026-04-25T14:42:49.099Z</time></trkpt><trkpt lat="44.593615" lon="7.9472483"><ele>370.5</ele><time>2026-04-25T14:42:50.099Z</time></trkpt><trkpt lat="44.5934967" lon="7.9473433"><ele>371.75</ele><time>2026-04-25T14:42:51.099Z</time></trkpt><trkpt lat="44.59339" lon="7.9474917"><ele>373.0</ele><time>2026-04-25T14:42:52.099Z</time></trkpt><trkpt lat="44.59331" lon="7.94767"><ele>373.0</ele><time>2026-04-25T14:42:53.099Z</time></trkpt><trkpt lat="44.5932283" lon="7.947865"><ele>373.0</ele><time>2026-04-25T14:42:54.099Z</time></trkpt><trkpt lat="44.5931467" lon="7.9480783"><ele>373.0</ele><time>2026-04-25T14:42:55.099Z</time></trkpt><trkpt lat="44.5930533" lon="7.9483017"><ele>375.66666666666663</ele><time>2026-04-25T14:42:56.099Z</time></trkpt><trkpt lat="44.5929583" lon="7.9485367"><ele>378.3333333333333</ele><time>2026-04-25T14:42:57.099Z</time></trkpt><trkpt lat="44.5928717" lon="7.94878"><ele>381.0</ele><time>2026-04-25T14:42:58.099Z</time></trkpt><trkpt lat="44.592785" lon="7.9490083"><ele>379.0</ele><time>2026-04-25T14:42:59.099Z</time></trkpt><trkpt lat="44.5927" lon="7.94923"><ele>377.0</ele><time>2026-04-25T14:43:00.099Z</time></trkpt><trkpt lat="44.5926117" lon="7.949435"><ele>375.0</ele><time>2026-04-25T14:43:01.099Z</time></trkpt><trkpt lat="44.59253" lon="7.94965"><ele>375.0</ele><time>2026-04-25T14:43:02.099Z</time></trkpt><trkpt lat="44.5924433" lon="7.9498717"><ele>375.0</ele><time>2026-04-25T14:43:03.099Z</time></trkpt><trkpt lat="44.5923633" lon="7.950095"><ele>375.0</ele><time>2026-04-25T14:43:04.099Z</time></trkpt><trkpt lat="44.5922783" lon="7.9503117"><ele>374.3333333333333</ele><time>2026-04-25T14:43:05.099Z</time></trkpt><trkpt lat="44.59219" lon="7.950525"><ele>373.66666666666663</ele><time>2026-04-25T14:43:06.099Z</time></trkpt><trkpt lat="44.5921017" lon="7.9507333"><ele>373.0</ele><time>2026-04-25T14:43:07.099Z</time></trkpt><trkpt lat="44.5920017" lon="7.9509333"><ele>376.0</ele><time>2026-04-25T14:43:08.099Z</time></trkpt><trkpt lat="44.591905" lon="7.951145"><ele>379.0</ele><time>2026-04-25T14:43:09.099Z</time></trkpt><trkpt lat="44.5918017" lon="7.9513517"><ele>382.0</ele><time>2026-04-25T14:43:10.099Z</time></trkpt><trkpt lat="44.5916933" lon="7.95156"><ele>385.0</ele><time>2026-04-25T14:43:11.099Z</time></trkpt><trkpt lat="44.5915833" lon="7.95175"><ele>388.0</ele><time>2026-04-25T14:43:12.099Z</time></trkpt><trkpt lat="44.5914767" lon="7.9519217"><ele>391.0</ele><time>2026-04-25T14:43:13.099Z</time></trkpt><trkpt lat="44.5913767" lon="7.9520767"><ele>391.0</ele><time>2026-04-25T14:43:14.099Z</time></trkpt><trkpt lat="44.59127" lon="7.9522067"><ele>391.0</ele><time>2026-04-25T14:43:15.099Z</time></trkpt><trkpt lat="44.59114" lon="7.9523"><ele>391.0</ele><time>2026-04-25T14:43:16.099Z</time></trkpt><trkpt lat="44.591015" lon="7.9523317"><ele>391.0</ele><time>2026-04-25T14:43:17.099Z</time></trkpt><trkpt lat="44.5909017" lon="7.9522883"><ele>391.0</ele><time>2026-04-25T14:43:18.099Z</time></trkpt><trkpt lat="44.59079" lon="7.9522"><ele>391.0</ele><time>2026-04-25T14:43:19.099Z</time></trkpt><trkpt lat="44.590685" lon="7.95208"><ele>391.0</ele><time>2026-04-25T14:43:20.099Z</time></trkpt><trkpt lat="44.5905817" lon="7.9519483"><ele>391.0</ele><time>2026-04-25T14:43:21.099Z</time></trkpt><trkpt lat="44.5904517" lon="7.9518217"><ele>392.6666666666667</ele><time>2026-04-25T14:43:22.099Z</time></trkpt><trkpt lat="44.5903117" lon="7.9517267"><ele>394.33333333333337</ele><time>2026-04-25T14:43:23.099Z</time></trkpt><trkpt lat="44.590165" lon="7.951655"><ele>396.0</ele><time>2026-04-25T14:43:24.099Z</time></trkpt><trkpt lat="44.5900233" lon="7.9515967"><ele>391.5</ele><time>2026-04-25T14:43:25.099Z</time></trkpt><trkpt lat="44.5898883" lon="7.951555"><ele>387.0</ele><time>2026-04-25T14:43:26.099Z</time></trkpt><trkpt lat="44.5897583" lon="7.951525"><ele>382.5</ele><time>2026-04-25T14:43:27.099Z</time></trkpt><trkpt lat="44.5896317" lon="7.9515067"><ele>378.0</ele><time>2026-04-25T14:43:28.099Z</time></trkpt><trkpt lat="44.5895117" lon="7.9515167"><ele>378.0</ele><time>2026-04-25T14:43:29.099Z</time></trkpt><trkpt lat="44.5893983" lon="7.95155"><ele>378.0</ele><time>2026-04-25T14:43:30.099Z</time></trkpt><trkpt lat="44.589295" lon="7.9515983"><ele>378.0</ele><time>2026-04-25T14:43:31.099Z</time></trkpt><trkpt lat="44.5891867" lon="7.9516583"><ele>378.0</ele><time>2026-04-25T14:43:32.099Z</time></trkpt><trkpt lat="44.5890683" lon="7.9517133"><ele>381.5</ele><time>2026-04-25T14:43:33.099Z</time></trkpt><trkpt lat="44.5889417" lon="7.9517783"><ele>385.0</ele><time>2026-04-25T14:43:34.099Z</time></trkpt><trkpt lat="44.5888233" lon="7.95182"><ele>388.5</ele><time>2026-04-25T14:43:35.099Z</time></trkpt><trkpt lat="44.588715" lon="7.95185"><ele>392.0</ele><time>2026-04-25T14:43:36.099Z</time></trkpt><trkpt lat="44.5886083" lon="7.9518583"><ele>392.0</ele><time>2026-04-25T14:43:37.099Z</time></trkpt><trkpt lat="44.5885117" lon="7.9518317"><ele>392.0</ele><time>2026-04-25T14:43:38.099Z</time></trkpt><trkpt lat="44.5884317" lon="7.9517517"><ele>392.0</ele><time>2026-04-25T14:43:39.099Z</time></trkpt><trkpt lat="44.5883633" lon="7.9516283"><ele>392.0</ele><time>2026-04-25T14:43:40.099Z</time></trkpt><trkpt lat="44.5882733" lon="7.9514733"><ele>388.0</ele><time>2026-04-25T14:43:41.099Z</time></trkpt><trkpt lat="44.58816" lon="7.9513167"><ele>384.0</ele><time>2026-04-25T14:43:42.099Z</time></trkpt><trkpt lat="44.5880367" lon="7.9511367"><ele>380.0</ele><time>2026-04-25T14:43:43.099Z</time></trkpt><trkpt lat="44.5878967" lon="7.95093"><ele>380.0</ele><time>2026-04-25T14:43:44.099Z</time></trkpt><trkpt lat="44.5877533" lon="7.9507217"><ele>380.0</ele><time>2026-04-25T14:43:45.099Z</time></trkpt><trkpt lat="44.5876367" lon="7.9505133"><ele>380.0</ele><time>2026-04-25T14:43:46.099Z</time></trkpt><trkpt lat="44.5875217" lon="7.9503167"><ele>380.0</ele><time>2026-04-25T14:43:47.099Z</time></trkpt><trkpt lat="44.5874183" lon="7.95014"><ele>380.0</ele><time>2026-04-25T14:43:48.099Z</time></trkpt><trkpt lat="44.5873233" lon="7.9499917"><ele>380.0</ele><time>2026-04-25T14:43:49.099Z</time></trkpt><trkpt lat="44.5872417" lon="7.9498517"><ele>380.0</ele><time>2026-04-25T14:43:50.099Z</time></trkpt><trkpt lat="44.587155" lon="7.9497233"><ele>380.4</ele><time>2026-04-25T14:43:51.099Z</time></trkpt><trkpt lat="44.5870783" lon="7.949605"><ele>380.8</ele><time>2026-04-25T14:43:52.099Z</time></trkpt><trkpt lat="44.587" lon="7.9494933"><ele>381.20000000000005</ele><time>2026-04-25T14:43:53.099Z</time></trkpt><trkpt lat="44.5869283" lon="7.9493867"><ele>381.6</ele><time>2026-04-25T14:43:54.099Z</time></trkpt><trkpt lat="44.5868333" lon="7.9493117"><ele>382.0</ele><time>2026-04-25T14:43:55.099Z</time></trkpt><trkpt lat="44.58673" lon="7.9492783"><ele>382.0</ele><time>2026-04-25T14:43:56.099Z</time></trkpt><trkpt lat="44.58662" lon="7.94928"><ele>382.0</ele><time>2026-04-25T14:43:57.099Z</time></trkpt><trkpt lat="44.5865133" lon="7.94933"><ele>382.0</ele><time>2026-04-25T14:43:58.099Z</time></trkpt><trkpt lat="44.5864133" lon="7.9494167"><ele>382.0</ele><time>2026-04-25T14:43:59.099Z</time></trkpt><trkpt lat="44.58631" lon="7.9495"><ele>382.0</ele><time>2026-04-25T14:44:00.099Z</time></trkpt><trkpt lat="44.5861983" lon="7.9495817"><ele>382.0</ele><time>2026-04-25T14:44:01.099Z</time></trkpt><trkpt lat="44.5860817" lon="7.94966"><ele>382.0</ele><time>2026-04-25T14:44:02.099Z</time></trkpt><trkpt lat="44.5859617" lon="7.9497167"><ele>382.0</ele><time>2026-04-25T14:44:03.099Z</time></trkpt><trkpt lat="44.5858483" lon="7.94976"><ele>379.6</ele><time>2026-04-25T14:44:04.099Z</time></trkpt><trkpt lat="44.5857333" lon="7.9497833"><ele>377.20000000000005</ele><time>2026-04-25T14:44:05.099Z</time></trkpt><trkpt lat="44.5856283" lon="7.949795"><ele>374.8</ele><time>2026-04-25T14:44:06.099Z</time></trkpt><trkpt lat="44.585525" lon="7.9497933"><ele>372.4</ele><time>2026-04-25T14:44:07.099Z</time></trkpt><trkpt lat="44.585435" lon="7.94979"><ele>370.0</ele><time>2026-04-25T14:44:08.099Z</time></trkpt><trkpt lat="44.5853617" lon="7.9497767"><ele>367.8</ele><time>2026-04-25T14:44:09.099Z</time></trkpt><trkpt lat="44.58529" lon="7.94976"><ele>365.6</ele><time>2026-04-25T14:44:11.099Z</time></trkpt><trkpt lat="44.58521" lon="7.9497017"><ele>363.4</ele><time>2026-04-25T14:44:18.099Z</time></trkpt><trkpt lat="44.5851183" lon="7.949735"><ele>361.2</ele><time>2026-04-25T14:44:20.099Z</time></trkpt><trkpt lat="44.58508" lon="7.94991"><ele>359.0</ele><time>2026-04-25T14:44:22.099Z</time></trkpt><trkpt lat="44.5850917" lon="7.9500267"><ele>359.4</ele><time>2026-04-25T14:44:23.099Z</time></trkpt><trkpt lat="44.5851183" lon="7.950165"><ele>359.79999999999995</ele><time>2026-04-25T14:44:24.099Z</time></trkpt><trkpt lat="44.5851417" lon="7.9503183"><ele>360.20000000000005</ele><time>2026-04-25T14:44:25.099Z</time></trkpt><trkpt lat="44.5851817" lon="7.95047"><ele>360.6</ele><time>2026-04-25T14:44:26.099Z</time></trkpt><trkpt lat="44.5852267" lon="7.9506083"><ele>361.0</ele><time>2026-04-25T14:44:27.099Z</time></trkpt><trkpt lat="44.585285" lon="7.950765"><ele>362.75</ele><time>2026-04-25T14:44:28.099Z</time></trkpt><trkpt lat="44.5853383" lon="7.9509483"><ele>364.5</ele><time>2026-04-25T14:44:29.099Z</time></trkpt><trkpt lat="44.5853883" lon="7.951135"><ele>366.25</ele><time>2026-04-25T14:44:30.099Z</time></trkpt><trkpt lat="44.5854283" lon="7.95131"><ele>368.0</ele><time>2026-04-25T14:44:31.099Z</time></trkpt><trkpt lat="44.5854533" lon="7.9514883"><ele>374.25</ele><time>2026-04-25T14:44:32.099Z</time></trkpt><trkpt lat="44.58546" lon="7.95167"><ele>380.5</ele><time>2026-04-25T14:44:33.099Z</time></trkpt><trkpt lat="44.5854417" lon="7.95186"><ele>386.75</ele><time>2026-04-25T14:44:34.099Z</time></trkpt><trkpt lat="44.58541" lon="7.952075"><ele>393.0</ele><time>2026-04-25T14:44:35.099Z</time></trkpt><trkpt lat="44.585365" lon="7.9523083"><ele>393.5</ele><time>2026-04-25T14:44:36.099Z</time></trkpt><trkpt lat="44.58531" lon="7.9525167"><ele>394.0</ele><time>2026-04-25T14:44:37.099Z</time></trkpt><trkpt lat="44.5852617" lon="7.952715"><ele>394.5</ele><time>2026-04-25T14:44:38.099Z</time></trkpt><trkpt lat="44.585215" lon="7.952885"><ele>395.0</ele><time>2026-04-25T14:44:39.099Z</time></trkpt><trkpt lat="44.5851683" lon="7.95304"><ele>395.0</ele><time>2026-04-25T14:44:40.099Z</time></trkpt><trkpt lat="44.5850967" lon="7.9531717"><ele>395.0</ele><time>2026-04-25T14:44:41.099Z</time></trkpt><trkpt lat="44.5849967" lon="7.953295"><ele>395.0</ele><time>2026-04-25T14:44:42.099Z</time></trkpt><trkpt lat="44.58487" lon="7.9533983"><ele>395.0</ele><time>2026-04-25T14:44:43.099Z</time></trkpt><trkpt lat="44.5847383" lon="7.9534817"><ele>398.3333333333333</ele><time>2026-04-25T14:44:44.099Z</time></trkpt><trkpt lat="44.5845983" lon="7.9535617"><ele>401.66666666666663</ele><time>2026-04-25T14:44:45.099Z</time></trkpt><trkpt lat="44.58445" lon="7.95364"><ele>405.0</ele><time>2026-04-25T14:44:46.099Z</time></trkpt><trkpt lat="44.5843033" lon="7.9537367"><ele>405.0</ele><time>2026-04-25T14:44:47.099Z</time></trkpt><trkpt lat="44.584165" lon="7.9538383"><ele>405.0</ele><time>2026-04-25T14:44:48.099Z</time></trkpt><trkpt lat="44.58401" lon="7.95396"><ele>405.0</ele><time>2026-04-25T14:44:49.098Z</time></trkpt><trkpt lat="44.583865" lon="7.9540833"><ele>405.0</ele><time>2026-04-25T14:44:50.098Z</time></trkpt><trkpt lat="44.5837083" lon="7.95419"><ele>405.0</ele><time>2026-04-25T14:44:51.098Z</time></trkpt><trkpt lat="44.5835583" lon="7.9542917"><ele>405.0</ele><time>2026-04-25T14:44:52.098Z</time></trkpt><trkpt lat="44.5834133" lon="7.9543733"><ele>407.25</ele><time>2026-04-25T14:44:53.098Z</time></trkpt><trkpt lat="44.5832667" lon="7.9544433"><ele>409.5</ele><time>2026-04-25T14:44:54.098Z</time></trkpt><trkpt lat="44.583125" lon="7.9544933"><ele>411.75</ele><time>2026-04-25T14:44:55.098Z</time></trkpt><trkpt lat="44.5829817" lon="7.9545483"><ele>414.0</ele><time>2026-04-25T14:44:56.098Z</time></trkpt><trkpt lat="44.582875" lon="7.9545967"><ele>413.4</ele><time>2026-04-25T14:44:57.098Z</time></trkpt><trkpt lat="44.582785" lon="7.9546633"><ele>412.79999999999995</ele><time>2026-04-25T14:44:58.098Z</time></trkpt><trkpt lat="44.582725" lon="7.9547683"><ele>412.20000000000005</ele><time>2026-04-25T14:44:59.098Z</time></trkpt><trkpt lat="44.5826983" lon="7.9549"><ele>411.6</ele><time>2026-04-25T14:45:00.098Z</time></trkpt><trkpt lat="44.5826983" lon="7.955075"><ele>411.0</ele><time>2026-04-25T14:45:01.098Z</time></trkpt><trkpt lat="44.5827267" lon="7.9552767"><ele>411.0</ele><time>2026-04-25T14:45:02.098Z</time></trkpt><trkpt lat="44.5827533" lon="7.95548"><ele>411.0</ele><time>2026-04-25T14:45:03.098Z</time></trkpt><trkpt lat="44.5827817" lon="7.9556867"><ele>411.0</ele><time>2026-04-25T14:45:04.098Z</time></trkpt><trkpt lat="44.5828083" lon="7.9559083"><ele>410.0</ele><time>2026-04-25T14:45:05.098Z</time></trkpt><trkpt lat="44.5828317" lon="7.95614"><ele>409.0</ele><time>2026-04-25T14:45:06.098Z</time></trkpt><trkpt lat="44.5828567" lon="7.956375"><ele>408.0</ele><time>2026-04-25T14:45:07.098Z</time></trkpt><trkpt lat="44.5828867" lon="7.9566017"><ele>410.5</ele><time>2026-04-25T14:45:08.098Z</time></trkpt><trkpt lat="44.5829217" lon="7.9567967"><ele>413.0</ele><time>2026-04-25T14:45:09.098Z</time></trkpt><trkpt lat="44.582965" lon="7.95697"><ele>415.5</ele><time>2026-04-25T14:45:10.098Z</time></trkpt><trkpt lat="44.5830383" lon="7.9571"><ele>418.0</ele><time>2026-04-25T14:45:11.098Z</time></trkpt><trkpt lat="44.5831367" lon="7.9572017"><ele>418.0</ele><time>2026-04-25T14:45:12.098Z</time></trkpt><trkpt lat="44.5832467" lon="7.9572767"><ele>418.0</ele><time>2026-04-25T14:45:13.098Z</time></trkpt><trkpt lat="44.5833617" lon="7.95734"><ele>418.0</ele><time>2026-04-25T14:45:14.098Z</time></trkpt><trkpt lat="44.5834817" lon="7.9573933"><ele>418.0</ele><time>2026-04-25T14:45:15.098Z</time></trkpt><trkpt lat="44.5836133" lon="7.957425"><ele>420.5</ele><time>2026-04-25T14:45:16.098Z</time></trkpt><trkpt lat="44.583755" lon="7.957415"><ele>423.0</ele><time>2026-04-25T14:45:17.098Z</time></trkpt><trkpt lat="44.5839" lon="7.9573717"><ele>425.5</ele><time>2026-04-25T14:45:18.098Z</time></trkpt><trkpt lat="44.5840533" lon="7.9573467"><ele>428.0</ele><time>2026-04-25T14:45:19.098Z</time></trkpt><trkpt lat="44.5842167" lon="7.9573617"><ele>428.0</ele><time>2026-04-25T14:45:20.098Z</time></trkpt><trkpt lat="44.5843683" lon="7.9574083"><ele>428.0</ele><time>2026-04-25T14:45:21.098Z</time></trkpt><trkpt lat="44.5845017" lon="7.95749"><ele>428.0</ele><time>2026-04-25T14:45:22.098Z</time></trkpt><trkpt lat="44.5846333" lon="7.9575933"><ele>428.3333333333333</ele><time>2026-04-25T14:45:23.098Z</time></trkpt><trkpt lat="44.5847517" lon="7.9577283"><ele>428.66666666666663</ele><time>2026-04-25T14:45:24.098Z</time></trkpt><trkpt lat="44.5848683" lon="7.9578783"><ele>429.0</ele><time>2026-04-25T14:45:25.098Z</time></trkpt><trkpt lat="44.5849767" lon="7.958025"><ele>429.0</ele><time>2026-04-25T14:45:26.098Z</time></trkpt><trkpt lat="44.5850633" lon="7.9582033"><ele>429.0</ele><time>2026-04-25T14:45:27.098Z</time></trkpt><trkpt lat="44.5851083" lon="7.9583967"><ele>429.0</ele><time>2026-04-25T14:45:28.098Z</time></trkpt><trkpt lat="44.5851333" lon="7.9585967"><ele>429.0</ele><time>2026-04-25T14:45:29.098Z</time></trkpt><trkpt lat="44.5851383" lon="7.95881"><ele>430.33333333333337</ele><time>2026-04-25T14:45:30.098Z</time></trkpt><trkpt lat="44.5851167" lon="7.959025"><ele>431.6666666666667</ele><time>2026-04-25T14:45:31.098Z</time></trkpt><trkpt lat="44.585065" lon="7.959235"><ele>433.0</ele><time>2026-04-25T14:45:32.098Z</time></trkpt><trkpt lat="44.5850117" lon="7.9594517"><ele>433.75</ele><time>2026-04-25T14:45:33.098Z</time></trkpt><trkpt lat="44.5849683" lon="7.959655"><ele>434.5</ele><time>2026-04-25T14:45:34.098Z</time></trkpt><trkpt lat="44.5849333" lon="7.9598517"><ele>435.25</ele><time>2026-04-25T14:45:35.098Z</time></trkpt><trkpt lat="44.5849283" lon="7.9600483"><ele>436.0</ele><time>2026-04-25T14:45:36.098Z</time></trkpt><trkpt lat="44.5849667" lon="7.9602483"><ele>434.0</ele><time>2026-04-25T14:45:37.098Z</time></trkpt><trkpt lat="44.585025" lon="7.9604583"><ele>432.0</ele><time>2026-04-25T14:45:38.098Z</time></trkpt><trkpt lat="44.5851" lon="7.9606583"><ele>430.0</ele><time>2026-04-25T14:45:39.098Z</time></trkpt><trkpt lat="44.58518" lon="7.96084"><ele>432.0</ele><time>2026-04-25T14:45:40.098Z</time></trkpt><trkpt lat="44.5852533" lon="7.9610067"><ele>434.0</ele><time>2026-04-25T14:45:41.098Z</time></trkpt><trkpt lat="44.5853283" lon="7.9611667"><ele>436.0</ele><time>2026-04-25T14:45:42.098Z</time></trkpt><trkpt lat="44.5854133" lon="7.961305"><ele>438.0</ele><time>2026-04-25T14:45:43.098Z</time></trkpt><trkpt lat="44.5855067" lon="7.9614333"><ele>438.0</ele><time>2026-04-25T14:45:44.098Z</time></trkpt><trkpt lat="44.5856033" lon="7.9615583"><ele>438.0</ele><time>2026-04-25T14:45:45.098Z</time></trkpt><trkpt lat="44.5857" lon="7.9616767"><ele>438.0</ele><time>2026-04-25T14:45:46.098Z</time></trkpt><trkpt lat="44.5858017" lon="7.9617917"><ele>438.0</ele><time>2026-04-25T14:45:47.098Z</time></trkpt><trkpt lat="44.5858967" lon="7.9619083"><ele>436.75</ele><time>2026-04-25T14:45:48.098Z</time></trkpt><trkpt lat="44.585985" lon="7.9620417"><ele>435.5</ele><time>2026-04-25T14:45:49.098Z</time></trkpt><trkpt lat="44.5860667" lon="7.9621817"><ele>434.25</ele><time>2026-04-25T14:45:50.098Z</time></trkpt><trkpt lat="44.5861283" lon="7.96234"><ele>433.0</ele><time>2026-04-25T14:45:51.098Z</time></trkpt><trkpt lat="44.5861667" lon="7.9625317"><ele>433.0</ele><time>2026-04-25T14:45:52.098Z</time></trkpt><trkpt lat="44.5861717" lon="7.9627367"><ele>433.0</ele><time>2026-04-25T14:45:53.098Z</time></trkpt><trkpt lat="44.58616" lon="7.9629383"><ele>433.0</ele><time>2026-04-25T14:45:54.098Z</time></trkpt><trkpt lat="44.58614" lon="7.9631517"><ele>433.0</ele><time>2026-04-25T14:45:55.098Z</time></trkpt><trkpt lat="44.586095" lon="7.9633383"><ele>436.0</ele><time>2026-04-25T14:45:56.098Z</time></trkpt><trkpt lat="44.5860283" lon="7.9635267"><ele>439.0</ele><time>2026-04-25T14:45:57.098Z</time></trkpt><trkpt lat="44.5859483" lon="7.9637217"><ele>442.0</ele><time>2026-04-25T14:45:58.098Z</time></trkpt><trkpt lat="44.5858633" lon="7.9639317"><ele>442.0</ele><time>2026-04-25T14:45:59.098Z</time></trkpt><trkpt lat="44.5857817" lon="7.9641233"><ele>442.0</ele><time>2026-04-25T14:46:00.098Z</time></trkpt><trkpt lat="44.585715" lon="7.96433"><ele>442.0</ele><time>2026-04-25T14:46:01.098Z</time></trkpt><trkpt lat="44.5856533" lon="7.96455"><ele>445.5</ele><time>2026-04-25T14:46:02.098Z</time></trkpt><trkpt lat="44.5855917" lon="7.96475"><ele>449.0</ele><time>2026-04-25T14:46:03.098Z</time></trkpt><trkpt lat="44.585535" lon="7.964935"><ele>452.5</ele><time>2026-04-25T14:46:04.098Z</time></trkpt><trkpt lat="44.5854783" lon="7.9650983"><ele>456.0</ele><time>2026-04-25T14:46:05.098Z</time></trkpt><trkpt lat="44.5854167" lon="7.9652567"><ele>457.25</ele><time>2026-04-25T14:46:06.098Z</time></trkpt><trkpt lat="44.58535" lon="7.96541"><ele>458.5</ele><time>2026-04-25T14:46:07.098Z</time></trkpt><trkpt lat="44.585265" lon="7.96555"><ele>459.75</ele><time>2026-04-25T14:46:08.098Z</time></trkpt><trkpt lat="44.5851717" lon="7.9656667"><ele>461.0</ele><time>2026-04-25T14:46:09.098Z</time></trkpt><trkpt lat="44.5850667" lon="7.9657867"><ele>465.5</ele><time>2026-04-25T14:46:10.098Z</time></trkpt><trkpt lat="44.584945" lon="7.9658667"><ele>470.0</ele><time>2026-04-25T14:46:11.098Z</time></trkpt><trkpt lat="44.5848033" lon="7.9659333"><ele>474.5</ele><time>2026-04-25T14:46:12.098Z</time></trkpt><trkpt lat="44.5846717" lon="7.9659817"><ele>479.0</ele><time>2026-04-25T14:46:13.098Z</time></trkpt><trkpt lat="44.5845617" lon="7.9660383"><ele>476.79999999999995</ele><time>2026-04-25T14:46:14.098Z</time></trkpt><trkpt lat="44.5844667" lon="7.9661183"><ele>474.59999999999997</ele><time>2026-04-25T14:46:15.098Z</time></trkpt><trkpt lat="44.584375" lon="7.966205"><ele>472.4</ele><time>2026-04-25T14:46:16.098Z</time></trkpt><trkpt lat="44.5842917" lon="7.96629"><ele>470.2</ele><time>2026-04-25T14:46:17.098Z</time></trkpt><trkpt lat="44.58421" lon="7.9663767"><ele>468.0</ele><time>2026-04-25T14:46:18.098Z</time></trkpt><trkpt lat="44.58414" lon="7.9664817"><ele>468.0</ele><time>2026-04-25T14:46:19.098Z</time></trkpt><trkpt lat="44.5840683" lon="7.9665933"><ele>468.0</ele><time>2026-04-25T14:46:20.098Z</time></trkpt><trkpt lat="44.5839767" lon="7.9666917"><ele>468.0</ele><time>2026-04-25T14:46:21.098Z</time></trkpt><trkpt lat="44.58389" lon="7.9667983"><ele>468.0</ele><time>2026-04-25T14:46:22.098Z</time></trkpt><trkpt lat="44.5838017" lon="7.9668983"><ele>469.2</ele><time>2026-04-25T14:46:23.098Z</time></trkpt><trkpt lat="44.58371" lon="7.9670017"><ele>470.4</ele><time>2026-04-25T14:46:24.098Z</time></trkpt><trkpt lat="44.5836217" lon="7.9671117"><ele>471.59999999999997</ele><time>2026-04-25T14:46:25.098Z</time></trkpt><trkpt lat="44.5835467" lon="7.967205"><ele>472.79999999999995</ele><time>2026-04-25T14:46:26.098Z</time></trkpt><trkpt lat="44.583485" lon="7.9672933"><ele>474.0</ele><time>2026-04-25T14:46:27.098Z</time></trkpt><trkpt lat="44.5834317" lon="7.9673617"><ele>474.0</ele><time>2026-04-25T14:46:28.098Z</time></trkpt><trkpt lat="44.583385" lon="7.9674217"><ele>474.0</ele><time>2026-04-25T14:46:29.098Z</time></trkpt><trkpt lat="44.5833117" lon="7.9675217"><ele>474.0</ele><time>2026-04-25T14:46:31.098Z</time></trkpt><trkpt lat="44.58322" lon="7.9676133"><ele>474.0</ele><time>2026-04-25T14:46:33.098Z</time></trkpt><trkpt lat="44.5831333" lon="7.9676933"><ele>474.0</ele><time>2026-04-25T14:46:35.098Z</time></trkpt><trkpt lat="44.583065" lon="7.9677583"><ele>473.5714285714285</ele><time>2026-04-25T14:46:39.098Z</time></trkpt><trkpt lat="44.58301" lon="7.96781"><ele>473.1428571428571</ele><time>2026-04-25T14:46:43.098Z</time></trkpt><trkpt lat="44.5829567" lon="7.9678783"><ele>472.7142857142857</ele><time>2026-04-25T14:46:48.098Z</time></trkpt><trkpt lat="44.5828933" lon="7.9679217"><ele>472.2857142857143</ele><time>2026-04-25T14:46:51.098Z</time></trkpt><trkpt lat="44.5828117" lon="7.9679517"><ele>471.8571428571429</ele><time>2026-04-25T14:46:54.098Z</time></trkpt><trkpt lat="44.5827333" lon="7.9679833"><ele>471.4285714285715</ele><time>2026-04-25T14:46:56.098Z</time></trkpt><trkpt lat="44.5826683" lon="7.9680217"><ele>471.00000000000006</ele><time>2026-04-25T14:46:58.098Z</time></trkpt><trkpt lat="44.5826067" lon="7.9680567"><ele>471.0</ele><time>2026-04-25T14:47:00.098Z</time></trkpt><trkpt lat="44.5825367" lon="7.9680867"><ele>471.0</ele><time>2026-04-25T14:47:02.098Z</time></trkpt><trkpt lat="44.5824733" lon="7.9681333"><ele>471.0</ele><time>2026-04-25T14:47:04.098Z</time></trkpt><trkpt lat="44.5823883" lon="7.9681783"><ele>471.0</ele><time>2026-04-25T14:47:07.098Z</time></trkpt><trkpt lat="44.5823233" lon="7.9681983"><ele>471.0</ele><time>2026-04-25T14:47:09.098Z</time></trkpt><trkpt lat="44.58225" lon="7.9682167"><ele>471.0</ele><time>2026-04-25T14:47:11.098Z</time></trkpt><trkpt lat="44.5822317" lon="7.9683367"><ele>470.8</ele><time>2026-04-25T14:47:14.098Z</time></trkpt><trkpt lat="44.58227" lon="7.968475"><ele>470.6</ele><time>2026-04-25T14:47:16.098Z</time></trkpt><trkpt lat="44.5823033" lon="7.9686183"><ele>470.4</ele><time>2026-04-25T14:47:18.098Z</time></trkpt><trkpt lat="44.5823367" lon="7.96877"><ele>470.2</ele><time>2026-04-25T14:47:20.098Z</time></trkpt><trkpt lat="44.5823917" lon="7.96888"><ele>470.0</ele><time>2026-04-25T14:47:22.098Z</time></trkpt><trkpt lat="44.58241" lon="7.96898"><ele>470.0</ele><time>2026-04-25T14:47:24.098Z</time></trkpt><trkpt lat="44.5823617" lon="7.969115"><ele>470.0</ele><time>2026-04-25T14:47:26.098Z</time></trkpt><trkpt lat="44.5823183" lon="7.96919"><ele>470.0</ele><time>2026-04-25T14:47:27.098Z</time></trkpt><trkpt lat="44.5822667" lon="7.969265"><ele>470.0</ele><time>2026-04-25T14:47:28.098Z</time></trkpt><trkpt lat="44.5821917" lon="7.9693467"><ele>470.0</ele><time>2026-04-25T14:47:29.098Z</time></trkpt><trkpt lat="44.58211" lon="7.96944"><ele>468.75</ele><time>2026-04-25T14:47:30.098Z</time></trkpt><trkpt lat="44.582015" lon="7.9695367"><ele>467.5</ele><time>2026-04-25T14:47:31.098Z</time></trkpt><trkpt lat="44.5819117" lon="7.9696383"><ele>466.25</ele><time>2026-04-25T14:47:32.098Z</time></trkpt><trkpt lat="44.5818183" lon="7.9697433"><ele>465.0</ele><time>2026-04-25T14:47:33.098Z</time></trkpt><trkpt lat="44.58172" lon="7.969855"><ele>465.0</ele><time>2026-04-25T14:47:34.098Z</time></trkpt><trkpt lat="44.581625" lon="7.9699517"><ele>465.0</ele><time>2026-04-25T14:47:35.098Z</time></trkpt><trkpt lat="44.5815267" lon="7.9700683"><ele>465.0</ele><time>2026-04-25T14:47:36.098Z</time></trkpt><trkpt lat="44.5814417" lon="7.9701767"><ele>465.0</ele><time>2026-04-25T14:47:37.098Z</time></trkpt><trkpt lat="44.5813533" lon="7.9703067"><ele>463.0</ele><time>2026-04-25T14:47:38.098Z</time></trkpt><trkpt lat="44.5812633" lon="7.9704417"><ele>461.0</ele><time>2026-04-25T14:47:39.098Z</time></trkpt><trkpt lat="44.581165" lon="7.9705617"><ele>459.0</ele><time>2026-04-25T14:47:40.098Z</time></trkpt><trkpt lat="44.58105" lon="7.9706883"><ele>457.0</ele><time>2026-04-25T14:47:41.098Z</time></trkpt><trkpt lat="44.5809467" lon="7.9708067"><ele>459.25</ele><time>2026-04-25T14:47:42.098Z</time></trkpt><trkpt lat="44.5808433" lon="7.9709067"><ele>461.5</ele><time>2026-04-25T14:47:43.098Z</time></trkpt><trkpt lat="44.580745" lon="7.97102"><ele>463.75</ele><time>2026-04-25T14:47:44.098Z</time></trkpt><trkpt lat="44.5806417" lon="7.9711317"><ele>466.0</ele><time>2026-04-25T14:47:45.098Z</time></trkpt><trkpt lat="44.5805333" lon="7.9712583"><ele>466.0</ele><time>2026-04-25T14:47:46.098Z</time></trkpt><trkpt lat="44.5804117" lon="7.9713967"><ele>466.0</ele><time>2026-04-25T14:47:47.098Z</time></trkpt><trkpt lat="44.5803033" lon="7.971535"><ele>466.0</ele><time>2026-04-25T14:47:48.098Z</time></trkpt><trkpt lat="44.58022" lon="7.9716733"><ele>466.0</ele><time>2026-04-25T14:47:49.098Z</time></trkpt><trkpt lat="44.5801533" lon="7.9718267"><ele>460.5</ele><time>2026-04-25T14:47:50.098Z</time></trkpt><trkpt lat="44.58012" lon="7.9719983"><ele>455.0</ele><time>2026-04-25T14:47:51.098Z</time></trkpt><trkpt lat="44.5801183" lon="7.97217"><ele>449.5</ele><time>2026-04-25T14:47:52.098Z</time></trkpt><trkpt lat="44.5801417" lon="7.9723567"><ele>444.0</ele><time>2026-04-25T14:47:53.098Z</time></trkpt><trkpt lat="44.5801833" lon="7.9725433"><ele>441.75</ele><time>2026-04-25T14:47:54.098Z</time></trkpt><trkpt lat="44.58023" lon="7.9727233"><ele>439.5</ele><time>2026-04-25T14:47:55.098Z</time></trkpt><trkpt lat="44.5802833" lon="7.9729167"><ele>437.25</ele><time>2026-04-25T14:47:56.098Z</time></trkpt><trkpt lat="44.5803333" lon="7.9730933"><ele>435.0</ele><time>2026-04-25T14:47:57.098Z</time></trkpt><trkpt lat="44.5803933" lon="7.9732783"><ele>438.33333333333337</ele><time>2026-04-25T14:47:58.098Z</time></trkpt><trkpt lat="44.580455" lon="7.97348"><ele>441.6666666666667</ele><time>2026-04-25T14:47:59.098Z</time></trkpt><trkpt lat="44.5805317" lon="7.9736717"><ele>445.0</ele><time>2026-04-25T14:48:00.098Z</time></trkpt><trkpt lat="44.5806133" lon="7.97386"><ele>445.0</ele><time>2026-04-25T14:48:01.098Z</time></trkpt><trkpt lat="44.580695" lon="7.9740467"><ele>445.0</ele><time>2026-04-25T14:48:02.098Z</time></trkpt><trkpt lat="44.5807867" lon="7.9742383"><ele>445.0</ele><time>2026-04-25T14:48:03.098Z</time></trkpt><trkpt lat="44.580865" lon="7.97443"><ele>441.6666666666667</ele><time>2026-04-25T14:48:04.098Z</time></trkpt><trkpt lat="44.58094" lon="7.9746167"><ele>438.33333333333337</ele><time>2026-04-25T14:48:05.098Z</time></trkpt><trkpt lat="44.58102" lon="7.9748167"><ele>435.0</ele><time>2026-04-25T14:48:06.098Z</time></trkpt><trkpt lat="44.5810967" lon="7.97501"><ele>435.33333333333337</ele><time>2026-04-25T14:48:07.098Z</time></trkpt><trkpt lat="44.5811867" lon="7.9752"><ele>435.6666666666667</ele><time>2026-04-25T14:48:08.098Z</time></trkpt><trkpt lat="44.581275" lon="7.97539"><ele>436.0</ele><time>2026-04-25T14:48:09.098Z</time></trkpt><trkpt lat="44.5813617" lon="7.9755667"><ele>436.0</ele><time>2026-04-25T14:48:10.098Z</time></trkpt><trkpt lat="44.5814583" lon="7.9757233"><ele>436.0</ele><time>2026-04-25T14:48:11.098Z</time></trkpt><trkpt lat="44.5815683" lon="7.9758617"><ele>436.0</ele><time>2026-04-25T14:48:12.098Z</time></trkpt><trkpt lat="44.58169" lon="7.97597"><ele>436.0</ele><time>2026-04-25T14:48:13.098Z</time></trkpt><trkpt lat="44.5818067" lon="7.9760533"><ele>435.5</ele><time>2026-04-25T14:48:14.098Z</time></trkpt><trkpt lat="44.5819283" lon="7.976125"><ele>435.0</ele><time>2026-04-25T14:48:15.098Z</time></trkpt><trkpt lat="44.5820417" lon="7.976215"><ele>434.5</ele><time>2026-04-25T14:48:16.098Z</time></trkpt><trkpt lat="44.5821333" lon="7.9763183"><ele>434.0</ele><time>2026-04-25T14:48:17.098Z</time></trkpt><trkpt lat="44.582205" lon="7.976455"><ele>434.0</ele><time>2026-04-25T14:48:18.098Z</time></trkpt><trkpt lat="44.5822433" lon="7.9766017"><ele>434.0</ele><time>2026-04-25T14:48:19.098Z</time></trkpt><trkpt lat="44.58225" lon="7.9767367"><ele>434.0</ele><time>2026-04-25T14:48:20.098Z</time></trkpt><trkpt lat="44.5822133" lon="7.97689"><ele>434.0</ele><time>2026-04-25T14:48:21.098Z</time></trkpt><trkpt lat="44.5821583" lon="7.977015"><ele>434.0</ele><time>2026-04-25T14:48:22.098Z</time></trkpt><trkpt lat="44.5820717" lon="7.9771"><ele>433.75</ele><time>2026-04-25T14:48:23.098Z</time></trkpt><trkpt lat="44.5819667" lon="7.977185"><ele>433.5</ele><time>2026-04-25T14:48:24.098Z</time></trkpt><trkpt lat="44.5818733" lon="7.9772883"><ele>433.25</ele><time>2026-04-25T14:48:25.098Z</time></trkpt><trkpt lat="44.5818017" lon="7.97744"><ele>433.0</ele><time>2026-04-25T14:48:26.098Z</time></trkpt><trkpt lat="44.581755" lon="7.9776033"><ele>433.0</ele><time>2026-04-25T14:48:27.098Z</time></trkpt><trkpt lat="44.5817483" lon="7.9777767"><ele>433.0</ele><time>2026-04-25T14:48:28.098Z</time></trkpt><trkpt lat="44.5817617" lon="7.977955"><ele>433.0</ele><time>2026-04-25T14:48:29.098Z</time></trkpt><trkpt lat="44.581765" lon="7.9781483"><ele>433.0</ele><time>2026-04-25T14:48:30.098Z</time></trkpt><trkpt lat="44.5817567" lon="7.9783567"><ele>433.5</ele><time>2026-04-25T14:48:31.098Z</time></trkpt><trkpt lat="44.5817583" lon="7.9785617"><ele>434.0</ele><time>2026-04-25T14:48:32.098Z</time></trkpt><trkpt lat="44.5817667" lon="7.9787567"><ele>434.5</ele><time>2026-04-25T14:48:33.098Z</time></trkpt><trkpt lat="44.581775" lon="7.97895"><ele>435.0</ele><time>2026-04-25T14:48:34.098Z</time></trkpt><trkpt lat="44.5817733" lon="7.9791517"><ele>435.75</ele><time>2026-04-25T14:48:35.098Z</time></trkpt><trkpt lat="44.581765" lon="7.9793533"><ele>436.5</ele><time>2026-04-25T14:48:36.098Z</time></trkpt><trkpt lat="44.5817533" lon="7.97955"><ele>437.25</ele><time>2026-04-25T14:48:37.098Z</time></trkpt><trkpt lat="44.58173" lon="7.9797617"><ele>438.0</ele><time>2026-04-25T14:48:38.098Z</time></trkpt><trkpt lat="44.581705" lon="7.9799683"><ele>440.25</ele><time>2026-04-25T14:48:39.098Z</time></trkpt><trkpt lat="44.5816667" lon="7.980165"><ele>442.5</ele><time>2026-04-25T14:48:40.098Z</time></trkpt><trkpt lat="44.5816067" lon="7.9803467"><ele>444.75</ele><time>2026-04-25T14:48:41.098Z</time></trkpt><trkpt lat="44.5815317" lon="7.9805083"><ele>447.0</ele><time>2026-04-25T14:48:42.098Z</time></trkpt><trkpt lat="44.5814233" lon="7.9806283"><ele>447.0</ele><time>2026-04-25T14:48:43.098Z</time></trkpt><trkpt lat="44.5813033" lon="7.9807233"><ele>447.0</ele><time>2026-04-25T14:48:44.098Z</time></trkpt><trkpt lat="44.5811783" lon="7.9808367"><ele>447.0</ele><time>2026-04-25T14:48:45.098Z</time></trkpt><trkpt lat="44.5810667" lon="7.98097"><ele>447.0</ele><time>2026-04-25T14:48:46.098Z</time></trkpt><trkpt lat="44.5809783" lon="7.98112"><ele>449.0</ele><time>2026-04-25T14:48:47.098Z</time></trkpt><trkpt lat="44.580885" lon="7.9812967"><ele>451.0</ele><time>2026-04-25T14:48:48.098Z</time></trkpt><trkpt lat="44.580795" lon="7.9814667"><ele>453.0</ele><time>2026-04-25T14:48:49.098Z</time></trkpt><trkpt lat="44.5807083" lon="7.9816267"><ele>453.0</ele><time>2026-04-25T14:48:50.098Z</time></trkpt><trkpt lat="44.5806083" lon="7.981775"><ele>453.0</ele><time>2026-04-25T14:48:51.098Z</time></trkpt><trkpt lat="44.5805017" lon="7.9819017"><ele>453.0</ele><time>2026-04-25T14:48:52.098Z</time></trkpt><trkpt lat="44.5803817" lon="7.98201"><ele>453.0</ele><time>2026-04-25T14:48:53.098Z</time></trkpt><trkpt lat="44.5802467" lon="7.9820983"><ele>453.0</ele><time>2026-04-25T14:48:54.098Z</time></trkpt><trkpt lat="44.5801017" lon="7.98217"><ele>453.0</ele><time>2026-04-25T14:48:55.098Z</time></trkpt><trkpt lat="44.5799467" lon="7.9822433"><ele>453.0</ele><time>2026-04-25T14:48:56.098Z</time></trkpt><trkpt lat="44.579795" lon="7.9822917"><ele>453.0</ele><time>2026-04-25T14:48:57.098Z</time></trkpt><trkpt lat="44.5796367" lon="7.982315"><ele>453.0</ele><time>2026-04-25T14:48:58.098Z</time></trkpt><trkpt lat="44.5794833" lon="7.9823033"><ele>453.0</ele><time>2026-04-25T14:48:59.098Z</time></trkpt><trkpt lat="44.5793317" lon="7.9822683"><ele>454.33333333333337</ele><time>2026-04-25T14:49:00.098Z</time></trkpt><trkpt lat="44.5791667" lon="7.9822133"><ele>455.6666666666667</ele><time>2026-04-25T14:49:01.098Z</time></trkpt><trkpt lat="44.57901" lon="7.9821283"><ele>457.0</ele><time>2026-04-25T14:49:02.098Z</time></trkpt><trkpt lat="44.578865" lon="7.9820267"><ele>457.0</ele><time>2026-04-25T14:49:03.098Z</time></trkpt><trkpt lat="44.5787267" lon="7.98192"><ele>457.0</ele><time>2026-04-25T14:49:04.098Z</time></trkpt><trkpt lat="44.5785983" lon="7.9818117"><ele>457.0</ele><time>2026-04-25T14:49:05.098Z</time></trkpt><trkpt lat="44.578465" lon="7.9817067"><ele>457.0</ele><time>2026-04-25T14:49:06.098Z</time></trkpt><trkpt lat="44.57833" lon="7.98161"><ele>457.0</ele><time>2026-04-25T14:49:07.098Z</time></trkpt><trkpt lat="44.5781933" lon="7.9815117"><ele>457.0</ele><time>2026-04-25T14:49:08.098Z</time></trkpt><trkpt lat="44.5780617" lon="7.9814367"><ele>457.0</ele><time>2026-04-25T14:49:09.098Z</time></trkpt><trkpt lat="44.57794" lon="7.981355"><ele>455.25</ele><time>2026-04-25T14:49:10.098Z</time></trkpt><trkpt lat="44.5778283" lon="7.9812867"><ele>453.5</ele><time>2026-04-25T14:49:11.098Z</time></trkpt><trkpt lat="44.57771" lon="7.9812617"><ele>451.75</ele><time>2026-04-25T14:49:12.098Z</time></trkpt><trkpt lat="44.5775817" lon="7.9812733"><ele>450.0</ele><time>2026-04-25T14:49:13.098Z</time></trkpt><trkpt lat="44.5774333" lon="7.981325"><ele>450.0</ele><time>2026-04-25T14:49:14.098Z</time></trkpt><trkpt lat="44.5772683" lon="7.9813967"><ele>450.0</ele><time>2026-04-25T14:49:15.098Z</time></trkpt><trkpt lat="44.5771083" lon="7.98146"><ele>450.0</ele><time>2026-04-25T14:49:16.098Z</time></trkpt><trkpt lat="44.5769483" lon="7.9814983"><ele>450.25</ele><time>2026-04-25T14:49:17.098Z</time></trkpt><trkpt lat="44.5767983" lon="7.9815683"><ele>450.5</ele><time>2026-04-25T14:49:18.098Z</time></trkpt><trkpt lat="44.5766583" lon="7.981635"><ele>450.75</ele><time>2026-04-25T14:49:19.098Z</time></trkpt><trkpt lat="44.5765267" lon="7.9816917"><ele>451.0</ele><time>2026-04-25T14:49:20.098Z</time></trkpt><trkpt lat="44.5763967" lon="7.9817817"><ele>448.6666666666667</ele><time>2026-04-25T14:49:21.098Z</time></trkpt><trkpt lat="44.5762667" lon="7.9818933"><ele>446.33333333333337</ele><time>2026-04-25T14:49:22.098Z</time></trkpt><trkpt lat="44.5761533" lon="7.98203"><ele>444.0</ele><time>2026-04-25T14:49:23.098Z</time></trkpt><trkpt lat="44.5760367" lon="7.98219"><ele>443.5</ele><time>2026-04-25T14:49:24.098Z</time></trkpt><trkpt lat="44.5759267" lon="7.9823433"><ele>443.0</ele><time>2026-04-25T14:49:25.098Z</time></trkpt><trkpt lat="44.5758183" lon="7.9824817"><ele>442.5</ele><time>2026-04-25T14:49:26.098Z</time></trkpt><trkpt lat="44.5757283" lon="7.9826267"><ele>442.0</ele><time>2026-04-25T14:49:27.098Z</time></trkpt><trkpt lat="44.575645" lon="7.9827767"><ele>442.0</ele><time>2026-04-25T14:49:28.098Z</time></trkpt><trkpt lat="44.57557" lon="7.9829433"><ele>442.0</ele><time>2026-04-25T14:49:29.098Z</time></trkpt><trkpt lat="44.5755117" lon="7.98315"><ele>442.0</ele><time>2026-04-25T14:49:30.098Z</time></trkpt><trkpt lat="44.57546" lon="7.9833667"><ele>441.0</ele><time>2026-04-25T14:49:31.098Z</time></trkpt><trkpt lat="44.5754133" lon="7.9835817"><ele>440.0</ele><time>2026-04-25T14:49:32.098Z</time></trkpt><trkpt lat="44.575355" lon="7.9837833"><ele>439.0</ele><time>2026-04-25T14:49:33.098Z</time></trkpt><trkpt lat="44.575285" lon="7.9839633"><ele>440.5</ele><time>2026-04-25T14:49:34.098Z</time></trkpt><trkpt lat="44.5751933" lon="7.98412"><ele>442.0</ele><time>2026-04-25T14:49:35.098Z</time></trkpt><trkpt lat="44.5750783" lon="7.9842433"><ele>443.5</ele><time>2026-04-25T14:49:36.098Z</time></trkpt><trkpt lat="44.574955" lon="7.9843483"><ele>445.0</ele><time>2026-04-25T14:49:37.098Z</time></trkpt><trkpt lat="44.5748283" lon="7.9844667"><ele>444.75</ele><time>2026-04-25T14:49:38.098Z</time></trkpt><trkpt lat="44.574715" lon="7.98459"><ele>444.5</ele><time>2026-04-25T14:49:39.098Z</time></trkpt><trkpt lat="44.5746267" lon="7.9847483"><ele>444.25</ele><time>2026-04-25T14:49:40.098Z</time></trkpt><trkpt lat="44.5745817" lon="7.9849417"><ele>444.0</ele><time>2026-04-25T14:49:41.098Z</time></trkpt><trkpt lat="44.574555" lon="7.9851433"><ele>444.0</ele><time>2026-04-25T14:49:42.098Z</time></trkpt><trkpt lat="44.5745333" lon="7.985355"><ele>444.0</ele><time>2026-04-25T14:49:43.098Z</time></trkpt><trkpt lat="44.57451" lon="7.9855683"><ele>444.0</ele><time>2026-04-25T14:49:44.098Z</time></trkpt><trkpt lat="44.5744817" lon="7.9857767"><ele>452.66666666666663</ele><time>2026-04-25T14:49:45.098Z</time></trkpt><trkpt lat="44.5744467" lon="7.9859917"><ele>461.3333333333333</ele><time>2026-04-25T14:49:46.098Z</time></trkpt><trkpt lat="44.5743983" lon="7.9862067"><ele>470.0</ele><time>2026-04-25T14:49:47.098Z</time></trkpt><trkpt lat="44.57435" lon="7.98641"><ele>470.0</ele><time>2026-04-25T14:49:48.098Z</time></trkpt><trkpt lat="44.5742967" lon="7.9866283"><ele>470.0</ele><time>2026-04-25T14:49:49.098Z</time></trkpt><trkpt lat="44.574255" lon="7.98684"><ele>470.0</ele><time>2026-04-25T14:49:50.098Z</time></trkpt><trkpt lat="44.5742333" lon="7.9870683"><ele>470.0</ele><time>2026-04-25T14:49:51.098Z</time></trkpt><trkpt lat="44.57425" lon="7.9873083"><ele>470.0</ele><time>2026-04-25T14:49:52.098Z</time></trkpt><trkpt lat="44.5742833" lon="7.9875533"><ele>470.0</ele><time>2026-04-25T14:49:53.098Z</time></trkpt><trkpt lat="44.5743283" lon="7.9877883"><ele>470.66666666666663</ele><time>2026-04-25T14:49:54.098Z</time></trkpt><trkpt lat="44.5743733" lon="7.9880167"><ele>471.33333333333337</ele><time>2026-04-25T14:49:55.098Z</time></trkpt><trkpt lat="44.5744167" lon="7.9882217"><ele>472.0</ele><time>2026-04-25T14:49:56.098Z</time></trkpt><trkpt lat="44.5744567" lon="7.9884133"><ele>472.25</ele><time>2026-04-25T14:49:57.098Z</time></trkpt><trkpt lat="44.5744783" lon="7.98862"><ele>472.5</ele><time>2026-04-25T14:49:58.098Z</time></trkpt><trkpt lat="44.5744667" lon="7.988825"><ele>472.75</ele><time>2026-04-25T14:49:59.098Z</time></trkpt><trkpt lat="44.5744317" lon="7.9890233"><ele>473.0</ele><time>2026-04-25T14:50:00.098Z</time></trkpt><trkpt lat="44.5743567" lon="7.98924"><ele>474.66666666666663</ele><time>2026-04-25T14:50:01.098Z</time></trkpt><trkpt lat="44.5742583" lon="7.989445"><ele>476.33333333333337</ele><time>2026-04-25T14:50:02.098Z</time></trkpt><trkpt lat="44.5741333" lon="7.98965"><ele>478.0</ele><time>2026-04-25T14:50:03.098Z</time></trkpt><trkpt lat="44.5740033" lon="7.9898383"><ele>478.0</ele><time>2026-04-25T14:50:04.098Z</time></trkpt><trkpt lat="44.5738683" lon="7.9900017"><ele>478.0</ele><time>2026-04-25T14:50:05.098Z</time></trkpt><trkpt lat="44.57373" lon="7.9901683"><ele>478.0</ele><time>2026-04-25T14:50:06.098Z</time></trkpt><trkpt lat="44.5735867" lon="7.99032"><ele>480.0</ele><time>2026-04-25T14:50:07.098Z</time></trkpt><trkpt lat="44.5734467" lon="7.9904667"><ele>482.0</ele><time>2026-04-25T14:50:08.098Z</time></trkpt><trkpt lat="44.57331" lon="7.99061"><ele>484.0</ele><time>2026-04-25T14:50:09.098Z</time></trkpt><trkpt lat="44.5731817" lon="7.99074"><ele>484.6666666666667</ele><time>2026-04-25T14:50:10.098Z</time></trkpt><trkpt lat="44.5730383" lon="7.9908767"><ele>485.33333333333337</ele><time>2026-04-25T14:50:11.098Z</time></trkpt><trkpt lat="44.5729117" lon="7.991015"><ele>486.0</ele><time>2026-04-25T14:50:12.098Z</time></trkpt><trkpt lat="44.572805" lon="7.991175"><ele>486.0</ele><time>2026-04-25T14:50:13.098Z</time></trkpt><trkpt lat="44.5727233" lon="7.9913583"><ele>486.0</ele><time>2026-04-25T14:50:14.098Z</time></trkpt><trkpt lat="44.5726567" lon="7.9915567"><ele>486.0</ele><time>2026-04-25T14:50:15.098Z</time></trkpt><trkpt lat="44.572585" lon="7.99176"><ele>490.0</ele><time>2026-04-25T14:50:16.098Z</time></trkpt><trkpt lat="44.572515" lon="7.9919567"><ele>494.0</ele><time>2026-04-25T14:50:17.099Z</time></trkpt><trkpt lat="44.5724333" lon="7.992135"><ele>498.0</ele><time>2026-04-25T14:50:18.098Z</time></trkpt><trkpt lat="44.5723283" lon="7.9923133"><ele>498.0</ele><time>2026-04-25T14:50:19.098Z</time></trkpt><trkpt lat="44.5721883" lon="7.992455"><ele>498.0</ele><time>2026-04-25T14:50:20.098Z</time></trkpt><trkpt lat="44.5720433" lon="7.9925683"><ele>498.0</ele><time>2026-04-25T14:50:21.098Z</time></trkpt><trkpt lat="44.571905" lon="7.9926783"><ele>497.25</ele><time>2026-04-25T14:50:22.098Z</time></trkpt><trkpt lat="44.5717767" lon="7.9928"><ele>496.5</ele><time>2026-04-25T14:50:23.098Z</time></trkpt><trkpt lat="44.5716733" lon="7.992945"><ele>495.75</ele><time>2026-04-25T14:50:24.098Z</time></trkpt><trkpt lat="44.571595" lon="7.9931067"><ele>495.0</ele><time>2026-04-25T14:50:25.098Z</time></trkpt><trkpt lat="44.5715483" lon="7.9932767"><ele>493.5</ele><time>2026-04-25T14:50:26.098Z</time></trkpt><trkpt lat="44.5715367" lon="7.99345"><ele>492.0</ele><time>2026-04-25T14:50:27.098Z</time></trkpt><trkpt lat="44.5715617" lon="7.9936167"><ele>490.5</ele><time>2026-04-25T14:50:28.098Z</time></trkpt><trkpt lat="44.5716367" lon="7.9937483"><ele>489.0</ele><time>2026-04-25T14:50:29.098Z</time></trkpt><trkpt lat="44.5717467" lon="7.9938483"><ele>489.0</ele><time>2026-04-25T14:50:30.098Z</time></trkpt><trkpt lat="44.5718683" lon="7.9939417"><ele>489.0</ele><time>2026-04-25T14:50:31.098Z</time></trkpt><trkpt lat="44.572" lon="7.9940467"><ele>489.0</ele><time>2026-04-25T14:50:32.098Z</time></trkpt><trkpt lat="44.5721283" lon="7.9941683"><ele>489.0</ele><time>2026-04-25T14:50:33.098Z</time></trkpt><trkpt lat="44.5722533" lon="7.9943033"><ele>491.0</ele><time>2026-04-25T14:50:34.098Z</time></trkpt><trkpt lat="44.57235" lon="7.9944667"><ele>493.0</ele><time>2026-04-25T14:50:35.098Z</time></trkpt><trkpt lat="44.5724317" lon="7.9946533"><ele>495.0</ele><time>2026-04-25T14:50:36.098Z</time></trkpt><trkpt lat="44.5724933" lon="7.9948717"><ele>496.0</ele><time>2026-04-25T14:50:37.098Z</time></trkpt><trkpt lat="44.572545" lon="7.9950933"><ele>497.0</ele><time>2026-04-25T14:50:38.098Z</time></trkpt><trkpt lat="44.5726033" lon="7.995315"><ele>498.0</ele><time>2026-04-25T14:50:39.098Z</time></trkpt><trkpt lat="44.5726767" lon="7.995515"><ele>498.0</ele><time>2026-04-25T14:50:40.098Z</time></trkpt><trkpt lat="44.5727767" lon="7.9957"><ele>498.0</ele><time>2026-04-25T14:50:41.098Z</time></trkpt><trkpt lat="44.5729" lon="7.9958533"><ele>498.0</ele><time>2026-04-25T14:50:42.098Z</time></trkpt><trkpt lat="44.57302" lon="7.9959983"><ele>499.5</ele><time>2026-04-25T14:50:43.098Z</time></trkpt><trkpt lat="44.5731333" lon="7.9961267"><ele>501.0</ele><time>2026-04-25T14:50:44.098Z</time></trkpt><trkpt lat="44.5732433" lon="7.9962517"><ele>502.5</ele><time>2026-04-25T14:50:45.098Z</time></trkpt><trkpt lat="44.573345" lon="7.9963533"><ele>504.0</ele><time>2026-04-25T14:50:46.098Z</time></trkpt><trkpt lat="44.5734417" lon="7.9964733"><ele>504.0</ele><time>2026-04-25T14:50:47.098Z</time></trkpt><trkpt lat="44.5735317" lon="7.9965867"><ele>504.0</ele><time>2026-04-25T14:50:48.098Z</time></trkpt><trkpt lat="44.5736267" lon="7.9967117"><ele>504.0</ele><time>2026-04-25T14:50:49.098Z</time></trkpt><trkpt lat="44.5737167" lon="7.9968467"><ele>504.0</ele><time>2026-04-25T14:50:50.098Z</time></trkpt><trkpt lat="44.5738033" lon="7.9969767"><ele>503.25</ele><time>2026-04-25T14:50:51.098Z</time></trkpt><trkpt lat="44.5738867" lon="7.99713"><ele>502.5</ele><time>2026-04-25T14:50:52.098Z</time></trkpt><trkpt lat="44.5739717" lon="7.9972967"><ele>501.75</ele><time>2026-04-25T14:50:53.098Z</time></trkpt><trkpt lat="44.57404" lon="7.9974817"><ele>501.0</ele><time>2026-04-25T14:50:54.098Z</time></trkpt><trkpt lat="44.5741017" lon="7.9976717"><ele>502.5</ele><time>2026-04-25T14:50:55.098Z</time></trkpt><trkpt lat="44.5741417" lon="7.9978767"><ele>504.0</ele><time>2026-04-25T14:50:56.098Z</time></trkpt><trkpt lat="44.5741717" lon="7.99808"><ele>505.5</ele><time>2026-04-25T14:50:57.098Z</time></trkpt><trkpt lat="44.5742067" lon="7.99827"><ele>507.0</ele><time>2026-04-25T14:50:58.098Z</time></trkpt><trkpt lat="44.5742633" lon="7.998455"><ele>506.5</ele><time>2026-04-25T14:50:59.098Z</time></trkpt><trkpt lat="44.57435" lon="7.9986083"><ele>506.0</ele><time>2026-04-25T14:51:00.098Z</time></trkpt><trkpt lat="44.5744633" lon="7.9987333"><ele>505.5</ele><time>2026-04-25T14:51:01.098Z</time></trkpt><trkpt lat="44.5745883" lon="7.998855"><ele>505.0</ele><time>2026-04-25T14:51:02.098Z</time></trkpt><trkpt lat="44.5747167" lon="7.9989817"><ele>505.0</ele><time>2026-04-25T14:51:03.098Z</time></trkpt><trkpt lat="44.5748483" lon="7.9991117"><ele>505.0</ele><time>2026-04-25T14:51:04.098Z</time></trkpt><trkpt lat="44.57497" lon="7.9992433"><ele>505.0</ele><time>2026-04-25T14:51:05.098Z</time></trkpt><trkpt lat="44.57509" lon="7.9993683"><ele>506.25</ele><time>2026-04-25T14:51:06.098Z</time></trkpt><trkpt lat="44.575205" lon="7.9994917"><ele>507.5</ele><time>2026-04-25T14:51:07.098Z</time></trkpt><trkpt lat="44.575315" lon="7.9996217"><ele>508.75</ele><time>2026-04-25T14:51:08.098Z</time></trkpt><trkpt lat="44.575405" lon="7.9997567"><ele>510.0</ele><time>2026-04-25T14:51:09.098Z</time></trkpt><trkpt lat="44.5754767" lon="7.9998967"><ele>506.0</ele><time>2026-04-25T14:51:10.098Z</time></trkpt><trkpt lat="44.5755417" lon="8.000045"><ele>502.0</ele><time>2026-04-25T14:51:11.098Z</time></trkpt><trkpt lat="44.5755817" lon="8.0002217"><ele>498.0</ele><time>2026-04-25T14:51:12.098Z</time></trkpt><trkpt lat="44.5756" lon="8.0004267"><ele>494.0</ele><time>2026-04-25T14:51:13.098Z</time></trkpt><trkpt lat="44.5755983" lon="8.000645"><ele>495.25</ele><time>2026-04-25T14:51:14.098Z</time></trkpt><trkpt lat="44.5756067" lon="8.0008483"><ele>496.5</ele><time>2026-04-25T14:51:15.098Z</time></trkpt><trkpt lat="44.5756283" lon="8.001045"><ele>497.75</ele><time>2026-04-25T14:51:16.098Z</time></trkpt><trkpt lat="44.575665" lon="8.0012483"><ele>499.0</ele><time>2026-04-25T14:51:17.098Z</time></trkpt><trkpt lat="44.5757383" lon="8.001445"><ele>499.0</ele><time>2026-04-25T14:51:18.098Z</time></trkpt><trkpt lat="44.5758467" lon="8.0016283"><ele>499.0</ele><time>2026-04-25T14:51:19.098Z</time></trkpt><trkpt lat="44.575965" lon="8.0017983"><ele>499.0</ele><time>2026-04-25T14:51:20.098Z</time></trkpt><trkpt lat="44.5760783" lon="8.0019667"><ele>501.0</ele><time>2026-04-25T14:51:21.098Z</time></trkpt><trkpt lat="44.576185" lon="8.0021317"><ele>503.0</ele><time>2026-04-25T14:51:22.098Z</time></trkpt><trkpt lat="44.5763017" lon="8.0023033"><ele>505.0</ele><time>2026-04-25T14:51:23.098Z</time></trkpt><trkpt lat="44.5764067" lon="8.0024783"><ele>503.6666666666667</ele><time>2026-04-25T14:51:24.098Z</time></trkpt><trkpt lat="44.5765133" lon="8.0026517"><ele>502.33333333333337</ele><time>2026-04-25T14:51:25.098Z</time></trkpt><trkpt lat="44.57662" lon="8.0028317"><ele>501.0</ele><time>2026-04-25T14:51:26.099Z</time></trkpt><trkpt lat="44.5767333" lon="8.00302"><ele>501.0</ele><time>2026-04-25T14:51:27.098Z</time></trkpt><trkpt lat="44.5768467" lon="8.0032033"><ele>501.0</ele><time>2026-04-25T14:51:28.098Z</time></trkpt><trkpt lat="44.5769683" lon="8.003375"><ele>501.0</ele><time>2026-04-25T14:51:29.098Z</time></trkpt><trkpt lat="44.5770833" lon="8.0035417"><ele>500.25</ele><time>2026-04-25T14:51:30.098Z</time></trkpt><trkpt lat="44.577195" lon="8.0037"><ele>499.5</ele><time>2026-04-25T14:51:31.098Z</time></trkpt><trkpt lat="44.5773083" lon="8.00383"><ele>498.75</ele><time>2026-04-25T14:51:32.098Z</time></trkpt><trkpt lat="44.57741" lon="8.00396"><ele>498.0</ele><time>2026-04-25T14:51:33.098Z</time></trkpt><trkpt lat="44.57751" lon="8.0040917"><ele>497.0</ele><time>2026-04-25T14:51:34.099Z</time></trkpt><trkpt lat="44.5776167" lon="8.0042317"><ele>496.0</ele><time>2026-04-25T14:51:35.098Z</time></trkpt><trkpt lat="44.57772" lon="8.004365"><ele>495.0</ele><time>2026-04-25T14:51:36.098Z</time></trkpt><trkpt lat="44.57781" lon="8.004495"><ele>494.0</ele><time>2026-04-25T14:51:37.098Z</time></trkpt><trkpt lat="44.5779033" lon="8.00463"><ele>494.0</ele><time>2026-04-25T14:51:38.098Z</time></trkpt><trkpt lat="44.578" lon="8.0047733"><ele>494.0</ele><time>2026-04-25T14:51:39.098Z</time></trkpt><trkpt lat="44.5780983" lon="8.0049533"><ele>494.0</ele><time>2026-04-25T14:51:40.098Z</time></trkpt><trkpt lat="44.5782083" lon="8.0051517"><ele>496.66666666666663</ele><time>2026-04-25T14:51:41.098Z</time></trkpt><trkpt lat="44.5783083" lon="8.0053967"><ele>499.33333333333337</ele><time>2026-04-25T14:51:42.098Z</time></trkpt><trkpt lat="44.5783967" lon="8.005625"><ele>502.0</ele><time>2026-04-25T14:51:43.098Z</time></trkpt><trkpt lat="44.57848" lon="8.005855"><ele>501.33333333333337</ele><time>2026-04-25T14:51:44.098Z</time></trkpt><trkpt lat="44.578555" lon="8.0060717"><ele>500.66666666666663</ele><time>2026-04-25T14:51:45.098Z</time></trkpt><trkpt lat="44.578635" lon="8.0062583"><ele>500.0</ele><time>2026-04-25T14:51:46.098Z</time></trkpt><trkpt lat="44.578695" lon="8.0064133"><ele>500.0</ele><time>2026-04-25T14:51:47.098Z</time></trkpt><trkpt lat="44.578745" lon="8.0065717"><ele>500.0</ele><time>2026-04-25T14:51:48.098Z</time></trkpt><trkpt lat="44.578775" lon="8.0067433"><ele>500.0</ele><time>2026-04-25T14:51:49.098Z</time></trkpt><trkpt lat="44.57878" lon="8.006925"><ele>500.0</ele><time>2026-04-25T14:51:50.098Z</time></trkpt><trkpt lat="44.5787583" lon="8.0071067"><ele>502.25</ele><time>2026-04-25T14:51:51.098Z</time></trkpt><trkpt lat="44.5787083" lon="8.0072833"><ele>504.5</ele><time>2026-04-25T14:51:52.098Z</time></trkpt><trkpt lat="44.5786183" lon="8.0074667"><ele>506.75</ele><time>2026-04-25T14:51:53.098Z</time></trkpt><trkpt lat="44.5785167" lon="8.0076267"><ele>509.0</ele><time>2026-04-25T14:51:54.098Z</time></trkpt><trkpt lat="44.5783983" lon="8.0077733"><ele>510.5</ele><time>2026-04-25T14:51:55.098Z</time></trkpt><trkpt lat="44.5782867" lon="8.0079"><ele>512.0</ele><time>2026-04-25T14:51:56.098Z</time></trkpt><trkpt lat="44.578195" lon="8.0080233"><ele>513.5</ele><time>2026-04-25T14:51:57.098Z</time></trkpt><trkpt lat="44.5781233" lon="8.008125"><ele>515.0</ele><time>2026-04-25T14:51:58.098Z</time></trkpt><trkpt lat="44.578075" lon="8.0082317"><ele>517.0</ele><time>2026-04-25T14:51:59.098Z</time></trkpt><trkpt lat="44.57807" lon="8.00835"><ele>519.0</ele><time>2026-04-25T14:52:00.098Z</time></trkpt><trkpt lat="44.5780933" lon="8.0084933"><ele>521.0</ele><time>2026-04-25T14:52:01.098Z</time></trkpt><trkpt lat="44.578135" lon="8.0086333"><ele>523.0</ele><time>2026-04-25T14:52:02.098Z</time></trkpt><trkpt lat="44.57819" lon="8.00877"><ele>525.0</ele><time>2026-04-25T14:52:03.098Z</time></trkpt><trkpt lat="44.5782483" lon="8.0089317"><ele>525.0</ele><time>2026-04-25T14:52:04.098Z</time></trkpt><trkpt lat="44.57831" lon="8.009115"><ele>525.0</ele><time>2026-04-25T14:52:05.098Z</time></trkpt><trkpt lat="44.5783517" lon="8.0093267"><ele>525.0</ele><time>2026-04-25T14:52:06.098Z</time></trkpt><trkpt lat="44.5783983" lon="8.0095483"><ele>526.3333333333334</ele><time>2026-04-25T14:52:07.098Z</time></trkpt><trkpt lat="44.578445" lon="8.0097817"><ele>527.6666666666667</ele><time>2026-04-25T14:52:08.098Z</time></trkpt><trkpt lat="44.5785033" lon="8.01002"><ele>529.0</ele><time>2026-04-25T14:52:09.098Z</time></trkpt><trkpt lat="44.57855" lon="8.0102483"><ele>530.3333333333334</ele><time>2026-04-25T14:52:10.098Z</time></trkpt><trkpt lat="44.5786" lon="8.01046"><ele>531.6666666666666</ele><time>2026-04-25T14:52:11.098Z</time></trkpt><trkpt lat="44.5786367" lon="8.0106733"><ele>533.0</ele><time>2026-04-25T14:52:12.098Z</time></trkpt><trkpt lat="44.5786733" lon="8.010875"><ele>530.75</ele><time>2026-04-25T14:52:13.098Z</time></trkpt><trkpt lat="44.5787183" lon="8.0110667"><ele>528.5</ele><time>2026-04-25T14:52:14.098Z</time></trkpt><trkpt lat="44.578755" lon="8.011255"><ele>526.25</ele><time>2026-04-25T14:52:15.098Z</time></trkpt><trkpt lat="44.5787667" lon="8.0114533"><ele>524.0</ele><time>2026-04-25T14:52:16.098Z</time></trkpt><trkpt lat="44.5787467" lon="8.011635"><ele>524.5</ele><time>2026-04-25T14:52:17.098Z</time></trkpt><trkpt lat="44.5787117" lon="8.0117967"><ele>525.0</ele><time>2026-04-25T14:52:18.098Z</time></trkpt><trkpt lat="44.5786817" lon="8.0119633"><ele>525.5</ele><time>2026-04-25T14:52:19.098Z</time></trkpt><trkpt lat="44.5786917" lon="8.0121217"><ele>526.0</ele><time>2026-04-25T14:52:20.098Z</time></trkpt><trkpt lat="44.5787267" lon="8.0122733"><ele>526.0</ele><time>2026-04-25T14:52:21.098Z</time></trkpt><trkpt lat="44.5787933" lon="8.0124233"><ele>526.0</ele><time>2026-04-25T14:52:22.098Z</time></trkpt><trkpt lat="44.5788633" lon="8.0125667"><ele>526.0</ele><time>2026-04-25T14:52:23.098Z</time></trkpt><trkpt lat="44.5789367" lon="8.012705"><ele>526.0</ele><time>2026-04-25T14:52:24.098Z</time></trkpt><trkpt lat="44.579005" lon="8.0128383"><ele>528.0</ele><time>2026-04-25T14:52:25.098Z</time></trkpt><trkpt lat="44.5790617" lon="8.0129733"><ele>530.0</ele><time>2026-04-25T14:52:26.098Z</time></trkpt><trkpt lat="44.5791" lon="8.0131117"><ele>532.0</ele><time>2026-04-25T14:52:27.098Z</time></trkpt><trkpt lat="44.5791117" lon="8.0132583"><ele>534.0</ele><time>2026-04-25T14:52:28.098Z</time></trkpt><trkpt lat="44.5790883" lon="8.0134133"><ele>536.0</ele><time>2026-04-25T14:52:29.098Z</time></trkpt><trkpt lat="44.579025" lon="8.013565"><ele>538.75</ele><time>2026-04-25T14:52:30.098Z</time></trkpt><trkpt lat="44.5789317" lon="8.0136967"><ele>541.5</ele><time>2026-04-25T14:52:31.098Z</time></trkpt><trkpt lat="44.5788167" lon="8.0137783"><ele>544.25</ele><time>2026-04-25T14:52:32.098Z</time></trkpt><trkpt lat="44.5786867" lon="8.0138233"><ele>547.0</ele><time>2026-04-25T14:52:33.098Z</time></trkpt><trkpt lat="44.5785467" lon="8.01386"><ele>550.5</ele><time>2026-04-25T14:52:34.098Z</time></trkpt><trkpt lat="44.5784" lon="8.0139017"><ele>554.0</ele><time>2026-04-25T14:52:35.098Z</time></trkpt><trkpt lat="44.578255" lon="8.0139567"><ele>557.5</ele><time>2026-04-25T14:52:36.098Z</time></trkpt><trkpt lat="44.578125" lon="8.0140183"><ele>561.0</ele><time>2026-04-25T14:52:37.098Z</time></trkpt><trkpt lat="44.57798" lon="8.01408"><ele>561.75</ele><time>2026-04-25T14:52:38.098Z</time></trkpt><trkpt lat="44.5778467" lon="8.0141517"><ele>562.5</ele><time>2026-04-25T14:52:39.098Z</time></trkpt><trkpt lat="44.5777183" lon="8.01422"><ele>563.25</ele><time>2026-04-25T14:52:40.098Z</time></trkpt><trkpt lat="44.5775867" lon="8.0142783"><ele>564.0</ele><time>2026-04-25T14:52:41.098Z</time></trkpt><trkpt lat="44.5774767" lon="8.0143283"><ele>564.0</ele><time>2026-04-25T14:52:42.098Z</time></trkpt><trkpt lat="44.5773667" lon="8.0143717"><ele>564.0</ele><time>2026-04-25T14:52:43.098Z</time></trkpt><trkpt lat="44.57726" lon="8.0144283"><ele>564.0</ele><time>2026-04-25T14:52:44.098Z</time></trkpt><trkpt lat="44.5771567" lon="8.0144833"><ele>564.0</ele><time>2026-04-25T14:52:45.098Z</time></trkpt><trkpt lat="44.5770483" lon="8.014535"><ele>566.75</ele><time>2026-04-25T14:52:46.098Z</time></trkpt><trkpt lat="44.5769433" lon="8.0145967"><ele>569.5</ele><time>2026-04-25T14:52:47.098Z</time></trkpt><trkpt lat="44.5768333" lon="8.014665"><ele>572.25</ele><time>2026-04-25T14:52:48.098Z</time></trkpt><trkpt lat="44.576725" lon="8.0147133"><ele>575.0</ele><time>2026-04-25T14:52:49.098Z</time></trkpt><trkpt lat="44.5766217" lon="8.0147567"><ele>575.0</ele><time>2026-04-25T14:52:50.098Z</time></trkpt><trkpt lat="44.576515" lon="8.01481"><ele>575.0</ele><time>2026-04-25T14:52:51.098Z</time></trkpt><trkpt lat="44.5764383" lon="8.0148583"><ele>575.0</ele><time>2026-04-25T14:52:52.098Z</time></trkpt><trkpt lat="44.5763733" lon="8.0148933"><ele>575.0</ele><time>2026-04-25T14:52:53.098Z</time></trkpt><trkpt lat="44.57628" lon="8.014925"><ele>575.0</ele><time>2026-04-25T14:52:55.098Z</time></trkpt><trkpt lat="44.5762867" lon="8.0150317"><ele>575.0</ele><time>2026-04-25T14:52:59.097Z</time></trkpt><trkpt lat="44.5763767" lon="8.015025"><ele>575.0</ele><time>2026-04-25T14:53:01.097Z</time></trkpt><trkpt lat="44.5764333" lon="8.0149817"><ele>575.0</ele><time>2026-04-25T14:53:02.097Z</time></trkpt><trkpt lat="44.57651" lon="8.0149233"><ele>575.0</ele><time>2026-04-25T14:53:03.097Z</time></trkpt><trkpt lat="44.5766083" lon="8.014865"><ele>575.0</ele><time>2026-04-25T14:53:04.097Z</time></trkpt><trkpt lat="44.5767183" lon="8.0147983"><ele>575.0</ele><time>2026-04-25T14:53:05.097Z</time></trkpt><trkpt lat="44.576835" lon="8.01473"><ele>575.0</ele><time>2026-04-25T14:53:06.097Z</time></trkpt><trkpt lat="44.5769533" lon="8.014665"><ele>575.0</ele><time>2026-04-25T14:53:07.097Z</time></trkpt><trkpt lat="44.5770817" lon="8.0145967"><ele>575.0</ele><time>2026-04-25T14:53:08.097Z</time></trkpt><trkpt lat="44.5772183" lon="8.0145167"><ele>575.0</ele><time>2026-04-25T14:53:09.097Z</time></trkpt><trkpt lat="44.5773633" lon="8.014445"><ele>572.25</ele><time>2026-04-25T14:53:10.097Z</time></trkpt><trkpt lat="44.5775067" lon="8.0143583"><ele>569.5</ele><time>2026-04-25T14:53:11.097Z</time></trkpt><trkpt lat="44.5776417" lon="8.014285"><ele>566.75</ele><time>2026-04-25T14:53:12.097Z</time></trkpt><trkpt lat="44.5777717" lon="8.0142133"><ele>564.0</ele><time>2026-04-25T14:53:13.097Z</time></trkpt><trkpt lat="44.5779" lon="8.0141483"><ele>563.25</ele><time>2026-04-25T14:53:14.097Z</time></trkpt><trkpt lat="44.5780333" lon="8.0140867"><ele>562.5</ele><time>2026-04-25T14:53:15.097Z</time></trkpt><trkpt lat="44.57816" lon="8.0140267"><ele>561.75</ele><time>2026-04-25T14:53:16.097Z</time></trkpt><trkpt lat="44.5782833" lon="8.0139783"><ele>561.0</ele><time>2026-04-25T14:53:17.097Z</time></trkpt><trkpt lat="44.5784017" lon="8.0139333"><ele>561.0</ele><time>2026-04-25T14:53:18.097Z</time></trkpt><trkpt lat="44.5785217" lon="8.013905"><ele>561.0</ele><time>2026-04-25T14:53:19.097Z</time></trkpt><trkpt lat="44.578635" lon="8.01387"><ele>561.0</ele><time>2026-04-25T14:53:20.097Z</time></trkpt><trkpt lat="44.57874" lon="8.013835"><ele>561.0</ele><time>2026-04-25T14:53:21.097Z</time></trkpt><trkpt lat="44.5788533" lon="8.0137833"><ele>558.2</ele><time>2026-04-25T14:53:22.097Z</time></trkpt><trkpt lat="44.5789467" lon="8.0137217"><ele>555.4000000000001</ele><time>2026-04-25T14:53:23.097Z</time></trkpt><trkpt lat="44.5790267" lon="8.0136383"><ele>552.6</ele><time>2026-04-25T14:53:24.097Z</time></trkpt><trkpt lat="44.5790783" lon="8.01355"><ele>549.8000000000001</ele><time>2026-04-25T14:53:25.097Z</time></trkpt><trkpt lat="44.5790983" lon="8.01346"><ele>547.0</ele><time>2026-04-25T14:53:26.097Z</time></trkpt><trkpt lat="44.5791233" lon="8.0133067"><ele>547.0</ele><time>2026-04-25T14:53:28.097Z</time></trkpt><trkpt lat="44.5791833" lon="8.01324"><ele>547.0</ele><time>2026-04-25T14:53:30.097Z</time></trkpt><trkpt lat="44.5792917" lon="8.0133233"><ele>547.0</ele><time>2026-04-25T14:53:32.097Z</time></trkpt><trkpt lat="44.5793267" lon="8.0134283"><ele>547.0</ele><time>2026-04-25T14:53:33.097Z</time></trkpt><trkpt lat="44.5793717" lon="8.013565"><ele>547.0</ele><time>2026-04-25T14:53:34.097Z</time></trkpt><trkpt lat="44.5794283" lon="8.0136933"><ele>547.0</ele><time>2026-04-25T14:53:35.097Z</time></trkpt><trkpt lat="44.5794967" lon="8.0138017"><ele>547.0</ele><time>2026-04-25T14:53:36.097Z</time></trkpt><trkpt lat="44.579575" lon="8.013895"><ele>547.0</ele><time>2026-04-25T14:53:37.097Z</time></trkpt><trkpt lat="44.5796583" lon="8.013965"><ele>547.0</ele><time>2026-04-25T14:53:38.097Z</time></trkpt><trkpt lat="44.579755" lon="8.0139983"><ele>547.0</ele><time>2026-04-25T14:53:39.097Z</time></trkpt><trkpt lat="44.5798717" lon="8.0140067"><ele>541.5</ele><time>2026-04-25T14:53:40.097Z</time></trkpt><trkpt lat="44.5799983" lon="8.013995"><ele>536.0</ele><time>2026-04-25T14:53:41.097Z</time></trkpt><trkpt lat="44.5801333" lon="8.013975"><ele>530.5</ele><time>2026-04-25T14:53:42.097Z</time></trkpt><trkpt lat="44.5802883" lon="8.0139817"><ele>525.0</ele><time>2026-04-25T14:53:43.097Z</time></trkpt><trkpt lat="44.5804433" lon="8.0139733"><ele>522.6666666666666</ele><time>2026-04-25T14:53:44.097Z</time></trkpt><trkpt lat="44.5805933" lon="8.0139733"><ele>520.3333333333333</ele><time>2026-04-25T14:53:45.097Z</time></trkpt><trkpt lat="44.5807467" lon="8.013975"><ele>518.0</ele><time>2026-04-25T14:53:46.097Z</time></trkpt><trkpt lat="44.580895" lon="8.0139733"><ele>518.0</ele><time>2026-04-25T14:53:47.097Z</time></trkpt><trkpt lat="44.58104" lon="8.0139817"><ele>518.0</ele><time>2026-04-25T14:53:48.097Z</time></trkpt><trkpt lat="44.581175" lon="8.014"><ele>518.0</ele><time>2026-04-25T14:53:49.097Z</time></trkpt><trkpt lat="44.5813167" lon="8.014025"><ele>518.0</ele><time>2026-04-25T14:53:50.097Z</time></trkpt><trkpt lat="44.58146" lon="8.014065"><ele>517.5</ele><time>2026-04-25T14:53:51.097Z</time></trkpt><trkpt lat="44.5816" lon="8.0141217"><ele>517.0</ele><time>2026-04-25T14:53:52.097Z</time></trkpt><trkpt lat="44.58174" lon="8.014175"><ele>516.5</ele><time>2026-04-25T14:53:53.097Z</time></trkpt><trkpt lat="44.5818817" lon="8.0142067"><ele>516.0</ele><time>2026-04-25T14:53:54.097Z</time></trkpt><trkpt lat="44.582015" lon="8.0142083"><ele>515.5</ele><time>2026-04-25T14:53:55.097Z</time></trkpt><trkpt lat="44.582145" lon="8.014175"><ele>515.0</ele><time>2026-04-25T14:53:56.097Z</time></trkpt><trkpt lat="44.5822767" lon="8.0141033"><ele>514.5</ele><time>2026-04-25T14:53:57.097Z</time></trkpt><trkpt lat="44.58241" lon="8.0139967"><ele>514.0</ele><time>2026-04-25T14:53:58.097Z</time></trkpt><trkpt lat="44.5825467" lon="8.0138767"><ele>514.0</ele><time>2026-04-25T14:53:59.097Z</time></trkpt><trkpt lat="44.582675" lon="8.0137517"><ele>514.0</ele><time>2026-04-25T14:54:00.097Z</time></trkpt><trkpt lat="44.58279" lon="8.013635"><ele>514.0</ele><time>2026-04-25T14:54:01.097Z</time></trkpt><trkpt lat="44.5829017" lon="8.01352"><ele>514.0</ele><time>2026-04-25T14:54:02.097Z</time></trkpt><trkpt lat="44.583015" lon="8.0134"><ele>511.25</ele><time>2026-04-25T14:54:03.097Z</time></trkpt><trkpt lat="44.5831283" lon="8.0132867"><ele>508.5</ele><time>2026-04-25T14:54:04.097Z</time></trkpt><trkpt lat="44.5832467" lon="8.01319"><ele>505.75</ele><time>2026-04-25T14:54:05.097Z</time></trkpt><trkpt lat="44.583365" lon="8.01311"><ele>503.0</ele><time>2026-04-25T14:54:06.097Z</time></trkpt><trkpt lat="44.5834967" lon="8.0130417"><ele>503.0</ele><time>2026-04-25T14:54:07.097Z</time></trkpt><trkpt lat="44.5836367" lon="8.012995"><ele>503.0</ele><time>2026-04-25T14:54:08.097Z</time></trkpt><trkpt lat="44.5837867" lon="8.01296"><ele>503.0</ele><time>2026-04-25T14:54:09.097Z</time></trkpt><trkpt lat="44.5839433" lon="8.01293"><ele>503.3333333333333</ele><time>2026-04-25T14:54:10.097Z</time></trkpt><trkpt lat="44.5841033" lon="8.012905"><ele>503.66666666666663</ele><time>2026-04-25T14:54:11.097Z</time></trkpt><trkpt lat="44.5842617" lon="8.01287"><ele>504.0</ele><time>2026-04-25T14:54:12.097Z</time></trkpt><trkpt lat="44.5844083" lon="8.0128233"><ele>503.5</ele><time>2026-04-25T14:54:13.097Z</time></trkpt><trkpt lat="44.5845483" lon="8.01279"><ele>503.0</ele><time>2026-04-25T14:54:14.097Z</time></trkpt><trkpt lat="44.58467" lon="8.0127583"><ele>502.5</ele><time>2026-04-25T14:54:15.097Z</time></trkpt><trkpt lat="44.5847733" lon="8.0127367"><ele>502.0</ele><time>2026-04-25T14:54:16.097Z</time></trkpt><trkpt lat="44.5848583" lon="8.012715"><ele>502.00000000000006</ele><time>2026-04-25T14:54:17.097Z</time></trkpt><trkpt lat="44.5849333" lon="8.0127033"><ele>502.0</ele><time>2026-04-25T14:54:18.097Z</time></trkpt><trkpt lat="44.5849983" lon="8.0126917"><ele>502.0</ele><time>2026-04-25T14:54:19.097Z</time></trkpt><trkpt lat="44.5851067" lon="8.012675"><ele>502.0</ele><time>2026-04-25T14:54:21.097Z</time></trkpt><trkpt lat="44.5851917" lon="8.01274"><ele>502.00000000000006</ele><time>2026-04-25T14:54:23.097Z</time></trkpt><trkpt lat="44.5852217" lon="8.01283"><ele>502.0</ele><time>2026-04-25T14:54:24.097Z</time></trkpt><trkpt lat="44.585245" lon="8.0129483"><ele>502.0</ele><time>2026-04-25T14:54:25.097Z</time></trkpt><trkpt lat="44.5852567" lon="8.0130917"><ele>502.00000000000006</ele><time>2026-04-25T14:54:26.097Z</time></trkpt><trkpt lat="44.5852733" lon="8.0132383"><ele>502.00000000000006</ele><time>2026-04-25T14:54:27.097Z</time></trkpt><trkpt lat="44.5852833" lon="8.0133883"><ele>502.0</ele><time>2026-04-25T14:54:28.097Z</time></trkpt><trkpt lat="44.5852933" lon="8.0135367"><ele>502.0</ele><time>2026-04-25T14:54:29.097Z</time></trkpt><trkpt lat="44.5853117" lon="8.01368"><ele>503.20000000000005</ele><time>2026-04-25T14:54:30.097Z</time></trkpt><trkpt lat="44.58534" lon="8.0138183"><ele>504.40000000000003</ele><time>2026-04-25T14:54:31.097Z</time></trkpt><trkpt lat="44.5853817" lon="8.0139517"><ele>505.59999999999997</ele><time>2026-04-25T14:54:32.097Z</time></trkpt><trkpt lat="44.585435" lon="8.014075"><ele>506.79999999999995</ele><time>2026-04-25T14:54:33.097Z</time></trkpt><trkpt lat="44.5855" lon="8.0141933"><ele>508.0</ele><time>2026-04-25T14:54:34.097Z</time></trkpt><trkpt lat="44.5855667" lon="8.0143117"><ele>504.0</ele><time>2026-04-25T14:54:35.097Z</time></trkpt><trkpt lat="44.5856317" lon="8.0144267"><ele>499.99999999999994</ele><time>2026-04-25T14:54:36.097Z</time></trkpt><trkpt lat="44.58569" lon="8.01454"><ele>495.99999999999994</ele><time>2026-04-25T14:54:37.097Z</time></trkpt><trkpt lat="44.5857517" lon="8.01465"><ele>492.0</ele><time>2026-04-25T14:54:38.097Z</time></trkpt><trkpt lat="44.585795" lon="8.0147683"><ele>488.0</ele><time>2026-04-25T14:54:39.097Z</time></trkpt><trkpt lat="44.5858283" lon="8.0148883"><ele>488.2</ele><time>2026-04-25T14:54:40.097Z</time></trkpt><trkpt lat="44.58584" lon="8.0150067"><ele>488.4</ele><time>2026-04-25T14:54:41.097Z</time></trkpt><trkpt lat="44.5858317" lon="8.01513"><ele>488.59999999999997</ele><time>2026-04-25T14:54:42.097Z</time></trkpt><trkpt lat="44.5858083" lon="8.0152567"><ele>488.79999999999995</ele><time>2026-04-25T14:54:43.097Z</time></trkpt><trkpt lat="44.585795" lon="8.01538"><ele>489.0</ele><time>2026-04-25T14:54:44.097Z</time></trkpt><trkpt lat="44.585795" lon="8.01552"><ele>489.0</ele><time>2026-04-25T14:54:45.097Z</time></trkpt><trkpt lat="44.5858217" lon="8.01565"><ele>489.0</ele><time>2026-04-25T14:54:46.097Z</time></trkpt><trkpt lat="44.5858717" lon="8.01576"><ele>489.0</ele><time>2026-04-25T14:54:47.097Z</time></trkpt><trkpt lat="44.585935" lon="8.0158517"><ele>489.0</ele><time>2026-04-25T14:54:48.097Z</time></trkpt><trkpt lat="44.58601" lon="8.0159317"><ele>489.0</ele><time>2026-04-25T14:54:49.097Z</time></trkpt><trkpt lat="44.58609" lon="8.01601"><ele>489.2</ele><time>2026-04-25T14:54:50.097Z</time></trkpt><trkpt lat="44.5861617" lon="8.0161033"><ele>489.4</ele><time>2026-04-25T14:54:51.097Z</time></trkpt><trkpt lat="44.5862267" lon="8.0162217"><ele>489.6</ele><time>2026-04-25T14:54:52.097Z</time></trkpt><trkpt lat="44.5862567" lon="8.0163517"><ele>489.8</ele><time>2026-04-25T14:54:53.097Z</time></trkpt><trkpt lat="44.5862883" lon="8.0165033"><ele>490.0</ele><time>2026-04-25T14:54:54.097Z</time></trkpt><trkpt lat="44.58631" lon="8.016645"><ele>488.8</ele><time>2026-04-25T14:54:55.097Z</time></trkpt><trkpt lat="44.5863317" lon="8.01675"><ele>487.6</ele><time>2026-04-25T14:54:56.097Z</time></trkpt><trkpt lat="44.58635" lon="8.016835"><ele>486.4</ele><time>2026-04-25T14:54:57.097Z</time></trkpt><trkpt lat="44.5863983" lon="8.0169383"><ele>485.2</ele><time>2026-04-25T14:54:59.097Z</time></trkpt><trkpt lat="44.5864783" lon="8.017095"><ele>484.0</ele><time>2026-04-25T14:55:01.097Z</time></trkpt><trkpt lat="44.58653" lon="8.0172017"><ele>484.00000000000006</ele><time>2026-04-25T14:55:02.097Z</time></trkpt><trkpt lat="44.5865833" lon="8.0173117"><ele>484.0</ele><time>2026-04-25T14:55:03.097Z</time></trkpt><trkpt lat="44.5866383" lon="8.0174167"><ele>484.0</ele><time>2026-04-25T14:55:04.097Z</time></trkpt><trkpt lat="44.5866867" lon="8.0175033"><ele>484.0</ele><time>2026-04-25T14:55:05.097Z</time></trkpt><trkpt lat="44.5867483" lon="8.01756"><ele>484.00000000000006</ele><time>2026-04-25T14:55:06.097Z</time></trkpt><trkpt lat="44.5868133" lon="8.0175867"><ele>484.0</ele><time>2026-04-25T14:55:07.097Z</time></trkpt><trkpt lat="44.58689" lon="8.0176"><ele>484.0</ele><time>2026-04-25T14:55:08.097Z</time></trkpt><trkpt lat="44.5869867" lon="8.01761"><ele>484.0</ele><time>2026-04-25T14:55:09.097Z</time></trkpt><trkpt lat="44.5870817" lon="8.017635"><ele>484.0</ele><time>2026-04-25T14:55:10.097Z</time></trkpt><trkpt lat="44.587185" lon="8.017675"><ele>484.0</ele><time>2026-04-25T14:55:11.097Z</time></trkpt><trkpt lat="44.5872767" lon="8.01772"><ele>484.0</ele><time>2026-04-25T14:55:12.097Z</time></trkpt><trkpt lat="44.5873617" lon="8.017765"><ele>484.00000000000006</ele><time>2026-04-25T14:55:13.097Z</time></trkpt><trkpt lat="44.5874367" lon="8.0178283"><ele>484.0</ele><time>2026-04-25T14:55:14.097Z</time></trkpt><trkpt lat="44.5875017" lon="8.01791"><ele>484.0</ele><time>2026-04-25T14:55:15.097Z</time></trkpt><trkpt lat="44.5875617" lon="8.0179983"><ele>484.0</ele><time>2026-04-25T14:55:16.097Z</time></trkpt><trkpt lat="44.5876133" lon="8.0180933"><ele>484.00000000000006</ele><time>2026-04-25T14:55:17.097Z</time></trkpt><trkpt lat="44.5876367" lon="8.0182167"><ele>484.0</ele><time>2026-04-25T14:55:18.097Z</time></trkpt><trkpt lat="44.5876417" lon="8.01836"><ele>480.79999999999995</ele><time>2026-04-25T14:55:19.097Z</time></trkpt><trkpt lat="44.5876283" lon="8.0185"><ele>477.59999999999997</ele><time>2026-04-25T14:55:20.097Z</time></trkpt><trkpt lat="44.5876233" lon="8.0186483"><ele>474.4</ele><time>2026-04-25T14:55:21.097Z</time></trkpt><trkpt lat="44.5876133" lon="8.018795"><ele>471.2</ele><time>2026-04-25T14:55:22.097Z</time></trkpt><trkpt lat="44.587615" lon="8.0189417"><ele>468.0</ele><time>2026-04-25T14:55:23.097Z</time></trkpt><trkpt lat="44.5875917" lon="8.0190767"><ele>466.5</ele><time>2026-04-25T14:55:24.097Z</time></trkpt><trkpt lat="44.587565" lon="8.0191983"><ele>465.0</ele><time>2026-04-25T14:55:25.097Z</time></trkpt><trkpt lat="44.5875433" lon="8.019305"><ele>463.5</ele><time>2026-04-25T14:55:26.097Z</time></trkpt><trkpt lat="44.5875317" lon="8.019405"><ele>462.0</ele><time>2026-04-25T14:55:27.097Z</time></trkpt><trkpt lat="44.58754" lon="8.0195017"><ele>460.5</ele><time>2026-04-25T14:55:28.097Z</time></trkpt><trkpt lat="44.5875633" lon="8.0195967"><ele>459.0</ele><time>2026-04-25T14:55:29.097Z</time></trkpt><trkpt lat="44.5876067" lon="8.0196883"><ele>459.0</ele><time>2026-04-25T14:55:30.097Z</time></trkpt><trkpt lat="44.5876633" lon="8.01979"><ele>459.0</ele><time>2026-04-25T14:55:31.097Z</time></trkpt><trkpt lat="44.5877333" lon="8.0198917"><ele>459.0</ele><time>2026-04-25T14:55:32.097Z</time></trkpt><trkpt lat="44.5878017" lon="8.01999"><ele>459.0</ele><time>2026-04-25T14:55:33.097Z</time></trkpt><trkpt lat="44.587865" lon="8.0201"><ele>459.0</ele><time>2026-04-25T14:55:34.097Z</time></trkpt><trkpt lat="44.587925" lon="8.02021"><ele>458.3333333333333</ele><time>2026-04-25T14:55:35.097Z</time></trkpt><trkpt lat="44.5879817" lon="8.0203117"><ele>457.66666666666663</ele><time>2026-04-25T14:55:36.097Z</time></trkpt><trkpt lat="44.58804" lon="8.0203983"><ele>457.0</ele><time>2026-04-25T14:55:37.097Z</time></trkpt><trkpt lat="44.5881" lon="8.0204617"><ele>456.3333333333333</ele><time>2026-04-25T14:55:38.097Z</time></trkpt><trkpt lat="44.5881717" lon="8.020485"><ele>455.66666666666663</ele><time>2026-04-25T14:55:39.097Z</time></trkpt><trkpt lat="44.5882617" lon="8.020485"><ele>455.0</ele><time>2026-04-25T14:55:40.097Z</time></trkpt><trkpt lat="44.5883783" lon="8.0204417"><ele>455.0</ele><time>2026-04-25T14:55:41.097Z</time></trkpt><trkpt lat="44.5885083" lon="8.02036"><ele>455.0</ele><time>2026-04-25T14:55:42.097Z</time></trkpt><trkpt lat="44.5886133" lon="8.0202933"><ele>455.0</ele><time>2026-04-25T14:55:43.097Z</time></trkpt><trkpt lat="44.588715" lon="8.0202717"><ele>455.0</ele><time>2026-04-25T14:55:44.097Z</time></trkpt><trkpt lat="44.58882" lon="8.02028"><ele>453.6</ele><time>2026-04-25T14:55:45.097Z</time></trkpt><trkpt lat="44.588935" lon="8.02032"><ele>452.2</ele><time>2026-04-25T14:55:46.097Z</time></trkpt><trkpt lat="44.5890367" lon="8.0203633"><ele>450.79999999999995</ele><time>2026-04-25T14:55:47.097Z</time></trkpt><trkpt lat="44.5891333" lon="8.0204067"><ele>449.4</ele><time>2026-04-25T14:55:48.097Z</time></trkpt><trkpt lat="44.5892183" lon="8.0204567"><ele>448.0</ele><time>2026-04-25T14:55:49.097Z</time></trkpt><trkpt lat="44.589295" lon="8.0205217"><ele>448.0</ele><time>2026-04-25T14:55:50.097Z</time></trkpt><trkpt lat="44.5893683" lon="8.0205617"><ele>447.99999999999994</ele><time>2026-04-25T14:55:51.097Z</time></trkpt><trkpt lat="44.5894483" lon="8.0205917"><ele>447.99999999999994</ele><time>2026-04-25T14:55:52.097Z</time></trkpt><trkpt lat="44.5895383" lon="8.0206083"><ele>448.0</ele><time>2026-04-25T14:55:53.097Z</time></trkpt><trkpt lat="44.5896417" lon="8.0206317"><ele>448.0</ele><time>2026-04-25T14:55:54.097Z</time></trkpt><trkpt lat="44.5897483" lon="8.020665"><ele>447.0</ele><time>2026-04-25T14:55:55.097Z</time></trkpt><trkpt lat="44.5898583" lon="8.0207167"><ele>445.99999999999994</ele><time>2026-04-25T14:55:56.097Z</time></trkpt><trkpt lat="44.589955" lon="8.0207733"><ele>444.99999999999994</ele><time>2026-04-25T14:55:57.097Z</time></trkpt><trkpt lat="44.5900517" lon="8.02083"><ele>444.0</ele><time>2026-04-25T14:55:58.097Z</time></trkpt><trkpt lat="44.590135" lon="8.0208533"><ele>443.0</ele><time>2026-04-25T14:55:59.097Z</time></trkpt><trkpt lat="44.5902283" lon="8.0208733"><ele>439.4</ele><time>2026-04-25T14:56:00.097Z</time></trkpt><trkpt lat="44.5903283" lon="8.0208867"><ele>435.79999999999995</ele><time>2026-04-25T14:56:01.097Z</time></trkpt><trkpt lat="44.5904283" lon="8.02089"><ele>432.2</ele><time>2026-04-25T14:56:02.097Z</time></trkpt><trkpt lat="44.59053" lon="8.0208917"><ele>428.6</ele><time>2026-04-25T14:56:03.097Z</time></trkpt><trkpt lat="44.59063" lon="8.0208867"><ele>425.0</ele><time>2026-04-25T14:56:04.097Z</time></trkpt><trkpt lat="44.590725" lon="8.0208733"><ele>423.8333333333333</ele><time>2026-04-25T14:56:05.097Z</time></trkpt><trkpt lat="44.5908117" lon="8.0208417"><ele>422.66666666666663</ele><time>2026-04-25T14:56:06.097Z</time></trkpt><trkpt lat="44.5908933" lon="8.020775"><ele>421.5</ele><time>2026-04-25T14:56:07.097Z</time></trkpt><trkpt lat="44.59097" lon="8.0207033"><ele>420.33333333333337</ele><time>2026-04-25T14:56:08.098Z</time></trkpt><trkpt lat="44.5910417" lon="8.0206433"><ele>419.1666666666667</ele><time>2026-04-25T14:56:09.097Z</time></trkpt><trkpt lat="44.5911083" lon="8.0205983"><ele>418.0</ele><time>2026-04-25T14:56:10.097Z</time></trkpt><trkpt lat="44.59118" lon="8.0205783"><ele>414.7142857142857</ele><time>2026-04-25T14:56:11.097Z</time></trkpt><trkpt lat="44.5912533" lon="8.0205917"><ele>411.42857142857144</ele><time>2026-04-25T14:56:12.097Z</time></trkpt><trkpt lat="44.59133" lon="8.02063"><ele>408.1428571428571</ele><time>2026-04-25T14:56:13.097Z</time></trkpt><trkpt lat="44.5913883" lon="8.0207"><ele>404.8571428571429</ele><time>2026-04-25T14:56:14.097Z</time></trkpt><trkpt lat="44.5914317" lon="8.0207833"><ele>401.5714285714286</ele><time>2026-04-25T14:56:15.097Z</time></trkpt><trkpt lat="44.5914683" lon="8.0208683"><ele>398.2857142857143</ele><time>2026-04-25T14:56:16.097Z</time></trkpt><trkpt lat="44.5914783" lon="8.0209617"><ele>395.0</ele><time>2026-04-25T14:56:17.097Z</time></trkpt><trkpt lat="44.5914633" lon="8.0210617"><ele>394.16666666666663</ele><time>2026-04-25T14:56:18.097Z</time></trkpt><trkpt lat="44.591445" lon="8.0211733"><ele>393.3333333333333</ele><time>2026-04-25T14:56:19.097Z</time></trkpt><trkpt lat="44.5914183" lon="8.0212967"><ele>392.5</ele><time>2026-04-25T14:56:20.097Z</time></trkpt><trkpt lat="44.591395" lon="8.021415"><ele>391.66666666666663</ele><time>2026-04-25T14:56:21.097Z</time></trkpt><trkpt lat="44.5913683" lon="8.0215167"><ele>390.8333333333333</ele><time>2026-04-25T14:56:22.097Z</time></trkpt><trkpt lat="44.5913267" lon="8.021605"><ele>390.0</ele><time>2026-04-25T14:56:23.097Z</time></trkpt><trkpt lat="44.591265" lon="8.0216717"><ele>389.4</ele><time>2026-04-25T14:56:24.097Z</time></trkpt><trkpt lat="44.5911917" lon="8.0217033"><ele>388.8</ele><time>2026-04-25T14:56:25.097Z</time></trkpt><trkpt lat="44.5911083" lon="8.0217067"><ele>388.20000000000005</ele><time>2026-04-25T14:56:26.097Z</time></trkpt><trkpt lat="44.5910067" lon="8.021695"><ele>387.6</ele><time>2026-04-25T14:56:27.097Z</time></trkpt><trkpt lat="44.5908933" lon="8.0216833"><ele>387.0</ele><time>2026-04-25T14:56:28.097Z</time></trkpt><trkpt lat="44.590775" lon="8.0217083"><ele>387.0</ele><time>2026-04-25T14:56:29.097Z</time></trkpt><trkpt lat="44.5906417" lon="8.0217383"><ele>387.0</ele><time>2026-04-25T14:56:30.097Z</time></trkpt><trkpt lat="44.5905233" lon="8.021775"><ele>387.0</ele><time>2026-04-25T14:56:31.097Z</time></trkpt><trkpt lat="44.59042" lon="8.02181"><ele>387.0</ele><time>2026-04-25T14:56:32.097Z</time></trkpt><trkpt lat="44.5903283" lon="8.0218417"><ele>387.8333333333333</ele><time>2026-04-25T14:56:33.097Z</time></trkpt><trkpt lat="44.590245" lon="8.0218583"><ele>388.66666666666663</ele><time>2026-04-25T14:56:34.097Z</time></trkpt><trkpt lat="44.59018" lon="8.021865"><ele>389.5</ele><time>2026-04-25T14:56:35.097Z</time></trkpt><trkpt lat="44.5901" lon="8.0218533"><ele>390.3333333333333</ele><time>2026-04-25T14:56:37.097Z</time></trkpt><trkpt lat="44.5900967" lon="8.0219433"><ele>391.16666666666663</ele><time>2026-04-25T14:56:40.097Z</time></trkpt><trkpt lat="44.5902167" lon="8.022015"><ele>392.0</ele><time>2026-04-25T14:56:42.097Z</time></trkpt><trkpt lat="44.5902833" lon="8.0220317"><ele>391.99999999999994</ele><time>2026-04-25T14:56:43.097Z</time></trkpt><trkpt lat="44.590365" lon="8.0221217"><ele>392.0</ele><time>2026-04-25T14:56:45.097Z</time></trkpt><trkpt lat="44.590355" lon="8.0222317"><ele>392.0</ele><time>2026-04-25T14:56:47.097Z</time></trkpt><trkpt lat="44.5903017" lon="8.0222867"><ele>392.0</ele><time>2026-04-25T14:56:48.097Z</time></trkpt><trkpt lat="44.5902317" lon="8.0223367"><ele>391.99999999999994</ele><time>2026-04-25T14:56:49.097Z</time></trkpt><trkpt lat="44.59012" lon="8.022375"><ele>392.0</ele><time>2026-04-25T14:56:50.097Z</time></trkpt><trkpt lat="44.5899967" lon="8.0224233"><ele>392.0</ele><time>2026-04-25T14:56:51.097Z</time></trkpt><trkpt lat="44.58988" lon="8.02247"><ele>392.0</ele><time>2026-04-25T14:56:52.097Z</time></trkpt><trkpt lat="44.5897717" lon="8.0225133"><ele>392.0</ele><time>2026-04-25T14:56:53.097Z</time></trkpt><trkpt lat="44.589665" lon="8.02259"><ele>392.0</ele><time>2026-04-25T14:56:54.097Z</time></trkpt><trkpt lat="44.58956" lon="8.02267"><ele>388.0</ele><time>2026-04-25T14:56:55.097Z</time></trkpt><trkpt lat="44.5894617" lon="8.02274"><ele>384.0</ele><time>2026-04-25T14:56:56.097Z</time></trkpt><trkpt lat="44.5893733" lon="8.0227883"><ele>380.0</ele><time>2026-04-25T14:56:57.097Z</time></trkpt><trkpt lat="44.589295" lon="8.02281"><ele>376.0</ele><time>2026-04-25T14:56:58.097Z</time></trkpt><trkpt lat="44.58919" lon="8.0228183"><ele>372.0</ele><time>2026-04-25T14:57:00.097Z</time></trkpt><trkpt lat="44.5891333" lon="8.02287"><ele>372.0</ele><time>2026-04-25T14:57:02.097Z</time></trkpt><trkpt lat="44.589185" lon="8.0229683"><ele>372.0</ele><time>2026-04-25T14:57:04.097Z</time></trkpt><trkpt lat="44.5892567" lon="8.0230183"><ele>372.0</ele><time>2026-04-25T14:57:05.097Z</time></trkpt><trkpt lat="44.5893583" lon="8.0230483"><ele>372.0</ele><time>2026-04-25T14:57:06.097Z</time></trkpt><trkpt lat="44.5894767" lon="8.023065"><ele>372.0</ele><time>2026-04-25T14:57:07.097Z</time></trkpt><trkpt lat="44.58959" lon="8.0230817"><ele>371.40000000000003</ele><time>2026-04-25T14:57:08.097Z</time></trkpt><trkpt lat="44.5897017" lon="8.02309"><ele>370.8</ele><time>2026-04-25T14:57:09.097Z</time></trkpt><trkpt lat="44.58981" lon="8.0231017"><ele>370.2</ele><time>2026-04-25T14:57:10.097Z</time></trkpt><trkpt lat="44.5899067" lon="8.02313"><ele>369.6</ele><time>2026-04-25T14:57:11.097Z</time></trkpt><trkpt lat="44.590005" lon="8.0231767"><ele>369.0</ele><time>2026-04-25T14:57:12.097Z</time></trkpt><trkpt lat="44.5900933" lon="8.0232333"><ele>369.0</ele><time>2026-04-25T14:57:13.097Z</time></trkpt><trkpt lat="44.5901833" lon="8.0232917"><ele>369.0</ele><time>2026-04-25T14:57:14.097Z</time></trkpt><trkpt lat="44.59027" lon="8.02335"><ele>369.0</ele><time>2026-04-25T14:57:15.097Z</time></trkpt><trkpt lat="44.5903633" lon="8.0234"><ele>369.0</ele><time>2026-04-25T14:57:16.097Z</time></trkpt><trkpt lat="44.5904583" lon="8.0234433"><ele>369.0</ele><time>2026-04-25T14:57:17.097Z</time></trkpt><trkpt lat="44.59056" lon="8.0234833"><ele>365.0</ele><time>2026-04-25T14:57:18.097Z</time></trkpt><trkpt lat="44.590665" lon="8.02351"><ele>361.0</ele><time>2026-04-25T14:57:19.097Z</time></trkpt><trkpt lat="44.5907683" lon="8.0235433"><ele>357.0</ele><time>2026-04-25T14:57:20.097Z</time></trkpt><trkpt lat="44.590875" lon="8.0235583"><ele>353.0</ele><time>2026-04-25T14:57:21.097Z</time></trkpt><trkpt lat="44.59098" lon="8.0235633"><ele>349.0</ele><time>2026-04-25T14:57:22.097Z</time></trkpt><trkpt lat="44.59109" lon="8.0235667"><ele>347.4</ele><time>2026-04-25T14:57:23.097Z</time></trkpt><trkpt lat="44.5911983" lon="8.0235617"><ele>345.79999999999995</ele><time>2026-04-25T14:57:24.097Z</time></trkpt><trkpt lat="44.5913083" lon="8.0235617"><ele>344.20000000000005</ele><time>2026-04-25T14:57:25.097Z</time></trkpt><trkpt lat="44.59142" lon="8.0235617"><ele>342.6</ele><time>2026-04-25T14:57:26.097Z</time></trkpt><trkpt lat="44.5915367" lon="8.0235567"><ele>341.0</ele><time>2026-04-25T14:57:27.097Z</time></trkpt><trkpt lat="44.5916517" lon="8.0235533"><ele>341.0</ele><time>2026-04-25T14:57:28.097Z</time></trkpt><trkpt lat="44.5917667" lon="8.02354"><ele>341.0</ele><time>2026-04-25T14:57:29.097Z</time></trkpt><trkpt lat="44.5918767" lon="8.0235267"><ele>341.0</ele><time>2026-04-25T14:57:30.097Z</time></trkpt><trkpt lat="44.5919933" lon="8.02351"><ele>341.0</ele><time>2026-04-25T14:57:31.097Z</time></trkpt><trkpt lat="44.5921083" lon="8.023495"><ele>338.5</ele><time>2026-04-25T14:57:32.097Z</time></trkpt><trkpt lat="44.5922317" lon="8.0234767"><ele>336.0</ele><time>2026-04-25T14:57:33.097Z</time></trkpt><trkpt lat="44.59235" lon="8.0234667"><ele>333.5</ele><time>2026-04-25T14:57:34.097Z</time></trkpt><trkpt lat="44.592475" lon="8.02347"><ele>331.0</ele><time>2026-04-25T14:57:35.097Z</time></trkpt><trkpt lat="44.592605" lon="8.023495"><ele>331.0</ele><time>2026-04-25T14:57:36.097Z</time></trkpt><trkpt lat="44.5927233" lon="8.0235283"><ele>331.0</ele><time>2026-04-25T14:57:37.097Z</time></trkpt><trkpt lat="44.5928417" lon="8.02358"><ele>331.0</ele><time>2026-04-25T14:57:38.097Z</time></trkpt><trkpt lat="44.592955" lon="8.0236317"><ele>331.0</ele><time>2026-04-25T14:57:39.097Z</time></trkpt><trkpt lat="44.5930817" lon="8.023675"><ele>328.66666666666663</ele><time>2026-04-25T14:57:40.097Z</time></trkpt><trkpt lat="44.5932317" lon="8.02367"><ele>326.3333333333333</ele><time>2026-04-25T14:57:41.097Z</time></trkpt><trkpt lat="44.5933867" lon="8.02366"><ele>324.0</ele><time>2026-04-25T14:57:42.097Z</time></trkpt><trkpt lat="44.59354" lon="8.0236533"><ele>320.25</ele><time>2026-04-25T14:57:43.097Z</time></trkpt><trkpt lat="44.5936767" lon="8.02366"><ele>316.5</ele><time>2026-04-25T14:57:44.097Z</time></trkpt><trkpt lat="44.5938017" lon="8.0236617"><ele>312.75</ele><time>2026-04-25T14:57:45.097Z</time></trkpt><trkpt lat="44.5939033" lon="8.0236567"><ele>309.0</ele><time>2026-04-25T14:57:46.097Z</time></trkpt><trkpt lat="44.5939917" lon="8.0236583"><ele>309.0</ele><time>2026-04-25T14:57:47.097Z</time></trkpt><trkpt lat="44.5940633" lon="8.02366"><ele>309.0</ele><time>2026-04-25T14:57:48.097Z</time></trkpt><trkpt lat="44.594135" lon="8.02366"><ele>309.0</ele><time>2026-04-25T14:57:50.097Z</time></trkpt><trkpt lat="44.5942" lon="8.023635"><ele>309.0</ele><time>2026-04-25T14:57:55.097Z</time></trkpt><trkpt lat="44.594255" lon="8.0234683"><ele>309.0</ele><time>2026-04-25T14:57:57.097Z</time></trkpt><trkpt lat="44.594275" lon="8.0233167"><ele>310.25</ele><time>2026-04-25T14:57:58.097Z</time></trkpt><trkpt lat="44.594285" lon="8.023135"><ele>311.5</ele><time>2026-04-25T14:57:59.097Z</time></trkpt><trkpt lat="44.5942933" lon="8.0229233"><ele>312.75</ele><time>2026-04-25T14:58:00.097Z</time></trkpt><trkpt lat="44.5943183" lon="8.022715"><ele>314.0</ele><time>2026-04-25T14:58:01.097Z</time></trkpt><trkpt lat="44.5943583" lon="8.0224933"><ele>316.0</ele><time>2026-04-25T14:58:02.097Z</time></trkpt><trkpt lat="44.5944083" lon="8.0222667"><ele>318.0</ele><time>2026-04-25T14:58:03.097Z</time></trkpt><trkpt lat="44.5944833" lon="8.0220317"><ele>320.0</ele><time>2026-04-25T14:58:04.097Z</time></trkpt><trkpt lat="44.5945783" lon="8.0218183"><ele>317.33333333333337</ele><time>2026-04-25T14:58:05.097Z</time></trkpt><trkpt lat="44.5946917" lon="8.0216117"><ele>314.6666666666667</ele><time>2026-04-25T14:58:06.097Z</time></trkpt><trkpt lat="44.5948067" lon="8.0214233"><ele>312.0</ele><time>2026-04-25T14:58:07.097Z</time></trkpt><trkpt lat="44.5949333" lon="8.0212517"><ele>312.0</ele><time>2026-04-25T14:58:08.097Z</time></trkpt><trkpt lat="44.5950717" lon="8.0211017"><ele>312.0</ele><time>2026-04-25T14:58:09.097Z</time></trkpt><trkpt lat="44.5952183" lon="8.0209683"><ele>312.0</ele><time>2026-04-25T14:58:10.097Z</time></trkpt><trkpt lat="44.5953883" lon="8.020845"><ele>308.6666666666667</ele><time>2026-04-25T14:58:11.097Z</time></trkpt><trkpt lat="44.5955717" lon="8.020745"><ele>305.33333333333337</ele><time>2026-04-25T14:58:12.097Z</time></trkpt><trkpt lat="44.59576" lon="8.0206517"><ele>302.0</ele><time>2026-04-25T14:58:13.097Z</time></trkpt><trkpt lat="44.59595" lon="8.020565"><ele>302.0</ele><time>2026-04-25T14:58:14.097Z</time></trkpt><trkpt lat="44.59614" lon="8.0204867"><ele>302.0</ele><time>2026-04-25T14:58:15.097Z</time></trkpt><trkpt lat="44.5963217" lon="8.0204167"><ele>302.0</ele><time>2026-04-25T14:58:16.097Z</time></trkpt><trkpt lat="44.5965133" lon="8.0203483"><ele>301.33333333333337</ele><time>2026-04-25T14:58:17.097Z</time></trkpt><trkpt lat="44.5967067" lon="8.0202667"><ele>300.6666666666667</ele><time>2026-04-25T14:58:18.097Z</time></trkpt><trkpt lat="44.5969017" lon="8.0201967"><ele>300.0</ele><time>2026-04-25T14:58:19.097Z</time></trkpt><trkpt lat="44.5970883" lon="8.0201183"><ele>300.0</ele><time>2026-04-25T14:58:20.097Z</time></trkpt><trkpt lat="44.59727" lon="8.020055"><ele>300.0</ele><time>2026-04-25T14:58:21.097Z</time></trkpt><trkpt lat="44.5974467" lon="8.0199883"><ele>300.0</ele><time>2026-04-25T14:58:22.097Z</time></trkpt><trkpt lat="44.597625" lon="8.019925"><ele>298.3333333333333</ele><time>2026-04-25T14:58:23.097Z</time></trkpt><trkpt lat="44.597805" lon="8.0198633"><ele>296.66666666666663</ele><time>2026-04-25T14:58:24.097Z</time></trkpt><trkpt lat="44.59797" lon="8.0197783"><ele>295.0</ele><time>2026-04-25T14:58:25.097Z</time></trkpt><trkpt lat="44.5981267" lon="8.019665"><ele>295.0</ele><time>2026-04-25T14:58:26.097Z</time></trkpt><trkpt lat="44.598265" lon="8.0195167"><ele>295.0</ele><time>2026-04-25T14:58:27.097Z</time></trkpt><trkpt lat="44.5983983" lon="8.0193567"><ele>295.0</ele><time>2026-04-25T14:58:28.097Z</time></trkpt><trkpt lat="44.5985133" lon="8.0191833"><ele>294.3333333333333</ele><time>2026-04-25T14:58:29.097Z</time></trkpt><trkpt lat="44.598615" lon="8.0190183"><ele>293.6666666666667</ele><time>2026-04-25T14:58:30.097Z</time></trkpt><trkpt lat="44.598725" lon="8.0188583"><ele>293.0</ele><time>2026-04-25T14:58:31.097Z</time></trkpt><trkpt lat="44.598825" lon="8.0187033"><ele>293.0</ele><time>2026-04-25T14:58:32.097Z</time></trkpt><trkpt lat="44.598925" lon="8.0185517"><ele>293.0</ele><time>2026-04-25T14:58:33.097Z</time></trkpt><trkpt lat="44.5990283" lon="8.0184167"><ele>293.0</ele><time>2026-04-25T14:58:34.097Z</time></trkpt><trkpt lat="44.5991417" lon="8.0183083"><ele>293.0</ele><time>2026-04-25T14:58:35.098Z</time></trkpt><trkpt lat="44.5992633" lon="8.0182217"><ele>292.5</ele><time>2026-04-25T14:58:36.097Z</time></trkpt><trkpt lat="44.5993983" lon="8.0181783"><ele>292.0</ele><time>2026-04-25T14:58:37.097Z</time></trkpt><trkpt lat="44.5995333" lon="8.01817"><ele>291.5</ele><time>2026-04-25T14:58:38.097Z</time></trkpt><trkpt lat="44.5996817" lon="8.018175"><ele>291.0</ele><time>2026-04-25T14:58:39.097Z</time></trkpt><trkpt lat="44.599835" lon="8.0181867"><ele>290.5</ele><time>2026-04-25T14:58:40.097Z</time></trkpt><trkpt lat="44.5999867" lon="8.01819"><ele>290.0</ele><time>2026-04-25T14:58:41.097Z</time></trkpt><trkpt lat="44.6001267" lon="8.0181817"><ele>289.5</ele><time>2026-04-25T14:58:42.097Z</time></trkpt><trkpt lat="44.6002583" lon="8.0181683"><ele>289.0</ele><time>2026-04-25T14:58:43.097Z</time></trkpt><trkpt lat="44.6003833" lon="8.0181567"><ele>287.8</ele><time>2026-04-25T14:58:44.097Z</time></trkpt><trkpt lat="44.600495" lon="8.0181483"><ele>286.59999999999997</ele><time>2026-04-25T14:58:45.097Z</time></trkpt><trkpt lat="44.600605" lon="8.01815"><ele>285.4</ele><time>2026-04-25T14:58:46.097Z</time></trkpt><trkpt lat="44.6007083" lon="8.0181433"><ele>284.2</ele><time>2026-04-25T14:58:47.097Z</time></trkpt><trkpt lat="44.60081" lon="8.0181083"><ele>283.0</ele><time>2026-04-25T14:58:48.097Z</time></trkpt><trkpt lat="44.600915" lon="8.0180467"><ele>283.0</ele><time>2026-04-25T14:58:49.097Z</time></trkpt><trkpt lat="44.6010317" lon="8.017965"><ele>283.0</ele><time>2026-04-25T14:58:50.097Z</time></trkpt><trkpt lat="44.60115" lon="8.0178983"><ele>283.0</ele><time>2026-04-25T14:58:51.097Z</time></trkpt><trkpt lat="44.6012917" lon="8.0178483"><ele>283.0</ele><time>2026-04-25T14:58:52.097Z</time></trkpt><trkpt lat="44.6014433" lon="8.0178133"><ele>283.0</ele><time>2026-04-25T14:58:53.097Z</time></trkpt><trkpt lat="44.601605" lon="8.017785"><ele>283.0</ele><time>2026-04-25T14:58:54.097Z</time></trkpt><trkpt lat="44.6017783" lon="8.017765"><ele>283.0</ele><time>2026-04-25T14:58:55.097Z</time></trkpt><trkpt lat="44.6019533" lon="8.0177383"><ele>284.0</ele><time>2026-04-25T14:58:56.097Z</time></trkpt><trkpt lat="44.6021367" lon="8.0177117"><ele>285.0</ele><time>2026-04-25T14:58:57.097Z</time></trkpt><trkpt lat="44.6023333" lon="8.0176833"><ele>286.0</ele><time>2026-04-25T14:58:58.097Z</time></trkpt><trkpt lat="44.6025367" lon="8.0176533"><ele>286.0</ele><time>2026-04-25T14:58:59.097Z</time></trkpt><trkpt lat="44.60274" lon="8.01763"><ele>286.0</ele><time>2026-04-25T14:59:00.097Z</time></trkpt><trkpt lat="44.6029467" lon="8.0176067"><ele>286.0</ele><time>2026-04-25T14:59:01.097Z</time></trkpt><trkpt lat="44.6031533" lon="8.0175833"><ele>285.66666666666663</ele><time>2026-04-25T14:59:02.097Z</time></trkpt><trkpt lat="44.6033433" lon="8.0175467"><ele>285.3333333333333</ele><time>2026-04-25T14:59:03.097Z</time></trkpt><trkpt lat="44.6035267" lon="8.0174917"><ele>285.0</ele><time>2026-04-25T14:59:04.097Z</time></trkpt><trkpt lat="44.6037117" lon="8.0174033"><ele>284.0</ele><time>2026-04-25T14:59:05.097Z</time></trkpt><trkpt lat="44.6038983" lon="8.0172933"><ele>283.0</ele><time>2026-04-25T14:59:06.097Z</time></trkpt><trkpt lat="44.604075" lon="8.0171717"><ele>282.0</ele><time>2026-04-25T14:59:07.097Z</time></trkpt><trkpt lat="44.60425" lon="8.0170433"><ele>282.0</ele><time>2026-04-25T14:59:08.097Z</time></trkpt><trkpt lat="44.6044383" lon="8.0169167"><ele>282.0</ele><time>2026-04-25T14:59:09.097Z</time></trkpt><trkpt lat="44.60462" lon="8.0167933"><ele>282.0</ele><time>2026-04-25T14:59:10.097Z</time></trkpt><trkpt lat="44.6048" lon="8.01668"><ele>280.0</ele><time>2026-04-25T14:59:11.097Z</time></trkpt><trkpt lat="44.60498" lon="8.0165617"><ele>278.0</ele><time>2026-04-25T14:59:12.097Z</time></trkpt><trkpt lat="44.6051667" lon="8.0164367"><ele>276.0</ele><time>2026-04-25T14:59:13.097Z</time></trkpt><trkpt lat="44.60535" lon="8.01631"><ele>276.0</ele><time>2026-04-25T14:59:14.097Z</time></trkpt><trkpt lat="44.6055283" lon="8.0161917"><ele>276.0</ele><time>2026-04-25T14:59:15.097Z</time></trkpt><trkpt lat="44.6057283" lon="8.016075"><ele>276.0</ele><time>2026-04-25T14:59:16.097Z</time></trkpt><trkpt lat="44.60594" lon="8.015965"><ele>276.0</ele><time>2026-04-25T14:59:17.097Z</time></trkpt><trkpt lat="44.60616" lon="8.0158633"><ele>276.0</ele><time>2026-04-25T14:59:18.097Z</time></trkpt><trkpt lat="44.60638" lon="8.0157633"><ele>275.0</ele><time>2026-04-25T14:59:19.097Z</time></trkpt><trkpt lat="44.6065917" lon="8.0156733"><ele>274.0</ele><time>2026-04-25T14:59:20.097Z</time></trkpt><trkpt lat="44.6068017" lon="8.015585"><ele>273.0</ele><time>2026-04-25T14:59:21.097Z</time></trkpt><trkpt lat="44.6070117" lon="8.015505"><ele>273.0</ele><time>2026-04-25T14:59:22.097Z</time></trkpt><trkpt lat="44.60722" lon="8.0154317"><ele>273.0</ele><time>2026-04-25T14:59:23.097Z</time></trkpt><trkpt lat="44.6074233" lon="8.01535"><ele>273.0</ele><time>2026-04-25T14:59:24.097Z</time></trkpt><trkpt lat="44.6076367" lon="8.0152667"><ele>274.5</ele><time>2026-04-25T14:59:25.097Z</time></trkpt><trkpt lat="44.60786" lon="8.0151733"><ele>276.0</ele><time>2026-04-25T14:59:26.097Z</time></trkpt><trkpt lat="44.6080733" lon="8.0150867"><ele>274.3333333333333</ele><time>2026-04-25T14:59:27.097Z</time></trkpt><trkpt lat="44.60828" lon="8.014985"><ele>272.66666666666663</ele><time>2026-04-25T14:59:28.097Z</time></trkpt><trkpt lat="44.608485" lon="8.0148683"><ele>271.0</ele><time>2026-04-25T14:59:29.097Z</time></trkpt><trkpt lat="44.6086917" lon="8.0147467"><ele>271.0</ele><time>2026-04-25T14:59:30.097Z</time></trkpt><trkpt lat="44.6088967" lon="8.0146217"><ele>271.0</ele><time>2026-04-25T14:59:31.097Z</time></trkpt><trkpt lat="44.6090967" lon="8.0145"><ele>271.0</ele><time>2026-04-25T14:59:32.097Z</time></trkpt><trkpt lat="44.6092967" lon="8.0143717"><ele>270.0</ele><time>2026-04-25T14:59:33.097Z</time></trkpt><trkpt lat="44.6095033" lon="8.0142317"><ele>269.0</ele><time>2026-04-25T14:59:34.097Z</time></trkpt><trkpt lat="44.6097033" lon="8.01409"><ele>269.0</ele><time>2026-04-25T14:59:35.097Z</time></trkpt><trkpt lat="44.6098983" lon="8.0139567"><ele>269.0</ele><time>2026-04-25T14:59:36.097Z</time></trkpt><trkpt lat="44.6100983" lon="8.0138117"><ele>269.0</ele><time>2026-04-25T14:59:37.097Z</time></trkpt><trkpt lat="44.6102933" lon="8.0136617"><ele>269.33333333333337</ele><time>2026-04-25T14:59:38.097Z</time></trkpt><trkpt lat="44.6104883" lon="8.0135233"><ele>269.6666666666667</ele><time>2026-04-25T14:59:39.097Z</time></trkpt><trkpt lat="44.610685" lon="8.0133917"><ele>270.0</ele><time>2026-04-25T14:59:40.097Z</time></trkpt><trkpt lat="44.61089" lon="8.0132717"><ele>268.3333333333333</ele><time>2026-04-25T14:59:41.097Z</time></trkpt><trkpt lat="44.61109" lon="8.01317"><ele>266.66666666666663</ele><time>2026-04-25T14:59:42.097Z</time></trkpt><trkpt lat="44.6112967" lon="8.0130817"><ele>265.0</ele><time>2026-04-25T14:59:43.097Z</time></trkpt><trkpt lat="44.61151" lon="8.0130133"><ele>265.0</ele><time>2026-04-25T14:59:44.097Z</time></trkpt><trkpt lat="44.6117233" lon="8.012965"><ele>265.0</ele><time>2026-04-25T14:59:45.097Z</time></trkpt><trkpt lat="44.6119417" lon="8.01294"><ele>265.0</ele><time>2026-04-25T14:59:46.097Z</time></trkpt><trkpt lat="44.6121533" lon="8.0129167"><ele>265.0</ele><time>2026-04-25T14:59:47.097Z</time></trkpt><trkpt lat="44.6123633" lon="8.0128933"><ele>265.0</ele><time>2026-04-25T14:59:48.097Z</time></trkpt><trkpt lat="44.6125617" lon="8.0128767"><ele>265.0</ele><time>2026-04-25T14:59:49.097Z</time></trkpt><trkpt lat="44.61275" lon="8.01285"><ele>264.66666666666663</ele><time>2026-04-25T14:59:50.097Z</time></trkpt><trkpt lat="44.61295" lon="8.0128117"><ele>264.3333333333333</ele><time>2026-04-25T14:59:51.097Z</time></trkpt><trkpt lat="44.6131433" lon="8.0127683"><ele>264.0</ele><time>2026-04-25T14:59:52.097Z</time></trkpt><trkpt lat="44.6133433" lon="8.0127067"><ele>264.0</ele><time>2026-04-25T14:59:53.097Z</time></trkpt><trkpt lat="44.6135433" lon="8.01263"><ele>264.0</ele><time>2026-04-25T14:59:54.097Z</time></trkpt><trkpt lat="44.6137383" lon="8.0125417"><ele>264.0</ele><time>2026-04-25T14:59:55.097Z</time></trkpt><trkpt lat="44.6139367" lon="8.0124467"><ele>262.0</ele><time>2026-04-25T14:59:56.097Z</time></trkpt><trkpt lat="44.6141383" lon="8.0123417"><ele>260.0</ele><time>2026-04-25T14:59:57.097Z</time></trkpt><trkpt lat="44.6143483" lon="8.012235"><ele>258.0</ele><time>2026-04-25T14:59:58.097Z</time></trkpt><trkpt lat="44.6145517" lon="8.0121383"><ele>257.3333333333333</ele><time>2026-04-25T14:59:59.097Z</time></trkpt><trkpt lat="44.614755" lon="8.01204"><ele>256.66666666666663</ele><time>2026-04-25T15:00:00.097Z</time></trkpt><trkpt lat="44.6149483" lon="8.0119483"><ele>256.0</ele><time>2026-04-25T15:00:01.097Z</time></trkpt><trkpt lat="44.6151433" lon="8.0118517"><ele>255.66666666666666</ele><time>2026-04-25T15:00:02.097Z</time></trkpt><trkpt lat="44.615355" lon="8.0117733"><ele>255.33333333333331</ele><time>2026-04-25T15:00:03.097Z</time></trkpt><trkpt lat="44.615565" lon="8.0117117"><ele>255.0</ele><time>2026-04-25T15:00:04.097Z</time></trkpt><trkpt lat="44.6157783" lon="8.011655"><ele>254.66666666666669</ele><time>2026-04-25T15:00:05.097Z</time></trkpt><trkpt lat="44.6159867" lon="8.0115817"><ele>254.33333333333334</ele><time>2026-04-25T15:00:06.097Z</time></trkpt><trkpt lat="44.616185" lon="8.0115167"><ele>254.0</ele><time>2026-04-25T15:00:07.097Z</time></trkpt><trkpt lat="44.6163767" lon="8.0114583"><ele>254.0</ele><time>2026-04-25T15:00:08.097Z</time></trkpt><trkpt lat="44.6165583" lon="8.0114017"><ele>254.0</ele><time>2026-04-25T15:00:09.097Z</time></trkpt><trkpt lat="44.616745" lon="8.01136"><ele>254.0</ele><time>2026-04-25T15:00:10.097Z</time></trkpt><trkpt lat="44.6169317" lon="8.0113533"><ele>252.66666666666669</ele><time>2026-04-25T15:00:11.097Z</time></trkpt><trkpt lat="44.61712" lon="8.0113783"><ele>251.33333333333331</ele><time>2026-04-25T15:00:12.097Z</time></trkpt><trkpt lat="44.6173033" lon="8.0114317"><ele>250.0</ele><time>2026-04-25T15:00:13.097Z</time></trkpt><trkpt lat="44.61748" lon="8.011485"><ele>250.0</ele><time>2026-04-25T15:00:14.097Z</time></trkpt><trkpt lat="44.6176467" lon="8.011535"><ele>250.0</ele><time>2026-04-25T15:00:15.097Z</time></trkpt><trkpt lat="44.61781" lon="8.0115783"><ele>250.0</ele><time>2026-04-25T15:00:16.097Z</time></trkpt><trkpt lat="44.6179633" lon="8.0116233"><ele>249.75</ele><time>2026-04-25T15:00:17.097Z</time></trkpt><trkpt lat="44.618115" lon="8.0116717"><ele>249.5</ele><time>2026-04-25T15:00:18.097Z</time></trkpt><trkpt lat="44.61826" lon="8.0117283"><ele>249.25</ele><time>2026-04-25T15:00:19.097Z</time></trkpt><trkpt lat="44.618395" lon="8.011785"><ele>249.0</ele><time>2026-04-25T15:00:20.097Z</time></trkpt><trkpt lat="44.6185133" lon="8.0118283"><ele>249.0</ele><time>2026-04-25T15:00:21.097Z</time></trkpt><trkpt lat="44.6186183" lon="8.0118633"><ele>248.99999999999997</ele><time>2026-04-25T15:00:22.097Z</time></trkpt><trkpt lat="44.61871" lon="8.0118933"><ele>248.99999999999997</ele><time>2026-04-25T15:00:23.097Z</time></trkpt><trkpt lat="44.6187817" lon="8.0119367"><ele>249.0</ele><time>2026-04-25T15:00:24.097Z</time></trkpt><trkpt lat="44.6189017" lon="8.0119817"><ele>249.0</ele><time>2026-04-25T15:00:26.097Z</time></trkpt><trkpt lat="44.6189867" lon="8.0119683"><ele>249.79999999999998</ele><time>2026-04-25T15:00:27.097Z</time></trkpt><trkpt lat="44.61908" lon="8.0119433"><ele>250.59999999999997</ele><time>2026-04-25T15:00:28.097Z</time></trkpt><trkpt lat="44.6191817" lon="8.0119217"><ele>251.4</ele><time>2026-04-25T15:00:29.097Z</time></trkpt><trkpt lat="44.61929" lon="8.01191"><ele>252.2</ele><time>2026-04-25T15:00:30.097Z</time></trkpt><trkpt lat="44.6194033" lon="8.0119317"><ele>253.0</ele><time>2026-04-25T15:00:31.097Z</time></trkpt><trkpt lat="44.6195267" lon="8.0119617"><ele>254.25</ele><time>2026-04-25T15:00:32.097Z</time></trkpt><trkpt lat="44.6196533" lon="8.0120167"><ele>255.5</ele><time>2026-04-25T15:00:33.097Z</time></trkpt><trkpt lat="44.619775" lon="8.012065"><ele>256.75</ele><time>2026-04-25T15:00:34.097Z</time></trkpt><trkpt lat="44.6199" lon="8.0121317"><ele>258.0</ele><time>2026-04-25T15:00:35.097Z</time></trkpt><trkpt lat="44.6200233" lon="8.01222"><ele>258.0</ele><time>2026-04-25T15:00:36.097Z</time></trkpt><trkpt lat="44.62014" lon="8.0122983"><ele>258.0</ele><time>2026-04-25T15:00:37.097Z</time></trkpt><trkpt lat="44.620265" lon="8.0123917"><ele>258.0</ele><time>2026-04-25T15:00:38.097Z</time></trkpt><trkpt lat="44.6204083" lon="8.0124633"><ele>258.0</ele><time>2026-04-25T15:00:39.097Z</time></trkpt><trkpt lat="44.6205683" lon="8.0125167"><ele>263.0</ele><time>2026-04-25T15:00:40.097Z</time></trkpt><trkpt lat="44.62075" lon="8.0125367"><ele>268.0</ele><time>2026-04-25T15:00:41.097Z</time></trkpt><trkpt lat="44.6209433" lon="8.0125433"><ele>273.0</ele><time>2026-04-25T15:00:42.097Z</time></trkpt><trkpt lat="44.6211217" lon="8.01256"><ele>275.5</ele><time>2026-04-25T15:00:43.097Z</time></trkpt><trkpt lat="44.62128" lon="8.0125667"><ele>278.0</ele><time>2026-04-25T15:00:44.097Z</time></trkpt><trkpt lat="44.62142" lon="8.01255"><ele>280.5</ele><time>2026-04-25T15:00:45.097Z</time></trkpt><trkpt lat="44.6215633" lon="8.0125133"><ele>283.0</ele><time>2026-04-25T15:00:46.097Z</time></trkpt><trkpt lat="44.6217033" lon="8.0124783"><ele>280.0</ele><time>2026-04-25T15:00:47.097Z</time></trkpt><trkpt lat="44.6218417" lon="8.0124733"><ele>277.0</ele><time>2026-04-25T15:00:48.097Z</time></trkpt><trkpt lat="44.621985" lon="8.0124767"><ele>274.0</ele><time>2026-04-25T15:00:49.097Z</time></trkpt><trkpt lat="44.6221267" lon="8.0124717"><ele>271.0</ele><time>2026-04-25T15:00:50.097Z</time></trkpt><trkpt lat="44.622275" lon="8.01245"><ele>271.0</ele><time>2026-04-25T15:00:51.097Z</time></trkpt><trkpt lat="44.62243" lon="8.0123917"><ele>271.0</ele><time>2026-04-25T15:00:52.097Z</time></trkpt><trkpt lat="44.6225817" lon="8.0123267"><ele>271.0</ele><time>2026-04-25T15:00:53.097Z</time></trkpt><trkpt lat="44.62272" lon="8.012255"><ele>274.5</ele><time>2026-04-25T15:00:54.097Z</time></trkpt><trkpt lat="44.6228467" lon="8.0121733"><ele>278.0</ele><time>2026-04-25T15:00:55.097Z</time></trkpt><trkpt lat="44.6229567" lon="8.01209"><ele>281.5</ele><time>2026-04-25T15:00:56.097Z</time></trkpt><trkpt lat="44.623065" lon="8.0120183"><ele>285.0</ele><time>2026-04-25T15:00:57.097Z</time></trkpt><trkpt lat="44.6231683" lon="8.0119767"><ele>285.0</ele><time>2026-04-25T15:00:58.097Z</time></trkpt><trkpt lat="44.6232667" lon="8.01195"><ele>285.0</ele><time>2026-04-25T15:00:59.097Z</time></trkpt><trkpt lat="44.62336" lon="8.0119567"><ele>285.0</ele><time>2026-04-25T15:01:00.097Z</time></trkpt><trkpt lat="44.6234583" lon="8.0119883"><ele>285.0</ele><time>2026-04-25T15:01:01.097Z</time></trkpt><trkpt lat="44.6235783" lon="8.0120383"><ele>285.0</ele><time>2026-04-25T15:01:02.097Z</time></trkpt><trkpt lat="44.623705" lon="8.0120967"><ele>285.5</ele><time>2026-04-25T15:01:03.097Z</time></trkpt><trkpt lat="44.623835" lon="8.01215"><ele>286.0</ele><time>2026-04-25T15:01:04.097Z</time></trkpt><trkpt lat="44.6239633" lon="8.0122117"><ele>286.5</ele><time>2026-04-25T15:01:05.097Z</time></trkpt><trkpt lat="44.6240767" lon="8.0122817"><ele>287.0</ele><time>2026-04-25T15:01:06.097Z</time></trkpt><trkpt lat="44.6241733" lon="8.0123667"><ele>287.0</ele><time>2026-04-25T15:01:07.097Z</time></trkpt><trkpt lat="44.6242383" lon="8.0124617"><ele>287.0</ele><time>2026-04-25T15:01:08.097Z</time></trkpt><trkpt lat="44.624275" lon="8.0125667"><ele>287.0</ele><time>2026-04-25T15:01:09.097Z</time></trkpt><trkpt lat="44.6242917" lon="8.01267"><ele>287.0</ele><time>2026-04-25T15:01:10.097Z</time></trkpt><trkpt lat="44.6242967" lon="8.0128217"><ele>287.0</ele><time>2026-04-25T15:01:12.097Z</time></trkpt><trkpt lat="44.624255" lon="8.0129933"><ele>288.83333333333337</ele><time>2026-04-25T15:01:14.096Z</time></trkpt><trkpt lat="44.6242167" lon="8.0130833"><ele>290.6666666666667</ele><time>2026-04-25T15:01:15.096Z</time></trkpt><trkpt lat="44.6241633" lon="8.0131617"><ele>292.5</ele><time>2026-04-25T15:01:16.096Z</time></trkpt><trkpt lat="44.6240933" lon="8.0132117"><ele>294.3333333333333</ele><time>2026-04-25T15:01:17.096Z</time></trkpt><trkpt lat="44.6240133" lon="8.013245"><ele>296.16666666666663</ele><time>2026-04-25T15:01:18.096Z</time></trkpt><trkpt lat="44.6239267" lon="8.0132733"><ele>298.0</ele><time>2026-04-25T15:01:19.096Z</time></trkpt><trkpt lat="44.623835" lon="8.0132983"><ele>299.6</ele><time>2026-04-25T15:01:20.096Z</time></trkpt><trkpt lat="44.623735" lon="8.01333"><ele>301.20000000000005</ele><time>2026-04-25T15:01:21.096Z</time></trkpt><trkpt lat="44.623635" lon="8.01336"><ele>302.8</ele><time>2026-04-25T15:01:22.096Z</time></trkpt><trkpt lat="44.6235383" lon="8.01339"><ele>304.40000000000003</ele><time>2026-04-25T15:01:23.096Z</time></trkpt><trkpt lat="44.6234417" lon="8.0134167"><ele>306.0</ele><time>2026-04-25T15:01:24.096Z</time></trkpt><trkpt lat="44.6233433" lon="8.0134567"><ele>308.0</ele><time>2026-04-25T15:01:25.096Z</time></trkpt><trkpt lat="44.62324" lon="8.0135033"><ele>310.0</ele><time>2026-04-25T15:01:26.096Z</time></trkpt><trkpt lat="44.6231267" lon="8.0135433"><ele>312.0</ele><time>2026-04-25T15:01:27.096Z</time></trkpt><trkpt lat="44.6230183" lon="8.0135733"><ele>314.0</ele><time>2026-04-25T15:01:28.096Z</time></trkpt><trkpt lat="44.6229267" lon="8.0135983"><ele>316.0</ele><time>2026-04-25T15:01:29.096Z</time></trkpt><trkpt lat="44.6228467" lon="8.013615"><ele>315.6</ele><time>2026-04-25T15:01:30.096Z</time></trkpt><trkpt lat="44.622765" lon="8.01365"><ele>315.20000000000005</ele><time>2026-04-25T15:01:31.096Z</time></trkpt><trkpt lat="44.622675" lon="8.013695"><ele>314.79999999999995</ele><time>2026-04-25T15:01:32.096Z</time></trkpt><trkpt lat="44.6225833" lon="8.0137533"><ele>314.4</ele><time>2026-04-25T15:01:33.096Z</time></trkpt><trkpt lat="44.6224967" lon="8.0138367"><ele>314.0</ele><time>2026-04-25T15:01:34.096Z</time></trkpt><trkpt lat="44.6224283" lon="8.013925"><ele>314.0</ele><time>2026-04-25T15:01:35.096Z</time></trkpt><trkpt lat="44.6223667" lon="8.0140067"><ele>314.0</ele><time>2026-04-25T15:01:36.096Z</time></trkpt><trkpt lat="44.6223167" lon="8.0140883"><ele>314.0</ele><time>2026-04-25T15:01:37.096Z</time></trkpt><trkpt lat="44.62228" lon="8.0141767"><ele>314.0</ele><time>2026-04-25T15:01:38.096Z</time></trkpt><trkpt lat="44.622255" lon="8.0142633"><ele>314.0</ele><time>2026-04-25T15:01:39.096Z</time></trkpt><trkpt lat="44.6222517" lon="8.014365"><ele>314.0</ele><time>2026-04-25T15:01:40.096Z</time></trkpt><trkpt lat="44.6222717" lon="8.0144717"><ele>317.79999999999995</ele><time>2026-04-25T15:01:41.096Z</time></trkpt><trkpt lat="44.6223167" lon="8.01457"><ele>321.59999999999997</ele><time>2026-04-25T15:01:42.096Z</time></trkpt><trkpt lat="44.6223933" lon="8.01466"><ele>325.4</ele><time>2026-04-25T15:01:43.096Z</time></trkpt><trkpt lat="44.6224833" lon="8.0147483"><ele>329.2</ele><time>2026-04-25T15:01:44.096Z</time></trkpt><trkpt lat="44.6225683" lon="8.0148333"><ele>333.0</ele><time>2026-04-25T15:01:45.096Z</time></trkpt><trkpt lat="44.6226583" lon="8.0149383"><ele>332.5</ele><time>2026-04-25T15:01:46.096Z</time></trkpt><trkpt lat="44.6227533" lon="8.0150483"><ele>332.0</ele><time>2026-04-25T15:01:47.096Z</time></trkpt><trkpt lat="44.622845" lon="8.0151617"><ele>331.5</ele><time>2026-04-25T15:01:48.096Z</time></trkpt><trkpt lat="44.6229217" lon="8.0152733"><ele>331.0</ele><time>2026-04-25T15:01:49.096Z</time></trkpt><trkpt lat="44.6230017" lon="8.0153883"><ele>331.0</ele><time>2026-04-25T15:01:50.096Z</time></trkpt><trkpt lat="44.623075" lon="8.0155033"><ele>331.0</ele><time>2026-04-25T15:01:51.096Z</time></trkpt><trkpt lat="44.62315" lon="8.0156167"><ele>331.0</ele><time>2026-04-25T15:01:52.096Z</time></trkpt><trkpt lat="44.6232267" lon="8.0157433"><ele>331.0</ele><time>2026-04-25T15:01:53.096Z</time></trkpt><trkpt lat="44.6233133" lon="8.01588"><ele>331.0</ele><time>2026-04-25T15:01:54.096Z</time></trkpt><trkpt lat="44.623425" lon="8.0160367"><ele>331.0</ele><time>2026-04-25T15:01:55.096Z</time></trkpt><trkpt lat="44.6235483" lon="8.0162167"><ele>331.0</ele><time>2026-04-25T15:01:56.096Z</time></trkpt><trkpt lat="44.62368" lon="8.01639"><ele>331.0</ele><time>2026-04-25T15:01:57.096Z</time></trkpt><trkpt lat="44.6238" lon="8.0165633"><ele>331.0</ele><time>2026-04-25T15:01:58.096Z</time></trkpt><trkpt lat="44.6239183" lon="8.0167233"><ele>331.0</ele><time>2026-04-25T15:01:59.096Z</time></trkpt><trkpt lat="44.6240283" lon="8.016885"><ele>333.5</ele><time>2026-04-25T15:02:00.096Z</time></trkpt><trkpt lat="44.6241183" lon="8.0170467"><ele>336.0</ele><time>2026-04-25T15:02:01.096Z</time></trkpt><trkpt lat="44.6242117" lon="8.0172167"><ele>338.5</ele><time>2026-04-25T15:02:02.096Z</time></trkpt><trkpt lat="44.62429" lon="8.01739"><ele>341.0</ele><time>2026-04-25T15:02:03.096Z</time></trkpt><trkpt lat="44.6243467" lon="8.0175767"><ele>343.75</ele><time>2026-04-25T15:02:04.096Z</time></trkpt><trkpt lat="44.6244033" lon="8.0177367"><ele>346.5</ele><time>2026-04-25T15:02:05.096Z</time></trkpt><trkpt lat="44.6244317" lon="8.0179067"><ele>349.25</ele><time>2026-04-25T15:02:06.096Z</time></trkpt><trkpt lat="44.62443" lon="8.0180767"><ele>352.0</ele><time>2026-04-25T15:02:07.096Z</time></trkpt><trkpt lat="44.6244" lon="8.0182633"><ele>354.66666666666663</ele><time>2026-04-25T15:02:08.096Z</time></trkpt><trkpt lat="44.6243683" lon="8.0184667"><ele>357.3333333333333</ele><time>2026-04-25T15:02:09.096Z</time></trkpt><trkpt lat="44.6243267" lon="8.0186883"><ele>360.0</ele><time>2026-04-25T15:02:10.096Z</time></trkpt><trkpt lat="44.6242817" lon="8.01891"><ele>360.0</ele><time>2026-04-25T15:02:11.096Z</time></trkpt><trkpt lat="44.6242333" lon="8.01913"><ele>360.0</ele><time>2026-04-25T15:02:12.096Z</time></trkpt><trkpt lat="44.624175" lon="8.0193367"><ele>360.0</ele><time>2026-04-25T15:02:13.096Z</time></trkpt><trkpt lat="44.6241183" lon="8.0195433"><ele>360.25</ele><time>2026-04-25T15:02:14.096Z</time></trkpt><trkpt lat="44.6240733" lon="8.0197317"><ele>360.5</ele><time>2026-04-25T15:02:15.096Z</time></trkpt><trkpt lat="44.6240267" lon="8.0199133"><ele>360.75</ele><time>2026-04-25T15:02:16.096Z</time></trkpt><trkpt lat="44.6239817" lon="8.0200817"><ele>361.0</ele><time>2026-04-25T15:02:17.096Z</time></trkpt><trkpt lat="44.623945" lon="8.0202433"><ele>361.25</ele><time>2026-04-25T15:02:18.096Z</time></trkpt><trkpt lat="44.6239133" lon="8.0204033"><ele>361.5</ele><time>2026-04-25T15:02:19.096Z</time></trkpt><trkpt lat="44.623885" lon="8.0205667"><ele>361.75</ele><time>2026-04-25T15:02:20.096Z</time></trkpt><trkpt lat="44.6238567" lon="8.0207267"><ele>362.0</ele><time>2026-04-25T15:02:21.096Z</time></trkpt><trkpt lat="44.62384" lon="8.0208867"><ele>363.5</ele><time>2026-04-25T15:02:22.096Z</time></trkpt><trkpt lat="44.6238183" lon="8.02105"><ele>365.0</ele><time>2026-04-25T15:02:23.096Z</time></trkpt><trkpt lat="44.6237967" lon="8.0212233"><ele>366.5</ele><time>2026-04-25T15:02:24.096Z</time></trkpt><trkpt lat="44.623775" lon="8.0214033"><ele>368.0</ele><time>2026-04-25T15:02:25.096Z</time></trkpt><trkpt lat="44.6237567" lon="8.0215983"><ele>369.5</ele><time>2026-04-25T15:02:26.096Z</time></trkpt><trkpt lat="44.6237333" lon="8.021795"><ele>371.0</ele><time>2026-04-25T15:02:27.096Z</time></trkpt><trkpt lat="44.6237" lon="8.0219817"><ele>372.5</ele><time>2026-04-25T15:02:28.096Z</time></trkpt><trkpt lat="44.6236883" lon="8.02214"><ele>374.0</ele><time>2026-04-25T15:02:29.096Z</time></trkpt><trkpt lat="44.6236733" lon="8.0222767"><ele>374.0</ele><time>2026-04-25T15:02:30.096Z</time></trkpt><trkpt lat="44.62366" lon="8.022405"><ele>374.0</ele><time>2026-04-25T15:02:31.096Z</time></trkpt><trkpt lat="44.6236483" lon="8.0225217"><ele>374.0</ele><time>2026-04-25T15:02:32.096Z</time></trkpt><trkpt lat="44.623655" lon="8.0226417"><ele>374.0</ele><time>2026-04-25T15:02:33.096Z</time></trkpt><trkpt lat="44.6236767" lon="8.0227683"><ele>374.0</ele><time>2026-04-25T15:02:34.096Z</time></trkpt><trkpt lat="44.6237117" lon="8.0228833"><ele>374.0</ele><time>2026-04-25T15:02:35.096Z</time></trkpt><trkpt lat="44.6237583" lon="8.022985"><ele>375.4</ele><time>2026-04-25T15:02:36.096Z</time></trkpt><trkpt lat="44.62381" lon="8.0230633"><ele>376.79999999999995</ele><time>2026-04-25T15:02:37.096Z</time></trkpt><trkpt lat="44.6238433" lon="8.0232067"><ele>378.20000000000005</ele><time>2026-04-25T15:02:39.096Z</time></trkpt><trkpt lat="44.623795" lon="8.0233667"><ele>379.6</ele><time>2026-04-25T15:02:41.096Z</time></trkpt><trkpt lat="44.6237583" lon="8.0234817"><ele>381.0</ele><time>2026-04-25T15:02:42.096Z</time></trkpt><trkpt lat="44.623715" lon="8.023615"><ele>380.8</ele><time>2026-04-25T15:02:43.096Z</time></trkpt><trkpt lat="44.62368" lon="8.023735"><ele>380.6</ele><time>2026-04-25T15:02:44.096Z</time></trkpt><trkpt lat="44.6236433" lon="8.023855"><ele>380.4</ele><time>2026-04-25T15:02:45.096Z</time></trkpt><trkpt lat="44.6236017" lon="8.023975"><ele>380.2</ele><time>2026-04-25T15:02:46.096Z</time></trkpt><trkpt lat="44.6235517" lon="8.0240833"><ele>380.0</ele><time>2026-04-25T15:02:47.096Z</time></trkpt><trkpt lat="44.623505" lon="8.0241883"><ele>380.0</ele><time>2026-04-25T15:02:48.096Z</time></trkpt><trkpt lat="44.6234517" lon="8.0242867"><ele>380.0</ele><time>2026-04-25T15:02:49.096Z</time></trkpt><trkpt lat="44.6233867" lon="8.0243733"><ele>380.0</ele><time>2026-04-25T15:02:50.096Z</time></trkpt><trkpt lat="44.6233133" lon="8.02444"><ele>380.0</ele><time>2026-04-25T15:02:51.096Z</time></trkpt><trkpt lat="44.6232483" lon="8.0244867"><ele>380.0</ele><time>2026-04-25T15:02:52.096Z</time></trkpt><trkpt lat="44.6231667" lon="8.0245133"><ele>380.0</ele><time>2026-04-25T15:02:53.096Z</time></trkpt><trkpt lat="44.623085" lon="8.0245383"><ele>380.0</ele><time>2026-04-25T15:02:54.096Z</time></trkpt><trkpt lat="44.6229983" lon="8.0245633"><ele>380.0</ele><time>2026-04-25T15:02:55.096Z</time></trkpt><trkpt lat="44.6228933" lon="8.02458"><ele>380.0</ele><time>2026-04-25T15:02:56.096Z</time></trkpt><trkpt lat="44.62278" lon="8.0245983"><ele>380.0</ele><time>2026-04-25T15:02:57.096Z</time></trkpt><trkpt lat="44.6226733" lon="8.0246183"><ele>380.0</ele><time>2026-04-25T15:02:58.096Z</time></trkpt><trkpt lat="44.6225667" lon="8.0246217"><ele>378.4</ele><time>2026-04-25T15:02:59.096Z</time></trkpt><trkpt lat="44.6224617" lon="8.02463"><ele>376.8</ele><time>2026-04-25T15:03:00.096Z</time></trkpt><trkpt lat="44.622355" lon="8.02464"><ele>375.20000000000005</ele><time>2026-04-25T15:03:01.096Z</time></trkpt><trkpt lat="44.6222567" lon="8.0246517"><ele>373.6</ele><time>2026-04-25T15:03:02.096Z</time></trkpt><trkpt lat="44.6221683" lon="8.024665"><ele>372.0</ele><time>2026-04-25T15:03:03.096Z</time></trkpt><trkpt lat="44.6220867" lon="8.0246733"><ele>372.00000000000006</ele><time>2026-04-25T15:03:04.096Z</time></trkpt><trkpt lat="44.6220067" lon="8.0246817"><ele>372.0</ele><time>2026-04-25T15:03:05.096Z</time></trkpt><trkpt lat="44.6219333" lon="8.0246983"><ele>372.0</ele><time>2026-04-25T15:03:06.096Z</time></trkpt><trkpt lat="44.6218633" lon="8.0247133"><ele>372.0</ele><time>2026-04-25T15:03:07.096Z</time></trkpt><trkpt lat="44.6217983" lon="8.0247233"><ele>372.0</ele><time>2026-04-25T15:03:08.096Z</time></trkpt><trkpt lat="44.621725" lon="8.0247333"><ele>372.00000000000006</ele><time>2026-04-25T15:03:09.096Z</time></trkpt><trkpt lat="44.6216567" lon="8.0247483"><ele>372.0</ele><time>2026-04-25T15:03:10.096Z</time></trkpt><trkpt lat="44.62159" lon="8.024755"><ele>371.5</ele><time>2026-04-25T15:03:11.096Z</time></trkpt><trkpt lat="44.6215267" lon="8.0247517"><ele>371.0</ele><time>2026-04-25T15:03:12.096Z</time></trkpt><trkpt lat="44.62143" lon="8.0247233"><ele>370.5</ele><time>2026-04-25T15:03:14.096Z</time></trkpt><trkpt lat="44.6213617" lon="8.02467"><ele>370.0</ele><time>2026-04-25T15:03:16.096Z</time></trkpt><trkpt lat="44.6212883" lon="8.0246"><ele>369.5</ele><time>2026-04-25T15:03:19.096Z</time></trkpt><trkpt lat="44.6212083" lon="8.0245833"><ele>369.0</ele><time>2026-04-25T15:03:22.096Z</time></trkpt><trkpt lat="44.621145" lon="8.0245433"><ele>355.0</ele><time>2026-04-25T15:03:26.096Z</time></trkpt><trkpt lat="44.6211167" lon="8.0244533"><ele>355.0</ele><time>2026-04-25T15:03:30.096Z</time></trkpt></trkseg><trkseg><trkpt lat="44.6210783" lon="8.024325"><ele>355.0</ele><time>2026-04-25T16:18:34.107Z</time></trkpt><trkpt lat="44.6211017" lon="8.0244417"><ele>355.0</ele><time>2026-04-25T16:18:59.107Z</time></trkpt><trkpt lat="44.621155" lon="8.0245233"><ele>355.0</ele><time>2026-04-25T16:19:02.107Z</time></trkpt><trkpt lat="44.62123" lon="8.0245717"><ele>355.0</ele><time>2026-04-25T16:19:04.107Z</time></trkpt><trkpt lat="44.621335" lon="8.0246167"><ele>355.0</ele><time>2026-04-25T16:19:06.107Z</time></trkpt><trkpt lat="44.6214417" lon="8.024695"><ele>357.8</ele><time>2026-04-25T16:19:08.107Z</time></trkpt><trkpt lat="44.6215017" lon="8.024725"><ele>360.6</ele><time>2026-04-25T16:19:09.107Z</time></trkpt><trkpt lat="44.621565" lon="8.0247417"><ele>363.4</ele><time>2026-04-25T16:19:10.107Z</time></trkpt><trkpt lat="44.6216817" lon="8.0247367"><ele>366.2</ele><time>2026-04-25T16:19:12.107Z</time></trkpt><trkpt lat="44.62181" lon="8.0247183"><ele>369.0</ele><time>2026-04-25T16:19:14.107Z</time></trkpt><trkpt lat="44.6218867" lon="8.0247067"><ele>369.0</ele><time>2026-04-25T16:19:15.107Z</time></trkpt><trkpt lat="44.6219717" lon="8.024695"><ele>369.0</ele><time>2026-04-25T16:19:16.107Z</time></trkpt><trkpt lat="44.6220617" lon="8.0246833"><ele>369.0</ele><time>2026-04-25T16:19:17.107Z</time></trkpt><trkpt lat="44.6221433" lon="8.0246717"><ele>369.0</ele><time>2026-04-25T16:19:18.107Z</time></trkpt><trkpt lat="44.62222" lon="8.024665"><ele>369.0</ele><time>2026-04-25T16:19:19.107Z</time></trkpt><trkpt lat="44.6222917" lon="8.0246617"><ele>369.0</ele><time>2026-04-25T16:19:20.107Z</time></trkpt><trkpt lat="44.622355" lon="8.024655"><ele>369.5</ele><time>2026-04-25T16:19:21.107Z</time></trkpt><trkpt lat="44.6224233" lon="8.024645"><ele>370.0</ele><time>2026-04-25T16:19:22.107Z</time></trkpt><trkpt lat="44.6225" lon="8.0246317"><ele>370.5</ele><time>2026-04-25T16:19:23.107Z</time></trkpt><trkpt lat="44.62258" lon="8.0246133"><ele>371.0</ele><time>2026-04-25T16:19:24.107Z</time></trkpt><trkpt lat="44.6226683" lon="8.024605"><ele>371.5</ele><time>2026-04-25T16:19:25.107Z</time></trkpt><trkpt lat="44.6227567" lon="8.0245933"><ele>372.0</ele><time>2026-04-25T16:19:26.107Z</time></trkpt><trkpt lat="44.62285" lon="8.0245783"><ele>373.6</ele><time>2026-04-25T16:19:27.107Z</time></trkpt><trkpt lat="44.62295" lon="8.0245667"><ele>375.20000000000005</ele><time>2026-04-25T16:19:28.107Z</time></trkpt><trkpt lat="44.6230467" lon="8.0245517"><ele>376.8</ele><time>2026-04-25T16:19:29.107Z</time></trkpt><trkpt lat="44.6231417" lon="8.0245217"><ele>378.4</ele><time>2026-04-25T16:19:30.107Z</time></trkpt><trkpt lat="44.6232433" lon="8.0244883"><ele>380.0</ele><time>2026-04-25T16:19:31.107Z</time></trkpt><trkpt lat="44.6233367" lon="8.0244333"><ele>380.0</ele><time>2026-04-25T16:19:32.107Z</time></trkpt><trkpt lat="44.623405" lon="8.024355"><ele>380.0</ele><time>2026-04-25T16:19:33.107Z</time></trkpt><trkpt lat="44.623465" lon="8.0242567"><ele>380.0</ele><time>2026-04-25T16:19:34.107Z</time></trkpt><trkpt lat="44.6235233" lon="8.024135"><ele>380.0</ele><time>2026-04-25T16:19:35.107Z</time></trkpt><trkpt lat="44.62358" lon="8.024"><ele>380.0</ele><time>2026-04-25T16:19:36.107Z</time></trkpt><trkpt lat="44.6236367" lon="8.0238583"><ele>380.2</ele><time>2026-04-25T16:19:37.107Z</time></trkpt><trkpt lat="44.6236783" lon="8.0237133"><ele>380.4</ele><time>2026-04-25T16:19:38.107Z</time></trkpt><trkpt lat="44.6237117" lon="8.023575"><ele>380.6</ele><time>2026-04-25T16:19:39.107Z</time></trkpt><trkpt lat="44.6237367" lon="8.02346"><ele>380.8</ele><time>2026-04-25T16:19:40.108Z</time></trkpt><trkpt lat="44.6237583" lon="8.0233617"><ele>381.0</ele><time>2026-04-25T16:19:41.107Z</time></trkpt><trkpt lat="44.6237917" lon="8.023245"><ele>381.0</ele><time>2026-04-25T16:19:43.107Z</time></trkpt><trkpt lat="44.6238683" lon="8.023195"><ele>381.0</ele><time>2026-04-25T16:19:46.107Z</time></trkpt><trkpt lat="44.6239567" lon="8.0232767"><ele>381.0</ele><time>2026-04-25T16:19:48.107Z</time></trkpt><trkpt lat="44.6240133" lon="8.02335"><ele>381.0</ele><time>2026-04-25T16:19:49.107Z</time></trkpt><trkpt lat="44.6240667" lon="8.0234217"><ele>381.0</ele><time>2026-04-25T16:19:50.107Z</time></trkpt><trkpt lat="44.6241117" lon="8.0235017"><ele>381.0</ele><time>2026-04-25T16:19:51.107Z</time></trkpt><trkpt lat="44.6241583" lon="8.0235817"><ele>381.8333333333333</ele><time>2026-04-25T16:19:52.107Z</time></trkpt><trkpt lat="44.624205" lon="8.0236633"><ele>382.66666666666663</ele><time>2026-04-25T16:19:53.107Z</time></trkpt><trkpt lat="44.6242583" lon="8.0237517"><ele>383.5</ele><time>2026-04-25T16:19:54.107Z</time></trkpt><trkpt lat="44.6243133" lon="8.023845"><ele>384.3333333333333</ele><time>2026-04-25T16:19:55.107Z</time></trkpt><trkpt lat="44.62437" lon="8.0239417"><ele>385.16666666666663</ele><time>2026-04-25T16:19:56.107Z</time></trkpt><trkpt lat="44.6244167" lon="8.0240683"><ele>386.0</ele><time>2026-04-25T16:19:57.107Z</time></trkpt><trkpt lat="44.6244667" lon="8.0241917"><ele>386.6</ele><time>2026-04-25T16:19:58.107Z</time></trkpt><trkpt lat="44.6245133" lon="8.0243383"><ele>387.20000000000005</ele><time>2026-04-25T16:19:59.107Z</time></trkpt><trkpt lat="44.6245683" lon="8.024475"><ele>387.79999999999995</ele><time>2026-04-25T16:20:00.107Z</time></trkpt><trkpt lat="44.6246167" lon="8.0245983"><ele>388.4</ele><time>2026-04-25T16:20:01.107Z</time></trkpt><trkpt lat="44.6246617" lon="8.02471"><ele>389.0</ele><time>2026-04-25T16:20:02.107Z</time></trkpt><trkpt lat="44.6247017" lon="8.0248283"><ele>389.0</ele><time>2026-04-25T16:20:03.107Z</time></trkpt><trkpt lat="44.624745" lon="8.024935"><ele>389.0</ele><time>2026-04-25T16:20:04.107Z</time></trkpt><trkpt lat="44.624785" lon="8.025045"><ele>389.0</ele><time>2026-04-25T16:20:05.107Z</time></trkpt><trkpt lat="44.6248317" lon="8.02515"><ele>389.0</ele><time>2026-04-25T16:20:06.107Z</time></trkpt><trkpt lat="44.6248867" lon="8.025255"><ele>389.0</ele><time>2026-04-25T16:20:07.107Z</time></trkpt><trkpt lat="44.62495" lon="8.0253617"><ele>391.25</ele><time>2026-04-25T16:20:08.107Z</time></trkpt><trkpt lat="44.625025" lon="8.0254783"><ele>393.5</ele><time>2026-04-25T16:20:09.107Z</time></trkpt><trkpt lat="44.6251" lon="8.0256033"><ele>395.75</ele><time>2026-04-25T16:20:10.107Z</time></trkpt><trkpt lat="44.6251767" lon="8.0257333"><ele>398.0</ele><time>2026-04-25T16:20:11.107Z</time></trkpt><trkpt lat="44.62525" lon="8.025865"><ele>396.25</ele><time>2026-04-25T16:20:12.107Z</time></trkpt><trkpt lat="44.6253217" lon="8.0260017"><ele>394.5</ele><time>2026-04-25T16:20:13.107Z</time></trkpt><trkpt lat="44.625385" lon="8.0261367"><ele>392.75</ele><time>2026-04-25T16:20:14.107Z</time></trkpt><trkpt lat="44.625455" lon="8.02626"><ele>391.0</ele><time>2026-04-25T16:20:15.107Z</time></trkpt><trkpt lat="44.6255167" lon="8.0263933"><ele>391.0</ele><time>2026-04-25T16:20:16.107Z</time></trkpt><trkpt lat="44.62558" lon="8.0265417"><ele>391.0</ele><time>2026-04-25T16:20:17.107Z</time></trkpt><trkpt lat="44.6256383" lon="8.0266933"><ele>391.0</ele><time>2026-04-25T16:20:18.107Z</time></trkpt><trkpt lat="44.6256967" lon="8.0268467"><ele>391.0</ele><time>2026-04-25T16:20:19.107Z</time></trkpt><trkpt lat="44.6257583" lon="8.0270083"><ele>393.75</ele><time>2026-04-25T16:20:20.107Z</time></trkpt><trkpt lat="44.6258133" lon="8.027165"><ele>396.5</ele><time>2026-04-25T16:20:21.107Z</time></trkpt><trkpt lat="44.625855" lon="8.0273283"><ele>399.25</ele><time>2026-04-25T16:20:22.107Z</time></trkpt><trkpt lat="44.6258783" lon="8.02751"><ele>402.0</ele><time>2026-04-25T16:20:23.107Z</time></trkpt><trkpt lat="44.6258867" lon="8.0276983"><ele>403.5</ele><time>2026-04-25T16:20:24.107Z</time></trkpt><trkpt lat="44.6258867" lon="8.0278933"><ele>405.0</ele><time>2026-04-25T16:20:25.107Z</time></trkpt><trkpt lat="44.6258683" lon="8.0280917"><ele>406.5</ele><time>2026-04-25T16:20:26.107Z</time></trkpt><trkpt lat="44.625855" lon="8.0283033"><ele>408.0</ele><time>2026-04-25T16:20:27.107Z</time></trkpt><trkpt lat="44.625845" lon="8.0285133"><ele>408.75</ele><time>2026-04-25T16:20:28.107Z</time></trkpt><trkpt lat="44.6258267" lon="8.028715"><ele>409.5</ele><time>2026-04-25T16:20:29.107Z</time></trkpt><trkpt lat="44.6258183" lon="8.0288917"><ele>410.25</ele><time>2026-04-25T16:20:30.107Z</time></trkpt><trkpt lat="44.6258117" lon="8.029075"><ele>411.0</ele><time>2026-04-25T16:20:31.107Z</time></trkpt><trkpt lat="44.6258" lon="8.0292767"><ele>412.5</ele><time>2026-04-25T16:20:32.107Z</time></trkpt><trkpt lat="44.6258083" lon="8.0294633"><ele>414.0</ele><time>2026-04-25T16:20:33.107Z</time></trkpt><trkpt lat="44.6258283" lon="8.02967"><ele>415.5</ele><time>2026-04-25T16:20:34.107Z</time></trkpt><trkpt lat="44.62586" lon="8.0298683"><ele>417.0</ele><time>2026-04-25T16:20:35.107Z</time></trkpt><trkpt lat="44.625895" lon="8.03007"><ele>419.33333333333337</ele><time>2026-04-25T16:20:36.107Z</time></trkpt><trkpt lat="44.625945" lon="8.03028"><ele>421.6666666666667</ele><time>2026-04-25T16:20:37.107Z</time></trkpt><trkpt lat="44.62599" lon="8.0304883"><ele>424.0</ele><time>2026-04-25T16:20:38.107Z</time></trkpt><trkpt lat="44.6260583" lon="8.0307117"><ele>421.33333333333337</ele><time>2026-04-25T16:20:39.107Z</time></trkpt><trkpt lat="44.6261317" lon="8.0309217"><ele>418.66666666666663</ele><time>2026-04-25T16:20:40.107Z</time></trkpt><trkpt lat="44.6262117" lon="8.0311333"><ele>416.0</ele><time>2026-04-25T16:20:41.107Z</time></trkpt><trkpt lat="44.6263" lon="8.0313433"><ele>416.0</ele><time>2026-04-25T16:20:42.107Z</time></trkpt><trkpt lat="44.6263817" lon="8.0315367"><ele>416.0</ele><time>2026-04-25T16:20:43.107Z</time></trkpt><trkpt lat="44.62646" lon="8.03174"><ele>416.0</ele><time>2026-04-25T16:20:44.107Z</time></trkpt><trkpt lat="44.6265433" lon="8.0319433"><ele>418.3333333333333</ele><time>2026-04-25T16:20:45.107Z</time></trkpt><trkpt lat="44.6266233" lon="8.032135"><ele>420.66666666666663</ele><time>2026-04-25T16:20:46.108Z</time></trkpt><trkpt lat="44.6267067" lon="8.032315"><ele>423.0</ele><time>2026-04-25T16:20:47.107Z</time></trkpt><trkpt lat="44.6267867" lon="8.0324817"><ele>423.0</ele><time>2026-04-25T16:20:48.107Z</time></trkpt><trkpt lat="44.626865" lon="8.03264"><ele>423.0</ele><time>2026-04-25T16:20:49.107Z</time></trkpt><trkpt lat="44.62694" lon="8.0327833"><ele>423.0</ele><time>2026-04-25T16:20:50.107Z</time></trkpt><trkpt lat="44.6270367" lon="8.0328967"><ele>423.0</ele><time>2026-04-25T16:20:51.107Z</time></trkpt><trkpt lat="44.6271383" lon="8.0329967"><ele>423.0</ele><time>2026-04-25T16:20:52.107Z</time></trkpt><trkpt lat="44.62725" lon="8.0331"><ele>423.0</ele><time>2026-04-25T16:20:53.107Z</time></trkpt><trkpt lat="44.627375" lon="8.033205"><ele>423.0</ele><time>2026-04-25T16:20:54.107Z</time></trkpt><trkpt lat="44.6275" lon="8.03332"><ele>423.0</ele><time>2026-04-25T16:20:55.107Z</time></trkpt><trkpt lat="44.627625" lon="8.03345"><ele>423.66666666666663</ele><time>2026-04-25T16:20:56.107Z</time></trkpt><trkpt lat="44.6277417" lon="8.0335983"><ele>424.3333333333333</ele><time>2026-04-25T16:20:57.107Z</time></trkpt><trkpt lat="44.6278583" lon="8.0337333"><ele>425.0</ele><time>2026-04-25T16:20:58.107Z</time></trkpt><trkpt lat="44.6279783" lon="8.03385"><ele>425.0</ele><time>2026-04-25T16:20:59.107Z</time></trkpt><trkpt lat="44.6281" lon="8.033965"><ele>425.0</ele><time>2026-04-25T16:21:00.107Z</time></trkpt><trkpt lat="44.62822" lon="8.0340783"><ele>425.0</ele><time>2026-04-25T16:21:01.107Z</time></trkpt><trkpt lat="44.6283317" lon="8.0342017"><ele>425.0</ele><time>2026-04-25T16:21:02.107Z</time></trkpt><trkpt lat="44.628435" lon="8.0343167"><ele>427.25</ele><time>2026-04-25T16:21:03.107Z</time></trkpt><trkpt lat="44.6285367" lon="8.034425"><ele>429.5</ele><time>2026-04-25T16:21:04.107Z</time></trkpt><trkpt lat="44.6286283" lon="8.03453"><ele>431.75</ele><time>2026-04-25T16:21:05.107Z</time></trkpt><trkpt lat="44.6287117" lon="8.034615"><ele>434.0</ele><time>2026-04-25T16:21:06.107Z</time></trkpt><trkpt lat="44.6288" lon="8.0346917"><ele>433.99999999999994</ele><time>2026-04-25T16:21:07.107Z</time></trkpt><trkpt lat="44.62888" lon="8.0347583"><ele>434.0</ele><time>2026-04-25T16:21:08.107Z</time></trkpt><trkpt lat="44.628945" lon="8.0348167"><ele>434.0</ele><time>2026-04-25T16:21:09.107Z</time></trkpt><trkpt lat="44.6290233" lon="8.0349117"><ele>434.0</ele><time>2026-04-25T16:21:11.107Z</time></trkpt><trkpt lat="44.6290633" lon="8.0349833"><ele>433.99999999999994</ele><time>2026-04-25T16:21:13.107Z</time></trkpt><trkpt lat="44.62913" lon="8.0350667"><ele>434.0</ele><time>2026-04-25T16:21:15.107Z</time></trkpt><trkpt lat="44.6292" lon="8.0351117"><ele>435.75</ele><time>2026-04-25T16:21:16.107Z</time></trkpt><trkpt lat="44.6292983" lon="8.03514"><ele>437.5</ele><time>2026-04-25T16:21:17.107Z</time></trkpt><trkpt lat="44.6294133" lon="8.0351417"><ele>439.25</ele><time>2026-04-25T16:21:18.107Z</time></trkpt><trkpt lat="44.6295317" lon="8.0351233"><ele>441.0</ele><time>2026-04-25T16:21:19.107Z</time></trkpt><trkpt lat="44.6296567" lon="8.03507"><ele>441.0</ele><time>2026-04-25T16:21:20.107Z</time></trkpt><trkpt lat="44.6297933" lon="8.0349967"><ele>441.0</ele><time>2026-04-25T16:21:21.107Z</time></trkpt><trkpt lat="44.62992" lon="8.0349083"><ele>441.0</ele><time>2026-04-25T16:21:22.107Z</time></trkpt><trkpt lat="44.6300483" lon="8.0348083"><ele>441.0</ele><time>2026-04-25T16:21:23.107Z</time></trkpt><trkpt lat="44.630175" lon="8.0347233"><ele>440.5</ele><time>2026-04-25T16:21:24.107Z</time></trkpt><trkpt lat="44.630305" lon="8.034635"><ele>440.0</ele><time>2026-04-25T16:21:25.107Z</time></trkpt><trkpt lat="44.6304367" lon="8.034555"><ele>439.5</ele><time>2026-04-25T16:21:26.107Z</time></trkpt><trkpt lat="44.6305633" lon="8.0344683"><ele>439.0</ele><time>2026-04-25T16:21:27.107Z</time></trkpt><trkpt lat="44.6306967" lon="8.034375"><ele>439.0</ele><time>2026-04-25T16:21:28.107Z</time></trkpt><trkpt lat="44.63083" lon="8.0342833"><ele>439.0</ele><time>2026-04-25T16:21:29.107Z</time></trkpt><trkpt lat="44.630955" lon="8.034195"><ele>439.0</ele><time>2026-04-25T16:21:30.107Z</time></trkpt><trkpt lat="44.631075" lon="8.0340917"><ele>439.0</ele><time>2026-04-25T16:21:31.107Z</time></trkpt><trkpt lat="44.6311883" lon="8.033975"><ele>437.6666666666667</ele><time>2026-04-25T16:21:32.107Z</time></trkpt><trkpt lat="44.6313017" lon="8.033835"><ele>436.33333333333337</ele><time>2026-04-25T16:21:33.107Z</time></trkpt><trkpt lat="44.6314067" lon="8.0336867"><ele>435.0</ele><time>2026-04-25T16:21:34.107Z</time></trkpt><trkpt lat="44.631515" lon="8.0335317"><ele>435.0</ele><time>2026-04-25T16:21:35.107Z</time></trkpt><trkpt lat="44.6316283" lon="8.033375"><ele>435.0</ele><time>2026-04-25T16:21:36.107Z</time></trkpt><trkpt lat="44.631745" lon="8.0332133"><ele>435.0</ele><time>2026-04-25T16:21:37.107Z</time></trkpt><trkpt lat="44.63186" lon="8.0330517"><ele>435.66666666666663</ele><time>2026-04-25T16:21:38.107Z</time></trkpt><trkpt lat="44.631985" lon="8.0329033"><ele>436.3333333333333</ele><time>2026-04-25T16:21:39.107Z</time></trkpt><trkpt lat="44.63212" lon="8.03277"><ele>437.0</ele><time>2026-04-25T16:21:40.107Z</time></trkpt><trkpt lat="44.6322617" lon="8.0326433"><ele>437.0</ele><time>2026-04-25T16:21:41.107Z</time></trkpt><trkpt lat="44.6323883" lon="8.03254"><ele>437.0</ele><time>2026-04-25T16:21:42.107Z</time></trkpt><trkpt lat="44.6325083" lon="8.0324333"><ele>437.0</ele><time>2026-04-25T16:21:43.107Z</time></trkpt><trkpt lat="44.63264" lon="8.032335"><ele>437.0</ele><time>2026-04-25T16:21:44.107Z</time></trkpt><trkpt lat="44.6327633" lon="8.0322583"><ele>438.0</ele><time>2026-04-25T16:21:45.107Z</time></trkpt><trkpt lat="44.632905" lon="8.0322033"><ele>439.0</ele><time>2026-04-25T16:21:46.107Z</time></trkpt><trkpt lat="44.6330517" lon="8.032195"><ele>440.0</ele><time>2026-04-25T16:21:47.107Z</time></trkpt><trkpt lat="44.633195" lon="8.032215"><ele>441.0</ele><time>2026-04-25T16:21:48.107Z</time></trkpt><trkpt lat="44.633335" lon="8.03225"><ele>441.0</ele><time>2026-04-25T16:21:49.107Z</time></trkpt><trkpt lat="44.6334717" lon="8.032285"><ele>441.0</ele><time>2026-04-25T16:21:50.107Z</time></trkpt><trkpt lat="44.6335967" lon="8.0323417"><ele>441.0</ele><time>2026-04-25T16:21:51.107Z</time></trkpt><trkpt lat="44.63371" lon="8.032415"><ele>441.0</ele><time>2026-04-25T16:21:52.107Z</time></trkpt><trkpt lat="44.6338083" lon="8.03252"><ele>441.4</ele><time>2026-04-25T16:21:53.107Z</time></trkpt><trkpt lat="44.6339" lon="8.032625"><ele>441.8</ele><time>2026-04-25T16:21:54.107Z</time></trkpt><trkpt lat="44.63399" lon="8.0327017"><ele>442.19999999999993</ele><time>2026-04-25T16:21:55.107Z</time></trkpt><trkpt lat="44.6340833" lon="8.03274"><ele>442.59999999999997</ele><time>2026-04-25T16:21:56.107Z</time></trkpt><trkpt lat="44.6341867" lon="8.0327217"><ele>443.0</ele><time>2026-04-25T16:21:57.107Z</time></trkpt><trkpt lat="44.6342917" lon="8.03265"><ele>443.0</ele><time>2026-04-25T16:21:58.107Z</time></trkpt><trkpt lat="44.63438" lon="8.03254"><ele>443.0</ele><time>2026-04-25T16:21:59.107Z</time></trkpt><trkpt lat="44.6344683" lon="8.0324133"><ele>443.0</ele><time>2026-04-25T16:22:00.107Z</time></trkpt><trkpt lat="44.6345583" lon="8.0322883"><ele>443.0</ele><time>2026-04-25T16:22:01.107Z</time></trkpt><trkpt lat="44.6346467" lon="8.032175"><ele>443.0</ele><time>2026-04-25T16:22:02.107Z</time></trkpt><trkpt lat="44.6347333" lon="8.0320567"><ele>443.0</ele><time>2026-04-25T16:22:03.107Z</time></trkpt><trkpt lat="44.6348267" lon="8.0319333"><ele>443.0</ele><time>2026-04-25T16:22:04.107Z</time></trkpt><trkpt lat="44.634925" lon="8.0318233"><ele>443.0</ele><time>2026-04-25T16:22:05.107Z</time></trkpt><trkpt lat="44.6350317" lon="8.03172"><ele>443.0</ele><time>2026-04-25T16:22:06.108Z</time></trkpt><trkpt lat="44.6351433" lon="8.0316567"><ele>443.0</ele><time>2026-04-25T16:22:07.107Z</time></trkpt><trkpt lat="44.6352617" lon="8.031655"><ele>443.0</ele><time>2026-04-25T16:22:08.107Z</time></trkpt><trkpt lat="44.63539" lon="8.031695"><ele>443.0</ele><time>2026-04-25T16:22:09.107Z</time></trkpt><trkpt lat="44.6355133" lon="8.03179"><ele>442.5</ele><time>2026-04-25T16:22:10.107Z</time></trkpt><trkpt lat="44.6356267" lon="8.0319017"><ele>442.0</ele><time>2026-04-25T16:22:11.107Z</time></trkpt><trkpt lat="44.635745" lon="8.0320033"><ele>441.5</ele><time>2026-04-25T16:22:12.107Z</time></trkpt><trkpt lat="44.6358617" lon="8.0321117"><ele>441.0</ele><time>2026-04-25T16:22:13.107Z</time></trkpt><trkpt lat="44.6359817" lon="8.032215"><ele>441.0</ele><time>2026-04-25T16:22:14.107Z</time></trkpt><trkpt lat="44.6361017" lon="8.0323167"><ele>441.0</ele><time>2026-04-25T16:22:15.107Z</time></trkpt><trkpt lat="44.6362183" lon="8.03242"><ele>441.0</ele><time>2026-04-25T16:22:16.107Z</time></trkpt><trkpt lat="44.6363417" lon="8.03253"><ele>441.0</ele><time>2026-04-25T16:22:17.107Z</time></trkpt><trkpt lat="44.6364583" lon="8.0326317"><ele>440.5</ele><time>2026-04-25T16:22:18.107Z</time></trkpt><trkpt lat="44.636575" lon="8.0327317"><ele>440.0</ele><time>2026-04-25T16:22:19.107Z</time></trkpt><trkpt lat="44.6366883" lon="8.0328317"><ele>439.5</ele><time>2026-04-25T16:22:20.107Z</time></trkpt><trkpt lat="44.636795" lon="8.0329333"><ele>439.0</ele><time>2026-04-25T16:22:21.107Z</time></trkpt><trkpt lat="44.6369017" lon="8.0330283"><ele>439.0</ele><time>2026-04-25T16:22:22.107Z</time></trkpt><trkpt lat="44.6370017" lon="8.0331067"><ele>439.0</ele><time>2026-04-25T16:22:23.107Z</time></trkpt><trkpt lat="44.6371" lon="8.0331567"><ele>439.0</ele><time>2026-04-25T16:22:24.107Z</time></trkpt><trkpt lat="44.6372133" lon="8.03317"><ele>439.0</ele><time>2026-04-25T16:22:25.107Z</time></trkpt><trkpt lat="44.637335" lon="8.0331483"><ele>439.0</ele><time>2026-04-25T16:22:26.107Z</time></trkpt><trkpt lat="44.6374617" lon="8.03309"><ele>439.0</ele><time>2026-04-25T16:22:27.107Z</time></trkpt><trkpt lat="44.63759" lon="8.0329967"><ele>439.0</ele><time>2026-04-25T16:22:28.107Z</time></trkpt><trkpt lat="44.6377183" lon="8.0329033"><ele>439.0</ele><time>2026-04-25T16:22:29.107Z</time></trkpt><trkpt lat="44.6378567" lon="8.0328333"><ele>437.0</ele><time>2026-04-25T16:22:30.107Z</time></trkpt><trkpt lat="44.6380017" lon="8.0328017"><ele>435.0</ele><time>2026-04-25T16:22:31.107Z</time></trkpt><trkpt lat="44.6381483" lon="8.032795"><ele>433.0</ele><time>2026-04-25T16:22:32.107Z</time></trkpt><trkpt lat="44.6382867" lon="8.0328033"><ele>431.0</ele><time>2026-04-25T16:22:33.107Z</time></trkpt><trkpt lat="44.6384183" lon="8.03281"><ele>431.0</ele><time>2026-04-25T16:22:34.107Z</time></trkpt><trkpt lat="44.6385517" lon="8.032795"><ele>431.0</ele><time>2026-04-25T16:22:35.107Z</time></trkpt><trkpt lat="44.6386817" lon="8.0327383"><ele>431.0</ele><time>2026-04-25T16:22:36.107Z</time></trkpt><trkpt lat="44.6388067" lon="8.0326483"><ele>431.0</ele><time>2026-04-25T16:22:37.107Z</time></trkpt><trkpt lat="44.6389417" lon="8.032535"><ele>427.3333333333333</ele><time>2026-04-25T16:22:38.107Z</time></trkpt><trkpt lat="44.6390783" lon="8.0324183"><ele>423.66666666666663</ele><time>2026-04-25T16:22:39.107Z</time></trkpt><trkpt lat="44.639215" lon="8.032295"><ele>420.0</ele><time>2026-04-25T16:22:40.107Z</time></trkpt><trkpt lat="44.639355" lon="8.03217"><ele>418.5</ele><time>2026-04-25T16:22:41.107Z</time></trkpt><trkpt lat="44.6394817" lon="8.0320617"><ele>417.0</ele><time>2026-04-25T16:22:42.107Z</time></trkpt><trkpt lat="44.6396117" lon="8.0319567"><ele>415.5</ele><time>2026-04-25T16:22:43.107Z</time></trkpt><trkpt lat="44.6397383" lon="8.0318533"><ele>414.0</ele><time>2026-04-25T16:22:44.107Z</time></trkpt><trkpt lat="44.639865" lon="8.0317783"><ele>414.0</ele><time>2026-04-25T16:22:45.107Z</time></trkpt><trkpt lat="44.6399833" lon="8.0317267"><ele>414.0</ele><time>2026-04-25T16:22:46.107Z</time></trkpt><trkpt lat="44.6400917" lon="8.0316767"><ele>414.0</ele><time>2026-04-25T16:22:47.107Z</time></trkpt><trkpt lat="44.6401933" lon="8.0316417"><ele>414.0</ele><time>2026-04-25T16:22:48.107Z</time></trkpt><trkpt lat="44.640295" lon="8.0315967"><ele>414.0</ele><time>2026-04-25T16:22:49.107Z</time></trkpt><trkpt lat="44.6403967" lon="8.0315533"><ele>413.4</ele><time>2026-04-25T16:22:50.107Z</time></trkpt><trkpt lat="44.6405017" lon="8.0315217"><ele>412.79999999999995</ele><time>2026-04-25T16:22:51.107Z</time></trkpt><trkpt lat="44.64061" lon="8.0314883"><ele>412.20000000000005</ele><time>2026-04-25T16:22:52.107Z</time></trkpt><trkpt lat="44.64071" lon="8.03145"><ele>411.6</ele><time>2026-04-25T16:22:53.107Z</time></trkpt><trkpt lat="44.6408233" lon="8.0314133"><ele>411.0</ele><time>2026-04-25T16:22:54.107Z</time></trkpt><trkpt lat="44.6409417" lon="8.0313917"><ele>411.0</ele><time>2026-04-25T16:22:55.107Z</time></trkpt><trkpt lat="44.6410583" lon="8.03139"><ele>411.0</ele><time>2026-04-25T16:22:56.107Z</time></trkpt><trkpt lat="44.6411767" lon="8.0314033"><ele>411.0</ele><time>2026-04-25T16:22:57.107Z</time></trkpt><trkpt lat="44.6413133" lon="8.031435"><ele>411.0</ele><time>2026-04-25T16:22:58.107Z</time></trkpt><trkpt lat="44.6414417" lon="8.0314833"><ele>414.25</ele><time>2026-04-25T16:22:59.107Z</time></trkpt><trkpt lat="44.64157" lon="8.0315267"><ele>417.5</ele><time>2026-04-25T16:23:00.107Z</time></trkpt><trkpt lat="44.64169" lon="8.0315683"><ele>420.75</ele><time>2026-04-25T16:23:01.107Z</time></trkpt><trkpt lat="44.6418033" lon="8.0316233"><ele>424.0</ele><time>2026-04-25T16:23:02.107Z</time></trkpt><trkpt lat="44.641915" lon="8.0316833"><ele>428.75</ele><time>2026-04-25T16:23:03.107Z</time></trkpt><trkpt lat="44.6420283" lon="8.031765"><ele>433.5</ele><time>2026-04-25T16:23:04.107Z</time></trkpt><trkpt lat="44.642135" lon="8.0318783"><ele>438.25</ele><time>2026-04-25T16:23:05.107Z</time></trkpt><trkpt lat="44.64223" lon="8.0320183"><ele>443.0</ele><time>2026-04-25T16:23:06.107Z</time></trkpt><trkpt lat="44.64232" lon="8.03217"><ele>443.0</ele><time>2026-04-25T16:23:07.107Z</time></trkpt><trkpt lat="44.642405" lon="8.0323417"><ele>443.0</ele><time>2026-04-25T16:23:08.107Z</time></trkpt><trkpt lat="44.6424733" lon="8.0325217"><ele>443.0</ele><time>2026-04-25T16:23:09.107Z</time></trkpt><trkpt lat="44.6425267" lon="8.032705"><ele>443.0</ele><time>2026-04-25T16:23:10.107Z</time></trkpt><trkpt lat="44.6425717" lon="8.03288"><ele>441.0</ele><time>2026-04-25T16:23:11.107Z</time></trkpt><trkpt lat="44.6425917" lon="8.0330467"><ele>439.0</ele><time>2026-04-25T16:23:12.107Z</time></trkpt><trkpt lat="44.6426017" lon="8.0332183"><ele>437.0</ele><time>2026-04-25T16:23:13.107Z</time></trkpt><trkpt lat="44.6425967" lon="8.0334"><ele>435.0</ele><time>2026-04-25T16:23:14.107Z</time></trkpt><trkpt lat="44.6425767" lon="8.0335817"><ele>435.0</ele><time>2026-04-25T16:23:15.107Z</time></trkpt><trkpt lat="44.64255" lon="8.033755"><ele>435.0</ele><time>2026-04-25T16:23:16.107Z</time></trkpt><trkpt lat="44.64252" lon="8.033905"><ele>435.0</ele><time>2026-04-25T16:23:17.107Z</time></trkpt><trkpt lat="44.642495" lon="8.0340383"><ele>435.0</ele><time>2026-04-25T16:23:18.107Z</time></trkpt><trkpt lat="44.6424733" lon="8.0341383"><ele>435.0</ele><time>2026-04-25T16:23:19.107Z</time></trkpt><trkpt lat="44.6424683" lon="8.0342933"><ele>435.0</ele><time>2026-04-25T16:23:21.107Z</time></trkpt><trkpt lat="44.642545" lon="8.0343983"><ele>435.0</ele><time>2026-04-25T16:23:23.107Z</time></trkpt><trkpt lat="44.6426083" lon="8.03439"><ele>435.0</ele><time>2026-04-25T16:23:24.107Z</time></trkpt><trkpt lat="44.6426783" lon="8.034335"><ele>435.0</ele><time>2026-04-25T16:23:25.107Z</time></trkpt><trkpt lat="44.6427267" lon="8.034235"><ele>435.0</ele><time>2026-04-25T16:23:26.107Z</time></trkpt><trkpt lat="44.6427433" lon="8.0340767"><ele>435.0</ele><time>2026-04-25T16:23:27.107Z</time></trkpt><trkpt lat="44.6427567" lon="8.0338733"><ele>435.0</ele><time>2026-04-25T16:23:28.107Z</time></trkpt><trkpt lat="44.642775" lon="8.0336633"><ele>435.0</ele><time>2026-04-25T16:23:29.107Z</time></trkpt><trkpt lat="44.642795" lon="8.0334683"><ele>435.0</ele><time>2026-04-25T16:23:30.107Z</time></trkpt><trkpt lat="44.64282" lon="8.0332867"><ele>441.5</ele><time>2026-04-25T16:23:31.107Z</time></trkpt><trkpt lat="44.6428417" lon="8.0331133"><ele>448.0</ele><time>2026-04-25T16:23:32.107Z</time></trkpt><trkpt lat="44.6428633" lon="8.0329383"><ele>454.5</ele><time>2026-04-25T16:23:33.107Z</time></trkpt><trkpt lat="44.6428933" lon="8.032765"><ele>461.0</ele><time>2026-04-25T16:23:34.107Z</time></trkpt><trkpt lat="44.6429117" lon="8.0326033"><ele>461.75</ele><time>2026-04-25T16:23:35.107Z</time></trkpt><trkpt lat="44.6429333" lon="8.0324483"><ele>462.5</ele><time>2026-04-25T16:23:36.107Z</time></trkpt><trkpt lat="44.642955" lon="8.0322917"><ele>463.25</ele><time>2026-04-25T16:23:37.107Z</time></trkpt><trkpt lat="44.64296" lon="8.0321217"><ele>464.0</ele><time>2026-04-25T16:23:38.107Z</time></trkpt><trkpt lat="44.6429533" lon="8.0319517"><ele>464.0</ele><time>2026-04-25T16:23:39.107Z</time></trkpt><trkpt lat="44.642935" lon="8.0317883"><ele>464.0</ele><time>2026-04-25T16:23:40.107Z</time></trkpt><trkpt lat="44.6429017" lon="8.03164"><ele>464.0</ele><time>2026-04-25T16:23:41.107Z</time></trkpt><trkpt lat="44.6428633" lon="8.0314967"><ele>464.0</ele><time>2026-04-25T16:23:42.107Z</time></trkpt><trkpt lat="44.6428267" lon="8.031355"><ele>464.0</ele><time>2026-04-25T16:23:43.107Z</time></trkpt><trkpt lat="44.642815" lon="8.0312217"><ele>463.0</ele><time>2026-04-25T16:23:44.107Z</time></trkpt><trkpt lat="44.6428317" lon="8.0310833"><ele>462.0</ele><time>2026-04-25T16:23:45.107Z</time></trkpt><trkpt lat="44.6428833" lon="8.0309633"><ele>461.0</ele><time>2026-04-25T16:23:46.107Z</time></trkpt><trkpt lat="44.64297" lon="8.0308617"><ele>460.0</ele><time>2026-04-25T16:23:47.107Z</time></trkpt><trkpt lat="44.64308" lon="8.0307667"><ele>459.0</ele><time>2026-04-25T16:23:48.107Z</time></trkpt><trkpt lat="44.6432083" lon="8.030695"><ele>458.5</ele><time>2026-04-25T16:23:49.107Z</time></trkpt><trkpt lat="44.6433433" lon="8.0306333"><ele>458.0</ele><time>2026-04-25T16:23:50.107Z</time></trkpt><trkpt lat="44.6434833" lon="8.0305583"><ele>457.5</ele><time>2026-04-25T16:23:51.107Z</time></trkpt><trkpt lat="44.6436217" lon="8.0304733"><ele>457.0</ele><time>2026-04-25T16:23:52.107Z</time></trkpt><trkpt lat="44.64377" lon="8.0303817"><ele>457.0</ele><time>2026-04-25T16:23:53.107Z</time></trkpt><trkpt lat="44.6439233" lon="8.030305"><ele>457.0</ele><time>2026-04-25T16:23:54.107Z</time></trkpt><trkpt lat="44.6440783" lon="8.0302417"><ele>457.0</ele><time>2026-04-25T16:23:55.107Z</time></trkpt><trkpt lat="44.6442183" lon="8.0301767"><ele>457.0</ele><time>2026-04-25T16:23:56.107Z</time></trkpt><trkpt lat="44.6443583" lon="8.03013"><ele>457.0</ele><time>2026-04-25T16:23:57.107Z</time></trkpt><trkpt lat="44.644505" lon="8.03007"><ele>457.0</ele><time>2026-04-25T16:23:58.107Z</time></trkpt><trkpt lat="44.64465" lon="8.0300117"><ele>457.0</ele><time>2026-04-25T16:23:59.107Z</time></trkpt><trkpt lat="44.644805" lon="8.0299583"><ele>456.33333333333337</ele><time>2026-04-25T16:24:00.107Z</time></trkpt><trkpt lat="44.64495" lon="8.029895"><ele>455.66666666666663</ele><time>2026-04-25T16:24:01.107Z</time></trkpt><trkpt lat="44.6451" lon="8.0298283"><ele>455.0</ele><time>2026-04-25T16:24:02.107Z</time></trkpt><trkpt lat="44.645245" lon="8.0297567"><ele>460.25</ele><time>2026-04-25T16:24:03.107Z</time></trkpt><trkpt lat="44.6453767" lon="8.0296683"><ele>465.5</ele><time>2026-04-25T16:24:04.107Z</time></trkpt><trkpt lat="44.6454917" lon="8.0295483"><ele>470.75</ele><time>2026-04-25T16:24:05.107Z</time></trkpt><trkpt lat="44.645595" lon="8.029415"><ele>476.0</ele><time>2026-04-25T16:24:06.107Z</time></trkpt><trkpt lat="44.6457017" lon="8.0292783"><ele>476.0</ele><time>2026-04-25T16:24:07.107Z</time></trkpt><trkpt lat="44.6458033" lon="8.02915"><ele>476.0</ele><time>2026-04-25T16:24:08.107Z</time></trkpt><trkpt lat="44.6459083" lon="8.02902"><ele>476.0</ele><time>2026-04-25T16:24:09.107Z</time></trkpt><trkpt lat="44.64602" lon="8.02892"><ele>476.0</ele><time>2026-04-25T16:24:10.107Z</time></trkpt><trkpt lat="44.6461317" lon="8.028845"><ele>475.25</ele><time>2026-04-25T16:24:11.107Z</time></trkpt><trkpt lat="44.6462383" lon="8.02878"><ele>474.5</ele><time>2026-04-25T16:24:12.107Z</time></trkpt><trkpt lat="44.64635" lon="8.0287317"><ele>473.75</ele><time>2026-04-25T16:24:13.107Z</time></trkpt><trkpt lat="44.6464783" lon="8.0287033"><ele>473.0</ele><time>2026-04-25T16:24:14.107Z</time></trkpt><trkpt lat="44.6465983" lon="8.0286983"><ele>473.0</ele><time>2026-04-25T16:24:15.107Z</time></trkpt><trkpt lat="44.6467233" lon="8.0287167"><ele>473.0</ele><time>2026-04-25T16:24:16.107Z</time></trkpt><trkpt lat="44.646855" lon="8.0287617"><ele>473.0</ele><time>2026-04-25T16:24:17.107Z</time></trkpt><trkpt lat="44.6469867" lon="8.028815"><ele>473.0</ele><time>2026-04-25T16:24:18.107Z</time></trkpt><trkpt lat="44.6471367" lon="8.028885"><ele>471.75</ele><time>2026-04-25T16:24:19.107Z</time></trkpt><trkpt lat="44.6472667" lon="8.0289183"><ele>470.5</ele><time>2026-04-25T16:24:20.107Z</time></trkpt><trkpt lat="44.6473933" lon="8.02896"><ele>469.25</ele><time>2026-04-25T16:24:21.107Z</time></trkpt><trkpt lat="44.6475267" lon="8.0290183"><ele>468.0</ele><time>2026-04-25T16:24:22.107Z</time></trkpt><trkpt lat="44.6476633" lon="8.029065"><ele>468.0</ele><time>2026-04-25T16:24:23.107Z</time></trkpt><trkpt lat="44.6477883" lon="8.029105"><ele>468.0</ele><time>2026-04-25T16:24:24.107Z</time></trkpt><trkpt lat="44.64791" lon="8.0291383"><ele>468.0</ele><time>2026-04-25T16:24:25.107Z</time></trkpt><trkpt lat="44.648025" lon="8.0291517"><ele>468.0</ele><time>2026-04-25T16:24:26.107Z</time></trkpt><trkpt lat="44.648145" lon="8.0291717"><ele>471.4</ele><time>2026-04-25T16:24:27.107Z</time></trkpt><trkpt lat="44.6482517" lon="8.0291833"><ele>474.79999999999995</ele><time>2026-04-25T16:24:28.107Z</time></trkpt><trkpt lat="44.6483583" lon="8.0291883"><ele>478.2</ele><time>2026-04-25T16:24:29.107Z</time></trkpt><trkpt lat="44.6484633" lon="8.02919"><ele>481.6</ele><time>2026-04-25T16:24:30.107Z</time></trkpt><trkpt lat="44.648565" lon="8.0291783"><ele>485.0</ele><time>2026-04-25T16:24:31.107Z</time></trkpt><trkpt lat="44.64867" lon="8.0291683"><ele>485.4</ele><time>2026-04-25T16:24:32.107Z</time></trkpt><trkpt lat="44.6487733" lon="8.0291467"><ele>485.8</ele><time>2026-04-25T16:24:33.107Z</time></trkpt><trkpt lat="44.6488817" lon="8.02912"><ele>486.20000000000005</ele><time>2026-04-25T16:24:34.107Z</time></trkpt><trkpt lat="44.648985" lon="8.0290883"><ele>486.6</ele><time>2026-04-25T16:24:35.107Z</time></trkpt><trkpt lat="44.6490783" lon="8.0291033"><ele>487.0</ele><time>2026-04-25T16:24:36.107Z</time></trkpt><trkpt lat="44.6491617" lon="8.0290733"><ele>486.50000000000006</ele><time>2026-04-25T16:24:37.107Z</time></trkpt><trkpt lat="44.6492417" lon="8.029045"><ele>486.0</ele><time>2026-04-25T16:24:38.107Z</time></trkpt><trkpt lat="44.6493167" lon="8.029005"><ele>485.5</ele><time>2026-04-25T16:24:39.107Z</time></trkpt><trkpt lat="44.6493817" lon="8.0289817"><ele>485.0</ele><time>2026-04-25T16:24:40.107Z</time></trkpt><trkpt lat="44.649445" lon="8.028945"><ele>484.50000000000006</ele><time>2026-04-25T16:24:41.107Z</time></trkpt><trkpt lat="44.649555" lon="8.0289017"><ele>484.0</ele><time>2026-04-25T16:24:43.107Z</time></trkpt><trkpt lat="44.64965" lon="8.028885"><ele>484.0</ele><time>2026-04-25T16:24:45.107Z</time></trkpt><trkpt lat="44.6497583" lon="8.0288733"><ele>484.0</ele><time>2026-04-25T16:24:47.107Z</time></trkpt><trkpt lat="44.64982" lon="8.0288467"><ele>484.0</ele><time>2026-04-25T16:24:48.107Z</time></trkpt><trkpt lat="44.64992" lon="8.0288217"><ele>484.0</ele><time>2026-04-25T16:24:50.107Z</time></trkpt><trkpt lat="44.6500183" lon="8.0288117"><ele>484.0</ele><time>2026-04-25T16:24:52.107Z</time></trkpt><trkpt lat="44.6501217" lon="8.0287883"><ele>484.0</ele><time>2026-04-25T16:24:54.107Z</time></trkpt><trkpt lat="44.6502417" lon="8.0287367"><ele>484.0</ele><time>2026-04-25T16:24:56.107Z</time></trkpt><trkpt lat="44.6503083" lon="8.0287"><ele>484.0</ele><time>2026-04-25T16:24:57.107Z</time></trkpt><trkpt lat="44.65037" lon="8.02867"><ele>484.0</ele><time>2026-04-25T16:24:58.107Z</time></trkpt><trkpt lat="44.65048" lon="8.02862"><ele>484.0</ele><time>2026-04-25T16:25:00.107Z</time></trkpt><trkpt lat="44.6505783" lon="8.028575"><ele>483.50000000000006</ele><time>2026-04-25T16:25:02.107Z</time></trkpt><trkpt lat="44.6506717" lon="8.0285333"><ele>483.0</ele><time>2026-04-25T16:25:04.107Z</time></trkpt><trkpt lat="44.6507683" lon="8.0285267"><ele>482.5</ele><time>2026-04-25T16:25:06.107Z</time></trkpt><trkpt lat="44.65083" lon="8.028505"><ele>482.0</ele><time>2026-04-25T16:25:08.107Z</time></trkpt><trkpt lat="44.65089" lon="8.0284683"><ele>481.50000000000006</ele><time>2026-04-25T16:27:54.107Z</time></trkpt><trkpt lat="44.65098" lon="8.0284317"><ele>481.0</ele><time>2026-04-25T16:27:57.107Z</time></trkpt><trkpt lat="44.6510583" lon="8.028405"><ele>481.00000000000006</ele><time>2026-04-25T16:27:59.107Z</time></trkpt><trkpt lat="44.6511333" lon="8.028375"><ele>481.0</ele><time>2026-04-25T16:28:01.107Z</time></trkpt><trkpt lat="44.6511983" lon="8.0283283"><ele>481.0</ele><time>2026-04-25T16:28:03.107Z</time></trkpt><trkpt lat="44.65117" lon="8.028415"><ele>481.0</ele><time>2026-04-25T16:28:09.107Z</time></trkpt><trkpt lat="44.6510833" lon="8.0284633"><ele>481.00000000000006</ele><time>2026-04-25T16:28:11.107Z</time></trkpt><trkpt lat="44.65098" lon="8.0285267"><ele>481.0</ele><time>2026-04-25T16:28:13.107Z</time></trkpt><trkpt lat="44.65092" lon="8.028565"><ele>481.00000000000006</ele><time>2026-04-25T16:28:14.107Z</time></trkpt><trkpt lat="44.6508533" lon="8.0286067"><ele>481.0</ele><time>2026-04-25T16:28:15.107Z</time></trkpt><trkpt lat="44.65079" lon="8.0286483"><ele>481.0</ele><time>2026-04-25T16:28:16.107Z</time></trkpt><trkpt lat="44.6507283" lon="8.0287017"><ele>481.0</ele><time>2026-04-25T16:28:17.107Z</time></trkpt><trkpt lat="44.6506533" lon="8.02885"><ele>481.00000000000006</ele><time>2026-04-25T16:28:19.107Z</time></trkpt><trkpt lat="44.6506433" lon="8.0289533"><ele>481.0</ele><time>2026-04-25T16:28:20.107Z</time></trkpt><trkpt lat="44.65064" lon="8.02906"><ele>478.5714285714285</ele><time>2026-04-25T16:28:21.107Z</time></trkpt><trkpt lat="44.6506383" lon="8.0291667"><ele>476.1428571428571</ele><time>2026-04-25T16:28:22.107Z</time></trkpt><trkpt lat="44.6506317" lon="8.02927"><ele>473.7142857142857</ele><time>2026-04-25T16:28:23.107Z</time></trkpt><trkpt lat="44.6506183" lon="8.029375"><ele>471.2857142857143</ele><time>2026-04-25T16:28:24.107Z</time></trkpt><trkpt lat="44.6506067" lon="8.0294817"><ele>468.8571428571429</ele><time>2026-04-25T16:28:25.107Z</time></trkpt><trkpt lat="44.6505917" lon="8.0295767"><ele>466.4285714285715</ele><time>2026-04-25T16:28:26.107Z</time></trkpt><trkpt lat="44.6505717" lon="8.0296783"><ele>464.00000000000006</ele><time>2026-04-25T16:28:27.107Z</time></trkpt><trkpt lat="44.6505617" lon="8.0297717"><ele>464.00000000000006</ele><time>2026-04-25T16:28:28.107Z</time></trkpt><trkpt lat="44.6505583" lon="8.0298767"><ele>464.0</ele><time>2026-04-25T16:28:29.107Z</time></trkpt><trkpt lat="44.6505433" lon="8.0299783"><ele>464.00000000000006</ele><time>2026-04-25T16:28:30.107Z</time></trkpt><trkpt lat="44.6505317" lon="8.0300783"><ele>464.00000000000006</ele><time>2026-04-25T16:28:31.107Z</time></trkpt><trkpt lat="44.650505" lon="8.0301767"><ele>464.0</ele><time>2026-04-25T16:28:32.107Z</time></trkpt><trkpt lat="44.65048" lon="8.0302833"><ele>464.00000000000006</ele><time>2026-04-25T16:28:33.107Z</time></trkpt><trkpt lat="44.65046" lon="8.03038"><ele>464.00000000000006</ele><time>2026-04-25T16:28:34.107Z</time></trkpt><trkpt lat="44.6504583" lon="8.03053"><ele>460.79999999999995</ele><time>2026-04-25T16:28:36.107Z</time></trkpt><trkpt lat="44.650535" lon="8.0306167"><ele>457.59999999999997</ele><time>2026-04-25T16:28:38.107Z</time></trkpt><trkpt lat="44.6506533" lon="8.03063"><ele>454.4</ele><time>2026-04-25T16:28:40.107Z</time></trkpt><trkpt lat="44.6507433" lon="8.030695"><ele>451.2</ele><time>2026-04-25T16:28:42.107Z</time></trkpt><trkpt lat="44.6507267" lon="8.0307917"><ele>448.0</ele><time>2026-04-25T16:28:44.107Z</time></trkpt><trkpt lat="44.6506817" lon="8.0308617"><ele>446.1666666666667</ele><time>2026-04-25T16:28:45.107Z</time></trkpt><trkpt lat="44.6506283" lon="8.030955"><ele>444.33333333333337</ele><time>2026-04-25T16:28:46.107Z</time></trkpt><trkpt lat="44.6505833" lon="8.031045"><ele>442.5</ele><time>2026-04-25T16:28:47.107Z</time></trkpt><trkpt lat="44.650555" lon="8.03114"><ele>440.66666666666663</ele><time>2026-04-25T16:28:48.107Z</time></trkpt><trkpt lat="44.6505817" lon="8.031295"><ele>438.8333333333333</ele><time>2026-04-25T16:28:50.107Z</time></trkpt><trkpt lat="44.6506667" lon="8.031345"><ele>437.0</ele><time>2026-04-25T16:28:52.107Z</time></trkpt><trkpt lat="44.65075" lon="8.0313833"><ele>437.0</ele><time>2026-04-25T16:28:54.107Z</time></trkpt><trkpt lat="44.650675" lon="8.03147"><ele>437.00000000000006</ele><time>2026-04-25T16:28:57.107Z</time></trkpt><trkpt lat="44.6506033" lon="8.0314633"><ele>437.00000000000006</ele><time>2026-04-25T16:28:58.107Z</time></trkpt><trkpt lat="44.650525" lon="8.031465"><ele>437.0</ele><time>2026-04-25T16:28:59.107Z</time></trkpt><trkpt lat="44.6504283" lon="8.0315417"><ele>437.0</ele><time>2026-04-25T16:29:01.107Z</time></trkpt><trkpt lat="44.650415" lon="8.03169"><ele>434.0</ele><time>2026-04-25T16:29:03.107Z</time></trkpt><trkpt lat="44.6505" lon="8.0318033"><ele>431.00000000000006</ele><time>2026-04-25T16:29:05.107Z</time></trkpt><trkpt lat="44.6506033" lon="8.031815"><ele>428.0</ele><time>2026-04-25T16:29:06.107Z</time></trkpt><trkpt lat="44.65072" lon="8.0318117"><ele>425.0</ele><time>2026-04-25T16:29:07.107Z</time></trkpt><trkpt lat="44.650825" lon="8.03183"><ele>422.0</ele><time>2026-04-25T16:29:08.107Z</time></trkpt><trkpt lat="44.650925" lon="8.0318717"><ele>422.0</ele><time>2026-04-25T16:29:09.107Z</time></trkpt><trkpt lat="44.6510267" lon="8.0319317"><ele>422.0</ele><time>2026-04-25T16:29:10.107Z</time></trkpt><trkpt lat="44.65112" lon="8.0320067"><ele>422.0</ele><time>2026-04-25T16:29:11.107Z</time></trkpt><trkpt lat="44.651205" lon="8.0320983"><ele>422.0</ele><time>2026-04-25T16:29:12.107Z</time></trkpt><trkpt lat="44.65129" lon="8.03219"><ele>422.0</ele><time>2026-04-25T16:29:13.107Z</time></trkpt><trkpt lat="44.6513767" lon="8.0322833"><ele>419.20000000000005</ele><time>2026-04-25T16:29:14.107Z</time></trkpt><trkpt lat="44.65146" lon="8.0323767"><ele>416.4</ele><time>2026-04-25T16:29:15.107Z</time></trkpt><trkpt lat="44.6515433" lon="8.03247"><ele>413.6</ele><time>2026-04-25T16:29:16.107Z</time></trkpt><trkpt lat="44.651605" lon="8.0325733"><ele>410.79999999999995</ele><time>2026-04-25T16:29:17.107Z</time></trkpt><trkpt lat="44.651665" lon="8.032695"><ele>408.0</ele><time>2026-04-25T16:29:18.107Z</time></trkpt><trkpt lat="44.6517" lon="8.0328283"><ele>406.2</ele><time>2026-04-25T16:29:19.107Z</time></trkpt><trkpt lat="44.65173" lon="8.032955"><ele>404.4</ele><time>2026-04-25T16:29:20.107Z</time></trkpt><trkpt lat="44.6517667" lon="8.03308"><ele>402.59999999999997</ele><time>2026-04-25T16:29:21.107Z</time></trkpt><trkpt lat="44.65181" lon="8.033215"><ele>400.79999999999995</ele><time>2026-04-25T16:29:22.107Z</time></trkpt><trkpt lat="44.6518617" lon="8.0333417"><ele>399.0</ele><time>2026-04-25T16:29:23.107Z</time></trkpt><trkpt lat="44.651905" lon="8.0334667"><ele>396.79999999999995</ele><time>2026-04-25T16:29:24.107Z</time></trkpt><trkpt lat="44.6519533" lon="8.0335917"><ele>394.59999999999997</ele><time>2026-04-25T16:29:25.107Z</time></trkpt><trkpt lat="44.6519933" lon="8.0337183"><ele>392.4</ele><time>2026-04-25T16:29:26.107Z</time></trkpt><trkpt lat="44.6520383" lon="8.033835"><ele>390.2</ele><time>2026-04-25T16:29:27.107Z</time></trkpt><trkpt lat="44.6520883" lon="8.0339583"><ele>388.0</ele><time>2026-04-25T16:29:28.107Z</time></trkpt><trkpt lat="44.6521333" lon="8.03409"><ele>384.59999999999997</ele><time>2026-04-25T16:29:29.107Z</time></trkpt><trkpt lat="44.6521817" lon="8.0342133"><ele>381.2</ele><time>2026-04-25T16:29:30.107Z</time></trkpt><trkpt lat="44.6522283" lon="8.0343267"><ele>377.8</ele><time>2026-04-25T16:29:31.107Z</time></trkpt><trkpt lat="44.6522767" lon="8.0344483"><ele>374.4</ele><time>2026-04-25T16:29:32.107Z</time></trkpt><trkpt lat="44.652335" lon="8.0345567"><ele>371.0</ele><time>2026-04-25T16:29:33.107Z</time></trkpt><trkpt lat="44.6523983" lon="8.0346667"><ele>371.0</ele><time>2026-04-25T16:29:34.107Z</time></trkpt><trkpt lat="44.6524483" lon="8.0347867"><ele>371.0</ele><time>2026-04-25T16:29:35.107Z</time></trkpt><trkpt lat="44.6524717" lon="8.0349267"><ele>371.0</ele><time>2026-04-25T16:29:36.107Z</time></trkpt><trkpt lat="44.652485" lon="8.0350567"><ele>371.0</ele><time>2026-04-25T16:29:37.107Z</time></trkpt><trkpt lat="44.652485" lon="8.0351967"><ele>371.0</ele><time>2026-04-25T16:29:38.107Z</time></trkpt><trkpt lat="44.6524933" lon="8.0353367"><ele>370.6</ele><time>2026-04-25T16:29:39.107Z</time></trkpt><trkpt lat="44.65251" lon="8.0354667"><ele>370.20000000000005</ele><time>2026-04-25T16:29:40.107Z</time></trkpt><trkpt lat="44.6525167" lon="8.0356"><ele>369.79999999999995</ele><time>2026-04-25T16:29:41.107Z</time></trkpt><trkpt lat="44.6525117" lon="8.0357383"><ele>369.4</ele><time>2026-04-25T16:29:42.107Z</time></trkpt><trkpt lat="44.6524933" lon="8.035875"><ele>369.0</ele><time>2026-04-25T16:29:43.107Z</time></trkpt><trkpt lat="44.6524567" lon="8.036015"><ele>368.25</ele><time>2026-04-25T16:29:44.107Z</time></trkpt><trkpt lat="44.6524117" lon="8.03617"><ele>367.5</ele><time>2026-04-25T16:29:45.107Z</time></trkpt><trkpt lat="44.6523667" lon="8.0363283"><ele>366.75</ele><time>2026-04-25T16:29:46.107Z</time></trkpt><trkpt lat="44.6523367" lon="8.036485"><ele>366.0</ele><time>2026-04-25T16:29:47.107Z</time></trkpt><trkpt lat="44.6523217" lon="8.0366367"><ele>364.4</ele><time>2026-04-25T16:29:48.107Z</time></trkpt><trkpt lat="44.6523167" lon="8.03679"><ele>362.8</ele><time>2026-04-25T16:29:49.107Z</time></trkpt><trkpt lat="44.65233" lon="8.0369483"><ele>361.2</ele><time>2026-04-25T16:29:50.107Z</time></trkpt><trkpt lat="44.6523517" lon="8.0371033"><ele>359.59999999999997</ele><time>2026-04-25T16:29:51.107Z</time></trkpt><trkpt lat="44.6523717" lon="8.0372567"><ele>358.0</ele><time>2026-04-25T16:29:52.107Z</time></trkpt><trkpt lat="44.6524183" lon="8.03741"><ele>355.75</ele><time>2026-04-25T16:29:53.107Z</time></trkpt><trkpt lat="44.6524483" lon="8.0375717"><ele>353.5</ele><time>2026-04-25T16:29:54.107Z</time></trkpt><trkpt lat="44.6524733" lon="8.0377333"><ele>351.25</ele><time>2026-04-25T16:29:55.107Z</time></trkpt><trkpt lat="44.6525017" lon="8.03788"><ele>349.0</ele><time>2026-04-25T16:29:56.107Z</time></trkpt><trkpt lat="44.652535" lon="8.0380233"><ele>349.0</ele><time>2026-04-25T16:29:57.107Z</time></trkpt><trkpt lat="44.65256" lon="8.0381633"><ele>349.0</ele><time>2026-04-25T16:29:58.107Z</time></trkpt><trkpt lat="44.65258" lon="8.03831"><ele>349.0</ele><time>2026-04-25T16:29:59.107Z</time></trkpt><trkpt lat="44.6525883" lon="8.0384733"><ele>349.0</ele><time>2026-04-25T16:30:00.107Z</time></trkpt><trkpt lat="44.6525883" lon="8.0386483"><ele>348.75</ele><time>2026-04-25T16:30:01.107Z</time></trkpt><trkpt lat="44.652595" lon="8.0388167"><ele>348.5</ele><time>2026-04-25T16:30:02.107Z</time></trkpt><trkpt lat="44.6525967" lon="8.0389933"><ele>348.25</ele><time>2026-04-25T16:30:03.107Z</time></trkpt><trkpt lat="44.6525933" lon="8.0391517"><ele>348.0</ele><time>2026-04-25T16:30:04.107Z</time></trkpt><trkpt lat="44.6525783" lon="8.0392983"><ele>347.3333333333333</ele><time>2026-04-25T16:30:05.107Z</time></trkpt><trkpt lat="44.6525617" lon="8.0394367"><ele>346.6666666666667</ele><time>2026-04-25T16:30:06.107Z</time></trkpt><trkpt lat="44.6525533" lon="8.0395533"><ele>346.0</ele><time>2026-04-25T16:30:07.107Z</time></trkpt><trkpt lat="44.6525583" lon="8.0396583"><ele>345.33333333333337</ele><time>2026-04-25T16:30:08.107Z</time></trkpt><trkpt lat="44.6525817" lon="8.03975"><ele>344.6666666666667</ele><time>2026-04-25T16:30:09.107Z</time></trkpt><trkpt lat="44.6526283" lon="8.0398333"><ele>344.0</ele><time>2026-04-25T16:30:10.107Z</time></trkpt><trkpt lat="44.6527067" lon="8.0399"><ele>345.0</ele><time>2026-04-25T16:30:11.107Z</time></trkpt><trkpt lat="44.652815" lon="8.0399567"><ele>346.0</ele><time>2026-04-25T16:30:12.107Z</time></trkpt><trkpt lat="44.65293" lon="8.0400283"><ele>347.0</ele><time>2026-04-25T16:30:13.107Z</time></trkpt><trkpt lat="44.6530233" lon="8.0401233"><ele>348.0</ele><time>2026-04-25T16:30:14.107Z</time></trkpt><trkpt lat="44.65311" lon="8.0402283"><ele>348.0</ele><time>2026-04-25T16:30:15.107Z</time></trkpt><trkpt lat="44.653195" lon="8.040345"><ele>348.0</ele><time>2026-04-25T16:30:16.107Z</time></trkpt><trkpt lat="44.6532683" lon="8.0404617"><ele>348.0</ele><time>2026-04-25T16:30:17.107Z</time></trkpt><trkpt lat="44.6533417" lon="8.040575"><ele>348.0</ele><time>2026-04-25T16:30:18.107Z</time></trkpt><trkpt lat="44.6534033" lon="8.0407033"><ele>348.0</ele><time>2026-04-25T16:30:19.107Z</time></trkpt><trkpt lat="44.6534517" lon="8.040825"><ele>346.0</ele><time>2026-04-25T16:30:20.107Z</time></trkpt><trkpt lat="44.6534833" lon="8.0409333"><ele>344.0</ele><time>2026-04-25T16:30:21.107Z</time></trkpt><trkpt lat="44.6535017" lon="8.0410617"><ele>342.0</ele><time>2026-04-25T16:30:22.107Z</time></trkpt><trkpt lat="44.653505" lon="8.04118"><ele>340.0</ele><time>2026-04-25T16:30:23.107Z</time></trkpt><trkpt lat="44.6534933" lon="8.041315"><ele>338.0</ele><time>2026-04-25T16:30:24.107Z</time></trkpt><trkpt lat="44.6534867" lon="8.0414433"><ele>336.0</ele><time>2026-04-25T16:30:25.107Z</time></trkpt><trkpt lat="44.6534767" lon="8.0415783"><ele>334.8333333333333</ele><time>2026-04-25T16:30:26.107Z</time></trkpt><trkpt lat="44.6534583" lon="8.0417133"><ele>333.6666666666667</ele><time>2026-04-25T16:30:27.107Z</time></trkpt><trkpt lat="44.6534533" lon="8.041835"><ele>332.5</ele><time>2026-04-25T16:30:28.107Z</time></trkpt><trkpt lat="44.653435" lon="8.0419533"><ele>331.33333333333337</ele><time>2026-04-25T16:30:29.107Z</time></trkpt><trkpt lat="44.65341" lon="8.04206"><ele>330.1666666666667</ele><time>2026-04-25T16:30:30.107Z</time></trkpt><trkpt lat="44.6533867" lon="8.0421683"><ele>329.0</ele><time>2026-04-25T16:30:31.107Z</time></trkpt><trkpt lat="44.6533667" lon="8.04226"><ele>329.0</ele><time>2026-04-25T16:30:32.107Z</time></trkpt><trkpt lat="44.6533683" lon="8.0423583"><ele>329.0</ele><time>2026-04-25T16:30:33.107Z</time></trkpt><trkpt lat="44.653435" lon="8.0425083"><ele>329.0</ele><time>2026-04-25T16:30:35.107Z</time></trkpt><trkpt lat="44.65352" lon="8.0425583"><ele>329.0</ele><time>2026-04-25T16:30:36.107Z</time></trkpt><trkpt lat="44.6536283" lon="8.0425933"><ele>329.0</ele><time>2026-04-25T16:30:37.107Z</time></trkpt><trkpt lat="44.65374" lon="8.04264"><ele>326.59999999999997</ele><time>2026-04-25T16:30:38.107Z</time></trkpt><trkpt lat="44.65384" lon="8.0426783"><ele>324.2</ele><time>2026-04-25T16:30:39.107Z</time></trkpt><trkpt lat="44.653925" lon="8.04274"><ele>321.79999999999995</ele><time>2026-04-25T16:30:40.107Z</time></trkpt><trkpt lat="44.6539917" lon="8.0428283"><ele>319.4</ele><time>2026-04-25T16:30:41.107Z</time></trkpt><trkpt lat="44.6540417" lon="8.0429383"><ele>317.0</ele><time>2026-04-25T16:30:42.107Z</time></trkpt><trkpt lat="44.6540867" lon="8.04306"><ele>317.0</ele><time>2026-04-25T16:30:43.107Z</time></trkpt><trkpt lat="44.6541117" lon="8.0431767"><ele>317.0</ele><time>2026-04-25T16:30:44.107Z</time></trkpt><trkpt lat="44.6541317" lon="8.0432867"><ele>317.0</ele><time>2026-04-25T16:30:45.107Z</time></trkpt><trkpt lat="44.654135" lon="8.0433767"><ele>317.0</ele><time>2026-04-25T16:30:46.107Z</time></trkpt><trkpt lat="44.6541" lon="8.04351"><ele>317.0</ele><time>2026-04-25T16:30:48.107Z</time></trkpt><trkpt lat="44.6540067" lon="8.0435383"><ele>317.0</ele><time>2026-04-25T16:30:50.107Z</time></trkpt><trkpt lat="44.6539533" lon="8.043475"><ele>317.0</ele><time>2026-04-25T16:30:51.107Z</time></trkpt><trkpt lat="44.6538817" lon="8.0433783"><ele>317.0</ele><time>2026-04-25T16:30:52.107Z</time></trkpt><trkpt lat="44.6537967" lon="8.043275"><ele>317.0</ele><time>2026-04-25T16:30:53.107Z</time></trkpt><trkpt lat="44.6537017" lon="8.0431783"><ele>317.0</ele><time>2026-04-25T16:30:54.107Z</time></trkpt><trkpt lat="44.6536017" lon="8.0430983"><ele>317.0</ele><time>2026-04-25T16:30:55.107Z</time></trkpt><trkpt lat="44.6534917" lon="8.0430417"><ele>317.2</ele><time>2026-04-25T16:30:56.107Z</time></trkpt><trkpt lat="44.65338" lon="8.0430117"><ele>317.4</ele><time>2026-04-25T16:30:57.107Z</time></trkpt><trkpt lat="44.653275" lon="8.0430017"><ele>317.6</ele><time>2026-04-25T16:30:58.107Z</time></trkpt><trkpt lat="44.6531783" lon="8.0429983"><ele>317.8</ele><time>2026-04-25T16:30:59.107Z</time></trkpt><trkpt lat="44.6530783" lon="8.042995"><ele>318.0</ele><time>2026-04-25T16:31:00.107Z</time></trkpt><trkpt lat="44.6529733" lon="8.0429867"><ele>318.0</ele><time>2026-04-25T16:31:01.107Z</time></trkpt><trkpt lat="44.6528733" lon="8.0429667"><ele>318.0</ele><time>2026-04-25T16:31:02.107Z</time></trkpt><trkpt lat="44.652785" lon="8.0429467"><ele>318.0</ele><time>2026-04-25T16:31:03.107Z</time></trkpt><trkpt lat="44.6527083" lon="8.0428967"><ele>318.0</ele><time>2026-04-25T16:31:04.107Z</time></trkpt><trkpt lat="44.652645" lon="8.0428283"><ele>318.0</ele><time>2026-04-25T16:31:05.107Z</time></trkpt><trkpt lat="44.6526017" lon="8.0427367"><ele>318.0</ele><time>2026-04-25T16:31:06.107Z</time></trkpt><trkpt lat="44.65258" lon="8.0426267"><ele>315.1666666666667</ele><time>2026-04-25T16:31:07.107Z</time></trkpt><trkpt lat="44.652575" lon="8.0425083"><ele>312.3333333333333</ele><time>2026-04-25T16:31:08.107Z</time></trkpt><trkpt lat="44.6525767" lon="8.0423767"><ele>309.5</ele><time>2026-04-25T16:31:09.107Z</time></trkpt><trkpt lat="44.6525883" lon="8.0422433"><ele>306.66666666666663</ele><time>2026-04-25T16:31:10.107Z</time></trkpt><trkpt lat="44.652605" lon="8.0421133"><ele>303.8333333333333</ele><time>2026-04-25T16:31:11.108Z</time></trkpt><trkpt lat="44.652625" lon="8.0420033"><ele>301.0</ele><time>2026-04-25T16:31:12.107Z</time></trkpt><trkpt lat="44.6526267" lon="8.0418867"><ele>301.0</ele><time>2026-04-25T16:31:14.107Z</time></trkpt><trkpt lat="44.652545" lon="8.041955"><ele>301.0</ele><time>2026-04-25T16:31:17.107Z</time></trkpt><trkpt lat="44.6525133" lon="8.0420667"><ele>301.0</ele><time>2026-04-25T16:31:18.107Z</time></trkpt><trkpt lat="44.652475" lon="8.0422167"><ele>301.0</ele><time>2026-04-25T16:31:19.107Z</time></trkpt><trkpt lat="44.65243" lon="8.0423717"><ele>301.0</ele><time>2026-04-25T16:31:20.107Z</time></trkpt><trkpt lat="44.6524" lon="8.0425167"><ele>299.2</ele><time>2026-04-25T16:31:21.107Z</time></trkpt><trkpt lat="44.6523833" lon="8.04267"><ele>297.40000000000003</ele><time>2026-04-25T16:31:22.107Z</time></trkpt><trkpt lat="44.6523833" lon="8.0428083"><ele>295.6</ele><time>2026-04-25T16:31:23.107Z</time></trkpt><trkpt lat="44.6524" lon="8.0429367"><ele>293.8</ele><time>2026-04-25T16:31:24.107Z</time></trkpt><trkpt lat="44.6524367" lon="8.0430567"><ele>292.0</ele><time>2026-04-25T16:31:25.107Z</time></trkpt><trkpt lat="44.6524933" lon="8.0431633"><ele>292.0</ele><time>2026-04-25T16:31:26.107Z</time></trkpt><trkpt lat="44.652555" lon="8.0432567"><ele>292.0</ele><time>2026-04-25T16:31:27.107Z</time></trkpt><trkpt lat="44.65262" lon="8.0433183"><ele>292.0</ele><time>2026-04-25T16:31:28.107Z</time></trkpt><trkpt lat="44.65273" lon="8.043375"><ele>292.0</ele><time>2026-04-25T16:31:30.107Z</time></trkpt><trkpt lat="44.652785" lon="8.043445"><ele>292.0</ele><time>2026-04-25T16:31:32.107Z</time></trkpt><trkpt lat="44.6526667" lon="8.0434383"><ele>289.3333333333333</ele><time>2026-04-25T16:31:35.107Z</time></trkpt><trkpt lat="44.6526033" lon="8.0433867"><ele>286.66666666666663</ele><time>2026-04-25T16:31:36.107Z</time></trkpt><trkpt lat="44.652505" lon="8.043345"><ele>284.0</ele><time>2026-04-25T16:31:38.107Z</time></trkpt><trkpt lat="44.65247" lon="8.04344"><ele>281.3333333333333</ele><time>2026-04-25T16:31:40.107Z</time></trkpt><trkpt lat="44.6524917" lon="8.0435383"><ele>278.6666666666667</ele><time>2026-04-25T16:31:41.107Z</time></trkpt><trkpt lat="44.652545" lon="8.043655"><ele>276.0</ele><time>2026-04-25T16:31:42.107Z</time></trkpt><trkpt lat="44.6526267" lon="8.0437717"><ele>276.0</ele><time>2026-04-25T16:31:43.107Z</time></trkpt><trkpt lat="44.6527183" lon="8.0438917"><ele>276.0</ele><time>2026-04-25T16:31:44.107Z</time></trkpt><trkpt lat="44.6528017" lon="8.0439967"><ele>276.0</ele><time>2026-04-25T16:31:45.107Z</time></trkpt><trkpt lat="44.6528833" lon="8.0440683"><ele>276.0</ele><time>2026-04-25T16:31:46.107Z</time></trkpt><trkpt lat="44.6529617" lon="8.0441283"><ele>276.0</ele><time>2026-04-25T16:31:47.107Z</time></trkpt><trkpt lat="44.653035" lon="8.044185"><ele>275.1666666666667</ele><time>2026-04-25T16:31:48.107Z</time></trkpt><trkpt lat="44.6530983" lon="8.0442467"><ele>274.3333333333333</ele><time>2026-04-25T16:31:49.107Z</time></trkpt><trkpt lat="44.6531533" lon="8.044345"><ele>273.5</ele><time>2026-04-25T16:31:50.107Z</time></trkpt><trkpt lat="44.6531867" lon="8.04445"><ele>272.66666666666663</ele><time>2026-04-25T16:31:51.107Z</time></trkpt><trkpt lat="44.6532217" lon="8.0445433"><ele>271.8333333333333</ele><time>2026-04-25T16:31:52.107Z</time></trkpt><trkpt lat="44.65326" lon="8.044635"><ele>271.0</ele><time>2026-04-25T16:31:53.107Z</time></trkpt><trkpt lat="44.6533033" lon="8.0447267"><ele>271.0</ele><time>2026-04-25T16:31:54.107Z</time></trkpt><trkpt lat="44.6533517" lon="8.0448233"><ele>271.0</ele><time>2026-04-25T16:31:55.107Z</time></trkpt><trkpt lat="44.653415" lon="8.0449217"><ele>271.0</ele><time>2026-04-25T16:31:56.107Z</time></trkpt><trkpt lat="44.6534683" lon="8.045025"><ele>271.0</ele><time>2026-04-25T16:31:57.107Z</time></trkpt><trkpt lat="44.6535267" lon="8.045125"><ele>271.0</ele><time>2026-04-25T16:31:58.107Z</time></trkpt><trkpt lat="44.653565" lon="8.045245"><ele>268.8333333333333</ele><time>2026-04-25T16:31:59.107Z</time></trkpt><trkpt lat="44.653605" lon="8.045345"><ele>266.66666666666663</ele><time>2026-04-25T16:32:00.107Z</time></trkpt><trkpt lat="44.6536517" lon="8.04545"><ele>264.5</ele><time>2026-04-25T16:32:01.107Z</time></trkpt><trkpt lat="44.6537017" lon="8.04555"><ele>262.3333333333333</ele><time>2026-04-25T16:32:02.107Z</time></trkpt><trkpt lat="44.6537467" lon="8.0456483"><ele>260.1666666666667</ele><time>2026-04-25T16:32:03.107Z</time></trkpt><trkpt lat="44.6537933" lon="8.0457383"><ele>258.0</ele><time>2026-04-25T16:32:04.107Z</time></trkpt><trkpt lat="44.6538267" lon="8.045835"><ele>253.60000000000002</ele><time>2026-04-25T16:32:05.107Z</time></trkpt><trkpt lat="44.6538183" lon="8.0459883"><ele>249.20000000000002</ele><time>2026-04-25T16:32:07.107Z</time></trkpt><trkpt lat="44.653775" lon="8.04607"><ele>244.8</ele><time>2026-04-25T16:32:08.107Z</time></trkpt><trkpt lat="44.6537067" lon="8.0461317"><ele>240.4</ele><time>2026-04-25T16:32:09.107Z</time></trkpt><trkpt lat="44.653605" lon="8.0462033"><ele>236.0</ele><time>2026-04-25T16:32:10.107Z</time></trkpt><trkpt lat="44.6535117" lon="8.0462983"><ele>236.0</ele><time>2026-04-25T16:32:11.107Z</time></trkpt><trkpt lat="44.6534333" lon="8.0464083"><ele>236.00000000000003</ele><time>2026-04-25T16:32:12.107Z</time></trkpt><trkpt lat="44.6533683" lon="8.046525"><ele>236.00000000000003</ele><time>2026-04-25T16:32:13.107Z</time></trkpt><trkpt lat="44.6533017" lon="8.04664"><ele>236.0</ele><time>2026-04-25T16:32:14.107Z</time></trkpt><trkpt lat="44.653235" lon="8.0467433"><ele>236.0</ele><time>2026-04-25T16:32:15.107Z</time></trkpt><trkpt lat="44.653175" lon="8.046825"><ele>235.66666666666669</ele><time>2026-04-25T16:32:16.107Z</time></trkpt><trkpt lat="44.6531217" lon="8.04689"><ele>235.33333333333334</ele><time>2026-04-25T16:32:17.107Z</time></trkpt><trkpt lat="44.6530383" lon="8.04698"><ele>235.0</ele><time>2026-04-25T16:32:19.107Z</time></trkpt><trkpt lat="44.65298" lon="8.04704"><ele>234.66666666666669</ele><time>2026-04-25T16:32:23.107Z</time></trkpt><trkpt lat="44.652955" lon="8.0471333"><ele>234.33333333333334</ele><time>2026-04-25T16:32:26.107Z</time></trkpt><trkpt lat="44.652995" lon="8.04723"><ele>234.0</ele><time>2026-04-25T16:32:28.107Z</time></trkpt><trkpt lat="44.6530767" lon="8.0473583"><ele>234.0</ele><time>2026-04-25T16:32:30.107Z</time></trkpt><trkpt lat="44.65313" lon="8.0474367"><ele>234.00000000000003</ele><time>2026-04-25T16:32:31.107Z</time></trkpt><trkpt lat="44.6531817" lon="8.0475167"><ele>234.0</ele><time>2026-04-25T16:32:32.107Z</time></trkpt><trkpt lat="44.653225" lon="8.0476"><ele>234.0</ele><time>2026-04-25T16:32:33.107Z</time></trkpt><trkpt lat="44.653265" lon="8.04768"><ele>234.00000000000003</ele><time>2026-04-25T16:32:34.107Z</time></trkpt><trkpt lat="44.6532967" lon="8.0477683"><ele>234.0</ele><time>2026-04-25T16:32:35.107Z</time></trkpt><trkpt lat="44.653335" lon="8.0478533"><ele>234.0</ele><time>2026-04-25T16:32:36.107Z</time></trkpt><trkpt lat="44.65338" lon="8.047955"><ele>233.66666666666666</ele><time>2026-04-25T16:32:37.107Z</time></trkpt><trkpt lat="44.6534283" lon="8.0480517"><ele>233.33333333333331</ele><time>2026-04-25T16:32:38.107Z</time></trkpt><trkpt lat="44.6534833" lon="8.0481417"><ele>233.0</ele><time>2026-04-25T16:32:39.107Z</time></trkpt><trkpt lat="44.6535383" lon="8.0482267"><ele>232.66666666666666</ele><time>2026-04-25T16:32:40.107Z</time></trkpt><trkpt lat="44.6535833" lon="8.048315"><ele>232.33333333333331</ele><time>2026-04-25T16:32:41.107Z</time></trkpt><trkpt lat="44.6536233" lon="8.0484"><ele>232.0</ele><time>2026-04-25T16:32:42.107Z</time></trkpt><trkpt lat="44.653685" lon="8.0485283"><ele>231.83333333333331</ele><time>2026-04-25T16:32:44.107Z</time></trkpt><trkpt lat="44.6537233" lon="8.0486233"><ele>231.66666666666666</ele><time>2026-04-25T16:32:46.107Z</time></trkpt><trkpt lat="44.6537583" lon="8.048705"><ele>231.5</ele><time>2026-04-25T16:32:48.107Z</time></trkpt><trkpt lat="44.653805" lon="8.0488033"><ele>231.33333333333331</ele><time>2026-04-25T16:32:50.107Z</time></trkpt><trkpt lat="44.6538367" lon="8.0488967"><ele>231.16666666666666</ele><time>2026-04-25T16:32:52.107Z</time></trkpt><trkpt lat="44.65386" lon="8.04901"><ele>231.0</ele><time>2026-04-25T16:32:56.107Z</time></trkpt><trkpt lat="44.6538283" lon="8.0491283"><ele>231.33333333333334</ele><time>2026-04-25T16:32:58.107Z</time></trkpt><trkpt lat="44.6537783" lon="8.0492083"><ele>231.66666666666669</ele><time>2026-04-25T16:32:59.107Z</time></trkpt><trkpt lat="44.6537283" lon="8.049295"><ele>232.0</ele><time>2026-04-25T16:33:00.107Z</time></trkpt><trkpt lat="44.6536733" lon="8.0493917"><ele>232.33333333333334</ele><time>2026-04-25T16:33:01.106Z</time></trkpt><trkpt lat="44.6536067" lon="8.0494917"><ele>232.66666666666669</ele><time>2026-04-25T16:33:02.106Z</time></trkpt><trkpt lat="44.653535" lon="8.0495917"><ele>233.0</ele><time>2026-04-25T16:33:03.106Z</time></trkpt><trkpt lat="44.653465" lon="8.0496833"><ele>233.0</ele><time>2026-04-25T16:33:04.106Z</time></trkpt><trkpt lat="44.653395" lon="8.0497667"><ele>233.0</ele><time>2026-04-25T16:33:05.106Z</time></trkpt><trkpt lat="44.65333" lon="8.049855"><ele>233.0</ele><time>2026-04-25T16:33:06.106Z</time></trkpt><trkpt lat="44.653275" lon="8.0499533"><ele>233.0</ele><time>2026-04-25T16:33:07.106Z</time></trkpt><trkpt lat="44.6532133" lon="8.0500533"><ele>233.0</ele><time>2026-04-25T16:33:08.106Z</time></trkpt><trkpt lat="44.6531467" lon="8.050145"><ele>233.60000000000002</ele><time>2026-04-25T16:33:09.106Z</time></trkpt><trkpt lat="44.6530833" lon="8.0502217"><ele>234.20000000000002</ele><time>2026-04-25T16:33:10.106Z</time></trkpt><trkpt lat="44.6530267" lon="8.0502733"><ele>234.8</ele><time>2026-04-25T16:33:11.106Z</time></trkpt><trkpt lat="44.6529467" lon="8.05034"><ele>235.4</ele><time>2026-04-25T16:33:13.106Z</time></trkpt><trkpt lat="44.65294" lon="8.0504533"><ele>236.0</ele><time>2026-04-25T16:33:15.106Z</time></trkpt><trkpt lat="44.6529933" lon="8.0506183"><ele>236.00000000000003</ele><time>2026-04-25T16:33:17.106Z</time></trkpt><trkpt lat="44.6530433" lon="8.0506917"><ele>236.0</ele><time>2026-04-25T16:33:18.106Z</time></trkpt><trkpt lat="44.653115" lon="8.0507383"><ele>236.0</ele><time>2026-04-25T16:33:19.106Z</time></trkpt><trkpt lat="44.6531967" lon="8.0507467"><ele>236.0</ele><time>2026-04-25T16:33:20.106Z</time></trkpt><trkpt lat="44.65328" lon="8.050735"><ele>236.00000000000003</ele><time>2026-04-25T16:33:21.106Z</time></trkpt><trkpt lat="44.6533667" lon="8.0507033"><ele>236.0</ele><time>2026-04-25T16:33:22.106Z</time></trkpt><trkpt lat="44.65345" lon="8.0506733"><ele>236.0</ele><time>2026-04-25T16:33:23.106Z</time></trkpt><trkpt lat="44.6535383" lon="8.05064"><ele>236.00000000000003</ele><time>2026-04-25T16:33:24.106Z</time></trkpt><trkpt lat="44.6536333" lon="8.0506183"><ele>236.00000000000003</ele><time>2026-04-25T16:33:25.106Z</time></trkpt><trkpt lat="44.6537483" lon="8.0506067"><ele>236.0</ele><time>2026-04-25T16:33:26.106Z</time></trkpt><trkpt lat="44.65386" lon="8.0505917"><ele>236.0</ele><time>2026-04-25T16:33:27.106Z</time></trkpt><trkpt lat="44.6539883" lon="8.0506067"><ele>237.5</ele><time>2026-04-25T16:33:28.106Z</time></trkpt><trkpt lat="44.65411" lon="8.0506283"><ele>239.0</ele><time>2026-04-25T16:33:29.106Z</time></trkpt><trkpt lat="44.6537506" lon="8.0485497"><ele>268.0</ele><time>2026-04-25T16:33:40.301Z</time></trkpt><trkpt lat="44.6554883" lon="8.0501483"><ele>268.0</ele><time>2026-04-25T16:33:42.206Z</time></trkpt><trkpt lat="44.6556583" lon="8.0502117"><ele>268.0</ele><time>2026-04-25T16:33:43.206Z</time></trkpt><trkpt lat="44.6557617" lon="8.0501983"><ele>268.0</ele><time>2026-04-25T16:33:44.206Z</time></trkpt><trkpt lat="44.6558667" lon="8.0501833"><ele>268.0</ele><time>2026-04-25T16:33:45.206Z</time></trkpt><trkpt lat="44.6559583" lon="8.050175"><ele>268.0</ele><time>2026-04-25T16:33:46.206Z</time></trkpt><trkpt lat="44.65608" lon="8.0502183"><ele>268.0</ele><time>2026-04-25T16:33:48.206Z</time></trkpt><trkpt lat="44.65617" lon="8.0502733"><ele>268.0</ele><time>2026-04-25T16:33:50.206Z</time></trkpt><trkpt lat="44.6562633" lon="8.0502867"><ele>268.0</ele><time>2026-04-25T16:33:52.115Z</time></trkpt><trkpt lat="44.6563317" lon="8.0502833"><ele>268.0</ele><time>2026-04-25T16:33:53.115Z</time></trkpt><trkpt lat="44.6564033" lon="8.050295"><ele>269.8333333333333</ele><time>2026-04-25T16:33:54.115Z</time></trkpt><trkpt lat="44.65647" lon="8.0503217"><ele>271.66666666666663</ele><time>2026-04-25T16:33:55.115Z</time></trkpt><trkpt lat="44.6565683" lon="8.0503717"><ele>273.5</ele><time>2026-04-25T16:33:57.115Z</time></trkpt><trkpt lat="44.65662" lon="8.0504933"><ele>275.3333333333333</ele><time>2026-04-25T16:33:59.115Z</time></trkpt><trkpt lat="44.6566167" lon="8.050605"><ele>277.1666666666667</ele><time>2026-04-25T16:34:00.115Z</time></trkpt><trkpt lat="44.65659" lon="8.050725"><ele>279.0</ele><time>2026-04-25T16:34:01.115Z</time></trkpt><trkpt lat="44.65655" lon="8.0508583"><ele>281.8</ele><time>2026-04-25T16:34:02.115Z</time></trkpt><trkpt lat="44.6565067" lon="8.050985"><ele>284.59999999999997</ele><time>2026-04-25T16:34:03.115Z</time></trkpt><trkpt lat="44.6564683" lon="8.0511017"><ele>287.4</ele><time>2026-04-25T16:34:04.115Z</time></trkpt><trkpt lat="44.6564267" lon="8.051215"><ele>290.2</ele><time>2026-04-25T16:34:05.115Z</time></trkpt><trkpt lat="44.6563817" lon="8.0513133"><ele>293.0</ele><time>2026-04-25T16:34:06.115Z</time></trkpt><trkpt lat="44.6563133" lon="8.0514033"><ele>293.0</ele><time>2026-04-25T16:34:07.115Z</time></trkpt><trkpt lat="44.6562367" lon="8.0514983"><ele>293.0</ele><time>2026-04-25T16:34:08.115Z</time></trkpt><trkpt lat="44.6561483" lon="8.0515833"><ele>293.0</ele><time>2026-04-25T16:34:09.115Z</time></trkpt><trkpt lat="44.6560433" lon="8.05166"><ele>293.0</ele><time>2026-04-25T16:34:10.115Z</time></trkpt><trkpt lat="44.6559433" lon="8.0517183"><ele>293.0</ele><time>2026-04-25T16:34:11.115Z</time></trkpt><trkpt lat="44.6558583" lon="8.0517683"><ele>294.8</ele><time>2026-04-25T16:34:12.115Z</time></trkpt><trkpt lat="44.655795" lon="8.0518117"><ele>296.6</ele><time>2026-04-25T16:34:13.115Z</time></trkpt><trkpt lat="44.6557117" lon="8.051865"><ele>298.4</ele><time>2026-04-25T16:34:15.115Z</time></trkpt><trkpt lat="44.6556283" lon="8.051935"><ele>300.2</ele><time>2026-04-25T16:35:27.115Z</time></trkpt><trkpt lat="44.65552" lon="8.0520367"><ele>302.0</ele><time>2026-04-25T16:35:29.115Z</time></trkpt><trkpt lat="44.6554483" lon="8.0520867"><ele>302.0</ele><time>2026-04-25T16:35:30.115Z</time></trkpt><trkpt lat="44.6553733" lon="8.0521533"><ele>302.0</ele><time>2026-04-25T16:35:31.115Z</time></trkpt><trkpt lat="44.6552917" lon="8.0522217"><ele>302.0</ele><time>2026-04-25T16:35:32.115Z</time></trkpt><trkpt lat="44.6552133" lon="8.0522867"><ele>302.0</ele><time>2026-04-25T16:35:33.115Z</time></trkpt><trkpt lat="44.655125" lon="8.0523633"><ele>302.0</ele><time>2026-04-25T16:35:34.115Z</time></trkpt><trkpt lat="44.6550467" lon="8.052435"><ele>303.1666666666667</ele><time>2026-04-25T16:35:35.115Z</time></trkpt><trkpt lat="44.6549667" lon="8.0524817"><ele>304.33333333333337</ele><time>2026-04-25T16:35:36.115Z</time></trkpt><trkpt lat="44.6548917" lon="8.0525367"><ele>305.5</ele><time>2026-04-25T16:35:37.115Z</time></trkpt><trkpt lat="44.6548233" lon="8.0525983"><ele>306.6666666666667</ele><time>2026-04-25T16:35:38.115Z</time></trkpt><trkpt lat="44.6547467" lon="8.052665"><ele>307.8333333333333</ele><time>2026-04-25T16:35:39.115Z</time></trkpt><trkpt lat="44.6546767" lon="8.0527317"><ele>309.0</ele><time>2026-04-25T16:35:40.115Z</time></trkpt><trkpt lat="44.65462" lon="8.0528083"><ele>309.0</ele><time>2026-04-25T16:35:41.115Z</time></trkpt><trkpt lat="44.6545617" lon="8.052915"><ele>309.0</ele><time>2026-04-25T16:35:42.115Z</time></trkpt><trkpt lat="44.65451" lon="8.0530267"><ele>309.0</ele><time>2026-04-25T16:35:43.115Z</time></trkpt><trkpt lat="44.654465" lon="8.0531433"><ele>309.0</ele><time>2026-04-25T16:35:44.115Z</time></trkpt><trkpt lat="44.6544333" lon="8.0532717"><ele>309.0</ele><time>2026-04-25T16:35:45.115Z</time></trkpt><trkpt lat="44.6544067" lon="8.0534"><ele>310.1666666666667</ele><time>2026-04-25T16:35:46.115Z</time></trkpt><trkpt lat="44.6543767" lon="8.0535217"><ele>311.3333333333333</ele><time>2026-04-25T16:35:47.115Z</time></trkpt><trkpt lat="44.6543483" lon="8.0536317"><ele>312.5</ele><time>2026-04-25T16:35:48.115Z</time></trkpt><trkpt lat="44.65432" lon="8.0537383"><ele>313.66666666666663</ele><time>2026-04-25T16:35:49.115Z</time></trkpt><trkpt lat="44.6542917" lon="8.0538417"><ele>314.8333333333333</ele><time>2026-04-25T16:35:50.115Z</time></trkpt><trkpt lat="44.6542567" lon="8.0539283"><ele>316.0</ele><time>2026-04-25T16:35:51.115Z</time></trkpt><trkpt lat="44.6542117" lon="8.0539967"><ele>316.0</ele><time>2026-04-25T16:35:52.115Z</time></trkpt><trkpt lat="44.654145" lon="8.0540383"><ele>316.0</ele><time>2026-04-25T16:35:53.115Z</time></trkpt><trkpt lat="44.6540683" lon="8.054055"><ele>316.0</ele><time>2026-04-25T16:35:54.115Z</time></trkpt><trkpt lat="44.653975" lon="8.05407"><ele>316.0</ele><time>2026-04-25T16:35:55.115Z</time></trkpt><trkpt lat="44.6538717" lon="8.054095"><ele>316.0</ele><time>2026-04-25T16:35:56.115Z</time></trkpt><trkpt lat="44.65377" lon="8.054115"><ele>317.4</ele><time>2026-04-25T16:35:57.115Z</time></trkpt><trkpt lat="44.6536717" lon="8.0541517"><ele>318.8</ele><time>2026-04-25T16:35:58.115Z</time></trkpt><trkpt lat="44.6535817" lon="8.054205"><ele>320.2</ele><time>2026-04-25T16:35:59.115Z</time></trkpt><trkpt lat="44.65349" lon="8.054255"><ele>321.59999999999997</ele><time>2026-04-25T16:36:00.115Z</time></trkpt><trkpt lat="44.6534" lon="8.0543183"><ele>323.0</ele><time>2026-04-25T16:36:01.115Z</time></trkpt><trkpt lat="44.653315" lon="8.0543917"><ele>323.0</ele><time>2026-04-25T16:36:02.115Z</time></trkpt><trkpt lat="44.6532417" lon="8.054475"><ele>323.0</ele><time>2026-04-25T16:36:03.115Z</time></trkpt><trkpt lat="44.6531733" lon="8.05457"><ele>323.0</ele><time>2026-04-25T16:36:04.115Z</time></trkpt><trkpt lat="44.65311" lon="8.0546683"><ele>323.0</ele><time>2026-04-25T16:36:05.115Z</time></trkpt><trkpt lat="44.6530633" lon="8.054755"><ele>323.0</ele><time>2026-04-25T16:36:06.115Z</time></trkpt><trkpt lat="44.653035" lon="8.054885"><ele>325.83333333333337</ele><time>2026-04-25T16:36:08.115Z</time></trkpt><trkpt lat="44.6530867" lon="8.0550167"><ele>328.6666666666667</ele><time>2026-04-25T16:36:10.115Z</time></trkpt><trkpt lat="44.6531417" lon="8.0550717"><ele>331.5</ele><time>2026-04-25T16:36:11.115Z</time></trkpt><trkpt lat="44.6532083" lon="8.0551283"><ele>334.3333333333333</ele><time>2026-04-25T16:36:12.115Z</time></trkpt><trkpt lat="44.6532817" lon="8.05519"><ele>337.16666666666663</ele><time>2026-04-25T16:36:13.115Z</time></trkpt><trkpt lat="44.653355" lon="8.055255"><ele>340.0</ele><time>2026-04-25T16:36:14.115Z</time></trkpt><trkpt lat="44.6534383" lon="8.0553217"><ele>340.0</ele><time>2026-04-25T16:36:15.115Z</time></trkpt><trkpt lat="44.6535117" lon="8.05538"><ele>340.0</ele><time>2026-04-25T16:36:16.115Z</time></trkpt><trkpt lat="44.65359" lon="8.055435"><ele>340.0</ele><time>2026-04-25T16:36:17.115Z</time></trkpt><trkpt lat="44.6536633" lon="8.0554883"><ele>340.0</ele><time>2026-04-25T16:36:18.115Z</time></trkpt><trkpt lat="44.653735" lon="8.055535"><ele>340.0</ele><time>2026-04-25T16:36:19.115Z</time></trkpt><trkpt lat="44.6537983" lon="8.05559"><ele>340.0</ele><time>2026-04-25T16:36:20.115Z</time></trkpt><trkpt lat="44.6538817" lon="8.0556783"><ele>340.0</ele><time>2026-04-25T16:36:22.115Z</time></trkpt><trkpt lat="44.6539117" lon="8.05581"><ele>340.0</ele><time>2026-04-25T16:36:33.115Z</time></trkpt><trkpt lat="44.65391" lon="8.055715"><ele>340.0</ele><time>2026-04-25T16:36:40.115Z</time></trkpt><trkpt lat="44.6538267" lon="8.0556367"><ele>340.0</ele><time>2026-04-25T16:36:42.115Z</time></trkpt><trkpt lat="44.6537583" lon="8.0555867"><ele>340.0</ele><time>2026-04-25T16:36:45.115Z</time></trkpt><trkpt lat="44.6536983" lon="8.0555333"><ele>340.0</ele><time>2026-04-25T16:37:28.115Z</time></trkpt><trkpt lat="44.65361" lon="8.0554533"><ele>340.0</ele><time>2026-04-25T16:37:30.115Z</time></trkpt><trkpt lat="44.6535117" lon="8.05538"><ele>340.0</ele><time>2026-04-25T16:37:32.115Z</time></trkpt><trkpt lat="44.6534133" lon="8.0553033"><ele>340.0</ele><time>2026-04-25T16:37:34.115Z</time></trkpt><trkpt lat="44.6533083" lon="8.0552183"><ele>340.0</ele><time>2026-04-25T16:37:36.115Z</time></trkpt><trkpt lat="44.6531633" lon="8.0550983"><ele>340.0</ele><time>2026-04-25T16:37:39.116Z</time></trkpt><trkpt lat="44.6530983" lon="8.0550383"><ele>340.0</ele><time>2026-04-25T16:37:41.115Z</time></trkpt><trkpt lat="44.6530617" lon="8.0549533"><ele>340.0</ele><time>2026-04-25T16:37:43.115Z</time></trkpt><trkpt lat="44.6530583" lon="8.0548367"><ele>340.0</ele><time>2026-04-25T16:37:45.115Z</time></trkpt><trkpt lat="44.65309" lon="8.05473"><ele>340.0</ele><time>2026-04-25T16:37:47.115Z</time></trkpt><trkpt lat="44.6531483" lon="8.0546267"><ele>340.0</ele><time>2026-04-25T16:37:49.115Z</time></trkpt><trkpt lat="44.653205" lon="8.0545217"><ele>338.8</ele><time>2026-04-25T16:37:51.115Z</time></trkpt><trkpt lat="44.65327" lon="8.0544417"><ele>337.6</ele><time>2026-04-25T16:37:53.115Z</time></trkpt><trkpt lat="44.6533583" lon="8.0543567"><ele>336.4</ele><time>2026-04-25T16:37:55.115Z</time></trkpt><trkpt lat="44.65346" lon="8.0542733"><ele>335.2</ele><time>2026-04-25T16:37:57.115Z</time></trkpt><trkpt lat="44.65356" lon="8.05421"><ele>334.0</ele><time>2026-04-25T16:37:59.115Z</time></trkpt><trkpt lat="44.65367" lon="8.05416"><ele>334.0</ele><time>2026-04-25T16:38:01.115Z</time></trkpt><trkpt lat="44.6537683" lon="8.0541267"><ele>334.0</ele><time>2026-04-25T16:38:03.115Z</time></trkpt><trkpt lat="44.6538767" lon="8.054095"><ele>334.0</ele><time>2026-04-25T16:38:05.115Z</time></trkpt><trkpt lat="44.6539417" lon="8.0540833"><ele>334.0</ele><time>2026-04-25T16:38:06.115Z</time></trkpt><trkpt lat="44.6540083" lon="8.0540633"><ele>334.0</ele><time>2026-04-25T16:38:07.115Z</time></trkpt><trkpt lat="44.654075" lon="8.05405"><ele>334.0</ele><time>2026-04-25T16:38:08.115Z</time></trkpt><trkpt lat="44.65414" lon="8.0540367"><ele>330.4</ele><time>2026-04-25T16:38:09.115Z</time></trkpt><trkpt lat="44.654205" lon="8.05401"><ele>326.79999999999995</ele><time>2026-04-25T16:38:10.115Z</time></trkpt><trkpt lat="44.654295" lon="8.0539083"><ele>323.20000000000005</ele><time>2026-04-25T16:38:12.115Z</time></trkpt><trkpt lat="44.6543467" lon="8.0537317"><ele>319.6</ele><time>2026-04-25T16:38:14.115Z</time></trkpt><trkpt lat="44.6543683" lon="8.0536333"><ele>316.0</ele><time>2026-04-25T16:38:15.115Z</time></trkpt><trkpt lat="44.6543883" lon="8.0535317"><ele>316.0</ele><time>2026-04-25T16:38:16.115Z</time></trkpt><trkpt lat="44.6544083" lon="8.0534333"><ele>316.0</ele><time>2026-04-25T16:38:17.115Z</time></trkpt><trkpt lat="44.6544333" lon="8.0533317"><ele>316.0</ele><time>2026-04-25T16:38:18.115Z</time></trkpt><trkpt lat="44.6544617" lon="8.0532183"><ele>316.0</ele><time>2026-04-25T16:38:19.115Z</time></trkpt><trkpt lat="44.6544917" lon="8.0531017"><ele>316.0</ele><time>2026-04-25T16:38:20.115Z</time></trkpt><trkpt lat="44.6545267" lon="8.052995"><ele>316.0</ele><time>2026-04-25T16:38:21.115Z</time></trkpt><trkpt lat="44.6545667" lon="8.0528833"><ele>314.6</ele><time>2026-04-25T16:38:22.115Z</time></trkpt><trkpt lat="44.6546267" lon="8.0527783"><ele>313.20000000000005</ele><time>2026-04-25T16:38:23.115Z</time></trkpt><trkpt lat="44.654695" lon="8.0526867"><ele>311.79999999999995</ele><time>2026-04-25T16:38:24.115Z</time></trkpt><trkpt lat="44.65477" lon="8.052615"><ele>310.4</ele><time>2026-04-25T16:38:25.115Z</time></trkpt><trkpt lat="44.6548583" lon="8.0525533"><ele>309.0</ele><time>2026-04-25T16:38:26.115Z</time></trkpt><trkpt lat="44.65495" lon="8.052505"><ele>307.59999999999997</ele><time>2026-04-25T16:38:27.115Z</time></trkpt><trkpt lat="44.655045" lon="8.05245"><ele>306.2</ele><time>2026-04-25T16:38:28.115Z</time></trkpt><trkpt lat="44.6551333" lon="8.0523717"><ele>304.79999999999995</ele><time>2026-04-25T16:38:29.115Z</time></trkpt><trkpt lat="44.6552317" lon="8.052305"><ele>303.4</ele><time>2026-04-25T16:38:30.115Z</time></trkpt><trkpt lat="44.6553233" lon="8.05223"><ele>302.0</ele><time>2026-04-25T16:38:31.115Z</time></trkpt><trkpt lat="44.6554167" lon="8.0521417"><ele>302.0</ele><time>2026-04-25T16:38:32.115Z</time></trkpt><trkpt lat="44.6555167" lon="8.0520717"><ele>302.0</ele><time>2026-04-25T16:38:33.115Z</time></trkpt><trkpt lat="44.6556167" lon="8.05199"><ele>302.0</ele><time>2026-04-25T16:38:34.115Z</time></trkpt><trkpt lat="44.6557117" lon="8.0519067"><ele>302.0</ele><time>2026-04-25T16:38:35.115Z</time></trkpt><trkpt lat="44.6558167" lon="8.051815"><ele>302.0</ele><time>2026-04-25T16:38:36.115Z</time></trkpt><trkpt lat="44.6559233" lon="8.0517217"><ele>302.0</ele><time>2026-04-25T16:38:37.115Z</time></trkpt><trkpt lat="44.6560267" lon="8.05163"><ele>302.0</ele><time>2026-04-25T16:38:38.115Z</time></trkpt><trkpt lat="44.6561167" lon="8.0515383"><ele>302.0</ele><time>2026-04-25T16:38:39.115Z</time></trkpt><trkpt lat="44.6562083" lon="8.0514667"><ele>300.5</ele><time>2026-04-25T16:38:40.115Z</time></trkpt><trkpt lat="44.6562967" lon="8.0513983"><ele>299.0</ele><time>2026-04-25T16:38:41.115Z</time></trkpt><trkpt lat="44.6563767" lon="8.0513233"><ele>297.5</ele><time>2026-04-25T16:38:42.116Z</time></trkpt><trkpt lat="44.6564317" lon="8.0512367"><ele>296.0</ele><time>2026-04-25T16:38:43.115Z</time></trkpt><trkpt lat="44.6564667" lon="8.0511333"><ele>294.5</ele><time>2026-04-25T16:38:44.115Z</time></trkpt><trkpt lat="44.6564933" lon="8.051025"><ele>293.0</ele><time>2026-04-25T16:38:45.115Z</time></trkpt><trkpt lat="44.6565233" lon="8.0509217"><ele>293.0</ele><time>2026-04-25T16:38:46.115Z</time></trkpt><trkpt lat="44.6565533" lon="8.0508133"><ele>293.0</ele><time>2026-04-25T16:38:47.115Z</time></trkpt><trkpt lat="44.6565767" lon="8.0507217"><ele>293.0</ele><time>2026-04-25T16:38:48.115Z</time></trkpt><trkpt lat="44.6566133" lon="8.0505883"><ele>293.0</ele><time>2026-04-25T16:38:50.115Z</time></trkpt><trkpt lat="44.6566283" lon="8.0504967"><ele>293.0</ele><time>2026-04-25T16:38:53.115Z</time></trkpt><trkpt lat="44.6565933" lon="8.0504"><ele>293.0</ele><time>2026-04-25T16:39:01.115Z</time></trkpt><trkpt lat="44.6564983" lon="8.05035"><ele>290.2</ele><time>2026-04-25T16:39:03.115Z</time></trkpt><trkpt lat="44.6563883" lon="8.05032"><ele>287.4</ele><time>2026-04-25T16:39:05.115Z</time></trkpt><trkpt lat="44.6562633" lon="8.0502917"><ele>284.59999999999997</ele><time>2026-04-25T16:39:07.115Z</time></trkpt><trkpt lat="44.6561933" lon="8.0502783"><ele>281.8</ele><time>2026-04-25T16:39:08.116Z</time></trkpt><trkpt lat="44.656125" lon="8.0502483"><ele>279.0</ele><time>2026-04-25T16:39:09.115Z</time></trkpt><trkpt lat="44.6560517" lon="8.0502267"><ele>277.1666666666667</ele><time>2026-04-25T16:39:10.115Z</time></trkpt><trkpt lat="44.6559767" lon="8.0501983"><ele>275.3333333333333</ele><time>2026-04-25T16:39:11.115Z</time></trkpt><trkpt lat="44.6559017" lon="8.0501967"><ele>273.5</ele><time>2026-04-25T16:39:12.115Z</time></trkpt><trkpt lat="44.655815" lon="8.0501983"><ele>271.66666666666663</ele><time>2026-04-25T16:39:13.115Z</time></trkpt><trkpt lat="44.655725" lon="8.0502083"><ele>269.8333333333333</ele><time>2026-04-25T16:39:14.115Z</time></trkpt><trkpt lat="44.6556417" lon="8.050225"><ele>268.0</ele><time>2026-04-25T16:39:15.115Z</time></trkpt><trkpt lat="44.655555" lon="8.0502383"><ele>268.0</ele><time>2026-04-25T16:39:16.115Z</time></trkpt><trkpt lat="44.655465" lon="8.0502533"><ele>268.0</ele><time>2026-04-25T16:39:17.115Z</time></trkpt><trkpt lat="44.65537" lon="8.0502733"><ele>268.0</ele><time>2026-04-25T16:39:18.115Z</time></trkpt><trkpt lat="44.65528" lon="8.0503"><ele>268.0</ele><time>2026-04-25T16:39:19.115Z</time></trkpt><trkpt lat="44.6551833" lon="8.0503317"><ele>268.0</ele><time>2026-04-25T16:39:20.115Z</time></trkpt><trkpt lat="44.6550917" lon="8.05038"><ele>264.8</ele><time>2026-04-25T16:39:21.115Z</time></trkpt><trkpt lat="44.654995" lon="8.0504383"><ele>261.6</ele><time>2026-04-25T16:39:22.115Z</time></trkpt><trkpt lat="44.6549033" lon="8.0505033"><ele>258.4</ele><time>2026-04-25T16:39:23.115Z</time></trkpt><trkpt lat="44.6548183" lon="8.0505633"><ele>255.2</ele><time>2026-04-25T16:39:24.115Z</time></trkpt><trkpt lat="44.6547167" lon="8.05061"><ele>252.0</ele><time>2026-04-25T16:39:25.115Z</time></trkpt><trkpt lat="44.6546167" lon="8.0506483"><ele>252.0</ele><time>2026-04-25T16:39:26.115Z</time></trkpt><trkpt lat="44.6545117" lon="8.0506567"><ele>252.0</ele><time>2026-04-25T16:39:27.115Z</time></trkpt><trkpt lat="44.6544067" lon="8.05066"><ele>252.0</ele><time>2026-04-25T16:39:28.115Z</time></trkpt><trkpt lat="44.654295" lon="8.0506517"><ele>252.0</ele><time>2026-04-25T16:39:29.115Z</time></trkpt><trkpt lat="44.654185" lon="8.0506433"><ele>252.0</ele><time>2026-04-25T16:39:30.115Z</time></trkpt><trkpt lat="44.6540717" lon="8.0506333"><ele>248.75</ele><time>2026-04-25T16:39:31.115Z</time></trkpt><trkpt lat="44.6539583" lon="8.0506333"><ele>245.5</ele><time>2026-04-25T16:39:32.115Z</time></trkpt><trkpt lat="44.653845" lon="8.0506317"><ele>242.25</ele><time>2026-04-25T16:39:33.115Z</time></trkpt><trkpt lat="44.6537317" lon="8.0506333"><ele>239.0</ele><time>2026-04-25T16:39:34.115Z</time></trkpt><trkpt lat="44.6536167" lon="8.0506467"><ele>238.39999999999998</ele><time>2026-04-25T16:39:35.115Z</time></trkpt><trkpt lat="44.6535167" lon="8.050665"><ele>237.79999999999998</ele><time>2026-04-25T16:39:36.115Z</time></trkpt><trkpt lat="44.65342" lon="8.050685"><ele>237.20000000000002</ele><time>2026-04-25T16:39:37.115Z</time></trkpt><trkpt lat="44.6533183" lon="8.0507033"><ele>236.60000000000002</ele><time>2026-04-25T16:39:38.115Z</time></trkpt><trkpt lat="44.65323" lon="8.0507083"><ele>236.0</ele><time>2026-04-25T16:39:39.115Z</time></trkpt><trkpt lat="44.6531567" lon="8.0507183"><ele>236.00000000000003</ele><time>2026-04-25T16:39:40.115Z</time></trkpt><trkpt lat="44.6530933" lon="8.0506967"><ele>236.0</ele><time>2026-04-25T16:39:41.115Z</time></trkpt><trkpt lat="44.6530383" lon="8.05059"><ele>236.0</ele><time>2026-04-25T16:39:43.115Z</time></trkpt><trkpt lat="44.6530683" lon="8.05045"><ele>236.0</ele><time>2026-04-25T16:39:45.115Z</time></trkpt><trkpt lat="44.6531033" lon="8.0503683"><ele>236.00000000000003</ele><time>2026-04-25T16:39:46.115Z</time></trkpt><trkpt lat="44.6531467" lon="8.0502733"><ele>236.0</ele><time>2026-04-25T16:39:47.115Z</time></trkpt><trkpt lat="44.6532" lon="8.0501667"><ele>236.0</ele><time>2026-04-25T16:39:48.115Z</time></trkpt><trkpt lat="44.6532617" lon="8.05007"><ele>236.00000000000003</ele><time>2026-04-25T16:39:49.115Z</time></trkpt><trkpt lat="44.6533283" lon="8.0499767"><ele>236.00000000000003</ele><time>2026-04-25T16:39:50.115Z</time></trkpt><trkpt lat="44.6533883" lon="8.049875"><ele>236.0</ele><time>2026-04-25T16:39:51.115Z</time></trkpt><trkpt lat="44.65345" lon="8.0497767"><ele>236.0</ele><time>2026-04-25T16:39:52.115Z</time></trkpt><trkpt lat="44.6535183" lon="8.049685"><ele>235.5</ele><time>2026-04-25T16:39:53.115Z</time></trkpt><trkpt lat="44.6535967" lon="8.049575"><ele>235.0</ele><time>2026-04-25T16:39:54.115Z</time></trkpt><trkpt lat="44.653675" lon="8.0494617"><ele>234.5</ele><time>2026-04-25T16:39:55.115Z</time></trkpt><trkpt lat="44.65376" lon="8.0493517"><ele>234.0</ele><time>2026-04-25T16:39:56.115Z</time></trkpt><trkpt lat="44.6538383" lon="8.0492383"><ele>233.39999999999998</ele><time>2026-04-25T16:39:57.115Z</time></trkpt><trkpt lat="44.653915" lon="8.0491233"><ele>232.79999999999998</ele><time>2026-04-25T16:39:58.115Z</time></trkpt><trkpt lat="44.653995" lon="8.0490083"><ele>232.20000000000002</ele><time>2026-04-25T16:39:59.115Z</time></trkpt><trkpt lat="44.6540683" lon="8.0489167"><ele>231.60000000000002</ele><time>2026-04-25T16:40:00.115Z</time></trkpt><trkpt lat="44.6541433" lon="8.0488233"><ele>231.0</ele><time>2026-04-25T16:40:01.115Z</time></trkpt><trkpt lat="44.65423" lon="8.048745"><ele>231.0</ele><time>2026-04-25T16:40:02.115Z</time></trkpt><trkpt lat="44.6543117" lon="8.0486733"><ele>231.00000000000003</ele><time>2026-04-25T16:40:03.115Z</time></trkpt><trkpt lat="44.6544067" lon="8.0485917"><ele>231.00000000000003</ele><time>2026-04-25T16:40:04.115Z</time></trkpt><trkpt lat="44.6544933" lon="8.0485217"><ele>231.0</ele><time>2026-04-25T16:40:05.115Z</time></trkpt><trkpt lat="44.65459" lon="8.0484667"><ele>231.0</ele><time>2026-04-25T16:40:06.115Z</time></trkpt><trkpt lat="44.6546767" lon="8.0483983"><ele>230.8</ele><time>2026-04-25T16:40:07.115Z</time></trkpt><trkpt lat="44.654775" lon="8.0483417"><ele>230.60000000000002</ele><time>2026-04-25T16:40:08.115Z</time></trkpt><trkpt lat="44.654865" lon="8.0482917"><ele>230.4</ele><time>2026-04-25T16:40:09.115Z</time></trkpt><trkpt lat="44.6549633" lon="8.0482317"><ele>230.2</ele><time>2026-04-25T16:40:10.115Z</time></trkpt><trkpt lat="44.6550783" lon="8.0481817"><ele>230.0</ele><time>2026-04-25T16:40:11.115Z</time></trkpt><trkpt lat="44.6551933" lon="8.0481317"><ele>229.25</ele><time>2026-04-25T16:40:12.115Z</time></trkpt><trkpt lat="44.6553117" lon="8.0480833"><ele>228.5</ele><time>2026-04-25T16:40:13.115Z</time></trkpt><trkpt lat="44.6554267" lon="8.048025"><ele>227.75</ele><time>2026-04-25T16:40:14.115Z</time></trkpt><trkpt lat="44.65554" lon="8.0479817"><ele>227.0</ele><time>2026-04-25T16:40:15.115Z</time></trkpt><trkpt lat="44.6556617" lon="8.0479267"><ele>227.0</ele><time>2026-04-25T16:40:16.115Z</time></trkpt><trkpt lat="44.6557867" lon="8.0478833"><ele>227.0</ele><time>2026-04-25T16:40:17.115Z</time></trkpt><trkpt lat="44.65591" lon="8.0478317"><ele>227.0</ele><time>2026-04-25T16:40:18.115Z</time></trkpt><trkpt lat="44.6560283" lon="8.0477767"><ele>227.0</ele><time>2026-04-25T16:40:19.115Z</time></trkpt><trkpt lat="44.65614" lon="8.04773"><ele>227.25</ele><time>2026-04-25T16:40:20.115Z</time></trkpt><trkpt lat="44.6562617" lon="8.0476833"><ele>227.5</ele><time>2026-04-25T16:40:21.115Z</time></trkpt><trkpt lat="44.6563817" lon="8.0476233"><ele>227.75</ele><time>2026-04-25T16:40:22.115Z</time></trkpt><trkpt lat="44.6565017" lon="8.04757"><ele>228.0</ele><time>2026-04-25T16:40:23.115Z</time></trkpt><trkpt lat="44.6566083" lon="8.0475117"><ele>227.25</ele><time>2026-04-25T16:40:24.115Z</time></trkpt><trkpt lat="44.6567217" lon="8.0474533"><ele>226.5</ele><time>2026-04-25T16:40:25.115Z</time></trkpt><trkpt lat="44.6568367" lon="8.0474083"><ele>225.75</ele><time>2026-04-25T16:40:26.115Z</time></trkpt><trkpt lat="44.6569433" lon="8.0473617"><ele>225.0</ele><time>2026-04-25T16:40:27.115Z</time></trkpt><trkpt lat="44.6570467" lon="8.0473217"><ele>225.0</ele><time>2026-04-25T16:40:28.115Z</time></trkpt><trkpt lat="44.6571467" lon="8.0472767"><ele>225.0</ele><time>2026-04-25T16:40:29.115Z</time></trkpt><trkpt lat="44.6572417" lon="8.0472383"><ele>225.0</ele><time>2026-04-25T16:40:30.115Z</time></trkpt><trkpt lat="44.6573433" lon="8.0471817"><ele>225.0</ele><time>2026-04-25T16:40:31.115Z</time></trkpt><trkpt lat="44.6574483" lon="8.0471367"><ele>225.0</ele><time>2026-04-25T16:40:32.115Z</time></trkpt><trkpt lat="44.6575567" lon="8.0470867"><ele>225.0</ele><time>2026-04-25T16:40:33.115Z</time></trkpt><trkpt lat="44.6576667" lon="8.0470317"><ele>225.0</ele><time>2026-04-25T16:40:34.115Z</time></trkpt><trkpt lat="44.657785" lon="8.0469833"><ele>225.0</ele><time>2026-04-25T16:40:35.115Z</time></trkpt><trkpt lat="44.6579017" lon="8.04693"><ele>225.0</ele><time>2026-04-25T16:40:36.115Z</time></trkpt><trkpt lat="44.6580183" lon="8.0468817"><ele>225.16666666666666</ele><time>2026-04-25T16:40:37.115Z</time></trkpt><trkpt lat="44.6581267" lon="8.046835"><ele>225.33333333333331</ele><time>2026-04-25T16:40:38.115Z</time></trkpt><trkpt lat="44.6582217" lon="8.0468"><ele>225.5</ele><time>2026-04-25T16:40:39.115Z</time></trkpt><trkpt lat="44.6582883" lon="8.0467583"><ele>225.66666666666666</ele><time>2026-04-25T16:40:40.115Z</time></trkpt><trkpt lat="44.6583617" lon="8.0467267"><ele>225.83333333333331</ele><time>2026-04-25T16:40:42.115Z</time></trkpt><trkpt lat="44.6584283" lon="8.0467"><ele>226.0</ele><time>2026-04-25T16:40:45.115Z</time></trkpt><trkpt lat="44.6585183" lon="8.0466633"><ele>226.0</ele><time>2026-04-25T16:40:47.115Z</time></trkpt><trkpt lat="44.658585" lon="8.0466367"><ele>226.00000000000003</ele><time>2026-04-25T16:40:48.115Z</time></trkpt><trkpt lat="44.6586967" lon="8.046615"><ele>226.00000000000003</ele><time>2026-04-25T16:40:50.115Z</time></trkpt><trkpt lat="44.658785" lon="8.046585"><ele>226.0</ele><time>2026-04-25T16:42:20.115Z</time></trkpt><trkpt lat="44.6589033" lon="8.046505"><ele>226.0</ele><time>2026-04-25T16:42:22.115Z</time></trkpt><trkpt lat="44.65899" lon="8.0464633"><ele>224.75</ele><time>2026-04-25T16:42:23.114Z</time></trkpt><trkpt lat="44.6590933" lon="8.046425"><ele>223.5</ele><time>2026-04-25T16:42:24.114Z</time></trkpt><trkpt lat="44.6592067" lon="8.0463633"><ele>222.25</ele><time>2026-04-25T16:42:25.114Z</time></trkpt><trkpt lat="44.65932" lon="8.0463167"><ele>221.0</ele><time>2026-04-25T16:42:26.114Z</time></trkpt><trkpt lat="44.6594417" lon="8.0462633"><ele>221.0</ele><time>2026-04-25T16:42:27.114Z</time></trkpt><trkpt lat="44.6595583" lon="8.0462117"><ele>221.0</ele><time>2026-04-25T16:42:28.114Z</time></trkpt><trkpt lat="44.6596833" lon="8.0461533"><ele>221.0</ele><time>2026-04-25T16:42:29.114Z</time></trkpt><trkpt lat="44.65981" lon="8.0461017"><ele>221.0</ele><time>2026-04-25T16:42:30.114Z</time></trkpt><trkpt lat="44.6599317" lon="8.0460483"><ele>221.0</ele><time>2026-04-25T16:42:31.114Z</time></trkpt><trkpt lat="44.6600517" lon="8.045995"><ele>221.0</ele><time>2026-04-25T16:42:32.114Z</time></trkpt><trkpt lat="44.6601717" lon="8.0459383"><ele>221.0</ele><time>2026-04-25T16:42:33.114Z</time></trkpt><trkpt lat="44.6602967" lon="8.0458733"><ele>221.0</ele><time>2026-04-25T16:42:34.114Z</time></trkpt><trkpt lat="44.6604233" lon="8.0458067"><ele>219.75</ele><time>2026-04-25T16:42:35.114Z</time></trkpt><trkpt lat="44.660555" lon="8.0457467"><ele>218.5</ele><time>2026-04-25T16:42:36.114Z</time></trkpt><trkpt lat="44.660685" lon="8.0456917"><ele>217.25</ele><time>2026-04-25T16:42:37.114Z</time></trkpt><trkpt lat="44.66082" lon="8.0456367"><ele>216.0</ele><time>2026-04-25T16:42:38.114Z</time></trkpt><trkpt lat="44.6609467" lon="8.045575"><ele>216.0</ele><time>2026-04-25T16:42:39.114Z</time></trkpt><trkpt lat="44.66107" lon="8.0455183"><ele>216.0</ele><time>2026-04-25T16:42:40.114Z</time></trkpt><trkpt lat="44.6611933" lon="8.0454567"><ele>216.0</ele><time>2026-04-25T16:42:41.114Z</time></trkpt><trkpt lat="44.6613317" lon="8.0454017"><ele>216.0</ele><time>2026-04-25T16:42:42.114Z</time></trkpt><trkpt lat="44.661465" lon="8.045345"><ele>216.25</ele><time>2026-04-25T16:42:43.114Z</time></trkpt><trkpt lat="44.6616" lon="8.045285"><ele>216.5</ele><time>2026-04-25T16:42:44.114Z</time></trkpt><trkpt lat="44.6617367" lon="8.04523"><ele>216.75</ele><time>2026-04-25T16:42:45.114Z</time></trkpt><trkpt lat="44.6618683" lon="8.045175"><ele>217.0</ele><time>2026-04-25T16:42:46.114Z</time></trkpt><trkpt lat="44.6619983" lon="8.0451083"><ele>216.5</ele><time>2026-04-25T16:42:47.114Z</time></trkpt><trkpt lat="44.6621383" lon="8.0450433"><ele>216.0</ele><time>2026-04-25T16:42:48.114Z</time></trkpt><trkpt lat="44.6622883" lon="8.0449867"><ele>215.5</ele><time>2026-04-25T16:42:49.114Z</time></trkpt><trkpt lat="44.6624283" lon="8.0449267"><ele>215.0</ele><time>2026-04-25T16:42:50.114Z</time></trkpt><trkpt lat="44.6625683" lon="8.0448583"><ele>214.66666666666669</ele><time>2026-04-25T16:42:51.114Z</time></trkpt><trkpt lat="44.6627083" lon="8.0447867"><ele>214.33333333333331</ele><time>2026-04-25T16:42:52.114Z</time></trkpt><trkpt lat="44.66285" lon="8.044715"><ele>214.0</ele><time>2026-04-25T16:42:53.114Z</time></trkpt><trkpt lat="44.663" lon="8.0446517"><ele>213.0</ele><time>2026-04-25T16:42:54.114Z</time></trkpt><trkpt lat="44.6631417" lon="8.0445917"><ele>212.0</ele><time>2026-04-25T16:42:55.114Z</time></trkpt><trkpt lat="44.6632883" lon="8.0445233"><ele>211.0</ele><time>2026-04-25T16:42:56.114Z</time></trkpt><trkpt lat="44.6634317" lon="8.044465"><ele>211.0</ele><time>2026-04-25T16:42:57.114Z</time></trkpt><trkpt lat="44.66358" lon="8.0444"><ele>211.0</ele><time>2026-04-25T16:42:58.114Z</time></trkpt><trkpt lat="44.663715" lon="8.0443333"><ele>211.0</ele><time>2026-04-25T16:42:59.114Z</time></trkpt><trkpt lat="44.66385" lon="8.0442783"><ele>211.0</ele><time>2026-04-25T16:43:00.114Z</time></trkpt><trkpt lat="44.66398" lon="8.0442167"><ele>210.5</ele><time>2026-04-25T16:43:01.114Z</time></trkpt><trkpt lat="44.664105" lon="8.0441617"><ele>210.0</ele><time>2026-04-25T16:43:02.114Z</time></trkpt><trkpt lat="44.6642233" lon="8.044105"><ele>209.5</ele><time>2026-04-25T16:43:03.114Z</time></trkpt><trkpt lat="44.6643433" lon="8.044045"><ele>209.0</ele><time>2026-04-25T16:43:04.114Z</time></trkpt><trkpt lat="44.6644683" lon="8.04399"><ele>208.75</ele><time>2026-04-25T16:43:05.114Z</time></trkpt><trkpt lat="44.6646033" lon="8.0439417"><ele>208.5</ele><time>2026-04-25T16:43:06.114Z</time></trkpt><trkpt lat="44.6647283" lon="8.0438833"><ele>208.25</ele><time>2026-04-25T16:43:07.114Z</time></trkpt><trkpt lat="44.6648567" lon="8.0438267"><ele>208.0</ele><time>2026-04-25T16:43:08.114Z</time></trkpt><trkpt lat="44.6649883" lon="8.0437733"><ele>208.0</ele><time>2026-04-25T16:43:09.114Z</time></trkpt><trkpt lat="44.6651233" lon="8.04371"><ele>208.0</ele><time>2026-04-25T16:43:10.114Z</time></trkpt><trkpt lat="44.6652617" lon="8.0436467"><ele>208.0</ele><time>2026-04-25T16:43:11.114Z</time></trkpt><trkpt lat="44.6653883" lon="8.043595"><ele>208.0</ele><time>2026-04-25T16:43:12.114Z</time></trkpt><trkpt lat="44.6655117" lon="8.0435383"><ele>208.0</ele><time>2026-04-25T16:43:13.114Z</time></trkpt><trkpt lat="44.6656317" lon="8.04348"><ele>208.0</ele><time>2026-04-25T16:43:14.114Z</time></trkpt><trkpt lat="44.6657517" lon="8.0434217"><ele>208.0</ele><time>2026-04-25T16:43:15.114Z</time></trkpt><trkpt lat="44.665865" lon="8.04338"><ele>208.0</ele><time>2026-04-25T16:43:16.114Z</time></trkpt><trkpt lat="44.6659833" lon="8.0433217"><ele>207.5</ele><time>2026-04-25T16:43:17.114Z</time></trkpt><trkpt lat="44.6661033" lon="8.0432683"><ele>207.0</ele><time>2026-04-25T16:43:18.114Z</time></trkpt><trkpt lat="44.6662167" lon="8.043215"><ele>206.5</ele><time>2026-04-25T16:43:19.114Z</time></trkpt><trkpt lat="44.6663317" lon="8.04317"><ele>206.0</ele><time>2026-04-25T16:43:20.114Z</time></trkpt><trkpt lat="44.6664417" lon="8.0431167"><ele>205.4</ele><time>2026-04-25T16:43:21.114Z</time></trkpt><trkpt lat="44.666555" lon="8.043075"><ele>204.8</ele><time>2026-04-25T16:43:22.114Z</time></trkpt><trkpt lat="44.6666567" lon="8.04303"><ele>204.20000000000002</ele><time>2026-04-25T16:43:23.114Z</time></trkpt><trkpt lat="44.666745" lon="8.0429933"><ele>203.60000000000002</ele><time>2026-04-25T16:43:24.114Z</time></trkpt><trkpt lat="44.6668083" lon="8.0429733"><ele>203.0</ele><time>2026-04-25T16:43:25.114Z</time></trkpt><trkpt lat="44.6668783" lon="8.0430167"><ele>203.0</ele><time>2026-04-25T16:43:27.114Z</time></trkpt><trkpt lat="44.6668967" lon="8.04321"><ele>203.0</ele><time>2026-04-25T16:43:29.114Z</time></trkpt><trkpt lat="44.6668983" lon="8.0433517"><ele>203.0</ele><time>2026-04-25T16:43:30.114Z</time></trkpt><trkpt lat="44.6669033" lon="8.0435"><ele>203.0</ele><time>2026-04-25T16:43:31.114Z</time></trkpt><trkpt lat="44.6669167" lon="8.043665"><ele>203.75</ele><time>2026-04-25T16:43:32.114Z</time></trkpt><trkpt lat="44.6669267" lon="8.0438333"><ele>204.5</ele><time>2026-04-25T16:43:33.114Z</time></trkpt><trkpt lat="44.6669383" lon="8.0439883"><ele>205.25</ele><time>2026-04-25T16:43:34.114Z</time></trkpt><trkpt lat="44.6669417" lon="8.0441567"><ele>206.0</ele><time>2026-04-25T16:43:35.114Z</time></trkpt><trkpt lat="44.6669567" lon="8.0443183"><ele>206.60000000000002</ele><time>2026-04-25T16:43:36.114Z</time></trkpt><trkpt lat="44.66697" lon="8.0444767"><ele>207.2</ele><time>2026-04-25T16:43:37.114Z</time></trkpt><trkpt lat="44.666985" lon="8.0446217"><ele>207.8</ele><time>2026-04-25T16:43:38.114Z</time></trkpt><trkpt lat="44.6669983" lon="8.04476"><ele>208.39999999999998</ele><time>2026-04-25T16:43:39.114Z</time></trkpt><trkpt lat="44.667005" lon="8.0448783"><ele>209.0</ele><time>2026-04-25T16:43:40.114Z</time></trkpt><trkpt lat="44.6669967" lon="8.0449817"><ele>210.0</ele><time>2026-04-25T16:43:41.114Z</time></trkpt><trkpt lat="44.66696" lon="8.0450583"><ele>211.0</ele><time>2026-04-25T16:43:42.114Z</time></trkpt><trkpt lat="44.66689" lon="8.04512"><ele>211.99999999999997</ele><time>2026-04-25T16:43:43.114Z</time></trkpt><trkpt lat="44.666785" lon="8.0451583"><ele>213.0</ele><time>2026-04-25T16:43:44.114Z</time></trkpt><trkpt lat="44.666665" lon="8.0451783"><ele>214.0</ele><time>2026-04-25T16:43:45.114Z</time></trkpt><trkpt lat="44.66655" lon="8.0452033"><ele>213.99999999999997</ele><time>2026-04-25T16:43:46.114Z</time></trkpt><trkpt lat="44.6664483" lon="8.0452367"><ele>214.0</ele><time>2026-04-25T16:43:47.114Z</time></trkpt><trkpt lat="44.6663583" lon="8.0452733"><ele>214.0</ele><time>2026-04-25T16:43:48.114Z</time></trkpt><trkpt lat="44.666275" lon="8.04531"><ele>214.0</ele><time>2026-04-25T16:43:49.114Z</time></trkpt><trkpt lat="44.6662117" lon="8.0453467"><ele>213.99999999999997</ele><time>2026-04-25T16:43:50.114Z</time></trkpt><trkpt lat="44.6661617" lon="8.045405"><ele>214.0</ele><time>2026-04-25T16:43:51.114Z</time></trkpt><trkpt lat="44.6661567" lon="8.0455433"><ele>214.0</ele><time>2026-04-25T16:43:53.114Z</time></trkpt><trkpt lat="44.6663" lon="8.0455867"><ele>214.0</ele><time>2026-04-25T16:43:55.114Z</time></trkpt><trkpt lat="44.6664067" lon="8.04556"><ele>214.0</ele><time>2026-04-25T16:43:56.114Z</time></trkpt><trkpt lat="44.6665167" lon="8.0455383"><ele>214.0</ele><time>2026-04-25T16:43:57.114Z</time></trkpt><trkpt lat="44.6666167" lon="8.0455267"><ele>214.0</ele><time>2026-04-25T16:43:58.114Z</time></trkpt><trkpt lat="44.66671" lon="8.0455467"><ele>213.99999999999997</ele><time>2026-04-25T16:43:59.114Z</time></trkpt><trkpt lat="44.6667967" lon="8.0455767"><ele>213.99999999999997</ele><time>2026-04-25T16:44:00.114Z</time></trkpt><trkpt lat="44.6668867" lon="8.0456267"><ele>214.0</ele><time>2026-04-25T16:44:01.114Z</time></trkpt><trkpt lat="44.66698" lon="8.0456633"><ele>214.0</ele><time>2026-04-25T16:44:02.114Z</time></trkpt><trkpt lat="44.6670833" lon="8.0456583"><ele>214.6</ele><time>2026-04-25T16:44:03.114Z</time></trkpt><trkpt lat="44.6671917" lon="8.0456467"><ele>215.2</ele><time>2026-04-25T16:44:04.114Z</time></trkpt><trkpt lat="44.6673017" lon="8.0456283"><ele>215.79999999999998</ele><time>2026-04-25T16:44:05.114Z</time></trkpt><trkpt lat="44.66742" lon="8.04561"><ele>216.39999999999998</ele><time>2026-04-25T16:44:06.114Z</time></trkpt><trkpt lat="44.6675233" lon="8.0455733"><ele>217.0</ele><time>2026-04-25T16:44:07.114Z</time></trkpt><trkpt lat="44.6676217" lon="8.0455433"><ele>217.0</ele><time>2026-04-25T16:44:08.114Z</time></trkpt><trkpt lat="44.6677083" lon="8.0455367"><ele>217.0</ele><time>2026-04-25T16:44:09.114Z</time></trkpt><trkpt lat="44.667775" lon="8.0455483"><ele>217.0</ele><time>2026-04-25T16:44:10.114Z</time></trkpt><trkpt lat="44.6676367" lon="8.0456833"><ele>217.0</ele><time>2026-04-25T16:44:15.114Z</time></trkpt><trkpt lat="44.66754" lon="8.0457167"><ele>217.0</ele><time>2026-04-25T16:44:16.114Z</time></trkpt><trkpt lat="44.6674433" lon="8.0457783"><ele>222.25</ele><time>2026-04-25T16:44:17.114Z</time></trkpt><trkpt lat="44.6673467" lon="8.0458633"><ele>227.5</ele><time>2026-04-25T16:44:18.114Z</time></trkpt><trkpt lat="44.6672533" lon="8.0459483"><ele>232.75</ele><time>2026-04-25T16:44:19.114Z</time></trkpt><trkpt lat="44.6671617" lon="8.0460383"><ele>238.0</ele><time>2026-04-25T16:44:20.114Z</time></trkpt><trkpt lat="44.6670817" lon="8.0461517"><ele>238.0</ele><time>2026-04-25T16:44:21.114Z</time></trkpt><trkpt lat="44.666995" lon="8.04624"><ele>238.0</ele><time>2026-04-25T16:44:22.114Z</time></trkpt><trkpt lat="44.666915" lon="8.046295"><ele>238.0</ele><time>2026-04-25T16:44:23.114Z</time></trkpt><trkpt lat="44.666825" lon="8.04631"><ele>238.0</ele><time>2026-04-25T16:44:24.114Z</time></trkpt><trkpt lat="44.6667267" lon="8.0462967"><ele>238.0</ele><time>2026-04-25T16:44:25.114Z</time></trkpt><trkpt lat="44.6666333" lon="8.04628"><ele>236.25</ele><time>2026-04-25T16:44:26.114Z</time></trkpt><trkpt lat="44.6665283" lon="8.0462917"><ele>234.5</ele><time>2026-04-25T16:44:27.114Z</time></trkpt><trkpt lat="44.6664217" lon="8.0463167"><ele>232.75</ele><time>2026-04-25T16:44:28.114Z</time></trkpt><trkpt lat="44.66631" lon="8.04637"><ele>231.0</ele><time>2026-04-25T16:44:29.114Z</time></trkpt><trkpt lat="44.666195" lon="8.0464317"><ele>230.25</ele><time>2026-04-25T16:44:30.114Z</time></trkpt><trkpt lat="44.6660817" lon="8.0464833"><ele>229.5</ele><time>2026-04-25T16:44:31.114Z</time></trkpt><trkpt lat="44.6659633" lon="8.0465183"><ele>228.75</ele><time>2026-04-25T16:44:32.114Z</time></trkpt><trkpt lat="44.6658583" lon="8.0465533"><ele>228.0</ele><time>2026-04-25T16:44:33.114Z</time></trkpt><trkpt lat="44.6657567" lon="8.0465933"><ele>228.0</ele><time>2026-04-25T16:44:34.114Z</time></trkpt><trkpt lat="44.6656583" lon="8.04662"><ele>228.0</ele><time>2026-04-25T16:44:35.114Z</time></trkpt><trkpt lat="44.6655817" lon="8.046665"><ele>228.0</ele><time>2026-04-25T16:44:36.114Z</time></trkpt><trkpt lat="44.6655117" lon="8.0467217"><ele>228.0</ele><time>2026-04-25T16:44:37.114Z</time></trkpt><trkpt lat="44.6654567" lon="8.0467833"><ele>228.0</ele><time>2026-04-25T16:44:38.114Z</time></trkpt><trkpt lat="44.6654267" lon="8.0468783"><ele>228.0</ele><time>2026-04-25T16:44:39.114Z</time></trkpt><trkpt lat="44.6654233" lon="8.0470017"><ele>232.60000000000002</ele><time>2026-04-25T16:44:40.114Z</time></trkpt><trkpt lat="44.6654267" lon="8.0471433"><ele>237.20000000000002</ele><time>2026-04-25T16:44:41.114Z</time></trkpt><trkpt lat="44.665415" lon="8.0472967"><ele>241.8</ele><time>2026-04-25T16:44:42.114Z</time></trkpt><trkpt lat="44.665385" lon="8.0474467"><ele>246.4</ele><time>2026-04-25T16:44:43.114Z</time></trkpt><trkpt lat="44.6653433" lon="8.047595"><ele>251.0</ele><time>2026-04-25T16:44:44.114Z</time></trkpt><trkpt lat="44.6652983" lon="8.04773"><ele>252.60000000000002</ele><time>2026-04-25T16:44:45.114Z</time></trkpt><trkpt lat="44.665255" lon="8.0478567"><ele>254.20000000000002</ele><time>2026-04-25T16:44:46.114Z</time></trkpt><trkpt lat="44.66521" lon="8.0479633"><ele>255.79999999999998</ele><time>2026-04-25T16:44:47.114Z</time></trkpt><trkpt lat="44.6651517" lon="8.0480217"><ele>257.4</ele><time>2026-04-25T16:44:48.114Z</time></trkpt><trkpt lat="44.6650117" lon="8.0480067"><ele>259.0</ele><time>2026-04-25T16:44:50.114Z</time></trkpt><trkpt lat="44.6649333" lon="8.0479417"><ele>259.0</ele><time>2026-04-25T16:44:51.114Z</time></trkpt><trkpt lat="44.664855" lon="8.0478517"><ele>259.0</ele><time>2026-04-25T16:44:52.114Z</time></trkpt><trkpt lat="44.6647733" lon="8.0477683"><ele>259.0</ele><time>2026-04-25T16:44:53.114Z</time></trkpt><trkpt lat="44.6646867" lon="8.047725"><ele>259.0</ele><time>2026-04-25T16:44:54.114Z</time></trkpt><trkpt lat="44.6646033" lon="8.04773"><ele>259.0</ele><time>2026-04-25T16:44:55.114Z</time></trkpt><trkpt lat="44.664525" lon="8.04777"><ele>259.0</ele><time>2026-04-25T16:44:56.114Z</time></trkpt><trkpt lat="44.664455" lon="8.047845"><ele>259.0</ele><time>2026-04-25T16:44:57.114Z</time></trkpt><trkpt lat="44.6643967" lon="8.0479383"><ele>259.0</ele><time>2026-04-25T16:44:58.114Z</time></trkpt><trkpt lat="44.6643567" lon="8.048055"><ele>259.0</ele><time>2026-04-25T16:44:59.114Z</time></trkpt><trkpt lat="44.66433" lon="8.04818"><ele>259.0</ele><time>2026-04-25T16:45:00.114Z</time></trkpt><trkpt lat="44.664325" lon="8.04831"><ele>259.0</ele><time>2026-04-25T16:45:01.114Z</time></trkpt><trkpt lat="44.6643433" lon="8.0484383"><ele>259.0</ele><time>2026-04-25T16:45:02.114Z</time></trkpt><trkpt lat="44.66437" lon="8.0485683"><ele>259.0</ele><time>2026-04-25T16:45:03.114Z</time></trkpt><trkpt lat="44.6643967" lon="8.0487083"><ele>259.0</ele><time>2026-04-25T16:45:04.114Z</time></trkpt><trkpt lat="44.6644217" lon="8.0488533"><ele>259.0</ele><time>2026-04-25T16:45:05.114Z</time></trkpt><trkpt lat="44.664455" lon="8.0489917"><ele>263.8</ele><time>2026-04-25T16:45:06.114Z</time></trkpt><trkpt lat="44.6644933" lon="8.0491383"><ele>268.59999999999997</ele><time>2026-04-25T16:45:07.114Z</time></trkpt><trkpt lat="44.6645333" lon="8.0492817"><ele>273.4</ele><time>2026-04-25T16:45:08.114Z</time></trkpt><trkpt lat="44.6645783" lon="8.04942"><ele>278.2</ele><time>2026-04-25T16:45:09.114Z</time></trkpt><trkpt lat="44.6646183" lon="8.0495567"><ele>283.0</ele><time>2026-04-25T16:45:10.114Z</time></trkpt><trkpt lat="44.6646667" lon="8.0496817"><ele>283.0</ele><time>2026-04-25T16:45:11.114Z</time></trkpt><trkpt lat="44.66472" lon="8.0498"><ele>283.0</ele><time>2026-04-25T16:45:12.114Z</time></trkpt><trkpt lat="44.6647717" lon="8.049925"><ele>283.0</ele><time>2026-04-25T16:45:13.114Z</time></trkpt><trkpt lat="44.664825" lon="8.050045"><ele>283.0</ele><time>2026-04-25T16:45:14.114Z</time></trkpt><trkpt lat="44.6648733" lon="8.0501683"><ele>283.0</ele><time>2026-04-25T16:45:15.114Z</time></trkpt><trkpt lat="44.6649133" lon="8.0502917"><ele>284.3333333333333</ele><time>2026-04-25T16:45:16.114Z</time></trkpt><trkpt lat="44.6649317" lon="8.0504117"><ele>285.66666666666663</ele><time>2026-04-25T16:45:17.114Z</time></trkpt><trkpt lat="44.6649483" lon="8.0505217"><ele>287.0</ele><time>2026-04-25T16:45:18.114Z</time></trkpt><trkpt lat="44.664965" lon="8.0506233"><ele>288.3333333333333</ele><time>2026-04-25T16:45:19.114Z</time></trkpt><trkpt lat="44.664995" lon="8.0507183"><ele>289.6666666666667</ele><time>2026-04-25T16:45:20.114Z</time></trkpt><trkpt lat="44.66509" lon="8.05079"><ele>291.0</ele><time>2026-04-25T16:45:22.114Z</time></trkpt><trkpt lat="44.6651683" lon="8.05073"><ele>291.0</ele><time>2026-04-25T16:45:24.114Z</time></trkpt><trkpt lat="44.6652283" lon="8.05061"><ele>291.0</ele><time>2026-04-25T16:45:26.114Z</time></trkpt><trkpt lat="44.6653083" lon="8.0504883"><ele>291.0</ele><time>2026-04-25T16:45:28.114Z</time></trkpt><trkpt lat="44.66536" lon="8.0504217"><ele>291.0</ele><time>2026-04-25T16:45:29.114Z</time></trkpt><trkpt lat="44.6654183" lon="8.0503483"><ele>291.0</ele><time>2026-04-25T16:45:30.114Z</time></trkpt><trkpt lat="44.6654817" lon="8.05027"><ele>292.0</ele><time>2026-04-25T16:45:31.114Z</time></trkpt><trkpt lat="44.6655483" lon="8.0501883"><ele>293.0</ele><time>2026-04-25T16:45:32.114Z</time></trkpt><trkpt lat="44.66562" lon="8.0501083"><ele>294.0</ele><time>2026-04-25T16:45:33.114Z</time></trkpt><trkpt lat="44.6656917" lon="8.0500267"><ele>295.0</ele><time>2026-04-25T16:45:34.114Z</time></trkpt><trkpt lat="44.6657683" lon="8.0499467"><ele>296.0</ele><time>2026-04-25T16:45:35.114Z</time></trkpt><trkpt lat="44.6658367" lon="8.0498667"><ele>296.0</ele><time>2026-04-25T16:45:36.114Z</time></trkpt><trkpt lat="44.6659017" lon="8.049795"><ele>296.0</ele><time>2026-04-25T16:45:37.114Z</time></trkpt><trkpt lat="44.66596" lon="8.0497167"><ele>296.0</ele><time>2026-04-25T16:45:38.114Z</time></trkpt><trkpt lat="44.6660083" lon="8.049645"><ele>296.0</ele><time>2026-04-25T16:45:39.114Z</time></trkpt><trkpt lat="44.6660767" lon="8.0495283"><ele>296.0</ele><time>2026-04-25T16:45:41.114Z</time></trkpt><trkpt lat="44.6661217" lon="8.0494583"><ele>296.0</ele><time>2026-04-25T16:45:43.114Z</time></trkpt><trkpt lat="44.6661817" lon="8.04934"><ele>298.1666666666667</ele><time>2026-04-25T16:46:10.114Z</time></trkpt><trkpt lat="44.6662467" lon="8.0492117"><ele>300.33333333333337</ele><time>2026-04-25T16:46:12.114Z</time></trkpt><trkpt lat="44.6663083" lon="8.0491267"><ele>302.5</ele><time>2026-04-25T16:46:14.114Z</time></trkpt><trkpt lat="44.6663633" lon="8.0491783"><ele>304.6666666666667</ele><time>2026-04-25T16:46:16.114Z</time></trkpt><trkpt lat="44.6663367" lon="8.0493317"><ele>306.8333333333333</ele><time>2026-04-25T16:46:18.114Z</time></trkpt><trkpt lat="44.66631" lon="8.0494183"><ele>309.0</ele><time>2026-04-25T16:46:19.114Z</time></trkpt><trkpt lat="44.6662783" lon="8.0496017"><ele>309.0</ele><time>2026-04-25T16:46:21.114Z</time></trkpt><trkpt lat="44.66626" lon="8.0497067"><ele>309.0</ele><time>2026-04-25T16:46:22.114Z</time></trkpt><trkpt lat="44.66624" lon="8.0498217"><ele>309.0</ele><time>2026-04-25T16:46:23.114Z</time></trkpt><trkpt lat="44.6662083" lon="8.049945"><ele>309.0</ele><time>2026-04-25T16:46:24.114Z</time></trkpt><trkpt lat="44.6661767" lon="8.0500583"><ele>309.0</ele><time>2026-04-25T16:46:25.114Z</time></trkpt><trkpt lat="44.6661467" lon="8.0501667"><ele>309.0</ele><time>2026-04-25T16:46:26.114Z</time></trkpt><trkpt lat="44.6661267" lon="8.0502717"><ele>310.3333333333333</ele><time>2026-04-25T16:46:27.114Z</time></trkpt><trkpt lat="44.66612" lon="8.05037"><ele>311.6666666666667</ele><time>2026-04-25T16:46:28.114Z</time></trkpt><trkpt lat="44.6661367" lon="8.0504667"><ele>313.0</ele><time>2026-04-25T16:46:29.114Z</time></trkpt><trkpt lat="44.6661683" lon="8.050555"><ele>314.33333333333337</ele><time>2026-04-25T16:46:30.114Z</time></trkpt><trkpt lat="44.6662267" lon="8.0506317"><ele>315.6666666666667</ele><time>2026-04-25T16:46:31.114Z</time></trkpt><trkpt lat="44.6663067" lon="8.05069"><ele>317.0</ele><time>2026-04-25T16:46:32.114Z</time></trkpt><trkpt lat="44.6663983" lon="8.050735"><ele>317.0</ele><time>2026-04-25T16:46:33.114Z</time></trkpt><trkpt lat="44.6664967" lon="8.050775"><ele>317.0</ele><time>2026-04-25T16:46:34.114Z</time></trkpt><trkpt lat="44.6666017" lon="8.0508067"><ele>317.0</ele><time>2026-04-25T16:46:35.114Z</time></trkpt><trkpt lat="44.66671" lon="8.050835"><ele>317.0</ele><time>2026-04-25T16:46:36.114Z</time></trkpt><trkpt lat="44.6668233" lon="8.0508817"><ele>317.0</ele><time>2026-04-25T16:46:37.114Z</time></trkpt><trkpt lat="44.6669367" lon="8.05094"><ele>318.6</ele><time>2026-04-25T16:46:38.114Z</time></trkpt><trkpt lat="44.66704" lon="8.0510083"><ele>320.2</ele><time>2026-04-25T16:46:39.114Z</time></trkpt><trkpt lat="44.6671367" lon="8.05108"><ele>321.8</ele><time>2026-04-25T16:46:40.114Z</time></trkpt><trkpt lat="44.66721" lon="8.0511717"><ele>323.4</ele><time>2026-04-25T16:46:41.114Z</time></trkpt><trkpt lat="44.667275" lon="8.0512633"><ele>325.0</ele><time>2026-04-25T16:46:42.114Z</time></trkpt><trkpt lat="44.6673417" lon="8.051345"><ele>325.0</ele><time>2026-04-25T16:46:43.114Z</time></trkpt><trkpt lat="44.6674133" lon="8.051425"><ele>325.0</ele><time>2026-04-25T16:46:44.114Z</time></trkpt><trkpt lat="44.6674983" lon="8.0514833"><ele>325.0</ele><time>2026-04-25T16:46:45.114Z</time></trkpt><trkpt lat="44.6675967" lon="8.051535"><ele>325.0</ele><time>2026-04-25T16:46:46.114Z</time></trkpt><trkpt lat="44.6676867" lon="8.0515967"><ele>325.0</ele><time>2026-04-25T16:46:47.114Z</time></trkpt><trkpt lat="44.667775" lon="8.0516633"><ele>325.8</ele><time>2026-04-25T16:46:48.114Z</time></trkpt><trkpt lat="44.667865" lon="8.0517367"><ele>326.6</ele><time>2026-04-25T16:46:49.114Z</time></trkpt><trkpt lat="44.667945" lon="8.0518217"><ele>327.4</ele><time>2026-04-25T16:46:50.114Z</time></trkpt><trkpt lat="44.6680233" lon="8.0519167"><ele>328.2</ele><time>2026-04-25T16:46:51.114Z</time></trkpt><trkpt lat="44.668095" lon="8.0520383"><ele>329.0</ele><time>2026-04-25T16:46:52.114Z</time></trkpt><trkpt lat="44.6681683" lon="8.052165"><ele>329.0</ele><time>2026-04-25T16:46:53.114Z</time></trkpt><trkpt lat="44.6682417" lon="8.0523033"><ele>329.0</ele><time>2026-04-25T16:46:54.114Z</time></trkpt><trkpt lat="44.668325" lon="8.0524417"><ele>329.0</ele><time>2026-04-25T16:46:55.114Z</time></trkpt><trkpt lat="44.6684033" lon="8.0525717"><ele>329.0</ele><time>2026-04-25T16:46:56.114Z</time></trkpt><trkpt lat="44.6684783" lon="8.0527067"><ele>329.25</ele><time>2026-04-25T16:46:57.114Z</time></trkpt><trkpt lat="44.66854" lon="8.0528483"><ele>329.5</ele><time>2026-04-25T16:46:58.114Z</time></trkpt><trkpt lat="44.6685883" lon="8.0530017"><ele>329.75</ele><time>2026-04-25T16:46:59.114Z</time></trkpt><trkpt lat="44.6686317" lon="8.053155"><ele>330.0</ele><time>2026-04-25T16:47:00.114Z</time></trkpt><trkpt lat="44.6686617" lon="8.05332"><ele>330.0</ele><time>2026-04-25T16:47:01.114Z</time></trkpt><trkpt lat="44.66869" lon="8.05348"><ele>330.0</ele><time>2026-04-25T16:47:02.114Z</time></trkpt><trkpt lat="44.668725" lon="8.0536333"><ele>330.0</ele><time>2026-04-25T16:47:03.114Z</time></trkpt><trkpt lat="44.6687583" lon="8.053785"><ele>330.0</ele><time>2026-04-25T16:47:04.114Z</time></trkpt><trkpt lat="44.6687933" lon="8.0539417"><ele>330.0</ele><time>2026-04-25T16:47:05.114Z</time></trkpt><trkpt lat="44.66883" lon="8.0540933"><ele>330.0</ele><time>2026-04-25T16:47:06.114Z</time></trkpt><trkpt lat="44.6688667" lon="8.0542517"><ele>330.0</ele><time>2026-04-25T16:47:07.114Z</time></trkpt><trkpt lat="44.668895" lon="8.054405"><ele>330.0</ele><time>2026-04-25T16:47:08.114Z</time></trkpt><trkpt lat="44.668925" lon="8.05456"><ele>330.0</ele><time>2026-04-25T16:47:09.114Z</time></trkpt><trkpt lat="44.668925" lon="8.0547183"><ele>330.0</ele><time>2026-04-25T16:47:10.114Z</time></trkpt><trkpt lat="44.6689033" lon="8.05487"><ele>330.0</ele><time>2026-04-25T16:47:11.114Z</time></trkpt><trkpt lat="44.66888" lon="8.055025"><ele>330.0</ele><time>2026-04-25T16:47:12.114Z</time></trkpt><trkpt lat="44.6688483" lon="8.0551817"><ele>331.5</ele><time>2026-04-25T16:47:13.114Z</time></trkpt><trkpt lat="44.668815" lon="8.0553417"><ele>333.0</ele><time>2026-04-25T16:47:14.114Z</time></trkpt><trkpt lat="44.668785" lon="8.0554983"><ele>334.5</ele><time>2026-04-25T16:47:15.114Z</time></trkpt><trkpt lat="44.6687533" lon="8.05566"><ele>336.0</ele><time>2026-04-25T16:47:16.114Z</time></trkpt><trkpt lat="44.6687233" lon="8.0558283"><ele>336.0</ele><time>2026-04-25T16:47:17.114Z</time></trkpt><trkpt lat="44.6686917" lon="8.0559967"><ele>336.0</ele><time>2026-04-25T16:47:18.114Z</time></trkpt><trkpt lat="44.6686533" lon="8.05616"><ele>336.0</ele><time>2026-04-25T16:47:19.114Z</time></trkpt><trkpt lat="44.6686217" lon="8.05631"><ele>336.0</ele><time>2026-04-25T16:47:20.114Z</time></trkpt><trkpt lat="44.6685883" lon="8.056445"><ele>336.0</ele><time>2026-04-25T16:47:21.114Z</time></trkpt><trkpt lat="44.668555" lon="8.0565767"><ele>336.0</ele><time>2026-04-25T16:47:22.114Z</time></trkpt><trkpt lat="44.6685417" lon="8.0566883"><ele>336.0</ele><time>2026-04-25T16:47:23.114Z</time></trkpt><trkpt lat="44.668535" lon="8.0567767"><ele>336.0</ele><time>2026-04-25T16:47:24.114Z</time></trkpt><trkpt lat="44.6685983" lon="8.0569"><ele>336.0</ele><time>2026-04-25T16:47:26.114Z</time></trkpt><trkpt lat="44.668665" lon="8.0569083"><ele>336.0</ele><time>2026-04-25T16:47:27.114Z</time></trkpt><trkpt lat="44.6687383" lon="8.05689"><ele>340.0</ele><time>2026-04-25T16:47:28.114Z</time></trkpt><trkpt lat="44.6688383" lon="8.0568483"><ele>344.0</ele><time>2026-04-25T16:47:29.114Z</time></trkpt><trkpt lat="44.6689433" lon="8.056805"><ele>348.0</ele><time>2026-04-25T16:47:30.114Z</time></trkpt><trkpt lat="44.6690417" lon="8.0567667"><ele>352.0</ele><time>2026-04-25T16:47:31.114Z</time></trkpt><trkpt lat="44.6691283" lon="8.05674"><ele>356.0</ele><time>2026-04-25T16:47:32.114Z</time></trkpt><trkpt lat="44.669205" lon="8.0567317"><ele>356.0</ele><time>2026-04-25T16:47:33.114Z</time></trkpt><trkpt lat="44.6692983" lon="8.05675"><ele>356.0</ele><time>2026-04-25T16:47:34.114Z</time></trkpt><trkpt lat="44.6694" lon="8.0567867"><ele>356.0</ele><time>2026-04-25T16:47:35.114Z</time></trkpt><trkpt lat="44.6695083" lon="8.0568383"><ele>356.0</ele><time>2026-04-25T16:47:36.114Z</time></trkpt><trkpt lat="44.66962" lon="8.0569"><ele>356.0</ele><time>2026-04-25T16:47:37.114Z</time></trkpt><trkpt lat="44.669715" lon="8.0569567"><ele>355.6</ele><time>2026-04-25T16:47:38.114Z</time></trkpt><trkpt lat="44.669805" lon="8.0570083"><ele>355.20000000000005</ele><time>2026-04-25T16:47:39.114Z</time></trkpt><trkpt lat="44.669885" lon="8.0570817"><ele>354.79999999999995</ele><time>2026-04-25T16:47:40.114Z</time></trkpt><trkpt lat="44.6699417" lon="8.057175"><ele>354.4</ele><time>2026-04-25T16:47:41.114Z</time></trkpt><trkpt lat="44.6699767" lon="8.0572917"><ele>354.0</ele><time>2026-04-25T16:47:42.114Z</time></trkpt><trkpt lat="44.67001" lon="8.0574217"><ele>356.6</ele><time>2026-04-25T16:47:43.114Z</time></trkpt><trkpt lat="44.6700483" lon="8.0575533"><ele>359.2</ele><time>2026-04-25T16:47:44.114Z</time></trkpt><trkpt lat="44.6700817" lon="8.0576817"><ele>361.8</ele><time>2026-04-25T16:47:45.114Z</time></trkpt><trkpt lat="44.6701217" lon="8.0578033"><ele>364.40000000000003</ele><time>2026-04-25T16:47:46.114Z</time></trkpt><trkpt lat="44.67015" lon="8.0579133"><ele>367.0</ele><time>2026-04-25T16:47:47.114Z</time></trkpt><trkpt lat="44.670175" lon="8.0580133"><ele>367.0</ele><time>2026-04-25T16:47:48.114Z</time></trkpt><trkpt lat="44.670195" lon="8.0581"><ele>367.0</ele><time>2026-04-25T16:47:49.114Z</time></trkpt><trkpt lat="44.6701867" lon="8.0582133"><ele>367.0</ele><time>2026-04-25T16:47:51.114Z</time></trkpt><trkpt lat="44.6701283" lon="8.0583033"><ele>367.0</ele><time>2026-04-25T16:47:53.114Z</time></trkpt><trkpt lat="44.6700667" lon="8.0583283"><ele>367.0</ele><time>2026-04-25T16:47:54.114Z</time></trkpt><trkpt lat="44.66998" lon="8.0583567"><ele>367.0</ele><time>2026-04-25T16:47:55.114Z</time></trkpt><trkpt lat="44.6698783" lon="8.0583833"><ele>367.8</ele><time>2026-04-25T16:47:56.114Z</time></trkpt><trkpt lat="44.6697817" lon="8.0584133"><ele>368.6</ele><time>2026-04-25T16:47:57.114Z</time></trkpt><trkpt lat="44.6696783" lon="8.058435"><ele>369.40000000000003</ele><time>2026-04-25T16:47:58.114Z</time></trkpt><trkpt lat="44.66956" lon="8.0584433"><ele>370.20000000000005</ele><time>2026-04-25T16:47:59.114Z</time></trkpt><trkpt lat="44.6694333" lon="8.0584383"><ele>371.0</ele><time>2026-04-25T16:48:00.114Z</time></trkpt><trkpt lat="44.66932" lon="8.0583967"><ele>371.0</ele><time>2026-04-25T16:48:01.114Z</time></trkpt><trkpt lat="44.6692017" lon="8.0583483"><ele>371.0</ele><time>2026-04-25T16:48:02.114Z</time></trkpt><trkpt lat="44.669085" lon="8.0582933"><ele>371.0</ele><time>2026-04-25T16:48:03.114Z</time></trkpt><trkpt lat="44.6689683" lon="8.0582517"><ele>371.0</ele><time>2026-04-25T16:48:04.114Z</time></trkpt><trkpt lat="44.6688617" lon="8.05823"><ele>371.0</ele><time>2026-04-25T16:48:05.114Z</time></trkpt><trkpt lat="44.66875" lon="8.05824"><ele>371.0</ele><time>2026-04-25T16:48:06.114Z</time></trkpt><trkpt lat="44.6686333" lon="8.058265"><ele>371.0</ele><time>2026-04-25T16:48:07.114Z</time></trkpt><trkpt lat="44.66852" lon="8.0583033"><ele>371.0</ele><time>2026-04-25T16:48:08.114Z</time></trkpt><trkpt lat="44.668405" lon="8.058365"><ele>372.75</ele><time>2026-04-25T16:48:09.114Z</time></trkpt><trkpt lat="44.66829" lon="8.0584467"><ele>374.5</ele><time>2026-04-25T16:48:10.114Z</time></trkpt><trkpt lat="44.6681767" lon="8.0585367"><ele>376.25</ele><time>2026-04-25T16:48:11.114Z</time></trkpt><trkpt lat="44.66806" lon="8.0586333"><ele>378.0</ele><time>2026-04-25T16:48:12.114Z</time></trkpt><trkpt lat="44.6679383" lon="8.0587367"><ele>378.0</ele><time>2026-04-25T16:48:13.115Z</time></trkpt><trkpt lat="44.6678117" lon="8.058835"><ele>378.0</ele><time>2026-04-25T16:48:14.114Z</time></trkpt><trkpt lat="44.6676867" lon="8.058945"><ele>378.0</ele><time>2026-04-25T16:48:15.114Z</time></trkpt><trkpt lat="44.6675633" lon="8.0590517"><ele>378.0</ele><time>2026-04-25T16:48:16.114Z</time></trkpt><trkpt lat="44.6674417" lon="8.0591567"><ele>379.0</ele><time>2026-04-25T16:48:17.114Z</time></trkpt><trkpt lat="44.6673217" lon="8.0592617"><ele>380.0</ele><time>2026-04-25T16:48:18.114Z</time></trkpt><trkpt lat="44.6672017" lon="8.0593717"><ele>381.0</ele><time>2026-04-25T16:48:19.114Z</time></trkpt><trkpt lat="44.66709" lon="8.05949"><ele>382.0</ele><time>2026-04-25T16:48:20.114Z</time></trkpt><trkpt lat="44.666995" lon="8.0596183"><ele>381.75</ele><time>2026-04-25T16:48:21.114Z</time></trkpt><trkpt lat="44.6669067" lon="8.0597517"><ele>381.5</ele><time>2026-04-25T16:48:22.114Z</time></trkpt><trkpt lat="44.6668317" lon="8.059915"><ele>381.25</ele><time>2026-04-25T16:48:23.114Z</time></trkpt><trkpt lat="44.6667683" lon="8.0600767"><ele>381.0</ele><time>2026-04-25T16:48:24.114Z</time></trkpt><trkpt lat="44.6667067" lon="8.0602567"><ele>381.0</ele><time>2026-04-25T16:48:25.114Z</time></trkpt><trkpt lat="44.6666617" lon="8.0604483"><ele>381.0</ele><time>2026-04-25T16:48:26.114Z</time></trkpt><trkpt lat="44.6666183" lon="8.0606467"><ele>381.0</ele><time>2026-04-25T16:48:27.114Z</time></trkpt><trkpt lat="44.6665767" lon="8.060825"><ele>381.0</ele><time>2026-04-25T16:48:28.114Z</time></trkpt><trkpt lat="44.6665167" lon="8.0609967"><ele>381.5</ele><time>2026-04-25T16:48:29.114Z</time></trkpt><trkpt lat="44.6664517" lon="8.0611517"><ele>382.0</ele><time>2026-04-25T16:48:30.114Z</time></trkpt><trkpt lat="44.666395" lon="8.061315"><ele>382.5</ele><time>2026-04-25T16:48:31.114Z</time></trkpt><trkpt lat="44.66634" lon="8.0614667"><ele>383.0</ele><time>2026-04-25T16:48:32.114Z</time></trkpt><trkpt lat="44.6663017" lon="8.06163"><ele>384.75</ele><time>2026-04-25T16:48:33.114Z</time></trkpt><trkpt lat="44.6662917" lon="8.0618017"><ele>386.5</ele><time>2026-04-25T16:48:34.114Z</time></trkpt><trkpt lat="44.666285" lon="8.0619933"><ele>388.25</ele><time>2026-04-25T16:48:35.114Z</time></trkpt><trkpt lat="44.6662733" lon="8.06219"><ele>390.0</ele><time>2026-04-25T16:48:36.114Z</time></trkpt><trkpt lat="44.6662667" lon="8.0623717"><ele>392.0</ele><time>2026-04-25T16:48:37.114Z</time></trkpt><trkpt lat="44.666245" lon="8.0625633"><ele>394.0</ele><time>2026-04-25T16:48:38.114Z</time></trkpt><trkpt lat="44.6662117" lon="8.0627433"><ele>396.0</ele><time>2026-04-25T16:48:39.115Z</time></trkpt><trkpt lat="44.6661483" lon="8.0629167"><ele>398.0</ele><time>2026-04-25T16:48:40.114Z</time></trkpt><trkpt lat="44.6660717" lon="8.0630683"><ele>397.75</ele><time>2026-04-25T16:48:41.114Z</time></trkpt><trkpt lat="44.6659683" lon="8.0632"><ele>397.5</ele><time>2026-04-25T16:48:42.114Z</time></trkpt><trkpt lat="44.6658483" lon="8.0633033"><ele>397.25</ele><time>2026-04-25T16:48:43.114Z</time></trkpt><trkpt lat="44.6657217" lon="8.06336"><ele>397.0</ele><time>2026-04-25T16:48:44.114Z</time></trkpt><trkpt lat="44.6655817" lon="8.0633983"><ele>397.0</ele><time>2026-04-25T16:48:45.114Z</time></trkpt><trkpt lat="44.6654333" lon="8.0634233"><ele>397.0</ele><time>2026-04-25T16:48:46.114Z</time></trkpt><trkpt lat="44.6652883" lon="8.0634567"><ele>397.0</ele><time>2026-04-25T16:48:47.114Z</time></trkpt><trkpt lat="44.66515" lon="8.063525"><ele>397.0</ele><time>2026-04-25T16:48:48.114Z</time></trkpt><trkpt lat="44.6650117" lon="8.0635983"><ele>394.75</ele><time>2026-04-25T16:48:49.114Z</time></trkpt><trkpt lat="44.6648733" lon="8.0636683"><ele>392.5</ele><time>2026-04-25T16:48:50.114Z</time></trkpt><trkpt lat="44.6647383" lon="8.0637433"><ele>390.25</ele><time>2026-04-25T16:48:51.114Z</time></trkpt><trkpt lat="44.6646183" lon="8.0638383"><ele>388.0</ele><time>2026-04-25T16:48:52.114Z</time></trkpt><trkpt lat="44.664505" lon="8.0639583"><ele>390.25</ele><time>2026-04-25T16:48:53.114Z</time></trkpt><trkpt lat="44.6643883" lon="8.0640917"><ele>392.5</ele><time>2026-04-25T16:48:54.114Z</time></trkpt><trkpt lat="44.6642833" lon="8.0642317"><ele>394.75</ele><time>2026-04-25T16:48:55.114Z</time></trkpt><trkpt lat="44.6641783" lon="8.0643783"><ele>397.0</ele><time>2026-04-25T16:48:56.114Z</time></trkpt><trkpt lat="44.664075" lon="8.0645317"><ele>397.0</ele><time>2026-04-25T16:48:57.114Z</time></trkpt><trkpt lat="44.663975" lon="8.0646767"><ele>397.0</ele><time>2026-04-25T16:48:58.114Z</time></trkpt><trkpt lat="44.6638817" lon="8.0648083"><ele>397.0</ele><time>2026-04-25T16:48:59.114Z</time></trkpt><trkpt lat="44.6638017" lon="8.0649417"><ele>397.0</ele><time>2026-04-25T16:49:00.114Z</time></trkpt><trkpt lat="44.66372" lon="8.065075"><ele>396.25</ele><time>2026-04-25T16:49:01.114Z</time></trkpt><trkpt lat="44.663625" lon="8.0652033"><ele>395.5</ele><time>2026-04-25T16:49:02.114Z</time></trkpt><trkpt lat="44.6635167" lon="8.0653167"><ele>394.75</ele><time>2026-04-25T16:49:03.114Z</time></trkpt><trkpt lat="44.6633883" lon="8.0654133"><ele>394.0</ele><time>2026-04-25T16:49:04.114Z</time></trkpt><trkpt lat="44.6632467" lon="8.0655117"><ele>394.0</ele><time>2026-04-25T16:49:05.114Z</time></trkpt><trkpt lat="44.66311" lon="8.0656067"><ele>394.0</ele><time>2026-04-25T16:49:06.114Z</time></trkpt><trkpt lat="44.66297" lon="8.0656883"><ele>394.0</ele><time>2026-04-25T16:49:07.114Z</time></trkpt><trkpt lat="44.662825" lon="8.06577"><ele>398.6666666666667</ele><time>2026-04-25T16:49:08.114Z</time></trkpt><trkpt lat="44.6626817" lon="8.0658583"><ele>403.33333333333337</ele><time>2026-04-25T16:49:09.114Z</time></trkpt><trkpt lat="44.6625417" lon="8.065945"><ele>408.0</ele><time>2026-04-25T16:49:10.114Z</time></trkpt><trkpt lat="44.6624083" lon="8.0660317"><ele>408.0</ele><time>2026-04-25T16:49:11.114Z</time></trkpt><trkpt lat="44.6622767" lon="8.06611"><ele>408.0</ele><time>2026-04-25T16:49:12.114Z</time></trkpt><trkpt lat="44.662145" lon="8.0661883"><ele>408.0</ele><time>2026-04-25T16:49:13.114Z</time></trkpt><trkpt lat="44.6620083" lon="8.066255"><ele>408.0</ele><time>2026-04-25T16:49:14.114Z</time></trkpt><trkpt lat="44.66187" lon="8.0662933"><ele>408.25</ele><time>2026-04-25T16:49:15.114Z</time></trkpt><trkpt lat="44.6617333" lon="8.0663083"><ele>408.5</ele><time>2026-04-25T16:49:16.114Z</time></trkpt><trkpt lat="44.6615917" lon="8.0663233"><ele>408.75</ele><time>2026-04-25T16:49:17.114Z</time></trkpt><trkpt lat="44.6614567" lon="8.0662867"><ele>409.0</ele><time>2026-04-25T16:49:18.114Z</time></trkpt><trkpt lat="44.6613067" lon="8.0662267"><ele>409.0</ele><time>2026-04-25T16:49:19.114Z</time></trkpt><trkpt lat="44.6611567" lon="8.0661517"><ele>409.0</ele><time>2026-04-25T16:49:20.114Z</time></trkpt><trkpt lat="44.66102" lon="8.0660733"><ele>409.0</ele><time>2026-04-25T16:49:21.114Z</time></trkpt><trkpt lat="44.6608883" lon="8.0660117"><ele>409.0</ele><time>2026-04-25T16:49:22.114Z</time></trkpt><trkpt lat="44.6607467" lon="8.06595"><ele>411.0</ele><time>2026-04-25T16:49:23.114Z</time></trkpt><trkpt lat="44.6606" lon="8.0659067"><ele>413.0</ele><time>2026-04-25T16:49:24.114Z</time></trkpt><trkpt lat="44.6604483" lon="8.0658983"><ele>415.0</ele><time>2026-04-25T16:49:25.114Z</time></trkpt><trkpt lat="44.6602967" lon="8.06593"><ele>414.75</ele><time>2026-04-25T16:49:26.114Z</time></trkpt><trkpt lat="44.6601483" lon="8.065975"><ele>414.5</ele><time>2026-04-25T16:49:27.114Z</time></trkpt><trkpt lat="44.6600083" lon="8.0660533"><ele>414.25</ele><time>2026-04-25T16:49:28.114Z</time></trkpt><trkpt lat="44.659875" lon="8.0661367"><ele>414.0</ele><time>2026-04-25T16:49:29.114Z</time></trkpt><trkpt lat="44.6597383" lon="8.066225"><ele>414.0</ele><time>2026-04-25T16:49:30.114Z</time></trkpt><trkpt lat="44.6596117" lon="8.0663333"><ele>414.0</ele><time>2026-04-25T16:49:31.114Z</time></trkpt><trkpt lat="44.6595017" lon="8.0664667"><ele>414.0</ele><time>2026-04-25T16:49:32.114Z</time></trkpt><trkpt lat="44.6593983" lon="8.0666117"><ele>414.0</ele><time>2026-04-25T16:49:33.114Z</time></trkpt><trkpt lat="44.6593033" lon="8.06676"><ele>414.25</ele><time>2026-04-25T16:49:34.114Z</time></trkpt><trkpt lat="44.6591983" lon="8.0669183"><ele>414.5</ele><time>2026-04-25T16:49:35.114Z</time></trkpt><trkpt lat="44.6590917" lon="8.0670683"><ele>414.75</ele><time>2026-04-25T16:49:36.114Z</time></trkpt><trkpt lat="44.658985" lon="8.067195"><ele>415.0</ele><time>2026-04-25T16:49:37.114Z</time></trkpt><trkpt lat="44.6588633" lon="8.06729"><ele>415.0</ele><time>2026-04-25T16:49:38.114Z</time></trkpt><trkpt lat="44.65873" lon="8.067385"><ele>415.0</ele><time>2026-04-25T16:49:39.114Z</time></trkpt><trkpt lat="44.6585867" lon="8.06744"><ele>415.0</ele><time>2026-04-25T16:49:40.114Z</time></trkpt><trkpt lat="44.65843" lon="8.0674733"><ele>416.75</ele><time>2026-04-25T16:49:41.114Z</time></trkpt><trkpt lat="44.6582783" lon="8.0674767"><ele>418.5</ele><time>2026-04-25T16:49:42.114Z</time></trkpt><trkpt lat="44.658135" lon="8.06747"><ele>420.25</ele><time>2026-04-25T16:49:43.114Z</time></trkpt><trkpt lat="44.658" lon="8.067485"><ele>422.0</ele><time>2026-04-25T16:49:44.114Z</time></trkpt><trkpt lat="44.657885" lon="8.0674917"><ele>422.0</ele><time>2026-04-25T16:49:45.114Z</time></trkpt><trkpt lat="44.6577867" lon="8.0675033"><ele>422.0</ele><time>2026-04-25T16:49:46.114Z</time></trkpt><trkpt lat="44.6576967" lon="8.06754"><ele>422.0</ele><time>2026-04-25T16:49:47.114Z</time></trkpt><trkpt lat="44.6576233" lon="8.0676067"><ele>422.0</ele><time>2026-04-25T16:49:48.114Z</time></trkpt><trkpt lat="44.6575817" lon="8.0677133"><ele>422.0</ele><time>2026-04-25T16:49:49.114Z</time></trkpt><trkpt lat="44.6575517" lon="8.06785"><ele>421.25</ele><time>2026-04-25T16:49:50.114Z</time></trkpt><trkpt lat="44.6575583" lon="8.068005"><ele>420.5</ele><time>2026-04-25T16:49:51.114Z</time></trkpt><trkpt lat="44.6575983" lon="8.0681767"><ele>419.75</ele><time>2026-04-25T16:49:52.114Z</time></trkpt><trkpt lat="44.6576433" lon="8.0683417"><ele>419.0</ele><time>2026-04-25T16:49:53.114Z</time></trkpt><trkpt lat="44.6576817" lon="8.06849"><ele>419.0</ele><time>2026-04-25T16:49:54.114Z</time></trkpt><trkpt lat="44.6577217" lon="8.0688083"><ele>419.0</ele><time>2026-04-25T16:49:56.114Z</time></trkpt><trkpt lat="44.657695" lon="8.0689683"><ele>419.0</ele><time>2026-04-25T16:49:57.114Z</time></trkpt><trkpt lat="44.6576317" lon="8.06912"><ele>419.75</ele><time>2026-04-25T16:49:58.114Z</time></trkpt><trkpt lat="44.6575467" lon="8.0692517"><ele>420.5</ele><time>2026-04-25T16:49:59.114Z</time></trkpt><trkpt lat="44.657465" lon="8.069375"><ele>421.25</ele><time>2026-04-25T16:50:00.114Z</time></trkpt><trkpt lat="44.65739" lon="8.0694967"><ele>422.0</ele><time>2026-04-25T16:50:01.114Z</time></trkpt><trkpt lat="44.6573483" lon="8.0696317"><ele>422.0</ele><time>2026-04-25T16:50:02.114Z</time></trkpt><trkpt lat="44.65732" lon="8.069785"><ele>422.0</ele><time>2026-04-25T16:50:03.114Z</time></trkpt><trkpt lat="44.657335" lon="8.0699383"><ele>422.0</ele><time>2026-04-25T16:50:04.114Z</time></trkpt><trkpt lat="44.6573767" lon="8.070075"><ele>422.0</ele><time>2026-04-25T16:50:05.114Z</time></trkpt><trkpt lat="44.6574567" lon="8.0701817"><ele>422.0</ele><time>2026-04-25T16:50:06.114Z</time></trkpt><trkpt lat="44.6575517" lon="8.0702517"><ele>421.75</ele><time>2026-04-25T16:50:07.114Z</time></trkpt><trkpt lat="44.65767" lon="8.0702833"><ele>421.5</ele><time>2026-04-25T16:50:08.114Z</time></trkpt><trkpt lat="44.6578" lon="8.0703033"><ele>421.25</ele><time>2026-04-25T16:50:09.114Z</time></trkpt><trkpt lat="44.65792" lon="8.0703233"><ele>421.0</ele><time>2026-04-25T16:50:10.114Z</time></trkpt><trkpt lat="44.6580333" lon="8.0703517"><ele>422.75</ele><time>2026-04-25T16:50:11.114Z</time></trkpt><trkpt lat="44.6581417" lon="8.07042"><ele>424.5</ele><time>2026-04-25T16:50:12.114Z</time></trkpt><trkpt lat="44.6582283" lon="8.07052"><ele>426.25</ele><time>2026-04-25T16:50:13.114Z</time></trkpt><trkpt lat="44.65829" lon="8.07065"><ele>428.0</ele><time>2026-04-25T16:50:14.114Z</time></trkpt><trkpt lat="44.6583217" lon="8.0708167"><ele>428.0</ele><time>2026-04-25T16:50:15.114Z</time></trkpt><trkpt lat="44.6583283" lon="8.0709917"><ele>428.0</ele><time>2026-04-25T16:50:16.114Z</time></trkpt><trkpt lat="44.6583167" lon="8.071165"><ele>428.0</ele><time>2026-04-25T16:50:17.114Z</time></trkpt><trkpt lat="44.65829" lon="8.0713367"><ele>428.0</ele><time>2026-04-25T16:50:18.114Z</time></trkpt><trkpt lat="44.6582583" lon="8.0715067"><ele>428.25</ele><time>2026-04-25T16:50:19.114Z</time></trkpt><trkpt lat="44.6582167" lon="8.07167"><ele>428.5</ele><time>2026-04-25T16:50:20.114Z</time></trkpt><trkpt lat="44.658185" lon="8.07183"><ele>428.75</ele><time>2026-04-25T16:50:21.114Z</time></trkpt><trkpt lat="44.6581767" lon="8.0719783"><ele>429.0</ele><time>2026-04-25T16:50:22.114Z</time></trkpt><trkpt lat="44.6581833" lon="8.0721267"><ele>429.0</ele><time>2026-04-25T16:50:23.114Z</time></trkpt><trkpt lat="44.6582383" lon="8.0722467"><ele>429.0</ele><time>2026-04-25T16:50:24.114Z</time></trkpt><trkpt lat="44.658325" lon="8.0723383"><ele>429.0</ele><time>2026-04-25T16:50:25.114Z</time></trkpt><trkpt lat="44.6584433" lon="8.07241"><ele>429.0</ele><time>2026-04-25T16:50:26.114Z</time></trkpt><trkpt lat="44.6585733" lon="8.07248"><ele>430.5</ele><time>2026-04-25T16:50:27.114Z</time></trkpt><trkpt lat="44.6587083" lon="8.07256"><ele>432.0</ele><time>2026-04-25T16:50:28.114Z</time></trkpt><trkpt lat="44.658835" lon="8.072675"><ele>433.5</ele><time>2026-04-25T16:50:29.114Z</time></trkpt><trkpt lat="44.6589433" lon="8.07282"><ele>435.0</ele><time>2026-04-25T16:50:30.114Z</time></trkpt><trkpt lat="44.659025" lon="8.072985"><ele>435.0</ele><time>2026-04-25T16:50:31.114Z</time></trkpt><trkpt lat="44.6590683" lon="8.0731667"><ele>435.0</ele><time>2026-04-25T16:50:32.114Z</time></trkpt><trkpt lat="44.659085" lon="8.0733517"><ele>435.0</ele><time>2026-04-25T16:50:33.114Z</time></trkpt><trkpt lat="44.65908" lon="8.073535"><ele>435.0</ele><time>2026-04-25T16:50:34.114Z</time></trkpt><trkpt lat="44.659055" lon="8.0737033"><ele>432.25</ele><time>2026-04-25T16:50:35.114Z</time></trkpt><trkpt lat="44.65901" lon="8.073865"><ele>429.5</ele><time>2026-04-25T16:50:36.114Z</time></trkpt><trkpt lat="44.6589683" lon="8.0740133"><ele>426.75</ele><time>2026-04-25T16:50:37.114Z</time></trkpt><trkpt lat="44.65892" lon="8.0741683"><ele>424.0</ele><time>2026-04-25T16:50:38.114Z</time></trkpt><trkpt lat="44.6588833" lon="8.0743383"><ele>423.75</ele><time>2026-04-25T16:50:39.114Z</time></trkpt><trkpt lat="44.6588667" lon="8.074525"><ele>423.5</ele><time>2026-04-25T16:50:40.114Z</time></trkpt><trkpt lat="44.6588667" lon="8.0747167"><ele>423.25</ele><time>2026-04-25T16:50:41.114Z</time></trkpt><trkpt lat="44.6588683" lon="8.0749233"><ele>423.0</ele><time>2026-04-25T16:50:42.114Z</time></trkpt><trkpt lat="44.6588883" lon="8.0751233"><ele>423.0</ele><time>2026-04-25T16:50:43.114Z</time></trkpt><trkpt lat="44.6589167" lon="8.07532"><ele>423.0</ele><time>2026-04-25T16:50:44.114Z</time></trkpt><trkpt lat="44.6589617" lon="8.0754967"><ele>423.0</ele><time>2026-04-25T16:50:45.114Z</time></trkpt><trkpt lat="44.659005" lon="8.0756767"><ele>423.0</ele><time>2026-04-25T16:50:46.114Z</time></trkpt><trkpt lat="44.6590533" lon="8.0758467"><ele>422.5</ele><time>2026-04-25T16:50:47.114Z</time></trkpt><trkpt lat="44.6590633" lon="8.0760167"><ele>422.0</ele><time>2026-04-25T16:50:48.114Z</time></trkpt><trkpt lat="44.6590317" lon="8.076185"><ele>421.5</ele><time>2026-04-25T16:50:49.114Z</time></trkpt><trkpt lat="44.6589883" lon="8.076355"><ele>421.0</ele><time>2026-04-25T16:50:50.114Z</time></trkpt><trkpt lat="44.6589533" lon="8.076525"><ele>421.25</ele><time>2026-04-25T16:50:51.114Z</time></trkpt><trkpt lat="44.658915" lon="8.0767083"><ele>421.5</ele><time>2026-04-25T16:50:52.114Z</time></trkpt><trkpt lat="44.6589183" lon="8.076905"><ele>421.75</ele><time>2026-04-25T16:50:53.114Z</time></trkpt><trkpt lat="44.6589333" lon="8.0770983"><ele>422.0</ele><time>2026-04-25T16:50:54.114Z</time></trkpt><trkpt lat="44.6589583" lon="8.07728"><ele>421.25</ele><time>2026-04-25T16:50:55.114Z</time></trkpt><trkpt lat="44.65899" lon="8.0774567"><ele>420.5</ele><time>2026-04-25T16:50:56.114Z</time></trkpt><trkpt lat="44.6590533" lon="8.0776267"><ele>419.75</ele><time>2026-04-25T16:50:57.114Z</time></trkpt><trkpt lat="44.6591417" lon="8.0778"><ele>419.0</ele><time>2026-04-25T16:50:58.114Z</time></trkpt><trkpt lat="44.65924" lon="8.0779733"><ele>419.0</ele><time>2026-04-25T16:50:59.114Z</time></trkpt><trkpt lat="44.6593483" lon="8.0781467"><ele>419.0</ele><time>2026-04-25T16:51:00.114Z</time></trkpt><trkpt lat="44.65944" lon="8.07834"><ele>419.0</ele><time>2026-04-25T16:51:01.114Z</time></trkpt><trkpt lat="44.65951" lon="8.07854"><ele>419.3333333333333</ele><time>2026-04-25T16:51:02.114Z</time></trkpt><trkpt lat="44.6595733" lon="8.078755"><ele>419.66666666666663</ele><time>2026-04-25T16:51:03.115Z</time></trkpt><trkpt lat="44.65963" lon="8.0789617"><ele>420.0</ele><time>2026-04-25T16:51:04.114Z</time></trkpt><trkpt lat="44.6596767" lon="8.0791817"><ele>420.0</ele><time>2026-04-25T16:51:05.114Z</time></trkpt><trkpt lat="44.659715" lon="8.0794"><ele>420.0</ele><time>2026-04-25T16:51:06.114Z</time></trkpt><trkpt lat="44.6597533" lon="8.0796267"><ele>420.0</ele><time>2026-04-25T16:51:07.114Z</time></trkpt><trkpt lat="44.659795" lon="8.0798517"><ele>417.33333333333337</ele><time>2026-04-25T16:51:08.114Z</time></trkpt><trkpt lat="44.6598317" lon="8.0800833"><ele>414.6666666666667</ele><time>2026-04-25T16:51:09.114Z</time></trkpt><trkpt lat="44.6598633" lon="8.0803133"><ele>412.0</ele><time>2026-04-25T16:51:10.114Z</time></trkpt><trkpt lat="44.6598933" lon="8.0805517"><ele>410.6666666666667</ele><time>2026-04-25T16:51:11.114Z</time></trkpt><trkpt lat="44.6599167" lon="8.08079"><ele>409.33333333333337</ele><time>2026-04-25T16:51:12.114Z</time></trkpt><trkpt lat="44.65993" lon="8.0810217"><ele>408.0</ele><time>2026-04-25T16:51:13.114Z</time></trkpt><trkpt lat="44.6599433" lon="8.0812417"><ele>408.0</ele><time>2026-04-25T16:51:14.114Z</time></trkpt><trkpt lat="44.6599567" lon="8.0814533"><ele>408.0</ele><time>2026-04-25T16:51:15.114Z</time></trkpt><trkpt lat="44.659955" lon="8.0816483"><ele>408.0</ele><time>2026-04-25T16:51:16.114Z</time></trkpt><trkpt lat="44.6599483" lon="8.081815"><ele>408.0</ele><time>2026-04-25T16:51:17.114Z</time></trkpt><trkpt lat="44.659915" lon="8.0819667"><ele>409.0</ele><time>2026-04-25T16:51:18.114Z</time></trkpt><trkpt lat="44.6598567" lon="8.08209"><ele>410.0</ele><time>2026-04-25T16:51:19.114Z</time></trkpt><trkpt lat="44.659795" lon="8.0822317"><ele>411.0</ele><time>2026-04-25T16:51:20.114Z</time></trkpt><trkpt lat="44.65975" lon="8.0824"><ele>412.0</ele><time>2026-04-25T16:51:21.114Z</time></trkpt><trkpt lat="44.6597167" lon="8.0825917"><ele>413.75</ele><time>2026-04-25T16:51:22.114Z</time></trkpt><trkpt lat="44.6596983" lon="8.0827867"><ele>415.5</ele><time>2026-04-25T16:51:23.114Z</time></trkpt><trkpt lat="44.6597" lon="8.082975"><ele>417.25</ele><time>2026-04-25T16:51:24.114Z</time></trkpt><trkpt lat="44.65972" lon="8.083175"><ele>419.0</ele><time>2026-04-25T16:51:25.114Z</time></trkpt><trkpt lat="44.65978" lon="8.083365"><ele>419.66666666666663</ele><time>2026-04-25T16:51:26.114Z</time></trkpt><trkpt lat="44.6598617" lon="8.0835433"><ele>420.33333333333337</ele><time>2026-04-25T16:51:27.114Z</time></trkpt><trkpt lat="44.6599617" lon="8.0837283"><ele>421.0</ele><time>2026-04-25T16:51:28.114Z</time></trkpt><trkpt lat="44.6600417" lon="8.08393"><ele>420.0</ele><time>2026-04-25T16:51:29.114Z</time></trkpt><trkpt lat="44.6601067" lon="8.084135"><ele>419.0</ele><time>2026-04-25T16:51:30.114Z</time></trkpt><trkpt lat="44.660155" lon="8.0843467"><ele>418.0</ele><time>2026-04-25T16:51:31.114Z</time></trkpt><trkpt lat="44.66019" lon="8.0845683"><ele>418.0</ele><time>2026-04-25T16:51:32.114Z</time></trkpt><trkpt lat="44.6602167" lon="8.084805"><ele>418.0</ele><time>2026-04-25T16:51:33.114Z</time></trkpt><trkpt lat="44.66023" lon="8.0850317"><ele>418.0</ele><time>2026-04-25T16:51:34.114Z</time></trkpt><trkpt lat="44.6602433" lon="8.0852567"><ele>417.0</ele><time>2026-04-25T16:51:35.114Z</time></trkpt><trkpt lat="44.6602517" lon="8.08549"><ele>416.0</ele><time>2026-04-25T16:51:36.114Z</time></trkpt><trkpt lat="44.6602583" lon="8.0857217"><ele>415.0</ele><time>2026-04-25T16:51:37.114Z</time></trkpt><trkpt lat="44.6602683" lon="8.0859517"><ele>414.33333333333337</ele><time>2026-04-25T16:51:38.114Z</time></trkpt><trkpt lat="44.6602717" lon="8.086185"><ele>413.66666666666663</ele><time>2026-04-25T16:51:39.114Z</time></trkpt><trkpt lat="44.6602617" lon="8.0864067"><ele>413.0</ele><time>2026-04-25T16:51:40.114Z</time></trkpt><trkpt lat="44.6602367" lon="8.0866317"><ele>415.0</ele><time>2026-04-25T16:51:41.114Z</time></trkpt><trkpt lat="44.6602133" lon="8.08685"><ele>417.0</ele><time>2026-04-25T16:51:42.114Z</time></trkpt><trkpt lat="44.6601917" lon="8.0870733"><ele>419.0</ele><time>2026-04-25T16:51:43.114Z</time></trkpt><trkpt lat="44.660165" lon="8.0872933"><ele>421.66666666666663</ele><time>2026-04-25T16:51:44.114Z</time></trkpt><trkpt lat="44.6601433" lon="8.0875167"><ele>424.33333333333337</ele><time>2026-04-25T16:51:45.114Z</time></trkpt><trkpt lat="44.660115" lon="8.087725"><ele>427.0</ele><time>2026-04-25T16:51:46.114Z</time></trkpt><trkpt lat="44.6600867" lon="8.0879333"><ele>427.0</ele><time>2026-04-25T16:51:47.114Z</time></trkpt><trkpt lat="44.6600583" lon="8.0881367"><ele>427.0</ele><time>2026-04-25T16:51:48.114Z</time></trkpt><trkpt lat="44.66003" lon="8.0883367"><ele>427.0</ele><time>2026-04-25T16:51:49.114Z</time></trkpt><trkpt lat="44.6599867" lon="8.0885317"><ele>427.0</ele><time>2026-04-25T16:51:50.114Z</time></trkpt><trkpt lat="44.6599317" lon="8.0887333"><ele>429.33333333333337</ele><time>2026-04-25T16:51:51.114Z</time></trkpt><trkpt lat="44.6598617" lon="8.0889283"><ele>431.66666666666663</ele><time>2026-04-25T16:51:52.114Z</time></trkpt><trkpt lat="44.65978" lon="8.089125"><ele>434.0</ele><time>2026-04-25T16:51:53.114Z</time></trkpt><trkpt lat="44.6596967" lon="8.08932"><ele>438.3333333333333</ele><time>2026-04-25T16:51:54.114Z</time></trkpt><trkpt lat="44.6596167" lon="8.089505"><ele>442.66666666666663</ele><time>2026-04-25T16:51:55.114Z</time></trkpt><trkpt lat="44.6595317" lon="8.0897033"><ele>447.0</ele><time>2026-04-25T16:51:56.114Z</time></trkpt><trkpt lat="44.6594517" lon="8.08989"><ele>445.75</ele><time>2026-04-25T16:51:57.114Z</time></trkpt><trkpt lat="44.65937" lon="8.0900717"><ele>444.5</ele><time>2026-04-25T16:51:58.114Z</time></trkpt><trkpt lat="44.6592783" lon="8.09024"><ele>443.25</ele><time>2026-04-25T16:51:59.114Z</time></trkpt><trkpt lat="44.659185" lon="8.090395"><ele>442.0</ele><time>2026-04-25T16:52:00.114Z</time></trkpt><trkpt lat="44.6590733" lon="8.0905317"><ele>442.0</ele><time>2026-04-25T16:52:01.114Z</time></trkpt><trkpt lat="44.6589567" lon="8.0906383"><ele>442.0</ele><time>2026-04-25T16:52:02.114Z</time></trkpt><trkpt lat="44.6588317" lon="8.0907"><ele>442.0</ele><time>2026-04-25T16:52:03.114Z</time></trkpt><trkpt lat="44.6586833" lon="8.0907483"><ele>442.0</ele><time>2026-04-25T16:52:04.114Z</time></trkpt><trkpt lat="44.658545" lon="8.09078"><ele>444.20000000000005</ele><time>2026-04-25T16:52:05.114Z</time></trkpt><trkpt lat="44.65844" lon="8.0908367"><ele>446.40000000000003</ele><time>2026-04-25T16:52:06.114Z</time></trkpt><trkpt lat="44.6583817" lon="8.090915"><ele>448.59999999999997</ele><time>2026-04-25T16:52:07.114Z</time></trkpt><trkpt lat="44.6583467" lon="8.0910183"><ele>450.79999999999995</ele><time>2026-04-25T16:52:08.114Z</time></trkpt><trkpt lat="44.6583567" lon="8.091135"><ele>453.0</ele><time>2026-04-25T16:52:09.114Z</time></trkpt><trkpt lat="44.658405" lon="8.0912483"><ele>453.0</ele><time>2026-04-25T16:52:10.114Z</time></trkpt><trkpt lat="44.6584983" lon="8.09134"><ele>453.0</ele><time>2026-04-25T16:52:11.114Z</time></trkpt><trkpt lat="44.6586283" lon="8.0914117"><ele>453.0</ele><time>2026-04-25T16:52:12.114Z</time></trkpt><trkpt lat="44.6587417" lon="8.0915"><ele>453.0</ele><time>2026-04-25T16:52:13.114Z</time></trkpt><trkpt lat="44.6588383" lon="8.091605"><ele>453.5</ele><time>2026-04-25T16:52:14.114Z</time></trkpt><trkpt lat="44.6589033" lon="8.0917383"><ele>454.0</ele><time>2026-04-25T16:52:15.114Z</time></trkpt><trkpt lat="44.65893" lon="8.0919083"><ele>454.5</ele><time>2026-04-25T16:52:16.114Z</time></trkpt><trkpt lat="44.6589267" lon="8.092085"><ele>455.0</ele><time>2026-04-25T16:52:17.114Z</time></trkpt><trkpt lat="44.65889" lon="8.0922733"><ele>455.25</ele><time>2026-04-25T16:52:18.114Z</time></trkpt><trkpt lat="44.65885" lon="8.092465"><ele>455.5</ele><time>2026-04-25T16:52:19.114Z</time></trkpt><trkpt lat="44.6588133" lon="8.0926567"><ele>455.75</ele><time>2026-04-25T16:52:20.114Z</time></trkpt><trkpt lat="44.658785" lon="8.092845"><ele>456.0</ele><time>2026-04-25T16:52:21.114Z</time></trkpt><trkpt lat="44.65876" lon="8.09303"><ele>456.0</ele><time>2026-04-25T16:52:22.114Z</time></trkpt><trkpt lat="44.658755" lon="8.0932167"><ele>456.0</ele><time>2026-04-25T16:52:23.114Z</time></trkpt><trkpt lat="44.6587583" lon="8.0934033"><ele>456.0</ele><time>2026-04-25T16:52:24.114Z</time></trkpt><trkpt lat="44.65876" lon="8.0936033"><ele>456.0</ele><time>2026-04-25T16:52:25.114Z</time></trkpt><trkpt lat="44.6587633" lon="8.0937933"><ele>456.25</ele><time>2026-04-25T16:52:26.114Z</time></trkpt><trkpt lat="44.658745" lon="8.0939767"><ele>456.5</ele><time>2026-04-25T16:52:27.114Z</time></trkpt><trkpt lat="44.658705" lon="8.0941433"><ele>456.75</ele><time>2026-04-25T16:52:28.114Z</time></trkpt><trkpt lat="44.6586317" lon="8.09427"><ele>457.0</ele><time>2026-04-25T16:52:29.114Z</time></trkpt><trkpt lat="44.6585383" lon="8.0944117"><ele>462.25</ele><time>2026-04-25T16:52:30.114Z</time></trkpt><trkpt lat="44.6584417" lon="8.0945583"><ele>467.5</ele><time>2026-04-25T16:52:31.114Z</time></trkpt><trkpt lat="44.6583517" lon="8.094715"><ele>472.75</ele><time>2026-04-25T16:52:32.114Z</time></trkpt><trkpt lat="44.65826" lon="8.0948633"><ele>478.0</ele><time>2026-04-25T16:52:33.114Z</time></trkpt><trkpt lat="44.6581533" lon="8.0950133"><ele>478.0</ele><time>2026-04-25T16:52:34.114Z</time></trkpt><trkpt lat="44.65805" lon="8.095155"><ele>478.0</ele><time>2026-04-25T16:52:35.114Z</time></trkpt><trkpt lat="44.6579533" lon="8.0953033"><ele>478.0</ele><time>2026-04-25T16:52:36.114Z</time></trkpt><trkpt lat="44.6578533" lon="8.0954517"><ele>478.0</ele><time>2026-04-25T16:52:37.114Z</time></trkpt><trkpt lat="44.657775" lon="8.0956033"><ele>478.75</ele><time>2026-04-25T16:52:38.114Z</time></trkpt><trkpt lat="44.6577217" lon="8.0957617"><ele>479.5</ele><time>2026-04-25T16:52:39.114Z</time></trkpt><trkpt lat="44.65767" lon="8.095935"><ele>480.25</ele><time>2026-04-25T16:52:40.114Z</time></trkpt><trkpt lat="44.6576367" lon="8.09612"><ele>481.0</ele><time>2026-04-25T16:52:41.114Z</time></trkpt><trkpt lat="44.65762" lon="8.0963133"><ele>481.0</ele><time>2026-04-25T16:52:42.114Z</time></trkpt><trkpt lat="44.65762" lon="8.0965217"><ele>481.0</ele><time>2026-04-25T16:52:43.114Z</time></trkpt><trkpt lat="44.6576333" lon="8.096735"><ele>481.0</ele><time>2026-04-25T16:52:44.114Z</time></trkpt><trkpt lat="44.6576633" lon="8.0969433"><ele>480.6666666666667</ele><time>2026-04-25T16:52:45.114Z</time></trkpt><trkpt lat="44.6576883" lon="8.0971617"><ele>480.33333333333337</ele><time>2026-04-25T16:52:46.114Z</time></trkpt><trkpt lat="44.6577133" lon="8.097375"><ele>480.0</ele><time>2026-04-25T16:52:47.114Z</time></trkpt><trkpt lat="44.657745" lon="8.0975883"><ele>480.25</ele><time>2026-04-25T16:52:48.114Z</time></trkpt><trkpt lat="44.6577667" lon="8.0977883"><ele>480.5</ele><time>2026-04-25T16:52:49.114Z</time></trkpt><trkpt lat="44.6577933" lon="8.0979667"><ele>480.75</ele><time>2026-04-25T16:52:50.114Z</time></trkpt><trkpt lat="44.6578183" lon="8.0981367"><ele>481.0</ele><time>2026-04-25T16:52:51.114Z</time></trkpt><trkpt lat="44.657835" lon="8.09828"><ele>481.00000000000006</ele><time>2026-04-25T16:52:52.114Z</time></trkpt><trkpt lat="44.65785" lon="8.098395"><ele>481.0</ele><time>2026-04-25T16:52:53.114Z</time></trkpt><trkpt lat="44.6578483" lon="8.0984967"><ele>481.0</ele><time>2026-04-25T16:52:54.114Z</time></trkpt><trkpt lat="44.6579" lon="8.0986233"><ele>481.0</ele><time>2026-04-25T16:52:56.114Z</time></trkpt><trkpt lat="44.6579583" lon="8.0986717"><ele>481.00000000000006</ele><time>2026-04-25T16:52:57.114Z</time></trkpt><trkpt lat="44.658035" lon="8.0987283"><ele>481.0</ele><time>2026-04-25T16:52:58.114Z</time></trkpt><trkpt lat="44.6581267" lon="8.0987933"><ele>481.0</ele><time>2026-04-25T16:52:59.114Z</time></trkpt><trkpt lat="44.65822" lon="8.0988867"><ele>481.0</ele><time>2026-04-25T16:53:00.114Z</time></trkpt><trkpt lat="44.658325" lon="8.098975"><ele>481.0</ele><time>2026-04-25T16:53:01.114Z</time></trkpt><trkpt lat="44.6584417" lon="8.0990517"><ele>481.0</ele><time>2026-04-25T16:53:02.114Z</time></trkpt><trkpt lat="44.65856" lon="8.0990867"><ele>483.25</ele><time>2026-04-25T16:53:03.114Z</time></trkpt><trkpt lat="44.65868" lon="8.099105"><ele>485.5</ele><time>2026-04-25T16:53:04.114Z</time></trkpt><trkpt lat="44.658815" lon="8.0991067"><ele>487.75</ele><time>2026-04-25T16:53:05.114Z</time></trkpt><trkpt lat="44.6589567" lon="8.0991"><ele>490.0</ele><time>2026-04-25T16:53:06.114Z</time></trkpt><trkpt lat="44.6591" lon="8.0990983"><ele>490.0</ele><time>2026-04-25T16:53:07.114Z</time></trkpt><trkpt lat="44.65924" lon="8.099095"><ele>490.0</ele><time>2026-04-25T16:53:08.114Z</time></trkpt><trkpt lat="44.6593783" lon="8.0990917"><ele>490.0</ele><time>2026-04-25T16:53:09.114Z</time></trkpt><trkpt lat="44.6595267" lon="8.0990917"><ele>490.0</ele><time>2026-04-25T16:53:10.114Z</time></trkpt><trkpt lat="44.6596667" lon="8.0991083"><ele>490.0</ele><time>2026-04-25T16:53:11.114Z</time></trkpt><trkpt lat="44.6598067" lon="8.099135"><ele>490.0</ele><time>2026-04-25T16:53:12.114Z</time></trkpt><trkpt lat="44.6599467" lon="8.0991633"><ele>490.0</ele><time>2026-04-25T16:53:13.114Z</time></trkpt><trkpt lat="44.6600817" lon="8.0991967"><ele>490.0</ele><time>2026-04-25T16:53:14.114Z</time></trkpt><trkpt lat="44.6602167" lon="8.099235"><ele>489.75</ele><time>2026-04-25T16:53:15.114Z</time></trkpt><trkpt lat="44.66035" lon="8.0992833"><ele>489.5</ele><time>2026-04-25T16:53:16.114Z</time></trkpt><trkpt lat="44.6604817" lon="8.09935"><ele>489.25</ele><time>2026-04-25T16:53:17.114Z</time></trkpt><trkpt lat="44.660615" lon="8.0994183"><ele>489.0</ele><time>2026-04-25T16:53:18.114Z</time></trkpt><trkpt lat="44.6607517" lon="8.0995"><ele>489.0</ele><time>2026-04-25T16:53:19.114Z</time></trkpt><trkpt lat="44.66089" lon="8.0995833"><ele>489.0</ele><time>2026-04-25T16:53:20.114Z</time></trkpt><trkpt lat="44.6610267" lon="8.0996683"><ele>489.0</ele><time>2026-04-25T16:53:21.114Z</time></trkpt><trkpt lat="44.6611667" lon="8.0997567"><ele>487.75</ele><time>2026-04-25T16:53:22.114Z</time></trkpt><trkpt lat="44.6612983" lon="8.09984"><ele>486.5</ele><time>2026-04-25T16:53:23.114Z</time></trkpt><trkpt lat="44.661425" lon="8.0999267"><ele>485.25</ele><time>2026-04-25T16:53:24.114Z</time></trkpt><trkpt lat="44.66157" lon="8.0999917"><ele>484.0</ele><time>2026-04-25T16:53:25.114Z</time></trkpt><trkpt lat="44.6617083" lon="8.10006"><ele>485.33333333333337</ele><time>2026-04-25T16:53:26.114Z</time></trkpt><trkpt lat="44.6618617" lon="8.10011"><ele>486.66666666666663</ele><time>2026-04-25T16:53:27.114Z</time></trkpt><trkpt lat="44.66201" lon="8.1001333"><ele>488.0</ele><time>2026-04-25T16:53:28.114Z</time></trkpt><trkpt lat="44.662165" lon="8.10015"><ele>488.0</ele><time>2026-04-25T16:53:29.114Z</time></trkpt><trkpt lat="44.6623233" lon="8.1001683"><ele>488.0</ele><time>2026-04-25T16:53:30.114Z</time></trkpt><trkpt lat="44.6624733" lon="8.1001833"><ele>488.0</ele><time>2026-04-25T16:53:31.114Z</time></trkpt><trkpt lat="44.6626217" lon="8.1001967"><ele>488.0</ele><time>2026-04-25T16:53:32.114Z</time></trkpt><trkpt lat="44.6627733" lon="8.100215"><ele>488.0</ele><time>2026-04-25T16:53:33.114Z</time></trkpt><trkpt lat="44.6629267" lon="8.1002517"><ele>488.0</ele><time>2026-04-25T16:53:34.114Z</time></trkpt><trkpt lat="44.6630767" lon="8.100275"><ele>487.5</ele><time>2026-04-25T16:53:35.114Z</time></trkpt><trkpt lat="44.66323" lon="8.1003067"><ele>487.0</ele><time>2026-04-25T16:53:36.114Z</time></trkpt><trkpt lat="44.6633667" lon="8.1003317"><ele>486.5</ele><time>2026-04-25T16:53:37.114Z</time></trkpt><trkpt lat="44.6634867" lon="8.1003367"><ele>486.0</ele><time>2026-04-25T16:53:38.114Z</time></trkpt><trkpt lat="44.6635967" lon="8.1003083"><ele>485.5</ele><time>2026-04-25T16:53:39.114Z</time></trkpt><trkpt lat="44.663695" lon="8.1002367"><ele>485.0</ele><time>2026-04-25T16:53:40.114Z</time></trkpt><trkpt lat="44.66377" lon="8.1001367"><ele>484.5</ele><time>2026-04-25T16:53:41.114Z</time></trkpt><trkpt lat="44.6638367" lon="8.1"><ele>484.0</ele><time>2026-04-25T16:53:42.114Z</time></trkpt><trkpt lat="44.663905" lon="8.099855"><ele>484.0</ele><time>2026-04-25T16:53:43.114Z</time></trkpt><trkpt lat="44.6639733" lon="8.0996983"><ele>484.0</ele><time>2026-04-25T16:53:44.114Z</time></trkpt><trkpt lat="44.6640433" lon="8.0995333"><ele>484.0</ele><time>2026-04-25T16:53:45.114Z</time></trkpt><trkpt lat="44.6641117" lon="8.0993717"><ele>484.0</ele><time>2026-04-25T16:53:46.114Z</time></trkpt><trkpt lat="44.66418" lon="8.09922"><ele>483.75</ele><time>2026-04-25T16:53:47.114Z</time></trkpt><trkpt lat="44.66426" lon="8.09908"><ele>483.5</ele><time>2026-04-25T16:53:48.114Z</time></trkpt><trkpt lat="44.6643683" lon="8.0989467"><ele>483.25</ele><time>2026-04-25T16:53:49.114Z</time></trkpt><trkpt lat="44.66449" lon="8.0988283"><ele>483.0</ele><time>2026-04-25T16:53:50.114Z</time></trkpt><trkpt lat="44.6646067" lon="8.0987117"><ele>483.0</ele><time>2026-04-25T16:53:51.114Z</time></trkpt><trkpt lat="44.6647167" lon="8.0985833"><ele>483.0</ele><time>2026-04-25T16:53:52.114Z</time></trkpt><trkpt lat="44.664835" lon="8.0984583"><ele>483.0</ele><time>2026-04-25T16:53:53.114Z</time></trkpt><trkpt lat="44.66494" lon="8.0983317"><ele>483.0</ele><time>2026-04-25T16:53:54.114Z</time></trkpt><trkpt lat="44.6650583" lon="8.0982383"><ele>480.0</ele><time>2026-04-25T16:53:55.114Z</time></trkpt><trkpt lat="44.6651867" lon="8.09817"><ele>477.0</ele><time>2026-04-25T16:53:56.114Z</time></trkpt><trkpt lat="44.6653133" lon="8.0981283"><ele>474.0</ele><time>2026-04-25T16:53:57.114Z</time></trkpt><trkpt lat="44.6654467" lon="8.0980917"><ele>471.0</ele><time>2026-04-25T16:53:58.114Z</time></trkpt><trkpt lat="44.6655817" lon="8.098055"><ele>471.0</ele><time>2026-04-25T16:53:59.114Z</time></trkpt><trkpt lat="44.6656933" lon="8.0979883"><ele>471.0</ele><time>2026-04-25T16:54:00.114Z</time></trkpt><trkpt lat="44.6657767" lon="8.097865"><ele>471.0</ele><time>2026-04-25T16:54:01.114Z</time></trkpt><trkpt lat="44.665855" lon="8.0977333"><ele>471.0</ele><time>2026-04-25T16:54:02.114Z</time></trkpt><trkpt lat="44.66595" lon="8.09761"><ele>471.0</ele><time>2026-04-25T16:54:03.114Z</time></trkpt><trkpt lat="44.6660733" lon="8.09753"><ele>471.0</ele><time>2026-04-25T16:54:04.114Z</time></trkpt><trkpt lat="44.666215" lon="8.0974867"><ele>471.0</ele><time>2026-04-25T16:54:05.114Z</time></trkpt><trkpt lat="44.6663667" lon="8.0974833"><ele>471.0</ele><time>2026-04-25T16:54:06.114Z</time></trkpt><trkpt lat="44.66651" lon="8.0974933"><ele>473.0</ele><time>2026-04-25T16:54:07.114Z</time></trkpt><trkpt lat="44.6666733" lon="8.0975033"><ele>475.0</ele><time>2026-04-25T16:54:08.114Z</time></trkpt><trkpt lat="44.6668317" lon="8.0975217"><ele>477.0</ele><time>2026-04-25T16:54:09.114Z</time></trkpt><trkpt lat="44.66699" lon="8.0975483"><ele>477.33333333333337</ele><time>2026-04-25T16:54:10.114Z</time></trkpt><trkpt lat="44.66716" lon="8.097565"><ele>477.6666666666667</ele><time>2026-04-25T16:54:11.114Z</time></trkpt><trkpt lat="44.6673283" lon="8.09755"><ele>478.0</ele><time>2026-04-25T16:54:12.114Z</time></trkpt><trkpt lat="44.6674917" lon="8.0975083"><ele>478.0</ele><time>2026-04-25T16:54:13.114Z</time></trkpt><trkpt lat="44.6676517" lon="8.09745"><ele>478.0</ele><time>2026-04-25T16:54:14.114Z</time></trkpt><trkpt lat="44.6678067" lon="8.0973967"><ele>478.0</ele><time>2026-04-25T16:54:15.113Z</time></trkpt><trkpt lat="44.6679617" lon="8.0973267"><ele>472.33333333333337</ele><time>2026-04-25T16:54:16.113Z</time></trkpt><trkpt lat="44.6681117" lon="8.0972433"><ele>466.66666666666663</ele><time>2026-04-25T16:54:17.113Z</time></trkpt><trkpt lat="44.6682567" lon="8.0971317"><ele>461.0</ele><time>2026-04-25T16:54:18.113Z</time></trkpt><trkpt lat="44.6683917" lon="8.0970183"><ele>461.0</ele><time>2026-04-25T16:54:19.113Z</time></trkpt><trkpt lat="44.6685233" lon="8.0968917"><ele>461.0</ele><time>2026-04-25T16:54:20.113Z</time></trkpt><trkpt lat="44.6686517" lon="8.0967783"><ele>461.0</ele><time>2026-04-25T16:54:21.113Z</time></trkpt><trkpt lat="44.6687733" lon="8.096655"><ele>458.3333333333333</ele><time>2026-04-25T16:54:22.113Z</time></trkpt><trkpt lat="44.6689067" lon="8.0965433"><ele>455.66666666666663</ele><time>2026-04-25T16:54:23.113Z</time></trkpt><trkpt lat="44.6690483" lon="8.0964583"><ele>453.0</ele><time>2026-04-25T16:54:24.113Z</time></trkpt><trkpt lat="44.6691983" lon="8.0963967"><ele>453.0</ele><time>2026-04-25T16:54:25.113Z</time></trkpt><trkpt lat="44.6693533" lon="8.09636"><ele>453.0</ele><time>2026-04-25T16:54:26.113Z</time></trkpt><trkpt lat="44.6695183" lon="8.0963183"><ele>453.0</ele><time>2026-04-25T16:54:27.113Z</time></trkpt><trkpt lat="44.66969" lon="8.0962833"><ele>455.0</ele><time>2026-04-25T16:54:28.114Z</time></trkpt><trkpt lat="44.6698583" lon="8.0962483"><ele>457.0</ele><time>2026-04-25T16:54:29.113Z</time></trkpt><trkpt lat="44.67001" lon="8.0962133"><ele>459.0</ele><time>2026-04-25T16:54:30.113Z</time></trkpt><trkpt lat="44.6701517" lon="8.0961317"><ele>459.0</ele><time>2026-04-25T16:54:31.114Z</time></trkpt><trkpt lat="44.6702717" lon="8.0960033"><ele>459.0</ele><time>2026-04-25T16:54:32.113Z</time></trkpt><trkpt lat="44.6703883" lon="8.09586"><ele>459.0</ele><time>2026-04-25T16:54:33.113Z</time></trkpt><trkpt lat="44.6705117" lon="8.0956883"><ele>459.66666666666663</ele><time>2026-04-25T16:54:34.113Z</time></trkpt><trkpt lat="44.6706233" lon="8.0955183"><ele>460.3333333333333</ele><time>2026-04-25T16:54:35.113Z</time></trkpt><trkpt lat="44.670735" lon="8.0953433"><ele>461.0</ele><time>2026-04-25T16:54:36.113Z</time></trkpt><trkpt lat="44.6708333" lon="8.0951583"><ele>461.0</ele><time>2026-04-25T16:54:37.113Z</time></trkpt><trkpt lat="44.67093" lon="8.0949533"><ele>461.0</ele><time>2026-04-25T16:54:38.113Z</time></trkpt><trkpt lat="44.67101" lon="8.09475"><ele>461.0</ele><time>2026-04-25T16:54:39.113Z</time></trkpt><trkpt lat="44.6710833" lon="8.094555"><ele>463.25</ele><time>2026-04-25T16:54:40.113Z</time></trkpt><trkpt lat="44.6711417" lon="8.0943633"><ele>465.5</ele><time>2026-04-25T16:54:41.113Z</time></trkpt><trkpt lat="44.6712167" lon="8.09419"><ele>467.75</ele><time>2026-04-25T16:54:42.113Z</time></trkpt><trkpt lat="44.6713167" lon="8.0940517"><ele>470.0</ele><time>2026-04-25T16:54:43.113Z</time></trkpt><trkpt lat="44.6714333" lon="8.093945"><ele>464.75</ele><time>2026-04-25T16:54:44.113Z</time></trkpt><trkpt lat="44.6715667" lon="8.0938733"><ele>459.5</ele><time>2026-04-25T16:54:45.113Z</time></trkpt><trkpt lat="44.6717117" lon="8.09385"><ele>454.25</ele><time>2026-04-25T16:54:46.113Z</time></trkpt><trkpt lat="44.6718633" lon="8.0938767"><ele>449.0</ele><time>2026-04-25T16:54:47.113Z</time></trkpt><trkpt lat="44.6720167" lon="8.093955"><ele>445.66666666666663</ele><time>2026-04-25T16:54:48.113Z</time></trkpt><trkpt lat="44.6721617" lon="8.0940667"><ele>442.33333333333337</ele><time>2026-04-25T16:54:49.113Z</time></trkpt><trkpt lat="44.6722933" lon="8.0941783"><ele>439.0</ele><time>2026-04-25T16:54:50.113Z</time></trkpt><trkpt lat="44.6724183" lon="8.0942917"><ele>443.6666666666667</ele><time>2026-04-25T16:54:51.113Z</time></trkpt><trkpt lat="44.6725533" lon="8.094405"><ele>448.33333333333337</ele><time>2026-04-25T16:54:52.113Z</time></trkpt><trkpt lat="44.672695" lon="8.0944817"><ele>453.0</ele><time>2026-04-25T16:54:53.113Z</time></trkpt><trkpt lat="44.67284" lon="8.0945317"><ele>453.0</ele><time>2026-04-25T16:54:54.113Z</time></trkpt><trkpt lat="44.6729883" lon="8.094575"><ele>453.0</ele><time>2026-04-25T16:54:55.113Z</time></trkpt><trkpt lat="44.6731467" lon="8.0945933"><ele>453.0</ele><time>2026-04-25T16:54:56.113Z</time></trkpt><trkpt lat="44.6733083" lon="8.094595"><ele>453.0</ele><time>2026-04-25T16:54:57.113Z</time></trkpt><trkpt lat="44.6734733" lon="8.0945767"><ele>453.0</ele><time>2026-04-25T16:54:58.113Z</time></trkpt><trkpt lat="44.673635" lon="8.09454"><ele>453.0</ele><time>2026-04-25T16:54:59.113Z</time></trkpt><trkpt lat="44.6738017" lon="8.094485"><ele>454.66666666666663</ele><time>2026-04-25T16:55:00.113Z</time></trkpt><trkpt lat="44.67398" lon="8.09442"><ele>456.3333333333333</ele><time>2026-04-25T16:55:01.113Z</time></trkpt><trkpt lat="44.674145" lon="8.0943533"><ele>458.0</ele><time>2026-04-25T16:55:02.113Z</time></trkpt><trkpt lat="44.6743067" lon="8.0942933"><ele>459.3333333333333</ele><time>2026-04-25T16:55:03.113Z</time></trkpt><trkpt lat="44.6744767" lon="8.0942267"><ele>460.66666666666663</ele><time>2026-04-25T16:55:04.113Z</time></trkpt><trkpt lat="44.6746383" lon="8.0941733"><ele>462.0</ele><time>2026-04-25T16:55:05.113Z</time></trkpt><trkpt lat="44.674805" lon="8.0941317"><ele>462.0</ele><time>2026-04-25T16:55:06.113Z</time></trkpt><trkpt lat="44.6749717" lon="8.094105"><ele>462.0</ele><time>2026-04-25T16:55:07.113Z</time></trkpt><trkpt lat="44.675145" lon="8.094085"><ele>462.0</ele><time>2026-04-25T16:55:08.113Z</time></trkpt><trkpt lat="44.6753217" lon="8.0940617"><ele>457.66666666666663</ele><time>2026-04-25T16:55:09.113Z</time></trkpt><trkpt lat="44.675495" lon="8.094035"><ele>453.3333333333333</ele><time>2026-04-25T16:55:10.113Z</time></trkpt><trkpt lat="44.67566" lon="8.09398"><ele>449.0</ele><time>2026-04-25T16:55:11.113Z</time></trkpt><trkpt lat="44.6758233" lon="8.09391"><ele>449.0</ele><time>2026-04-25T16:55:12.113Z</time></trkpt><trkpt lat="44.6759783" lon="8.0938217"><ele>449.0</ele><time>2026-04-25T16:55:13.113Z</time></trkpt><trkpt lat="44.6761317" lon="8.0937333"><ele>449.0</ele><time>2026-04-25T16:55:14.113Z</time></trkpt><trkpt lat="44.6762633" lon="8.0936183"><ele>449.3333333333333</ele><time>2026-04-25T16:55:15.113Z</time></trkpt><trkpt lat="44.6763883" lon="8.093475"><ele>449.66666666666663</ele><time>2026-04-25T16:55:16.113Z</time></trkpt><trkpt lat="44.6765067" lon="8.0933183"><ele>450.0</ele><time>2026-04-25T16:55:17.113Z</time></trkpt><trkpt lat="44.6766217" lon="8.093155"><ele>450.0</ele><time>2026-04-25T16:55:18.113Z</time></trkpt><trkpt lat="44.6767333" lon="8.0929917"><ele>450.0</ele><time>2026-04-25T16:55:19.113Z</time></trkpt><trkpt lat="44.6768367" lon="8.092835"><ele>450.0</ele><time>2026-04-25T16:55:20.113Z</time></trkpt><trkpt lat="44.6769267" lon="8.09266"><ele>450.75</ele><time>2026-04-25T16:55:21.113Z</time></trkpt><trkpt lat="44.6769967" lon="8.0924917"><ele>451.5</ele><time>2026-04-25T16:55:22.113Z</time></trkpt><trkpt lat="44.6770583" lon="8.092355"><ele>452.25</ele><time>2026-04-25T16:55:23.113Z</time></trkpt><trkpt lat="44.6771383" lon="8.0922433"><ele>453.0</ele><time>2026-04-25T16:55:24.113Z</time></trkpt><trkpt lat="44.6772283" lon="8.0921667"><ele>453.0</ele><time>2026-04-25T16:55:25.113Z</time></trkpt><trkpt lat="44.6773233" lon="8.09213"><ele>453.0</ele><time>2026-04-25T16:55:26.113Z</time></trkpt><trkpt lat="44.6774383" lon="8.092145"><ele>453.0</ele><time>2026-04-25T16:55:27.113Z</time></trkpt><trkpt lat="44.677555" lon="8.0922267"><ele>453.0</ele><time>2026-04-25T16:55:28.113Z</time></trkpt><trkpt lat="44.6776783" lon="8.0923267"><ele>453.0</ele><time>2026-04-25T16:55:29.113Z</time></trkpt><trkpt lat="44.6777983" lon="8.0924367"><ele>453.0</ele><time>2026-04-25T16:55:30.113Z</time></trkpt><trkpt lat="44.6779317" lon="8.0925267"><ele>453.0</ele><time>2026-04-25T16:55:31.113Z</time></trkpt><trkpt lat="44.67804" lon="8.092635"><ele>453.0</ele><time>2026-04-25T16:55:32.113Z</time></trkpt><trkpt lat="44.6781717" lon="8.09273"><ele>453.0</ele><time>2026-04-25T16:55:33.113Z</time></trkpt><trkpt lat="44.6782967" lon="8.09281"><ele>453.0</ele><time>2026-04-25T16:55:34.113Z</time></trkpt><trkpt lat="44.678415" lon="8.0928733"><ele>453.0</ele><time>2026-04-25T16:55:35.113Z</time></trkpt><trkpt lat="44.6785217" lon="8.0929033"><ele>453.0</ele><time>2026-04-25T16:55:36.113Z</time></trkpt><trkpt lat="44.678635" lon="8.09289"><ele>454.25</ele><time>2026-04-25T16:55:37.113Z</time></trkpt><trkpt lat="44.6787617" lon="8.092855"><ele>455.5</ele><time>2026-04-25T16:55:38.113Z</time></trkpt><trkpt lat="44.6788817" lon="8.092795"><ele>456.75</ele><time>2026-04-25T16:55:39.113Z</time></trkpt><trkpt lat="44.6789983" lon="8.092715"><ele>458.0</ele><time>2026-04-25T16:55:40.113Z</time></trkpt><trkpt lat="44.6791183" lon="8.0926317"><ele>458.0</ele><time>2026-04-25T16:55:41.113Z</time></trkpt><trkpt lat="44.6792533" lon="8.0925433"><ele>458.0</ele><time>2026-04-25T16:55:42.113Z</time></trkpt><trkpt lat="44.679375" lon="8.09245"><ele>458.0</ele><time>2026-04-25T16:55:43.113Z</time></trkpt><trkpt lat="44.67951" lon="8.0923533"><ele>458.0</ele><time>2026-04-25T16:55:44.114Z</time></trkpt><trkpt lat="44.67964" lon="8.0922617"><ele>457.5</ele><time>2026-04-25T16:55:45.113Z</time></trkpt><trkpt lat="44.6797617" lon="8.0921583"><ele>457.0</ele><time>2026-04-25T16:55:46.113Z</time></trkpt><trkpt lat="44.6798767" lon="8.0920417"><ele>456.5</ele><time>2026-04-25T16:55:47.113Z</time></trkpt><trkpt lat="44.6799817" lon="8.0919133"><ele>456.0</ele><time>2026-04-25T16:55:48.113Z</time></trkpt><trkpt lat="44.6801017" lon="8.091805"><ele>456.0</ele><time>2026-04-25T16:55:49.113Z</time></trkpt><trkpt lat="44.6802283" lon="8.0917333"><ele>456.0</ele><time>2026-04-25T16:55:50.113Z</time></trkpt><trkpt lat="44.680365" lon="8.0916717"><ele>456.0</ele><time>2026-04-25T16:55:51.113Z</time></trkpt><trkpt lat="44.6805033" lon="8.0916033"><ele>456.0</ele><time>2026-04-25T16:55:52.113Z</time></trkpt><trkpt lat="44.6806433" lon="8.0915267"><ele>455.25</ele><time>2026-04-25T16:55:53.113Z</time></trkpt><trkpt lat="44.6807833" lon="8.0914617"><ele>454.5</ele><time>2026-04-25T16:55:54.113Z</time></trkpt><trkpt lat="44.6809233" lon="8.09139"><ele>453.75</ele><time>2026-04-25T16:55:55.113Z</time></trkpt><trkpt lat="44.68105" lon="8.09131"><ele>453.0</ele><time>2026-04-25T16:55:56.113Z</time></trkpt><trkpt lat="44.6811767" lon="8.0912067"><ele>453.0</ele><time>2026-04-25T16:55:57.113Z</time></trkpt><trkpt lat="44.6812933" lon="8.0910867"><ele>453.0</ele><time>2026-04-25T16:55:58.113Z</time></trkpt><trkpt lat="44.6814033" lon="8.0909533"><ele>453.0</ele><time>2026-04-25T16:55:59.113Z</time></trkpt><trkpt lat="44.6815083" lon="8.0908133"><ele>453.0</ele><time>2026-04-25T16:56:00.113Z</time></trkpt><trkpt lat="44.68161" lon="8.09067"><ele>452.25</ele><time>2026-04-25T16:56:01.113Z</time></trkpt><trkpt lat="44.6817133" lon="8.0905417"><ele>451.5</ele><time>2026-04-25T16:56:02.113Z</time></trkpt><trkpt lat="44.6818133" lon="8.0904133"><ele>450.75</ele><time>2026-04-25T16:56:03.113Z</time></trkpt><trkpt lat="44.681915" lon="8.09029"><ele>450.0</ele><time>2026-04-25T16:56:04.113Z</time></trkpt><trkpt lat="44.6820217" lon="8.09017"><ele>450.0</ele><time>2026-04-25T16:56:05.113Z</time></trkpt><trkpt lat="44.6821433" lon="8.0900617"><ele>450.0</ele><time>2026-04-25T16:56:06.113Z</time></trkpt><trkpt lat="44.6822833" lon="8.089975"><ele>450.0</ele><time>2026-04-25T16:56:07.113Z</time></trkpt><trkpt lat="44.68243" lon="8.08991"><ele>452.0</ele><time>2026-04-25T16:56:08.113Z</time></trkpt><trkpt lat="44.68259" lon="8.0898817"><ele>454.0</ele><time>2026-04-25T16:56:09.113Z</time></trkpt><trkpt lat="44.6827467" lon="8.089855"><ele>456.0</ele><time>2026-04-25T16:56:10.113Z</time></trkpt><trkpt lat="44.6829117" lon="8.08985"><ele>452.0</ele><time>2026-04-25T16:56:11.113Z</time></trkpt><trkpt lat="44.6830783" lon="8.0898717"><ele>448.0</ele><time>2026-04-25T16:56:12.113Z</time></trkpt><trkpt lat="44.6832467" lon="8.0899217"><ele>444.0</ele><time>2026-04-25T16:56:13.113Z</time></trkpt><trkpt lat="44.6834067" lon="8.089995"><ele>444.0</ele><time>2026-04-25T16:56:14.113Z</time></trkpt><trkpt lat="44.6835667" lon="8.09007"><ele>444.0</ele><time>2026-04-25T16:56:15.113Z</time></trkpt><trkpt lat="44.6837333" lon="8.0901383"><ele>444.0</ele><time>2026-04-25T16:56:16.113Z</time></trkpt><trkpt lat="44.6839067" lon="8.0902217"><ele>441.0</ele><time>2026-04-25T16:56:17.113Z</time></trkpt><trkpt lat="44.684085" lon="8.0902967"><ele>438.0</ele><time>2026-04-25T16:56:18.113Z</time></trkpt><trkpt lat="44.6842667" lon="8.0903767"><ele>435.0</ele><time>2026-04-25T16:56:19.113Z</time></trkpt><trkpt lat="44.68445" lon="8.0904567"><ele>434.0</ele><time>2026-04-25T16:56:20.113Z</time></trkpt><trkpt lat="44.6846167" lon="8.090535"><ele>433.0</ele><time>2026-04-25T16:56:21.113Z</time></trkpt><trkpt lat="44.68478" lon="8.0906117"><ele>432.0</ele><time>2026-04-25T16:56:22.113Z</time></trkpt><trkpt lat="44.684935" lon="8.09065"><ele>432.0</ele><time>2026-04-25T16:56:23.113Z</time></trkpt><trkpt lat="44.6851" lon="8.09065"><ele>432.0</ele><time>2026-04-25T16:56:24.113Z</time></trkpt><trkpt lat="44.6852467" lon="8.09062"><ele>432.0</ele><time>2026-04-25T16:56:25.113Z</time></trkpt><trkpt lat="44.68539" lon="8.0905717"><ele>432.0</ele><time>2026-04-25T16:56:26.113Z</time></trkpt><trkpt lat="44.6855283" lon="8.0905317"><ele>432.0</ele><time>2026-04-25T16:56:27.113Z</time></trkpt><trkpt lat="44.68567" lon="8.0905233"><ele>432.0</ele><time>2026-04-25T16:56:28.113Z</time></trkpt><trkpt lat="44.685825" lon="8.0905583"><ele>432.0</ele><time>2026-04-25T16:56:29.113Z</time></trkpt><trkpt lat="44.68598" lon="8.0906367"><ele>433.33333333333337</ele><time>2026-04-25T16:56:30.113Z</time></trkpt><trkpt lat="44.6861417" lon="8.0907217"><ele>434.6666666666667</ele><time>2026-04-25T16:56:31.113Z</time></trkpt><trkpt lat="44.6863083" lon="8.09078"><ele>436.0</ele><time>2026-04-25T16:56:32.113Z</time></trkpt><trkpt lat="44.68647" lon="8.0908333"><ele>436.0</ele><time>2026-04-25T16:56:33.113Z</time></trkpt><trkpt lat="44.6866417" lon="8.0908683"><ele>436.0</ele><time>2026-04-25T16:56:34.113Z</time></trkpt><trkpt lat="44.686805" lon="8.090895"><ele>436.0</ele><time>2026-04-25T16:56:35.113Z</time></trkpt><trkpt lat="44.6869583" lon="8.0909283"><ele>435.75</ele><time>2026-04-25T16:56:36.113Z</time></trkpt><trkpt lat="44.6871083" lon="8.09098"><ele>435.5</ele><time>2026-04-25T16:56:37.113Z</time></trkpt><trkpt lat="44.687245" lon="8.0910133"><ele>435.25</ele><time>2026-04-25T16:56:38.113Z</time></trkpt><trkpt lat="44.6873783" lon="8.0910067"><ele>435.0</ele><time>2026-04-25T16:56:39.113Z</time></trkpt><trkpt lat="44.68751" lon="8.09095"><ele>435.0</ele><time>2026-04-25T16:56:40.113Z</time></trkpt><trkpt lat="44.687625" lon="8.0908683"><ele>435.0</ele><time>2026-04-25T16:56:41.113Z</time></trkpt><trkpt lat="44.6877283" lon="8.0907683"><ele>435.0</ele><time>2026-04-25T16:56:42.113Z</time></trkpt><trkpt lat="44.6878433" lon="8.09065"><ele>435.0</ele><time>2026-04-25T16:56:43.113Z</time></trkpt><trkpt lat="44.687965" lon="8.090535"><ele>434.0</ele><time>2026-04-25T16:56:44.113Z</time></trkpt><trkpt lat="44.68809" lon="8.0904133"><ele>433.0</ele><time>2026-04-25T16:56:45.113Z</time></trkpt><trkpt lat="44.68822" lon="8.0902983"><ele>432.0</ele><time>2026-04-25T16:56:46.113Z</time></trkpt><trkpt lat="44.688345" lon="8.0901817"><ele>432.0</ele><time>2026-04-25T16:56:47.113Z</time></trkpt><trkpt lat="44.688475" lon="8.09009"><ele>432.0</ele><time>2026-04-25T16:56:48.113Z</time></trkpt><trkpt lat="44.6886" lon="8.0900267"><ele>432.0</ele><time>2026-04-25T16:56:49.113Z</time></trkpt><trkpt lat="44.6887283" lon="8.0899767"><ele>432.0</ele><time>2026-04-25T16:56:50.113Z</time></trkpt><trkpt lat="44.6888633" lon="8.0899283"><ele>431.75</ele><time>2026-04-25T16:56:51.113Z</time></trkpt><trkpt lat="44.6889967" lon="8.089875"><ele>431.5</ele><time>2026-04-25T16:56:52.113Z</time></trkpt><trkpt lat="44.6891317" lon="8.0898167"><ele>431.25</ele><time>2026-04-25T16:56:53.113Z</time></trkpt><trkpt lat="44.689265" lon="8.089755"><ele>431.0</ele><time>2026-04-25T16:56:54.113Z</time></trkpt><trkpt lat="44.6893883" lon="8.0896983"><ele>428.6</ele><time>2026-04-25T16:56:55.113Z</time></trkpt><trkpt lat="44.6894983" lon="8.0896517"><ele>426.20000000000005</ele><time>2026-04-25T16:56:56.113Z</time></trkpt><trkpt lat="44.68959" lon="8.0896083"><ele>423.79999999999995</ele><time>2026-04-25T16:56:57.113Z</time></trkpt><trkpt lat="44.689675" lon="8.0895733"><ele>421.4</ele><time>2026-04-25T16:56:58.113Z</time></trkpt><trkpt lat="44.689745" lon="8.0895417"><ele>419.0</ele><time>2026-04-25T16:56:59.113Z</time></trkpt><trkpt lat="44.6898483" lon="8.0895017"><ele>419.0</ele><time>2026-04-25T16:57:01.113Z</time></trkpt><trkpt lat="44.6899683" lon="8.0895417"><ele>419.0</ele><time>2026-04-25T16:57:03.113Z</time></trkpt><trkpt lat="44.690035" lon="8.0896083"><ele>419.0</ele><time>2026-04-25T16:57:04.113Z</time></trkpt><trkpt lat="44.690115" lon="8.0896883"><ele>419.0</ele><time>2026-04-25T16:57:05.113Z</time></trkpt><trkpt lat="44.6902183" lon="8.08977"><ele>419.0</ele><time>2026-04-25T16:57:06.113Z</time></trkpt><trkpt lat="44.6903283" lon="8.0898333"><ele>418.75</ele><time>2026-04-25T16:57:07.113Z</time></trkpt><trkpt lat="44.6904517" lon="8.0898833"><ele>418.5</ele><time>2026-04-25T16:57:08.113Z</time></trkpt><trkpt lat="44.69059" lon="8.08992"><ele>418.25</ele><time>2026-04-25T16:57:09.113Z</time></trkpt><trkpt lat="44.6907367" lon="8.0899517"><ele>418.0</ele><time>2026-04-25T16:57:10.113Z</time></trkpt><trkpt lat="44.6908883" lon="8.0899883"><ele>418.0</ele><time>2026-04-25T16:57:11.113Z</time></trkpt><trkpt lat="44.691045" lon="8.090015"><ele>418.0</ele><time>2026-04-25T16:57:12.113Z</time></trkpt><trkpt lat="44.6911967" lon="8.09006"><ele>418.0</ele><time>2026-04-25T16:57:13.113Z</time></trkpt><trkpt lat="44.6913483" lon="8.09009"><ele>416.6666666666667</ele><time>2026-04-25T16:57:14.113Z</time></trkpt><trkpt lat="44.6914967" lon="8.090125"><ele>415.33333333333337</ele><time>2026-04-25T16:57:15.113Z</time></trkpt><trkpt lat="44.69165" lon="8.0901433"><ele>414.0</ele><time>2026-04-25T16:57:16.113Z</time></trkpt><trkpt lat="44.6918" lon="8.0901433"><ele>415.0</ele><time>2026-04-25T16:57:17.113Z</time></trkpt><trkpt lat="44.69194" lon="8.0901233"><ele>416.0</ele><time>2026-04-25T16:57:18.113Z</time></trkpt><trkpt lat="44.6920933" lon="8.0900883"><ele>417.0</ele><time>2026-04-25T16:57:19.113Z</time></trkpt><trkpt lat="44.6922483" lon="8.0900683"><ele>417.0</ele><time>2026-04-25T16:57:20.113Z</time></trkpt><trkpt lat="44.6923933" lon="8.09003"><ele>417.0</ele><time>2026-04-25T16:57:21.113Z</time></trkpt><trkpt lat="44.69254" lon="8.0899933"><ele>417.0</ele><time>2026-04-25T16:57:22.113Z</time></trkpt><trkpt lat="44.6926767" lon="8.089945"><ele>417.0</ele><time>2026-04-25T16:57:23.113Z</time></trkpt><trkpt lat="44.6927983" lon="8.0898667"><ele>412.75</ele><time>2026-04-25T16:57:24.113Z</time></trkpt><trkpt lat="44.6929367" lon="8.089795"><ele>408.5</ele><time>2026-04-25T16:57:25.113Z</time></trkpt><trkpt lat="44.6930767" lon="8.0897483"><ele>404.25</ele><time>2026-04-25T16:57:26.113Z</time></trkpt><trkpt lat="44.6932217" lon="8.089755"><ele>400.0</ele><time>2026-04-25T16:57:27.113Z</time></trkpt><trkpt lat="44.693345" lon="8.0898"><ele>400.0</ele><time>2026-04-25T16:57:28.113Z</time></trkpt><trkpt lat="44.6934583" lon="8.089895"><ele>400.0</ele><time>2026-04-25T16:57:29.113Z</time></trkpt><trkpt lat="44.693565" lon="8.090025"><ele>400.0</ele><time>2026-04-25T16:57:30.113Z</time></trkpt><trkpt lat="44.6936583" lon="8.0901917"><ele>400.0</ele><time>2026-04-25T16:57:31.113Z</time></trkpt><trkpt lat="44.6937483" lon="8.0903517"><ele>399.4</ele><time>2026-04-25T16:57:32.113Z</time></trkpt><trkpt lat="44.6938283" lon="8.0905083"><ele>398.8</ele><time>2026-04-25T16:57:33.113Z</time></trkpt><trkpt lat="44.693905" lon="8.0906433"><ele>398.20000000000005</ele><time>2026-04-25T16:57:34.113Z</time></trkpt><trkpt lat="44.6939667" lon="8.0907517"><ele>397.6</ele><time>2026-04-25T16:57:35.113Z</time></trkpt><trkpt lat="44.69403" lon="8.0908367"><ele>397.0</ele><time>2026-04-25T16:57:36.113Z</time></trkpt><trkpt lat="44.69409" lon="8.0908967"><ele>397.0</ele><time>2026-04-25T16:57:37.113Z</time></trkpt><trkpt lat="44.6942033" lon="8.09087"><ele>397.0</ele><time>2026-04-25T16:57:39.113Z</time></trkpt><trkpt lat="44.69425" lon="8.0907733"><ele>397.0</ele><time>2026-04-25T16:57:40.113Z</time></trkpt><trkpt lat="44.6942633" lon="8.0906417"><ele>397.0</ele><time>2026-04-25T16:57:41.113Z</time></trkpt><trkpt lat="44.6942383" lon="8.0904833"><ele>397.0</ele><time>2026-04-25T16:57:42.113Z</time></trkpt><trkpt lat="44.6941983" lon="8.0903083"><ele>396.75</ele><time>2026-04-25T16:57:43.113Z</time></trkpt><trkpt lat="44.6941783" lon="8.09013"><ele>396.5</ele><time>2026-04-25T16:57:44.113Z</time></trkpt><trkpt lat="44.6941867" lon="8.0899483"><ele>396.25</ele><time>2026-04-25T16:57:45.113Z</time></trkpt><trkpt lat="44.69422" lon="8.0897783"><ele>396.0</ele><time>2026-04-25T16:57:46.113Z</time></trkpt><trkpt lat="44.6942783" lon="8.089605"><ele>396.0</ele><time>2026-04-25T16:57:47.113Z</time></trkpt><trkpt lat="44.69435" lon="8.089445"><ele>396.0</ele><time>2026-04-25T16:57:48.113Z</time></trkpt><trkpt lat="44.6944217" lon="8.0892783"><ele>396.0</ele><time>2026-04-25T16:57:49.113Z</time></trkpt><trkpt lat="44.6944933" lon="8.0891117"><ele>396.0</ele><time>2026-04-25T16:57:50.113Z</time></trkpt><trkpt lat="44.6945683" lon="8.0889567"><ele>392.5</ele><time>2026-04-25T16:57:51.113Z</time></trkpt><trkpt lat="44.6946433" lon="8.0888117"><ele>389.0</ele><time>2026-04-25T16:57:52.113Z</time></trkpt><trkpt lat="44.69473" lon="8.0886567"><ele>385.5</ele><time>2026-04-25T16:57:53.113Z</time></trkpt><trkpt lat="44.694815" lon="8.0885117"><ele>382.0</ele><time>2026-04-25T16:57:54.113Z</time></trkpt><trkpt lat="44.6949017" lon="8.0883717"><ele>381.75</ele><time>2026-04-25T16:57:55.113Z</time></trkpt><trkpt lat="44.69499" lon="8.0882467"><ele>381.5</ele><time>2026-04-25T16:57:56.114Z</time></trkpt><trkpt lat="44.6950933" lon="8.0881217"><ele>381.25</ele><time>2026-04-25T16:57:57.113Z</time></trkpt><trkpt lat="44.6952117" lon="8.0879933"><ele>381.0</ele><time>2026-04-25T16:57:58.113Z</time></trkpt><trkpt lat="44.69533" lon="8.0878633"><ele>378.3333333333333</ele><time>2026-04-25T16:57:59.113Z</time></trkpt><trkpt lat="44.69545" lon="8.0877383"><ele>375.66666666666663</ele><time>2026-04-25T16:58:00.113Z</time></trkpt><trkpt lat="44.69558" lon="8.0876"><ele>373.0</ele><time>2026-04-25T16:58:01.113Z</time></trkpt><trkpt lat="44.695715" lon="8.0874717"><ele>372.3333333333333</ele><time>2026-04-25T16:58:02.113Z</time></trkpt><trkpt lat="44.6958417" lon="8.087335"><ele>371.6666666666667</ele><time>2026-04-25T16:58:03.113Z</time></trkpt><trkpt lat="44.6959733" lon="8.0871933"><ele>371.0</ele><time>2026-04-25T16:58:04.113Z</time></trkpt><trkpt lat="44.6961" lon="8.0870667"><ele>371.0</ele><time>2026-04-25T16:58:05.113Z</time></trkpt><trkpt lat="44.696235" lon="8.0869583"><ele>371.0</ele><time>2026-04-25T16:58:06.113Z</time></trkpt><trkpt lat="44.69636" lon="8.0868317"><ele>371.0</ele><time>2026-04-25T16:58:07.113Z</time></trkpt><trkpt lat="44.6964883" lon="8.0867083"><ele>370.6666666666667</ele><time>2026-04-25T16:58:08.113Z</time></trkpt><trkpt lat="44.6966217" lon="8.0865917"><ele>370.3333333333333</ele><time>2026-04-25T16:58:09.113Z</time></trkpt><trkpt lat="44.6967583" lon="8.0864767"><ele>370.0</ele><time>2026-04-25T16:58:10.113Z</time></trkpt><trkpt lat="44.6969017" lon="8.0863783"><ele>372.0</ele><time>2026-04-25T16:58:11.113Z</time></trkpt><trkpt lat="44.697045" lon="8.0862883"><ele>374.0</ele><time>2026-04-25T16:58:12.113Z</time></trkpt><trkpt lat="44.69719" lon="8.086195"><ele>376.0</ele><time>2026-04-25T16:58:13.113Z</time></trkpt><trkpt lat="44.6973383" lon="8.08611"><ele>376.0</ele><time>2026-04-25T16:58:14.113Z</time></trkpt><trkpt lat="44.6974883" lon="8.086015"><ele>376.0</ele><time>2026-04-25T16:58:15.113Z</time></trkpt><trkpt lat="44.69763" lon="8.0859317"><ele>376.0</ele><time>2026-04-25T16:58:16.113Z</time></trkpt><trkpt lat="44.69778" lon="8.085865"><ele>374.25</ele><time>2026-04-25T16:58:17.113Z</time></trkpt><trkpt lat="44.69792" lon="8.085805"><ele>372.5</ele><time>2026-04-25T16:58:18.113Z</time></trkpt><trkpt lat="44.69806" lon="8.08576"><ele>370.75</ele><time>2026-04-25T16:58:19.113Z</time></trkpt><trkpt lat="44.698215" lon="8.0857117"><ele>369.0</ele><time>2026-04-25T16:58:20.113Z</time></trkpt><trkpt lat="44.6983833" lon="8.085665"><ele>369.0</ele><time>2026-04-25T16:58:21.113Z</time></trkpt><trkpt lat="44.6985533" lon="8.0855983"><ele>369.0</ele><time>2026-04-25T16:58:22.113Z</time></trkpt><trkpt lat="44.6987317" lon="8.0855383"><ele>369.0</ele><time>2026-04-25T16:58:23.113Z</time></trkpt><trkpt lat="44.69891" lon="8.0854817"><ele>367.0</ele><time>2026-04-25T16:58:24.113Z</time></trkpt><trkpt lat="44.699085" lon="8.0854367"><ele>365.0</ele><time>2026-04-25T16:58:25.113Z</time></trkpt><trkpt lat="44.6992583" lon="8.08538"><ele>363.0</ele><time>2026-04-25T16:58:26.113Z</time></trkpt><trkpt lat="44.69943" lon="8.0853267"><ele>362.6666666666667</ele><time>2026-04-25T16:58:27.113Z</time></trkpt><trkpt lat="44.699595" lon="8.085275"><ele>362.33333333333337</ele><time>2026-04-25T16:58:28.113Z</time></trkpt><trkpt lat="44.699765" lon="8.0852317"><ele>362.0</ele><time>2026-04-25T16:58:29.113Z</time></trkpt><trkpt lat="44.69992" lon="8.0851833"><ele>362.0</ele><time>2026-04-25T16:58:30.113Z</time></trkpt><trkpt lat="44.7000667" lon="8.085135"><ele>362.0</ele><time>2026-04-25T16:58:31.113Z</time></trkpt><trkpt lat="44.7002033" lon="8.085075"><ele>362.0</ele><time>2026-04-25T16:58:32.113Z</time></trkpt><trkpt lat="44.70032" lon="8.0849917"><ele>362.0</ele><time>2026-04-25T16:58:33.113Z</time></trkpt><trkpt lat="44.7004233" lon="8.0848633"><ele>362.6666666666667</ele><time>2026-04-25T16:58:34.113Z</time></trkpt><trkpt lat="44.7005033" lon="8.08469"><ele>363.3333333333333</ele><time>2026-04-25T16:58:35.113Z</time></trkpt><trkpt lat="44.7005733" lon="8.08448"><ele>364.0</ele><time>2026-04-25T16:58:36.113Z</time></trkpt><trkpt lat="44.700655" lon="8.0842467"><ele>359.0</ele><time>2026-04-25T16:58:37.113Z</time></trkpt><trkpt lat="44.7007317" lon="8.08402"><ele>354.0</ele><time>2026-04-25T16:58:38.113Z</time></trkpt><trkpt lat="44.70081" lon="8.08378"><ele>349.0</ele><time>2026-04-25T16:58:39.113Z</time></trkpt><trkpt lat="44.7008917" lon="8.083545"><ele>349.0</ele><time>2026-04-25T16:58:40.113Z</time></trkpt><trkpt lat="44.700975" lon="8.0833183"><ele>349.0</ele><time>2026-04-25T16:58:41.113Z</time></trkpt><trkpt lat="44.7010583" lon="8.0830967"><ele>349.0</ele><time>2026-04-25T16:58:42.113Z</time></trkpt><trkpt lat="44.7011433" lon="8.0828733"><ele>347.3333333333333</ele><time>2026-04-25T16:58:43.113Z</time></trkpt><trkpt lat="44.70122" lon="8.0826583"><ele>345.6666666666667</ele><time>2026-04-25T16:58:44.113Z</time></trkpt><trkpt lat="44.7012967" lon="8.0824483"><ele>344.0</ele><time>2026-04-25T16:58:45.113Z</time></trkpt><trkpt lat="44.70137" lon="8.0822417"><ele>344.0</ele><time>2026-04-25T16:58:46.113Z</time></trkpt><trkpt lat="44.7014483" lon="8.08205"><ele>344.0</ele><time>2026-04-25T16:58:47.113Z</time></trkpt><trkpt lat="44.7015283" lon="8.08187"><ele>344.0</ele><time>2026-04-25T16:58:48.113Z</time></trkpt><trkpt lat="44.70162" lon="8.0817033"><ele>344.0</ele><time>2026-04-25T16:58:49.113Z</time></trkpt><trkpt lat="44.7017317" lon="8.081545"><ele>344.0</ele><time>2026-04-25T16:58:50.113Z</time></trkpt><trkpt lat="44.7018467" lon="8.0814"><ele>344.0</ele><time>2026-04-25T16:58:51.113Z</time></trkpt><trkpt lat="44.7019667" lon="8.0812517"><ele>344.0</ele><time>2026-04-25T16:58:52.113Z</time></trkpt><trkpt lat="44.70209" lon="8.0810917"><ele>344.0</ele><time>2026-04-25T16:58:53.113Z</time></trkpt><trkpt lat="44.7022183" lon="8.080935"><ele>344.0</ele><time>2026-04-25T16:58:54.113Z</time></trkpt><trkpt lat="44.702345" lon="8.080785"><ele>339.0</ele><time>2026-04-25T16:58:55.113Z</time></trkpt><trkpt lat="44.7024583" lon="8.080625"><ele>334.0</ele><time>2026-04-25T16:58:56.113Z</time></trkpt><trkpt lat="44.7025567" lon="8.08046"><ele>329.0</ele><time>2026-04-25T16:58:57.113Z</time></trkpt><trkpt lat="44.7026517" lon="8.080275"><ele>329.0</ele><time>2026-04-25T16:58:58.113Z</time></trkpt><trkpt lat="44.7027217" lon="8.08008"><ele>329.0</ele><time>2026-04-25T16:58:59.113Z</time></trkpt><trkpt lat="44.7027733" lon="8.0799083"><ele>329.0</ele><time>2026-04-25T16:59:00.113Z</time></trkpt><trkpt lat="44.7028417" lon="8.0797483"><ele>329.0</ele><time>2026-04-25T16:59:01.113Z</time></trkpt><trkpt lat="44.7029317" lon="8.0796167"><ele>328.25</ele><time>2026-04-25T16:59:02.113Z</time></trkpt><trkpt lat="44.7030317" lon="8.07951"><ele>327.5</ele><time>2026-04-25T16:59:03.113Z</time></trkpt><trkpt lat="44.7031567" lon="8.0794417"><ele>326.75</ele><time>2026-04-25T16:59:04.113Z</time></trkpt><trkpt lat="44.7032817" lon="8.0794233"><ele>326.0</ele><time>2026-04-25T16:59:05.113Z</time></trkpt><trkpt lat="44.7034083" lon="8.0794317"><ele>326.0</ele><time>2026-04-25T16:59:06.113Z</time></trkpt><trkpt lat="44.7035317" lon="8.079495"><ele>326.0</ele><time>2026-04-25T16:59:07.113Z</time></trkpt><trkpt lat="44.7036367" lon="8.0795917"><ele>326.0</ele><time>2026-04-25T16:59:08.113Z</time></trkpt><trkpt lat="44.7037217" lon="8.0797283"><ele>326.0</ele><time>2026-04-25T16:59:09.113Z</time></trkpt><trkpt lat="44.7037817" lon="8.0798917"><ele>323.5</ele><time>2026-04-25T16:59:10.113Z</time></trkpt><trkpt lat="44.703805" lon="8.0800633"><ele>321.0</ele><time>2026-04-25T16:59:11.113Z</time></trkpt><trkpt lat="44.703815" lon="8.080225"><ele>318.5</ele><time>2026-04-25T16:59:12.113Z</time></trkpt><trkpt lat="44.7038117" lon="8.0804"><ele>316.0</ele><time>2026-04-25T16:59:13.113Z</time></trkpt><trkpt lat="44.7038117" lon="8.0805767"><ele>316.0</ele><time>2026-04-25T16:59:14.113Z</time></trkpt><trkpt lat="44.7038283" lon="8.0807517"><ele>316.0</ele><time>2026-04-25T16:59:15.113Z</time></trkpt><trkpt lat="44.7038617" lon="8.0809133"><ele>316.0</ele><time>2026-04-25T16:59:16.113Z</time></trkpt><trkpt lat="44.7039233" lon="8.0810833"><ele>316.0</ele><time>2026-04-25T16:59:17.113Z</time></trkpt><trkpt lat="44.70401" lon="8.0812283"><ele>316.75</ele><time>2026-04-25T16:59:18.113Z</time></trkpt><trkpt lat="44.7041033" lon="8.0813733"><ele>317.5</ele><time>2026-04-25T16:59:19.113Z</time></trkpt><trkpt lat="44.7042067" lon="8.081505"><ele>318.25</ele><time>2026-04-25T16:59:20.113Z</time></trkpt><trkpt lat="44.7043067" lon="8.08163"><ele>319.0</ele><time>2026-04-25T16:59:21.113Z</time></trkpt><trkpt lat="44.7044067" lon="8.0817567"><ele>316.25</ele><time>2026-04-25T16:59:22.113Z</time></trkpt><trkpt lat="44.7045" lon="8.0818717"><ele>313.5</ele><time>2026-04-25T16:59:23.113Z</time></trkpt><trkpt lat="44.7045867" lon="8.0819717"><ele>310.75</ele><time>2026-04-25T16:59:24.113Z</time></trkpt><trkpt lat="44.704675" lon="8.082065"><ele>308.0</ele><time>2026-04-25T16:59:25.113Z</time></trkpt><trkpt lat="44.7047617" lon="8.08215"><ele>308.0</ele><time>2026-04-25T16:59:26.113Z</time></trkpt><trkpt lat="44.7048483" lon="8.0822317"><ele>308.0</ele><time>2026-04-25T16:59:27.113Z</time></trkpt><trkpt lat="44.704935" lon="8.0822967"><ele>308.0</ele><time>2026-04-25T16:59:28.113Z</time></trkpt><trkpt lat="44.7049967" lon="8.082365"><ele>308.0</ele><time>2026-04-25T16:59:29.113Z</time></trkpt><trkpt lat="44.7050533" lon="8.0824333"><ele>308.0</ele><time>2026-04-25T16:59:30.113Z</time></trkpt><trkpt lat="44.705115" lon="8.0825"><ele>308.0</ele><time>2026-04-25T16:59:31.113Z</time></trkpt><trkpt lat="44.70518" lon="8.08258"><ele>308.2</ele><time>2026-04-25T16:59:32.113Z</time></trkpt><trkpt lat="44.7052467" lon="8.08267"><ele>308.4</ele><time>2026-04-25T16:59:33.113Z</time></trkpt><trkpt lat="44.705315" lon="8.0827767"><ele>308.59999999999997</ele><time>2026-04-25T16:59:34.113Z</time></trkpt><trkpt lat="44.7053883" lon="8.0828833"><ele>308.8</ele><time>2026-04-25T16:59:35.113Z</time></trkpt><trkpt lat="44.705455" lon="8.0830067"><ele>309.0</ele><time>2026-04-25T16:59:36.113Z</time></trkpt><trkpt lat="44.7055317" lon="8.0831317"><ele>309.0</ele><time>2026-04-25T16:59:37.113Z</time></trkpt><trkpt lat="44.705605" lon="8.08326"><ele>309.0</ele><time>2026-04-25T16:59:38.113Z</time></trkpt><trkpt lat="44.7056717" lon="8.0833917"><ele>309.0</ele><time>2026-04-25T16:59:39.113Z</time></trkpt><trkpt lat="44.7057283" lon="8.0835333"><ele>309.0</ele><time>2026-04-25T16:59:40.113Z</time></trkpt><trkpt lat="44.70579" lon="8.0836633"><ele>310.59999999999997</ele><time>2026-04-25T16:59:41.113Z</time></trkpt><trkpt lat="44.7058417" lon="8.0837983"><ele>312.2</ele><time>2026-04-25T16:59:42.113Z</time></trkpt><trkpt lat="44.70589" lon="8.083925"><ele>313.79999999999995</ele><time>2026-04-25T16:59:43.113Z</time></trkpt><trkpt lat="44.7059433" lon="8.0840417"><ele>315.4</ele><time>2026-04-25T16:59:44.113Z</time></trkpt><trkpt lat="44.70599" lon="8.0841533"><ele>317.0</ele><time>2026-04-25T16:59:45.113Z</time></trkpt><trkpt lat="44.7060417" lon="8.0842783"><ele>313.25</ele><time>2026-04-25T16:59:46.113Z</time></trkpt><trkpt lat="44.7060867" lon="8.08443"><ele>309.5</ele><time>2026-04-25T16:59:47.113Z</time></trkpt><trkpt lat="44.7061383" lon="8.0845783"><ele>305.75</ele><time>2026-04-25T16:59:48.113Z</time></trkpt><trkpt lat="44.70619" lon="8.0847433"><ele>302.0</ele><time>2026-04-25T16:59:49.113Z</time></trkpt><trkpt lat="44.7062517" lon="8.0849033"><ele>303.75</ele><time>2026-04-25T16:59:50.113Z</time></trkpt><trkpt lat="44.7063083" lon="8.08507"><ele>305.5</ele><time>2026-04-25T16:59:51.113Z</time></trkpt><trkpt lat="44.70637" lon="8.0852433"><ele>307.25</ele><time>2026-04-25T16:59:52.113Z</time></trkpt><trkpt lat="44.706435" lon="8.0854233"><ele>309.0</ele><time>2026-04-25T16:59:53.113Z</time></trkpt><trkpt lat="44.7065033" lon="8.0856"><ele>311.25</ele><time>2026-04-25T16:59:54.113Z</time></trkpt><trkpt lat="44.7065833" lon="8.0857717"><ele>313.5</ele><time>2026-04-25T16:59:55.113Z</time></trkpt><trkpt lat="44.7066767" lon="8.08592"><ele>315.75</ele><time>2026-04-25T16:59:56.113Z</time></trkpt><trkpt lat="44.7067717" lon="8.086065"><ele>318.0</ele><time>2026-04-25T16:59:57.113Z</time></trkpt><trkpt lat="44.7068617" lon="8.0862067"><ele>317.75</ele><time>2026-04-25T16:59:58.113Z</time></trkpt><trkpt lat="44.7069583" lon="8.0863467"><ele>317.5</ele><time>2026-04-25T16:59:59.113Z</time></trkpt><trkpt lat="44.7070567" lon="8.0864733"><ele>317.25</ele><time>2026-04-25T17:00:00.113Z</time></trkpt><trkpt lat="44.70716" lon="8.0866033"><ele>317.0</ele><time>2026-04-25T17:00:01.113Z</time></trkpt><trkpt lat="44.7072567" lon="8.0867333"><ele>317.0</ele><time>2026-04-25T17:00:02.113Z</time></trkpt><trkpt lat="44.707335" lon="8.0868483"><ele>317.0</ele><time>2026-04-25T17:00:03.113Z</time></trkpt><trkpt lat="44.7073767" lon="8.0869817"><ele>317.0</ele><time>2026-04-25T17:00:04.113Z</time></trkpt><trkpt lat="44.707385" lon="8.087125"><ele>317.0</ele><time>2026-04-25T17:00:05.113Z</time></trkpt><trkpt lat="44.7073567" lon="8.08727"><ele>317.0</ele><time>2026-04-25T17:00:06.113Z</time></trkpt><trkpt lat="44.707295" lon="8.087415"><ele>317.75</ele><time>2026-04-25T17:00:07.113Z</time></trkpt><trkpt lat="44.707225" lon="8.0875617"><ele>318.5</ele><time>2026-04-25T17:00:08.113Z</time></trkpt><trkpt lat="44.70716" lon="8.0877033"><ele>319.25</ele><time>2026-04-25T17:00:09.113Z</time></trkpt><trkpt lat="44.70711" lon="8.0878483"><ele>320.0</ele><time>2026-04-25T17:00:10.113Z</time></trkpt><trkpt lat="44.7070833" lon="8.0880067"><ele>320.0</ele><time>2026-04-25T17:00:11.113Z</time></trkpt><trkpt lat="44.707075" lon="8.0881817"><ele>320.0</ele><time>2026-04-25T17:00:12.113Z</time></trkpt><trkpt lat="44.7071067" lon="8.0883583"><ele>320.0</ele><time>2026-04-25T17:00:13.113Z</time></trkpt><trkpt lat="44.7071783" lon="8.088515"><ele>320.0</ele><time>2026-04-25T17:00:14.113Z</time></trkpt><trkpt lat="44.7072717" lon="8.088655"><ele>320.75</ele><time>2026-04-25T17:00:15.113Z</time></trkpt><trkpt lat="44.7073633" lon="8.0888017"><ele>321.5</ele><time>2026-04-25T17:00:16.113Z</time></trkpt><trkpt lat="44.70745" lon="8.088945"><ele>322.25</ele><time>2026-04-25T17:00:17.113Z</time></trkpt><trkpt lat="44.7075317" lon="8.0890783"><ele>323.0</ele><time>2026-04-25T17:00:18.113Z</time></trkpt><trkpt lat="44.7076117" lon="8.0892117"><ele>323.75</ele><time>2026-04-25T17:00:19.113Z</time></trkpt><trkpt lat="44.707715" lon="8.0893167"><ele>324.5</ele><time>2026-04-25T17:00:20.113Z</time></trkpt><trkpt lat="44.7078333" lon="8.0894117"><ele>325.25</ele><time>2026-04-25T17:00:21.113Z</time></trkpt><trkpt lat="44.7079583" lon="8.0894917"><ele>326.0</ele><time>2026-04-25T17:00:22.113Z</time></trkpt><trkpt lat="44.7080817" lon="8.0895733"><ele>326.0</ele><time>2026-04-25T17:00:23.113Z</time></trkpt><trkpt lat="44.7082117" lon="8.0896517"><ele>326.0</ele><time>2026-04-25T17:00:24.113Z</time></trkpt><trkpt lat="44.7083283" lon="8.0897617"><ele>326.0</ele><time>2026-04-25T17:00:25.113Z</time></trkpt><trkpt lat="44.708435" lon="8.08988"><ele>326.0</ele><time>2026-04-25T17:00:26.113Z</time></trkpt><trkpt lat="44.7085167" lon="8.0900133"><ele>324.5</ele><time>2026-04-25T17:00:27.113Z</time></trkpt><trkpt lat="44.708595" lon="8.090145"><ele>323.0</ele><time>2026-04-25T17:00:28.113Z</time></trkpt><trkpt lat="44.7086917" lon="8.0902617"><ele>321.5</ele><time>2026-04-25T17:00:29.113Z</time></trkpt><trkpt lat="44.708815" lon="8.0903433"><ele>320.0</ele><time>2026-04-25T17:00:30.113Z</time></trkpt><trkpt lat="44.7089317" lon="8.090415"><ele>320.0</ele><time>2026-04-25T17:00:31.113Z</time></trkpt><trkpt lat="44.7090483" lon="8.0904783"><ele>320.0</ele><time>2026-04-25T17:00:32.113Z</time></trkpt><trkpt lat="44.7091567" lon="8.090535"><ele>320.0</ele><time>2026-04-25T17:00:33.113Z</time></trkpt><trkpt lat="44.709255" lon="8.0905883"><ele>320.0</ele><time>2026-04-25T17:00:34.113Z</time></trkpt><trkpt lat="44.7093367" lon="8.0906333"><ele>320.0</ele><time>2026-04-25T17:00:35.113Z</time></trkpt><trkpt lat="44.7094233" lon="8.0906583"><ele>316.6</ele><time>2026-04-25T17:00:36.113Z</time></trkpt><trkpt lat="44.7095033" lon="8.0906567"><ele>313.2</ele><time>2026-04-25T17:00:37.113Z</time></trkpt><trkpt lat="44.709585" lon="8.0906467"><ele>309.8</ele><time>2026-04-25T17:00:38.113Z</time></trkpt><trkpt lat="44.70967" lon="8.0906533"><ele>306.4</ele><time>2026-04-25T17:00:39.113Z</time></trkpt><trkpt lat="44.7097683" lon="8.0906717"><ele>303.0</ele><time>2026-04-25T17:00:40.113Z</time></trkpt><trkpt lat="44.70988" lon="8.09071"><ele>303.25</ele><time>2026-04-25T17:00:41.113Z</time></trkpt><trkpt lat="44.709995" lon="8.0907667"><ele>303.5</ele><time>2026-04-25T17:00:42.113Z</time></trkpt><trkpt lat="44.7101133" lon="8.0908567"><ele>303.75</ele><time>2026-04-25T17:00:43.113Z</time></trkpt><trkpt lat="44.7102333" lon="8.0909583"><ele>304.0</ele><time>2026-04-25T17:00:44.113Z</time></trkpt><trkpt lat="44.7103633" lon="8.091055"><ele>304.0</ele><time>2026-04-25T17:00:45.113Z</time></trkpt><trkpt lat="44.7104933" lon="8.0911483"><ele>304.0</ele><time>2026-04-25T17:00:46.113Z</time></trkpt><trkpt lat="44.7106217" lon="8.0912267"><ele>304.0</ele><time>2026-04-25T17:00:47.113Z</time></trkpt><trkpt lat="44.7107567" lon="8.0913"><ele>304.0</ele><time>2026-04-25T17:00:48.113Z</time></trkpt><trkpt lat="44.7108867" lon="8.09134"><ele>304.0</ele><time>2026-04-25T17:00:49.113Z</time></trkpt><trkpt lat="44.71102" lon="8.091345"><ele>304.0</ele><time>2026-04-25T17:00:50.114Z</time></trkpt><trkpt lat="44.7111567" lon="8.091325"><ele>304.0</ele><time>2026-04-25T17:00:51.113Z</time></trkpt><trkpt lat="44.7113" lon="8.0912667"><ele>304.0</ele><time>2026-04-25T17:00:52.114Z</time></trkpt><trkpt lat="44.7114367" lon="8.0911817"><ele>305.0</ele><time>2026-04-25T17:00:53.113Z</time></trkpt><trkpt lat="44.7115667" lon="8.0910767"><ele>306.0</ele><time>2026-04-25T17:00:54.113Z</time></trkpt><trkpt lat="44.7117033" lon="8.09095"><ele>307.0</ele><time>2026-04-25T17:00:55.113Z</time></trkpt><trkpt lat="44.7118183" lon="8.0908067"><ele>306.3333333333333</ele><time>2026-04-25T17:00:56.113Z</time></trkpt><trkpt lat="44.7119183" lon="8.09065"><ele>305.6666666666667</ele><time>2026-04-25T17:00:57.113Z</time></trkpt><trkpt lat="44.7120117" lon="8.090475"><ele>305.0</ele><time>2026-04-25T17:00:58.113Z</time></trkpt><trkpt lat="44.7120967" lon="8.0903017"><ele>305.0</ele><time>2026-04-25T17:00:59.113Z</time></trkpt><trkpt lat="44.7121883" lon="8.0901283"><ele>305.0</ele><time>2026-04-25T17:01:00.113Z</time></trkpt><trkpt lat="44.7122833" lon="8.0899533"><ele>305.0</ele><time>2026-04-25T17:01:01.113Z</time></trkpt><trkpt lat="44.7123867" lon="8.0897817"><ele>303.33333333333337</ele><time>2026-04-25T17:01:02.113Z</time></trkpt><trkpt lat="44.7124967" lon="8.0896067"><ele>301.6666666666667</ele><time>2026-04-25T17:01:03.113Z</time></trkpt><trkpt lat="44.7125983" lon="8.0894383"><ele>300.0</ele><time>2026-04-25T17:01:04.113Z</time></trkpt><trkpt lat="44.71271" lon="8.0892783"><ele>297.6666666666667</ele><time>2026-04-25T17:01:05.113Z</time></trkpt><trkpt lat="44.712825" lon="8.0891117"><ele>295.33333333333337</ele><time>2026-04-25T17:01:06.113Z</time></trkpt><trkpt lat="44.7129267" lon="8.0889483"><ele>293.0</ele><time>2026-04-25T17:01:07.113Z</time></trkpt><trkpt lat="44.713025" lon="8.0887783"><ele>293.0</ele><time>2026-04-25T17:01:08.113Z</time></trkpt><trkpt lat="44.7131183" lon="8.088595"><ele>293.0</ele><time>2026-04-25T17:01:09.113Z</time></trkpt><trkpt lat="44.7132" lon="8.088405"><ele>293.0</ele><time>2026-04-25T17:01:10.113Z</time></trkpt><trkpt lat="44.7132733" lon="8.08821"><ele>291.6666666666667</ele><time>2026-04-25T17:01:11.113Z</time></trkpt><trkpt lat="44.71334" lon="8.0880083"><ele>290.3333333333333</ele><time>2026-04-25T17:01:12.113Z</time></trkpt><trkpt lat="44.71341" lon="8.0878083"><ele>289.0</ele><time>2026-04-25T17:01:13.113Z</time></trkpt><trkpt lat="44.71347" lon="8.0876167"><ele>288.3333333333333</ele><time>2026-04-25T17:01:14.113Z</time></trkpt><trkpt lat="44.7135317" lon="8.0874167"><ele>287.6666666666667</ele><time>2026-04-25T17:01:15.113Z</time></trkpt><trkpt lat="44.7136" lon="8.087215"><ele>287.0</ele><time>2026-04-25T17:01:16.113Z</time></trkpt><trkpt lat="44.7136767" lon="8.0870167"><ele>287.0</ele><time>2026-04-25T17:01:17.113Z</time></trkpt><trkpt lat="44.71376" lon="8.0868283"><ele>287.0</ele><time>2026-04-25T17:01:18.113Z</time></trkpt><trkpt lat="44.7138583" lon="8.0866483"><ele>287.0</ele><time>2026-04-25T17:01:19.113Z</time></trkpt><trkpt lat="44.71395" lon="8.0864733"><ele>288.25</ele><time>2026-04-25T17:01:20.113Z</time></trkpt><trkpt lat="44.7140233" lon="8.0863"><ele>289.5</ele><time>2026-04-25T17:01:21.113Z</time></trkpt><trkpt lat="44.7141" lon="8.0861233"><ele>290.75</ele><time>2026-04-25T17:01:22.113Z</time></trkpt><trkpt lat="44.714175" lon="8.0859433"><ele>292.0</ele><time>2026-04-25T17:01:23.113Z</time></trkpt><trkpt lat="44.7142567" lon="8.0857733"><ele>291.5</ele><time>2026-04-25T17:01:24.113Z</time></trkpt><trkpt lat="44.7143583" lon="8.0856183"><ele>291.0</ele><time>2026-04-25T17:01:25.113Z</time></trkpt><trkpt lat="44.7144633" lon="8.08548"><ele>290.5</ele><time>2026-04-25T17:01:26.113Z</time></trkpt><trkpt lat="44.7145783" lon="8.0853683"><ele>290.0</ele><time>2026-04-25T17:01:27.113Z</time></trkpt><trkpt lat="44.7147083" lon="8.0852767"><ele>290.25</ele><time>2026-04-25T17:01:28.113Z</time></trkpt><trkpt lat="44.7148483" lon="8.0852067"><ele>290.5</ele><time>2026-04-25T17:01:29.113Z</time></trkpt><trkpt lat="44.7149933" lon="8.08515"><ele>290.75</ele><time>2026-04-25T17:01:30.113Z</time></trkpt><trkpt lat="44.7151317" lon="8.08509"><ele>291.0</ele><time>2026-04-25T17:01:31.113Z</time></trkpt><trkpt lat="44.7152583" lon="8.0849967"><ele>291.25</ele><time>2026-04-25T17:01:32.113Z</time></trkpt><trkpt lat="44.7153583" lon="8.08487"><ele>291.5</ele><time>2026-04-25T17:01:33.113Z</time></trkpt><trkpt lat="44.7154667" lon="8.0847433"><ele>291.75</ele><time>2026-04-25T17:01:34.113Z</time></trkpt><trkpt lat="44.715585" lon="8.0846433"><ele>292.0</ele><time>2026-04-25T17:01:35.113Z</time></trkpt><trkpt lat="44.715715" lon="8.0845883"><ele>292.0</ele><time>2026-04-25T17:01:36.113Z</time></trkpt><trkpt lat="44.715865" lon="8.084585"><ele>292.0</ele><time>2026-04-25T17:01:37.113Z</time></trkpt><trkpt lat="44.7160067" lon="8.0846183"><ele>292.0</ele><time>2026-04-25T17:01:38.113Z</time></trkpt><trkpt lat="44.7161467" lon="8.0846967"><ele>292.0</ele><time>2026-04-25T17:01:39.113Z</time></trkpt><trkpt lat="44.71628" lon="8.0848"><ele>292.0</ele><time>2026-04-25T17:01:40.113Z</time></trkpt><trkpt lat="44.7164083" lon="8.084905"><ele>292.0</ele><time>2026-04-25T17:01:41.113Z</time></trkpt><trkpt lat="44.716555" lon="8.0849867"><ele>292.0</ele><time>2026-04-25T17:01:42.113Z</time></trkpt><trkpt lat="44.7167017" lon="8.08504"><ele>292.0</ele><time>2026-04-25T17:01:43.113Z</time></trkpt><trkpt lat="44.7168533" lon="8.0850617"><ele>292.0</ele><time>2026-04-25T17:01:44.113Z</time></trkpt><trkpt lat="44.717" lon="8.085055"><ele>292.0</ele><time>2026-04-25T17:01:45.113Z</time></trkpt><trkpt lat="44.7171417" lon="8.0850183"><ele>292.0</ele><time>2026-04-25T17:01:46.113Z</time></trkpt><trkpt lat="44.7172917" lon="8.0849667"><ele>291.3333333333333</ele><time>2026-04-25T17:01:47.113Z</time></trkpt><trkpt lat="44.7174483" lon="8.0848967"><ele>290.6666666666667</ele><time>2026-04-25T17:01:48.113Z</time></trkpt><trkpt lat="44.7176083" lon="8.08485"><ele>290.0</ele><time>2026-04-25T17:01:49.113Z</time></trkpt><trkpt lat="44.717765" lon="8.0848083"><ele>286.33333333333337</ele><time>2026-04-25T17:01:50.113Z</time></trkpt><trkpt lat="44.717925" lon="8.0847833"><ele>282.6666666666667</ele><time>2026-04-25T17:01:51.113Z</time></trkpt><trkpt lat="44.7180833" lon="8.0847733"><ele>279.0</ele><time>2026-04-25T17:01:52.113Z</time></trkpt><trkpt lat="44.7182333" lon="8.084765"><ele>279.0</ele><time>2026-04-25T17:01:53.113Z</time></trkpt><trkpt lat="44.718385" lon="8.084755"><ele>279.0</ele><time>2026-04-25T17:01:54.113Z</time></trkpt><trkpt lat="44.71853" lon="8.08474"><ele>279.0</ele><time>2026-04-25T17:01:55.113Z</time></trkpt><trkpt lat="44.718675" lon="8.0847267"><ele>279.0</ele><time>2026-04-25T17:01:56.113Z</time></trkpt><trkpt lat="44.7188233" lon="8.0847183"><ele>277.5</ele><time>2026-04-25T17:01:57.113Z</time></trkpt><trkpt lat="44.718965" lon="8.0846983"><ele>276.0</ele><time>2026-04-25T17:01:58.113Z</time></trkpt><trkpt lat="44.7191083" lon="8.084685"><ele>274.5</ele><time>2026-04-25T17:01:59.113Z</time></trkpt><trkpt lat="44.7192567" lon="8.0846583"><ele>273.0</ele><time>2026-04-25T17:02:00.113Z</time></trkpt><trkpt lat="44.71941" lon="8.084625"><ele>273.0</ele><time>2026-04-25T17:02:01.113Z</time></trkpt><trkpt lat="44.7195517" lon="8.0845867"><ele>273.0</ele><time>2026-04-25T17:02:02.113Z</time></trkpt><trkpt lat="44.7197017" lon="8.0845367"><ele>273.0</ele><time>2026-04-25T17:02:03.113Z</time></trkpt><trkpt lat="44.71984" lon="8.08448"><ele>273.0</ele><time>2026-04-25T17:02:04.113Z</time></trkpt><trkpt lat="44.7199767" lon="8.0844017"><ele>273.0</ele><time>2026-04-25T17:02:05.113Z</time></trkpt><trkpt lat="44.7200983" lon="8.0843167"><ele>273.0</ele><time>2026-04-25T17:02:06.113Z</time></trkpt><trkpt lat="44.7202017" lon="8.0842233"><ele>273.0</ele><time>2026-04-25T17:02:07.113Z</time></trkpt><trkpt lat="44.7202917" lon="8.0841017"><ele>273.0</ele><time>2026-04-25T17:02:08.113Z</time></trkpt><trkpt lat="44.72039" lon="8.0839683"><ele>270.75</ele><time>2026-04-25T17:02:09.113Z</time></trkpt><trkpt lat="44.7204783" lon="8.0838567"><ele>268.5</ele><time>2026-04-25T17:02:10.113Z</time></trkpt><trkpt lat="44.7205833" lon="8.0837867"><ele>266.25</ele><time>2026-04-25T17:02:11.113Z</time></trkpt><trkpt lat="44.7206983" lon="8.08374"><ele>264.0</ele><time>2026-04-25T17:02:12.113Z</time></trkpt><trkpt lat="44.7208233" lon="8.0837267"><ele>264.0</ele><time>2026-04-25T17:02:13.113Z</time></trkpt><trkpt lat="44.72096" lon="8.0837383"><ele>264.0</ele><time>2026-04-25T17:02:14.113Z</time></trkpt><trkpt lat="44.7211033" lon="8.0837733"><ele>264.0</ele><time>2026-04-25T17:02:15.113Z</time></trkpt><trkpt lat="44.72124" lon="8.0837967"><ele>264.0</ele><time>2026-04-25T17:02:16.113Z</time></trkpt><trkpt lat="44.721375" lon="8.08382"><ele>263.2</ele><time>2026-04-25T17:02:17.113Z</time></trkpt><trkpt lat="44.7214967" lon="8.0838667"><ele>262.4</ele><time>2026-04-25T17:02:18.113Z</time></trkpt><trkpt lat="44.7216133" lon="8.0839033"><ele>261.6</ele><time>2026-04-25T17:02:19.113Z</time></trkpt><trkpt lat="44.7217217" lon="8.08394"><ele>260.8</ele><time>2026-04-25T17:02:20.113Z</time></trkpt><trkpt lat="44.7218067" lon="8.0839617"><ele>260.0</ele><time>2026-04-25T17:02:21.113Z</time></trkpt><trkpt lat="44.721875" lon="8.083975"><ele>259.6</ele><time>2026-04-25T17:02:22.113Z</time></trkpt><trkpt lat="44.7219533" lon="8.0839783"><ele>259.2</ele><time>2026-04-25T17:02:23.113Z</time></trkpt><trkpt lat="44.7220333" lon="8.08397"><ele>258.8</ele><time>2026-04-25T17:02:24.113Z</time></trkpt><trkpt lat="44.7221167" lon="8.08394"><ele>258.4</ele><time>2026-04-25T17:02:25.113Z</time></trkpt><trkpt lat="44.7222133" lon="8.083895"><ele>258.0</ele><time>2026-04-25T17:02:26.113Z</time></trkpt><trkpt lat="44.72232" lon="8.0838333"><ele>258.0</ele><time>2026-04-25T17:02:27.113Z</time></trkpt><trkpt lat="44.7224267" lon="8.083775"><ele>258.0</ele><time>2026-04-25T17:02:28.113Z</time></trkpt><trkpt lat="44.72254" lon="8.0837083"><ele>258.0</ele><time>2026-04-25T17:02:29.113Z</time></trkpt><trkpt lat="44.7226567" lon="8.0836367"><ele>258.0</ele><time>2026-04-25T17:02:30.113Z</time></trkpt><trkpt lat="44.7227867" lon="8.08357"><ele>260.6666666666667</ele><time>2026-04-25T17:02:31.113Z</time></trkpt><trkpt lat="44.7229317" lon="8.0835183"><ele>263.33333333333337</ele><time>2026-04-25T17:02:32.113Z</time></trkpt><trkpt lat="44.723085" lon="8.0835"><ele>266.0</ele><time>2026-04-25T17:02:33.113Z</time></trkpt><trkpt lat="44.723235" lon="8.0835"><ele>266.0</ele><time>2026-04-25T17:02:34.113Z</time></trkpt><trkpt lat="44.7233717" lon="8.08353"><ele>266.0</ele><time>2026-04-25T17:02:35.113Z</time></trkpt><trkpt lat="44.7235083" lon="8.0836033"><ele>266.0</ele><time>2026-04-25T17:02:36.113Z</time></trkpt><trkpt lat="44.7236417" lon="8.0836883"><ele>266.0</ele><time>2026-04-25T17:02:37.113Z</time></trkpt><trkpt lat="44.7237683" lon="8.0837767"><ele>266.25</ele><time>2026-04-25T17:02:38.113Z</time></trkpt><trkpt lat="44.7239033" lon="8.0838617"><ele>266.5</ele><time>2026-04-25T17:02:39.113Z</time></trkpt><trkpt lat="44.7240417" lon="8.08394"><ele>266.75</ele><time>2026-04-25T17:02:40.113Z</time></trkpt><trkpt lat="44.7241783" lon="8.084025"><ele>267.0</ele><time>2026-04-25T17:02:41.113Z</time></trkpt><trkpt lat="44.7243133" lon="8.0841067"><ele>268.3333333333333</ele><time>2026-04-25T17:02:42.113Z</time></trkpt><trkpt lat="44.7244533" lon="8.0841883"><ele>269.66666666666663</ele><time>2026-04-25T17:02:43.113Z</time></trkpt><trkpt lat="44.7246017" lon="8.0842583"><ele>271.0</ele><time>2026-04-25T17:02:44.113Z</time></trkpt><trkpt lat="44.7247583" lon="8.0843183"><ele>271.0</ele><time>2026-04-25T17:02:45.113Z</time></trkpt><trkpt lat="44.7249267" lon="8.08437"><ele>271.0</ele><time>2026-04-25T17:02:46.113Z</time></trkpt><trkpt lat="44.7250883" lon="8.0844283"><ele>271.0</ele><time>2026-04-25T17:02:47.113Z</time></trkpt><trkpt lat="44.7252483" lon="8.084475"><ele>268.0</ele><time>2026-04-25T17:02:48.113Z</time></trkpt><trkpt lat="44.725405" lon="8.0845267"><ele>265.0</ele><time>2026-04-25T17:02:49.113Z</time></trkpt><trkpt lat="44.7255533" lon="8.0845933"><ele>262.0</ele><time>2026-04-25T17:02:50.113Z</time></trkpt><trkpt lat="44.7256783" lon="8.0846633"><ele>262.0</ele><time>2026-04-25T17:02:51.113Z</time></trkpt><trkpt lat="44.72581" lon="8.0847433"><ele>262.0</ele><time>2026-04-25T17:02:52.113Z</time></trkpt><trkpt lat="44.7259467" lon="8.084805"><ele>262.0</ele><time>2026-04-25T17:02:53.113Z</time></trkpt><trkpt lat="44.7260817" lon="8.084865"><ele>262.0</ele><time>2026-04-25T17:02:54.113Z</time></trkpt><trkpt lat="44.726215" lon="8.0849217"><ele>262.0</ele><time>2026-04-25T17:02:55.113Z</time></trkpt><trkpt lat="44.7263517" lon="8.08499"><ele>262.0</ele><time>2026-04-25T17:02:56.113Z</time></trkpt><trkpt lat="44.7264867" lon="8.0850667"><ele>262.0</ele><time>2026-04-25T17:02:57.113Z</time></trkpt><trkpt lat="44.7266283" lon="8.0851467"><ele>262.0</ele><time>2026-04-25T17:02:58.113Z</time></trkpt><trkpt lat="44.726775" lon="8.0852167"><ele>261.0</ele><time>2026-04-25T17:02:59.113Z</time></trkpt><trkpt lat="44.7269267" lon="8.08527"><ele>260.0</ele><time>2026-04-25T17:03:00.114Z</time></trkpt><trkpt lat="44.7270717" lon="8.085335"><ele>259.0</ele><time>2026-04-25T17:03:01.113Z</time></trkpt><trkpt lat="44.7272083" lon="8.0853967"><ele>259.0</ele><time>2026-04-25T17:03:02.113Z</time></trkpt><trkpt lat="44.7273417" lon="8.0854667"><ele>259.0</ele><time>2026-04-25T17:03:03.113Z</time></trkpt><trkpt lat="44.727485" lon="8.0855283"><ele>259.0</ele><time>2026-04-25T17:03:04.113Z</time></trkpt><trkpt lat="44.72763" lon="8.0856033"><ele>259.0</ele><time>2026-04-25T17:03:05.113Z</time></trkpt><trkpt lat="44.7277683" lon="8.08568"><ele>258.66666666666663</ele><time>2026-04-25T17:03:06.113Z</time></trkpt><trkpt lat="44.7279083" lon="8.0857617"><ele>258.3333333333333</ele><time>2026-04-25T17:03:07.113Z</time></trkpt><trkpt lat="44.7280367" lon="8.08585"><ele>258.0</ele><time>2026-04-25T17:03:08.113Z</time></trkpt><trkpt lat="44.72818" lon="8.0859417"><ele>258.0</ele><time>2026-04-25T17:03:09.113Z</time></trkpt><trkpt lat="44.728315" lon="8.0860367"><ele>258.0</ele><time>2026-04-25T17:03:10.113Z</time></trkpt><trkpt lat="44.7284533" lon="8.0861467"><ele>258.0</ele><time>2026-04-25T17:03:11.113Z</time></trkpt><trkpt lat="44.7286017" lon="8.0862617"><ele>256.0</ele><time>2026-04-25T17:03:12.113Z</time></trkpt><trkpt lat="44.7287467" lon="8.0863633"><ele>254.0</ele><time>2026-04-25T17:03:13.113Z</time></trkpt><trkpt lat="44.7289067" lon="8.08644"><ele>252.0</ele><time>2026-04-25T17:03:14.113Z</time></trkpt><trkpt lat="44.7290617" lon="8.086495"><ele>252.0</ele><time>2026-04-25T17:03:15.113Z</time></trkpt><trkpt lat="44.72923" lon="8.0865283"><ele>252.0</ele><time>2026-04-25T17:03:16.113Z</time></trkpt><trkpt lat="44.729395" lon="8.0865367"><ele>252.0</ele><time>2026-04-25T17:03:17.113Z</time></trkpt><trkpt lat="44.7295567" lon="8.08654"><ele>254.66666666666669</ele><time>2026-04-25T17:03:18.113Z</time></trkpt><trkpt lat="44.7297167" lon="8.0865483"><ele>257.33333333333337</ele><time>2026-04-25T17:03:19.113Z</time></trkpt><trkpt lat="44.7298783" lon="8.08657"><ele>260.0</ele><time>2026-04-25T17:03:20.113Z</time></trkpt><trkpt lat="44.73003" lon="8.0865933"><ele>264.0</ele><time>2026-04-25T17:03:21.113Z</time></trkpt><trkpt lat="44.7301833" lon="8.086635"><ele>268.0</ele><time>2026-04-25T17:03:22.113Z</time></trkpt><trkpt lat="44.7303233" lon="8.0866867"><ele>272.0</ele><time>2026-04-25T17:03:23.113Z</time></trkpt><trkpt lat="44.73047" lon="8.0867517"><ele>273.0</ele><time>2026-04-25T17:03:24.113Z</time></trkpt><trkpt lat="44.7306183" lon="8.0868233"><ele>274.0</ele><time>2026-04-25T17:03:25.113Z</time></trkpt><trkpt lat="44.73075" lon="8.0869217"><ele>275.0</ele><time>2026-04-25T17:03:26.113Z</time></trkpt><trkpt lat="44.730885" lon="8.0870217"><ele>275.0</ele><time>2026-04-25T17:03:27.113Z</time></trkpt><trkpt lat="44.7310283" lon="8.0871183"><ele>275.0</ele><time>2026-04-25T17:03:28.113Z</time></trkpt><trkpt lat="44.7311783" lon="8.087215"><ele>275.0</ele><time>2026-04-25T17:03:29.113Z</time></trkpt><trkpt lat="44.73133" lon="8.0873083"><ele>276.33333333333337</ele><time>2026-04-25T17:03:30.113Z</time></trkpt><trkpt lat="44.73148" lon="8.0873983"><ele>277.6666666666667</ele><time>2026-04-25T17:03:31.113Z</time></trkpt><trkpt lat="44.7316283" lon="8.0874733"><ele>279.0</ele><time>2026-04-25T17:03:32.113Z</time></trkpt><trkpt lat="44.73178" lon="8.0875317"><ele>273.3333333333333</ele><time>2026-04-25T17:03:33.113Z</time></trkpt><trkpt lat="44.7319383" lon="8.08757"><ele>267.66666666666663</ele><time>2026-04-25T17:03:34.113Z</time></trkpt><trkpt lat="44.7321133" lon="8.0875917"><ele>262.0</ele><time>2026-04-25T17:03:35.113Z</time></trkpt><trkpt lat="44.7322883" lon="8.0876067"><ele>262.0</ele><time>2026-04-25T17:03:36.113Z</time></trkpt><trkpt lat="44.7324717" lon="8.08762"><ele>262.0</ele><time>2026-04-25T17:03:37.113Z</time></trkpt><trkpt lat="44.7326367" lon="8.08764"><ele>262.0</ele><time>2026-04-25T17:03:38.113Z</time></trkpt><trkpt lat="44.7328117" lon="8.087665"><ele>260.0</ele><time>2026-04-25T17:03:39.113Z</time></trkpt><trkpt lat="44.73298" lon="8.0876967"><ele>258.0</ele><time>2026-04-25T17:03:40.113Z</time></trkpt><trkpt lat="44.7331383" lon="8.0877483"><ele>256.0</ele><time>2026-04-25T17:03:41.113Z</time></trkpt><trkpt lat="44.733295" lon="8.0878133"><ele>256.0</ele><time>2026-04-25T17:03:42.113Z</time></trkpt><trkpt lat="44.7334533" lon="8.0878817"><ele>256.0</ele><time>2026-04-25T17:03:43.113Z</time></trkpt><trkpt lat="44.7336083" lon="8.0879533"><ele>256.0</ele><time>2026-04-25T17:03:44.113Z</time></trkpt><trkpt lat="44.7337683" lon="8.0880267"><ele>255.33333333333331</ele><time>2026-04-25T17:03:45.113Z</time></trkpt><trkpt lat="44.733925" lon="8.0881"><ele>254.66666666666669</ele><time>2026-04-25T17:03:46.113Z</time></trkpt><trkpt lat="44.734085" lon="8.0881767"><ele>254.0</ele><time>2026-04-25T17:03:47.113Z</time></trkpt><trkpt lat="44.7342483" lon="8.088255"><ele>249.33333333333334</ele><time>2026-04-25T17:03:48.113Z</time></trkpt><trkpt lat="44.73441" lon="8.0883317"><ele>244.66666666666669</ele><time>2026-04-25T17:03:49.113Z</time></trkpt><trkpt lat="44.734575" lon="8.08841"><ele>240.0</ele><time>2026-04-25T17:03:50.113Z</time></trkpt><trkpt lat="44.7347333" lon="8.0884917"><ele>240.0</ele><time>2026-04-25T17:03:51.113Z</time></trkpt><trkpt lat="44.73489" lon="8.08857"><ele>240.0</ele><time>2026-04-25T17:03:52.113Z</time></trkpt><trkpt lat="44.7350467" lon="8.0886417"><ele>240.0</ele><time>2026-04-25T17:03:53.113Z</time></trkpt><trkpt lat="44.7352017" lon="8.0887033"><ele>237.75</ele><time>2026-04-25T17:03:54.113Z</time></trkpt><trkpt lat="44.7353483" lon="8.0887333"><ele>235.5</ele><time>2026-04-25T17:03:55.113Z</time></trkpt><trkpt lat="44.735495" lon="8.0887283"><ele>233.25</ele><time>2026-04-25T17:03:56.113Z</time></trkpt><trkpt lat="44.735625" lon="8.088665"><ele>231.0</ele><time>2026-04-25T17:03:57.113Z</time></trkpt><trkpt lat="44.7357333" lon="8.0885883"><ele>231.0</ele><time>2026-04-25T17:03:58.113Z</time></trkpt><trkpt lat="44.735835" lon="8.0885367"><ele>231.00000000000003</ele><time>2026-04-25T17:03:59.113Z</time></trkpt><trkpt lat="44.7359283" lon="8.0885367"><ele>231.00000000000003</ele><time>2026-04-25T17:04:00.113Z</time></trkpt><trkpt lat="44.736015" lon="8.0885833"><ele>231.0</ele><time>2026-04-25T17:04:01.113Z</time></trkpt><trkpt lat="44.7360583" lon="8.088685"><ele>231.0</ele><time>2026-04-25T17:04:02.113Z</time></trkpt><trkpt lat="44.736065" lon="8.088795"><ele>231.0</ele><time>2026-04-25T17:04:03.113Z</time></trkpt><trkpt lat="44.736035" lon="8.08891"><ele>231.0</ele><time>2026-04-25T17:04:04.113Z</time></trkpt><trkpt lat="44.7359567" lon="8.089"><ele>231.0</ele><time>2026-04-25T17:04:05.113Z</time></trkpt><trkpt lat="44.735835" lon="8.08908"><ele>231.0</ele><time>2026-04-25T17:04:06.113Z</time></trkpt><trkpt lat="44.73569" lon="8.08914"><ele>230.25</ele><time>2026-04-25T17:04:07.113Z</time></trkpt><trkpt lat="44.73555" lon="8.0892033"><ele>229.5</ele><time>2026-04-25T17:04:08.113Z</time></trkpt><trkpt lat="44.73542" lon="8.0892767"><ele>228.75</ele><time>2026-04-25T17:04:09.113Z</time></trkpt><trkpt lat="44.7352983" lon="8.0893717"><ele>228.0</ele><time>2026-04-25T17:04:10.113Z</time></trkpt><trkpt lat="44.7351917" lon="8.0894817"><ele>228.0</ele><time>2026-04-25T17:04:11.113Z</time></trkpt><trkpt lat="44.7351133" lon="8.0895983"><ele>228.0</ele><time>2026-04-25T17:04:12.113Z</time></trkpt><trkpt lat="44.73504" lon="8.0897333"><ele>228.0</ele><time>2026-04-25T17:04:13.113Z</time></trkpt><trkpt lat="44.7349667" lon="8.089865"><ele>228.0</ele><time>2026-04-25T17:04:14.113Z</time></trkpt><trkpt lat="44.7348983" lon="8.0899717"><ele>225.2</ele><time>2026-04-25T17:04:15.113Z</time></trkpt><trkpt lat="44.7348217" lon="8.090045"><ele>222.4</ele><time>2026-04-25T17:04:16.113Z</time></trkpt><trkpt lat="44.7347233" lon="8.09008"><ele>219.59999999999997</ele><time>2026-04-25T17:04:17.113Z</time></trkpt><trkpt lat="44.7346167" lon="8.0900867"><ele>216.79999999999998</ele><time>2026-04-25T17:04:18.113Z</time></trkpt><trkpt lat="44.7345067" lon="8.0900467"><ele>214.0</ele><time>2026-04-25T17:04:19.113Z</time></trkpt><trkpt lat="44.73439" lon="8.08998"><ele>217.25</ele><time>2026-04-25T17:04:20.113Z</time></trkpt><trkpt lat="44.7342683" lon="8.08992"><ele>220.5</ele><time>2026-04-25T17:04:21.113Z</time></trkpt><trkpt lat="44.734145" lon="8.089875"><ele>223.75</ele><time>2026-04-25T17:04:22.113Z</time></trkpt><trkpt lat="44.734015" lon="8.08985"><ele>227.0</ele><time>2026-04-25T17:04:23.113Z</time></trkpt><trkpt lat="44.733885" lon="8.0898883"><ele>223.25</ele><time>2026-04-25T17:04:24.113Z</time></trkpt><trkpt lat="44.733765" lon="8.0899733"><ele>219.5</ele><time>2026-04-25T17:04:25.113Z</time></trkpt><trkpt lat="44.7336517" lon="8.0900883"><ele>215.75</ele><time>2026-04-25T17:04:26.113Z</time></trkpt><trkpt lat="44.7335483" lon="8.090215"><ele>212.0</ele><time>2026-04-25T17:04:27.113Z</time></trkpt><trkpt lat="44.733445" lon="8.0903417"><ele>212.0</ele><time>2026-04-25T17:04:28.113Z</time></trkpt><trkpt lat="44.7333383" lon="8.090465"><ele>212.0</ele><time>2026-04-25T17:04:29.113Z</time></trkpt><trkpt lat="44.733225" lon="8.0905883"><ele>212.0</ele><time>2026-04-25T17:04:30.113Z</time></trkpt><trkpt lat="44.7331183" lon="8.09071"><ele>212.0</ele><time>2026-04-25T17:04:31.113Z</time></trkpt><trkpt lat="44.7330217" lon="8.0908233"><ele>210.25</ele><time>2026-04-25T17:04:32.113Z</time></trkpt><trkpt lat="44.73293" lon="8.0909467"><ele>208.5</ele><time>2026-04-25T17:04:33.113Z</time></trkpt><trkpt lat="44.73285" lon="8.0910667"><ele>206.75</ele><time>2026-04-25T17:04:34.113Z</time></trkpt><trkpt lat="44.73278" lon="8.0911867"><ele>205.0</ele><time>2026-04-25T17:04:35.113Z</time></trkpt><trkpt lat="44.7327083" lon="8.09131"><ele>205.0</ele><time>2026-04-25T17:04:36.113Z</time></trkpt><trkpt lat="44.732635" lon="8.091425"><ele>205.0</ele><time>2026-04-25T17:04:37.113Z</time></trkpt><trkpt lat="44.73255" lon="8.0915383"><ele>205.0</ele><time>2026-04-25T17:04:38.113Z</time></trkpt><trkpt lat="44.7324567" lon="8.0916283"><ele>205.0</ele><time>2026-04-25T17:04:39.113Z</time></trkpt><trkpt lat="44.73235" lon="8.0916883"><ele>202.0</ele><time>2026-04-25T17:04:40.113Z</time></trkpt><trkpt lat="44.732225" lon="8.09173"><ele>199.0</ele><time>2026-04-25T17:04:41.113Z</time></trkpt><trkpt lat="44.7320883" lon="8.091765"><ele>196.0</ele><time>2026-04-25T17:04:42.113Z</time></trkpt><trkpt lat="44.731945" lon="8.0918017"><ele>193.0</ele><time>2026-04-25T17:04:43.113Z</time></trkpt><trkpt lat="44.7318167" lon="8.09187"><ele>192.25</ele><time>2026-04-25T17:04:44.113Z</time></trkpt><trkpt lat="44.7317033" lon="8.091965"><ele>191.5</ele><time>2026-04-25T17:04:45.113Z</time></trkpt><trkpt lat="44.7315967" lon="8.0920767"><ele>190.75</ele><time>2026-04-25T17:04:46.113Z</time></trkpt><trkpt lat="44.7315067" lon="8.0921933"><ele>190.0</ele><time>2026-04-25T17:04:47.113Z</time></trkpt><trkpt lat="44.731405" lon="8.092315"><ele>188.75</ele><time>2026-04-25T17:04:48.113Z</time></trkpt><trkpt lat="44.7313083" lon="8.0924267"><ele>187.5</ele><time>2026-04-25T17:04:49.113Z</time></trkpt><trkpt lat="44.731215" lon="8.0925383"><ele>186.25</ele><time>2026-04-25T17:04:50.113Z</time></trkpt><trkpt lat="44.73111" lon="8.092645"><ele>185.0</ele><time>2026-04-25T17:04:51.113Z</time></trkpt><trkpt lat="44.7309917" lon="8.092735"><ele>185.0</ele><time>2026-04-25T17:04:52.113Z</time></trkpt><trkpt lat="44.7308717" lon="8.0927967"><ele>185.0</ele><time>2026-04-25T17:04:53.113Z</time></trkpt><trkpt lat="44.7307517" lon="8.0928383"><ele>185.0</ele><time>2026-04-25T17:04:54.113Z</time></trkpt><trkpt lat="44.7306417" lon="8.0928733"><ele>185.0</ele><time>2026-04-25T17:04:55.113Z</time></trkpt><trkpt lat="44.730535" lon="8.0929367"><ele>185.0</ele><time>2026-04-25T17:04:56.113Z</time></trkpt><trkpt lat="44.7304683" lon="8.093065"><ele>185.0</ele><time>2026-04-25T17:04:57.113Z</time></trkpt><trkpt lat="44.7304283" lon="8.0932083"><ele>185.0</ele><time>2026-04-25T17:04:58.113Z</time></trkpt><trkpt lat="44.730415" lon="8.0933767"><ele>185.0</ele><time>2026-04-25T17:04:59.113Z</time></trkpt><trkpt lat="44.7304067" lon="8.0935517"><ele>182.6</ele><time>2026-04-25T17:05:00.113Z</time></trkpt><trkpt lat="44.7304017" lon="8.0937183"><ele>180.2</ele><time>2026-04-25T17:05:01.113Z</time></trkpt><trkpt lat="44.730395" lon="8.0938733"><ele>177.8</ele><time>2026-04-25T17:05:02.113Z</time></trkpt><trkpt lat="44.7303867" lon="8.0939983"><ele>175.4</ele><time>2026-04-25T17:05:03.113Z</time></trkpt><trkpt lat="44.7303683" lon="8.0941033"><ele>173.0</ele><time>2026-04-25T17:05:04.113Z</time></trkpt><trkpt lat="44.7303483" lon="8.0942433"><ele>172.2</ele><time>2026-04-25T17:05:06.113Z</time></trkpt><trkpt lat="44.7304167" lon="8.0943017"><ele>171.4</ele><time>2026-04-25T17:05:13.113Z</time></trkpt><trkpt lat="44.7304933" lon="8.09433"><ele>170.6</ele><time>2026-04-25T17:05:14.113Z</time></trkpt><trkpt lat="44.73059" lon="8.0943367"><ele>169.79999999999998</ele><time>2026-04-25T17:05:15.113Z</time></trkpt><trkpt lat="44.7307033" lon="8.09433"><ele>169.0</ele><time>2026-04-25T17:05:16.113Z</time></trkpt><trkpt lat="44.73083" lon="8.0943217"><ele>169.0</ele><time>2026-04-25T17:05:17.113Z</time></trkpt><trkpt lat="44.7309617" lon="8.0943183"><ele>169.0</ele><time>2026-04-25T17:05:18.113Z</time></trkpt><trkpt lat="44.7310983" lon="8.09431"><ele>169.0</ele><time>2026-04-25T17:05:19.113Z</time></trkpt><trkpt lat="44.7312417" lon="8.094295"><ele>169.0</ele><time>2026-04-25T17:05:20.113Z</time></trkpt><trkpt lat="44.7314" lon="8.09428"><ele>169.33333333333334</ele><time>2026-04-25T17:05:21.113Z</time></trkpt><trkpt lat="44.7315683" lon="8.09426"><ele>169.66666666666666</ele><time>2026-04-25T17:05:22.113Z</time></trkpt><trkpt lat="44.7317367" lon="8.0942467"><ele>170.0</ele><time>2026-04-25T17:05:23.113Z</time></trkpt><trkpt lat="44.7319133" lon="8.0942167"><ele>168.66666666666666</ele><time>2026-04-25T17:05:24.113Z</time></trkpt><trkpt lat="44.7320967" lon="8.0942"><ele>167.33333333333334</ele><time>2026-04-25T17:05:25.113Z</time></trkpt><trkpt lat="44.7322833" lon="8.0941817"><ele>166.0</ele><time>2026-04-25T17:05:26.113Z</time></trkpt><trkpt lat="44.73246" lon="8.094165"><ele>166.0</ele><time>2026-04-25T17:05:27.113Z</time></trkpt><trkpt lat="44.7326467" lon="8.0941717"><ele>166.0</ele><time>2026-04-25T17:05:28.113Z</time></trkpt><trkpt lat="44.7328467" lon="8.0941533"><ele>166.0</ele><time>2026-04-25T17:05:29.113Z</time></trkpt><trkpt lat="44.7330467" lon="8.094125"><ele>165.33333333333334</ele><time>2026-04-25T17:05:30.113Z</time></trkpt><trkpt lat="44.73324" lon="8.094125"><ele>164.66666666666666</ele><time>2026-04-25T17:05:31.113Z</time></trkpt><trkpt lat="44.7334417" lon="8.0941617"><ele>164.0</ele><time>2026-04-25T17:05:32.113Z</time></trkpt><trkpt lat="44.7336417" lon="8.0942167"><ele>163.33333333333331</ele><time>2026-04-25T17:05:33.113Z</time></trkpt><trkpt lat="44.7338383" lon="8.0942733"><ele>162.66666666666666</ele><time>2026-04-25T17:05:34.113Z</time></trkpt><trkpt lat="44.7340367" lon="8.0943367"><ele>162.0</ele><time>2026-04-25T17:05:35.113Z</time></trkpt><trkpt lat="44.7342333" lon="8.0944"><ele>162.0</ele><time>2026-04-25T17:05:36.113Z</time></trkpt><trkpt lat="44.7344283" lon="8.0944633"><ele>162.0</ele><time>2026-04-25T17:05:37.113Z</time></trkpt><trkpt lat="44.7346283" lon="8.0945167"><ele>162.0</ele><time>2026-04-25T17:05:38.113Z</time></trkpt><trkpt lat="44.73483" lon="8.0945383"><ele>162.0</ele><time>2026-04-25T17:05:39.113Z</time></trkpt><trkpt lat="44.7350433" lon="8.094495"><ele>162.0</ele><time>2026-04-25T17:05:40.113Z</time></trkpt><trkpt lat="44.7352683" lon="8.0944367"><ele>162.0</ele><time>2026-04-25T17:05:41.113Z</time></trkpt><trkpt lat="44.7354917" lon="8.09436"><ele>162.66666666666666</ele><time>2026-04-25T17:05:42.113Z</time></trkpt><trkpt lat="44.73571" lon="8.0942967"><ele>163.33333333333331</ele><time>2026-04-25T17:05:43.113Z</time></trkpt><trkpt lat="44.7359267" lon="8.09423"><ele>164.0</ele><time>2026-04-25T17:05:44.113Z</time></trkpt><trkpt lat="44.7361417" lon="8.0941567"><ele>164.5</ele><time>2026-04-25T17:05:45.113Z</time></trkpt><trkpt lat="44.7363633" lon="8.0941067"><ele>165.0</ele><time>2026-04-25T17:05:46.113Z</time></trkpt><trkpt lat="44.7365967" lon="8.0940783"><ele>165.33333333333334</ele><time>2026-04-25T17:05:47.113Z</time></trkpt><trkpt lat="44.73682" lon="8.0940533"><ele>165.66666666666669</ele><time>2026-04-25T17:05:48.113Z</time></trkpt><trkpt lat="44.7370417" lon="8.0940217"><ele>166.0</ele><time>2026-04-25T17:05:49.113Z</time></trkpt><trkpt lat="44.7372567" lon="8.093975"><ele>164.0</ele><time>2026-04-25T17:05:50.113Z</time></trkpt><trkpt lat="44.737475" lon="8.09391"><ele>162.0</ele><time>2026-04-25T17:05:51.113Z</time></trkpt><trkpt lat="44.7376983" lon="8.0938333"><ele>161.5</ele><time>2026-04-25T17:05:52.113Z</time></trkpt><trkpt lat="44.7379217" lon="8.0937617"><ele>161.0</ele><time>2026-04-25T17:05:53.113Z</time></trkpt><trkpt lat="44.73815" lon="8.0936667"><ele>161.0</ele><time>2026-04-25T17:05:54.113Z</time></trkpt><trkpt lat="44.7383767" lon="8.0935667"><ele>161.0</ele><time>2026-04-25T17:05:55.113Z</time></trkpt><trkpt lat="44.7385983" lon="8.0934533"><ele>160.0</ele><time>2026-04-25T17:05:56.113Z</time></trkpt><trkpt lat="44.7388233" lon="8.093325"><ele>159.0</ele><time>2026-04-25T17:05:57.113Z</time></trkpt><trkpt lat="44.73903" lon="8.0931833"><ele>158.5</ele><time>2026-04-25T17:05:58.113Z</time></trkpt><trkpt lat="44.7392367" lon="8.09304"><ele>158.0</ele><time>2026-04-25T17:05:59.113Z</time></trkpt><trkpt lat="44.7394383" lon="8.0929"><ele>157.0</ele><time>2026-04-25T17:06:00.113Z</time></trkpt><trkpt lat="44.739645" lon="8.092775"><ele>156.0</ele><time>2026-04-25T17:06:01.113Z</time></trkpt><trkpt lat="44.73985" lon="8.0926533"><ele>155.0</ele><time>2026-04-25T17:06:02.113Z</time></trkpt><trkpt lat="44.7400533" lon="8.092515"><ele>154.66666666666666</ele><time>2026-04-25T17:06:03.113Z</time></trkpt><trkpt lat="44.74025" lon="8.0923533"><ele>154.33333333333334</ele><time>2026-04-25T17:06:04.113Z</time></trkpt><trkpt lat="44.7404217" lon="8.0921733"><ele>154.0</ele><time>2026-04-25T17:06:05.113Z</time></trkpt><trkpt lat="44.7405883" lon="8.0919667"><ele>154.0</ele><time>2026-04-25T17:06:06.113Z</time></trkpt><trkpt lat="44.74074" lon="8.091735"><ele>154.0</ele><time>2026-04-25T17:06:07.113Z</time></trkpt><trkpt lat="44.740875" lon="8.0914833"><ele>154.0</ele><time>2026-04-25T17:06:08.113Z</time></trkpt><trkpt lat="44.740995" lon="8.0912117"><ele>154.0</ele><time>2026-04-25T17:06:09.113Z</time></trkpt><trkpt lat="44.7410867" lon="8.0909417"><ele>154.0</ele><time>2026-04-25T17:06:10.113Z</time></trkpt><trkpt lat="44.74116" lon="8.09067"><ele>154.0</ele><time>2026-04-25T17:06:11.113Z</time></trkpt><trkpt lat="44.741215" lon="8.0904133"><ele>153.66666666666669</ele><time>2026-04-25T17:06:12.113Z</time></trkpt><trkpt lat="44.7412633" lon="8.0901533"><ele>153.33333333333334</ele><time>2026-04-25T17:06:13.113Z</time></trkpt><trkpt lat="44.7412967" lon="8.0898967"><ele>153.0</ele><time>2026-04-25T17:06:14.113Z</time></trkpt><trkpt lat="44.7413217" lon="8.0896517"><ele>151.66666666666666</ele><time>2026-04-25T17:06:15.113Z</time></trkpt><trkpt lat="44.7413517" lon="8.0894067"><ele>150.33333333333331</ele><time>2026-04-25T17:06:16.113Z</time></trkpt><trkpt lat="44.7413883" lon="8.0891517"><ele>149.0</ele><time>2026-04-25T17:06:17.113Z</time></trkpt><trkpt lat="44.74143" lon="8.0888967"><ele>147.33333333333331</ele><time>2026-04-25T17:06:18.113Z</time></trkpt><trkpt lat="44.7414667" lon="8.0886467"><ele>145.66666666666666</ele><time>2026-04-25T17:06:19.113Z</time></trkpt><trkpt lat="44.7415017" lon="8.0884067"><ele>144.0</ele><time>2026-04-25T17:06:20.113Z</time></trkpt><trkpt lat="44.7415417" lon="8.0881683"><ele>144.0</ele><time>2026-04-25T17:06:21.113Z</time></trkpt><trkpt lat="44.7415733" lon="8.0879383"><ele>144.0</ele><time>2026-04-25T17:06:22.113Z</time></trkpt><trkpt lat="44.7416033" lon="8.08772"><ele>144.0</ele><time>2026-04-25T17:06:23.113Z</time></trkpt><trkpt lat="44.74164" lon="8.087505"><ele>145.66666666666666</ele><time>2026-04-25T17:06:24.113Z</time></trkpt><trkpt lat="44.74167" lon="8.0872783"><ele>147.33333333333331</ele><time>2026-04-25T17:06:25.113Z</time></trkpt><trkpt lat="44.7417033" lon="8.0870467"><ele>149.0</ele><time>2026-04-25T17:06:26.113Z</time></trkpt><trkpt lat="44.7417317" lon="8.0868167"><ele>149.66666666666666</ele><time>2026-04-25T17:06:27.113Z</time></trkpt><trkpt lat="44.7417667" lon="8.08658"><ele>150.33333333333334</ele><time>2026-04-25T17:06:28.113Z</time></trkpt><trkpt lat="44.7417967" lon="8.0863317"><ele>151.0</ele><time>2026-04-25T17:06:29.113Z</time></trkpt><trkpt lat="44.7418267" lon="8.0860583"><ele>151.5</ele><time>2026-04-25T17:06:30.113Z</time></trkpt><trkpt lat="44.7418617" lon="8.085755"><ele>152.0</ele><time>2026-04-25T17:06:31.113Z</time></trkpt><trkpt lat="44.74191" lon="8.0854283"><ele>151.0</ele><time>2026-04-25T17:06:32.112Z</time></trkpt><trkpt lat="44.7419567" lon="8.0850983"><ele>150.0</ele><time>2026-04-25T17:06:33.113Z</time></trkpt><trkpt lat="44.742" lon="8.0847633"><ele>150.0</ele><time>2026-04-25T17:06:34.113Z</time></trkpt><trkpt lat="44.7420467" lon="8.0844267"><ele>150.0</ele><time>2026-04-25T17:06:35.113Z</time></trkpt><trkpt lat="44.7420917" lon="8.08409"><ele>150.5</ele><time>2026-04-25T17:06:36.113Z</time></trkpt><trkpt lat="44.742145" lon="8.0837583"><ele>151.0</ele><time>2026-04-25T17:06:37.113Z</time></trkpt><trkpt lat="44.7422017" lon="8.0834233"><ele>150.0</ele><time>2026-04-25T17:06:38.113Z</time></trkpt><trkpt lat="44.7422533" lon="8.083075"><ele>149.0</ele><time>2026-04-25T17:06:39.113Z</time></trkpt><trkpt lat="44.7422967" lon="8.082735"><ele>148.0</ele><time>2026-04-25T17:06:40.113Z</time></trkpt><trkpt lat="44.7423483" lon="8.0823917"><ele>147.0</ele><time>2026-04-25T17:06:41.113Z</time></trkpt><trkpt lat="44.7423933" lon="8.0820467"><ele>147.0</ele><time>2026-04-25T17:06:42.113Z</time></trkpt><trkpt lat="44.74244" lon="8.0817267"><ele>147.0</ele><time>2026-04-25T17:06:43.113Z</time></trkpt><trkpt lat="44.7424817" lon="8.0814383"><ele>147.0</ele><time>2026-04-25T17:06:44.113Z</time></trkpt><trkpt lat="44.742525" lon="8.08117"><ele>147.66666666666666</ele><time>2026-04-25T17:06:45.113Z</time></trkpt><trkpt lat="44.742565" lon="8.080905"><ele>148.33333333333331</ele><time>2026-04-25T17:06:46.113Z</time></trkpt><trkpt lat="44.7426017" lon="8.080645"><ele>149.0</ele><time>2026-04-25T17:06:47.113Z</time></trkpt><trkpt lat="44.7426367" lon="8.0803683"><ele>149.66666666666666</ele><time>2026-04-25T17:06:48.114Z</time></trkpt><trkpt lat="44.7426717" lon="8.0800783"><ele>150.33333333333334</ele><time>2026-04-25T17:06:49.113Z</time></trkpt><trkpt lat="44.7427083" lon="8.0797867"><ele>151.0</ele><time>2026-04-25T17:06:50.113Z</time></trkpt><trkpt lat="44.7427533" lon="8.0794833"><ele>151.0</ele><time>2026-04-25T17:06:51.114Z</time></trkpt><trkpt lat="44.74281" lon="8.0791717"><ele>151.0</ele><time>2026-04-25T17:06:52.113Z</time></trkpt><trkpt lat="44.7428667" lon="8.0788567"><ele>151.0</ele><time>2026-04-25T17:06:53.113Z</time></trkpt><trkpt lat="44.742915" lon="8.078545"><ele>151.0</ele><time>2026-04-25T17:06:54.113Z</time></trkpt><trkpt lat="44.7429583" lon="8.0782417"><ele>151.0</ele><time>2026-04-25T17:06:55.113Z</time></trkpt><trkpt lat="44.743" lon="8.07794"><ele>150.66666666666669</ele><time>2026-04-25T17:06:56.113Z</time></trkpt><trkpt lat="44.7430433" lon="8.0776483"><ele>150.33333333333334</ele><time>2026-04-25T17:06:57.113Z</time></trkpt><trkpt lat="44.74308" lon="8.07737"><ele>150.0</ele><time>2026-04-25T17:06:58.113Z</time></trkpt><trkpt lat="44.7431217" lon="8.0770917"><ele>150.0</ele><time>2026-04-25T17:06:59.113Z</time></trkpt><trkpt lat="44.7431583" lon="8.07682"><ele>150.0</ele><time>2026-04-25T17:07:00.113Z</time></trkpt><trkpt lat="44.7432017" lon="8.0765467"><ele>150.0</ele><time>2026-04-25T17:07:01.113Z</time></trkpt><trkpt lat="44.7432433" lon="8.07628"><ele>150.33333333333334</ele><time>2026-04-25T17:07:02.113Z</time></trkpt><trkpt lat="44.7432783" lon="8.076015"><ele>150.66666666666669</ele><time>2026-04-25T17:07:03.113Z</time></trkpt><trkpt lat="44.7433067" lon="8.0757583"><ele>151.0</ele><time>2026-04-25T17:07:04.113Z</time></trkpt><trkpt lat="44.74334" lon="8.0755017"><ele>151.0</ele><time>2026-04-25T17:07:05.113Z</time></trkpt><trkpt lat="44.7433767" lon="8.0752517"><ele>151.0</ele><time>2026-04-25T17:07:06.113Z</time></trkpt><trkpt lat="44.7434033" lon="8.0750183"><ele>151.0</ele><time>2026-04-25T17:07:07.113Z</time></trkpt><trkpt lat="44.7434333" lon="8.07479"><ele>150.5</ele><time>2026-04-25T17:07:08.113Z</time></trkpt><trkpt lat="44.7434617" lon="8.0745833"><ele>150.0</ele><time>2026-04-25T17:07:09.113Z</time></trkpt><trkpt lat="44.7434883" lon="8.07439"><ele>149.5</ele><time>2026-04-25T17:07:10.113Z</time></trkpt><trkpt lat="44.743515" lon="8.0742217"><ele>149.0</ele><time>2026-04-25T17:07:11.113Z</time></trkpt><trkpt lat="44.7435433" lon="8.0740683"><ele>148.83333333333331</ele><time>2026-04-25T17:07:12.113Z</time></trkpt><trkpt lat="44.7435667" lon="8.0739383"><ele>148.66666666666666</ele><time>2026-04-25T17:07:13.113Z</time></trkpt><trkpt lat="44.7435933" lon="8.0738333"><ele>148.5</ele><time>2026-04-25T17:07:14.113Z</time></trkpt><trkpt lat="44.74364" lon="8.073745"><ele>148.33333333333334</ele><time>2026-04-25T17:07:15.113Z</time></trkpt><trkpt lat="44.7437117" lon="8.07367"><ele>148.16666666666669</ele><time>2026-04-25T17:07:16.113Z</time></trkpt><trkpt lat="44.7438033" lon="8.0736133"><ele>148.0</ele><time>2026-04-25T17:07:17.113Z</time></trkpt><trkpt lat="44.743905" lon="8.073555"><ele>148.0</ele><time>2026-04-25T17:07:18.113Z</time></trkpt><trkpt lat="44.7439883" lon="8.0734633"><ele>148.0</ele><time>2026-04-25T17:07:19.113Z</time></trkpt><trkpt lat="44.74408" lon="8.0733383"><ele>148.0</ele><time>2026-04-25T17:07:20.113Z</time></trkpt><trkpt lat="44.7441533" lon="8.0732"><ele>148.0</ele><time>2026-04-25T17:07:21.113Z</time></trkpt><trkpt lat="44.7441767" lon="8.07299"><ele>148.25</ele><time>2026-04-25T17:07:22.113Z</time></trkpt><trkpt lat="44.744175" lon="8.0727967"><ele>148.5</ele><time>2026-04-25T17:07:23.113Z</time></trkpt><trkpt lat="44.7441583" lon="8.0726067"><ele>148.75</ele><time>2026-04-25T17:07:24.113Z</time></trkpt><trkpt lat="44.7441167" lon="8.0724383"><ele>149.0</ele><time>2026-04-25T17:07:25.113Z</time></trkpt><trkpt lat="44.7440567" lon="8.0722983"><ele>149.4</ele><time>2026-04-25T17:07:26.113Z</time></trkpt><trkpt lat="44.7439783" lon="8.072175"><ele>149.8</ele><time>2026-04-25T17:07:27.113Z</time></trkpt><trkpt lat="44.743915" lon="8.0720633"><ele>150.2</ele><time>2026-04-25T17:07:28.113Z</time></trkpt><trkpt lat="44.7438783" lon="8.0719583"><ele>150.6</ele><time>2026-04-25T17:07:29.113Z</time></trkpt><trkpt lat="44.74387" lon="8.0718267"><ele>151.0</ele><time>2026-04-25T17:07:30.113Z</time></trkpt><trkpt lat="44.7438833" lon="8.07167"><ele>151.25</ele><time>2026-04-25T17:07:31.113Z</time></trkpt><trkpt lat="44.7439067" lon="8.0714917"><ele>151.5</ele><time>2026-04-25T17:07:32.113Z</time></trkpt><trkpt lat="44.7439417" lon="8.0712983"><ele>151.75</ele><time>2026-04-25T17:07:33.113Z</time></trkpt><trkpt lat="44.7439683" lon="8.0710933"><ele>152.0</ele><time>2026-04-25T17:07:34.113Z</time></trkpt><trkpt lat="44.7440017" lon="8.070875"><ele>152.0</ele><time>2026-04-25T17:07:35.113Z</time></trkpt><trkpt lat="44.7440317" lon="8.07065"><ele>152.0</ele><time>2026-04-25T17:07:36.113Z</time></trkpt><trkpt lat="44.7440683" lon="8.07043"><ele>152.0</ele><time>2026-04-25T17:07:37.113Z</time></trkpt><trkpt lat="44.7441133" lon="8.0702067"><ele>152.0</ele><time>2026-04-25T17:07:38.113Z</time></trkpt><trkpt lat="44.744145" lon="8.0699867"><ele>152.0</ele><time>2026-04-25T17:07:39.113Z</time></trkpt><trkpt lat="44.7441683" lon="8.069785"><ele>152.0</ele><time>2026-04-25T17:07:40.113Z</time></trkpt><trkpt lat="44.7442033" lon="8.0695733"><ele>152.0</ele><time>2026-04-25T17:07:41.113Z</time></trkpt><trkpt lat="44.744225" lon="8.0693633"><ele>152.0</ele><time>2026-04-25T17:07:42.113Z</time></trkpt><trkpt lat="44.7442483" lon="8.069155"><ele>152.0</ele><time>2026-04-25T17:07:43.113Z</time></trkpt><trkpt lat="44.7442767" lon="8.06895"><ele>152.0</ele><time>2026-04-25T17:07:44.113Z</time></trkpt><trkpt lat="44.7443117" lon="8.06876"><ele>151.75</ele><time>2026-04-25T17:07:45.113Z</time></trkpt><trkpt lat="44.744345" lon="8.0685617"><ele>151.5</ele><time>2026-04-25T17:07:46.113Z</time></trkpt><trkpt lat="44.7443683" lon="8.0683867"><ele>151.25</ele><time>2026-04-25T17:07:47.113Z</time></trkpt><trkpt lat="44.7443867" lon="8.0682083"><ele>151.0</ele><time>2026-04-25T17:07:48.113Z</time></trkpt><trkpt lat="44.744415" lon="8.0680433"><ele>151.0</ele><time>2026-04-25T17:07:49.113Z</time></trkpt><trkpt lat="44.74444" lon="8.0678817"><ele>151.0</ele><time>2026-04-25T17:07:50.113Z</time></trkpt><trkpt lat="44.744465" lon="8.0677183"><ele>151.0</ele><time>2026-04-25T17:07:51.113Z</time></trkpt><trkpt lat="44.7444933" lon="8.0675733"><ele>151.0</ele><time>2026-04-25T17:07:52.113Z</time></trkpt><trkpt lat="44.7445283" lon="8.067455"><ele>151.0</ele><time>2026-04-25T17:07:53.113Z</time></trkpt><trkpt lat="44.7445617" lon="8.06736"><ele>151.16666666666669</ele><time>2026-04-25T17:07:54.113Z</time></trkpt><trkpt lat="44.74461" lon="8.0672883"><ele>151.33333333333334</ele><time>2026-04-25T17:07:55.113Z</time></trkpt><trkpt lat="44.7446267" lon="8.0671917"><ele>151.5</ele><time>2026-04-25T17:07:56.113Z</time></trkpt><trkpt lat="44.74463" lon="8.0670833"><ele>151.66666666666666</ele><time>2026-04-25T17:07:57.113Z</time></trkpt><trkpt lat="44.7446267" lon="8.0669667"><ele>151.83333333333331</ele><time>2026-04-25T17:07:58.113Z</time></trkpt><trkpt lat="44.7446217" lon="8.066835"><ele>152.0</ele><time>2026-04-25T17:07:59.113Z</time></trkpt><trkpt lat="44.744625" lon="8.0666883"><ele>152.0</ele><time>2026-04-25T17:08:00.113Z</time></trkpt><trkpt lat="44.7446367" lon="8.0665517"><ele>152.0</ele><time>2026-04-25T17:08:01.113Z</time></trkpt><trkpt lat="44.744655" lon="8.066415"><ele>152.0</ele><time>2026-04-25T17:08:02.113Z</time></trkpt><trkpt lat="44.7446733" lon="8.0662683"><ele>152.0</ele><time>2026-04-25T17:08:03.113Z</time></trkpt><trkpt lat="44.7446917" lon="8.0661133"><ele>152.0</ele><time>2026-04-25T17:08:04.113Z</time></trkpt><trkpt lat="44.74471" lon="8.06595"><ele>152.0</ele><time>2026-04-25T17:08:05.113Z</time></trkpt><trkpt lat="44.744735" lon="8.0657967"><ele>152.0</ele><time>2026-04-25T17:08:06.113Z</time></trkpt><trkpt lat="44.7447567" lon="8.06564"><ele>152.0</ele><time>2026-04-25T17:08:07.113Z</time></trkpt><trkpt lat="44.74478" lon="8.0654717"><ele>152.0</ele><time>2026-04-25T17:08:08.113Z</time></trkpt><trkpt lat="44.7448067" lon="8.0653067"><ele>152.25</ele><time>2026-04-25T17:08:09.113Z</time></trkpt><trkpt lat="44.744825" lon="8.0651367"><ele>152.5</ele><time>2026-04-25T17:08:10.113Z</time></trkpt><trkpt lat="44.7448483" lon="8.06497"><ele>152.75</ele><time>2026-04-25T17:08:11.113Z</time></trkpt><trkpt lat="44.7448667" lon="8.0648083"><ele>153.0</ele><time>2026-04-25T17:08:12.113Z</time></trkpt><trkpt lat="44.7448867" lon="8.0646383"><ele>153.0</ele><time>2026-04-25T17:08:13.113Z</time></trkpt><trkpt lat="44.74491" lon="8.0644567"><ele>153.0</ele><time>2026-04-25T17:08:14.113Z</time></trkpt><trkpt lat="44.7449367" lon="8.0642767"><ele>153.0</ele><time>2026-04-25T17:08:15.113Z</time></trkpt><trkpt lat="44.7449667" lon="8.0641033"><ele>153.0</ele><time>2026-04-25T17:08:16.113Z</time></trkpt><trkpt lat="44.745" lon="8.0639317"><ele>153.25</ele><time>2026-04-25T17:08:17.113Z</time></trkpt><trkpt lat="44.745025" lon="8.063765"><ele>153.5</ele><time>2026-04-25T17:08:18.113Z</time></trkpt><trkpt lat="44.745045" lon="8.06359"><ele>153.75</ele><time>2026-04-25T17:08:19.113Z</time></trkpt><trkpt lat="44.74507" lon="8.0634167"><ele>154.0</ele><time>2026-04-25T17:08:20.113Z</time></trkpt><trkpt lat="44.74509" lon="8.0632467"><ele>154.0</ele><time>2026-04-25T17:08:21.113Z</time></trkpt><trkpt lat="44.745115" lon="8.0630683"><ele>154.0</ele><time>2026-04-25T17:08:22.113Z</time></trkpt><trkpt lat="44.7451417" lon="8.0628933"><ele>154.0</ele><time>2026-04-25T17:08:23.113Z</time></trkpt><trkpt lat="44.7451667" lon="8.0627183"><ele>154.0</ele><time>2026-04-25T17:08:24.113Z</time></trkpt><trkpt lat="44.7451933" lon="8.06255"><ele>154.5</ele><time>2026-04-25T17:08:25.113Z</time></trkpt><trkpt lat="44.745215" lon="8.0623867"><ele>155.0</ele><time>2026-04-25T17:08:26.113Z</time></trkpt><trkpt lat="44.745235" lon="8.062225"><ele>155.5</ele><time>2026-04-25T17:08:27.113Z</time></trkpt><trkpt lat="44.74526" lon="8.06206"><ele>156.0</ele><time>2026-04-25T17:08:28.113Z</time></trkpt><trkpt lat="44.7452833" lon="8.06191"><ele>156.0</ele><time>2026-04-25T17:08:29.113Z</time></trkpt><trkpt lat="44.745315" lon="8.061765"><ele>156.0</ele><time>2026-04-25T17:08:30.113Z</time></trkpt><trkpt lat="44.74534" lon="8.0616217"><ele>156.0</ele><time>2026-04-25T17:08:31.113Z</time></trkpt><trkpt lat="44.74536" lon="8.061465"><ele>156.0</ele><time>2026-04-25T17:08:32.113Z</time></trkpt><trkpt lat="44.7453833" lon="8.06133"><ele>156.0</ele><time>2026-04-25T17:08:33.113Z</time></trkpt><trkpt lat="44.745395" lon="8.061195"><ele>155.83333333333334</ele><time>2026-04-25T17:08:34.113Z</time></trkpt><trkpt lat="44.7454133" lon="8.0610667"><ele>155.66666666666666</ele><time>2026-04-25T17:08:35.113Z</time></trkpt><trkpt lat="44.74543" lon="8.0609483"><ele>155.5</ele><time>2026-04-25T17:08:36.113Z</time></trkpt><trkpt lat="44.7454433" lon="8.0608367"><ele>155.33333333333331</ele><time>2026-04-25T17:08:37.113Z</time></trkpt><trkpt lat="44.74546" lon="8.06075"><ele>155.16666666666666</ele><time>2026-04-25T17:08:38.113Z</time></trkpt><trkpt lat="44.7455183" lon="8.0606117"><ele>155.0</ele><time>2026-04-25T17:08:40.113Z</time></trkpt><trkpt lat="44.7455617" lon="8.0605383"><ele>154.8</ele><time>2026-04-25T17:08:41.113Z</time></trkpt><trkpt lat="44.7456467" lon="8.060405"><ele>154.6</ele><time>2026-04-25T17:08:43.113Z</time></trkpt><trkpt lat="44.7456833" lon="8.0603017"><ele>154.4</ele><time>2026-04-25T17:08:44.113Z</time></trkpt><trkpt lat="44.74571" lon="8.0601817"><ele>154.2</ele><time>2026-04-25T17:08:45.113Z</time></trkpt><trkpt lat="44.745745" lon="8.0600433"><ele>154.0</ele><time>2026-04-25T17:08:46.113Z</time></trkpt><trkpt lat="44.7457883" lon="8.059905"><ele>154.0</ele><time>2026-04-25T17:08:47.113Z</time></trkpt><trkpt lat="44.7458417" lon="8.059755"><ele>154.0</ele><time>2026-04-25T17:08:48.113Z</time></trkpt><trkpt lat="44.7459133" lon="8.0595817"><ele>154.0</ele><time>2026-04-25T17:08:49.113Z</time></trkpt><trkpt lat="44.7459983" lon="8.0593767"><ele>154.0</ele><time>2026-04-25T17:08:50.113Z</time></trkpt><trkpt lat="44.7461017" lon="8.0591583"><ele>154.66666666666669</ele><time>2026-04-25T17:08:51.113Z</time></trkpt><trkpt lat="44.746205" lon="8.0589417"><ele>155.33333333333334</ele><time>2026-04-25T17:08:52.113Z</time></trkpt><trkpt lat="44.7463" lon="8.0587317"><ele>156.0</ele><time>2026-04-25T17:08:53.113Z</time></trkpt><trkpt lat="44.7463933" lon="8.0585317"><ele>156.0</ele><time>2026-04-25T17:08:54.113Z</time></trkpt><trkpt lat="44.7464917" lon="8.0583217"><ele>156.0</ele><time>2026-04-25T17:08:55.113Z</time></trkpt><trkpt lat="44.7465833" lon="8.0581233"><ele>156.0</ele><time>2026-04-25T17:08:56.113Z</time></trkpt><trkpt lat="44.7466783" lon="8.0579233"><ele>156.33333333333334</ele><time>2026-04-25T17:08:57.113Z</time></trkpt><trkpt lat="44.7467667" lon="8.0577167"><ele>156.66666666666669</ele><time>2026-04-25T17:08:58.113Z</time></trkpt><trkpt lat="44.7468617" lon="8.057505"><ele>157.0</ele><time>2026-04-25T17:08:59.113Z</time></trkpt><trkpt lat="44.7469517" lon="8.0572967"><ele>157.33333333333334</ele><time>2026-04-25T17:09:00.113Z</time></trkpt><trkpt lat="44.7470483" lon="8.0570917"><ele>157.66666666666666</ele><time>2026-04-25T17:09:01.113Z</time></trkpt><trkpt lat="44.747135" lon="8.0568933"><ele>158.0</ele><time>2026-04-25T17:09:02.113Z</time></trkpt><trkpt lat="44.747215" lon="8.0566917"><ele>158.66666666666666</ele><time>2026-04-25T17:09:03.113Z</time></trkpt><trkpt lat="44.7473033" lon="8.0564967"><ele>159.33333333333334</ele><time>2026-04-25T17:09:04.113Z</time></trkpt><trkpt lat="44.7473883" lon="8.0563"><ele>160.0</ele><time>2026-04-25T17:09:05.113Z</time></trkpt><trkpt lat="44.747475" lon="8.0561033"><ele>160.0</ele><time>2026-04-25T17:09:06.113Z</time></trkpt><trkpt lat="44.747565" lon="8.0559017"><ele>160.0</ele><time>2026-04-25T17:09:07.113Z</time></trkpt><trkpt lat="44.74765" lon="8.0557067"><ele>160.0</ele><time>2026-04-25T17:09:08.113Z</time></trkpt><trkpt lat="44.7477233" lon="8.055525"><ele>160.66666666666669</ele><time>2026-04-25T17:09:09.113Z</time></trkpt><trkpt lat="44.7478067" lon="8.0553417"><ele>161.33333333333334</ele><time>2026-04-25T17:09:10.113Z</time></trkpt><trkpt lat="44.7478833" lon="8.0551683"><ele>162.0</ele><time>2026-04-25T17:09:11.113Z</time></trkpt><trkpt lat="44.7479667" lon="8.0549833"><ele>162.66666666666666</ele><time>2026-04-25T17:09:12.113Z</time></trkpt><trkpt lat="44.7480483" lon="8.0547967"><ele>163.33333333333331</ele><time>2026-04-25T17:09:13.113Z</time></trkpt><trkpt lat="44.74813" lon="8.0546167"><ele>164.0</ele><time>2026-04-25T17:09:14.113Z</time></trkpt><trkpt lat="44.7482133" lon="8.0544333"><ele>164.0</ele><time>2026-04-25T17:09:15.113Z</time></trkpt><trkpt lat="44.7483067" lon="8.0542367"><ele>164.0</ele><time>2026-04-25T17:09:16.113Z</time></trkpt><trkpt lat="44.74839" lon="8.0540483"><ele>164.0</ele><time>2026-04-25T17:09:17.113Z</time></trkpt><trkpt lat="44.748475" lon="8.0538517"><ele>165.0</ele><time>2026-04-25T17:09:18.113Z</time></trkpt><trkpt lat="44.7485583" lon="8.0536583"><ele>166.0</ele><time>2026-04-25T17:09:19.113Z</time></trkpt><trkpt lat="44.7486467" lon="8.053465"><ele>167.0</ele><time>2026-04-25T17:09:20.113Z</time></trkpt><trkpt lat="44.74873" lon="8.0532733"><ele>167.0</ele><time>2026-04-25T17:09:21.113Z</time></trkpt><trkpt lat="44.748825" lon="8.0530833"><ele>167.0</ele><time>2026-04-25T17:09:22.113Z</time></trkpt><trkpt lat="44.7489133" lon="8.0528867"><ele>167.0</ele><time>2026-04-25T17:09:23.113Z</time></trkpt><trkpt lat="44.749" lon="8.0526983"><ele>167.0</ele><time>2026-04-25T17:09:24.113Z</time></trkpt><trkpt lat="44.74909" lon="8.052525"><ele>167.0</ele><time>2026-04-25T17:09:25.113Z</time></trkpt><trkpt lat="44.749175" lon="8.0523867"><ele>167.0</ele><time>2026-04-25T17:09:26.113Z</time></trkpt><trkpt lat="44.7492717" lon="8.0522783"><ele>167.0</ele><time>2026-04-25T17:09:27.113Z</time></trkpt><trkpt lat="44.74936" lon="8.0521767"><ele>168.0</ele><time>2026-04-25T17:09:28.113Z</time></trkpt><trkpt lat="44.7494467" lon="8.0521033"><ele>169.0</ele><time>2026-04-25T17:09:29.113Z</time></trkpt><trkpt lat="44.749535" lon="8.052035"><ele>170.0</ele><time>2026-04-25T17:09:30.113Z</time></trkpt><trkpt lat="44.7496217" lon="8.05197"><ele>171.0</ele><time>2026-04-25T17:09:31.113Z</time></trkpt><trkpt lat="44.7497033" lon="8.0518783"><ele>172.0</ele><time>2026-04-25T17:09:32.113Z</time></trkpt><trkpt lat="44.7498017" lon="8.05179"><ele>172.0</ele><time>2026-04-25T17:09:33.113Z</time></trkpt><trkpt lat="44.7499133" lon="8.0517133"><ele>172.0</ele><time>2026-04-25T17:09:34.113Z</time></trkpt><trkpt lat="44.75004" lon="8.05164"><ele>172.0</ele><time>2026-04-25T17:09:35.113Z</time></trkpt><trkpt lat="44.750165" lon="8.0515567"><ele>172.0</ele><time>2026-04-25T17:09:36.113Z</time></trkpt><trkpt lat="44.750295" lon="8.051475"><ele>174.5</ele><time>2026-04-25T17:09:37.113Z</time></trkpt><trkpt lat="44.750425" lon="8.0513817"><ele>177.0</ele><time>2026-04-25T17:09:38.113Z</time></trkpt><trkpt lat="44.750545" lon="8.0512883"><ele>179.5</ele><time>2026-04-25T17:09:39.113Z</time></trkpt><trkpt lat="44.75067" lon="8.0511867"><ele>182.0</ele><time>2026-04-25T17:09:40.113Z</time></trkpt><trkpt lat="44.7507917" lon="8.0510667"><ele>182.0</ele><time>2026-04-25T17:09:41.113Z</time></trkpt><trkpt lat="44.7509083" lon="8.0509333"><ele>182.0</ele><time>2026-04-25T17:09:42.113Z</time></trkpt><trkpt lat="44.7510267" lon="8.050795"><ele>182.0</ele><time>2026-04-25T17:09:43.113Z</time></trkpt><trkpt lat="44.751145" lon="8.05066"><ele>183.0</ele><time>2026-04-25T17:09:44.113Z</time></trkpt><trkpt lat="44.7512517" lon="8.0505233"><ele>184.0</ele><time>2026-04-25T17:09:45.113Z</time></trkpt><trkpt lat="44.7513567" lon="8.0503883"><ele>185.0</ele><time>2026-04-25T17:09:46.113Z</time></trkpt><trkpt lat="44.7514567" lon="8.0502567"><ele>186.0</ele><time>2026-04-25T17:09:47.113Z</time></trkpt><trkpt lat="44.7515483" lon="8.05012"><ele>186.0</ele><time>2026-04-25T17:09:48.113Z</time></trkpt><trkpt lat="44.7516333" lon="8.0499783"><ele>186.0</ele><time>2026-04-25T17:09:49.113Z</time></trkpt><trkpt lat="44.7517267" lon="8.049835"><ele>186.0</ele><time>2026-04-25T17:09:50.113Z</time></trkpt><trkpt lat="44.7518167" lon="8.0496967"><ele>186.0</ele><time>2026-04-25T17:09:51.114Z</time></trkpt><trkpt lat="44.7519117" lon="8.0495717"><ele>190.5</ele><time>2026-04-25T17:09:52.113Z</time></trkpt><trkpt lat="44.7520167" lon="8.0494817"><ele>195.0</ele><time>2026-04-25T17:09:53.113Z</time></trkpt><trkpt lat="44.7521267" lon="8.0494367"><ele>199.5</ele><time>2026-04-25T17:09:54.113Z</time></trkpt><trkpt lat="44.7522533" lon="8.049425"><ele>204.0</ele><time>2026-04-25T17:09:55.113Z</time></trkpt><trkpt lat="44.7523717" lon="8.0494717"><ele>204.0</ele><time>2026-04-25T17:09:56.113Z</time></trkpt><trkpt lat="44.752475" lon="8.0495783"><ele>204.0</ele><time>2026-04-25T17:09:57.113Z</time></trkpt><trkpt lat="44.75256" lon="8.04972"><ele>204.0</ele><time>2026-04-25T17:09:58.113Z</time></trkpt><trkpt lat="44.7526383" lon="8.04988"><ele>204.0</ele><time>2026-04-25T17:09:59.113Z</time></trkpt><trkpt lat="44.7527133" lon="8.0500433"><ele>205.5</ele><time>2026-04-25T17:10:00.113Z</time></trkpt><trkpt lat="44.7527967" lon="8.050195"><ele>207.0</ele><time>2026-04-25T17:10:01.113Z</time></trkpt><trkpt lat="44.75287" lon="8.050335"><ele>208.5</ele><time>2026-04-25T17:10:02.113Z</time></trkpt><trkpt lat="44.7529433" lon="8.0504683"><ele>210.0</ele><time>2026-04-25T17:10:03.113Z</time></trkpt><trkpt lat="44.7530117" lon="8.0505933"><ele>210.0</ele><time>2026-04-25T17:10:04.113Z</time></trkpt><trkpt lat="44.7530683" lon="8.050715"><ele>210.0</ele><time>2026-04-25T17:10:05.113Z</time></trkpt><trkpt lat="44.75312" lon="8.0508167"><ele>210.0</ele><time>2026-04-25T17:10:06.113Z</time></trkpt><trkpt lat="44.75317" lon="8.0509"><ele>210.0</ele><time>2026-04-25T17:10:07.113Z</time></trkpt><trkpt lat="44.7532283" lon="8.050955"><ele>210.0</ele><time>2026-04-25T17:10:08.113Z</time></trkpt><trkpt lat="44.7533383" lon="8.0509733"><ele>210.0</ele><time>2026-04-25T17:10:10.113Z</time></trkpt><trkpt lat="44.7534217" lon="8.05084"><ele>210.0</ele><time>2026-04-25T17:10:12.113Z</time></trkpt><trkpt lat="44.7534267" lon="8.050735"><ele>210.0</ele><time>2026-04-25T17:10:13.113Z</time></trkpt><trkpt lat="44.753405" lon="8.05063"><ele>210.0</ele><time>2026-04-25T17:10:14.113Z</time></trkpt><trkpt lat="44.753345" lon="8.0505067"><ele>210.0</ele><time>2026-04-25T17:10:15.113Z</time></trkpt><trkpt lat="44.7532667" lon="8.0503733"><ele>210.0</ele><time>2026-04-25T17:10:16.113Z</time></trkpt><trkpt lat="44.7531783" lon="8.0502383"><ele>210.0</ele><time>2026-04-25T17:10:17.113Z</time></trkpt><trkpt lat="44.7531017" lon="8.0501067"><ele>210.0</ele><time>2026-04-25T17:10:18.113Z</time></trkpt><trkpt lat="44.7530367" lon="8.0499667"><ele>210.0</ele><time>2026-04-25T17:10:19.113Z</time></trkpt><trkpt lat="44.7529817" lon="8.0498233"><ele>211.75</ele><time>2026-04-25T17:10:20.113Z</time></trkpt><trkpt lat="44.752935" lon="8.0496617"><ele>213.5</ele><time>2026-04-25T17:10:21.113Z</time></trkpt><trkpt lat="44.752905" lon="8.0494767"><ele>215.25</ele><time>2026-04-25T17:10:22.113Z</time></trkpt><trkpt lat="44.752865" lon="8.0493117"><ele>217.0</ele><time>2026-04-25T17:10:23.113Z</time></trkpt><trkpt lat="44.7528383" lon="8.0491767"><ele>217.75</ele><time>2026-04-25T17:10:24.113Z</time></trkpt><trkpt lat="44.75282" lon="8.0490383"><ele>218.5</ele><time>2026-04-25T17:10:25.113Z</time></trkpt><trkpt lat="44.7528133" lon="8.0488817"><ele>219.25</ele><time>2026-04-25T17:10:26.113Z</time></trkpt><trkpt lat="44.752825" lon="8.0487167"><ele>220.0</ele><time>2026-04-25T17:10:27.113Z</time></trkpt><trkpt lat="44.752865" lon="8.0485567"><ele>220.0</ele><time>2026-04-25T17:10:28.113Z</time></trkpt><trkpt lat="44.752925" lon="8.048415"><ele>220.0</ele><time>2026-04-25T17:10:29.113Z</time></trkpt><trkpt lat="44.752995" lon="8.0482817"><ele>220.0</ele><time>2026-04-25T17:10:30.113Z</time></trkpt><trkpt lat="44.7530733" lon="8.048155"><ele>220.0</ele><time>2026-04-25T17:10:31.113Z</time></trkpt><trkpt lat="44.7531783" lon="8.048035"><ele>219.75</ele><time>2026-04-25T17:10:32.113Z</time></trkpt><trkpt lat="44.7532717" lon="8.0479117"><ele>219.5</ele><time>2026-04-25T17:10:33.113Z</time></trkpt><trkpt lat="44.753365" lon="8.0477867"><ele>219.25</ele><time>2026-04-25T17:10:34.113Z</time></trkpt><trkpt lat="44.7534533" lon="8.0476683"><ele>219.0</ele><time>2026-04-25T17:10:35.113Z</time></trkpt><trkpt lat="44.7535467" lon="8.0475383"><ele>220.25</ele><time>2026-04-25T17:10:36.113Z</time></trkpt><trkpt lat="44.7536417" lon="8.04742"><ele>221.5</ele><time>2026-04-25T17:10:37.113Z</time></trkpt><trkpt lat="44.75374" lon="8.0472783"><ele>222.75</ele><time>2026-04-25T17:10:38.113Z</time></trkpt><trkpt lat="44.753835" lon="8.04712"><ele>224.0</ele><time>2026-04-25T17:10:39.113Z</time></trkpt><trkpt lat="44.7539283" lon="8.0469533"><ele>224.0</ele><time>2026-04-25T17:10:40.113Z</time></trkpt><trkpt lat="44.7540317" lon="8.04679"><ele>224.0</ele><time>2026-04-25T17:10:41.113Z</time></trkpt><trkpt lat="44.7541317" lon="8.046625"><ele>224.0</ele><time>2026-04-25T17:10:42.113Z</time></trkpt><trkpt lat="44.7542333" lon="8.04647"><ele>225.33333333333334</ele><time>2026-04-25T17:10:43.113Z</time></trkpt><trkpt lat="44.7543333" lon="8.0463067"><ele>226.66666666666669</ele><time>2026-04-25T17:10:44.113Z</time></trkpt><trkpt lat="44.7544267" lon="8.0461467"><ele>228.0</ele><time>2026-04-25T17:10:45.113Z</time></trkpt><trkpt lat="44.7545233" lon="8.045985"><ele>228.0</ele><time>2026-04-25T17:10:46.113Z</time></trkpt><trkpt lat="44.754625" lon="8.045815"><ele>228.0</ele><time>2026-04-25T17:10:47.113Z</time></trkpt><trkpt lat="44.7547233" lon="8.0456583"><ele>228.0</ele><time>2026-04-25T17:10:48.113Z</time></trkpt><trkpt lat="44.7548183" lon="8.0455033"><ele>229.25</ele><time>2026-04-25T17:10:49.113Z</time></trkpt><trkpt lat="44.754915" lon="8.0453517"><ele>230.5</ele><time>2026-04-25T17:10:50.113Z</time></trkpt><trkpt lat="44.7550167" lon="8.0451967"><ele>231.75</ele><time>2026-04-25T17:10:51.113Z</time></trkpt><trkpt lat="44.7551117" lon="8.0450317"><ele>233.0</ele><time>2026-04-25T17:10:52.113Z</time></trkpt><trkpt lat="44.7551983" lon="8.0448583"><ele>229.66666666666669</ele><time>2026-04-25T17:10:53.113Z</time></trkpt><trkpt lat="44.7552783" lon="8.0446767"><ele>226.33333333333331</ele><time>2026-04-25T17:10:54.113Z</time></trkpt><trkpt lat="44.7553567" lon="8.044485"><ele>223.0</ele><time>2026-04-25T17:10:55.113Z</time></trkpt><trkpt lat="44.7554283" lon="8.0442983"><ele>224.0</ele><time>2026-04-25T17:10:56.113Z</time></trkpt><trkpt lat="44.7555067" lon="8.0441233"><ele>225.0</ele><time>2026-04-25T17:10:57.113Z</time></trkpt><trkpt lat="44.7555817" lon="8.043945"><ele>226.0</ele><time>2026-04-25T17:10:58.113Z</time></trkpt><trkpt lat="44.7556517" lon="8.043775"><ele>227.0</ele><time>2026-04-25T17:10:59.113Z</time></trkpt><trkpt lat="44.7557233" lon="8.0436017"><ele>227.0</ele><time>2026-04-25T17:11:00.113Z</time></trkpt><trkpt lat="44.7557917" lon="8.0434233"><ele>227.0</ele><time>2026-04-25T17:11:01.113Z</time></trkpt><trkpt lat="44.7558417" lon="8.043235"><ele>227.0</ele><time>2026-04-25T17:11:02.113Z</time></trkpt><trkpt lat="44.7558717" lon="8.0430433"><ele>227.0</ele><time>2026-04-25T17:11:03.113Z</time></trkpt><trkpt lat="44.7558717" lon="8.0428267"><ele>228.33333333333334</ele><time>2026-04-25T17:11:04.113Z</time></trkpt><trkpt lat="44.75586" lon="8.0426117"><ele>229.66666666666669</ele><time>2026-04-25T17:11:05.113Z</time></trkpt><trkpt lat="44.7558267" lon="8.0423917"><ele>231.0</ele><time>2026-04-25T17:11:06.113Z</time></trkpt><trkpt lat="44.75578" lon="8.0421867"><ele>231.25</ele><time>2026-04-25T17:11:07.113Z</time></trkpt><trkpt lat="44.7557383" lon="8.041985"><ele>231.5</ele><time>2026-04-25T17:11:08.113Z</time></trkpt><trkpt lat="44.755705" lon="8.041775"><ele>231.75</ele><time>2026-04-25T17:11:09.113Z</time></trkpt><trkpt lat="44.7556617" lon="8.0415767"><ele>232.0</ele><time>2026-04-25T17:11:10.113Z</time></trkpt><trkpt lat="44.75563" lon="8.0413867"><ele>233.25</ele><time>2026-04-25T17:11:11.113Z</time></trkpt><trkpt lat="44.7556217" lon="8.041205"><ele>234.5</ele><time>2026-04-25T17:11:12.113Z</time></trkpt><trkpt lat="44.75563" lon="8.0410317"><ele>235.75</ele><time>2026-04-25T17:11:13.113Z</time></trkpt><trkpt lat="44.7556717" lon="8.0408467"><ele>237.0</ele><time>2026-04-25T17:11:14.113Z</time></trkpt><trkpt lat="44.7557367" lon="8.0406683"><ele>239.5</ele><time>2026-04-25T17:11:15.113Z</time></trkpt><trkpt lat="44.7558183" lon="8.040505"><ele>242.0</ele><time>2026-04-25T17:11:16.113Z</time></trkpt><trkpt lat="44.7559333" lon="8.040385"><ele>244.5</ele><time>2026-04-25T17:11:17.113Z</time></trkpt><trkpt lat="44.756065" lon="8.0402933"><ele>247.0</ele><time>2026-04-25T17:11:18.113Z</time></trkpt><trkpt lat="44.7562033" lon="8.04026"><ele>248.0</ele><time>2026-04-25T17:11:19.113Z</time></trkpt><trkpt lat="44.7563367" lon="8.0402483"><ele>249.0</ele><time>2026-04-25T17:11:20.113Z</time></trkpt><trkpt lat="44.75647" lon="8.040245"><ele>250.0</ele><time>2026-04-25T17:11:21.113Z</time></trkpt><trkpt lat="44.756595" lon="8.040245"><ele>251.0</ele><time>2026-04-25T17:11:22.113Z</time></trkpt><trkpt lat="44.756705" lon="8.0402517"><ele>251.00000000000003</ele><time>2026-04-25T17:11:23.113Z</time></trkpt><trkpt lat="44.7568033" lon="8.0402533"><ele>251.0</ele><time>2026-04-25T17:11:24.113Z</time></trkpt><trkpt lat="44.7568833" lon="8.0402417"><ele>251.0</ele><time>2026-04-25T17:11:25.113Z</time></trkpt><trkpt lat="44.75694" lon="8.0401917"><ele>251.0</ele><time>2026-04-25T17:11:26.113Z</time></trkpt><trkpt lat="44.756965" lon="8.04003"><ele>251.00000000000003</ele><time>2026-04-25T17:11:28.113Z</time></trkpt><trkpt lat="44.75691" lon="8.0399517"><ele>251.0</ele><time>2026-04-25T17:11:29.113Z</time></trkpt><trkpt lat="44.7568233" lon="8.0399017"><ele>253.0</ele><time>2026-04-25T17:11:30.113Z</time></trkpt><trkpt lat="44.7567217" lon="8.0398733"><ele>255.00000000000003</ele><time>2026-04-25T17:11:31.113Z</time></trkpt><trkpt lat="44.7566283" lon="8.039835"><ele>257.0</ele><time>2026-04-25T17:11:32.113Z</time></trkpt><trkpt lat="44.7565533" lon="8.039775"><ele>259.0</ele><time>2026-04-25T17:11:33.113Z</time></trkpt><trkpt lat="44.756505" lon="8.039705"><ele>261.0</ele><time>2026-04-25T17:11:34.113Z</time></trkpt><trkpt lat="44.7565117" lon="8.0395583"><ele>261.0</ele><time>2026-04-25T17:11:36.113Z</time></trkpt><trkpt lat="44.7566317" lon="8.0395"><ele>261.0</ele><time>2026-04-25T17:11:38.113Z</time></trkpt><trkpt lat="44.756715" lon="8.0395267"><ele>261.0</ele><time>2026-04-25T17:11:39.113Z</time></trkpt><trkpt lat="44.7568183" lon="8.0396"><ele>261.0</ele><time>2026-04-25T17:11:40.113Z</time></trkpt><trkpt lat="44.7569233" lon="8.039675"><ele>261.0</ele><time>2026-04-25T17:11:41.113Z</time></trkpt><trkpt lat="44.7570417" lon="8.0397467"><ele>264.25</ele><time>2026-04-25T17:11:42.113Z</time></trkpt><trkpt lat="44.7571617" lon="8.03981"><ele>267.5</ele><time>2026-04-25T17:11:43.113Z</time></trkpt><trkpt lat="44.7572783" lon="8.0398567"><ele>270.75</ele><time>2026-04-25T17:11:44.113Z</time></trkpt><trkpt lat="44.75739" lon="8.039875"><ele>274.0</ele><time>2026-04-25T17:11:45.113Z</time></trkpt><trkpt lat="44.75751" lon="8.0398617"><ele>274.0</ele><time>2026-04-25T17:11:46.113Z</time></trkpt><trkpt lat="44.7576183" lon="8.03985"><ele>274.0</ele><time>2026-04-25T17:11:47.113Z</time></trkpt><trkpt lat="44.75773" lon="8.0398417"><ele>274.0</ele><time>2026-04-25T17:11:48.113Z</time></trkpt><trkpt lat="44.7578317" lon="8.03984"><ele>274.0</ele><time>2026-04-25T17:11:49.113Z</time></trkpt><trkpt lat="44.75792" lon="8.0398267"><ele>274.0</ele><time>2026-04-25T17:11:50.113Z</time></trkpt><trkpt lat="44.7580017" lon="8.0397967"><ele>274.0</ele><time>2026-04-25T17:11:51.113Z</time></trkpt><trkpt lat="44.7580533" lon="8.03974"><ele>274.0</ele><time>2026-04-25T17:11:52.113Z</time></trkpt><trkpt lat="44.7580617" lon="8.0396017"><ele>274.0</ele><time>2026-04-25T17:11:54.113Z</time></trkpt><trkpt lat="44.7580117" lon="8.0395333"><ele>274.0</ele><time>2026-04-25T17:11:55.113Z</time></trkpt><trkpt lat="44.7579183" lon="8.03949"><ele>274.0</ele><time>2026-04-25T17:11:56.113Z</time></trkpt><trkpt lat="44.7578117" lon="8.0394717"><ele>274.0</ele><time>2026-04-25T17:11:57.113Z</time></trkpt><trkpt lat="44.7577" lon="8.0394633"><ele>274.0</ele><time>2026-04-25T17:11:58.113Z</time></trkpt><trkpt lat="44.7575867" lon="8.0394517"><ele>274.0</ele><time>2026-04-25T17:11:59.113Z</time></trkpt><trkpt lat="44.75748" lon="8.0394117"><ele>274.0</ele><time>2026-04-25T17:12:00.113Z</time></trkpt><trkpt lat="44.757385" lon="8.0393433"><ele>274.0</ele><time>2026-04-25T17:12:01.113Z</time></trkpt><trkpt lat="44.75731" lon="8.0392533"><ele>274.0</ele><time>2026-04-25T17:12:02.113Z</time></trkpt><trkpt lat="44.75725" lon="8.03914"><ele>275.25</ele><time>2026-04-25T17:12:03.113Z</time></trkpt><trkpt lat="44.7571983" lon="8.038985"><ele>276.5</ele><time>2026-04-25T17:12:04.113Z</time></trkpt><trkpt lat="44.75715" lon="8.0387883"><ele>277.75</ele><time>2026-04-25T17:12:05.113Z</time></trkpt><trkpt lat="44.757115" lon="8.03854"><ele>279.0</ele><time>2026-04-25T17:12:06.113Z</time></trkpt><trkpt lat="44.7570833" lon="8.0382733"><ele>279.0</ele><time>2026-04-25T17:12:07.113Z</time></trkpt><trkpt lat="44.7570517" lon="8.0380267"><ele>279.0</ele><time>2026-04-25T17:12:08.113Z</time></trkpt><trkpt lat="44.7570233" lon="8.03778"><ele>279.0</ele><time>2026-04-25T17:12:09.113Z</time></trkpt><trkpt lat="44.7569917" lon="8.037565"><ele>278.0</ele><time>2026-04-25T17:12:10.113Z</time></trkpt><trkpt lat="44.7569483" lon="8.037365"><ele>277.0</ele><time>2026-04-25T17:12:11.113Z</time></trkpt><trkpt lat="44.7569067" lon="8.0371833"><ele>276.0</ele><time>2026-04-25T17:12:12.113Z</time></trkpt><trkpt lat="44.7568567" lon="8.0370017"><ele>275.0</ele><time>2026-04-25T17:12:13.113Z</time></trkpt><trkpt lat="44.75679" lon="8.0368217"><ele>277.75</ele><time>2026-04-25T17:12:14.113Z</time></trkpt><trkpt lat="44.7567067" lon="8.0366583"><ele>280.5</ele><time>2026-04-25T17:12:15.113Z</time></trkpt><trkpt lat="44.75661" lon="8.0365117"><ele>283.25</ele><time>2026-04-25T17:12:16.113Z</time></trkpt><trkpt lat="44.7565117" lon="8.0363633"><ele>286.0</ele><time>2026-04-25T17:12:17.113Z</time></trkpt><trkpt lat="44.75641" lon="8.036215"><ele>286.0</ele><time>2026-04-25T17:12:18.113Z</time></trkpt><trkpt lat="44.7563167" lon="8.0360583"><ele>286.0</ele><time>2026-04-25T17:12:19.113Z</time></trkpt><trkpt lat="44.75623" lon="8.0358967"><ele>286.0</ele><time>2026-04-25T17:12:20.113Z</time></trkpt><trkpt lat="44.7561633" lon="8.0357167"><ele>286.0</ele><time>2026-04-25T17:12:21.113Z</time></trkpt><trkpt lat="44.756095" lon="8.035545"><ele>288.0</ele><time>2026-04-25T17:12:22.113Z</time></trkpt><trkpt lat="44.7560283" lon="8.0353683"><ele>290.0</ele><time>2026-04-25T17:12:23.113Z</time></trkpt><trkpt lat="44.7559617" lon="8.0352017"><ele>292.0</ele><time>2026-04-25T17:12:24.113Z</time></trkpt><trkpt lat="44.7558983" lon="8.035045"><ele>294.0</ele><time>2026-04-25T17:12:25.113Z</time></trkpt><trkpt lat="44.7558467" lon="8.0349"><ele>295.0</ele><time>2026-04-25T17:12:26.113Z</time></trkpt><trkpt lat="44.7558167" lon="8.034755"><ele>296.0</ele><time>2026-04-25T17:12:27.113Z</time></trkpt><trkpt lat="44.755805" lon="8.0345933"><ele>297.0</ele><time>2026-04-25T17:12:28.113Z</time></trkpt><trkpt lat="44.7558133" lon="8.034435"><ele>298.0</ele><time>2026-04-25T17:12:29.113Z</time></trkpt><trkpt lat="44.75586" lon="8.03429"><ele>299.0</ele><time>2026-04-25T17:12:30.113Z</time></trkpt><trkpt lat="44.7559383" lon="8.03416"><ele>301.25</ele><time>2026-04-25T17:12:31.113Z</time></trkpt><trkpt lat="44.75604" lon="8.0340483"><ele>303.5</ele><time>2026-04-25T17:12:32.113Z</time></trkpt><trkpt lat="44.7561517" lon="8.0339617"><ele>305.75</ele><time>2026-04-25T17:12:33.113Z</time></trkpt><trkpt lat="44.7562667" lon="8.03388"><ele>308.0</ele><time>2026-04-25T17:12:34.113Z</time></trkpt><trkpt lat="44.7563783" lon="8.03381"><ele>308.0</ele><time>2026-04-25T17:12:35.114Z</time></trkpt><trkpt lat="44.75648" lon="8.0337367"><ele>308.0</ele><time>2026-04-25T17:12:36.113Z</time></trkpt><trkpt lat="44.7565767" lon="8.0336733"><ele>308.0</ele><time>2026-04-25T17:12:37.113Z</time></trkpt><trkpt lat="44.7566683" lon="8.0336083"><ele>308.0</ele><time>2026-04-25T17:12:38.113Z</time></trkpt><trkpt lat="44.7567433" lon="8.03354"><ele>308.0</ele><time>2026-04-25T17:12:39.113Z</time></trkpt><trkpt lat="44.75681" lon="8.033465"><ele>308.0</ele><time>2026-04-25T17:12:40.113Z</time></trkpt><trkpt lat="44.7568583" lon="8.0333733"><ele>308.0</ele><time>2026-04-25T17:12:41.113Z</time></trkpt><trkpt lat="44.75691" lon="8.0332633"><ele>308.0</ele><time>2026-04-25T17:12:42.113Z</time></trkpt><trkpt lat="44.756975" lon="8.0331517"><ele>308.0</ele><time>2026-04-25T17:12:43.113Z</time></trkpt><trkpt lat="44.757035" lon="8.033035"><ele>308.0</ele><time>2026-04-25T17:12:44.113Z</time></trkpt><trkpt lat="44.75711" lon="8.0329183"><ele>307.75</ele><time>2026-04-25T17:12:45.113Z</time></trkpt><trkpt lat="44.7572" lon="8.0327917"><ele>307.5</ele><time>2026-04-25T17:12:46.113Z</time></trkpt><trkpt lat="44.75729" lon="8.032665"><ele>307.25</ele><time>2026-04-25T17:12:47.113Z</time></trkpt><trkpt lat="44.7573917" lon="8.0325483"><ele>307.0</ele><time>2026-04-25T17:12:48.113Z</time></trkpt><trkpt lat="44.7575033" lon="8.03244"><ele>306.25</ele><time>2026-04-25T17:12:49.113Z</time></trkpt><trkpt lat="44.7576217" lon="8.03234"><ele>305.5</ele><time>2026-04-25T17:12:50.113Z</time></trkpt><trkpt lat="44.757745" lon="8.032245"><ele>304.75</ele><time>2026-04-25T17:12:51.113Z</time></trkpt><trkpt lat="44.7578733" lon="8.0321367"><ele>304.0</ele><time>2026-04-25T17:12:52.113Z</time></trkpt><trkpt lat="44.7580067" lon="8.0320633"><ele>304.0</ele><time>2026-04-25T17:12:53.113Z</time></trkpt><trkpt lat="44.7581433" lon="8.03199"><ele>304.0</ele><time>2026-04-25T17:12:54.113Z</time></trkpt><trkpt lat="44.75829" lon="8.031925"><ele>304.0</ele><time>2026-04-25T17:12:55.113Z</time></trkpt><trkpt lat="44.7584417" lon="8.0318667"><ele>299.3333333333333</ele><time>2026-04-25T17:12:56.113Z</time></trkpt><trkpt lat="44.75859" lon="8.0318133"><ele>294.6666666666667</ele><time>2026-04-25T17:12:57.113Z</time></trkpt><trkpt lat="44.7587417" lon="8.0317733"><ele>290.0</ele><time>2026-04-25T17:12:58.113Z</time></trkpt><trkpt lat="44.7588933" lon="8.0317233"><ele>290.0</ele><time>2026-04-25T17:12:59.112Z</time></trkpt><trkpt lat="44.7590433" lon="8.0316883"><ele>290.0</ele><time>2026-04-25T17:13:00.112Z</time></trkpt><trkpt lat="44.759195" lon="8.0316783"><ele>290.0</ele><time>2026-04-25T17:13:01.112Z</time></trkpt><trkpt lat="44.7593467" lon="8.031675"><ele>287.33333333333337</ele><time>2026-04-25T17:13:02.112Z</time></trkpt><trkpt lat="44.7595017" lon="8.0316917"><ele>284.6666666666667</ele><time>2026-04-25T17:13:03.112Z</time></trkpt><trkpt lat="44.75965" lon="8.0317183"><ele>282.0</ele><time>2026-04-25T17:13:04.113Z</time></trkpt><trkpt lat="44.7598" lon="8.0317633"><ele>282.0</ele><time>2026-04-25T17:13:05.112Z</time></trkpt><trkpt lat="44.7599483" lon="8.0318067"><ele>282.0</ele><time>2026-04-25T17:13:06.112Z</time></trkpt><trkpt lat="44.7601033" lon="8.03185"><ele>282.0</ele><time>2026-04-25T17:13:07.112Z</time></trkpt><trkpt lat="44.760275" lon="8.0318967"><ele>279.6666666666667</ele><time>2026-04-25T17:13:08.112Z</time></trkpt><trkpt lat="44.7604467" lon="8.03194"><ele>277.33333333333337</ele><time>2026-04-25T17:13:09.112Z</time></trkpt><trkpt lat="44.760625" lon="8.0319767"><ele>275.0</ele><time>2026-04-25T17:13:10.112Z</time></trkpt><trkpt lat="44.7608033" lon="8.0320233"><ele>275.0</ele><time>2026-04-25T17:13:11.113Z</time></trkpt><trkpt lat="44.760985" lon="8.032075"><ele>275.0</ele><time>2026-04-25T17:13:12.112Z</time></trkpt><trkpt lat="44.7611667" lon="8.0321267"><ele>275.0</ele><time>2026-04-25T17:13:13.112Z</time></trkpt><trkpt lat="44.7613533" lon="8.03217"><ele>272.33333333333337</ele><time>2026-04-25T17:13:14.112Z</time></trkpt><trkpt lat="44.7615417" lon="8.0322217"><ele>269.6666666666667</ele><time>2026-04-25T17:13:15.112Z</time></trkpt><trkpt lat="44.761725" lon="8.03227"><ele>267.0</ele><time>2026-04-25T17:13:16.112Z</time></trkpt><trkpt lat="44.7619" lon="8.0323167"><ele>263.3333333333333</ele><time>2026-04-25T17:13:17.112Z</time></trkpt><trkpt lat="44.762075" lon="8.032365"><ele>259.66666666666663</ele><time>2026-04-25T17:13:18.112Z</time></trkpt><trkpt lat="44.7622433" lon="8.0324083"><ele>256.0</ele><time>2026-04-25T17:13:19.112Z</time></trkpt><trkpt lat="44.7624083" lon="8.0324517"><ele>255.66666666666666</ele><time>2026-04-25T17:13:20.112Z</time></trkpt><trkpt lat="44.76257" lon="8.03248"><ele>255.33333333333331</ele><time>2026-04-25T17:13:21.112Z</time></trkpt><trkpt lat="44.76272" lon="8.0324767"><ele>255.0</ele><time>2026-04-25T17:13:22.112Z</time></trkpt><trkpt lat="44.76286" lon="8.032425"><ele>253.0</ele><time>2026-04-25T17:13:23.112Z</time></trkpt><trkpt lat="44.7629817" lon="8.032335"><ele>251.0</ele><time>2026-04-25T17:13:24.112Z</time></trkpt><trkpt lat="44.763095" lon="8.0322217"><ele>249.0</ele><time>2026-04-25T17:13:25.112Z</time></trkpt><trkpt lat="44.7631917" lon="8.0320833"><ele>247.0</ele><time>2026-04-25T17:13:26.112Z</time></trkpt><trkpt lat="44.763265" lon="8.03192"><ele>247.0</ele><time>2026-04-25T17:13:27.112Z</time></trkpt><trkpt lat="44.7633283" lon="8.0317333"><ele>247.0</ele><time>2026-04-25T17:13:28.112Z</time></trkpt><trkpt lat="44.7633783" lon="8.0315183"><ele>247.0</ele><time>2026-04-25T17:13:29.112Z</time></trkpt><trkpt lat="44.7634183" lon="8.0313033"><ele>246.75</ele><time>2026-04-25T17:13:30.112Z</time></trkpt><trkpt lat="44.7634517" lon="8.0310983"><ele>246.5</ele><time>2026-04-25T17:13:31.112Z</time></trkpt><trkpt lat="44.7634783" lon="8.0308983"><ele>246.25</ele><time>2026-04-25T17:13:32.112Z</time></trkpt><trkpt lat="44.7634917" lon="8.03071"><ele>246.0</ele><time>2026-04-25T17:13:33.112Z</time></trkpt><trkpt lat="44.7634883" lon="8.0305233"><ele>245.8</ele><time>2026-04-25T17:13:34.112Z</time></trkpt><trkpt lat="44.7634783" lon="8.0303567"><ele>245.60000000000002</ele><time>2026-04-25T17:13:35.112Z</time></trkpt><trkpt lat="44.76347" lon="8.0302217"><ele>245.4</ele><time>2026-04-25T17:13:36.112Z</time></trkpt><trkpt lat="44.76347" lon="8.0301"><ele>245.2</ele><time>2026-04-25T17:13:37.112Z</time></trkpt><trkpt lat="44.7634733" lon="8.0300033"><ele>245.0</ele><time>2026-04-25T17:13:38.112Z</time></trkpt><trkpt lat="44.7635167" lon="8.0298967"><ele>244.83333333333334</ele><time>2026-04-25T17:13:40.112Z</time></trkpt><trkpt lat="44.7635833" lon="8.0299117"><ele>244.66666666666669</ele><time>2026-04-25T17:13:43.112Z</time></trkpt><trkpt lat="44.7637033" lon="8.0299433"><ele>244.5</ele><time>2026-04-25T17:13:46.112Z</time></trkpt><trkpt lat="44.763775" lon="8.029965"><ele>244.33333333333331</ele><time>2026-04-25T17:13:47.112Z</time></trkpt><trkpt lat="44.7638617" lon="8.0299967"><ele>244.16666666666666</ele><time>2026-04-25T17:13:48.112Z</time></trkpt><trkpt lat="44.763955" lon="8.0300267"><ele>244.0</ele><time>2026-04-25T17:13:49.112Z</time></trkpt><trkpt lat="44.76406" lon="8.0300217"><ele>244.0</ele><time>2026-04-25T17:13:50.112Z</time></trkpt><trkpt lat="44.7641717" lon="8.0299917"><ele>244.0</ele><time>2026-04-25T17:13:51.112Z</time></trkpt><trkpt lat="44.7642917" lon="8.029935"><ele>244.0</ele><time>2026-04-25T17:13:52.112Z</time></trkpt><trkpt lat="44.7644217" lon="8.0298733"><ele>244.0</ele><time>2026-04-25T17:13:53.112Z</time></trkpt><trkpt lat="44.7645533" lon="8.0297917"><ele>242.66666666666666</ele><time>2026-04-25T17:13:54.112Z</time></trkpt><trkpt lat="44.7646867" lon="8.0297033"><ele>241.33333333333331</ele><time>2026-04-25T17:13:55.112Z</time></trkpt><trkpt lat="44.7648167" lon="8.029595"><ele>240.0</ele><time>2026-04-25T17:13:56.112Z</time></trkpt><trkpt lat="44.7649517" lon="8.029485"><ele>240.0</ele><time>2026-04-25T17:13:57.112Z</time></trkpt><trkpt lat="44.7650883" lon="8.029385"><ele>240.0</ele><time>2026-04-25T17:13:58.112Z</time></trkpt><trkpt lat="44.765235" lon="8.0293083"><ele>240.0</ele><time>2026-04-25T17:13:59.112Z</time></trkpt><trkpt lat="44.7653867" lon="8.0292333"><ele>240.66666666666669</ele><time>2026-04-25T17:14:00.112Z</time></trkpt><trkpt lat="44.7655433" lon="8.0291583"><ele>241.33333333333334</ele><time>2026-04-25T17:14:01.112Z</time></trkpt><trkpt lat="44.7657017" lon="8.0290833"><ele>242.0</ele><time>2026-04-25T17:14:02.112Z</time></trkpt><trkpt lat="44.7658567" lon="8.0290067"><ele>240.66666666666669</ele><time>2026-04-25T17:14:03.112Z</time></trkpt><trkpt lat="44.76601" lon="8.0289283"><ele>239.33333333333331</ele><time>2026-04-25T17:14:04.112Z</time></trkpt><trkpt lat="44.76616" lon="8.0288583"><ele>238.0</ele><time>2026-04-25T17:14:05.112Z</time></trkpt><trkpt lat="44.7663117" lon="8.0288117"><ele>242.33333333333331</ele><time>2026-04-25T17:14:06.112Z</time></trkpt><trkpt lat="44.76647" lon="8.02877"><ele>246.66666666666669</ele><time>2026-04-25T17:14:07.112Z</time></trkpt><trkpt lat="44.7666317" lon="8.02873"><ele>251.0</ele><time>2026-04-25T17:14:08.112Z</time></trkpt><trkpt lat="44.7667967" lon="8.0286783"><ele>256.6666666666667</ele><time>2026-04-25T17:14:09.112Z</time></trkpt><trkpt lat="44.76696" lon="8.02863"><ele>262.3333333333333</ele><time>2026-04-25T17:14:10.112Z</time></trkpt><trkpt lat="44.767115" lon="8.0285817"><ele>268.0</ele><time>2026-04-25T17:14:11.112Z</time></trkpt><trkpt lat="44.7672783" lon="8.0285467"><ele>268.0</ele><time>2026-04-25T17:14:12.112Z</time></trkpt><trkpt lat="44.767445" lon="8.028525"><ele>268.0</ele><time>2026-04-25T17:14:13.112Z</time></trkpt><trkpt lat="44.7676033" lon="8.0285217"><ele>268.0</ele><time>2026-04-25T17:14:14.112Z</time></trkpt><trkpt lat="44.7677517" lon="8.028555"><ele>270.5</ele><time>2026-04-25T17:14:15.112Z</time></trkpt><trkpt lat="44.767885" lon="8.028585"><ele>273.0</ele><time>2026-04-25T17:14:16.112Z</time></trkpt><trkpt lat="44.7680117" lon="8.0286233"><ele>275.5</ele><time>2026-04-25T17:14:17.112Z</time></trkpt><trkpt lat="44.7681217" lon="8.0286283"><ele>278.0</ele><time>2026-04-25T17:14:18.112Z</time></trkpt><trkpt lat="44.7682167" lon="8.0285983"><ele>278.0</ele><time>2026-04-25T17:14:19.112Z</time></trkpt><trkpt lat="44.7682833" lon="8.0285283"><ele>278.0</ele><time>2026-04-25T17:14:20.112Z</time></trkpt><trkpt lat="44.76832" lon="8.028425"><ele>278.0</ele><time>2026-04-25T17:14:21.112Z</time></trkpt><trkpt lat="44.7683417" lon="8.0282883"><ele>278.0</ele><time>2026-04-25T17:14:22.112Z</time></trkpt><trkpt lat="44.7683333" lon="8.0281117"><ele>278.0</ele><time>2026-04-25T17:14:23.112Z</time></trkpt><trkpt lat="44.7683283" lon="8.0279167"><ele>281.0</ele><time>2026-04-25T17:14:24.112Z</time></trkpt><trkpt lat="44.7683367" lon="8.0277533"><ele>284.0</ele><time>2026-04-25T17:14:25.112Z</time></trkpt><trkpt lat="44.76839" lon="8.0276083"><ele>287.0</ele><time>2026-04-25T17:14:26.112Z</time></trkpt><trkpt lat="44.7684717" lon="8.027475"><ele>290.0</ele><time>2026-04-25T17:14:27.112Z</time></trkpt><trkpt lat="44.7685733" lon="8.02736"><ele>295.0</ele><time>2026-04-25T17:14:28.112Z</time></trkpt><trkpt lat="44.76869" lon="8.027265"><ele>300.0</ele><time>2026-04-25T17:14:29.112Z</time></trkpt><trkpt lat="44.7688117" lon="8.0271783"><ele>305.0</ele><time>2026-04-25T17:14:30.112Z</time></trkpt><trkpt lat="44.7689283" lon="8.02708"><ele>310.0</ele><time>2026-04-25T17:14:31.112Z</time></trkpt><trkpt lat="44.7690333" lon="8.026985"><ele>310.0</ele><time>2026-04-25T17:14:32.112Z</time></trkpt><trkpt lat="44.769135" lon="8.0268783"><ele>310.0</ele><time>2026-04-25T17:14:33.112Z</time></trkpt><trkpt lat="44.769245" lon="8.0267833"><ele>310.0</ele><time>2026-04-25T17:14:34.112Z</time></trkpt><trkpt lat="44.7693633" lon="8.0267183"><ele>310.0</ele><time>2026-04-25T17:14:35.112Z</time></trkpt><trkpt lat="44.7694817" lon="8.0266717"><ele>308.5</ele><time>2026-04-25T17:14:36.112Z</time></trkpt><trkpt lat="44.769615" lon="8.02662"><ele>307.0</ele><time>2026-04-25T17:14:37.112Z</time></trkpt><trkpt lat="44.76973" lon="8.0265483"><ele>305.5</ele><time>2026-04-25T17:14:38.112Z</time></trkpt><trkpt lat="44.76984" lon="8.0264867"><ele>304.0</ele><time>2026-04-25T17:14:39.112Z</time></trkpt><trkpt lat="44.7699517" lon="8.0264267"><ele>304.0</ele><time>2026-04-25T17:14:40.112Z</time></trkpt><trkpt lat="44.7700583" lon="8.0263867"><ele>304.0</ele><time>2026-04-25T17:14:41.112Z</time></trkpt><trkpt lat="44.7701667" lon="8.0263467"><ele>304.0</ele><time>2026-04-25T17:14:42.112Z</time></trkpt><trkpt lat="44.7702683" lon="8.0263417"><ele>304.0</ele><time>2026-04-25T17:14:43.112Z</time></trkpt><trkpt lat="44.7703783" lon="8.0263567"><ele>304.0</ele><time>2026-04-25T17:14:44.112Z</time></trkpt><trkpt lat="44.77049" lon="8.0263867"><ele>304.59999999999997</ele><time>2026-04-25T17:14:45.112Z</time></trkpt><trkpt lat="44.7706033" lon="8.0264267"><ele>305.2</ele><time>2026-04-25T17:14:46.112Z</time></trkpt><trkpt lat="44.7706917" lon="8.0265183"><ele>305.79999999999995</ele><time>2026-04-25T17:14:47.112Z</time></trkpt><trkpt lat="44.7707917" lon="8.0265767"><ele>306.4</ele><time>2026-04-25T17:14:48.112Z</time></trkpt><trkpt lat="44.7708883" lon="8.0266233"><ele>307.0</ele><time>2026-04-25T17:14:49.112Z</time></trkpt><trkpt lat="44.7709967" lon="8.0266817"><ele>306.25</ele><time>2026-04-25T17:14:50.112Z</time></trkpt><trkpt lat="44.771105" lon="8.0267417"><ele>305.5</ele><time>2026-04-25T17:14:51.112Z</time></trkpt><trkpt lat="44.77122" lon="8.0267867"><ele>304.75</ele><time>2026-04-25T17:14:52.112Z</time></trkpt><trkpt lat="44.7713417" lon="8.0268217"><ele>304.0</ele><time>2026-04-25T17:14:53.112Z</time></trkpt><trkpt lat="44.7714667" lon="8.0268367"><ele>304.0</ele><time>2026-04-25T17:14:54.112Z</time></trkpt><trkpt lat="44.771585" lon="8.0268467"><ele>304.0</ele><time>2026-04-25T17:14:55.112Z</time></trkpt><trkpt lat="44.77171" lon="8.0268417"><ele>304.0</ele><time>2026-04-25T17:14:56.112Z</time></trkpt><trkpt lat="44.7718267" lon="8.0268317"><ele>304.0</ele><time>2026-04-25T17:14:57.112Z</time></trkpt><trkpt lat="44.7719367" lon="8.0268117"><ele>304.59999999999997</ele><time>2026-04-25T17:14:58.112Z</time></trkpt><trkpt lat="44.77204" lon="8.0267683"><ele>305.2</ele><time>2026-04-25T17:14:59.112Z</time></trkpt><trkpt lat="44.772145" lon="8.0267067"><ele>305.79999999999995</ele><time>2026-04-25T17:15:00.112Z</time></trkpt><trkpt lat="44.772245" lon="8.0266467"><ele>306.4</ele><time>2026-04-25T17:15:01.112Z</time></trkpt><trkpt lat="44.7723383" lon="8.0265933"><ele>307.0</ele><time>2026-04-25T17:15:02.112Z</time></trkpt><trkpt lat="44.7724233" lon="8.0265383"><ele>307.0</ele><time>2026-04-25T17:15:03.112Z</time></trkpt><trkpt lat="44.7725" lon="8.0264867"><ele>307.0</ele><time>2026-04-25T17:15:04.112Z</time></trkpt><trkpt lat="44.772575" lon="8.0264333"><ele>307.0</ele><time>2026-04-25T17:15:05.112Z</time></trkpt><trkpt lat="44.7726633" lon="8.026385"><ele>307.0</ele><time>2026-04-25T17:15:06.112Z</time></trkpt><trkpt lat="44.772765" lon="8.0263517"><ele>307.0</ele><time>2026-04-25T17:15:07.112Z</time></trkpt><trkpt lat="44.7728683" lon="8.02632"><ele>307.0</ele><time>2026-04-25T17:15:08.112Z</time></trkpt><trkpt lat="44.7729617" lon="8.0263"><ele>307.0</ele><time>2026-04-25T17:15:09.112Z</time></trkpt><trkpt lat="44.7730667" lon="8.0262967"><ele>307.0</ele><time>2026-04-25T17:15:10.112Z</time></trkpt><trkpt lat="44.77317" lon="8.02631"><ele>307.0</ele><time>2026-04-25T17:15:11.112Z</time></trkpt><trkpt lat="44.7732817" lon="8.0263333"><ele>307.0</ele><time>2026-04-25T17:15:12.112Z</time></trkpt><trkpt lat="44.7733817" lon="8.026355"><ele>307.0</ele><time>2026-04-25T17:15:13.112Z</time></trkpt><trkpt lat="44.7734883" lon="8.026385"><ele>307.0</ele><time>2026-04-25T17:15:14.112Z</time></trkpt><trkpt lat="44.7736017" lon="8.02641"><ele>307.0</ele><time>2026-04-25T17:15:15.112Z</time></trkpt><trkpt lat="44.7737033" lon="8.0264417"><ele>307.0</ele><time>2026-04-25T17:15:16.112Z</time></trkpt><trkpt lat="44.7738017" lon="8.026485"><ele>307.0</ele><time>2026-04-25T17:15:17.112Z</time></trkpt><trkpt lat="44.7738983" lon="8.026525"><ele>307.0</ele><time>2026-04-25T17:15:18.112Z</time></trkpt><trkpt lat="44.7739883" lon="8.0265683"><ele>307.0</ele><time>2026-04-25T17:15:19.112Z</time></trkpt><trkpt lat="44.7740767" lon="8.02663"><ele>307.0</ele><time>2026-04-25T17:15:20.112Z</time></trkpt><trkpt lat="44.7741583" lon="8.0266983"><ele>307.0</ele><time>2026-04-25T17:15:21.112Z</time></trkpt><trkpt lat="44.77421" lon="8.026765"><ele>307.0</ele><time>2026-04-25T17:15:22.112Z</time></trkpt><trkpt lat="44.7742633" lon="8.0268283"><ele>307.0</ele><time>2026-04-25T17:15:23.112Z</time></trkpt><trkpt lat="44.774335" lon="8.0268833"><ele>305.8333333333333</ele><time>2026-04-25T17:15:24.112Z</time></trkpt><trkpt lat="44.7744067" lon="8.026925"><ele>304.66666666666663</ele><time>2026-04-25T17:15:25.112Z</time></trkpt><trkpt lat="44.7744933" lon="8.02697"><ele>303.5</ele><time>2026-04-25T17:15:26.112Z</time></trkpt><trkpt lat="44.7745867" lon="8.026985"><ele>302.3333333333333</ele><time>2026-04-25T17:15:27.112Z</time></trkpt><trkpt lat="44.7746683" lon="8.0269667"><ele>301.1666666666667</ele><time>2026-04-25T17:15:28.112Z</time></trkpt><trkpt lat="44.77476" lon="8.02694"><ele>300.0</ele><time>2026-04-25T17:15:29.112Z</time></trkpt><trkpt lat="44.7748583" lon="8.026925"><ele>300.0</ele><time>2026-04-25T17:15:30.112Z</time></trkpt><trkpt lat="44.77495" lon="8.0269267"><ele>300.0</ele><time>2026-04-25T17:15:31.112Z</time></trkpt><trkpt lat="44.775055" lon="8.026965"><ele>300.0</ele><time>2026-04-25T17:15:32.112Z</time></trkpt><trkpt lat="44.7751567" lon="8.0269867"><ele>300.0</ele><time>2026-04-25T17:15:33.112Z</time></trkpt><trkpt lat="44.7752717" lon="8.02703"><ele>300.0</ele><time>2026-04-25T17:15:34.112Z</time></trkpt><trkpt lat="44.77538" lon="8.0270783"><ele>293.75</ele><time>2026-04-25T17:15:35.112Z</time></trkpt><trkpt lat="44.775485" lon="8.0271433"><ele>287.5</ele><time>2026-04-25T17:15:36.112Z</time></trkpt><trkpt lat="44.7755917" lon="8.027225"><ele>281.25</ele><time>2026-04-25T17:15:37.112Z</time></trkpt><trkpt lat="44.77571" lon="8.02731"><ele>275.0</ele><time>2026-04-25T17:15:38.112Z</time></trkpt><trkpt lat="44.7758283" lon="8.02738"><ele>275.0</ele><time>2026-04-25T17:15:39.112Z</time></trkpt><trkpt lat="44.7759417" lon="8.027435"><ele>275.0</ele><time>2026-04-25T17:15:40.112Z</time></trkpt><trkpt lat="44.7760583" lon="8.02745"><ele>275.0</ele><time>2026-04-25T17:15:41.112Z</time></trkpt><trkpt lat="44.77616" lon="8.0274233"><ele>275.0</ele><time>2026-04-25T17:15:42.112Z</time></trkpt><trkpt lat="44.7762467" lon="8.0273617"><ele>275.0</ele><time>2026-04-25T17:15:43.112Z</time></trkpt><trkpt lat="44.77633" lon="8.0272817"><ele>275.8</ele><time>2026-04-25T17:15:44.112Z</time></trkpt><trkpt lat="44.7764167" lon="8.0272217"><ele>276.6</ele><time>2026-04-25T17:15:45.112Z</time></trkpt><trkpt lat="44.7765017" lon="8.027155"><ele>277.4</ele><time>2026-04-25T17:15:46.112Z</time></trkpt><trkpt lat="44.7765933" lon="8.0271"><ele>278.2</ele><time>2026-04-25T17:15:47.112Z</time></trkpt><trkpt lat="44.7766983" lon="8.0270533"><ele>279.0</ele><time>2026-04-25T17:15:48.112Z</time></trkpt><trkpt lat="44.7768" lon="8.0270233"><ele>280.59999999999997</ele><time>2026-04-25T17:15:49.113Z</time></trkpt><trkpt lat="44.7769117" lon="8.0270017"><ele>282.2</ele><time>2026-04-25T17:15:50.112Z</time></trkpt><trkpt lat="44.7770117" lon="8.02696"><ele>283.79999999999995</ele><time>2026-04-25T17:15:51.112Z</time></trkpt><trkpt lat="44.7771083" lon="8.0269267"><ele>285.4</ele><time>2026-04-25T17:15:52.112Z</time></trkpt><trkpt lat="44.77719" lon="8.0268883"><ele>287.0</ele><time>2026-04-25T17:15:53.112Z</time></trkpt><trkpt lat="44.77726" lon="8.0268683"><ele>287.0</ele><time>2026-04-25T17:15:54.112Z</time></trkpt><trkpt lat="44.7773233" lon="8.0268467"><ele>287.0</ele><time>2026-04-25T17:15:55.112Z</time></trkpt><trkpt lat="44.7773917" lon="8.0268233"><ele>287.0</ele><time>2026-04-25T17:15:56.112Z</time></trkpt><trkpt lat="44.7774767" lon="8.0267833"><ele>287.0</ele><time>2026-04-25T17:15:57.112Z</time></trkpt><trkpt lat="44.7775767" lon="8.0267567"><ele>287.0</ele><time>2026-04-25T17:15:58.112Z</time></trkpt><trkpt lat="44.7776933" lon="8.026745"><ele>287.0</ele><time>2026-04-25T17:15:59.112Z</time></trkpt><trkpt lat="44.77781" lon="8.0267483"><ele>286.5</ele><time>2026-04-25T17:16:00.112Z</time></trkpt><trkpt lat="44.7779333" lon="8.0267667"><ele>286.0</ele><time>2026-04-25T17:16:01.112Z</time></trkpt><trkpt lat="44.7780583" lon="8.0267917"><ele>285.5</ele><time>2026-04-25T17:16:02.112Z</time></trkpt><trkpt lat="44.7781867" lon="8.026835"><ele>285.0</ele><time>2026-04-25T17:16:03.112Z</time></trkpt><trkpt lat="44.7783117" lon="8.0268667"><ele>285.0</ele><time>2026-04-25T17:16:04.112Z</time></trkpt><trkpt lat="44.7784367" lon="8.026905"><ele>285.0</ele><time>2026-04-25T17:16:05.112Z</time></trkpt><trkpt lat="44.7785683" lon="8.02694"><ele>285.0</ele><time>2026-04-25T17:16:06.112Z</time></trkpt><trkpt lat="44.7787" lon="8.0269517"><ele>285.0</ele><time>2026-04-25T17:16:07.113Z</time></trkpt><trkpt lat="44.7788383" lon="8.0269483"><ele>285.0</ele><time>2026-04-25T17:16:08.112Z</time></trkpt><trkpt lat="44.778985" lon="8.026935"><ele>285.0</ele><time>2026-04-25T17:16:09.112Z</time></trkpt><trkpt lat="44.7791283" lon="8.0269167"><ele>285.0</ele><time>2026-04-25T17:16:10.112Z</time></trkpt><trkpt lat="44.77927" lon="8.0269067"><ele>285.0</ele><time>2026-04-25T17:16:11.112Z</time></trkpt><trkpt lat="44.7794133" lon="8.0269"><ele>286.0</ele><time>2026-04-25T17:16:12.112Z</time></trkpt><trkpt lat="44.77955" lon="8.02689"><ele>287.0</ele><time>2026-04-25T17:16:13.112Z</time></trkpt><trkpt lat="44.7796867" lon="8.026875"><ele>288.0</ele><time>2026-04-25T17:16:14.112Z</time></trkpt><trkpt lat="44.7798217" lon="8.0268333"><ele>289.0</ele><time>2026-04-25T17:16:15.112Z</time></trkpt><trkpt lat="44.779955" lon="8.0267817"><ele>289.0</ele><time>2026-04-25T17:16:16.112Z</time></trkpt><trkpt lat="44.7800817" lon="8.026705"><ele>289.0</ele><time>2026-04-25T17:16:17.112Z</time></trkpt><trkpt lat="44.7802" lon="8.0266217"><ele>289.0</ele><time>2026-04-25T17:16:18.112Z</time></trkpt><trkpt lat="44.7803167" lon="8.0265483"><ele>289.0</ele><time>2026-04-25T17:16:19.112Z</time></trkpt><trkpt lat="44.78043" lon="8.0264933"><ele>289.0</ele><time>2026-04-25T17:16:20.112Z</time></trkpt><trkpt lat="44.7805367" lon="8.02648"><ele>289.0</ele><time>2026-04-25T17:16:21.112Z</time></trkpt><trkpt lat="44.7806217" lon="8.02648"><ele>289.0</ele><time>2026-04-25T17:16:22.112Z</time></trkpt><trkpt lat="44.7806983" lon="8.02653"><ele>289.0</ele><time>2026-04-25T17:16:23.112Z</time></trkpt><trkpt lat="44.7807717" lon="8.026625"><ele>289.0</ele><time>2026-04-25T17:16:24.112Z</time></trkpt><trkpt lat="44.7808233" lon="8.0267417"><ele>289.75</ele><time>2026-04-25T17:16:25.112Z</time></trkpt><trkpt lat="44.780875" lon="8.02691"><ele>290.5</ele><time>2026-04-25T17:16:26.112Z</time></trkpt><trkpt lat="44.7809417" lon="8.0271017"><ele>291.25</ele><time>2026-04-25T17:16:27.112Z</time></trkpt><trkpt lat="44.7810367" lon="8.0272783"><ele>292.0</ele><time>2026-04-25T17:16:28.112Z</time></trkpt><trkpt lat="44.7811433" lon="8.02746"><ele>289.66666666666663</ele><time>2026-04-25T17:16:29.112Z</time></trkpt><trkpt lat="44.781255" lon="8.0276233"><ele>287.3333333333333</ele><time>2026-04-25T17:16:30.112Z</time></trkpt><trkpt lat="44.7813683" lon="8.0277817"><ele>285.0</ele><time>2026-04-25T17:16:31.112Z</time></trkpt><trkpt lat="44.781475" lon="8.02794"><ele>285.0</ele><time>2026-04-25T17:16:32.112Z</time></trkpt><trkpt lat="44.7815783" lon="8.028105"><ele>285.0</ele><time>2026-04-25T17:16:33.112Z</time></trkpt><trkpt lat="44.7816683" lon="8.02827"><ele>285.0</ele><time>2026-04-25T17:16:34.112Z</time></trkpt><trkpt lat="44.7817533" lon="8.028445"><ele>286.0</ele><time>2026-04-25T17:16:35.112Z</time></trkpt><trkpt lat="44.7818317" lon="8.0286167"><ele>287.0</ele><time>2026-04-25T17:16:36.112Z</time></trkpt><trkpt lat="44.7819167" lon="8.0287783"><ele>288.0</ele><time>2026-04-25T17:16:37.112Z</time></trkpt><trkpt lat="44.7819967" lon="8.028925"><ele>289.0</ele><time>2026-04-25T17:16:38.112Z</time></trkpt><trkpt lat="44.7820817" lon="8.0290533"><ele>289.0</ele><time>2026-04-25T17:16:39.112Z</time></trkpt><trkpt lat="44.7821983" lon="8.0291267"><ele>289.0</ele><time>2026-04-25T17:16:40.112Z</time></trkpt><trkpt lat="44.7823267" lon="8.0291267"><ele>289.0</ele><time>2026-04-25T17:16:41.112Z</time></trkpt><trkpt lat="44.7824617" lon="8.0290617"><ele>289.0</ele><time>2026-04-25T17:16:42.112Z</time></trkpt><trkpt lat="44.7825817" lon="8.028975"><ele>288.75</ele><time>2026-04-25T17:16:43.112Z</time></trkpt><trkpt lat="44.7827167" lon="8.0289"><ele>288.5</ele><time>2026-04-25T17:16:44.112Z</time></trkpt><trkpt lat="44.78285" lon="8.02884"><ele>288.25</ele><time>2026-04-25T17:16:45.112Z</time></trkpt><trkpt lat="44.7829883" lon="8.028795"><ele>288.0</ele><time>2026-04-25T17:16:46.112Z</time></trkpt><trkpt lat="44.7831283" lon="8.028805"><ele>288.0</ele><time>2026-04-25T17:16:47.112Z</time></trkpt><trkpt lat="44.7832683" lon="8.0288483"><ele>288.0</ele><time>2026-04-25T17:16:48.112Z</time></trkpt><trkpt lat="44.7834083" lon="8.0289217"><ele>288.0</ele><time>2026-04-25T17:16:49.112Z</time></trkpt><trkpt lat="44.78356" lon="8.0289867"><ele>287.6666666666667</ele><time>2026-04-25T17:16:50.112Z</time></trkpt><trkpt lat="44.78371" lon="8.0290633"><ele>287.33333333333337</ele><time>2026-04-25T17:16:51.112Z</time></trkpt><trkpt lat="44.7838683" lon="8.029135"><ele>287.0</ele><time>2026-04-25T17:16:52.112Z</time></trkpt><trkpt lat="44.78402" lon="8.0292083"><ele>287.0</ele><time>2026-04-25T17:16:53.112Z</time></trkpt><trkpt lat="44.7841717" lon="8.0292883"><ele>287.0</ele><time>2026-04-25T17:16:54.112Z</time></trkpt><trkpt lat="44.7843233" lon="8.02937"><ele>287.0</ele><time>2026-04-25T17:16:55.112Z</time></trkpt><trkpt lat="44.7844717" lon="8.0294667"><ele>283.6666666666667</ele><time>2026-04-25T17:16:56.112Z</time></trkpt><trkpt lat="44.7846117" lon="8.0295867"><ele>280.3333333333333</ele><time>2026-04-25T17:16:57.112Z</time></trkpt><trkpt lat="44.7847383" lon="8.0297267"><ele>277.0</ele><time>2026-04-25T17:16:58.112Z</time></trkpt><trkpt lat="44.7848517" lon="8.0298867"><ele>278.66666666666663</ele><time>2026-04-25T17:16:59.112Z</time></trkpt><trkpt lat="44.7849583" lon="8.03005"><ele>280.3333333333333</ele><time>2026-04-25T17:17:00.112Z</time></trkpt><trkpt lat="44.785055" lon="8.0302317"><ele>282.0</ele><time>2026-04-25T17:17:01.112Z</time></trkpt><trkpt lat="44.7851517" lon="8.0304017"><ele>277.3333333333333</ele><time>2026-04-25T17:17:02.112Z</time></trkpt><trkpt lat="44.78525" lon="8.03058"><ele>272.66666666666663</ele><time>2026-04-25T17:17:03.112Z</time></trkpt><trkpt lat="44.785345" lon="8.030745"><ele>268.0</ele><time>2026-04-25T17:17:04.112Z</time></trkpt><trkpt lat="44.78544" lon="8.0309067"><ele>268.0</ele><time>2026-04-25T17:17:05.112Z</time></trkpt><trkpt lat="44.7855267" lon="8.0310683"><ele>268.0</ele><time>2026-04-25T17:17:06.112Z</time></trkpt><trkpt lat="44.785615" lon="8.03121"><ele>268.0</ele><time>2026-04-25T17:17:07.112Z</time></trkpt><trkpt lat="44.7857017" lon="8.0313667"><ele>268.0</ele><time>2026-04-25T17:17:08.112Z</time></trkpt><trkpt lat="44.78579" lon="8.03152"><ele>269.0</ele><time>2026-04-25T17:17:09.112Z</time></trkpt><trkpt lat="44.7858783" lon="8.0316667"><ele>270.0</ele><time>2026-04-25T17:17:10.112Z</time></trkpt><trkpt lat="44.7859583" lon="8.0318067"><ele>271.0</ele><time>2026-04-25T17:17:11.112Z</time></trkpt><trkpt lat="44.786035" lon="8.03196"><ele>272.0</ele><time>2026-04-25T17:17:12.112Z</time></trkpt><trkpt lat="44.786105" lon="8.0321217"><ele>272.0</ele><time>2026-04-25T17:17:13.112Z</time></trkpt><trkpt lat="44.78616" lon="8.0322867"><ele>272.0</ele><time>2026-04-25T17:17:14.112Z</time></trkpt><trkpt lat="44.7862117" lon="8.0324583"><ele>272.0</ele><time>2026-04-25T17:17:15.112Z</time></trkpt><trkpt lat="44.7862717" lon="8.0326417"><ele>272.0</ele><time>2026-04-25T17:17:16.112Z</time></trkpt><trkpt lat="44.7863317" lon="8.0328233"><ele>272.5</ele><time>2026-04-25T17:17:17.112Z</time></trkpt><trkpt lat="44.7863933" lon="8.03301"><ele>273.0</ele><time>2026-04-25T17:17:18.112Z</time></trkpt><trkpt lat="44.7864567" lon="8.0331883"><ele>273.5</ele><time>2026-04-25T17:17:19.112Z</time></trkpt><trkpt lat="44.7865217" lon="8.0333567"><ele>274.0</ele><time>2026-04-25T17:17:20.112Z</time></trkpt><trkpt lat="44.7865817" lon="8.0335117"><ele>274.0</ele><time>2026-04-25T17:17:21.112Z</time></trkpt><trkpt lat="44.7866683" lon="8.033645"><ele>274.0</ele><time>2026-04-25T17:17:22.112Z</time></trkpt><trkpt lat="44.7867733" lon="8.0337233"><ele>274.0</ele><time>2026-04-25T17:17:23.112Z</time></trkpt><trkpt lat="44.786895" lon="8.0337983"><ele>274.0</ele><time>2026-04-25T17:17:24.112Z</time></trkpt><trkpt lat="44.7870267" lon="8.0338383"><ele>276.25</ele><time>2026-04-25T17:17:25.112Z</time></trkpt><trkpt lat="44.787165" lon="8.033845"><ele>278.5</ele><time>2026-04-25T17:17:26.112Z</time></trkpt><trkpt lat="44.787315" lon="8.0338283"><ele>280.75</ele><time>2026-04-25T17:17:27.112Z</time></trkpt><trkpt lat="44.7874667" lon="8.0338217"><ele>283.0</ele><time>2026-04-25T17:17:28.112Z</time></trkpt><trkpt lat="44.78762" lon="8.0338283"><ele>283.0</ele><time>2026-04-25T17:17:29.112Z</time></trkpt><trkpt lat="44.78777" lon="8.0338433"><ele>283.0</ele><time>2026-04-25T17:17:30.112Z</time></trkpt><trkpt lat="44.7879183" lon="8.0338783"><ele>283.0</ele><time>2026-04-25T17:17:31.112Z</time></trkpt><trkpt lat="44.7880633" lon="8.0339183"><ele>283.0</ele><time>2026-04-25T17:17:32.112Z</time></trkpt><trkpt lat="44.788215" lon="8.0339667"><ele>283.0</ele><time>2026-04-25T17:17:33.112Z</time></trkpt><trkpt lat="44.7883567" lon="8.0340133"><ele>283.0</ele><time>2026-04-25T17:17:34.112Z</time></trkpt><trkpt lat="44.7884933" lon="8.0340717"><ele>283.0</ele><time>2026-04-25T17:17:35.112Z</time></trkpt><trkpt lat="44.7886233" lon="8.0341267"><ele>283.0</ele><time>2026-04-25T17:17:36.112Z</time></trkpt><trkpt lat="44.78875" lon="8.0341767"><ele>280.0</ele><time>2026-04-25T17:17:37.112Z</time></trkpt><trkpt lat="44.7888717" lon="8.0342317"><ele>277.0</ele><time>2026-04-25T17:17:38.112Z</time></trkpt><trkpt lat="44.7889917" lon="8.0342867"><ele>274.0</ele><time>2026-04-25T17:17:39.112Z</time></trkpt><trkpt lat="44.78909" lon="8.03434"><ele>271.0</ele><time>2026-04-25T17:17:40.112Z</time></trkpt><trkpt lat="44.789175" lon="8.0343767"><ele>268.0</ele><time>2026-04-25T17:17:41.112Z</time></trkpt><trkpt lat="44.7892533" lon="8.0344117"><ele>264.4</ele><time>2026-04-25T17:17:42.112Z</time></trkpt><trkpt lat="44.7893667" lon="8.0343783"><ele>260.8</ele><time>2026-04-25T17:17:44.112Z</time></trkpt><trkpt lat="44.789405" lon="8.0343033"><ele>257.2</ele><time>2026-04-25T17:17:45.112Z</time></trkpt><trkpt lat="44.7894233" lon="8.0341967"><ele>253.6</ele><time>2026-04-25T17:17:46.112Z</time></trkpt><trkpt lat="44.789425" lon="8.0340517"><ele>250.0</ele><time>2026-04-25T17:17:47.112Z</time></trkpt><trkpt lat="44.78941" lon="8.0338817"><ele>246.75</ele><time>2026-04-25T17:17:48.112Z</time></trkpt><trkpt lat="44.7894017" lon="8.0337067"><ele>243.5</ele><time>2026-04-25T17:17:49.112Z</time></trkpt><trkpt lat="44.7894083" lon="8.0335217"><ele>240.25</ele><time>2026-04-25T17:17:50.112Z</time></trkpt><trkpt lat="44.7894117" lon="8.0333267"><ele>237.0</ele><time>2026-04-25T17:17:51.112Z</time></trkpt><trkpt lat="44.7894217" lon="8.0331183"><ele>237.0</ele><time>2026-04-25T17:17:52.112Z</time></trkpt><trkpt lat="44.7894217" lon="8.03291"><ele>237.0</ele><time>2026-04-25T17:17:53.112Z</time></trkpt><trkpt lat="44.7894167" lon="8.0327033"><ele>237.0</ele><time>2026-04-25T17:17:54.112Z</time></trkpt><trkpt lat="44.7894117" lon="8.03251"><ele>237.0</ele><time>2026-04-25T17:17:55.112Z</time></trkpt><trkpt lat="44.7894017" lon="8.03232"><ele>240.5</ele><time>2026-04-25T17:17:56.112Z</time></trkpt><trkpt lat="44.7894017" lon="8.0321333"><ele>244.0</ele><time>2026-04-25T17:17:57.112Z</time></trkpt><trkpt lat="44.7894333" lon="8.0319467"><ele>247.5</ele><time>2026-04-25T17:17:58.112Z</time></trkpt><trkpt lat="44.7894717" lon="8.031775"><ele>251.0</ele><time>2026-04-25T17:17:59.112Z</time></trkpt><trkpt lat="44.78951" lon="8.0316017"><ele>251.0</ele><time>2026-04-25T17:18:00.112Z</time></trkpt><trkpt lat="44.7895517" lon="8.0314267"><ele>251.0</ele><time>2026-04-25T17:18:01.112Z</time></trkpt><trkpt lat="44.7895933" lon="8.031255"><ele>251.0</ele><time>2026-04-25T17:18:02.112Z</time></trkpt><trkpt lat="44.789625" lon="8.0310817"><ele>251.0</ele><time>2026-04-25T17:18:03.112Z</time></trkpt><trkpt lat="44.7896583" lon="8.0309467"><ele>251.0</ele><time>2026-04-25T17:18:04.112Z</time></trkpt><trkpt lat="44.7897183" lon="8.030835"><ele>251.0</ele><time>2026-04-25T17:18:05.112Z</time></trkpt><trkpt lat="44.78981" lon="8.03074"><ele>251.0</ele><time>2026-04-25T17:18:06.112Z</time></trkpt><trkpt lat="44.789925" lon="8.030675"><ele>251.0</ele><time>2026-04-25T17:18:07.112Z</time></trkpt><trkpt lat="44.7900633" lon="8.0306433"><ele>243.33333333333334</ele><time>2026-04-25T17:18:08.112Z</time></trkpt><trkpt lat="44.7902117" lon="8.0306417"><ele>235.66666666666669</ele><time>2026-04-25T17:18:09.112Z</time></trkpt><trkpt lat="44.790375" lon="8.0306283"><ele>228.0</ele><time>2026-04-25T17:18:10.112Z</time></trkpt><trkpt lat="44.7905333" lon="8.0306017"><ele>228.0</ele><time>2026-04-25T17:18:11.112Z</time></trkpt><trkpt lat="44.790695" lon="8.030575"><ele>228.0</ele><time>2026-04-25T17:18:12.112Z</time></trkpt><trkpt lat="44.79086" lon="8.030555"><ele>228.0</ele><time>2026-04-25T17:18:13.112Z</time></trkpt><trkpt lat="44.7910217" lon="8.030535"><ele>225.33333333333331</ele><time>2026-04-25T17:18:14.112Z</time></trkpt><trkpt lat="44.79119" lon="8.0305117"><ele>222.66666666666666</ele><time>2026-04-25T17:18:15.112Z</time></trkpt><trkpt lat="44.791355" lon="8.0304733"><ele>220.0</ele><time>2026-04-25T17:18:16.112Z</time></trkpt><trkpt lat="44.79151" lon="8.0304333"><ele>220.0</ele><time>2026-04-25T17:18:17.112Z</time></trkpt><trkpt lat="44.791665" lon="8.0303933"><ele>220.0</ele><time>2026-04-25T17:18:18.112Z</time></trkpt><trkpt lat="44.7918183" lon="8.0303583"><ele>220.0</ele><time>2026-04-25T17:18:19.112Z</time></trkpt><trkpt lat="44.79197" lon="8.0303233"><ele>220.0</ele><time>2026-04-25T17:18:20.112Z</time></trkpt><trkpt lat="44.7921217" lon="8.030285"><ele>220.0</ele><time>2026-04-25T17:18:21.112Z</time></trkpt><trkpt lat="44.7922817" lon="8.0302183"><ele>220.0</ele><time>2026-04-25T17:18:22.112Z</time></trkpt><trkpt lat="44.792435" lon="8.030145"><ele>220.0</ele><time>2026-04-25T17:18:23.112Z</time></trkpt><trkpt lat="44.7925817" lon="8.0300533"><ele>220.0</ele><time>2026-04-25T17:18:24.112Z</time></trkpt><trkpt lat="44.79273" lon="8.0299633"><ele>220.0</ele><time>2026-04-25T17:18:25.112Z</time></trkpt><trkpt lat="44.792885" lon="8.0298767"><ele>217.0</ele><time>2026-04-25T17:18:26.113Z</time></trkpt><trkpt lat="44.7930483" lon="8.0297883"><ele>214.0</ele><time>2026-04-25T17:18:27.112Z</time></trkpt><trkpt lat="44.793205" lon="8.0297"><ele>211.0</ele><time>2026-04-25T17:18:28.112Z</time></trkpt><trkpt lat="44.793365" lon="8.0296033"><ele>212.0</ele><time>2026-04-25T17:18:29.112Z</time></trkpt><trkpt lat="44.7935217" lon="8.0295"><ele>213.0</ele><time>2026-04-25T17:18:30.112Z</time></trkpt><trkpt lat="44.7936783" lon="8.0293983"><ele>214.0</ele><time>2026-04-25T17:18:31.112Z</time></trkpt><trkpt lat="44.79384" lon="8.02931"><ele>214.0</ele><time>2026-04-25T17:18:32.112Z</time></trkpt><trkpt lat="44.7939983" lon="8.0292283"><ele>214.0</ele><time>2026-04-25T17:18:33.112Z</time></trkpt><trkpt lat="44.7941583" lon="8.029125"><ele>214.0</ele><time>2026-04-25T17:18:34.112Z</time></trkpt><trkpt lat="44.7943167" lon="8.0290117"><ele>211.66666666666666</ele><time>2026-04-25T17:18:35.112Z</time></trkpt><trkpt lat="44.7944717" lon="8.0289017"><ele>209.33333333333331</ele><time>2026-04-25T17:18:36.112Z</time></trkpt><trkpt lat="44.79462" lon="8.0287617"><ele>207.0</ele><time>2026-04-25T17:18:37.112Z</time></trkpt><trkpt lat="44.7947717" lon="8.0286117"><ele>207.0</ele><time>2026-04-25T17:18:38.112Z</time></trkpt><trkpt lat="44.79492" lon="8.02845"><ele>207.0</ele><time>2026-04-25T17:18:39.112Z</time></trkpt><trkpt lat="44.7950717" lon="8.0282883"><ele>207.0</ele><time>2026-04-25T17:18:40.112Z</time></trkpt><trkpt lat="44.7952133" lon="8.028115"><ele>203.33333333333331</ele><time>2026-04-25T17:18:41.112Z</time></trkpt><trkpt lat="44.7953617" lon="8.027945"><ele>199.66666666666666</ele><time>2026-04-25T17:18:42.112Z</time></trkpt><trkpt lat="44.7955167" lon="8.0277783"><ele>196.0</ele><time>2026-04-25T17:18:43.112Z</time></trkpt><trkpt lat="44.7956733" lon="8.02762"><ele>194.0</ele><time>2026-04-25T17:18:44.112Z</time></trkpt><trkpt lat="44.7958317" lon="8.027465"><ele>192.0</ele><time>2026-04-25T17:18:45.112Z</time></trkpt><trkpt lat="44.7959933" lon="8.0273233"><ele>190.0</ele><time>2026-04-25T17:18:46.112Z</time></trkpt><trkpt lat="44.796165" lon="8.0271683"><ele>189.33333333333334</ele><time>2026-04-25T17:18:47.112Z</time></trkpt><trkpt lat="44.7963333" lon="8.027015"><ele>188.66666666666666</ele><time>2026-04-25T17:18:48.112Z</time></trkpt><trkpt lat="44.7965033" lon="8.0268667"><ele>188.0</ele><time>2026-04-25T17:18:49.112Z</time></trkpt><trkpt lat="44.7966683" lon="8.0267217"><ele>187.0</ele><time>2026-04-25T17:18:50.112Z</time></trkpt><trkpt lat="44.7968367" lon="8.0265717"><ele>186.0</ele><time>2026-04-25T17:18:51.112Z</time></trkpt><trkpt lat="44.7970117" lon="8.0264133"><ele>185.0</ele><time>2026-04-25T17:18:52.112Z</time></trkpt><trkpt lat="44.7971783" lon="8.0262583"><ele>185.0</ele><time>2026-04-25T17:18:53.112Z</time></trkpt><trkpt lat="44.7973467" lon="8.0261083"><ele>185.0</ele><time>2026-04-25T17:18:54.112Z</time></trkpt><trkpt lat="44.7975" lon="8.0259467"><ele>185.0</ele><time>2026-04-25T17:18:55.112Z</time></trkpt><trkpt lat="44.7976467" lon="8.02576"><ele>184.33333333333331</ele><time>2026-04-25T17:18:56.112Z</time></trkpt><trkpt lat="44.7977783" lon="8.025555"><ele>183.66666666666666</ele><time>2026-04-25T17:18:57.112Z</time></trkpt><trkpt lat="44.7979117" lon="8.0253467"><ele>183.0</ele><time>2026-04-25T17:18:58.112Z</time></trkpt><trkpt lat="44.7980433" lon="8.0251417"><ele>181.66666666666666</ele><time>2026-04-25T17:18:59.112Z</time></trkpt><trkpt lat="44.7981667" lon="8.0249333"><ele>180.33333333333331</ele><time>2026-04-25T17:19:00.112Z</time></trkpt><trkpt lat="44.7982933" lon="8.0247183"><ele>179.0</ele><time>2026-04-25T17:19:01.112Z</time></trkpt><trkpt lat="44.798415" lon="8.0245067"><ele>178.0</ele><time>2026-04-25T17:19:02.112Z</time></trkpt><trkpt lat="44.7985417" lon="8.0243267"><ele>177.0</ele><time>2026-04-25T17:19:03.112Z</time></trkpt><trkpt lat="44.798675" lon="8.0241567"><ele>176.0</ele><time>2026-04-25T17:19:04.112Z</time></trkpt><trkpt lat="44.7988233" lon="8.0239883"><ele>175.66666666666666</ele><time>2026-04-25T17:19:05.112Z</time></trkpt><trkpt lat="44.7989817" lon="8.0238317"><ele>175.33333333333334</ele><time>2026-04-25T17:19:06.112Z</time></trkpt><trkpt lat="44.7991367" lon="8.0236683"><ele>175.0</ele><time>2026-04-25T17:19:07.112Z</time></trkpt><trkpt lat="44.7992983" lon="8.0235233"><ele>174.0</ele><time>2026-04-25T17:19:08.112Z</time></trkpt><trkpt lat="44.7994633" lon="8.0233917"><ele>173.0</ele><time>2026-04-25T17:19:09.112Z</time></trkpt><trkpt lat="44.7996383" lon="8.0232583"><ele>172.0</ele><time>2026-04-25T17:19:10.112Z</time></trkpt><trkpt lat="44.79981" lon="8.023135"><ele>172.0</ele><time>2026-04-25T17:19:11.112Z</time></trkpt><trkpt lat="44.7999783" lon="8.023005"><ele>172.0</ele><time>2026-04-25T17:19:12.112Z</time></trkpt><trkpt lat="44.800145" lon="8.0228733"><ele>172.0</ele><time>2026-04-25T17:19:13.112Z</time></trkpt><trkpt lat="44.8003067" lon="8.0227383"><ele>172.66666666666669</ele><time>2026-04-25T17:19:14.112Z</time></trkpt><trkpt lat="44.8004683" lon="8.0226183"><ele>173.33333333333334</ele><time>2026-04-25T17:19:15.112Z</time></trkpt><trkpt lat="44.8006283" lon="8.022495"><ele>174.0</ele><time>2026-04-25T17:19:16.112Z</time></trkpt><trkpt lat="44.8007917" lon="8.0223667"><ele>174.66666666666666</ele><time>2026-04-25T17:19:17.112Z</time></trkpt><trkpt lat="44.80095" lon="8.0222383"><ele>175.33333333333331</ele><time>2026-04-25T17:19:18.112Z</time></trkpt><trkpt lat="44.8010983" lon="8.0221233"><ele>176.0</ele><time>2026-04-25T17:19:19.112Z</time></trkpt><trkpt lat="44.801255" lon="8.0220017"><ele>176.0</ele><time>2026-04-25T17:19:20.112Z</time></trkpt><trkpt lat="44.8014017" lon="8.0218767"><ele>176.0</ele><time>2026-04-25T17:19:21.112Z</time></trkpt><trkpt lat="44.8015467" lon="8.0217517"><ele>176.0</ele><time>2026-04-25T17:19:22.112Z</time></trkpt><trkpt lat="44.8016883" lon="8.0216317"><ele>176.33333333333331</ele><time>2026-04-25T17:19:23.112Z</time></trkpt><trkpt lat="44.801825" lon="8.0215167"><ele>176.66666666666666</ele><time>2026-04-25T17:19:24.112Z</time></trkpt><trkpt lat="44.8019617" lon="8.0213967"><ele>177.0</ele><time>2026-04-25T17:19:25.112Z</time></trkpt><trkpt lat="44.802095" lon="8.0212733"><ele>178.0</ele><time>2026-04-25T17:19:26.112Z</time></trkpt><trkpt lat="44.8022217" lon="8.0211567"><ele>179.0</ele><time>2026-04-25T17:19:27.112Z</time></trkpt><trkpt lat="44.8023417" lon="8.0210517"><ele>180.0</ele><time>2026-04-25T17:19:28.112Z</time></trkpt><trkpt lat="44.8024583" lon="8.0209567"><ele>181.0</ele><time>2026-04-25T17:19:29.112Z</time></trkpt><trkpt lat="44.8025733" lon="8.02086"><ele>181.60000000000002</ele><time>2026-04-25T17:19:30.112Z</time></trkpt><trkpt lat="44.8026683" lon="8.0207733"><ele>182.2</ele><time>2026-04-25T17:19:31.112Z</time></trkpt><trkpt lat="44.8027633" lon="8.0206983"><ele>182.8</ele><time>2026-04-25T17:19:32.112Z</time></trkpt><trkpt lat="44.8028467" lon="8.0206317"><ele>183.39999999999998</ele><time>2026-04-25T17:19:33.112Z</time></trkpt><trkpt lat="44.8029217" lon="8.0205917"><ele>184.0</ele><time>2026-04-25T17:19:34.112Z</time></trkpt><trkpt lat="44.80299" lon="8.0205717"><ele>184.0</ele><time>2026-04-25T17:19:35.112Z</time></trkpt><trkpt lat="44.803105" lon="8.0205733"><ele>184.0</ele><time>2026-04-25T17:19:37.112Z</time></trkpt><trkpt lat="44.8031767" lon="8.0205883"><ele>184.0</ele><time>2026-04-25T17:19:38.112Z</time></trkpt><trkpt lat="44.8032417" lon="8.02063"><ele>184.0</ele><time>2026-04-25T17:19:39.112Z</time></trkpt><trkpt lat="44.80332" lon="8.020705"><ele>184.0</ele><time>2026-04-25T17:19:40.112Z</time></trkpt><trkpt lat="44.8033883" lon="8.0208"><ele>183.5</ele><time>2026-04-25T17:19:41.112Z</time></trkpt><trkpt lat="44.80346" lon="8.0209217"><ele>183.0</ele><time>2026-04-25T17:19:42.112Z</time></trkpt><trkpt lat="44.803535" lon="8.0210567"><ele>182.5</ele><time>2026-04-25T17:19:43.112Z</time></trkpt><trkpt lat="44.8036233" lon="8.0211933"><ele>182.0</ele><time>2026-04-25T17:19:44.112Z</time></trkpt><trkpt lat="44.8037183" lon="8.0213017"><ele>182.0</ele><time>2026-04-25T17:19:45.112Z</time></trkpt><trkpt lat="44.803805" lon="8.021385"><ele>182.0</ele><time>2026-04-25T17:19:46.112Z</time></trkpt><trkpt lat="44.8038733" lon="8.0214583"><ele>182.0</ele><time>2026-04-25T17:19:47.112Z</time></trkpt><trkpt lat="44.80393" lon="8.0215083"><ele>182.0</ele><time>2026-04-25T17:19:48.112Z</time></trkpt><trkpt lat="44.80403" lon="8.0215017"><ele>182.0</ele><time>2026-04-25T17:19:50.112Z</time></trkpt><trkpt lat="44.8040933" lon="8.02145"><ele>182.0</ele><time>2026-04-25T17:19:51.112Z</time></trkpt><trkpt lat="44.8041567" lon="8.02136"><ele>182.0</ele><time>2026-04-25T17:19:52.112Z</time></trkpt><trkpt lat="44.8042333" lon="8.02126"><ele>182.0</ele><time>2026-04-25T17:19:53.112Z</time></trkpt><trkpt lat="44.8043267" lon="8.0211667"><ele>182.0</ele><time>2026-04-25T17:19:54.112Z</time></trkpt><trkpt lat="44.80443" lon="8.0210883"><ele>182.0</ele><time>2026-04-25T17:19:55.112Z</time></trkpt><trkpt lat="44.8045317" lon="8.021"><ele>183.8</ele><time>2026-04-25T17:19:56.112Z</time></trkpt><trkpt lat="44.804625" lon="8.0209133"><ele>185.6</ele><time>2026-04-25T17:19:57.112Z</time></trkpt><trkpt lat="44.8047167" lon="8.020835"><ele>187.4</ele><time>2026-04-25T17:19:58.112Z</time></trkpt><trkpt lat="44.8048017" lon="8.0207683"><ele>189.20000000000002</ele><time>2026-04-25T17:19:59.112Z</time></trkpt><trkpt lat="44.8048767" lon="8.02071"><ele>191.0</ele><time>2026-04-25T17:20:00.112Z</time></trkpt><trkpt lat="44.804945" lon="8.0206367"><ele>191.20000000000002</ele><time>2026-04-25T17:20:01.112Z</time></trkpt><trkpt lat="44.8049967" lon="8.0205467"><ele>191.4</ele><time>2026-04-25T17:20:02.112Z</time></trkpt><trkpt lat="44.805045" lon="8.020425"><ele>191.6</ele><time>2026-04-25T17:20:03.112Z</time></trkpt><trkpt lat="44.8050833" lon="8.0202817"><ele>191.8</ele><time>2026-04-25T17:20:04.112Z</time></trkpt><trkpt lat="44.80512" lon="8.02013"><ele>192.0</ele><time>2026-04-25T17:20:05.112Z</time></trkpt><trkpt lat="44.8051667" lon="8.0199767"><ele>196.25</ele><time>2026-04-25T17:20:06.112Z</time></trkpt><trkpt lat="44.8052217" lon="8.0198233"><ele>200.5</ele><time>2026-04-25T17:20:07.112Z</time></trkpt><trkpt lat="44.8052817" lon="8.0196733"><ele>204.75</ele><time>2026-04-25T17:20:08.112Z</time></trkpt><trkpt lat="44.8053417" lon="8.0195167"><ele>209.0</ele><time>2026-04-25T17:20:09.112Z</time></trkpt><trkpt lat="44.8054033" lon="8.0193533"><ele>209.0</ele><time>2026-04-25T17:20:10.112Z</time></trkpt><trkpt lat="44.805465" lon="8.0191833"><ele>209.0</ele><time>2026-04-25T17:20:11.112Z</time></trkpt><trkpt lat="44.80553" lon="8.01903"><ele>209.0</ele><time>2026-04-25T17:20:12.112Z</time></trkpt><trkpt lat="44.805585" lon="8.018875"><ele>209.0</ele><time>2026-04-25T17:20:13.112Z</time></trkpt><trkpt lat="44.8056383" lon="8.0187183"><ele>207.5</ele><time>2026-04-25T17:20:14.112Z</time></trkpt><trkpt lat="44.8056833" lon="8.0185683"><ele>206.0</ele><time>2026-04-25T17:20:15.112Z</time></trkpt><trkpt lat="44.8057283" lon="8.0184133"><ele>204.5</ele><time>2026-04-25T17:20:16.112Z</time></trkpt><trkpt lat="44.8057783" lon="8.0182517"><ele>203.0</ele><time>2026-04-25T17:20:17.112Z</time></trkpt><trkpt lat="44.8058417" lon="8.0180933"><ele>202.25</ele><time>2026-04-25T17:20:18.112Z</time></trkpt><trkpt lat="44.8059067" lon="8.0179533"><ele>201.5</ele><time>2026-04-25T17:20:19.112Z</time></trkpt><trkpt lat="44.80598" lon="8.0178133"><ele>200.75</ele><time>2026-04-25T17:20:20.112Z</time></trkpt><trkpt lat="44.8060667" lon="8.0176817"><ele>200.0</ele><time>2026-04-25T17:20:21.112Z</time></trkpt><trkpt lat="44.80615" lon="8.017565"><ele>203.25</ele><time>2026-04-25T17:20:22.112Z</time></trkpt><trkpt lat="44.806225" lon="8.0174433"><ele>206.5</ele><time>2026-04-25T17:20:23.112Z</time></trkpt><trkpt lat="44.8063083" lon="8.0173133"><ele>209.75</ele><time>2026-04-25T17:20:24.112Z</time></trkpt><trkpt lat="44.8063967" lon="8.0171933"><ele>213.0</ele><time>2026-04-25T17:20:25.112Z</time></trkpt><trkpt lat="44.8064767" lon="8.0170733"><ele>213.0</ele><time>2026-04-25T17:20:26.112Z</time></trkpt><trkpt lat="44.8065567" lon="8.0169633"><ele>213.0</ele><time>2026-04-25T17:20:27.112Z</time></trkpt><trkpt lat="44.80665" lon="8.0168667"><ele>213.0</ele><time>2026-04-25T17:20:28.112Z</time></trkpt><trkpt lat="44.80674" lon="8.016785"><ele>213.0</ele><time>2026-04-25T17:20:29.112Z</time></trkpt><trkpt lat="44.8068433" lon="8.0167167"><ele>213.0</ele><time>2026-04-25T17:20:30.112Z</time></trkpt><trkpt lat="44.8069417" lon="8.01665"><ele>217.0</ele><time>2026-04-25T17:20:31.112Z</time></trkpt><trkpt lat="44.807035" lon="8.0165767"><ele>221.0</ele><time>2026-04-25T17:20:32.112Z</time></trkpt><trkpt lat="44.8071317" lon="8.0164783"><ele>225.0</ele><time>2026-04-25T17:20:33.112Z</time></trkpt><trkpt lat="44.8072167" lon="8.0163583"><ele>229.0</ele><time>2026-04-25T17:20:34.112Z</time></trkpt><trkpt lat="44.8072817" lon="8.01622"><ele>229.0</ele><time>2026-04-25T17:20:35.112Z</time></trkpt><trkpt lat="44.8073483" lon="8.016075"><ele>229.0</ele><time>2026-04-25T17:20:36.112Z</time></trkpt><trkpt lat="44.8074167" lon="8.0159267"><ele>229.0</ele><time>2026-04-25T17:20:37.112Z</time></trkpt><trkpt lat="44.8074883" lon="8.015765"><ele>229.0</ele><time>2026-04-25T17:20:38.112Z</time></trkpt><trkpt lat="44.8075517" lon="8.015605"><ele>229.5</ele><time>2026-04-25T17:20:39.112Z</time></trkpt><trkpt lat="44.8076383" lon="8.0154367"><ele>230.0</ele><time>2026-04-25T17:20:40.112Z</time></trkpt><trkpt lat="44.80771" lon="8.0152733"><ele>230.5</ele><time>2026-04-25T17:20:41.112Z</time></trkpt><trkpt lat="44.8077783" lon="8.0151083"><ele>231.0</ele><time>2026-04-25T17:20:42.112Z</time></trkpt><trkpt lat="44.80783" lon="8.0149367"><ele>237.5</ele><time>2026-04-25T17:20:43.112Z</time></trkpt><trkpt lat="44.8078733" lon="8.014785"><ele>244.0</ele><time>2026-04-25T17:20:44.112Z</time></trkpt><trkpt lat="44.8079233" lon="8.0146233"><ele>250.5</ele><time>2026-04-25T17:20:45.112Z</time></trkpt><trkpt lat="44.8079783" lon="8.0144567"><ele>257.0</ele><time>2026-04-25T17:20:46.112Z</time></trkpt><trkpt lat="44.8080283" lon="8.0142883"><ele>258.0</ele><time>2026-04-25T17:20:47.112Z</time></trkpt><trkpt lat="44.80808" lon="8.0141183"><ele>259.0</ele><time>2026-04-25T17:20:48.112Z</time></trkpt><trkpt lat="44.8081317" lon="8.0139633"><ele>260.0</ele><time>2026-04-25T17:20:49.112Z</time></trkpt><trkpt lat="44.8082033" lon="8.0138367"><ele>261.0</ele><time>2026-04-25T17:20:50.112Z</time></trkpt><trkpt lat="44.808285" lon="8.0137167"><ele>261.0</ele><time>2026-04-25T17:20:51.112Z</time></trkpt><trkpt lat="44.808385" lon="8.0136467"><ele>261.0</ele><time>2026-04-25T17:20:52.112Z</time></trkpt><trkpt lat="44.8084783" lon="8.013565"><ele>261.0</ele><time>2026-04-25T17:20:53.112Z</time></trkpt><trkpt lat="44.8085483" lon="8.0134983"><ele>261.0</ele><time>2026-04-25T17:20:54.112Z</time></trkpt><trkpt lat="44.80862" lon="8.0134317"><ele>261.0</ele><time>2026-04-25T17:20:56.112Z</time></trkpt><trkpt lat="44.8086883" lon="8.0133933"><ele>261.2</ele><time>2026-04-25T17:20:58.112Z</time></trkpt><trkpt lat="44.80882" lon="8.013405"><ele>261.40000000000003</ele><time>2026-04-25T17:21:00.112Z</time></trkpt><trkpt lat="44.80891" lon="8.01345"><ele>261.6</ele><time>2026-04-25T17:21:01.112Z</time></trkpt><trkpt lat="44.8090067" lon="8.0135033"><ele>261.8</ele><time>2026-04-25T17:21:02.112Z</time></trkpt><trkpt lat="44.809095" lon="8.0135583"><ele>262.0</ele><time>2026-04-25T17:21:03.112Z</time></trkpt><trkpt lat="44.809185" lon="8.0136133"><ele>262.0</ele><time>2026-04-25T17:21:04.112Z</time></trkpt><trkpt lat="44.8092917" lon="8.013645"><ele>262.0</ele><time>2026-04-25T17:21:05.112Z</time></trkpt><trkpt lat="44.809395" lon="8.0136383"><ele>262.0</ele><time>2026-04-25T17:21:06.112Z</time></trkpt><trkpt lat="44.809505" lon="8.0136"><ele>262.0</ele><time>2026-04-25T17:21:07.112Z</time></trkpt><trkpt lat="44.8096083" lon="8.0135417"><ele>262.0</ele><time>2026-04-25T17:21:08.112Z</time></trkpt><trkpt lat="44.809685" lon="8.0134383"><ele>261.6</ele><time>2026-04-25T17:21:09.112Z</time></trkpt><trkpt lat="44.8097433" lon="8.0133333"><ele>261.2</ele><time>2026-04-25T17:21:10.112Z</time></trkpt><trkpt lat="44.8097833" lon="8.0132033"><ele>260.8</ele><time>2026-04-25T17:21:11.112Z</time></trkpt><trkpt lat="44.809825" lon="8.0130817"><ele>260.4</ele><time>2026-04-25T17:21:12.112Z</time></trkpt><trkpt lat="44.80987" lon="8.0129567"><ele>260.0</ele><time>2026-04-25T17:21:13.112Z</time></trkpt><trkpt lat="44.80993" lon="8.0128467"><ele>260.0</ele><time>2026-04-25T17:21:14.112Z</time></trkpt><trkpt lat="44.8099917" lon="8.0127517"><ele>260.0</ele><time>2026-04-25T17:21:15.112Z</time></trkpt><trkpt lat="44.8100617" lon="8.0126733"><ele>260.0</ele><time>2026-04-25T17:21:16.112Z</time></trkpt><trkpt lat="44.8101283" lon="8.0126233"><ele>260.0</ele><time>2026-04-25T17:21:17.112Z</time></trkpt><trkpt lat="44.8101967" lon="8.01259"><ele>260.0</ele><time>2026-04-25T17:21:18.112Z</time></trkpt><trkpt lat="44.8102767" lon="8.0125817"><ele>260.0</ele><time>2026-04-25T17:21:19.112Z</time></trkpt><trkpt lat="44.8103567" lon="8.0126"><ele>257.5</ele><time>2026-04-25T17:21:20.112Z</time></trkpt><trkpt lat="44.8104517" lon="8.0126567"><ele>255.0</ele><time>2026-04-25T17:21:21.112Z</time></trkpt><trkpt lat="44.8105733" lon="8.0127683"><ele>252.5</ele><time>2026-04-25T17:21:22.112Z</time></trkpt><trkpt lat="44.8107067" lon="8.0128933"><ele>250.0</ele><time>2026-04-25T17:21:23.112Z</time></trkpt><trkpt lat="44.8108367" lon="8.0130267"><ele>250.0</ele><time>2026-04-25T17:21:24.112Z</time></trkpt><trkpt lat="44.81094" lon="8.0131767"><ele>250.0</ele><time>2026-04-25T17:21:25.112Z</time></trkpt><trkpt lat="44.8110367" lon="8.013335"><ele>250.0</ele><time>2026-04-25T17:21:26.112Z</time></trkpt><trkpt lat="44.811125" lon="8.0134733"><ele>250.0</ele><time>2026-04-25T17:21:27.112Z</time></trkpt><trkpt lat="44.8112333" lon="8.013575"><ele>252.0</ele><time>2026-04-25T17:21:28.112Z</time></trkpt><trkpt lat="44.8113617" lon="8.0136333"><ele>254.0</ele><time>2026-04-25T17:21:29.112Z</time></trkpt><trkpt lat="44.8115017" lon="8.013665"><ele>256.0</ele><time>2026-04-25T17:21:30.112Z</time></trkpt><trkpt lat="44.81165" lon="8.0136783"><ele>258.0</ele><time>2026-04-25T17:21:31.112Z</time></trkpt><trkpt lat="44.811795" lon="8.013685"><ele>257.5</ele><time>2026-04-25T17:21:32.112Z</time></trkpt><trkpt lat="44.8119333" lon="8.0136833"><ele>257.0</ele><time>2026-04-25T17:21:33.112Z</time></trkpt><trkpt lat="44.8120633" lon="8.0136933"><ele>256.5</ele><time>2026-04-25T17:21:34.112Z</time></trkpt><trkpt lat="44.8121967" lon="8.01372"><ele>256.0</ele><time>2026-04-25T17:21:35.112Z</time></trkpt><trkpt lat="44.8123283" lon="8.0137617"><ele>256.0</ele><time>2026-04-25T17:21:36.112Z</time></trkpt><trkpt lat="44.8124633" lon="8.0138233"><ele>256.0</ele><time>2026-04-25T17:21:37.112Z</time></trkpt><trkpt lat="44.812585" lon="8.0138983"><ele>256.0</ele><time>2026-04-25T17:21:38.112Z</time></trkpt><trkpt lat="44.812705" lon="8.013985"><ele>256.0</ele><time>2026-04-25T17:21:39.112Z</time></trkpt><trkpt lat="44.81281" lon="8.0140883"><ele>257.40000000000003</ele><time>2026-04-25T17:21:40.112Z</time></trkpt><trkpt lat="44.8129017" lon="8.014185"><ele>258.8</ele><time>2026-04-25T17:21:41.112Z</time></trkpt><trkpt lat="44.81297" lon="8.0142817"><ele>260.20000000000005</ele><time>2026-04-25T17:21:42.112Z</time></trkpt><trkpt lat="44.8130217" lon="8.014365"><ele>261.6</ele><time>2026-04-25T17:21:43.112Z</time></trkpt><trkpt lat="44.813105" lon="8.014495"><ele>263.0</ele><time>2026-04-25T17:21:45.112Z</time></trkpt><trkpt lat="44.81322" lon="8.0145817"><ele>263.0</ele><time>2026-04-25T17:21:47.112Z</time></trkpt><trkpt lat="44.8132983" lon="8.0146117"><ele>263.0</ele><time>2026-04-25T17:21:48.112Z</time></trkpt><trkpt lat="44.8133783" lon="8.014635"><ele>263.0</ele><time>2026-04-25T17:21:49.112Z</time></trkpt><trkpt lat="44.8134583" lon="8.0146217"><ele>263.0</ele><time>2026-04-25T17:21:50.112Z</time></trkpt><trkpt lat="44.813535" lon="8.0145967"><ele>263.0</ele><time>2026-04-25T17:21:51.112Z</time></trkpt><trkpt lat="44.8136133" lon="8.0145383"><ele>263.0</ele><time>2026-04-25T17:21:52.112Z</time></trkpt><trkpt lat="44.8136983" lon="8.0144583"><ele>262.6</ele><time>2026-04-25T17:21:53.112Z</time></trkpt><trkpt lat="44.8137767" lon="8.0143767"><ele>262.20000000000005</ele><time>2026-04-25T17:21:54.112Z</time></trkpt><trkpt lat="44.8138567" lon="8.0142883"><ele>261.8</ele><time>2026-04-25T17:21:55.112Z</time></trkpt><trkpt lat="44.813945" lon="8.0141917"><ele>261.40000000000003</ele><time>2026-04-25T17:21:56.112Z</time></trkpt><trkpt lat="44.8140333" lon="8.0140917"><ele>261.0</ele><time>2026-04-25T17:21:57.112Z</time></trkpt><trkpt lat="44.8141233" lon="8.0140067"><ele>260.6</ele><time>2026-04-25T17:21:58.112Z</time></trkpt><trkpt lat="44.8142067" lon="8.0139117"><ele>260.20000000000005</ele><time>2026-04-25T17:21:59.112Z</time></trkpt><trkpt lat="44.814285" lon="8.0138183"><ele>259.79999999999995</ele><time>2026-04-25T17:22:00.112Z</time></trkpt><trkpt lat="44.81436" lon="8.0137383"><ele>259.4</ele><time>2026-04-25T17:22:01.112Z</time></trkpt><trkpt lat="44.8144333" lon="8.013675"><ele>259.0</ele><time>2026-04-25T17:22:02.112Z</time></trkpt><trkpt lat="44.81452" lon="8.0136233"><ele>258.59999999999997</ele><time>2026-04-25T17:22:03.112Z</time></trkpt><trkpt lat="44.81461" lon="8.0135817"><ele>258.2</ele><time>2026-04-25T17:22:04.112Z</time></trkpt><trkpt lat="44.8147133" lon="8.013545"><ele>257.79999999999995</ele><time>2026-04-25T17:22:05.112Z</time></trkpt><trkpt lat="44.8148217" lon="8.0135133"><ele>257.4</ele><time>2026-04-25T17:22:06.112Z</time></trkpt><trkpt lat="44.81492" lon="8.013495"><ele>257.0</ele><time>2026-04-25T17:22:07.112Z</time></trkpt><trkpt lat="44.815015" lon="8.01348"><ele>257.0</ele><time>2026-04-25T17:22:08.112Z</time></trkpt><trkpt lat="44.8151083" lon="8.0134917"><ele>257.0</ele><time>2026-04-25T17:22:09.112Z</time></trkpt><trkpt lat="44.815195" lon="8.0135267"><ele>257.0</ele><time>2026-04-25T17:22:10.112Z</time></trkpt><trkpt lat="44.8152883" lon="8.0135667"><ele>257.0</ele><time>2026-04-25T17:22:11.112Z</time></trkpt><trkpt lat="44.8153817" lon="8.0136183"><ele>257.0</ele><time>2026-04-25T17:22:12.112Z</time></trkpt><trkpt lat="44.8154783" lon="8.0136683"><ele>255.0</ele><time>2026-04-25T17:22:13.112Z</time></trkpt><trkpt lat="44.8155783" lon="8.0137383"><ele>253.0</ele><time>2026-04-25T17:22:14.112Z</time></trkpt><trkpt lat="44.815695" lon="8.0137967"><ele>251.0</ele><time>2026-04-25T17:22:15.112Z</time></trkpt><trkpt lat="44.8158083" lon="8.0138733"><ele>249.0</ele><time>2026-04-25T17:22:16.112Z</time></trkpt><trkpt lat="44.8159133" lon="8.0139617"><ele>248.0</ele><time>2026-04-25T17:22:17.112Z</time></trkpt><trkpt lat="44.8160117" lon="8.0140533"><ele>247.0</ele><time>2026-04-25T17:22:18.112Z</time></trkpt><trkpt lat="44.8161133" lon="8.0141333"><ele>246.0</ele><time>2026-04-25T17:22:19.112Z</time></trkpt><trkpt lat="44.8162133" lon="8.0142017"><ele>245.0</ele><time>2026-04-25T17:22:20.112Z</time></trkpt><trkpt lat="44.8163083" lon="8.0142633"><ele>241.25</ele><time>2026-04-25T17:22:21.112Z</time></trkpt><trkpt lat="44.8164183" lon="8.01429"><ele>237.5</ele><time>2026-04-25T17:22:22.112Z</time></trkpt><trkpt lat="44.81654" lon="8.0143"><ele>233.75</ele><time>2026-04-25T17:22:23.112Z</time></trkpt><trkpt lat="44.8166617" lon="8.0143"><ele>230.0</ele><time>2026-04-25T17:22:24.112Z</time></trkpt><trkpt lat="44.81679" lon="8.0143017"><ele>228.5</ele><time>2026-04-25T17:22:25.112Z</time></trkpt><trkpt lat="44.81691" lon="8.0143"><ele>227.0</ele><time>2026-04-25T17:22:26.112Z</time></trkpt><trkpt lat="44.8170317" lon="8.0143133"><ele>225.5</ele><time>2026-04-25T17:22:27.112Z</time></trkpt><trkpt lat="44.8171467" lon="8.014335"><ele>224.0</ele><time>2026-04-25T17:22:28.112Z</time></trkpt><trkpt lat="44.8172617" lon="8.01436"><ele>224.0</ele><time>2026-04-25T17:22:29.112Z</time></trkpt><trkpt lat="44.8173783" lon="8.0143933"><ele>224.0</ele><time>2026-04-25T17:22:30.112Z</time></trkpt><trkpt lat="44.8174933" lon="8.0144167"><ele>224.0</ele><time>2026-04-25T17:22:31.112Z</time></trkpt><trkpt lat="44.8176017" lon="8.0144517"><ele>224.0</ele><time>2026-04-25T17:22:32.112Z</time></trkpt><trkpt lat="44.8177083" lon="8.014485"><ele>223.39999999999998</ele><time>2026-04-25T17:22:33.112Z</time></trkpt><trkpt lat="44.8178083" lon="8.01452"><ele>222.79999999999998</ele><time>2026-04-25T17:22:34.112Z</time></trkpt><trkpt lat="44.8178933" lon="8.01457"><ele>222.20000000000002</ele><time>2026-04-25T17:22:35.112Z</time></trkpt><trkpt lat="44.817985" lon="8.014635"><ele>221.60000000000002</ele><time>2026-04-25T17:22:36.112Z</time></trkpt><trkpt lat="44.8180583" lon="8.0147017"><ele>221.0</ele><time>2026-04-25T17:22:37.112Z</time></trkpt><trkpt lat="44.8181333" lon="8.0147617"><ele>221.00000000000003</ele><time>2026-04-25T17:22:38.112Z</time></trkpt><trkpt lat="44.8182167" lon="8.0148117"><ele>221.0</ele><time>2026-04-25T17:22:39.112Z</time></trkpt><trkpt lat="44.818295" lon="8.014835"><ele>221.0</ele><time>2026-04-25T17:22:40.112Z</time></trkpt><trkpt lat="44.8183767" lon="8.0148317"><ele>221.0</ele><time>2026-04-25T17:22:41.112Z</time></trkpt><trkpt lat="44.81846" lon="8.0148267"><ele>221.00000000000003</ele><time>2026-04-25T17:22:42.112Z</time></trkpt><trkpt lat="44.8185533" lon="8.0148433"><ele>221.0</ele><time>2026-04-25T17:22:43.112Z</time></trkpt><trkpt lat="44.818655" lon="8.0148733"><ele>220.60000000000002</ele><time>2026-04-25T17:22:44.112Z</time></trkpt><trkpt lat="44.81876" lon="8.014915"><ele>220.20000000000002</ele><time>2026-04-25T17:22:45.112Z</time></trkpt><trkpt lat="44.8188567" lon="8.0149617"><ele>219.79999999999998</ele><time>2026-04-25T17:22:46.112Z</time></trkpt><trkpt lat="44.818945" lon="8.015"><ele>219.39999999999998</ele><time>2026-04-25T17:22:47.112Z</time></trkpt><trkpt lat="44.8190383" lon="8.0150383"><ele>219.0</ele><time>2026-04-25T17:22:48.112Z</time></trkpt><trkpt lat="44.8191433" lon="8.015065"><ele>217.0</ele><time>2026-04-25T17:22:49.112Z</time></trkpt><trkpt lat="44.81925" lon="8.0150817"><ele>214.99999999999997</ele><time>2026-04-25T17:22:50.112Z</time></trkpt><trkpt lat="44.8193583" lon="8.0150983"><ele>213.0</ele><time>2026-04-25T17:22:51.112Z</time></trkpt><trkpt lat="44.8194767" lon="8.0151117"><ele>211.0</ele><time>2026-04-25T17:22:52.112Z</time></trkpt><trkpt lat="44.8195867" lon="8.01511"><ele>209.0</ele><time>2026-04-25T17:22:53.112Z</time></trkpt><trkpt lat="44.8196983" lon="8.0150833"><ele>209.0</ele><time>2026-04-25T17:22:54.112Z</time></trkpt><trkpt lat="44.8198033" lon="8.0150317"><ele>209.0</ele><time>2026-04-25T17:22:55.112Z</time></trkpt><trkpt lat="44.819905" lon="8.014975"><ele>209.0</ele><time>2026-04-25T17:22:56.112Z</time></trkpt><trkpt lat="44.8200083" lon="8.0149033"><ele>209.0</ele><time>2026-04-25T17:22:57.112Z</time></trkpt><trkpt lat="44.820115" lon="8.0148333"><ele>208.2</ele><time>2026-04-25T17:22:58.112Z</time></trkpt><trkpt lat="44.8202167" lon="8.0147583"><ele>207.39999999999998</ele><time>2026-04-25T17:22:59.112Z</time></trkpt><trkpt lat="44.82031" lon="8.01469"><ele>206.6</ele><time>2026-04-25T17:23:00.112Z</time></trkpt><trkpt lat="44.8203983" lon="8.014625"><ele>205.8</ele><time>2026-04-25T17:23:01.112Z</time></trkpt><trkpt lat="44.82048" lon="8.0145517"><ele>205.0</ele><time>2026-04-25T17:23:02.112Z</time></trkpt><trkpt lat="44.8205517" lon="8.0144833"><ele>205.0</ele><time>2026-04-25T17:23:03.112Z</time></trkpt><trkpt lat="44.8206117" lon="8.0144167"><ele>205.0</ele><time>2026-04-25T17:23:04.112Z</time></trkpt><trkpt lat="44.8207033" lon="8.0143267"><ele>205.0</ele><time>2026-04-25T17:23:06.112Z</time></trkpt><trkpt lat="44.8207767" lon="8.0143533"><ele>205.0</ele><time>2026-04-25T17:23:10.112Z</time></trkpt><trkpt lat="44.8208467" lon="8.014455"><ele>205.0</ele><time>2026-04-25T17:23:12.112Z</time></trkpt><trkpt lat="44.8209667" lon="8.0144967"><ele>204.99999999999997</ele><time>2026-04-25T17:23:14.112Z</time></trkpt><trkpt lat="44.82103" lon="8.01448"><ele>205.0</ele><time>2026-04-25T17:23:15.112Z</time></trkpt><trkpt lat="44.8210983" lon="8.0144417"><ele>205.0</ele><time>2026-04-25T17:23:16.112Z</time></trkpt><trkpt lat="44.8211817" lon="8.014395"><ele>205.0</ele><time>2026-04-25T17:23:17.112Z</time></trkpt><trkpt lat="44.8212733" lon="8.0143533"><ele>204.99999999999997</ele><time>2026-04-25T17:23:18.112Z</time></trkpt><trkpt lat="44.82135" lon="8.0143583"><ele>205.0</ele><time>2026-04-25T17:23:19.112Z</time></trkpt><trkpt lat="44.821425" lon="8.0143717"><ele>205.0</ele><time>2026-04-25T17:23:20.112Z</time></trkpt><trkpt lat="44.8214883" lon="8.0144133"><ele>205.0</ele><time>2026-04-25T17:23:21.112Z</time></trkpt><trkpt lat="44.82157" lon="8.0144567"><ele>205.0</ele><time>2026-04-25T17:23:22.112Z</time></trkpt><trkpt lat="44.8216567" lon="8.0144983"><ele>205.0</ele><time>2026-04-25T17:23:23.112Z</time></trkpt><trkpt lat="44.821755" lon="8.0145433"><ele>205.0</ele><time>2026-04-25T17:23:24.112Z</time></trkpt><trkpt lat="44.8218517" lon="8.01459"><ele>204.25</ele><time>2026-04-25T17:23:25.112Z</time></trkpt><trkpt lat="44.8219617" lon="8.0146367"><ele>203.5</ele><time>2026-04-25T17:23:26.112Z</time></trkpt><trkpt lat="44.8220667" lon="8.0146767"><ele>202.75</ele><time>2026-04-25T17:23:27.112Z</time></trkpt><trkpt lat="44.822185" lon="8.0147083"><ele>202.0</ele><time>2026-04-25T17:23:28.112Z</time></trkpt><trkpt lat="44.8223" lon="8.0147433"><ele>202.0</ele><time>2026-04-25T17:23:29.112Z</time></trkpt><trkpt lat="44.82241" lon="8.0147867"><ele>202.0</ele><time>2026-04-25T17:23:30.112Z</time></trkpt><trkpt lat="44.8225233" lon="8.0148233"><ele>202.0</ele><time>2026-04-25T17:23:31.112Z</time></trkpt><trkpt lat="44.82263" lon="8.01485"><ele>202.0</ele><time>2026-04-25T17:23:32.112Z</time></trkpt><trkpt lat="44.82273" lon="8.0148617"><ele>202.0</ele><time>2026-04-25T17:23:33.112Z</time></trkpt><trkpt lat="44.8228183" lon="8.014865"><ele>201.83333333333331</ele><time>2026-04-25T17:23:34.112Z</time></trkpt><trkpt lat="44.822905" lon="8.0148483"><ele>201.66666666666666</ele><time>2026-04-25T17:23:35.112Z</time></trkpt><trkpt lat="44.82299" lon="8.0148283"><ele>201.5</ele><time>2026-04-25T17:23:36.112Z</time></trkpt><trkpt lat="44.8230617" lon="8.0148083"><ele>201.33333333333331</ele><time>2026-04-25T17:23:37.112Z</time></trkpt><trkpt lat="44.8231533" lon="8.0147717"><ele>201.16666666666666</ele><time>2026-04-25T17:23:39.112Z</time></trkpt><trkpt lat="44.823225" lon="8.0146617"><ele>201.0</ele><time>2026-04-25T17:23:41.112Z</time></trkpt><trkpt lat="44.8232717" lon="8.014565"><ele>201.0</ele><time>2026-04-25T17:23:42.112Z</time></trkpt><trkpt lat="44.8233233" lon="8.0144583"><ele>201.0</ele><time>2026-04-25T17:23:43.112Z</time></trkpt><trkpt lat="44.82338" lon="8.0143433"><ele>201.0</ele><time>2026-04-25T17:23:44.112Z</time></trkpt><trkpt lat="44.8234517" lon="8.01421"><ele>201.0</ele><time>2026-04-25T17:23:45.112Z</time></trkpt><trkpt lat="44.8235333" lon="8.0140783"><ele>201.0</ele><time>2026-04-25T17:23:46.112Z</time></trkpt><trkpt lat="44.8236283" lon="8.013945"><ele>201.25</ele><time>2026-04-25T17:23:47.112Z</time></trkpt><trkpt lat="44.8237383" lon="8.0138217"><ele>201.5</ele><time>2026-04-25T17:23:48.112Z</time></trkpt><trkpt lat="44.823865" lon="8.013715"><ele>201.75</ele><time>2026-04-25T17:23:49.112Z</time></trkpt><trkpt lat="44.8240067" lon="8.0136133"><ele>202.0</ele><time>2026-04-25T17:23:50.112Z</time></trkpt><trkpt lat="44.824135" lon="8.0134933"><ele>202.0</ele><time>2026-04-25T17:23:51.112Z</time></trkpt><trkpt lat="44.8242417" lon="8.0133417"><ele>202.0</ele><time>2026-04-25T17:23:52.112Z</time></trkpt><trkpt lat="44.8243383" lon="8.01317"><ele>202.0</ele><time>2026-04-25T17:23:53.112Z</time></trkpt><trkpt lat="44.8244183" lon="8.01298"><ele>202.8</ele><time>2026-04-25T17:23:54.112Z</time></trkpt><trkpt lat="44.824465" lon="8.0128067"><ele>203.6</ele><time>2026-04-25T17:23:55.112Z</time></trkpt><trkpt lat="44.8244983" lon="8.0126717"><ele>204.4</ele><time>2026-04-25T17:23:56.112Z</time></trkpt><trkpt lat="44.8245283" lon="8.01257"><ele>205.20000000000002</ele><time>2026-04-25T17:23:57.112Z</time></trkpt><trkpt lat="44.8245583" lon="8.0124083"><ele>206.0</ele><time>2026-04-25T17:23:59.112Z</time></trkpt><trkpt lat="44.8245883" lon="8.0122533"><ele>206.66666666666669</ele><time>2026-04-25T17:24:01.112Z</time></trkpt><trkpt lat="44.824605" lon="8.01215"><ele>207.33333333333334</ele><time>2026-04-25T17:24:02.112Z</time></trkpt><trkpt lat="44.8246217" lon="8.0120333"><ele>208.0</ele><time>2026-04-25T17:24:03.112Z</time></trkpt><trkpt lat="44.824635" lon="8.011905"><ele>208.66666666666669</ele><time>2026-04-25T17:24:04.112Z</time></trkpt><trkpt lat="44.8246467" lon="8.0117817"><ele>209.33333333333334</ele><time>2026-04-25T17:24:05.112Z</time></trkpt><trkpt lat="44.8246617" lon="8.0116817"><ele>210.0</ele><time>2026-04-25T17:24:06.112Z</time></trkpt><trkpt lat="44.8246717" lon="8.01155"><ele>210.0</ele><time>2026-04-25T17:24:08.112Z</time></trkpt><trkpt lat="44.8246117" lon="8.0115783"><ele>210.0</ele><time>2026-04-25T17:24:11.112Z</time></trkpt><trkpt lat="44.8246183" lon="8.01175"><ele>210.0</ele><time>2026-04-25T17:24:13.112Z</time></trkpt><trkpt lat="44.82462" lon="8.0118567"><ele>210.0</ele><time>2026-04-25T17:24:14.112Z</time></trkpt><trkpt lat="44.82461" lon="8.01198"><ele>210.0</ele><time>2026-04-25T17:24:15.112Z</time></trkpt><trkpt lat="44.82459" lon="8.0121067"><ele>210.0</ele><time>2026-04-25T17:24:16.112Z</time></trkpt><trkpt lat="44.8245667" lon="8.0122333"><ele>210.0</ele><time>2026-04-25T17:24:17.112Z</time></trkpt><trkpt lat="44.8245383" lon="8.0123533"><ele>210.0</ele><time>2026-04-25T17:24:18.112Z</time></trkpt><trkpt lat="44.82451" lon="8.0124683"><ele>210.0</ele><time>2026-04-25T17:24:19.112Z</time></trkpt><trkpt lat="44.8244883" lon="8.0125733"><ele>210.0</ele><time>2026-04-25T17:24:20.112Z</time></trkpt><trkpt lat="44.8244583" lon="8.01272"><ele>210.0</ele><time>2026-04-25T17:24:22.112Z</time></trkpt><trkpt lat="44.8244767" lon="8.0128117"><ele>210.0</ele><time>2026-04-25T17:24:24.112Z</time></trkpt><trkpt lat="44.82455" lon="8.0128117"><ele>209.33333333333334</ele><time>2026-04-25T17:24:26.112Z</time></trkpt><trkpt lat="44.82465" lon="8.0126933"><ele>208.66666666666669</ele><time>2026-04-25T17:24:28.112Z</time></trkpt><trkpt lat="44.824705" lon="8.012625"><ele>208.0</ele><time>2026-04-25T17:24:29.112Z</time></trkpt><trkpt lat="44.8247717" lon="8.012585"><ele>207.33333333333334</ele><time>2026-04-25T17:24:30.112Z</time></trkpt><trkpt lat="44.824845" lon="8.012575"><ele>206.66666666666669</ele><time>2026-04-25T17:24:31.112Z</time></trkpt><trkpt lat="44.824915" lon="8.0125983"><ele>206.0</ele><time>2026-04-25T17:24:32.112Z</time></trkpt><trkpt lat="44.82498" lon="8.01264"><ele>205.99999999999997</ele><time>2026-04-25T17:24:33.112Z</time></trkpt><trkpt lat="44.8250467" lon="8.0126617"><ele>206.0</ele><time>2026-04-25T17:24:34.112Z</time></trkpt><trkpt lat="44.8251167" lon="8.01268"><ele>206.0</ele><time>2026-04-25T17:24:35.112Z</time></trkpt><trkpt lat="44.8251883" lon="8.0126867"><ele>206.0</ele><time>2026-04-25T17:24:36.112Z</time></trkpt><trkpt lat="44.8252567" lon="8.0126833"><ele>206.0</ele><time>2026-04-25T17:24:37.112Z</time></trkpt><trkpt lat="44.8253217" lon="8.0126883"><ele>205.99999999999997</ele><time>2026-04-25T17:24:38.112Z</time></trkpt><trkpt lat="44.8253883" lon="8.0126867"><ele>206.0</ele><time>2026-04-25T17:24:39.112Z</time></trkpt><trkpt lat="44.8254617" lon="8.0126817"><ele>208.83333333333334</ele><time>2026-04-25T17:24:40.112Z</time></trkpt><trkpt lat="44.8255367" lon="8.0126683"><ele>211.66666666666669</ele><time>2026-04-25T17:24:41.112Z</time></trkpt><trkpt lat="44.8256133" lon="8.01266"><ele>214.5</ele><time>2026-04-25T17:24:42.112Z</time></trkpt><trkpt lat="44.8256917" lon="8.0126583"><ele>217.33333333333331</ele><time>2026-04-25T17:24:43.112Z</time></trkpt><trkpt lat="44.825775" lon="8.0126617"><ele>220.16666666666666</ele><time>2026-04-25T17:24:44.112Z</time></trkpt><trkpt lat="44.8258567" lon="8.0126667"><ele>223.0</ele><time>2026-04-25T17:24:45.112Z</time></trkpt><trkpt lat="44.8259417" lon="8.0126717"><ele>225.99999999999997</ele><time>2026-04-25T17:24:46.112Z</time></trkpt><trkpt lat="44.8260183" lon="8.0126767"><ele>229.0</ele><time>2026-04-25T17:24:47.112Z</time></trkpt><trkpt lat="44.8261033" lon="8.012695"><ele>232.0</ele><time>2026-04-25T17:24:48.112Z</time></trkpt><trkpt lat="44.8261867" lon="8.0127033"><ele>235.0</ele><time>2026-04-25T17:24:49.112Z</time></trkpt><trkpt lat="44.8262683" lon="8.0127133"><ele>237.99999999999997</ele><time>2026-04-25T17:24:50.112Z</time></trkpt><trkpt lat="44.826355" lon="8.012725"><ele>241.0</ele><time>2026-04-25T17:24:51.112Z</time></trkpt><trkpt lat="44.8264433" lon="8.01274"><ele>240.99999999999997</ele><time>2026-04-25T17:24:52.112Z</time></trkpt><trkpt lat="44.8265317" lon="8.012745"><ele>241.0</ele><time>2026-04-25T17:24:53.112Z</time></trkpt><trkpt lat="44.826615" lon="8.0127367"><ele>241.0</ele><time>2026-04-25T17:24:54.112Z</time></trkpt><trkpt lat="44.8266967" lon="8.0127067"><ele>241.0</ele><time>2026-04-25T17:24:55.112Z</time></trkpt><trkpt lat="44.8267717" lon="8.0126633"><ele>240.99999999999997</ele><time>2026-04-25T17:24:56.112Z</time></trkpt><trkpt lat="44.82685" lon="8.0126017"><ele>241.0</ele><time>2026-04-25T17:24:57.112Z</time></trkpt><trkpt lat="44.8269267" lon="8.012525"><ele>244.20000000000002</ele><time>2026-04-25T17:24:58.112Z</time></trkpt><trkpt lat="44.826995" lon="8.0124383"><ele>247.40000000000003</ele><time>2026-04-25T17:24:59.112Z</time></trkpt><trkpt lat="44.827065" lon="8.0123533"><ele>250.6</ele><time>2026-04-25T17:25:00.112Z</time></trkpt><trkpt lat="44.8271367" lon="8.0122633"><ele>253.8</ele><time>2026-04-25T17:25:01.112Z</time></trkpt><trkpt lat="44.8272083" lon="8.012175"><ele>257.0</ele><time>2026-04-25T17:25:02.112Z</time></trkpt><trkpt lat="44.827275" lon="8.0120933"><ele>257.0</ele><time>2026-04-25T17:25:03.112Z</time></trkpt><trkpt lat="44.827345" lon="8.0120133"><ele>257.0</ele><time>2026-04-25T17:25:04.112Z</time></trkpt><trkpt lat="44.8274167" lon="8.0119333"><ele>257.0</ele><time>2026-04-25T17:25:05.112Z</time></trkpt><trkpt lat="44.8274933" lon="8.0118617"><ele>257.0</ele><time>2026-04-25T17:25:06.112Z</time></trkpt><trkpt lat="44.8275733" lon="8.0117983"><ele>257.0</ele><time>2026-04-25T17:25:07.112Z</time></trkpt><trkpt lat="44.827655" lon="8.0117533"><ele>258.8</ele><time>2026-04-25T17:25:08.112Z</time></trkpt><trkpt lat="44.82774" lon="8.011695"><ele>260.6</ele><time>2026-04-25T17:25:09.112Z</time></trkpt><trkpt lat="44.8278317" lon="8.0116517"><ele>262.40000000000003</ele><time>2026-04-25T17:25:10.112Z</time></trkpt><trkpt lat="44.8279233" lon="8.0116283"><ele>264.2</ele><time>2026-04-25T17:25:11.112Z</time></trkpt><trkpt lat="44.828005" lon="8.0115867"><ele>266.0</ele><time>2026-04-25T17:25:12.112Z</time></trkpt><trkpt lat="44.8280867" lon="8.0115367"><ele>267.0</ele><time>2026-04-25T17:25:13.112Z</time></trkpt><trkpt lat="44.828165" lon="8.0114717"><ele>268.0</ele><time>2026-04-25T17:25:14.112Z</time></trkpt><trkpt lat="44.828245" lon="8.0114"><ele>269.0</ele><time>2026-04-25T17:25:15.112Z</time></trkpt><trkpt lat="44.8283217" lon="8.01133"><ele>270.0</ele><time>2026-04-25T17:25:16.112Z</time></trkpt><trkpt lat="44.8283967" lon="8.011245"><ele>271.0</ele><time>2026-04-25T17:25:17.112Z</time></trkpt><trkpt lat="44.8284667" lon="8.0111583"><ele>274.8</ele><time>2026-04-25T17:25:18.112Z</time></trkpt><trkpt lat="44.828545" lon="8.0110683"><ele>278.6</ele><time>2026-04-25T17:25:19.112Z</time></trkpt><trkpt lat="44.8286217" lon="8.0109733"><ele>282.4</ele><time>2026-04-25T17:25:20.112Z</time></trkpt><trkpt lat="44.8286917" lon="8.0108733"><ele>286.2</ele><time>2026-04-25T17:25:21.112Z</time></trkpt><trkpt lat="44.8287633" lon="8.0107767"><ele>290.0</ele><time>2026-04-25T17:25:22.112Z</time></trkpt><trkpt lat="44.8288317" lon="8.0106917"><ele>290.0</ele><time>2026-04-25T17:25:23.112Z</time></trkpt><trkpt lat="44.8288967" lon="8.0106083"><ele>290.0</ele><time>2026-04-25T17:25:24.112Z</time></trkpt><trkpt lat="44.828965" lon="8.0105267"><ele>290.0</ele><time>2026-04-25T17:25:25.112Z</time></trkpt><trkpt lat="44.8290417" lon="8.010455"><ele>290.0</ele><time>2026-04-25T17:25:26.112Z</time></trkpt><trkpt lat="44.8291183" lon="8.01038"><ele>290.0</ele><time>2026-04-25T17:25:27.112Z</time></trkpt><trkpt lat="44.8291883" lon="8.010285"><ele>290.0</ele><time>2026-04-25T17:25:28.112Z</time></trkpt><trkpt lat="44.8292467" lon="8.010175"><ele>290.0</ele><time>2026-04-25T17:25:29.112Z</time></trkpt><trkpt lat="44.8292833" lon="8.01005"><ele>290.0</ele><time>2026-04-25T17:25:30.112Z</time></trkpt><trkpt lat="44.8293117" lon="8.00992"><ele>290.0</ele><time>2026-04-25T17:25:31.112Z</time></trkpt><trkpt lat="44.8293317" lon="8.0097917"><ele>290.0</ele><time>2026-04-25T17:25:32.112Z</time></trkpt><trkpt lat="44.8293467" lon="8.00967"><ele>293.1666666666667</ele><time>2026-04-25T17:25:33.112Z</time></trkpt><trkpt lat="44.829355" lon="8.0095533"><ele>296.33333333333337</ele><time>2026-04-25T17:25:34.112Z</time></trkpt><trkpt lat="44.829345" lon="8.0094167"><ele>299.5</ele><time>2026-04-25T17:25:35.112Z</time></trkpt><trkpt lat="44.829335" lon="8.009285"><ele>302.6666666666667</ele><time>2026-04-25T17:25:36.112Z</time></trkpt><trkpt lat="44.8293233" lon="8.0091583"><ele>305.8333333333333</ele><time>2026-04-25T17:25:37.112Z</time></trkpt><trkpt lat="44.8293083" lon="8.0090433"><ele>309.0</ele><time>2026-04-25T17:25:38.112Z</time></trkpt><trkpt lat="44.8292883" lon="8.00891"><ele>309.0</ele><time>2026-04-25T17:25:39.112Z</time></trkpt><trkpt lat="44.8292633" lon="8.0087817"><ele>309.0</ele><time>2026-04-25T17:25:40.112Z</time></trkpt><trkpt lat="44.829235" lon="8.00865"><ele>309.0</ele><time>2026-04-25T17:25:41.112Z</time></trkpt><trkpt lat="44.8292017" lon="8.0085317"><ele>309.0</ele><time>2026-04-25T17:25:42.112Z</time></trkpt><trkpt lat="44.8291683" lon="8.0084367"><ele>309.0</ele><time>2026-04-25T17:25:43.112Z</time></trkpt><trkpt lat="44.8291433" lon="8.008345"><ele>309.0</ele><time>2026-04-25T17:25:44.112Z</time></trkpt><trkpt lat="44.8269267" lon="8.012525"><ele>298.59999999999997</ele><time>2026-04-25T17:24:58.112Z</time></trkpt><trkpt lat="44.826995" lon="8.0124383"><ele>288.2</ele><time>2026-04-25T17:24:59.112Z</time></trkpt><trkpt lat="44.827065" lon="8.0123533"><ele>277.79999999999995</ele><time>2026-04-25T17:25:00.112Z</time></trkpt><trkpt lat="44.8271367" lon="8.0122633"><ele>267.4</ele><time>2026-04-25T17:25:01.112Z</time></trkpt><trkpt lat="44.8272083" lon="8.012175"><ele>257.0</ele><time>2026-04-25T17:25:02.112Z</time></trkpt><trkpt lat="44.827275" lon="8.0120933"><ele>257.0</ele><time>2026-04-25T17:25:03.112Z</time></trkpt><trkpt lat="44.827345" lon="8.0120133"><ele>257.0</ele><time>2026-04-25T17:25:04.112Z</time></trkpt><trkpt lat="44.8274167" lon="8.0119333"><ele>257.0</ele><time>2026-04-25T17:25:05.112Z</time></trkpt><trkpt lat="44.8274933" lon="8.0118617"><ele>257.0</ele><time>2026-04-25T17:25:06.112Z</time></trkpt><trkpt lat="44.8275733" lon="8.0117983"><ele>257.0</ele><time>2026-04-25T17:25:07.112Z</time></trkpt><trkpt lat="44.827655" lon="8.0117533"><ele>258.8</ele><time>2026-04-25T17:25:08.112Z</time></trkpt><trkpt lat="44.82774" lon="8.011695"><ele>260.6</ele><time>2026-04-25T17:25:09.112Z</time></trkpt><trkpt lat="44.8278317" lon="8.0116517"><ele>262.40000000000003</ele><time>2026-04-25T17:25:10.112Z</time></trkpt><trkpt lat="44.8279233" lon="8.0116283"><ele>264.2</ele><time>2026-04-25T17:25:11.112Z</time></trkpt><trkpt lat="44.828005" lon="8.0115867"><ele>266.0</ele><time>2026-04-25T17:25:12.112Z</time></trkpt><trkpt lat="44.8280867" lon="8.0115367"><ele>267.0</ele><time>2026-04-25T17:25:13.112Z</time></trkpt><trkpt lat="44.828165" lon="8.0114717"><ele>268.0</ele><time>2026-04-25T17:25:14.112Z</time></trkpt><trkpt lat="44.828245" lon="8.0114"><ele>269.0</ele><time>2026-04-25T17:25:15.112Z</time></trkpt><trkpt lat="44.8283217" lon="8.01133"><ele>270.0</ele><time>2026-04-25T17:25:16.112Z</time></trkpt><trkpt lat="44.8283967" lon="8.011245"><ele>271.0</ele><time>2026-04-25T17:25:17.112Z</time></trkpt><trkpt lat="44.8284667" lon="8.0111583"><ele>274.8</ele><time>2026-04-25T17:25:18.112Z</time></trkpt><trkpt lat="44.828545" lon="8.0110683"><ele>278.6</ele><time>2026-04-25T17:25:19.112Z</time></trkpt><trkpt lat="44.8286217" lon="8.0109733"><ele>282.4</ele><time>2026-04-25T17:25:20.112Z</time></trkpt><trkpt lat="44.8286917" lon="8.0108733"><ele>286.2</ele><time>2026-04-25T17:25:21.112Z</time></trkpt><trkpt lat="44.8287633" lon="8.0107767"><ele>290.0</ele><time>2026-04-25T17:25:22.112Z</time></trkpt><trkpt lat="44.8288317" lon="8.0106917"><ele>290.0</ele><time>2026-04-25T17:25:23.112Z</time></trkpt><trkpt lat="44.8288967" lon="8.0106083"><ele>290.0</ele><time>2026-04-25T17:25:24.112Z</time></trkpt><trkpt lat="44.828965" lon="8.0105267"><ele>290.0</ele><time>2026-04-25T17:25:25.112Z</time></trkpt><trkpt lat="44.8290417" lon="8.010455"><ele>290.0</ele><time>2026-04-25T17:25:26.112Z</time></trkpt><trkpt lat="44.8291183" lon="8.01038"><ele>290.0</ele><time>2026-04-25T17:25:27.112Z</time></trkpt><trkpt lat="44.8291883" lon="8.010285"><ele>290.0</ele><time>2026-04-25T17:25:28.112Z</time></trkpt><trkpt lat="44.8292467" lon="8.010175"><ele>290.0</ele><time>2026-04-25T17:25:29.112Z</time></trkpt><trkpt lat="44.8292833" lon="8.01005"><ele>290.0</ele><time>2026-04-25T17:25:30.112Z</time></trkpt><trkpt lat="44.8293117" lon="8.00992"><ele>290.0</ele><time>2026-04-25T17:25:31.112Z</time></trkpt><trkpt lat="44.8293317" lon="8.0097917"><ele>290.0</ele><time>2026-04-25T17:25:32.112Z</time></trkpt><trkpt lat="44.8293467" lon="8.00967"><ele>293.1666666666667</ele><time>2026-04-25T17:25:33.112Z</time></trkpt><trkpt lat="44.829355" lon="8.0095533"><ele>296.33333333333337</ele><time>2026-04-25T17:25:34.112Z</time></trkpt><trkpt lat="44.829345" lon="8.0094167"><ele>299.5</ele><time>2026-04-25T17:25:35.112Z</time></trkpt><trkpt lat="44.829335" lon="8.009285"><ele>302.6666666666667</ele><time>2026-04-25T17:25:36.112Z</time></trkpt><trkpt lat="44.8293233" lon="8.0091583"><ele>305.8333333333333</ele><time>2026-04-25T17:25:37.112Z</time></trkpt><trkpt lat="44.8293083" lon="8.0090433"><ele>309.0</ele><time>2026-04-25T17:25:38.112Z</time></trkpt><trkpt lat="44.8292883" lon="8.00891"><ele>309.0</ele><time>2026-04-25T17:25:39.112Z</time></trkpt><trkpt lat="44.8292633" lon="8.0087817"><ele>309.0</ele><time>2026-04-25T17:25:40.112Z</time></trkpt><trkpt lat="44.829235" lon="8.00865"><ele>309.0</ele><time>2026-04-25T17:25:41.112Z</time></trkpt><trkpt lat="44.8292017" lon="8.0085317"><ele>309.0</ele><time>2026-04-25T17:25:42.112Z</time></trkpt><trkpt lat="44.8291683" lon="8.0084367"><ele>309.0</ele><time>2026-04-25T17:25:43.112Z</time></trkpt><trkpt lat="44.8291433" lon="8.008345"><ele>309.0</ele><time>2026-04-25T17:25:44.112Z</time></trkpt><trkpt lat="44.8291083" lon="8.0082483"><ele>311.6666666666667</ele><time>2026-04-25T17:25:45.112Z</time></trkpt><trkpt lat="44.8290717" lon="8.0081483"><ele>314.3333333333333</ele><time>2026-04-25T17:25:46.112Z</time></trkpt><trkpt lat="44.8290283" lon="8.0080383"><ele>317.0</ele><time>2026-04-25T17:25:47.112Z</time></trkpt><trkpt lat="44.8289817" lon="8.007935"><ele>319.66666666666663</ele><time>2026-04-25T17:25:48.112Z</time></trkpt><trkpt lat="44.8289267" lon="8.007835"><ele>322.3333333333333</ele><time>2026-04-25T17:25:49.112Z</time></trkpt><trkpt lat="44.828855" lon="8.007745"><ele>325.0</ele><time>2026-04-25T17:25:50.112Z</time></trkpt><trkpt lat="44.8287883" lon="8.007665"><ele>325.0</ele><time>2026-04-25T17:25:51.112Z</time></trkpt><trkpt lat="44.8287167" lon="8.0075883"><ele>325.0</ele><time>2026-04-25T17:25:52.112Z</time></trkpt><trkpt lat="44.8286567" lon="8.00751"><ele>325.0</ele><time>2026-04-25T17:25:53.112Z</time></trkpt><trkpt lat="44.8286083" lon="8.0074283"><ele>325.0</ele><time>2026-04-25T17:25:54.112Z</time></trkpt><trkpt lat="44.8285683" lon="8.0073467"><ele>325.0</ele><time>2026-04-25T17:25:55.112Z</time></trkpt><trkpt lat="44.8285367" lon="8.00726"><ele>325.0</ele><time>2026-04-25T17:25:56.112Z</time></trkpt><trkpt lat="44.8285067" lon="8.0071617"><ele>325.66666666666663</ele><time>2026-04-25T17:25:57.112Z</time></trkpt><trkpt lat="44.8284833" lon="8.007055"><ele>326.3333333333333</ele><time>2026-04-25T17:25:58.112Z</time></trkpt><trkpt lat="44.8284683" lon="8.0069517"><ele>327.0</ele><time>2026-04-25T17:25:59.112Z</time></trkpt><trkpt lat="44.82846" lon="8.006845"><ele>327.6666666666667</ele><time>2026-04-25T17:26:00.112Z</time></trkpt><trkpt lat="44.8284517" lon="8.006735"><ele>328.33333333333337</ele><time>2026-04-25T17:26:01.112Z</time></trkpt><trkpt lat="44.8284567" lon="8.00662"><ele>329.0</ele><time>2026-04-25T17:26:02.112Z</time></trkpt><trkpt lat="44.8284467" lon="8.0065217"><ele>329.6</ele><time>2026-04-25T17:26:03.112Z</time></trkpt><trkpt lat="44.8284133" lon="8.006395"><ele>330.2</ele><time>2026-04-25T17:26:05.112Z</time></trkpt><trkpt lat="44.8284067" lon="8.0062833"><ele>330.8</ele><time>2026-04-25T17:26:09.112Z</time></trkpt><trkpt lat="44.82846" lon="8.0061817"><ele>331.40000000000003</ele><time>2026-04-25T17:26:12.112Z</time></trkpt><trkpt lat="44.8285733" lon="8.00609"><ele>332.0</ele><time>2026-04-25T17:26:14.112Z</time></trkpt><trkpt lat="44.8286617" lon="8.006035"><ele>329.0</ele><time>2026-04-25T17:26:15.112Z</time></trkpt><trkpt lat="44.828765" lon="8.0059767"><ele>326.0</ele><time>2026-04-25T17:26:16.112Z</time></trkpt><trkpt lat="44.8288633" lon="8.005935"><ele>323.0</ele><time>2026-04-25T17:26:17.112Z</time></trkpt><trkpt lat="44.8289683" lon="8.0058983"><ele>320.0</ele><time>2026-04-25T17:26:18.112Z</time></trkpt><trkpt lat="44.829075" lon="8.0058767"><ele>317.0</ele><time>2026-04-25T17:26:19.112Z</time></trkpt><trkpt lat="44.829175" lon="8.0058517"><ele>315.75</ele><time>2026-04-25T17:26:20.112Z</time></trkpt><trkpt lat="44.8292917" lon="8.0058167"><ele>314.5</ele><time>2026-04-25T17:26:21.112Z</time></trkpt><trkpt lat="44.8294133" lon="8.0057817"><ele>313.25</ele><time>2026-04-25T17:26:22.112Z</time></trkpt><trkpt lat="44.8295417" lon="8.0057567"><ele>312.0</ele><time>2026-04-25T17:26:23.112Z</time></trkpt><trkpt lat="44.829685" lon="8.0057433"><ele>312.0</ele><time>2026-04-25T17:26:24.112Z</time></trkpt><trkpt lat="44.8298333" lon="8.0057283"><ele>312.0</ele><time>2026-04-25T17:26:25.112Z</time></trkpt><trkpt lat="44.8299783" lon="8.0057117"><ele>312.0</ele><time>2026-04-25T17:26:26.112Z</time></trkpt><trkpt lat="44.83012" lon="8.0056833"><ele>312.0</ele><time>2026-04-25T17:26:27.112Z</time></trkpt><trkpt lat="44.8302633" lon="8.0056733"><ele>309.0</ele><time>2026-04-25T17:26:28.112Z</time></trkpt><trkpt lat="44.8304083" lon="8.0056617"><ele>306.0</ele><time>2026-04-25T17:26:29.112Z</time></trkpt><trkpt lat="44.8305617" lon="8.0056417"><ele>303.0</ele><time>2026-04-25T17:26:30.112Z</time></trkpt><trkpt lat="44.830705" lon="8.0056317"><ele>300.0</ele><time>2026-04-25T17:26:31.112Z</time></trkpt><trkpt lat="44.8308467" lon="8.00564"><ele>297.0</ele><time>2026-04-25T17:26:32.112Z</time></trkpt><trkpt lat="44.8309767" lon="8.0056617"><ele>294.0</ele><time>2026-04-25T17:26:33.112Z</time></trkpt><trkpt lat="44.8311" lon="8.0056867"><ele>291.0</ele><time>2026-04-25T17:26:34.112Z</time></trkpt><trkpt lat="44.8312133" lon="8.0057267"><ele>288.0</ele><time>2026-04-25T17:26:35.112Z</time></trkpt><trkpt lat="44.8313183" lon="8.0057733"><ele>287.3333333333333</ele><time>2026-04-25T17:26:36.112Z</time></trkpt><trkpt lat="44.8313917" lon="8.0058433"><ele>286.6666666666667</ele><time>2026-04-25T17:26:37.112Z</time></trkpt><trkpt lat="44.8314567" lon="8.005905"><ele>286.0</ele><time>2026-04-25T17:26:38.112Z</time></trkpt><trkpt lat="44.83151" lon="8.0059933"><ele>285.33333333333337</ele><time>2026-04-25T17:26:39.112Z</time></trkpt><trkpt lat="44.8315517" lon="8.006085"><ele>284.6666666666667</ele><time>2026-04-25T17:26:40.112Z</time></trkpt><trkpt lat="44.8315833" lon="8.0061667"><ele>284.0</ele><time>2026-04-25T17:26:41.112Z</time></trkpt><trkpt lat="44.8316517" lon="8.00624"><ele>284.0</ele><time>2026-04-25T17:26:43.112Z</time></trkpt><trkpt lat="44.8317167" lon="8.0061133"><ele>284.0</ele><time>2026-04-25T17:26:45.112Z</time></trkpt><trkpt lat="44.831745" lon="8.0059767"><ele>284.0</ele><time>2026-04-25T17:26:46.112Z</time></trkpt><trkpt lat="44.83176" lon="8.0058233"><ele>284.0</ele><time>2026-04-25T17:26:47.112Z</time></trkpt><trkpt lat="44.8317733" lon="8.00569"><ele>284.0</ele><time>2026-04-25T17:26:48.112Z</time></trkpt><trkpt lat="44.8317983" lon="8.0055717"><ele>282.2</ele><time>2026-04-25T17:26:49.112Z</time></trkpt><trkpt lat="44.8318267" lon="8.005455"><ele>280.4</ele><time>2026-04-25T17:26:50.112Z</time></trkpt><trkpt lat="44.8318717" lon="8.0053417"><ele>278.6</ele><time>2026-04-25T17:26:51.112Z</time></trkpt><trkpt lat="44.8319233" lon="8.00524"><ele>276.8</ele><time>2026-04-25T17:26:52.112Z</time></trkpt><trkpt lat="44.8319933" lon="8.0051517"><ele>275.0</ele><time>2026-04-25T17:26:53.112Z</time></trkpt><trkpt lat="44.832085" lon="8.0050667"><ele>275.0</ele><time>2026-04-25T17:26:54.112Z</time></trkpt><trkpt lat="44.8322" lon="8.00501"><ele>275.0</ele><time>2026-04-25T17:26:55.112Z</time></trkpt><trkpt lat="44.8323217" lon="8.00496"><ele>275.0</ele><time>2026-04-25T17:26:56.112Z</time></trkpt><trkpt lat="44.83246" lon="8.004905"><ele>275.0</ele><time>2026-04-25T17:26:57.112Z</time></trkpt><trkpt lat="44.8326" lon="8.0048483"><ele>273.6666666666667</ele><time>2026-04-25T17:26:58.112Z</time></trkpt><trkpt lat="44.8327433" lon="8.004795"><ele>272.3333333333333</ele><time>2026-04-25T17:26:59.112Z</time></trkpt><trkpt lat="44.83289" lon="8.0047367"><ele>271.0</ele><time>2026-04-25T17:27:00.112Z</time></trkpt><trkpt lat="44.83304" lon="8.0046883"><ele>271.0</ele><time>2026-04-25T17:27:01.112Z</time></trkpt><trkpt lat="44.8331867" lon="8.00465"><ele>271.0</ele><time>2026-04-25T17:27:02.112Z</time></trkpt><trkpt lat="44.8333267" lon="8.0046083"><ele>271.0</ele><time>2026-04-25T17:27:03.112Z</time></trkpt><trkpt lat="44.8334533" lon="8.0045417"><ele>271.0</ele><time>2026-04-25T17:27:04.112Z</time></trkpt><trkpt lat="44.833565" lon="8.0044383"><ele>270.5</ele><time>2026-04-25T17:27:05.112Z</time></trkpt><trkpt lat="44.8336733" lon="8.0042933"><ele>270.0</ele><time>2026-04-25T17:27:06.112Z</time></trkpt><trkpt lat="44.8337667" lon="8.0041317"><ele>269.5</ele><time>2026-04-25T17:27:07.112Z</time></trkpt><trkpt lat="44.8338583" lon="8.0039617"><ele>269.0</ele><time>2026-04-25T17:27:08.112Z</time></trkpt><trkpt lat="44.833945" lon="8.0037917"><ele>269.0</ele><time>2026-04-25T17:27:09.112Z</time></trkpt><trkpt lat="44.83404" lon="8.0036317"><ele>269.0</ele><time>2026-04-25T17:27:10.112Z</time></trkpt><trkpt lat="44.8341317" lon="8.0034817"><ele>269.0</ele><time>2026-04-25T17:27:11.112Z</time></trkpt><trkpt lat="44.83422" lon="8.0033283"><ele>269.0</ele><time>2026-04-25T17:27:12.112Z</time></trkpt><trkpt lat="44.834305" lon="8.00318"><ele>267.0</ele><time>2026-04-25T17:27:13.112Z</time></trkpt><trkpt lat="44.8343983" lon="8.00303"><ele>265.0</ele><time>2026-04-25T17:27:14.112Z</time></trkpt><trkpt lat="44.8344833" lon="8.00289"><ele>263.0</ele><time>2026-04-25T17:27:15.112Z</time></trkpt><trkpt lat="44.83456" lon="8.0027617"><ele>261.0</ele><time>2026-04-25T17:27:16.112Z</time></trkpt><trkpt lat="44.8346217" lon="8.0026467"><ele>261.0</ele><time>2026-04-25T17:27:17.112Z</time></trkpt><trkpt lat="44.8346817" lon="8.00254"><ele>261.0</ele><time>2026-04-25T17:27:18.112Z</time></trkpt><trkpt lat="44.8347317" lon="8.00244"><ele>261.0</ele><time>2026-04-25T17:27:19.112Z</time></trkpt><trkpt lat="44.83477" lon="8.002355"><ele>261.0</ele><time>2026-04-25T17:27:20.112Z</time></trkpt><trkpt lat="44.834835" lon="8.0022367"><ele>261.0</ele><time>2026-04-25T17:27:22.112Z</time></trkpt><trkpt lat="44.83494" lon="8.002155"><ele>261.8</ele><time>2026-04-25T17:27:24.112Z</time></trkpt><trkpt lat="44.8350267" lon="8.00213"><ele>262.6</ele><time>2026-04-25T17:27:25.112Z</time></trkpt><trkpt lat="44.8351283" lon="8.0021233"><ele>263.4</ele><time>2026-04-25T17:27:26.112Z</time></trkpt><trkpt lat="44.8352483" lon="8.0021183"><ele>264.2</ele><time>2026-04-25T17:27:27.112Z</time></trkpt><trkpt lat="44.8353783" lon="8.0021033"><ele>265.0</ele><time>2026-04-25T17:27:28.112Z</time></trkpt><trkpt lat="44.8355167" lon="8.002085"><ele>265.0</ele><time>2026-04-25T17:27:29.112Z</time></trkpt><trkpt lat="44.835655" lon="8.00206"><ele>265.0</ele><time>2026-04-25T17:27:30.112Z</time></trkpt><trkpt lat="44.8357967" lon="8.00201"><ele>265.0</ele><time>2026-04-25T17:27:31.112Z</time></trkpt><trkpt lat="44.8359417" lon="8.00197"><ele>265.0</ele><time>2026-04-25T17:27:32.112Z</time></trkpt><trkpt lat="44.8360883" lon="8.00193"><ele>263.66666666666663</ele><time>2026-04-25T17:27:33.112Z</time></trkpt><trkpt lat="44.8362467" lon="8.00188"><ele>262.3333333333333</ele><time>2026-04-25T17:27:34.112Z</time></trkpt><trkpt lat="44.836405" lon="8.001825"><ele>261.0</ele><time>2026-04-25T17:27:35.112Z</time></trkpt><trkpt lat="44.836575" lon="8.00176"><ele>261.0</ele><time>2026-04-25T17:27:36.112Z</time></trkpt><trkpt lat="44.8367433" lon="8.0016983"><ele>261.0</ele><time>2026-04-25T17:27:37.112Z</time></trkpt><trkpt lat="44.8369167" lon="8.001635"><ele>261.0</ele><time>2026-04-25T17:27:38.112Z</time></trkpt><trkpt lat="44.8370733" lon="8.00158"><ele>261.6666666666667</ele><time>2026-04-25T17:27:39.112Z</time></trkpt><trkpt lat="44.837235" lon="8.00152"><ele>262.33333333333337</ele><time>2026-04-25T17:27:40.112Z</time></trkpt><trkpt lat="44.8373967" lon="8.0014633"><ele>263.0</ele><time>2026-04-25T17:27:41.112Z</time></trkpt><trkpt lat="44.8375517" lon="8.0014083"><ele>261.33333333333337</ele><time>2026-04-25T17:27:42.112Z</time></trkpt><trkpt lat="44.8377067" lon="8.0013633"><ele>259.6666666666667</ele><time>2026-04-25T17:27:43.112Z</time></trkpt><trkpt lat="44.8378683" lon="8.0013067"><ele>258.0</ele><time>2026-04-25T17:27:44.112Z</time></trkpt><trkpt lat="44.83804" lon="8.0012467"><ele>258.0</ele><time>2026-04-25T17:27:45.112Z</time></trkpt><trkpt lat="44.838205" lon="8.001195"><ele>258.0</ele><time>2026-04-25T17:27:46.112Z</time></trkpt><trkpt lat="44.8383683" lon="8.0011517"><ele>258.0</ele><time>2026-04-25T17:27:47.112Z</time></trkpt><trkpt lat="44.8385333" lon="8.001115"><ele>257.0</ele><time>2026-04-25T17:27:48.112Z</time></trkpt><trkpt lat="44.8387017" lon="8.0011133"><ele>256.0</ele><time>2026-04-25T17:27:49.112Z</time></trkpt><trkpt lat="44.8388617" lon="8.0011483"><ele>255.0</ele><time>2026-04-25T17:27:50.112Z</time></trkpt><trkpt lat="44.83901" lon="8.00123"><ele>255.0</ele><time>2026-04-25T17:27:51.112Z</time></trkpt><trkpt lat="44.8391767" lon="8.0013117"><ele>255.0</ele><time>2026-04-25T17:27:52.112Z</time></trkpt><trkpt lat="44.8393517" lon="8.0013867"><ele>255.0</ele><time>2026-04-25T17:27:53.112Z</time></trkpt><trkpt lat="44.839515" lon="8.00146"><ele>254.66666666666669</ele><time>2026-04-25T17:27:54.112Z</time></trkpt><trkpt lat="44.8396833" lon="8.0015383"><ele>254.33333333333334</ele><time>2026-04-25T17:27:55.112Z</time></trkpt><trkpt lat="44.8398517" lon="8.001625"><ele>254.0</ele><time>2026-04-25T17:27:56.112Z</time></trkpt><trkpt lat="44.84002" lon="8.0017033"><ele>252.0</ele><time>2026-04-25T17:27:57.112Z</time></trkpt><trkpt lat="44.840195" lon="8.0017767"><ele>250.0</ele><time>2026-04-25T17:27:58.112Z</time></trkpt><trkpt lat="44.8403633" lon="8.0018717"><ele>248.0</ele><time>2026-04-25T17:27:59.112Z</time></trkpt><trkpt lat="44.8405417" lon="8.0019617"><ele>248.0</ele><time>2026-04-25T17:28:00.112Z</time></trkpt><trkpt lat="44.8407017" lon="8.00204"><ele>248.0</ele><time>2026-04-25T17:28:01.112Z</time></trkpt><trkpt lat="44.8408667" lon="8.0020917"><ele>248.0</ele><time>2026-04-25T17:28:02.112Z</time></trkpt><trkpt lat="44.8410517" lon="8.0021117"><ele>249.0</ele><time>2026-04-25T17:28:03.112Z</time></trkpt><trkpt lat="44.8412383" lon="8.0020767"><ele>250.0</ele><time>2026-04-25T17:28:04.112Z</time></trkpt><trkpt lat="44.8414183" lon="8.0019983"><ele>251.0</ele><time>2026-04-25T17:28:05.112Z</time></trkpt><trkpt lat="44.84159" lon="8.0019067"><ele>251.0</ele><time>2026-04-25T17:28:06.112Z</time></trkpt><trkpt lat="44.8417667" lon="8.00182"><ele>251.0</ele><time>2026-04-25T17:28:07.112Z</time></trkpt><trkpt lat="44.8419467" lon="8.0017333"><ele>251.0</ele><time>2026-04-25T17:28:08.112Z</time></trkpt><trkpt lat="44.8421217" lon="8.0016667"><ele>251.33333333333334</ele><time>2026-04-25T17:28:09.112Z</time></trkpt><trkpt lat="44.8423017" lon="8.00162"><ele>251.66666666666669</ele><time>2026-04-25T17:28:10.112Z</time></trkpt><trkpt lat="44.842485" lon="8.0016183"><ele>252.0</ele><time>2026-04-25T17:28:11.112Z</time></trkpt><trkpt lat="44.842665" lon="8.001635"><ele>250.33333333333331</ele><time>2026-04-25T17:28:12.112Z</time></trkpt><trkpt lat="44.84285" lon="8.0017067"><ele>248.66666666666666</ele><time>2026-04-25T17:28:13.112Z</time></trkpt><trkpt lat="44.84303" lon="8.0017667"><ele>247.0</ele><time>2026-04-25T17:28:14.112Z</time></trkpt><trkpt lat="44.84322" lon="8.00183"><ele>247.0</ele><time>2026-04-25T17:28:15.113Z</time></trkpt><trkpt lat="44.8434167" lon="8.0018983"><ele>247.0</ele><time>2026-04-25T17:28:16.112Z</time></trkpt><trkpt lat="44.8436017" lon="8.0019817"><ele>247.0</ele><time>2026-04-25T17:28:17.112Z</time></trkpt><trkpt lat="44.84379" lon="8.00208"><ele>247.0</ele><time>2026-04-25T17:28:18.112Z</time></trkpt><trkpt lat="44.8439617" lon="8.0021633"><ele>247.0</ele><time>2026-04-25T17:28:19.112Z</time></trkpt><trkpt lat="44.8441267" lon="8.0022683"><ele>247.0</ele><time>2026-04-25T17:28:20.112Z</time></trkpt><trkpt lat="44.8443017" lon="8.0023567"><ele>247.0</ele><time>2026-04-25T17:28:21.112Z</time></trkpt><trkpt lat="44.8444783" lon="8.0024267"><ele>247.0</ele><time>2026-04-25T17:28:22.112Z</time></trkpt><trkpt lat="44.844655" lon="8.00248"><ele>247.0</ele><time>2026-04-25T17:28:23.112Z</time></trkpt><trkpt lat="44.84483" lon="8.002515"><ele>247.0</ele><time>2026-04-25T17:28:24.112Z</time></trkpt><trkpt lat="44.8450133" lon="8.0025433"><ele>247.0</ele><time>2026-04-25T17:28:25.112Z</time></trkpt><trkpt lat="44.8451933" lon="8.0025783"><ele>247.0</ele><time>2026-04-25T17:28:26.112Z</time></trkpt><trkpt lat="44.845385" lon="8.0025983"><ele>246.66666666666666</ele><time>2026-04-25T17:28:27.112Z</time></trkpt><trkpt lat="44.84558" lon="8.0026267"><ele>246.33333333333331</ele><time>2026-04-25T17:28:28.112Z</time></trkpt><trkpt lat="44.845775" lon="8.0026467"><ele>246.0</ele><time>2026-04-25T17:28:29.112Z</time></trkpt><trkpt lat="44.8459617" lon="8.00267"><ele>245.0</ele><time>2026-04-25T17:28:30.112Z</time></trkpt><trkpt lat="44.8461583" lon="8.002695"><ele>244.0</ele><time>2026-04-25T17:28:31.112Z</time></trkpt><trkpt lat="44.8463583" lon="8.0027233"><ele>243.0</ele><time>2026-04-25T17:28:32.112Z</time></trkpt><trkpt lat="44.846555" lon="8.0027467"><ele>243.0</ele><time>2026-04-25T17:28:33.112Z</time></trkpt><trkpt lat="44.8467517" lon="8.002775"><ele>243.0</ele><time>2026-04-25T17:28:34.112Z</time></trkpt><trkpt lat="44.8469383" lon="8.002805"><ele>243.0</ele><time>2026-04-25T17:28:35.112Z</time></trkpt><trkpt lat="44.8471317" lon="8.00284"><ele>243.33333333333331</ele><time>2026-04-25T17:28:36.112Z</time></trkpt><trkpt lat="44.847325" lon="8.0028683"><ele>243.66666666666666</ele><time>2026-04-25T17:28:37.112Z</time></trkpt><trkpt lat="44.8475217" lon="8.00289"><ele>244.0</ele><time>2026-04-25T17:28:38.112Z</time></trkpt><trkpt lat="44.8477167" lon="8.00291"><ele>242.33333333333331</ele><time>2026-04-25T17:28:39.112Z</time></trkpt><trkpt lat="44.8479167" lon="8.0029583"><ele>240.66666666666669</ele><time>2026-04-25T17:28:40.112Z</time></trkpt><trkpt lat="44.84811" lon="8.0029917"><ele>239.0</ele><time>2026-04-25T17:28:41.112Z</time></trkpt><trkpt lat="44.8483017" lon="8.0030467"><ele>238.66666666666669</ele><time>2026-04-25T17:28:42.112Z</time></trkpt><trkpt lat="44.8484917" lon="8.0031317"><ele>238.33333333333331</ele><time>2026-04-25T17:28:43.112Z</time></trkpt><trkpt lat="44.8486683" lon="8.003225"><ele>238.0</ele><time>2026-04-25T17:28:44.112Z</time></trkpt><trkpt lat="44.8488533" lon="8.0033383"><ele>238.0</ele><time>2026-04-25T17:28:45.112Z</time></trkpt><trkpt lat="44.84904" lon="8.0034583"><ele>238.0</ele><time>2026-04-25T17:28:46.112Z</time></trkpt><trkpt lat="44.8492317" lon="8.0035667"><ele>238.0</ele><time>2026-04-25T17:28:47.112Z</time></trkpt><trkpt lat="44.849415" lon="8.0036833"><ele>236.66666666666666</ele><time>2026-04-25T17:28:48.112Z</time></trkpt><trkpt lat="44.8496033" lon="8.003795"><ele>235.33333333333331</ele><time>2026-04-25T17:28:49.112Z</time></trkpt><trkpt lat="44.8497883" lon="8.0038983"><ele>234.0</ele><time>2026-04-25T17:28:50.112Z</time></trkpt><trkpt lat="44.8499717" lon="8.003995"><ele>234.66666666666669</ele><time>2026-04-25T17:28:51.112Z</time></trkpt><trkpt lat="44.8501633" lon="8.0040967"><ele>235.33333333333334</ele><time>2026-04-25T17:28:52.112Z</time></trkpt><trkpt lat="44.85035" lon="8.0042067"><ele>236.0</ele><time>2026-04-25T17:28:53.112Z</time></trkpt><trkpt lat="44.850535" lon="8.004325"><ele>235.66666666666669</ele><time>2026-04-25T17:28:54.112Z</time></trkpt><trkpt lat="44.850715" lon="8.004435"><ele>235.33333333333331</ele><time>2026-04-25T17:28:55.112Z</time></trkpt><trkpt lat="44.8508983" lon="8.0045483"><ele>235.0</ele><time>2026-04-25T17:28:56.112Z</time></trkpt><trkpt lat="44.8510817" lon="8.0046683"><ele>235.0</ele><time>2026-04-25T17:28:57.112Z</time></trkpt><trkpt lat="44.8512717" lon="8.00479"><ele>235.0</ele><time>2026-04-25T17:28:58.112Z</time></trkpt><trkpt lat="44.8514633" lon="8.00489"><ele>235.0</ele><time>2026-04-25T17:28:59.112Z</time></trkpt><trkpt lat="44.8516617" lon="8.0049683"><ele>235.33333333333331</ele><time>2026-04-25T17:29:00.112Z</time></trkpt><trkpt lat="44.85186" lon="8.0050417"><ele>235.66666666666669</ele><time>2026-04-25T17:29:01.112Z</time></trkpt><trkpt lat="44.8520683" lon="8.005095"><ele>236.0</ele><time>2026-04-25T17:29:02.112Z</time></trkpt><trkpt lat="44.8522733" lon="8.00516"><ele>236.0</ele><time>2026-04-25T17:29:03.112Z</time></trkpt><trkpt lat="44.8524733" lon="8.00523"><ele>236.0</ele><time>2026-04-25T17:29:04.112Z</time></trkpt><trkpt lat="44.8526833" lon="8.0052883"><ele>236.0</ele><time>2026-04-25T17:29:05.112Z</time></trkpt><trkpt lat="44.8528883" lon="8.005345"><ele>235.66666666666669</ele><time>2026-04-25T17:29:06.112Z</time></trkpt><trkpt lat="44.8531017" lon="8.0054"><ele>235.33333333333331</ele><time>2026-04-25T17:29:07.112Z</time></trkpt><trkpt lat="44.8533183" lon="8.0054567"><ele>235.0</ele><time>2026-04-25T17:29:08.112Z</time></trkpt><trkpt lat="44.853525" lon="8.00551"><ele>233.66666666666666</ele><time>2026-04-25T17:29:09.112Z</time></trkpt><trkpt lat="44.8537317" lon="8.0055967"><ele>232.33333333333331</ele><time>2026-04-25T17:29:10.112Z</time></trkpt><trkpt lat="44.853935" lon="8.0056717"><ele>231.0</ele><time>2026-04-25T17:29:11.112Z</time></trkpt><trkpt lat="44.8541467" lon="8.0057333"><ele>230.66666666666669</ele><time>2026-04-25T17:29:12.112Z</time></trkpt><trkpt lat="44.8543583" lon="8.005785"><ele>230.33333333333334</ele><time>2026-04-25T17:29:13.112Z</time></trkpt><trkpt lat="44.8545717" lon="8.0058417"><ele>230.0</ele><time>2026-04-25T17:29:14.112Z</time></trkpt><trkpt lat="44.8547883" lon="8.0058917"><ele>230.0</ele><time>2026-04-25T17:29:15.112Z</time></trkpt><trkpt lat="44.8550117" lon="8.0059433"><ele>230.0</ele><time>2026-04-25T17:29:16.112Z</time></trkpt><trkpt lat="44.8552233" lon="8.0059767"><ele>230.0</ele><time>2026-04-25T17:29:17.112Z</time></trkpt><trkpt lat="44.85544" lon="8.0060167"><ele>229.66666666666669</ele><time>2026-04-25T17:29:18.112Z</time></trkpt><trkpt lat="44.8556467" lon="8.0060617"><ele>229.33333333333331</ele><time>2026-04-25T17:29:19.112Z</time></trkpt><trkpt lat="44.855865" lon="8.0061083"><ele>229.0</ele><time>2026-04-25T17:29:20.112Z</time></trkpt><trkpt lat="44.8560667" lon="8.0061417"><ele>229.0</ele><time>2026-04-25T17:29:21.112Z</time></trkpt><trkpt lat="44.8562667" lon="8.00618"><ele>229.0</ele><time>2026-04-25T17:29:22.112Z</time></trkpt><trkpt lat="44.8564817" lon="8.006205"><ele>229.0</ele><time>2026-04-25T17:29:23.112Z</time></trkpt><trkpt lat="44.8566833" lon="8.0062467"><ele>228.33333333333331</ele><time>2026-04-25T17:29:24.112Z</time></trkpt><trkpt lat="44.856885" lon="8.0062817"><ele>227.66666666666669</ele><time>2026-04-25T17:29:25.112Z</time></trkpt><trkpt lat="44.8570833" lon="8.0063117"><ele>227.0</ele><time>2026-04-25T17:29:26.112Z</time></trkpt><trkpt lat="44.8572867" lon="8.00635"><ele>227.0</ele><time>2026-04-25T17:29:27.112Z</time></trkpt><trkpt lat="44.8574883" lon="8.006385"><ele>227.0</ele><time>2026-04-25T17:29:28.112Z</time></trkpt><trkpt lat="44.8576883" lon="8.0064117"><ele>227.0</ele><time>2026-04-25T17:29:29.112Z</time></trkpt><trkpt lat="44.8578933" lon="8.00646"><ele>227.0</ele><time>2026-04-25T17:29:30.112Z</time></trkpt><trkpt lat="44.8581" lon="8.0065083"><ele>227.0</ele><time>2026-04-25T17:29:31.112Z</time></trkpt><trkpt lat="44.8583133" lon="8.0065367"><ele>227.0</ele><time>2026-04-25T17:29:32.112Z</time></trkpt><trkpt lat="44.8585267" lon="8.0065683"><ele>227.0</ele><time>2026-04-25T17:29:33.112Z</time></trkpt><trkpt lat="44.8587283" lon="8.00662"><ele>227.0</ele><time>2026-04-25T17:29:34.112Z</time></trkpt><trkpt lat="44.8589383" lon="8.0066567"><ele>227.0</ele><time>2026-04-25T17:29:35.112Z</time></trkpt><trkpt lat="44.859145" lon="8.0067133"><ele>225.33333333333334</ele><time>2026-04-25T17:29:36.112Z</time></trkpt><trkpt lat="44.8593417" lon="8.0067833"><ele>223.66666666666669</ele><time>2026-04-25T17:29:37.112Z</time></trkpt><trkpt lat="44.8595433" lon="8.0068517"><ele>222.0</ele><time>2026-04-25T17:29:38.112Z</time></trkpt><trkpt lat="44.85975" lon="8.006935"><ele>222.0</ele><time>2026-04-25T17:29:39.112Z</time></trkpt><trkpt lat="44.8599483" lon="8.0070083"><ele>222.0</ele><time>2026-04-25T17:29:40.112Z</time></trkpt><trkpt lat="44.860145" lon="8.00708"><ele>222.0</ele><time>2026-04-25T17:29:41.112Z</time></trkpt><trkpt lat="44.8603417" lon="8.007135"><ele>223.33333333333331</ele><time>2026-04-25T17:29:42.112Z</time></trkpt><trkpt lat="44.8605417" lon="8.0072"><ele>224.66666666666666</ele><time>2026-04-25T17:29:43.112Z</time></trkpt><trkpt lat="44.860735" lon="8.0072683"><ele>226.0</ele><time>2026-04-25T17:29:44.112Z</time></trkpt><trkpt lat="44.8609117" lon="8.0073817"><ele>225.0</ele><time>2026-04-25T17:29:45.112Z</time></trkpt><trkpt lat="44.861085" lon="8.0075217"><ele>224.0</ele><time>2026-04-25T17:29:46.112Z</time></trkpt><trkpt lat="44.8612467" lon="8.0076933"><ele>223.0</ele><time>2026-04-25T17:29:47.112Z</time></trkpt><trkpt lat="44.8614" lon="8.00789"><ele>223.0</ele><time>2026-04-25T17:29:48.112Z</time></trkpt><trkpt lat="44.86155" lon="8.0081017"><ele>223.0</ele><time>2026-04-25T17:29:49.112Z</time></trkpt><trkpt lat="44.8617017" lon="8.0082983"><ele>223.0</ele><time>2026-04-25T17:29:50.112Z</time></trkpt><trkpt lat="44.8618533" lon="8.0085017"><ele>221.66666666666666</ele><time>2026-04-25T17:29:51.112Z</time></trkpt><trkpt lat="44.8620083" lon="8.0087"><ele>220.33333333333331</ele><time>2026-04-25T17:29:52.112Z</time></trkpt><trkpt lat="44.8621667" lon="8.00889"><ele>219.0</ele><time>2026-04-25T17:29:53.112Z</time></trkpt><trkpt lat="44.8623267" lon="8.0090783"><ele>218.0</ele><time>2026-04-25T17:29:54.112Z</time></trkpt><trkpt lat="44.8624833" lon="8.00927"><ele>217.0</ele><time>2026-04-25T17:29:55.112Z</time></trkpt><trkpt lat="44.8626283" lon="8.0094517"><ele>216.0</ele><time>2026-04-25T17:29:56.112Z</time></trkpt><trkpt lat="44.862765" lon="8.0096283"><ele>216.0</ele><time>2026-04-25T17:29:57.112Z</time></trkpt><trkpt lat="44.862895" lon="8.0097917"><ele>216.0</ele><time>2026-04-25T17:29:58.112Z</time></trkpt><trkpt lat="44.86302" lon="8.0099467"><ele>216.0</ele><time>2026-04-25T17:29:59.112Z</time></trkpt><trkpt lat="44.8631383" lon="8.01009"><ele>216.0</ele><time>2026-04-25T17:30:00.112Z</time></trkpt><trkpt lat="44.86324" lon="8.01023"><ele>216.0</ele><time>2026-04-25T17:30:01.112Z</time></trkpt><trkpt lat="44.863335" lon="8.0103533"><ele>216.0</ele><time>2026-04-25T17:30:02.112Z</time></trkpt><trkpt lat="44.863435" lon="8.01044"><ele>216.0</ele><time>2026-04-25T17:30:03.112Z</time></trkpt><trkpt lat="44.8635333" lon="8.0104767"><ele>216.4</ele><time>2026-04-25T17:30:04.112Z</time></trkpt><trkpt lat="44.8636267" lon="8.0104617"><ele>216.8</ele><time>2026-04-25T17:30:05.112Z</time></trkpt><trkpt lat="44.863705" lon="8.0103917"><ele>217.20000000000002</ele><time>2026-04-25T17:30:06.112Z</time></trkpt><trkpt lat="44.8637733" lon="8.0102683"><ele>217.60000000000002</ele><time>2026-04-25T17:30:07.112Z</time></trkpt><trkpt lat="44.86384" lon="8.0101317"><ele>218.0</ele><time>2026-04-25T17:30:08.112Z</time></trkpt><trkpt lat="44.8639283" lon="8.0100283"><ele>218.0</ele><time>2026-04-25T17:30:09.112Z</time></trkpt><trkpt lat="44.8640367" lon="8.0099833"><ele>218.0</ele><time>2026-04-25T17:30:10.112Z</time></trkpt><trkpt lat="44.8641617" lon="8.009995"><ele>218.0</ele><time>2026-04-25T17:30:11.112Z</time></trkpt><trkpt lat="44.8642733" lon="8.0100717"><ele>218.0</ele><time>2026-04-25T17:30:12.112Z</time></trkpt><trkpt lat="44.8643767" lon="8.01022"><ele>217.66666666666669</ele><time>2026-04-25T17:30:13.112Z</time></trkpt><trkpt lat="44.864465" lon="8.010435"><ele>217.33333333333331</ele><time>2026-04-25T17:30:14.112Z</time></trkpt><trkpt lat="44.864555" lon="8.01065"><ele>217.0</ele><time>2026-04-25T17:30:15.112Z</time></trkpt><trkpt lat="44.8646583" lon="8.0108367"><ele>217.0</ele><time>2026-04-25T17:30:16.112Z</time></trkpt><trkpt lat="44.8647683" lon="8.0110233"><ele>217.0</ele><time>2026-04-25T17:30:17.112Z</time></trkpt><trkpt lat="44.8648867" lon="8.0112167"><ele>217.0</ele><time>2026-04-25T17:30:18.112Z</time></trkpt><trkpt lat="44.86501" lon="8.011415"><ele>217.66666666666666</ele><time>2026-04-25T17:30:19.112Z</time></trkpt><trkpt lat="44.865135" lon="8.0115983"><ele>218.33333333333331</ele><time>2026-04-25T17:30:20.112Z</time></trkpt><trkpt lat="44.8652583" lon="8.0117983"><ele>219.0</ele><time>2026-04-25T17:30:21.112Z</time></trkpt><trkpt lat="44.8653767" lon="8.0119933"><ele>219.0</ele><time>2026-04-25T17:30:22.112Z</time></trkpt><trkpt lat="44.8654983" lon="8.0121917"><ele>219.0</ele><time>2026-04-25T17:30:23.112Z</time></trkpt><trkpt lat="44.8656267" lon="8.0123833"><ele>219.0</ele><time>2026-04-25T17:30:24.112Z</time></trkpt><trkpt lat="44.8657467" lon="8.01258"><ele>219.66666666666669</ele><time>2026-04-25T17:30:25.112Z</time></trkpt><trkpt lat="44.86587" lon="8.0127833"><ele>220.33333333333334</ele><time>2026-04-25T17:30:26.112Z</time></trkpt><trkpt lat="44.8659917" lon="8.0129767"><ele>221.0</ele><time>2026-04-25T17:30:27.112Z</time></trkpt><trkpt lat="44.86611" lon="8.0131717"><ele>219.66666666666669</ele><time>2026-04-25T17:30:28.112Z</time></trkpt><trkpt lat="44.8662367" lon="8.013355"><ele>218.33333333333331</ele><time>2026-04-25T17:30:29.112Z</time></trkpt><trkpt lat="44.8663617" lon="8.0135517"><ele>217.0</ele><time>2026-04-25T17:30:30.112Z</time></trkpt><trkpt lat="44.8664783" lon="8.0137517"><ele>217.0</ele><time>2026-04-25T17:30:31.112Z</time></trkpt><trkpt lat="44.8665883" lon="8.0139417"><ele>217.0</ele><time>2026-04-25T17:30:32.112Z</time></trkpt><trkpt lat="44.8667" lon="8.0141317"><ele>217.0</ele><time>2026-04-25T17:30:33.112Z</time></trkpt><trkpt lat="44.8668183" lon="8.014315"><ele>216.0</ele><time>2026-04-25T17:30:34.112Z</time></trkpt><trkpt lat="44.8669267" lon="8.0144833"><ele>215.0</ele><time>2026-04-25T17:30:35.112Z</time></trkpt><trkpt lat="44.867025" lon="8.01465"><ele>214.0</ele><time>2026-04-25T17:30:36.112Z</time></trkpt><trkpt lat="44.8671217" lon="8.0147983"><ele>214.0</ele><time>2026-04-25T17:30:37.112Z</time></trkpt><trkpt lat="44.86722" lon="8.014915"><ele>214.0</ele><time>2026-04-25T17:30:38.112Z</time></trkpt><trkpt lat="44.8673317" lon="8.015005"><ele>214.0</ele><time>2026-04-25T17:30:39.112Z</time></trkpt><trkpt lat="44.8674617" lon="8.0150517"><ele>214.0</ele><time>2026-04-25T17:30:40.112Z</time></trkpt><trkpt lat="44.86761" lon="8.0150617"><ele>214.0</ele><time>2026-04-25T17:30:41.112Z</time></trkpt><trkpt lat="44.86777" lon="8.0150533"><ele>214.0</ele><time>2026-04-25T17:30:42.112Z</time></trkpt><trkpt lat="44.8679367" lon="8.0150433"><ele>214.0</ele><time>2026-04-25T17:30:43.112Z</time></trkpt><trkpt lat="44.8681" lon="8.0150367"><ele>214.0</ele><time>2026-04-25T17:30:44.112Z</time></trkpt><trkpt lat="44.8682617" lon="8.0150283"><ele>214.0</ele><time>2026-04-25T17:30:45.112Z</time></trkpt><trkpt lat="44.8684317" lon="8.0150283"><ele>214.0</ele><time>2026-04-25T17:30:46.112Z</time></trkpt><trkpt lat="44.8686033" lon="8.01503"><ele>213.33333333333331</ele><time>2026-04-25T17:30:47.112Z</time></trkpt><trkpt lat="44.8687717" lon="8.0150233"><ele>212.66666666666669</ele><time>2026-04-25T17:30:48.112Z</time></trkpt><trkpt lat="44.8689417" lon="8.0150133"><ele>212.0</ele><time>2026-04-25T17:30:49.112Z</time></trkpt><trkpt lat="44.8691117" lon="8.0149983"><ele>212.0</ele><time>2026-04-25T17:30:50.112Z</time></trkpt><trkpt lat="44.8692733" lon="8.01499"><ele>212.0</ele><time>2026-04-25T17:30:51.112Z</time></trkpt><trkpt lat="44.869435" lon="8.0149783"><ele>212.0</ele><time>2026-04-25T17:30:52.112Z</time></trkpt><trkpt lat="44.869585" lon="8.0149783"><ele>212.0</ele><time>2026-04-25T17:30:53.112Z</time></trkpt><trkpt lat="44.8697383" lon="8.01499"><ele>212.0</ele><time>2026-04-25T17:30:54.112Z</time></trkpt><trkpt lat="44.8699" lon="8.0150067"><ele>212.0</ele><time>2026-04-25T17:30:55.112Z</time></trkpt><trkpt lat="44.8700517" lon="8.0150433"><ele>211.25</ele><time>2026-04-25T17:30:56.112Z</time></trkpt><trkpt lat="44.8701933" lon="8.015085"><ele>210.5</ele><time>2026-04-25T17:30:57.112Z</time></trkpt><trkpt lat="44.8703267" lon="8.0151283"><ele>209.75</ele><time>2026-04-25T17:30:58.112Z</time></trkpt><trkpt lat="44.870455" lon="8.0151667"><ele>209.0</ele><time>2026-04-25T17:30:59.112Z</time></trkpt><trkpt lat="44.870565" lon="8.0152083"><ele>209.00000000000003</ele><time>2026-04-25T17:31:00.112Z</time></trkpt><trkpt lat="44.8706633" lon="8.0152483"><ele>209.0</ele><time>2026-04-25T17:31:01.112Z</time></trkpt><trkpt lat="44.8707433" lon="8.015275"><ele>209.0</ele><time>2026-04-25T17:31:02.112Z</time></trkpt><trkpt lat="44.8708133" lon="8.0152967"><ele>209.0</ele><time>2026-04-25T17:31:03.112Z</time></trkpt><trkpt lat="44.8708883" lon="8.0153367"><ele>209.00000000000003</ele><time>2026-04-25T17:31:05.112Z</time></trkpt><trkpt lat="44.870955" lon="8.015355"><ele>209.0</ele><time>2026-04-25T17:31:08.112Z</time></trkpt><trkpt lat="44.8710367" lon="8.0152817"><ele>209.16666666666669</ele><time>2026-04-25T17:31:10.112Z</time></trkpt><trkpt lat="44.871085" lon="8.0151983"><ele>209.33333333333334</ele><time>2026-04-25T17:31:11.112Z</time></trkpt><trkpt lat="44.8711433" lon="8.0151133"><ele>209.5</ele><time>2026-04-25T17:31:12.112Z</time></trkpt><trkpt lat="44.871205" lon="8.0150317"><ele>209.66666666666669</ele><time>2026-04-25T17:31:13.112Z</time></trkpt><trkpt lat="44.8712767" lon="8.0149667"><ele>209.83333333333334</ele><time>2026-04-25T17:31:14.112Z</time></trkpt><trkpt lat="44.871355" lon="8.0149117"><ele>210.0</ele><time>2026-04-25T17:31:15.112Z</time></trkpt><trkpt lat="44.8714467" lon="8.0148633"><ele>211.0</ele><time>2026-04-25T17:31:16.112Z</time></trkpt><trkpt lat="44.87155" lon="8.014825"><ele>212.0</ele><time>2026-04-25T17:31:17.112Z</time></trkpt><trkpt lat="44.8716633" lon="8.0148033"><ele>213.0</ele><time>2026-04-25T17:31:18.112Z</time></trkpt><trkpt lat="44.87178" lon="8.0148033"><ele>214.0</ele><time>2026-04-25T17:31:19.112Z</time></trkpt><trkpt lat="44.8718933" lon="8.01481"><ele>214.0</ele><time>2026-04-25T17:31:20.112Z</time></trkpt><trkpt lat="44.8720217" lon="8.0148183"><ele>214.0</ele><time>2026-04-25T17:31:21.112Z</time></trkpt><trkpt lat="44.8721533" lon="8.014825"><ele>214.0</ele><time>2026-04-25T17:31:22.112Z</time></trkpt><trkpt lat="44.87229" lon="8.0148367"><ele>214.0</ele><time>2026-04-25T17:31:23.112Z</time></trkpt><trkpt lat="44.87242" lon="8.0148633"><ele>214.0</ele><time>2026-04-25T17:31:24.112Z</time></trkpt><trkpt lat="44.87256" lon="8.0148783"><ele>214.0</ele><time>2026-04-25T17:31:25.112Z</time></trkpt><trkpt lat="44.8727067" lon="8.014885"><ele>214.0</ele><time>2026-04-25T17:31:26.112Z</time></trkpt><trkpt lat="44.8728517" lon="8.01489"><ele>214.0</ele><time>2026-04-25T17:31:27.112Z</time></trkpt><trkpt lat="44.8729983" lon="8.014895"><ele>213.75</ele><time>2026-04-25T17:31:28.112Z</time></trkpt><trkpt lat="44.8731467" lon="8.0148833"><ele>213.5</ele><time>2026-04-25T17:31:29.112Z</time></trkpt><trkpt lat="44.8732917" lon="8.0148717"><ele>213.25</ele><time>2026-04-25T17:31:30.112Z</time></trkpt><trkpt lat="44.8734267" lon="8.0148617"><ele>213.0</ele><time>2026-04-25T17:31:31.111Z</time></trkpt><trkpt lat="44.8735767" lon="8.01482"><ele>213.0</ele><time>2026-04-25T17:31:32.111Z</time></trkpt><trkpt lat="44.87372" lon="8.0147833"><ele>213.0</ele><time>2026-04-25T17:31:33.111Z</time></trkpt><trkpt lat="44.8738633" lon="8.0147333"><ele>213.0</ele><time>2026-04-25T17:31:34.111Z</time></trkpt><trkpt lat="44.874" lon="8.0146867"><ele>213.0</ele><time>2026-04-25T17:31:35.111Z</time></trkpt><trkpt lat="44.8741433" lon="8.0146233"><ele>211.33333333333331</ele><time>2026-04-25T17:31:36.111Z</time></trkpt><trkpt lat="44.8742817" lon="8.014555"><ele>209.66666666666666</ele><time>2026-04-25T17:31:37.111Z</time></trkpt><trkpt lat="44.874415" lon="8.0144817"><ele>208.0</ele><time>2026-04-25T17:31:38.111Z</time></trkpt><trkpt lat="44.8745617" lon="8.0143783"><ele>208.0</ele><time>2026-04-25T17:31:39.111Z</time></trkpt><trkpt lat="44.8747017" lon="8.014255"><ele>208.0</ele><time>2026-04-25T17:31:40.111Z</time></trkpt><trkpt lat="44.8748433" lon="8.014095"><ele>208.0</ele><time>2026-04-25T17:31:41.111Z</time></trkpt><trkpt lat="44.8749717" lon="8.0139133"><ele>207.33333333333331</ele><time>2026-04-25T17:31:42.111Z</time></trkpt><trkpt lat="44.875095" lon="8.0137133"><ele>206.66666666666669</ele><time>2026-04-25T17:31:43.111Z</time></trkpt><trkpt lat="44.8752167" lon="8.01351"><ele>206.0</ele><time>2026-04-25T17:31:44.111Z</time></trkpt><trkpt lat="44.875325" lon="8.013305"><ele>206.0</ele><time>2026-04-25T17:31:45.111Z</time></trkpt><trkpt lat="44.87543" lon="8.0130917"><ele>206.0</ele><time>2026-04-25T17:31:46.111Z</time></trkpt><trkpt lat="44.8755383" lon="8.012875"><ele>206.0</ele><time>2026-04-25T17:31:47.111Z</time></trkpt><trkpt lat="44.8756483" lon="8.0126667"><ele>204.66666666666669</ele><time>2026-04-25T17:31:48.111Z</time></trkpt><trkpt lat="44.875765" lon="8.01248"><ele>203.33333333333331</ele><time>2026-04-25T17:31:49.111Z</time></trkpt><trkpt lat="44.87589" lon="8.01229"><ele>202.0</ele><time>2026-04-25T17:31:50.111Z</time></trkpt><trkpt lat="44.8760017" lon="8.012125"><ele>202.0</ele><time>2026-04-25T17:31:51.111Z</time></trkpt><trkpt lat="44.8761233" lon="8.0119517"><ele>202.0</ele><time>2026-04-25T17:31:52.111Z</time></trkpt><trkpt lat="44.8762383" lon="8.0117833"><ele>202.0</ele><time>2026-04-25T17:31:53.111Z</time></trkpt><trkpt lat="44.876335" lon="8.011605"><ele>202.66666666666666</ele><time>2026-04-25T17:31:54.111Z</time></trkpt><trkpt lat="44.8764083" lon="8.0114"><ele>203.33333333333331</ele><time>2026-04-25T17:31:55.111Z</time></trkpt><trkpt lat="44.87646" lon="8.01117"><ele>204.0</ele><time>2026-04-25T17:31:56.111Z</time></trkpt><trkpt lat="44.8764817" lon="8.0109183"><ele>205.0</ele><time>2026-04-25T17:31:57.111Z</time></trkpt><trkpt lat="44.8764767" lon="8.0106717"><ele>206.0</ele><time>2026-04-25T17:31:58.111Z</time></trkpt><trkpt lat="44.87646" lon="8.0104317"><ele>207.0</ele><time>2026-04-25T17:31:59.111Z</time></trkpt><trkpt lat="44.8764317" lon="8.0101983"><ele>207.0</ele><time>2026-04-25T17:32:00.111Z</time></trkpt><trkpt lat="44.8764033" lon="8.0099617"><ele>207.0</ele><time>2026-04-25T17:32:01.111Z</time></trkpt><trkpt lat="44.8763783" lon="8.0097183"><ele>207.0</ele><time>2026-04-25T17:32:02.111Z</time></trkpt><trkpt lat="44.876355" lon="8.0094917"><ele>207.0</ele><time>2026-04-25T17:32:03.111Z</time></trkpt><trkpt lat="44.8763367" lon="8.0092583"><ele>207.0</ele><time>2026-04-25T17:32:04.111Z</time></trkpt><trkpt lat="44.876305" lon="8.0090533"><ele>207.0</ele><time>2026-04-25T17:32:05.111Z</time></trkpt><trkpt lat="44.8762767" lon="8.0088817"><ele>207.0</ele><time>2026-04-25T17:32:06.111Z</time></trkpt><trkpt lat="44.8762483" lon="8.0087117"><ele>208.0</ele><time>2026-04-25T17:32:07.111Z</time></trkpt><trkpt lat="44.876235" lon="8.0085633"><ele>209.0</ele><time>2026-04-25T17:32:08.111Z</time></trkpt><trkpt lat="44.8762433" lon="8.0084267"><ele>210.0</ele><time>2026-04-25T17:32:09.111Z</time></trkpt><trkpt lat="44.87627" lon="8.008315"><ele>211.0</ele><time>2026-04-25T17:32:10.111Z</time></trkpt><trkpt lat="44.876325" lon="8.0082567"><ele>212.0</ele><time>2026-04-25T17:32:11.111Z</time></trkpt><trkpt lat="44.8763917" lon="8.008245"><ele>213.0</ele><time>2026-04-25T17:32:12.111Z</time></trkpt><trkpt lat="44.876485" lon="8.0082883"><ele>213.0</ele><time>2026-04-25T17:32:13.111Z</time></trkpt><trkpt lat="44.87659" lon="8.0084"><ele>213.0</ele><time>2026-04-25T17:32:14.111Z</time></trkpt><trkpt lat="44.876715" lon="8.0085367"><ele>213.0</ele><time>2026-04-25T17:32:15.111Z</time></trkpt><trkpt lat="44.8768467" lon="8.0086733"><ele>213.66666666666669</ele><time>2026-04-25T17:32:16.111Z</time></trkpt><trkpt lat="44.876965" lon="8.008785"><ele>214.33333333333334</ele><time>2026-04-25T17:32:17.111Z</time></trkpt><trkpt lat="44.8770917" lon="8.0089117"><ele>215.0</ele><time>2026-04-25T17:32:18.111Z</time></trkpt><trkpt lat="44.877235" lon="8.0090283"><ele>215.0</ele><time>2026-04-25T17:32:19.111Z</time></trkpt><trkpt lat="44.8773817" lon="8.0091333"><ele>215.0</ele><time>2026-04-25T17:32:20.111Z</time></trkpt><trkpt lat="44.8775283" lon="8.0092217"><ele>215.0</ele><time>2026-04-25T17:32:21.111Z</time></trkpt><trkpt lat="44.8776883" lon="8.009295"><ele>212.0</ele><time>2026-04-25T17:32:22.111Z</time></trkpt><trkpt lat="44.877865" lon="8.0093433"><ele>209.0</ele><time>2026-04-25T17:32:23.111Z</time></trkpt><trkpt lat="44.8780417" lon="8.0093617"><ele>206.0</ele><time>2026-04-25T17:32:24.111Z</time></trkpt><trkpt lat="44.878225" lon="8.0093317"><ele>206.0</ele><time>2026-04-25T17:32:25.111Z</time></trkpt><trkpt lat="44.878405" lon="8.0092617"><ele>206.0</ele><time>2026-04-25T17:32:26.111Z</time></trkpt><trkpt lat="44.8785617" lon="8.0091633"><ele>206.0</ele><time>2026-04-25T17:32:27.111Z</time></trkpt><trkpt lat="44.8787283" lon="8.0090433"><ele>205.0</ele><time>2026-04-25T17:32:28.111Z</time></trkpt><trkpt lat="44.8788567" lon="8.00889"><ele>204.0</ele><time>2026-04-25T17:32:29.111Z</time></trkpt><trkpt lat="44.8789917" lon="8.0087167"><ele>203.0</ele><time>2026-04-25T17:32:30.111Z</time></trkpt><trkpt lat="44.8791067" lon="8.0085267"><ele>202.33333333333334</ele><time>2026-04-25T17:32:31.111Z</time></trkpt><trkpt lat="44.8792117" lon="8.0083217"><ele>201.66666666666669</ele><time>2026-04-25T17:32:32.111Z</time></trkpt><trkpt lat="44.8793117" lon="8.0080967"><ele>201.0</ele><time>2026-04-25T17:32:33.111Z</time></trkpt><trkpt lat="44.8794183" lon="8.007885"><ele>201.0</ele><time>2026-04-25T17:32:34.111Z</time></trkpt><trkpt lat="44.8795367" lon="8.0076933"><ele>201.0</ele><time>2026-04-25T17:32:35.111Z</time></trkpt><trkpt lat="44.8796733" lon="8.007505"><ele>201.0</ele><time>2026-04-25T17:32:36.111Z</time></trkpt><trkpt lat="44.8798217" lon="8.0073483"><ele>201.33333333333331</ele><time>2026-04-25T17:32:37.111Z</time></trkpt><trkpt lat="44.879985" lon="8.00721"><ele>201.66666666666666</ele><time>2026-04-25T17:32:38.111Z</time></trkpt><trkpt lat="44.8801583" lon="8.0070983"><ele>202.0</ele><time>2026-04-25T17:32:39.111Z</time></trkpt><trkpt lat="44.8803483" lon="8.0070167"><ele>202.0</ele><time>2026-04-25T17:32:40.111Z</time></trkpt><trkpt lat="44.8805567" lon="8.0069383"><ele>202.0</ele><time>2026-04-25T17:32:41.111Z</time></trkpt><trkpt lat="44.88078" lon="8.0068867"><ele>202.0</ele><time>2026-04-25T17:32:42.111Z</time></trkpt><trkpt lat="44.881005" lon="8.006845"><ele>202.5</ele><time>2026-04-25T17:32:43.111Z</time></trkpt><trkpt lat="44.8812267" lon="8.0067867"><ele>203.0</ele><time>2026-04-25T17:32:44.111Z</time></trkpt><trkpt lat="44.881455" lon="8.00672"><ele>207.33333333333334</ele><time>2026-04-25T17:32:45.111Z</time></trkpt><trkpt lat="44.88166" lon="8.00666"><ele>211.66666666666669</ele><time>2026-04-25T17:32:46.111Z</time></trkpt><trkpt lat="44.8818933" lon="8.0065967"><ele>216.0</ele><time>2026-04-25T17:32:47.111Z</time></trkpt><trkpt lat="44.882125" lon="8.0065367"><ele>216.0</ele><time>2026-04-25T17:32:48.111Z</time></trkpt><trkpt lat="44.88235" lon="8.00648"><ele>216.0</ele><time>2026-04-25T17:32:49.111Z</time></trkpt><trkpt lat="44.8825717" lon="8.0064183"><ele>209.0</ele><time>2026-04-25T17:32:50.111Z</time></trkpt><trkpt lat="44.882805" lon="8.006355"><ele>202.0</ele><time>2026-04-25T17:32:51.111Z</time></trkpt><trkpt lat="44.883035" lon="8.0063017"><ele>202.0</ele><time>2026-04-25T17:32:52.111Z</time></trkpt><trkpt lat="44.8832633" lon="8.0062483"><ele>202.0</ele><time>2026-04-25T17:32:53.111Z</time></trkpt><trkpt lat="44.88349" lon="8.0061917"><ele>201.5</ele><time>2026-04-25T17:32:54.111Z</time></trkpt><trkpt lat="44.8837233" lon="8.0061367"><ele>201.0</ele><time>2026-04-25T17:32:55.111Z</time></trkpt><trkpt lat="44.8839517" lon="8.0060833"><ele>201.0</ele><time>2026-04-25T17:32:56.111Z</time></trkpt><trkpt lat="44.8841767" lon="8.0060317"><ele>201.0</ele><time>2026-04-25T17:32:57.111Z</time></trkpt><trkpt lat="44.8844017" lon="8.0059833"><ele>199.5</ele><time>2026-04-25T17:32:58.111Z</time></trkpt><trkpt lat="44.8846317" lon="8.0059217"><ele>198.0</ele><time>2026-04-25T17:32:59.111Z</time></trkpt><trkpt lat="44.8848683" lon="8.0058533"><ele>200.0</ele><time>2026-04-25T17:33:00.111Z</time></trkpt><trkpt lat="44.885095" lon="8.0057933"><ele>202.0</ele><time>2026-04-25T17:33:01.111Z</time></trkpt><trkpt lat="44.8853233" lon="8.0057333"><ele>202.0</ele><time>2026-04-25T17:33:02.111Z</time></trkpt><trkpt lat="44.8855483" lon="8.005675"><ele>202.0</ele><time>2026-04-25T17:33:03.111Z</time></trkpt><trkpt lat="44.8857683" lon="8.00562"><ele>201.0</ele><time>2026-04-25T17:33:04.111Z</time></trkpt><trkpt lat="44.8859867" lon="8.0055683"><ele>200.0</ele><time>2026-04-25T17:33:05.111Z</time></trkpt><trkpt lat="44.8862133" lon="8.0055033"><ele>200.0</ele><time>2026-04-25T17:33:06.111Z</time></trkpt><trkpt lat="44.8864433" lon="8.0054483"><ele>200.0</ele><time>2026-04-25T17:33:07.111Z</time></trkpt><trkpt lat="44.8866733" lon="8.0053917"><ele>199.0</ele><time>2026-04-25T17:33:08.111Z</time></trkpt><trkpt lat="44.8869033" lon="8.0053317"><ele>198.0</ele><time>2026-04-25T17:33:09.111Z</time></trkpt><trkpt lat="44.88712" lon="8.0052733"><ele>198.0</ele><time>2026-04-25T17:33:10.111Z</time></trkpt><trkpt lat="44.887335" lon="8.0052183"><ele>198.0</ele><time>2026-04-25T17:33:11.111Z</time></trkpt><trkpt lat="44.8875533" lon="8.005165"><ele>198.0</ele><time>2026-04-25T17:33:12.111Z</time></trkpt><trkpt lat="44.8877767" lon="8.0051033"><ele>197.66666666666669</ele><time>2026-04-25T17:33:13.111Z</time></trkpt><trkpt lat="44.887995" lon="8.0050533"><ele>197.33333333333334</ele><time>2026-04-25T17:33:14.111Z</time></trkpt><trkpt lat="44.8882083" lon="8.0050183"><ele>197.0</ele><time>2026-04-25T17:33:15.111Z</time></trkpt><trkpt lat="44.8884183" lon="8.0050067"><ele>195.33333333333334</ele><time>2026-04-25T17:33:16.111Z</time></trkpt><trkpt lat="44.88863" lon="8.0050117"><ele>193.66666666666669</ele><time>2026-04-25T17:33:17.111Z</time></trkpt><trkpt lat="44.8888583" lon="8.00504"><ele>192.0</ele><time>2026-04-25T17:33:18.111Z</time></trkpt><trkpt lat="44.8890883" lon="8.0050883"><ele>194.5</ele><time>2026-04-25T17:33:19.111Z</time></trkpt><trkpt lat="44.8893133" lon="8.00517"><ele>197.0</ele><time>2026-04-25T17:33:20.111Z</time></trkpt><trkpt lat="44.8895367" lon="8.0052767"><ele>197.0</ele><time>2026-04-25T17:33:21.111Z</time></trkpt><trkpt lat="44.8897417" lon="8.00541"><ele>197.0</ele><time>2026-04-25T17:33:22.111Z</time></trkpt><trkpt lat="44.8899483" lon="8.00556"><ele>197.5</ele><time>2026-04-25T17:33:23.111Z</time></trkpt><trkpt lat="44.8901533" lon="8.0057217"><ele>198.0</ele><time>2026-04-25T17:33:24.111Z</time></trkpt><trkpt lat="44.8903633" lon="8.0058817"><ele>195.5</ele><time>2026-04-25T17:33:25.111Z</time></trkpt><trkpt lat="44.8905717" lon="8.0060483"><ele>193.0</ele><time>2026-04-25T17:33:26.111Z</time></trkpt><trkpt lat="44.890785" lon="8.006205"><ele>190.5</ele><time>2026-04-25T17:33:27.111Z</time></trkpt><trkpt lat="44.8910033" lon="8.0063533"><ele>188.0</ele><time>2026-04-25T17:33:28.111Z</time></trkpt><trkpt lat="44.891215" lon="8.00651"><ele>187.0</ele><time>2026-04-25T17:33:29.111Z</time></trkpt><trkpt lat="44.8914133" lon="8.006675"><ele>186.0</ele><time>2026-04-25T17:33:30.111Z</time></trkpt><trkpt lat="44.8916167" lon="8.0068433"><ele>187.0</ele><time>2026-04-25T17:33:31.111Z</time></trkpt><trkpt lat="44.891815" lon="8.0070033"><ele>188.0</ele><time>2026-04-25T17:33:32.111Z</time></trkpt><trkpt lat="44.89202" lon="8.0071633"><ele>188.0</ele><time>2026-04-25T17:33:33.111Z</time></trkpt><trkpt lat="44.8922233" lon="8.0073167"><ele>188.0</ele><time>2026-04-25T17:33:34.111Z</time></trkpt><trkpt lat="44.89243" lon="8.0074717"><ele>189.5</ele><time>2026-04-25T17:33:35.111Z</time></trkpt><trkpt lat="44.89263" lon="8.0076283"><ele>191.0</ele><time>2026-04-25T17:33:36.111Z</time></trkpt><trkpt lat="44.892835" lon="8.00779"><ele>191.0</ele><time>2026-04-25T17:33:37.111Z</time></trkpt><trkpt lat="44.8930267" lon="8.00795"><ele>191.0</ele><time>2026-04-25T17:33:38.111Z</time></trkpt><trkpt lat="44.8932233" lon="8.0081167"><ele>191.0</ele><time>2026-04-25T17:33:39.111Z</time></trkpt><trkpt lat="44.89342" lon="8.0082817"><ele>191.0</ele><time>2026-04-25T17:33:40.111Z</time></trkpt><trkpt lat="44.89362" lon="8.0084533"><ele>191.0</ele><time>2026-04-25T17:33:41.111Z</time></trkpt><trkpt lat="44.8938133" lon="8.0086233"><ele>191.0</ele><time>2026-04-25T17:33:42.111Z</time></trkpt><trkpt lat="44.89402" lon="8.0087833"><ele>191.0</ele><time>2026-04-25T17:33:43.111Z</time></trkpt><trkpt lat="44.8942217" lon="8.008955"><ele>191.0</ele><time>2026-04-25T17:33:44.111Z</time></trkpt><trkpt lat="44.89443" lon="8.00912"><ele>190.0</ele><time>2026-04-25T17:33:45.111Z</time></trkpt><trkpt lat="44.894635" lon="8.009295"><ele>189.0</ele><time>2026-04-25T17:33:46.111Z</time></trkpt><trkpt lat="44.8948417" lon="8.0094633"><ele>189.0</ele><time>2026-04-25T17:33:47.111Z</time></trkpt><trkpt lat="44.8950417" lon="8.0096283"><ele>189.0</ele><time>2026-04-25T17:33:48.111Z</time></trkpt><trkpt lat="44.89524" lon="8.0098067"><ele>188.5</ele><time>2026-04-25T17:33:49.111Z</time></trkpt><trkpt lat="44.895445" lon="8.0099817"><ele>188.0</ele><time>2026-04-25T17:33:50.111Z</time></trkpt><trkpt lat="44.8956417" lon="8.010155"><ele>184.5</ele><time>2026-04-25T17:33:51.111Z</time></trkpt><trkpt lat="44.8958383" lon="8.0103283"><ele>181.0</ele><time>2026-04-25T17:33:52.111Z</time></trkpt><trkpt lat="44.896025" lon="8.010525"><ele>179.5</ele><time>2026-04-25T17:33:53.111Z</time></trkpt><trkpt lat="44.8962117" lon="8.0107167"><ele>178.0</ele><time>2026-04-25T17:33:54.111Z</time></trkpt><trkpt lat="44.896385" lon="8.01092"><ele>178.0</ele><time>2026-04-25T17:33:55.111Z</time></trkpt><trkpt lat="44.8965533" lon="8.0111217"><ele>178.0</ele><time>2026-04-25T17:33:56.111Z</time></trkpt><trkpt lat="44.8967233" lon="8.01134"><ele>178.66666666666669</ele><time>2026-04-25T17:33:57.111Z</time></trkpt><trkpt lat="44.8968867" lon="8.0115633"><ele>179.33333333333334</ele><time>2026-04-25T17:33:58.111Z</time></trkpt><trkpt lat="44.8970433" lon="8.0117833"><ele>180.0</ele><time>2026-04-25T17:33:59.111Z</time></trkpt><trkpt lat="44.8972033" lon="8.012005"><ele>180.0</ele><time>2026-04-25T17:34:00.111Z</time></trkpt><trkpt lat="44.8973683" lon="8.0122367"><ele>180.0</ele><time>2026-04-25T17:34:01.111Z</time></trkpt><trkpt lat="44.8975233" lon="8.0124733"><ele>180.0</ele><time>2026-04-25T17:34:02.111Z</time></trkpt><trkpt lat="44.897685" lon="8.012705"><ele>180.0</ele><time>2026-04-25T17:34:03.111Z</time></trkpt><trkpt lat="44.897845" lon="8.0129383"><ele>180.0</ele><time>2026-04-25T17:34:04.111Z</time></trkpt><trkpt lat="44.8980067" lon="8.0131683"><ele>180.0</ele><time>2026-04-25T17:34:05.111Z</time></trkpt><trkpt lat="44.8981733" lon="8.013395"><ele>180.0</ele><time>2026-04-25T17:34:06.111Z</time></trkpt><trkpt lat="44.8983383" lon="8.01362"><ele>180.0</ele><time>2026-04-25T17:34:07.111Z</time></trkpt><trkpt lat="44.8985" lon="8.01385"><ele>180.0</ele><time>2026-04-25T17:34:08.111Z</time></trkpt><trkpt lat="44.898655" lon="8.01408"><ele>180.0</ele><time>2026-04-25T17:34:09.111Z</time></trkpt><trkpt lat="44.8988133" lon="8.0143067"><ele>179.66666666666666</ele><time>2026-04-25T17:34:10.111Z</time></trkpt><trkpt lat="44.898975" lon="8.014525"><ele>179.33333333333331</ele><time>2026-04-25T17:34:11.111Z</time></trkpt><trkpt lat="44.8991367" lon="8.0147383"><ele>179.0</ele><time>2026-04-25T17:34:12.111Z</time></trkpt><trkpt lat="44.89929" lon="8.0149617"><ele>179.0</ele><time>2026-04-25T17:34:13.111Z</time></trkpt><trkpt lat="44.89945" lon="8.01518"><ele>179.0</ele><time>2026-04-25T17:34:14.111Z</time></trkpt><trkpt lat="44.8996017" lon="8.0154"><ele>179.0</ele><time>2026-04-25T17:34:15.111Z</time></trkpt><trkpt lat="44.899755" lon="8.015625"><ele>179.33333333333331</ele><time>2026-04-25T17:34:16.111Z</time></trkpt><trkpt lat="44.8999167" lon="8.0158433"><ele>179.66666666666666</ele><time>2026-04-25T17:34:17.111Z</time></trkpt><trkpt lat="44.90007" lon="8.0160717"><ele>180.0</ele><time>2026-04-25T17:34:18.111Z</time></trkpt><trkpt lat="44.9002217" lon="8.0162883"><ele>180.0</ele><time>2026-04-25T17:34:19.111Z</time></trkpt><trkpt lat="44.900375" lon="8.0164983"><ele>180.0</ele><time>2026-04-25T17:34:20.111Z</time></trkpt><trkpt lat="44.9005283" lon="8.0167117"><ele>180.0</ele><time>2026-04-25T17:34:21.111Z</time></trkpt><trkpt lat="44.9006917" lon="8.01692"><ele>180.0</ele><time>2026-04-25T17:34:22.111Z</time></trkpt><trkpt lat="44.9008467" lon="8.0171267"><ele>180.0</ele><time>2026-04-25T17:34:23.111Z</time></trkpt><trkpt lat="44.9009983" lon="8.0173333"><ele>180.0</ele><time>2026-04-25T17:34:24.111Z</time></trkpt><trkpt lat="44.901155" lon="8.01755"><ele>179.0</ele><time>2026-04-25T17:34:25.111Z</time></trkpt><trkpt lat="44.9013017" lon="8.0177617"><ele>178.0</ele><time>2026-04-25T17:34:26.111Z</time></trkpt><trkpt lat="44.9014517" lon="8.0179717"><ele>177.0</ele><time>2026-04-25T17:34:27.111Z</time></trkpt><trkpt lat="44.9016" lon="8.0181733"><ele>177.33333333333334</ele><time>2026-04-25T17:34:28.111Z</time></trkpt><trkpt lat="44.901745" lon="8.01838"><ele>177.66666666666669</ele><time>2026-04-25T17:34:29.111Z</time></trkpt><trkpt lat="44.9018967" lon="8.018585"><ele>178.0</ele><time>2026-04-25T17:34:30.111Z</time></trkpt><trkpt lat="44.9020467" lon="8.0187933"><ele>178.0</ele><time>2026-04-25T17:34:31.111Z</time></trkpt><trkpt lat="44.902195" lon="8.018995"><ele>178.0</ele><time>2026-04-25T17:34:32.111Z</time></trkpt><trkpt lat="44.9023383" lon="8.0191967"><ele>178.0</ele><time>2026-04-25T17:34:33.111Z</time></trkpt><trkpt lat="44.9024817" lon="8.01941"><ele>177.66666666666669</ele><time>2026-04-25T17:34:34.111Z</time></trkpt><trkpt lat="44.902635" lon="8.019615"><ele>177.33333333333334</ele><time>2026-04-25T17:34:35.111Z</time></trkpt><trkpt lat="44.9027817" lon="8.0198233"><ele>177.0</ele><time>2026-04-25T17:34:36.111Z</time></trkpt><trkpt lat="44.9029267" lon="8.020025"><ele>177.0</ele><time>2026-04-25T17:34:37.111Z</time></trkpt><trkpt lat="44.903075" lon="8.0202267"><ele>177.0</ele><time>2026-04-25T17:34:38.111Z</time></trkpt><trkpt lat="44.9032217" lon="8.0204333"><ele>177.0</ele><time>2026-04-25T17:34:39.111Z</time></trkpt><trkpt lat="44.90339" lon="8.0206183"><ele>178.0</ele><time>2026-04-25T17:34:40.111Z</time></trkpt><trkpt lat="44.903555" lon="8.0208067"><ele>179.0</ele><time>2026-04-25T17:34:41.111Z</time></trkpt><trkpt lat="44.9037217" lon="8.02099"><ele>180.0</ele><time>2026-04-25T17:34:42.111Z</time></trkpt><trkpt lat="44.9038883" lon="8.0211783"><ele>177.33333333333334</ele><time>2026-04-25T17:34:43.111Z</time></trkpt><trkpt lat="44.9040533" lon="8.021375"><ele>174.66666666666669</ele><time>2026-04-25T17:34:44.111Z</time></trkpt><trkpt lat="44.9042183" lon="8.0215667"><ele>172.0</ele><time>2026-04-25T17:34:45.111Z</time></trkpt><trkpt lat="44.904385" lon="8.0217617"><ele>171.0</ele><time>2026-04-25T17:34:46.111Z</time></trkpt><trkpt lat="44.9045517" lon="8.02195"><ele>170.0</ele><time>2026-04-25T17:34:47.111Z</time></trkpt><trkpt lat="44.904715" lon="8.0221517"><ele>169.0</ele><time>2026-04-25T17:34:48.111Z</time></trkpt><trkpt lat="44.9048683" lon="8.0223633"><ele>169.0</ele><time>2026-04-25T17:34:49.111Z</time></trkpt><trkpt lat="44.9050183" lon="8.022575"><ele>169.0</ele><time>2026-04-25T17:34:50.111Z</time></trkpt><trkpt lat="44.9051667" lon="8.0227917"><ele>169.0</ele><time>2026-04-25T17:34:51.111Z</time></trkpt><trkpt lat="44.90531" lon="8.0230167"><ele>171.0</ele><time>2026-04-25T17:34:52.111Z</time></trkpt><trkpt lat="44.9054533" lon="8.0232367"><ele>173.0</ele><time>2026-04-25T17:34:53.111Z</time></trkpt><trkpt lat="44.9055867" lon="8.0234617"><ele>175.0</ele><time>2026-04-25T17:34:54.111Z</time></trkpt><trkpt lat="44.9057167" lon="8.023685"><ele>175.0</ele><time>2026-04-25T17:34:55.111Z</time></trkpt><trkpt lat="44.90585" lon="8.0239033"><ele>175.0</ele><time>2026-04-25T17:34:56.111Z</time></trkpt><trkpt lat="44.9059783" lon="8.0241217"><ele>175.0</ele><time>2026-04-25T17:34:57.111Z</time></trkpt><trkpt lat="44.906105" lon="8.0243417"><ele>175.66666666666669</ele><time>2026-04-25T17:34:58.111Z</time></trkpt><trkpt lat="44.9062383" lon="8.0245617"><ele>176.33333333333334</ele><time>2026-04-25T17:34:59.111Z</time></trkpt><trkpt lat="44.906375" lon="8.0247833"><ele>177.0</ele><time>2026-04-25T17:35:00.111Z</time></trkpt><trkpt lat="44.9065" lon="8.0249983"><ele>175.66666666666666</ele><time>2026-04-25T17:35:01.111Z</time></trkpt><trkpt lat="44.90663" lon="8.0252183"><ele>174.33333333333331</ele><time>2026-04-25T17:35:02.111Z</time></trkpt><trkpt lat="44.9067667" lon="8.02543"><ele>173.0</ele><time>2026-04-25T17:35:03.111Z</time></trkpt><trkpt lat="44.9069" lon="8.0256467"><ele>172.33333333333331</ele><time>2026-04-25T17:35:04.111Z</time></trkpt><trkpt lat="44.9070333" lon="8.0258683"><ele>171.66666666666666</ele><time>2026-04-25T17:35:05.111Z</time></trkpt><trkpt lat="44.9071617" lon="8.02609"><ele>171.0</ele><time>2026-04-25T17:35:06.111Z</time></trkpt><trkpt lat="44.907295" lon="8.0263033"><ele>171.0</ele><time>2026-04-25T17:35:07.111Z</time></trkpt><trkpt lat="44.9074283" lon="8.026525"><ele>171.0</ele><time>2026-04-25T17:35:08.111Z</time></trkpt><trkpt lat="44.9075583" lon="8.0267517"><ele>171.0</ele><time>2026-04-25T17:35:09.111Z</time></trkpt><trkpt lat="44.9076917" lon="8.0269767"><ele>170.66666666666666</ele><time>2026-04-25T17:35:10.111Z</time></trkpt><trkpt lat="44.9078233" lon="8.027185"><ele>170.33333333333331</ele><time>2026-04-25T17:35:11.111Z</time></trkpt><trkpt lat="44.9079583" lon="8.0274017"><ele>170.0</ele><time>2026-04-25T17:35:12.111Z</time></trkpt><trkpt lat="44.9080917" lon="8.027625"><ele>170.0</ele><time>2026-04-25T17:35:13.111Z</time></trkpt><trkpt lat="44.90821" lon="8.0278467"><ele>170.0</ele><time>2026-04-25T17:35:14.111Z</time></trkpt><trkpt lat="44.9083367" lon="8.028075"><ele>170.0</ele><time>2026-04-25T17:35:15.111Z</time></trkpt><trkpt lat="44.908465" lon="8.0282867"><ele>168.66666666666666</ele><time>2026-04-25T17:35:16.111Z</time></trkpt><trkpt lat="44.908595" lon="8.0285083"><ele>167.33333333333334</ele><time>2026-04-25T17:35:17.111Z</time></trkpt><trkpt lat="44.90872" lon="8.0287283"><ele>166.0</ele><time>2026-04-25T17:35:18.111Z</time></trkpt><trkpt lat="44.9088533" lon="8.0289483"><ele>166.0</ele><time>2026-04-25T17:35:19.111Z</time></trkpt><trkpt lat="44.908985" lon="8.029165"><ele>166.0</ele><time>2026-04-25T17:35:20.111Z</time></trkpt><trkpt lat="44.9091183" lon="8.0293867"><ele>166.0</ele><time>2026-04-25T17:35:21.111Z</time></trkpt><trkpt lat="44.90925" lon="8.0296067"><ele>167.0</ele><time>2026-04-25T17:35:22.111Z</time></trkpt><trkpt lat="44.909375" lon="8.0298317"><ele>168.0</ele><time>2026-04-25T17:35:23.111Z</time></trkpt><trkpt lat="44.90951" lon="8.0300383"><ele>169.0</ele><time>2026-04-25T17:35:24.111Z</time></trkpt><trkpt lat="44.9096317" lon="8.0302433"><ele>169.0</ele><time>2026-04-25T17:35:25.111Z</time></trkpt><trkpt lat="44.90975" lon="8.030435"><ele>169.0</ele><time>2026-04-25T17:35:26.111Z</time></trkpt><trkpt lat="44.90986" lon="8.030625"><ele>169.0</ele><time>2026-04-25T17:35:27.111Z</time></trkpt><trkpt lat="44.9099717" lon="8.0307983"><ele>168.33333333333334</ele><time>2026-04-25T17:35:28.111Z</time></trkpt><trkpt lat="44.91007" lon="8.0309767"><ele>167.66666666666666</ele><time>2026-04-25T17:35:29.111Z</time></trkpt><trkpt lat="44.91016" lon="8.0311467"><ele>167.0</ele><time>2026-04-25T17:35:30.111Z</time></trkpt><trkpt lat="44.9102667" lon="8.031305"><ele>167.0</ele><time>2026-04-25T17:35:31.111Z</time></trkpt><trkpt lat="44.9103583" lon="8.031455"><ele>167.0</ele><time>2026-04-25T17:35:32.111Z</time></trkpt><trkpt lat="44.9104483" lon="8.031615"><ele>167.0</ele><time>2026-04-25T17:35:33.111Z</time></trkpt><trkpt lat="44.9105267" lon="8.03176"><ele>167.0</ele><time>2026-04-25T17:35:34.111Z</time></trkpt><trkpt lat="44.91059" lon="8.03188"><ele>167.0</ele><time>2026-04-25T17:35:35.111Z</time></trkpt><trkpt lat="44.9106383" lon="8.0319767"><ele>167.0</ele><time>2026-04-25T17:35:36.111Z</time></trkpt><trkpt lat="44.910675" lon="8.0320617"><ele>167.0</ele><time>2026-04-25T17:35:37.111Z</time></trkpt><trkpt lat="44.9107183" lon="8.0321533"><ele>167.0</ele><time>2026-04-25T17:35:38.111Z</time></trkpt><trkpt lat="44.9107883" lon="8.0322517"><ele>167.0</ele><time>2026-04-25T17:35:39.111Z</time></trkpt><trkpt lat="44.910865" lon="8.03237"><ele>167.0</ele><time>2026-04-25T17:35:40.111Z</time></trkpt><trkpt lat="44.91095" lon="8.032495"><ele>167.25</ele><time>2026-04-25T17:35:41.111Z</time></trkpt><trkpt lat="44.9110367" lon="8.0326333"><ele>167.5</ele><time>2026-04-25T17:35:42.111Z</time></trkpt><trkpt lat="44.9111383" lon="8.03278"><ele>167.75</ele><time>2026-04-25T17:35:43.111Z</time></trkpt><trkpt lat="44.9112417" lon="8.03294"><ele>168.0</ele><time>2026-04-25T17:35:44.111Z</time></trkpt><trkpt lat="44.9113483" lon="8.0331083"><ele>168.0</ele><time>2026-04-25T17:35:45.111Z</time></trkpt><trkpt lat="44.91145" lon="8.0332917"><ele>168.0</ele><time>2026-04-25T17:35:46.111Z</time></trkpt><trkpt lat="44.9115533" lon="8.0334667"><ele>168.0</ele><time>2026-04-25T17:35:47.111Z</time></trkpt><trkpt lat="44.911655" lon="8.0336283"><ele>168.5</ele><time>2026-04-25T17:35:48.111Z</time></trkpt><trkpt lat="44.911745" lon="8.0338"><ele>169.0</ele><time>2026-04-25T17:35:49.111Z</time></trkpt><trkpt lat="44.9118367" lon="8.0339617"><ele>169.5</ele><time>2026-04-25T17:35:50.111Z</time></trkpt><trkpt lat="44.9119233" lon="8.0341117"><ele>170.0</ele><time>2026-04-25T17:35:51.111Z</time></trkpt><trkpt lat="44.9120133" lon="8.0342567"><ele>170.0</ele><time>2026-04-25T17:35:52.111Z</time></trkpt><trkpt lat="44.9120917" lon="8.0344083"><ele>170.0</ele><time>2026-04-25T17:35:53.111Z</time></trkpt><trkpt lat="44.9121717" lon="8.0345467"><ele>170.0</ele><time>2026-04-25T17:35:54.111Z</time></trkpt><trkpt lat="44.91225" lon="8.0346817"><ele>170.0</ele><time>2026-04-25T17:35:55.111Z</time></trkpt><trkpt lat="44.912325" lon="8.0348117"><ele>170.0</ele><time>2026-04-25T17:35:56.111Z</time></trkpt><trkpt lat="44.9124" lon="8.0349267"><ele>170.0</ele><time>2026-04-25T17:35:57.111Z</time></trkpt><trkpt lat="44.9124867" lon="8.03502"><ele>170.0</ele><time>2026-04-25T17:35:58.111Z</time></trkpt><trkpt lat="44.9125917" lon="8.0350983"><ele>170.0</ele><time>2026-04-25T17:35:59.111Z</time></trkpt><trkpt lat="44.9126933" lon="8.0351583"><ele>170.0</ele><time>2026-04-25T17:36:00.111Z</time></trkpt><trkpt lat="44.912785" lon="8.0352067"><ele>170.8</ele><time>2026-04-25T17:36:01.111Z</time></trkpt><trkpt lat="44.912875" lon="8.0352583"><ele>171.6</ele><time>2026-04-25T17:36:02.111Z</time></trkpt><trkpt lat="44.9129467" lon="8.03532"><ele>172.39999999999998</ele><time>2026-04-25T17:36:03.111Z</time></trkpt><trkpt lat="44.9130517" lon="8.0353767"><ele>173.2</ele><time>2026-04-25T17:36:05.111Z</time></trkpt><trkpt lat="44.9131683" lon="8.0354817"><ele>174.0</ele><time>2026-04-25T17:36:07.111Z</time></trkpt><trkpt lat="44.91324" lon="8.0355717"><ele>174.0</ele><time>2026-04-25T17:36:08.111Z</time></trkpt><trkpt lat="44.9132817" lon="8.0357067"><ele>174.0</ele><time>2026-04-25T17:36:09.111Z</time></trkpt><trkpt lat="44.9133333" lon="8.035845"><ele>174.0</ele><time>2026-04-25T17:36:10.111Z</time></trkpt><trkpt lat="44.9133817" lon="8.0359867"><ele>174.0</ele><time>2026-04-25T17:36:11.111Z</time></trkpt><trkpt lat="44.913455" lon="8.0361133"><ele>174.0</ele><time>2026-04-25T17:36:12.111Z</time></trkpt><trkpt lat="44.9135383" lon="8.03622"><ele>171.79999999999998</ele><time>2026-04-25T17:36:13.111Z</time></trkpt><trkpt lat="44.9136333" lon="8.0363"><ele>169.6</ele><time>2026-04-25T17:36:14.111Z</time></trkpt><trkpt lat="44.9137317" lon="8.036335"><ele>167.4</ele><time>2026-04-25T17:36:15.111Z</time></trkpt><trkpt lat="44.9138333" lon="8.03632"><ele>165.2</ele><time>2026-04-25T17:36:16.111Z</time></trkpt><trkpt lat="44.9139183" lon="8.036245"><ele>163.0</ele><time>2026-04-25T17:36:17.111Z</time></trkpt><trkpt lat="44.91399" lon="8.0361167"><ele>163.0</ele><time>2026-04-25T17:36:18.111Z</time></trkpt><trkpt lat="44.9140233" lon="8.0359633"><ele>163.0</ele><time>2026-04-25T17:36:19.111Z</time></trkpt><trkpt lat="44.9140517" lon="8.03582"><ele>163.0</ele><time>2026-04-25T17:36:20.111Z</time></trkpt><trkpt lat="44.914075" lon="8.0356967"><ele>163.0</ele><time>2026-04-25T17:36:21.111Z</time></trkpt><trkpt lat="44.9141167" lon="8.0355833"><ele>163.0</ele><time>2026-04-25T17:36:22.111Z</time></trkpt><trkpt lat="44.9141667" lon="8.0355017"><ele>162.83333333333334</ele><time>2026-04-25T17:36:23.111Z</time></trkpt><trkpt lat="44.91423" lon="8.0354433"><ele>162.66666666666669</ele><time>2026-04-25T17:36:24.111Z</time></trkpt><trkpt lat="44.9143033" lon="8.03543"><ele>162.5</ele><time>2026-04-25T17:36:25.111Z</time></trkpt><trkpt lat="44.9143717" lon="8.0354617"><ele>162.33333333333334</ele><time>2026-04-25T17:36:26.111Z</time></trkpt><trkpt lat="44.9144317" lon="8.035545"><ele>162.16666666666666</ele><time>2026-04-25T17:36:28.111Z</time></trkpt><trkpt lat="44.914505" lon="8.0355867"><ele>162.0</ele><time>2026-04-25T17:36:32.111Z</time></trkpt><trkpt lat="44.914615" lon="8.0354633"><ele>162.0</ele><time>2026-04-25T17:36:34.111Z</time></trkpt><trkpt lat="44.9146867" lon="8.0353383"><ele>162.0</ele><time>2026-04-25T17:36:35.111Z</time></trkpt><trkpt lat="44.9147617" lon="8.03519"><ele>162.0</ele><time>2026-04-25T17:36:36.111Z</time></trkpt><trkpt lat="44.9148333" lon="8.03504"><ele>162.0</ele><time>2026-04-25T17:36:37.111Z</time></trkpt><trkpt lat="44.9149017" lon="8.0348967"><ele>162.25</ele><time>2026-04-25T17:36:38.111Z</time></trkpt><trkpt lat="44.9149783" lon="8.0347533"><ele>162.5</ele><time>2026-04-25T17:36:39.111Z</time></trkpt><trkpt lat="44.9150417" lon="8.0346117"><ele>162.75</ele><time>2026-04-25T17:36:40.111Z</time></trkpt><trkpt lat="44.9151083" lon="8.03447"><ele>163.0</ele><time>2026-04-25T17:36:41.111Z</time></trkpt><trkpt lat="44.91517" lon="8.03433"><ele>163.0</ele><time>2026-04-25T17:36:42.111Z</time></trkpt><trkpt lat="44.9152333" lon="8.0342067"><ele>163.0</ele><time>2026-04-25T17:36:43.111Z</time></trkpt><trkpt lat="44.9153" lon="8.0340717"><ele>163.0</ele><time>2026-04-25T17:36:44.112Z</time></trkpt><trkpt lat="44.9153667" lon="8.033945"><ele>163.0</ele><time>2026-04-25T17:36:45.111Z</time></trkpt><trkpt lat="44.9154367" lon="8.0338183"><ele>163.0</ele><time>2026-04-25T17:36:46.111Z</time></trkpt><trkpt lat="44.915495" lon="8.033685"><ele>163.0</ele><time>2026-04-25T17:36:47.111Z</time></trkpt><trkpt lat="44.9155567" lon="8.0335533"><ele>163.0</ele><time>2026-04-25T17:36:48.111Z</time></trkpt><trkpt lat="44.915615" lon="8.0334283"><ele>163.0</ele><time>2026-04-25T17:36:49.111Z</time></trkpt><trkpt lat="44.9156817" lon="8.0333"><ele>163.0</ele><time>2026-04-25T17:36:50.111Z</time></trkpt><trkpt lat="44.9157483" lon="8.03318"><ele>163.0</ele><time>2026-04-25T17:36:51.111Z</time></trkpt><trkpt lat="44.91581" lon="8.033055"><ele>163.0</ele><time>2026-04-25T17:36:52.111Z</time></trkpt><trkpt lat="44.915875" lon="8.0329333"><ele>163.0</ele><time>2026-04-25T17:36:53.111Z</time></trkpt><trkpt lat="44.9159433" lon="8.0328283"><ele>163.0</ele><time>2026-04-25T17:36:54.111Z</time></trkpt><trkpt lat="44.9160067" lon="8.03274"><ele>163.0</ele><time>2026-04-25T17:36:55.111Z</time></trkpt><trkpt lat="44.9160783" lon="8.0326617"><ele>163.0</ele><time>2026-04-25T17:36:56.112Z</time></trkpt><trkpt lat="44.9161517" lon="8.03261"><ele>163.0</ele><time>2026-04-25T17:36:57.111Z</time></trkpt><trkpt lat="44.9162267" lon="8.03258"><ele>163.0</ele><time>2026-04-25T17:36:58.111Z</time></trkpt><trkpt lat="44.9163033" lon="8.0325583"><ele>163.0</ele><time>2026-04-25T17:36:59.111Z</time></trkpt><trkpt lat="44.9163917" lon="8.0325533"><ele>163.0</ele><time>2026-04-25T17:37:00.111Z</time></trkpt><trkpt lat="44.9164733" lon="8.0325767"><ele>163.0</ele><time>2026-04-25T17:37:01.111Z</time></trkpt><trkpt lat="44.9165383" lon="8.0326433"><ele>163.0</ele><time>2026-04-25T17:37:02.111Z</time></trkpt><trkpt lat="44.9165917" lon="8.032735"><ele>163.0</ele><time>2026-04-25T17:37:03.111Z</time></trkpt><trkpt lat="44.91662" lon="8.03284"><ele>163.0</ele><time>2026-04-25T17:37:04.111Z</time></trkpt><trkpt lat="44.9166117" lon="8.0329583"><ele>163.0</ele><time>2026-04-25T17:37:05.111Z</time></trkpt><trkpt lat="44.916575" lon="8.033065"><ele>163.0</ele><time>2026-04-25T17:37:06.111Z</time></trkpt><trkpt lat="44.916515" lon="8.0331567"><ele>163.0</ele><time>2026-04-25T17:37:07.111Z</time></trkpt><trkpt lat="44.916425" lon="8.0332317"><ele>163.0</ele><time>2026-04-25T17:37:08.111Z</time></trkpt><trkpt lat="44.9163233" lon="8.0333033"><ele>163.0</ele><time>2026-04-25T17:37:09.111Z</time></trkpt><trkpt lat="44.916225" lon="8.0333683"><ele>163.0</ele><time>2026-04-25T17:37:10.111Z</time></trkpt><trkpt lat="44.9161267" lon="8.0334467"><ele>163.0</ele><time>2026-04-25T17:37:11.111Z</time></trkpt><trkpt lat="44.91603" lon="8.0335467"><ele>163.0</ele><time>2026-04-25T17:37:12.111Z</time></trkpt><trkpt lat="44.91594" lon="8.033675"><ele>163.0</ele><time>2026-04-25T17:37:13.111Z</time></trkpt><trkpt lat="44.9158617" lon="8.0338233"><ele>163.0</ele><time>2026-04-25T17:37:14.111Z</time></trkpt><trkpt lat="44.9157967" lon="8.0339733"><ele>163.0</ele><time>2026-04-25T17:37:15.111Z</time></trkpt><trkpt lat="44.9157367" lon="8.0341167"><ele>162.60000000000002</ele><time>2026-04-25T17:37:16.111Z</time></trkpt><trkpt lat="44.9156783" lon="8.0342617"><ele>162.20000000000002</ele><time>2026-04-25T17:37:17.111Z</time></trkpt><trkpt lat="44.915615" lon="8.0344033"><ele>161.8</ele><time>2026-04-25T17:37:18.111Z</time></trkpt><trkpt lat="44.915565" lon="8.0345317"><ele>161.4</ele><time>2026-04-25T17:37:19.111Z</time></trkpt><trkpt lat="44.915535" lon="8.0346583"><ele>161.0</ele><time>2026-04-25T17:37:20.111Z</time></trkpt><trkpt lat="44.9155217" lon="8.0348017"><ele>161.0</ele><time>2026-04-25T17:37:21.111Z</time></trkpt><trkpt lat="44.9155333" lon="8.0349533"><ele>161.0</ele><time>2026-04-25T17:37:22.111Z</time></trkpt><trkpt lat="44.915585" lon="8.0350883"><ele>161.0</ele><time>2026-04-25T17:37:23.111Z</time></trkpt><trkpt lat="44.915665" lon="8.03521"><ele>161.0</ele><time>2026-04-25T17:37:24.111Z</time></trkpt><trkpt lat="44.9157667" lon="8.035305"><ele>161.0</ele><time>2026-04-25T17:37:25.111Z</time></trkpt><trkpt lat="44.9158767" lon="8.0354017"><ele>161.0</ele><time>2026-04-25T17:37:26.111Z</time></trkpt><trkpt lat="44.9159867" lon="8.03549"><ele>161.0</ele><time>2026-04-25T17:37:27.111Z</time></trkpt><trkpt lat="44.91609" lon="8.0355867"><ele>161.0</ele><time>2026-04-25T17:37:28.111Z</time></trkpt><trkpt lat="44.9161967" lon="8.0356683"><ele>160.5</ele><time>2026-04-25T17:37:29.111Z</time></trkpt><trkpt lat="44.9163117" lon="8.03573"><ele>160.0</ele><time>2026-04-25T17:37:30.111Z</time></trkpt><trkpt lat="44.9164383" lon="8.035775"><ele>159.5</ele><time>2026-04-25T17:37:31.111Z</time></trkpt><trkpt lat="44.9165667" lon="8.03582"><ele>159.0</ele><time>2026-04-25T17:37:32.111Z</time></trkpt><trkpt lat="44.91669" lon="8.0358617"><ele>159.0</ele><time>2026-04-25T17:37:33.111Z</time></trkpt><trkpt lat="44.9168167" lon="8.035905"><ele>159.0</ele><time>2026-04-25T17:37:34.111Z</time></trkpt><trkpt lat="44.9169417" lon="8.0359533"><ele>159.0</ele><time>2026-04-25T17:37:35.111Z</time></trkpt><trkpt lat="44.9170733" lon="8.03599"><ele>159.0</ele><time>2026-04-25T17:37:36.111Z</time></trkpt><trkpt lat="44.917205" lon="8.0360283"><ele>159.0</ele><time>2026-04-25T17:37:37.111Z</time></trkpt><trkpt lat="44.9173383" lon="8.0360767"><ele>159.0</ele><time>2026-04-25T17:37:38.111Z</time></trkpt><trkpt lat="44.9174683" lon="8.0361183"><ele>159.0</ele><time>2026-04-25T17:37:39.111Z</time></trkpt><trkpt lat="44.9175983" lon="8.0361583"><ele>159.0</ele><time>2026-04-25T17:37:40.111Z</time></trkpt><trkpt lat="44.9177233" lon="8.0361933"><ele>158.25</ele><time>2026-04-25T17:37:41.111Z</time></trkpt><trkpt lat="44.9178517" lon="8.0362217"><ele>157.5</ele><time>2026-04-25T17:37:42.111Z</time></trkpt><trkpt lat="44.9179867" lon="8.0362533"><ele>156.75</ele><time>2026-04-25T17:37:43.111Z</time></trkpt><trkpt lat="44.9181183" lon="8.0363017"><ele>156.0</ele><time>2026-04-25T17:37:44.111Z</time></trkpt><trkpt lat="44.9182533" lon="8.0363433"><ele>156.0</ele><time>2026-04-25T17:37:45.111Z</time></trkpt><trkpt lat="44.9183883" lon="8.0363817"><ele>156.0</ele><time>2026-04-25T17:37:46.111Z</time></trkpt><trkpt lat="44.91853" lon="8.03642"><ele>156.0</ele><time>2026-04-25T17:37:47.111Z</time></trkpt><trkpt lat="44.9186767" lon="8.0364667"><ele>156.0</ele><time>2026-04-25T17:37:48.111Z</time></trkpt><trkpt lat="44.9188167" lon="8.0365133"><ele>156.0</ele><time>2026-04-25T17:37:49.111Z</time></trkpt><trkpt lat="44.9189633" lon="8.03657"><ele>156.0</ele><time>2026-04-25T17:37:50.111Z</time></trkpt><trkpt lat="44.9191183" lon="8.0366067"><ele>156.0</ele><time>2026-04-25T17:37:51.111Z</time></trkpt><trkpt lat="44.919275" lon="8.036645"><ele>155.66666666666666</ele><time>2026-04-25T17:37:52.111Z</time></trkpt><trkpt lat="44.9194383" lon="8.0366867"><ele>155.33333333333331</ele><time>2026-04-25T17:37:53.111Z</time></trkpt><trkpt lat="44.9195933" lon="8.0367317"><ele>155.0</ele><time>2026-04-25T17:37:54.111Z</time></trkpt><trkpt lat="44.91975" lon="8.0367717"><ele>155.0</ele><time>2026-04-25T17:37:55.111Z</time></trkpt><trkpt lat="44.9199117" lon="8.0368017"><ele>155.0</ele><time>2026-04-25T17:37:56.111Z</time></trkpt><trkpt lat="44.9200717" lon="8.036835"><ele>155.0</ele><time>2026-04-25T17:37:57.111Z</time></trkpt><trkpt lat="44.92022" lon="8.03687"><ele>155.5</ele><time>2026-04-25T17:37:58.111Z</time></trkpt><trkpt lat="44.9203717" lon="8.03691"><ele>156.0</ele><time>2026-04-25T17:37:59.111Z</time></trkpt><trkpt lat="44.92051" lon="8.0369483"><ele>156.5</ele><time>2026-04-25T17:38:00.111Z</time></trkpt><trkpt lat="44.9206583" lon="8.0369783"><ele>157.0</ele><time>2026-04-25T17:38:01.111Z</time></trkpt><trkpt lat="44.9208067" lon="8.0370017"><ele>158.33333333333334</ele><time>2026-04-25T17:38:02.111Z</time></trkpt><trkpt lat="44.9209533" lon="8.0369817"><ele>159.66666666666666</ele><time>2026-04-25T17:38:03.111Z</time></trkpt><trkpt lat="44.9211083" lon="8.0369383"><ele>161.0</ele><time>2026-04-25T17:38:04.111Z</time></trkpt><trkpt lat="44.92125" lon="8.0368417"><ele>161.0</ele><time>2026-04-25T17:38:05.111Z</time></trkpt><trkpt lat="44.92138" lon="8.0367"><ele>161.0</ele><time>2026-04-25T17:38:06.111Z</time></trkpt><trkpt lat="44.9215067" lon="8.0365383"><ele>161.0</ele><time>2026-04-25T17:38:07.111Z</time></trkpt><trkpt lat="44.92163" lon="8.0363867"><ele>162.66666666666666</ele><time>2026-04-25T17:38:08.111Z</time></trkpt><trkpt lat="44.921765" lon="8.03622"><ele>164.33333333333334</ele><time>2026-04-25T17:38:09.111Z</time></trkpt><trkpt lat="44.921905" lon="8.0360417"><ele>166.0</ele><time>2026-04-25T17:38:10.111Z</time></trkpt><trkpt lat="44.9220417" lon="8.03586"><ele>165.33333333333334</ele><time>2026-04-25T17:38:11.111Z</time></trkpt><trkpt lat="44.92218" lon="8.0356833"><ele>164.66666666666666</ele><time>2026-04-25T17:38:12.111Z</time></trkpt><trkpt lat="44.9223217" lon="8.0354983"><ele>164.0</ele><time>2026-04-25T17:38:13.111Z</time></trkpt><trkpt lat="44.9224633" lon="8.035305"><ele>165.0</ele><time>2026-04-25T17:38:14.111Z</time></trkpt><trkpt lat="44.9226033" lon="8.0351067"><ele>166.0</ele><time>2026-04-25T17:38:15.111Z</time></trkpt><trkpt lat="44.922745" lon="8.0349133"><ele>167.0</ele><time>2026-04-25T17:38:16.111Z</time></trkpt><trkpt lat="44.9228917" lon="8.034725"><ele>164.66666666666666</ele><time>2026-04-25T17:38:17.111Z</time></trkpt><trkpt lat="44.9230367" lon="8.0345417"><ele>162.33333333333334</ele><time>2026-04-25T17:38:18.111Z</time></trkpt><trkpt lat="44.9231783" lon="8.0343567"><ele>160.0</ele><time>2026-04-25T17:38:19.111Z</time></trkpt><trkpt lat="44.9233267" lon="8.0341583"><ele>160.66666666666669</ele><time>2026-04-25T17:38:20.111Z</time></trkpt><trkpt lat="44.92347" lon="8.033955"><ele>161.33333333333334</ele><time>2026-04-25T17:38:21.111Z</time></trkpt><trkpt lat="44.9236217" lon="8.0337717"><ele>162.0</ele><time>2026-04-25T17:38:22.111Z</time></trkpt><trkpt lat="44.923785" lon="8.0336183"><ele>162.0</ele><time>2026-04-25T17:38:23.111Z</time></trkpt><trkpt lat="44.9239583" lon="8.0334867"><ele>162.0</ele><time>2026-04-25T17:38:24.111Z</time></trkpt><trkpt lat="44.9241467" lon="8.033385"><ele>162.0</ele><time>2026-04-25T17:38:25.111Z</time></trkpt><trkpt lat="44.9243367" lon="8.0333"><ele>162.33333333333334</ele><time>2026-04-25T17:38:26.111Z</time></trkpt><trkpt lat="44.9245283" lon="8.0332067"><ele>162.66666666666669</ele><time>2026-04-25T17:38:27.111Z</time></trkpt><trkpt lat="44.9247183" lon="8.03311"><ele>163.0</ele><time>2026-04-25T17:38:28.111Z</time></trkpt><trkpt lat="44.9249117" lon="8.0330167"><ele>164.66666666666669</ele><time>2026-04-25T17:38:29.111Z</time></trkpt><trkpt lat="44.9251067" lon="8.03292"><ele>166.33333333333334</ele><time>2026-04-25T17:38:30.111Z</time></trkpt><trkpt lat="44.9252983" lon="8.03282"><ele>168.0</ele><time>2026-04-25T17:38:31.111Z</time></trkpt><trkpt lat="44.92549" lon="8.03272"><ele>168.0</ele><time>2026-04-25T17:38:32.111Z</time></trkpt><trkpt lat="44.9256783" lon="8.032625"><ele>168.0</ele><time>2026-04-25T17:38:33.111Z</time></trkpt><trkpt lat="44.92587" lon="8.0325317"><ele>168.0</ele><time>2026-04-25T17:38:34.111Z</time></trkpt><trkpt lat="44.9260583" lon="8.0324333"><ele>166.33333333333334</ele><time>2026-04-25T17:38:35.111Z</time></trkpt><trkpt lat="44.926255" lon="8.0323383"><ele>164.66666666666669</ele><time>2026-04-25T17:38:36.111Z</time></trkpt><trkpt lat="44.9264517" lon="8.0322333"><ele>163.0</ele><time>2026-04-25T17:38:37.111Z</time></trkpt><trkpt lat="44.926615" lon="8.0320983"><ele>163.66666666666669</ele><time>2026-04-25T17:38:38.111Z</time></trkpt><trkpt lat="44.9267817" lon="8.0319483"><ele>164.33333333333334</ele><time>2026-04-25T17:38:39.111Z</time></trkpt><trkpt lat="44.92695" lon="8.0317817"><ele>165.0</ele><time>2026-04-25T17:38:40.111Z</time></trkpt><trkpt lat="44.927125" lon="8.0316017"><ele>164.0</ele><time>2026-04-25T17:38:41.111Z</time></trkpt><trkpt lat="44.9272883" lon="8.031435"><ele>163.0</ele><time>2026-04-25T17:38:42.111Z</time></trkpt><trkpt lat="44.92745" lon="8.0312667"><ele>162.0</ele><time>2026-04-25T17:38:43.111Z</time></trkpt><trkpt lat="44.9276167" lon="8.0311083"><ele>162.0</ele><time>2026-04-25T17:38:44.111Z</time></trkpt><trkpt lat="44.92778" lon="8.0309467"><ele>162.0</ele><time>2026-04-25T17:38:45.111Z</time></trkpt><trkpt lat="44.927945" lon="8.030775"><ele>162.0</ele><time>2026-04-25T17:38:46.111Z</time></trkpt><trkpt lat="44.9281167" lon="8.0306017"><ele>161.33333333333334</ele><time>2026-04-25T17:38:47.111Z</time></trkpt><trkpt lat="44.92829" lon="8.030425"><ele>160.66666666666669</ele><time>2026-04-25T17:38:48.111Z</time></trkpt><trkpt lat="44.928455" lon="8.0302433"><ele>160.0</ele><time>2026-04-25T17:38:49.111Z</time></trkpt><trkpt lat="44.928625" lon="8.030055"><ele>159.0</ele><time>2026-04-25T17:38:50.111Z</time></trkpt><trkpt lat="44.9287967" lon="8.02985"><ele>158.0</ele><time>2026-04-25T17:38:51.111Z</time></trkpt><trkpt lat="44.9289717" lon="8.029635"><ele>158.0</ele><time>2026-04-25T17:38:52.111Z</time></trkpt><trkpt lat="44.92914" lon="8.02943"><ele>158.0</ele><time>2026-04-25T17:38:53.111Z</time></trkpt><trkpt lat="44.9293067" lon="8.0292267"><ele>158.0</ele><time>2026-04-25T17:38:54.111Z</time></trkpt><trkpt lat="44.9294717" lon="8.02903"><ele>158.66666666666666</ele><time>2026-04-25T17:38:55.111Z</time></trkpt><trkpt lat="44.9296417" lon="8.0288233"><ele>159.33333333333334</ele><time>2026-04-25T17:38:56.111Z</time></trkpt><trkpt lat="44.9298083" lon="8.0286183"><ele>160.0</ele><time>2026-04-25T17:38:57.111Z</time></trkpt><trkpt lat="44.9299833" lon="8.0284117"><ele>161.0</ele><time>2026-04-25T17:38:58.111Z</time></trkpt><trkpt lat="44.930155" lon="8.0282233"><ele>162.0</ele><time>2026-04-25T17:38:59.111Z</time></trkpt><trkpt lat="44.9303417" lon="8.0280533"><ele>163.0</ele><time>2026-04-25T17:39:00.111Z</time></trkpt><trkpt lat="44.930525" lon="8.0278967"><ele>163.0</ele><time>2026-04-25T17:39:01.111Z</time></trkpt><trkpt lat="44.9307267" lon="8.0277533"><ele>163.0</ele><time>2026-04-25T17:39:02.111Z</time></trkpt><trkpt lat="44.93093" lon="8.0276167"><ele>163.33333333333334</ele><time>2026-04-25T17:39:03.111Z</time></trkpt><trkpt lat="44.9311283" lon="8.0274767"><ele>163.66666666666666</ele><time>2026-04-25T17:39:04.111Z</time></trkpt><trkpt lat="44.9313233" lon="8.0273367"><ele>164.0</ele><time>2026-04-25T17:39:05.111Z</time></trkpt><trkpt lat="44.9315183" lon="8.0272"><ele>164.0</ele><time>2026-04-25T17:39:06.111Z</time></trkpt><trkpt lat="44.9317083" lon="8.027065"><ele>164.0</ele><time>2026-04-25T17:39:07.111Z</time></trkpt><trkpt lat="44.931895" lon="8.0269367"><ele>164.0</ele><time>2026-04-25T17:39:08.111Z</time></trkpt><trkpt lat="44.932085" lon="8.0268017"><ele>164.0</ele><time>2026-04-25T17:39:09.111Z</time></trkpt><trkpt lat="44.932285" lon="8.0266617"><ele>164.0</ele><time>2026-04-25T17:39:10.111Z</time></trkpt><trkpt lat="44.9324833" lon="8.026525"><ele>164.0</ele><time>2026-04-25T17:39:11.111Z</time></trkpt><trkpt lat="44.9326733" lon="8.0263967"><ele>165.33333333333331</ele><time>2026-04-25T17:39:12.111Z</time></trkpt><trkpt lat="44.932865" lon="8.02626"><ele>166.66666666666666</ele><time>2026-04-25T17:39:13.111Z</time></trkpt><trkpt lat="44.933065" lon="8.0261183"><ele>168.0</ele><time>2026-04-25T17:39:14.111Z</time></trkpt><trkpt lat="44.933265" lon="8.02598"><ele>169.5</ele><time>2026-04-25T17:39:15.111Z</time></trkpt><trkpt lat="44.9334667" lon="8.025835"><ele>171.0</ele><time>2026-04-25T17:39:16.111Z</time></trkpt><trkpt lat="44.93367" lon="8.0256867"><ele>171.0</ele><time>2026-04-25T17:39:17.111Z</time></trkpt><trkpt lat="44.9338733" lon="8.02554"><ele>171.0</ele><time>2026-04-25T17:39:18.111Z</time></trkpt><trkpt lat="44.9340717" lon="8.0254017"><ele>171.0</ele><time>2026-04-25T17:39:19.111Z</time></trkpt><trkpt lat="44.93427" lon="8.02526"><ele>171.0</ele><time>2026-04-25T17:39:20.111Z</time></trkpt><trkpt lat="44.9344683" lon="8.0251217"><ele>171.0</ele><time>2026-04-25T17:39:21.111Z</time></trkpt><trkpt lat="44.9346683" lon="8.0249833"><ele>170.33333333333334</ele><time>2026-04-25T17:39:22.111Z</time></trkpt><trkpt lat="44.9348667" lon="8.0248417"><ele>169.66666666666669</ele><time>2026-04-25T17:39:23.111Z</time></trkpt><trkpt lat="44.9350617" lon="8.0247083"><ele>169.0</ele><time>2026-04-25T17:39:24.111Z</time></trkpt><trkpt lat="44.9352583" lon="8.0245683"><ele>168.66666666666669</ele><time>2026-04-25T17:39:25.111Z</time></trkpt><trkpt lat="44.9354633" lon="8.02444"><ele>168.33333333333334</ele><time>2026-04-25T17:39:26.111Z</time></trkpt><trkpt lat="44.9356567" lon="8.024315"><ele>168.0</ele><time>2026-04-25T17:39:27.111Z</time></trkpt><trkpt lat="44.9358583" lon="8.0242067"><ele>168.0</ele><time>2026-04-25T17:39:28.111Z</time></trkpt><trkpt lat="44.9360567" lon="8.0241067"><ele>168.0</ele><time>2026-04-25T17:39:29.111Z</time></trkpt><trkpt lat="44.9362617" lon="8.0240117"><ele>168.0</ele><time>2026-04-25T17:39:30.111Z</time></trkpt><trkpt lat="44.9364667" lon="8.02391"><ele>168.0</ele><time>2026-04-25T17:39:31.111Z</time></trkpt><trkpt lat="44.9366733" lon="8.0238067"><ele>168.0</ele><time>2026-04-25T17:39:32.111Z</time></trkpt><trkpt lat="44.936875" lon="8.023715"><ele>168.0</ele><time>2026-04-25T17:39:33.111Z</time></trkpt><trkpt lat="44.9370733" lon="8.0236133"><ele>168.0</ele><time>2026-04-25T17:39:34.111Z</time></trkpt><trkpt lat="44.937265" lon="8.0235117"><ele>168.0</ele><time>2026-04-25T17:39:35.111Z</time></trkpt><trkpt lat="44.9374633" lon="8.0234067"><ele>168.0</ele><time>2026-04-25T17:39:36.111Z</time></trkpt><trkpt lat="44.9376533" lon="8.0233133"><ele>168.0</ele><time>2026-04-25T17:39:37.111Z</time></trkpt><trkpt lat="44.9378283" lon="8.0232383"><ele>168.0</ele><time>2026-04-25T17:39:38.111Z</time></trkpt><trkpt lat="44.937995" lon="8.0231533"><ele>168.0</ele><time>2026-04-25T17:39:39.111Z</time></trkpt><trkpt lat="44.93816" lon="8.0230767"><ele>168.0</ele><time>2026-04-25T17:39:40.111Z</time></trkpt><trkpt lat="44.9383117" lon="8.023"><ele>168.0</ele><time>2026-04-25T17:39:41.111Z</time></trkpt><trkpt lat="44.9384633" lon="8.0229217"><ele>168.0</ele><time>2026-04-25T17:39:42.111Z</time></trkpt><trkpt lat="44.9385867" lon="8.02285"><ele>168.60000000000002</ele><time>2026-04-25T17:39:43.111Z</time></trkpt><trkpt lat="44.93869" lon="8.02279"><ele>169.20000000000002</ele><time>2026-04-25T17:39:44.111Z</time></trkpt><trkpt lat="44.9387783" lon="8.022745"><ele>169.8</ele><time>2026-04-25T17:39:45.111Z</time></trkpt><trkpt lat="44.9388483" lon="8.0227267"><ele>170.4</ele><time>2026-04-25T17:39:46.111Z</time></trkpt><trkpt lat="44.9389133" lon="8.0227383"><ele>171.0</ele><time>2026-04-25T17:39:47.111Z</time></trkpt><trkpt lat="44.9390133" lon="8.02282"><ele>171.0</ele><time>2026-04-25T17:39:49.111Z</time></trkpt><trkpt lat="44.9390667" lon="8.022895"><ele>171.0</ele><time>2026-04-25T17:39:50.111Z</time></trkpt><trkpt lat="44.93913" lon="8.0229867"><ele>171.0</ele><time>2026-04-25T17:39:51.111Z</time></trkpt><trkpt lat="44.9392033" lon="8.02307"><ele>171.0</ele><time>2026-04-25T17:39:52.111Z</time></trkpt><trkpt lat="44.93928" lon="8.0231633"><ele>171.0</ele><time>2026-04-25T17:39:53.111Z</time></trkpt><trkpt lat="44.9393617" lon="8.02326"><ele>173.25</ele><time>2026-04-25T17:39:54.111Z</time></trkpt><trkpt lat="44.939455" lon="8.0233683"><ele>175.5</ele><time>2026-04-25T17:39:55.111Z</time></trkpt><trkpt lat="44.9395533" lon="8.0234833"><ele>177.75</ele><time>2026-04-25T17:39:56.111Z</time></trkpt><trkpt lat="44.9396567" lon="8.0236033"><ele>180.0</ele><time>2026-04-25T17:39:57.111Z</time></trkpt><trkpt lat="44.9397633" lon="8.0237367"><ele>180.0</ele><time>2026-04-25T17:39:58.111Z</time></trkpt><trkpt lat="44.9398717" lon="8.0238733"><ele>180.0</ele><time>2026-04-25T17:39:59.111Z</time></trkpt><trkpt lat="44.9399733" lon="8.024025"><ele>180.0</ele><time>2026-04-25T17:40:00.111Z</time></trkpt><trkpt lat="44.9400567" lon="8.0241767"><ele>180.0</ele><time>2026-04-25T17:40:01.111Z</time></trkpt><trkpt lat="44.9401233" lon="8.024325"><ele>181.8</ele><time>2026-04-25T17:40:02.111Z</time></trkpt><trkpt lat="44.9401783" lon="8.0244517"><ele>183.6</ele><time>2026-04-25T17:40:03.111Z</time></trkpt><trkpt lat="44.94025" lon="8.024555"><ele>185.39999999999998</ele><time>2026-04-25T17:40:04.111Z</time></trkpt><trkpt lat="44.94034" lon="8.02461"><ele>187.2</ele><time>2026-04-25T17:40:05.111Z</time></trkpt><trkpt lat="44.940445" lon="8.0246467"><ele>189.0</ele><time>2026-04-25T17:40:06.111Z</time></trkpt><trkpt lat="44.9405567" lon="8.0246867"><ele>189.0</ele><time>2026-04-25T17:40:07.111Z</time></trkpt><trkpt lat="44.9406783" lon="8.02475"><ele>189.0</ele><time>2026-04-25T17:40:08.111Z</time></trkpt><trkpt lat="44.9407967" lon="8.02483"><ele>189.0</ele><time>2026-04-25T17:40:09.111Z</time></trkpt><trkpt lat="44.9408983" lon="8.0249233"><ele>189.0</ele><time>2026-04-25T17:40:10.111Z</time></trkpt><trkpt lat="44.941" lon="8.02504"><ele>190.25</ele><time>2026-04-25T17:40:11.111Z</time></trkpt><trkpt lat="44.9411033" lon="8.025175"><ele>191.5</ele><time>2026-04-25T17:40:12.111Z</time></trkpt><trkpt lat="44.9412" lon="8.025295"><ele>192.75</ele><time>2026-04-25T17:40:13.111Z</time></trkpt><trkpt lat="44.941285" lon="8.0254267"><ele>194.0</ele><time>2026-04-25T17:40:14.111Z</time></trkpt><trkpt lat="44.94136" lon="8.02557"><ele>194.0</ele><time>2026-04-25T17:40:15.111Z</time></trkpt><trkpt lat="44.9414217" lon="8.0257467"><ele>194.0</ele><time>2026-04-25T17:40:16.111Z</time></trkpt><trkpt lat="44.9414683" lon="8.0259483"><ele>194.0</ele><time>2026-04-25T17:40:17.111Z</time></trkpt><trkpt lat="44.941515" lon="8.026155"><ele>194.0</ele><time>2026-04-25T17:40:18.111Z</time></trkpt><trkpt lat="44.9415567" lon="8.0263533"><ele>196.0</ele><time>2026-04-25T17:40:19.111Z</time></trkpt><trkpt lat="44.9415967" lon="8.0265367"><ele>198.0</ele><time>2026-04-25T17:40:20.111Z</time></trkpt><trkpt lat="44.94163" lon="8.026695"><ele>200.0</ele><time>2026-04-25T17:40:21.111Z</time></trkpt><trkpt lat="44.9416833" lon="8.026845"><ele>202.0</ele><time>2026-04-25T17:40:22.111Z</time></trkpt><trkpt lat="44.9417583" lon="8.0269383"><ele>204.75</ele><time>2026-04-25T17:40:23.111Z</time></trkpt><trkpt lat="44.9418533" lon="8.027005"><ele>207.5</ele><time>2026-04-25T17:40:24.111Z</time></trkpt><trkpt lat="44.9419733" lon="8.0270467"><ele>210.25</ele><time>2026-04-25T17:40:25.111Z</time></trkpt><trkpt lat="44.9421033" lon="8.027085"><ele>213.0</ele><time>2026-04-25T17:40:26.111Z</time></trkpt><trkpt lat="44.942235" lon="8.027145"><ele>213.0</ele><time>2026-04-25T17:40:27.111Z</time></trkpt><trkpt lat="44.94236" lon="8.02721"><ele>213.0</ele><time>2026-04-25T17:40:28.111Z</time></trkpt><trkpt lat="44.9424783" lon="8.0272833"><ele>213.0</ele><time>2026-04-25T17:40:29.111Z</time></trkpt><trkpt lat="44.9425933" lon="8.0273617"><ele>213.0</ele><time>2026-04-25T17:40:30.111Z</time></trkpt><trkpt lat="44.94271" lon="8.02744"><ele>215.0</ele><time>2026-04-25T17:40:31.112Z</time></trkpt><trkpt lat="44.94283" lon="8.0275017"><ele>217.0</ele><time>2026-04-25T17:40:32.111Z</time></trkpt><trkpt lat="44.9429517" lon="8.027565"><ele>219.0</ele><time>2026-04-25T17:40:33.111Z</time></trkpt><trkpt lat="44.9430733" lon="8.02762"><ele>221.0</ele><time>2026-04-25T17:40:34.111Z</time></trkpt><trkpt lat="44.9432017" lon="8.027675"><ele>221.0</ele><time>2026-04-25T17:40:35.111Z</time></trkpt><trkpt lat="44.9433367" lon="8.027705"><ele>221.0</ele><time>2026-04-25T17:40:36.111Z</time></trkpt><trkpt lat="44.9434817" lon="8.02774"><ele>221.0</ele><time>2026-04-25T17:40:37.111Z</time></trkpt><trkpt lat="44.9436183" lon="8.0277683"><ele>221.0</ele><time>2026-04-25T17:40:38.111Z</time></trkpt><trkpt lat="44.94375" lon="8.027795"><ele>222.75</ele><time>2026-04-25T17:40:39.111Z</time></trkpt><trkpt lat="44.9438833" lon="8.02782"><ele>224.5</ele><time>2026-04-25T17:40:40.111Z</time></trkpt><trkpt lat="44.9440267" lon="8.0278383"><ele>226.25</ele><time>2026-04-25T17:40:41.111Z</time></trkpt><trkpt lat="44.944165" lon="8.0278667"><ele>228.0</ele><time>2026-04-25T17:40:42.111Z</time></trkpt><trkpt lat="44.944305" lon="8.02789"><ele>229.0</ele><time>2026-04-25T17:40:43.111Z</time></trkpt><trkpt lat="44.9444417" lon="8.0279067"><ele>230.0</ele><time>2026-04-25T17:40:44.111Z</time></trkpt><trkpt lat="44.9445817" lon="8.02792"><ele>231.0</ele><time>2026-04-25T17:40:45.111Z</time></trkpt><trkpt lat="44.9447117" lon="8.0279417"><ele>232.0</ele><time>2026-04-25T17:40:46.111Z</time></trkpt><trkpt lat="44.9448317" lon="8.02797"><ele>232.0</ele><time>2026-04-25T17:40:47.111Z</time></trkpt><trkpt lat="44.9449467" lon="8.0279867"><ele>232.0</ele><time>2026-04-25T17:40:48.111Z</time></trkpt><trkpt lat="44.94506" lon="8.02802"><ele>232.0</ele><time>2026-04-25T17:40:49.111Z</time></trkpt><trkpt lat="44.9451617" lon="8.0280583"><ele>232.0</ele><time>2026-04-25T17:40:50.111Z</time></trkpt><trkpt lat="44.945275" lon="8.0280917"><ele>232.8</ele><time>2026-04-25T17:40:51.111Z</time></trkpt><trkpt lat="44.9453783" lon="8.02813"><ele>233.6</ele><time>2026-04-25T17:40:52.111Z</time></trkpt><trkpt lat="44.9454817" lon="8.0281533"><ele>234.40000000000003</ele><time>2026-04-25T17:40:53.111Z</time></trkpt><trkpt lat="44.94559" lon="8.02816"><ele>235.20000000000002</ele><time>2026-04-25T17:40:54.111Z</time></trkpt><trkpt lat="44.945705" lon="8.02816"><ele>236.0</ele><time>2026-04-25T17:40:55.111Z</time></trkpt><trkpt lat="44.9458167" lon="8.0281517"><ele>235.4</ele><time>2026-04-25T17:40:56.111Z</time></trkpt><trkpt lat="44.945925" lon="8.028125"><ele>234.8</ele><time>2026-04-25T17:40:57.111Z</time></trkpt><trkpt lat="44.9460333" lon="8.0281117"><ele>234.20000000000002</ele><time>2026-04-25T17:40:58.111Z</time></trkpt><trkpt lat="44.9461433" lon="8.02812"><ele>233.60000000000002</ele><time>2026-04-25T17:40:59.111Z</time></trkpt><trkpt lat="44.9462317" lon="8.0281517"><ele>233.0</ele><time>2026-04-25T17:41:00.111Z</time></trkpt><trkpt lat="44.946295" lon="8.02821"><ele>233.00000000000003</ele><time>2026-04-25T17:41:01.111Z</time></trkpt><trkpt lat="44.9463583" lon="8.0282817"><ele>233.0</ele><time>2026-04-25T17:41:02.111Z</time></trkpt><trkpt lat="44.9464067" lon="8.028355"><ele>233.0</ele><time>2026-04-25T17:41:03.111Z</time></trkpt><trkpt lat="44.9464983" lon="8.028435"><ele>233.0</ele><time>2026-04-25T17:41:05.111Z</time></trkpt><trkpt lat="44.9465967" lon="8.0283917"><ele>233.00000000000003</ele><time>2026-04-25T17:41:07.111Z</time></trkpt><trkpt lat="44.946655" lon="8.02834"><ele>233.0</ele><time>2026-04-25T17:41:08.111Z</time></trkpt><trkpt lat="44.9467283" lon="8.0282733"><ele>233.8</ele><time>2026-04-25T17:41:09.111Z</time></trkpt><trkpt lat="44.9468117" lon="8.0282217"><ele>234.60000000000002</ele><time>2026-04-25T17:41:10.111Z</time></trkpt><trkpt lat="44.94691" lon="8.0281433"><ele>235.39999999999998</ele><time>2026-04-25T17:41:11.111Z</time></trkpt><trkpt lat="44.9470133" lon="8.028075"><ele>236.2</ele><time>2026-04-25T17:41:12.111Z</time></trkpt><trkpt lat="44.947125" lon="8.0279967"><ele>237.0</ele><time>2026-04-25T17:41:13.111Z</time></trkpt><trkpt lat="44.94725" lon="8.027925"><ele>237.0</ele><time>2026-04-25T17:41:14.111Z</time></trkpt><trkpt lat="44.94738" lon="8.02783"><ele>237.0</ele><time>2026-04-25T17:41:15.111Z</time></trkpt><trkpt lat="44.9475083" lon="8.02776"><ele>237.0</ele><time>2026-04-25T17:41:16.111Z</time></trkpt><trkpt lat="44.9476283" lon="8.0276817"><ele>237.0</ele><time>2026-04-25T17:41:17.111Z</time></trkpt><trkpt lat="44.9477467" lon="8.0276"><ele>239.0</ele><time>2026-04-25T17:41:18.111Z</time></trkpt><trkpt lat="44.94787" lon="8.0275083"><ele>241.0</ele><time>2026-04-25T17:41:19.111Z</time></trkpt><trkpt lat="44.9479917" lon="8.027425"><ele>243.0</ele><time>2026-04-25T17:41:20.111Z</time></trkpt><trkpt lat="44.9481133" lon="8.0273433"><ele>245.0</ele><time>2026-04-25T17:41:21.111Z</time></trkpt><trkpt lat="44.94823" lon="8.0272767"><ele>245.0</ele><time>2026-04-25T17:41:22.111Z</time></trkpt><trkpt lat="44.9483417" lon="8.0272183"><ele>245.0</ele><time>2026-04-25T17:41:23.111Z</time></trkpt><trkpt lat="44.9484467" lon="8.02717"><ele>245.0</ele><time>2026-04-25T17:41:24.111Z</time></trkpt><trkpt lat="44.94856" lon="8.0271517"><ele>245.0</ele><time>2026-04-25T17:41:25.111Z</time></trkpt><trkpt lat="44.94867" lon="8.0271833"><ele>246.25</ele><time>2026-04-25T17:41:26.111Z</time></trkpt><trkpt lat="44.94879" lon="8.0272283"><ele>247.5</ele><time>2026-04-25T17:41:27.111Z</time></trkpt><trkpt lat="44.9489017" lon="8.0272967"><ele>248.75</ele><time>2026-04-25T17:41:28.111Z</time></trkpt><trkpt lat="44.9490117" lon="8.0273667"><ele>250.0</ele><time>2026-04-25T17:41:29.111Z</time></trkpt><trkpt lat="44.9491233" lon="8.027415"><ele>247.5</ele><time>2026-04-25T17:41:30.111Z</time></trkpt><trkpt lat="44.9492417" lon="8.0274533"><ele>245.0</ele><time>2026-04-25T17:41:31.111Z</time></trkpt><trkpt lat="44.9493583" lon="8.0274783"><ele>242.5</ele><time>2026-04-25T17:41:32.111Z</time></trkpt><trkpt lat="44.949475" lon="8.0274717"><ele>240.0</ele><time>2026-04-25T17:41:33.111Z</time></trkpt><trkpt lat="44.9495867" lon="8.0274583"><ele>240.0</ele><time>2026-04-25T17:41:34.111Z</time></trkpt><trkpt lat="44.94969" lon="8.0274417"><ele>240.0</ele><time>2026-04-25T17:41:35.111Z</time></trkpt><trkpt lat="44.9497933" lon="8.0274183"><ele>240.0</ele><time>2026-04-25T17:41:36.111Z</time></trkpt><trkpt lat="44.9498983" lon="8.0274"><ele>240.0</ele><time>2026-04-25T17:41:37.111Z</time></trkpt><trkpt lat="44.94999" lon="8.0273917"><ele>240.0</ele><time>2026-04-25T17:41:38.111Z</time></trkpt><trkpt lat="44.95007" lon="8.0273883"><ele>240.66666666666666</ele><time>2026-04-25T17:41:39.111Z</time></trkpt><trkpt lat="44.9501333" lon="8.027375"><ele>241.33333333333331</ele><time>2026-04-25T17:41:40.111Z</time></trkpt><trkpt lat="44.9502117" lon="8.0273367"><ele>242.0</ele><time>2026-04-25T17:41:42.111Z</time></trkpt><trkpt lat="44.9502233" lon="8.027225"><ele>242.66666666666666</ele><time>2026-04-25T17:41:44.111Z</time></trkpt><trkpt lat="44.9502133" lon="8.0271117"><ele>243.33333333333331</ele><time>2026-04-25T17:41:46.111Z</time></trkpt><trkpt lat="44.95019" lon="8.0269917"><ele>244.0</ele><time>2026-04-25T17:41:48.111Z</time></trkpt><trkpt lat="44.9501817" lon="8.0268733"><ele>244.0</ele><time>2026-04-25T17:41:50.111Z</time></trkpt><trkpt lat="44.9501667" lon="8.0267783"><ele>244.0</ele><time>2026-04-25T17:41:53.111Z</time></trkpt><trkpt lat="44.9500933" lon="8.0267517"><ele>244.0</ele><time>2026-04-25T17:42:23.111Z</time></trkpt><trkpt lat="44.9500317" lon="8.026805"><ele>240.0</ele><time>2026-04-25T17:42:26.111Z</time></trkpt></trkseg></trk></gpx>